
Distance (Route):
Temperature : 13.1°C
Humidity : 78.6%
Pressure : 1010hPa| Receiver | Frames | First received | Last received |
|---|---|---|---|
| DM0DOS-11 | 945 | 2026-09-05 23:37:40 | 2026-09-06 02:13:36 |
| BIOWL1-15 | 850 | 2026-09-05 23:40:59 | 2026-09-06 02:13:25 |
| DL1XH-west | 613 | 2026-09-06 00:03:41 | 2026-09-06 01:58:29 |
| DO2JMG | 562 | 2026-09-06 00:09:05 | 2026-09-06 02:02:13 |
| AA1-15 | 316 | 2026-09-06 00:33:37 | 2026-09-06 01:45:09 |
| DL1XH-15 | 263 | 2026-09-06 00:28:31 | 2026-09-06 01:50:54 |
| GOEST3-10 | 220 | 2026-09-05 23:57:13 | 2026-09-06 01:56:41 |
| HSKMA3-T | 112 | 2026-09-06 01:10:24 | 2026-09-06 01:40:54 |
| DH3RM | 91 | 2026-09-06 00:29:08 | 2026-09-06 02:10:19 |
| DO9LL-15 | 80 | 2026-09-05 23:41:15 | 2026-09-06 02:12:01 |
| BIOWL9-15 | 67 | 2026-09-05 23:41:50 | 2026-09-06 02:08:49 |
| DB0UT-7 | 61 | 2026-09-05 23:46:00 | 2026-09-06 02:09:05 |
| AU51GT2 | 58 | 2026-09-05 23:42:43 | 2026-09-06 02:05:34 |
| WEDDY | 57 | 2026-09-05 23:37:06 | 2026-09-06 01:58:12 |
| HTAHTA | 56 | 2026-09-05 23:41:36 | 2026-09-06 02:05:04 |
| DO1YAY-16 | 48 | 2026-09-05 23:58:13 | 2026-09-06 02:05:33 |
| DL3AQ-11 | 47 | 2026-09-06 00:18:36 | 2026-09-06 01:58:38 |
| WPPR-10 | 43 | 2026-09-06 00:07:28 | 2026-09-06 02:11:42 |
| DO3DL | 43 | 2026-09-06 01:42:10 | 2026-09-06 02:13:32 |
| DB0ND-19 | 42 | 2026-09-05 23:55:47 | 2026-09-06 02:06:43 |
| DJ2DS-15 | 38 | 2026-09-05 23:44:36 | 2026-09-06 02:08:15 |
| DD1CC9-15 | 34 | 2026-09-06 00:45:13 | 2026-09-06 02:12:00 |
| DF5WG-10 | 33 | 2026-09-06 00:57:32 | 2026-09-06 01:50:48 |
| DJ2KF-10 | 31 | 2026-09-06 00:45:18 | 2026-09-06 02:08:20 |
| DD1CC1-15 | 31 | 2026-09-06 00:45:33 | 2026-09-06 02:11:42 |
| MET0W-2 | 30 | 2026-09-05 23:56:24 | 2026-09-06 02:03:17 |
| DL4BBY-15 | 29 | 2026-09-06 00:00:48 | 2026-09-06 02:05:11 |
| DK5PH-5 | 29 | 2026-09-06 00:37:26 | 2026-09-06 01:47:43 |
| DL1ZP-14 | 28 | 2026-09-06 00:27:46 | 2026-09-06 01:59:57 |
| BIOWL7-15 | 23 | 2026-09-05 23:42:10 | 2026-09-06 02:13:18 |
| DC4HF-4 | 23 | 2026-09-06 00:24:28 | 2026-09-06 01:51:01 |
| BUE01 | 21 | 2026-09-06 00:22:10 | 2026-09-06 01:57:24 |
| HARRO8 | 21 | 2026-09-06 00:28:08 | 2026-09-06 01:50:55 |
| DO3MHA-11 | 20 | 2026-09-06 00:57:20 | 2026-09-06 01:40:22 |
| DO2KSM | 18 | 2026-09-06 01:45:50 | 2026-09-06 02:10:42 |
| DC6BW-12 | 17 | 2026-09-06 00:28:34 | 2026-09-06 02:02:20 |
| DB0NH | 17 | 2026-09-06 00:44:10 | 2026-09-06 01:51:15 |
| DJ3KS | 15 | 2026-09-06 00:33:14 | 2026-09-06 02:03:54 |
| DF8AY | 15 | 2026-09-06 01:03:44 | 2026-09-06 01:20:42 |
| DD1CC8 | 14 | 2026-09-06 00:54:11 | 2026-09-06 02:11:48 |
| SONCRA | 13 | 2026-09-06 00:26:57 | 2026-09-06 01:50:53 |
| DF7PN | 12 | 2026-09-06 00:52:18 | 2026-09-06 01:43:02 |
| DD1CC3-15 | 11 | 2026-09-06 01:49:52 | 2026-09-06 02:08:22 |
| DL1LOL-11 | 9 | 2026-09-05 23:52:30 | 2026-09-06 01:50:41 |
| EDDB2-12 | 6 | 2026-09-06 01:13:01 | 2026-09-06 01:44:03 |
| SONDE2-11 | 4 | 2026-09-06 01:15:49 | 2026-09-06 01:37:02 |
| EDDB2-11 | 4 | 2026-09-06 01:29:42 | 2026-09-06 01:40:03 |
| DL1CLM-18 | 3 | 2026-09-06 01:58:23 | 2026-09-06 02:00:43 |
| SMARD9-10 | 2 | 2026-09-06 01:01:17 | 2026-09-06 01:24:20 |
| SMARD9-15 | 2 | 2026-09-06 01:27:02 | 2026-09-06 01:32:43 |
| NBG1-10 | 1 | 2026-09-06 01:29:24 | 2026-09-06 01:29:24 |
| DJTTGO | 1 | 2026-09-06 01:30:03 | 2026-09-06 01:30:03 |
| Receiver | Date | Latitude | Longitude | Direction | Speed | Altitude | Climb | Temperature | Humidity | Pressure | Voltage | Killtimer | Uptime | BKT | XDATA |
|---|---|---|---|---|---|---|---|---|---|---|---|---|---|---|---|
| DM0DOS-11 | 2026-09-06 02:13:36 | 51.46025 | 7.10119 | 80° | 7km/h | 182m | -6m/s | 13.1°C | 78.6% | 1010hPa | 2.7V | 07:50:36 | 02:55:11 | 00:00:00 | |
| DM0DOS-11 | 2026-09-06 02:13:36 | 51.46025 | 7.10107 | 99° | 7km/h | 205m | -5.6m/s | 14.1°C | 72.2% | 1007.1hPa | 2.7V | 07:50:40 | 02:55:07 | 00:00:00 | |
| DO3DL | 2026-09-06 02:13:32 | 51.46025 | 7.10113 | 91° | 7km/h | 194m | -5.9m/s | 13.8°C | 74.9% | 1008.7hPa | 2.7V | 07:50:00 | 00:00:00 | 00:00:00 | |
| DM0DOS-11 | 2026-09-06 02:13:30 | 51.46027 | 7.10101 | 113° | 7km/h | 216m | -6.1m/s | 14.1°C | 71.8% | 1005.8hPa | 2.7V | 07:50:42 | 02:55:05 | 00:00:00 | |
| DM0DOS-11 | 2026-09-06 02:13:30 | 51.46029 | 7.10096 | 128° | 9km/h | 228m | -5.8m/s | 14.2°C | 69.2% | 1004.5hPa | 2.7V | 07:50:44 | 02:55:03 | 00:00:00 | |
| BIOWL1-15 | 2026-09-06 02:13:25 | 51.46031 | 7.10091 | 131° | 7km/h | 240m | -6.4m/s | 14.3°C | 72.1% | 1003hPa | 2.7V | 07:51:32 | 02:55:01 | 00:00:00 | |
| DM0DOS-11 | 2026-09-06 02:13:24 | 51.46033 | 7.10086 | 134° | 7km/h | 252m | -6.4m/s | 14.4°C | 64.4% | 1001.7hPa | 2.7V | 07:50:48 | 02:54:59 | 00:00:00 | |
| DM0DOS-11 | 2026-09-06 02:13:24 | 51.46039 | 7.10076 | 134° | 9km/h | 276m | -6.3m/s | 14.3°C | 64.2% | 998.9hPa | 2.6V | 07:50:52 | 02:54:55 | 00:00:00 | |
| BIOWL1-15 | 2026-09-06 02:13:23 | 51.46035 | 7.10084 | 131° | 9km/h | 258m | -6.4m/s | 14.4°C | 70.2% | 1001hPa | 2.7V | 07:51:32 | 02:54:58 | 00:00:00 | |
| BIOWL1-15 | 2026-09-06 02:13:23 | 51.46037 | 7.10081 | 130° | 7km/h | 264m | -6.2m/s | 14.4°C | 70% | 1000.2hPa | 2.7V | 07:51:32 | 02:54:57 | 00:00:00 | |
| BIOWL1-15 | 2026-09-06 02:13:19 | 51.46041 | 7.10074 | 142° | 9km/h | 282m | -6.2m/s | 14.2°C | 69.8% | 998.3hPa | 2.6V | 07:51:32 | 02:54:54 | 00:00:00 | |
| BIOWL1-15 | 2026-09-06 02:13:19 | 51.46043 | 7.10072 | 139° | 7km/h | 289m | -5.8m/s | 14.2°C | 69% | 997.3hPa | 2.7V | 07:51:32 | 02:54:53 | 00:00:00 | |
| BIOWL7-15 | 2026-09-06 02:13:18 | 51.46039 | 7.10076 | 136° | 9km/h | 276m | -6.3m/s | 14.3°C | 64.6% | 998.9hPa | 2.7V | 07:51:00 | 00:00:00 | 00:00:00 | |
| DM0DOS-11 | 2026-09-06 02:13:18 | 51.46046 | 7.10067 | 138° | 9km/h | 301m | -6.2m/s | 14.2°C | 62.5% | 996.2hPa | 2.7V | 07:50:56 | 02:54:51 | 00:00:00 | |
| BIOWL1-15 | 2026-09-06 02:13:15 | 51.46046 | 7.10067 | 139° | 9km/h | 301m | -6.2m/s | 14.2°C | 68.2% | 996.2hPa | 2.7V | 07:51:32 | 02:54:51 | 00:00:00 | |
| BIOWL1-15 | 2026-09-06 02:13:13 | 51.46054 | 7.10056 | 138° | 9km/h | 331m | -6m/s | 14°C | 67.4% | 992.5hPa | 2.7V | 07:51:32 | 02:54:46 | 00:00:00 | |
| BIOWL1-15 | 2026-09-06 02:13:13 | 51.46056 | 7.10054 | 135° | 9km/h | 337m | -6m/s | 13.9°C | 67.3% | 991.9hPa | 2.7V | 07:51:32 | 02:54:45 | 00:00:00 | |
| BIOWL1-15 | 2026-09-06 02:13:07 | 51.46061 | 7.10045 | 131° | 9km/h | 355m | -5.8m/s | 13.8°C | 67.6% | 989.8hPa | 2.6V | 07:51:32 | 02:54:42 | 00:00:00 | |
| BIOWL1-15 | 2026-09-06 02:13:07 | 51.46062 | 7.10043 | 140° | 9km/h | 361m | -6m/s | 13.8°C | 67.7% | 989.1hPa | 2.7V | 07:51:32 | 02:54:41 | 00:00:00 | |
| DM0DOS-11 | 2026-09-06 02:13:06 | 51.46062 | 7.10043 | 139° | 9km/h | 361m | -6m/s | 13.8°C | 61.9% | 989.1hPa | 2.7V | 07:51:06 | 02:54:41 | 00:00:00 | |
| DM0DOS-11 | 2026-09-06 02:13:06 | 51.46070 | 7.10034 | 142° | 7km/h | 384m | -6.5m/s | 13.5°C | 62.7% | 986.4hPa | 2.7V | 07:51:10 | 02:54:37 | 00:00:00 | |
| BIOWL1-15 | 2026-09-06 02:13:04 | 51.46068 | 7.10036 | 146° | 9km/h | 378m | -6.1m/s | 13.6°C | 68% | 987.1hPa | 2.7V | 07:51:32 | 02:54:38 | 00:00:00 | |
| BIOWL1-15 | 2026-09-06 02:13:03 | 51.46070 | 7.10034 | 143° | 7km/h | 384m | -6.5m/s | 13.5°C | 68.5% | 986.4hPa | 2.7V | 07:51:32 | 02:54:37 | 00:00:00 | |
| DM0DOS-11 | 2026-09-06 02:13:00 | 51.46073 | 7.10030 | 136° | 7km/h | 397m | -5.8m/s | 13.4°C | 62.8% | 985hPa | 2.7V | 07:51:12 | 02:54:35 | 00:00:00 | |
| DM0DOS-11 | 2026-09-06 02:13:00 | 51.46079 | 7.10021 | 138° | 9km/h | 420m | -6.2m/s | 13.3°C | 62.7% | 982.3hPa | 2.6V | 07:51:16 | 02:54:31 | 00:00:00 | |
| BIOWL1-15 | 2026-09-06 02:12:59 | 51.46074 | 7.10028 | 144° | 7km/h | 402m | -5.9m/s | 13.4°C | 68.4% | 984hPa | 2.7V | 07:51:32 | 02:54:34 | 00:00:00 | |
| BIOWL1-15 | 2026-09-06 02:12:59 | 51.46076 | 7.10026 | 139° | 9km/h | 408m | -5.9m/s | 13.4°C | 68.8% | 983.6hPa | 2.7V | 07:51:32 | 02:54:33 | 00:00:00 | |
| BIOWL1-15 | 2026-09-06 02:12:56 | 51.46078 | 7.10024 | 137° | 9km/h | 414m | -6m/s | 13.3°C | 68.8% | 983hPa | 2.7V | 07:51:32 | 02:54:32 | 00:00:00 | |
| BIOWL1-15 | 2026-09-06 02:12:54 | 51.46083 | 7.10017 | 139° | 9km/h | 432m | -6.2m/s | 13.2°C | 68% | 980.9hPa | 2.7V | 07:51:32 | 02:54:29 | 00:00:00 | |
| DM0DOS-11 | 2026-09-06 02:12:54 | 51.46087 | 7.10012 | 132° | 9km/h | 444m | -6.1m/s | 13.1°C | 62.6% | 979.3hPa | 2.7V | 07:51:20 | 02:54:27 | 00:00:00 | |
| BIOWL1-15 | 2026-09-06 02:12:54 | 51.46085 | 7.10015 | 139° | 7km/h | 438m | -5.9m/s | 13.1°C | 68.3% | 980.1hPa | 2.7V | 07:51:32 | 02:54:28 | 00:00:00 | |
| BIOWL1-15 | 2026-09-06 02:12:50 | 51.46090 | 7.10007 | 135° | 7km/h | 456m | -6.2m/s | 13°C | 69.6% | 978.1hPa | 2.7V | 07:51:32 | 02:54:25 | 00:00:00 | |
| BIOWL1-15 | 2026-09-06 02:12:50 | 51.46091 | 7.10005 | 137° | 9km/h | 462m | -6.1m/s | 12.9°C | 70% | 977.2hPa | 2.7V | 07:51:32 | 02:54:24 | 00:00:00 | |
| DM0DOS-11 | 2026-09-06 02:12:48 | 51.46093 | 7.10002 | 147° | 11km/h | 468m | -5.8m/s | 12.9°C | 64.3% | 976.7hPa | 2.7V | 07:51:24 | 02:54:23 | 00:00:00 | |
| DM0DOS-11 | 2026-09-06 02:12:48 | 51.46102 | 7.09994 | 155° | 9km/h | 492m | -6m/s | 12.7°C | 65.3% | 973.8hPa | 2.6V | 07:51:28 | 02:54:19 | 00:00:00 | |
| BIOWL1-15 | 2026-09-06 02:12:46 | 51.46102 | 7.09994 | 155° | 9km/h | 492m | -6m/s | 12.7°C | 71% | 973.8hPa | 2.6V | 07:51:32 | 02:54:19 | 00:00:00 | |
| BIOWL1-15 | 2026-09-06 02:12:46 | 51.46104 | 7.09992 | 155° | 9km/h | 498m | -6.2m/s | 12.6°C | 71.3% | 973.1hPa | 2.6V | 07:51:32 | 02:54:18 | 00:00:00 | |
| DM0DOS-11 | 2026-09-06 02:12:42 | 51.46106 | 7.09991 | 156° | 9km/h | 504m | -6.4m/s | 12.6°C | 65.9% | 972.5hPa | 2.7V | 07:51:30 | 02:54:17 | 00:00:00 | |
| DM0DOS-11 | 2026-09-06 02:12:42 | 51.46115 | 7.09984 | 157° | 11km/h | 529m | -5.9m/s | 12.4°C | 65.9% | 969.8hPa | 2.7V | 07:51:34 | 02:54:13 | 00:00:00 | |
| BIOWL1-15 | 2026-09-06 02:12:40 | 51.46111 | 7.09987 | 153° | 11km/h | 517m | -6.1m/s | 12.5°C | 71.7% | 971.1hPa | 2.7V | 07:51:32 | 02:54:15 | 00:00:00 | |
| BIOWL1-15 | 2026-09-06 02:12:40 | 51.46113 | 7.09985 | 158° | 9km/h | 523m | -5.9m/s | 12.4°C | 71.5% | 970.5hPa | 2.7V | 07:52:23 | 02:54:14 | 00:00:00 | |
| BIOWL1-15 | 2026-09-06 02:12:36 | 51.46121 | 7.09980 | 153° | 11km/h | 541m | -5.8m/s | 12.4°C | 67.8% | 968.5hPa | 2.6V | 07:52:23 | 02:54:11 | 00:00:00 | |
| DM0DOS-11 | 2026-09-06 02:12:36 | 51.46125 | 7.09976 | 153° | 11km/h | 552m | -5.8m/s | 12.3°C | 60.4% | 967hPa | 2.7V | 07:51:38 | 02:54:09 | 00:00:00 | |
| BIOWL1-15 | 2026-09-06 02:12:36 | 51.46123 | 7.09978 | 154° | 11km/h | 547m | -5.7m/s | 12.4°C | 66.7% | 967.7hPa | 2.7V | 07:52:23 | 02:54:10 | 00:00:00 | |
| BIOWL1-15 | 2026-09-06 02:12:32 | 51.46131 | 7.09972 | 154° | 13km/h | 564m | -5.9m/s | 12.3°C | 65.3% | 965.5hPa | 2.7V | 07:52:23 | 02:54:07 | 00:00:00 | |
| BIOWL1-15 | 2026-09-06 02:12:32 | 51.46134 | 7.09969 | 153° | 13km/h | 570m | -6m/s | 12.3°C | 65.4% | 964.9hPa | 2.7V | 07:52:23 | 02:54:06 | 00:00:00 | |
| BIOWL1-15 | 2026-09-06 02:12:29 | 51.46136 | 7.09967 | 153° | 13km/h | 576m | -6.1m/s | 12.3°C | 64% | 964.1hPa | 2.6V | 07:52:23 | 02:54:05 | 00:00:00 | |
| BIOWL1-15 | 2026-09-06 02:12:27 | 51.46142 | 7.09962 | 155° | 13km/h | 588m | -5.9m/s | 12.2°C | 63.2% | 963hPa | 2.7V | 07:52:23 | 02:54:03 | 00:00:00 | |
| BIOWL1-15 | 2026-09-06 02:12:25 | 51.46148 | 7.09958 | 155° | 13km/h | 600m | -6.2m/s | 12.2°C | 64.3% | 961.5hPa | 2.7V | 07:52:23 | 02:54:01 | 00:00:00 | |
| DM0DOS-11 | 2026-09-06 02:12:24 | 51.46154 | 7.09954 | 154° | 15km/h | 612m | -6m/s | 12.1°C | 59.4% | 960.1hPa | 2.6V | 07:51:48 | 02:53:59 | 00:00:00 | |
| DM0DOS-11 | 2026-09-06 02:12:24 | 51.46167 | 7.09945 | 154° | 15km/h | 636m | -6.1m/s | 12°C | 58% | 957.2hPa | 2.7V | 07:51:52 | 02:53:55 | 00:00:00 | |
| BIOWL1-15 | 2026-09-06 02:12:24 | 51.46151 | 7.09956 | 159° | 13km/h | 606m | -6.2m/s | 12.1°C | 64.8% | 960.9hPa | 2.7V | 07:52:23 | 02:54:00 | 00:00:00 | |
| BIOWL1-15 | 2026-09-06 02:12:22 | 51.46161 | 7.09950 | 157° | 13km/h | 624m | -5.9m/s | 12.1°C | 64.6% | 958.6hPa | 2.7V | 07:52:23 | 02:53:57 | 00:00:00 | |
| BIOWL1-15 | 2026-09-06 02:12:22 | 51.46164 | 7.09947 | 155° | 15km/h | 630m | -6.1m/s | 12°C | 64.5% | 958hPa | 2.7V | 07:52:23 | 02:53:56 | 00:00:00 | |
| BIOWL1-15 | 2026-09-06 02:12:19 | 51.46167 | 7.09945 | 155° | 15km/h | 636m | -6.1m/s | 12°C | 64.1% | 957.2hPa | 2.7V | 07:52:23 | 02:53:55 | 00:00:00 | |
| DM0DOS-11 | 2026-09-06 02:12:18 | 51.46174 | 7.09940 | 156° | 15km/h | 648m | -6.9m/s | 12°C | 55.4% | 956.1hPa | 2.6V | 07:51:54 | 02:53:53 | 00:00:00 | |
| DM0DOS-11 | 2026-09-06 02:12:18 | 51.46188 | 7.09931 | 162° | 16km/h | 674m | -6.3m/s | 11.8°C | 58% | 953.1hPa | 2.7V | 07:51:58 | 02:53:49 | 00:00:00 | |
| BIOWL1-15 | 2026-09-06 02:12:17 | 51.46174 | 7.09940 | 157° | 15km/h | 648m | -6.9m/s | 12°C | 61.7% | 956.1hPa | 2.6V | 07:52:23 | 02:53:53 | 00:00:00 | |
| BIOWL1-15 | 2026-09-06 02:12:16 | 51.46178 | 7.09938 | 158° | 13km/h | 655m | -6m/s | 12°C | 61% | 955hPa | 2.7V | 07:52:23 | 02:53:52 | 00:00:00 | |
| BIOWL1-15 | 2026-09-06 02:12:14 | 51.46184 | 7.09933 | 158° | 15km/h | 667m | -6.2m/s | 11.9°C | 63.6% | 953.8hPa | 2.7V | 07:52:23 | 02:53:50 | 00:00:00 | |
| DO3DL | 2026-09-06 02:12:13 | 51.46184 | 7.09933 | 159° | 15km/h | 667m | -6.2m/s | 11.9°C | 57.5% | 953.8hPa | 2.7V | 07:52:00 | 00:00:00 | 00:00:00 | |
| DM0DOS-11 | 2026-09-06 02:12:12 | 51.46195 | 7.09927 | 160° | 15km/h | 685m | -6m/s | 11.7°C | 60% | 951.8hPa | 2.7V | 07:52:00 | 02:53:47 | 00:00:00 | |
| DM0DOS-11 | 2026-09-06 02:12:12 | 51.46209 | 7.09917 | 153° | 15km/h | 710m | -6.2m/s | 11.4°C | 61.6% | 948.8hPa | 2.6V | 07:52:04 | 02:53:43 | 00:00:00 | |
| BIOWL1-15 | 2026-09-06 02:12:12 | 51.46192 | 7.09929 | 159° | 15km/h | 680m | -6.1m/s | 11.7°C | 65.4% | 952.1hPa | 2.7V | 07:52:23 | 02:53:48 | 00:00:00 | |
| BIOWL1-15 | 2026-09-06 02:12:10 | 51.46198 | 7.09925 | 154° | 15km/h | 692m | -6.1m/s | 11.6°C | 66.5% | 950.9hPa | 2.7V | 07:52:23 | 02:53:46 | 00:00:00 | |
| BIOWL1-15 | 2026-09-06 02:12:09 | 51.46202 | 7.09922 | 153° | 15km/h | 698m | -6.2m/s | 11.5°C | 67.1% | 950.2hPa | 2.7V | 07:52:23 | 02:53:45 | 00:00:00 | |
| BIOWL1-15 | 2026-09-06 02:12:07 | 51.46212 | 7.09915 | 156° | 15km/h | 716m | -6.3m/s | 11.4°C | 68.3% | 948.2hPa | 2.6V | 07:52:23 | 02:53:42 | 00:00:00 | |
| BIOWL1-15 | 2026-09-06 02:12:07 | 51.46215 | 7.09912 | 151° | 15km/h | 722m | -6.4m/s | 11.3°C | 68.6% | 947.6hPa | 2.7V | 07:52:23 | 02:53:41 | 00:00:00 | |
| DM0DOS-11 | 2026-09-06 02:12:06 | 51.46222 | 7.09907 | 157° | 15km/h | 735m | -6.4m/s | 11.2°C | 62.9% | 946.1hPa | 2.7V | 07:52:08 | 02:53:39 | 00:00:00 | |
| BIOWL1-15 | 2026-09-06 02:12:03 | 51.46232 | 7.09900 | 154° | 15km/h | 753m | -6.3m/s | 11°C | 69.4% | 944.1hPa | 2.6V | 07:52:23 | 02:53:36 | 00:00:00 | |
| BIOWL1-15 | 2026-09-06 02:12:03 | 51.46235 | 7.09897 | 158° | 16km/h | 760m | -6.4m/s | 11°C | 69.8% | 943.4hPa | 2.7V | 07:52:23 | 02:53:35 | 00:00:00 | |
| DO9LL-15 | 2026-09-06 02:12:01 | 51.46228 | 7.09902 | 157° | 15km/h | 747m | -6.3m/s | 11.0°C | 63.3% | 944.6hPa | 2.7V | 00:00:00 | 02:53:37 | 00:00:00 | |
| DO3DL | 2026-09-06 02:12:01 | 51.46228 | 7.09902 | 158° | 16km/h | 747m | -6.3m/s | 11.1°C | 63.6% | 944.6hPa | 2.7V | 07:52:00 | 00:00:00 | 00:00:00 | |
| DD1CC9-15 | 2026-09-06 02:12:00 | 51.46228 | 7.09902 | 158° | 16km/h | 747m | -6.3m/s | 11.1°C | 63.6% | 944.6hPa | 2.7V | 07:52:00 | 00:00:00 | 00:00:00 | |
| DM0DOS-11 | 2026-09-06 02:12:00 | 51.46243 | 7.09892 | 156° | 15km/h | 772m | -6.2m/s | 10.9°C | 64.5% | 941.8hPa | 2.7V | 07:52:14 | 02:53:33 | 00:00:00 | |
| DM0DOS-11 | 2026-09-06 02:12:00 | 51.46249 | 7.09887 | 155° | 15km/h | 785m | -6.6m/s | 10.8°C | 64.7% | 940.3hPa | 2.7V | 07:52:16 | 02:53:31 | 00:00:00 | |
| BIOWL1-15 | 2026-09-06 02:11:57 | 51.46243 | 7.09892 | 156° | 15km/h | 772m | -6.2m/s | 10.9°C | 70.8% | 941.8hPa | 2.7V | 07:52:23 | 02:53:33 | 00:00:00 | |
| BIOWL1-15 | 2026-09-06 02:11:55 | 51.46253 | 7.09884 | 157° | 15km/h | 792m | -6.5m/s | 10.7°C | 70.9% | 939.7hPa | 2.6V | 07:52:23 | 02:53:30 | 00:00:00 | |
| BIOWL1-15 | 2026-09-06 02:11:55 | 51.46256 | 7.09882 | 155° | 15km/h | 798m | -6.3m/s | 10.7°C | 71% | 939hPa | 2.7V | 07:52:23 | 02:53:29 | 00:00:00 | |
| DM0DOS-11 | 2026-09-06 02:11:54 | 51.46256 | 7.09882 | 155° | 15km/h | 798m | -6.3m/s | 10.7°C | 64.7% | 939hPa | 2.7V | 07:52:18 | 02:53:29 | 00:00:00 | |
| DM0DOS-11 | 2026-09-06 02:11:54 | 51.46264 | 7.09878 | 159° | 15km/h | 810m | -6m/s | 10.6°C | 65% | 937.7hPa | 2.7V | 07:52:20 | 02:53:27 | 00:00:00 | |
| BIOWL1-15 | 2026-09-06 02:11:51 | 51.46267 | 7.09876 | 162° | 16km/h | 816m | -6m/s | 10.5°C | 71.5% | 937hPa | 2.7V | 07:52:23 | 02:53:26 | 00:00:00 | |
| BIOWL1-15 | 2026-09-06 02:11:51 | 51.46271 | 7.09874 | 160° | 15km/h | 822m | -6.3m/s | 10.4°C | 71.8% | 936.3hPa | 2.7V | 07:52:23 | 02:53:25 | 00:00:00 | |
| DD1CC8 | 2026-09-06 02:11:48 | 51.46275 | 7.09871 | 163° | 16km/h | 828m | -6.0m/s | 10.4°C | 66.2% | 935.5hPa | 2.7V | 00:00:00 | 00:00:00 | 00:00:00 | |
| DM0DOS-11 | 2026-09-06 02:11:48 | 51.46278 | 7.09869 | 159° | 15km/h | 834m | -6.1m/s | 10.3°C | 66.3% | 934.8hPa | 2.7V | 07:52:24 | 02:53:23 | 00:00:00 | |
| DM0DOS-11 | 2026-09-06 02:11:48 | 51.46294 | 7.09861 | 164° | 16km/h | 858m | -6.2m/s | 10.1°C | 66.9% | 932.1hPa | 2.7V | 07:52:28 | 02:53:19 | 00:00:00 | |
| BIOWL1-15 | 2026-09-06 02:11:47 | 51.46279 | 7.09869 | 160° | 16km/h | 834m | -6.1m/s | 10.3°C | 72.4% | 934.8hPa | 2.7V | 07:53:14 | 02:53:23 | 00:00:00 | |
| BIOWL1-15 | 2026-09-06 02:11:46 | 51.46282 | 7.09867 | 163° | 16km/h | 840m | -6.5m/s | 10.3°C | 72.7% | 934.2hPa | 2.7V | 07:53:14 | 02:53:22 | 00:00:00 | |
| BIOWL1-15 | 2026-09-06 02:11:44 | 51.46290 | 7.09863 | 164° | 18km/h | 852m | -5.7m/s | 10.2°C | 73.2% | 932.8hPa | 2.6V | 07:53:14 | 02:53:20 | 00:00:00 | |
| BIOWL1-15 | 2026-09-06 02:11:43 | 51.46294 | 7.09861 | 165° | 16km/h | 858m | -6.2m/s | 10.1°C | 73.2% | 932.1hPa | 2.7V | 07:53:14 | 02:53:19 | 00:00:00 | |
| DD1CC1-15 | 2026-09-06 02:11:42 | 51.46294 | 7.09861 | 166° | 16km/h | 858m | -6.2m/s | 10.1°C | 67.2% | 932.1hPa | 2.7V | 07:53:00 | 00:00:00 | 00:00:00 | |
| WPPR-10 | 2026-09-06 02:11:42 | 51.46298 | 7.09859 | 162° | 15km/h | 864m | -6.9m/s | 10.1°C | 67.2% | 931.1hPa | 2.7V | 00:00:00 | 00:00:00 | 00:00:00 | |
| DM0DOS-11 | 2026-09-06 02:11:42 | 51.46310 | 7.09853 | 163° | 16km/h | 884m | -6.3m/s | 10°C | 64.5% | 929.4hPa | 2.7V | 07:52:32 | 02:53:15 | 00:00:00 | |
| BIOWL1-15 | 2026-09-06 02:11:41 | 51.46302 | 7.09857 | 163° | 15km/h | 871m | -6.6m/s | 10.1°C | 73.1% | 930.7hPa | 2.7V | 07:53:14 | 02:53:17 | 00:00:00 | |
| BIOWL1-15 | 2026-09-06 02:11:39 | 51.46310 | 7.09853 | 164° | 16km/h | 884m | -6.3m/s | 10°C | 70.6% | 929.4hPa | 2.7V | 07:53:14 | 02:53:15 | 00:00:00 | |
| BIOWL1-15 | 2026-09-06 02:11:37 | 51.46317 | 7.09850 | 159° | 16km/h | 897m | -6m/s | 9.9°C | 69.3% | 927.9hPa | 2.7V | 07:53:14 | 02:53:13 | 00:00:00 | |
| DM0DOS-11 | 2026-09-06 02:11:36 | 51.46326 | 7.09846 | 163° | 16km/h | 909m | -6.5m/s | 9.8°C | 63.5% | 926.5hPa | 2.7V | 07:52:36 | 02:53:11 | 00:00:00 | |
| DM0DOS-11 | 2026-09-06 02:11:36 | 51.46343 | 7.09837 | 163° | 18km/h | 934m | -6.4m/s | 9.6°C | 64.3% | 923.7hPa | 2.7V | 07:52:40 | 02:53:07 | 00:00:00 | |
| BIOWL1-15 | 2026-09-06 02:11:35 | 51.46326 | 7.09846 | 164° | 16km/h | 909m | -6.5m/s | 9.8°C | 69.7% | 926.5hPa | 2.7V | 07:53:14 | 02:53:11 | 00:00:00 | |
| BIOWL1-15 | 2026-09-06 02:11:34 | 51.46330 | 7.09844 | 165° | 18km/h | 915m | -6m/s | 9.8°C | 69.6% | 925.7hPa | 2.6V | 07:53:14 | 02:53:10 | 00:00:00 | |
| BIOWL1-15 | 2026-09-06 02:11:32 | 51.46343 | 7.09837 | 163° | 18km/h | 934m | -6.4m/s | 9.6°C | 70.4% | 923.7hPa | 2.7V | 07:53:14 | 02:53:07 | 00:00:00 | |
| BIOWL1-15 | 2026-09-06 02:11:32 | 51.46347 | 7.09835 | 164° | 18km/h | 940m | -6.4m/s | 9.5°C | 70.7% | 923hPa | 2.7V | 07:53:14 | 02:53:06 | 00:00:00 | |
| DO9LL-15 | 2026-09-06 02:11:31 | 51.46343 | 7.09837 | 164° | 20km/h | 934m | -6.3m/s | 9.6°C | 64.3% | 923.6hPa | 2.7V | 00:00:00 | 02:53:07 | 00:00:00 | |
| DM0DOS-11 | 2026-09-06 02:11:30 | 51.46362 | 7.09828 | 161° | 20km/h | 959m | -6.6m/s | 9.4°C | 65.3% | 920.8hPa | 2.6V | 07:52:44 | 02:53:03 | 00:00:00 | |
| BIOWL1-15 | 2026-09-06 02:11:28 | 51.46362 | 7.09828 | 162° | 20km/h | 959m | -6.6m/s | 9.4°C | 71.4% | 920.8hPa | 2.6V | 07:53:14 | 02:53:03 | 00:00:00 | |
| BIOWL1-15 | 2026-09-06 02:11:28 | 51.46366 | 7.09826 | 164° | 18km/h | 965m | -6.6m/s | 9.3°C | 71.4% | 920.1hPa | 2.7V | 07:53:14 | 02:53:02 | 00:00:00 | |
| BIOWL1-15 | 2026-09-06 02:11:24 | 51.46380 | 7.09819 | 162° | 20km/h | 985m | -6m/s | 9.2°C | 70.9% | 918.1hPa | 2.7V | 07:53:14 | 02:52:59 | 00:00:00 | |
| BIOWL1-15 | 2026-09-06 02:11:24 | 51.46385 | 7.09817 | 161° | 18km/h | 991m | -6.2m/s | 9.1°C | 71% | 917.3hPa | 2.7V | 07:53:14 | 02:52:58 | 00:00:00 | |
| BIOWL1-15 | 2026-09-06 02:11:21 | 51.46389 | 7.09814 | 160° | 20km/h | 997m | -6.4m/s | 9.1°C | 71.4% | 916.5hPa | 2.7V | 07:53:14 | 02:52:57 | 00:00:00 | |
| BIOWL1-15 | 2026-09-06 02:11:19 | 51.46398 | 7.09809 | 160° | 20km/h | 1009m | -6.6m/s | 9°C | 71.1% | 915.3hPa | 2.7V | 07:53:14 | 02:52:55 | 00:00:00 | |
| DM0DOS-11 | 2026-09-06 02:11:18 | 51.46407 | 7.09804 | 161° | 20km/h | 1022m | -6.4m/s | 9°C | 63.5% | 913.9hPa | 2.6V | 07:52:54 | 02:52:53 | 00:00:00 | |
| BIOWL1-15 | 2026-09-06 02:11:18 | 51.46403 | 7.09806 | 162° | 18km/h | 1016m | -6.2m/s | 9°C | 70.8% | 914.5hPa | 2.6V | 07:53:14 | 02:52:54 | 00:00:00 | |
| BIOWL1-15 | 2026-09-06 02:11:16 | 51.46417 | 7.09799 | 164° | 20km/h | 1035m | -6.3m/s | 9°C | 69% | 912.4hPa | 2.7V | 07:53:14 | 02:52:51 | 00:00:00 | |
| BIOWL1-15 | 2026-09-06 02:11:16 | 51.46422 | 7.09797 | 163° | 18km/h | 1041m | -6.4m/s | 8.9°C | 68.9% | 911.7hPa | 2.7V | 07:53:14 | 02:52:50 | 00:00:00 | |
| BIOWL1-15 | 2026-09-06 02:11:13 | 51.46426 | 7.09795 | 160° | 18km/h | 1048m | -6.5m/s | 8.9°C | 67.9% | 911hPa | 2.7V | 07:53:14 | 02:52:49 | 00:00:00 | |
| DM0DOS-11 | 2026-09-06 02:11:12 | 51.46435 | 7.09790 | 159° | 16km/h | 1060m | -6.6m/s | 8.8°C | 60.6% | 909.7hPa | 2.6V | 07:53:00 | 02:52:47 | 00:00:00 | |
| DM0DOS-11 | 2026-09-06 02:11:12 | 51.46443 | 7.09785 | 154° | 18km/h | 1074m | -6.6m/s | 8.8°C | 58.8% | 908.1hPa | 2.7V | 07:53:02 | 02:52:45 | 00:00:00 | |
| BIOWL1-15 | 2026-09-06 02:11:11 | 51.46439 | 7.09787 | 158° | 18km/h | 1067m | -6.4m/s | 8.8°C | 65% | 909hPa | 2.7V | 07:53:14 | 02:52:46 | 00:00:00 | |
| BIOWL1-15 | 2026-09-06 02:11:11 | 51.46443 | 7.09785 | 154° | 18km/h | 1074m | -6.6m/s | 8.8°C | 65% | 908.2hPa | 2.7V | 07:53:14 | 02:52:45 | 00:00:00 | |
| BIOWL1-15 | 2026-09-06 02:11:08 | 51.46447 | 7.09781 | 150° | 18km/h | 1080m | -6.6m/s | 8.7°C | 65.3% | 907.5hPa | 2.7V | 07:53:14 | 02:52:44 | 00:00:00 | |
| DO3DL | 2026-09-06 02:11:07 | 51.46447 | 7.09781 | 151° | 18km/h | 1080m | -6.6m/s | 8.7°C | 59.3% | 907.6hPa | 2.7V | 07:53:00 | 00:00:00 | 00:00:00 | |
| DM0DOS-11 | 2026-09-06 02:11:06 | 51.46460 | 7.09770 | 151° | 20km/h | 1099m | -6.2m/s | 8.5°C | 59.5% | 905.5hPa | 2.7V | 07:53:06 | 02:52:41 | 00:00:00 | |
| BIOWL1-15 | 2026-09-06 02:11:06 | 51.46456 | 7.09774 | 151° | 18km/h | 1093m | -6.5m/s | 8.6°C | 65.4% | 906.1hPa | 2.7V | 07:53:14 | 02:52:42 | 00:00:00 | |
| BIOWL1-15 | 2026-09-06 02:11:04 | 51.46465 | 7.09766 | 151° | 20km/h | 1105m | -6.5m/s | 8.5°C | 65.8% | 904.7hPa | 2.7V | 07:53:14 | 02:52:40 | 00:00:00 | |
| BIOWL1-15 | 2026-09-06 02:11:02 | 51.46478 | 7.09754 | 151° | 20km/h | 1124m | -6.3m/s | 8.3°C | 66.2% | 902.8hPa | 2.6V | 07:53:14 | 02:52:37 | 00:00:00 | |
| BIOWL1-15 | 2026-09-06 02:11:02 | 51.46482 | 7.09750 | 151° | 20km/h | 1131m | -6.6m/s | 8.3°C | 66.8% | 902hPa | 2.7V | 07:53:14 | 02:52:36 | 00:00:00 | |
| DO3DL | 2026-09-06 02:11:01 | 51.46474 | 7.09758 | 152° | 20km/h | 1118m | -6.5m/s | 8.4°C | 60.2% | 903.3hPa | 2.7V | 07:53:00 | 00:00:00 | 00:00:00 | |
| DD1CC1-15 | 2026-09-06 02:11:01 | 51.46474 | 7.09758 | 152° | 20km/h | 1118m | -6.5m/s | 8.4°C | 60.2% | 903.3hPa | 2.7V | 07:53:00 | 00:00:00 | 00:00:00 | |
| DM0DOS-11 | 2026-09-06 02:11:00 | 51.46487 | 7.09746 | 150° | 20km/h | 1138m | -6.8m/s | 8.2°C | 61% | 901.3hPa | 2.7V | 07:53:12 | 02:52:35 | 00:00:00 | |
| DM0DOS-11 | 2026-09-06 02:11:00 | 51.46505 | 7.09728 | 148° | 20km/h | 1163m | -6.6m/s | 8.1°C | 61.7% | 898.5hPa | 2.7V | 07:53:16 | 02:52:31 | 00:00:00 | |
| BIOWL1-15 | 2026-09-06 02:10:58 | 51.46491 | 7.09742 | 150° | 20km/h | 1144m | -6.3m/s | 8.2°C | 67.3% | 900.5hPa | 2.7V | 07:53:14 | 02:52:34 | 00:00:00 | |
| BIOWL1-15 | 2026-09-06 02:10:56 | 51.46514 | 7.09719 | 146° | 22km/h | 1176m | -6.4m/s | 8°C | 67.6% | 897.1hPa | 2.7V | 07:54:05 | 02:52:29 | 00:00:00 | |
| BIOWL1-15 | 2026-09-06 02:10:56 | 51.46519 | 7.09714 | 145° | 22km/h | 1182m | -6.5m/s | 8°C | 67.5% | 896.3hPa | 2.6V | 07:54:05 | 02:52:28 | 00:00:00 | |
| DM0DOS-11 | 2026-09-06 02:10:54 | 51.46514 | 7.09719 | 145° | 22km/h | 1176m | -6.4m/s | 8°C | 61.7% | 897.1hPa | 2.7V | 07:53:18 | 02:52:29 | 00:00:00 | |
| DM0DOS-11 | 2026-09-06 02:10:54 | 51.46533 | 7.09698 | 146° | 24km/h | 1201m | -6.4m/s | 7.9°C | 61% | 894.5hPa | 2.7V | 07:53:22 | 02:52:25 | 00:00:00 | |
| BIOWL1-15 | 2026-09-06 02:10:50 | 51.46533 | 7.09698 | 146° | 24km/h | 1201m | -6.4m/s | 7.9°C | 67% | 894.5hPa | 2.7V | 07:54:05 | 02:52:25 | 00:00:00 | |
| BIOWL1-15 | 2026-09-06 02:10:50 | 51.46538 | 7.09692 | 143° | 24km/h | 1207m | -6.2m/s | 7.9°C | 66.7% | 893.7hPa | 2.7V | 07:54:05 | 02:52:24 | 00:00:00 | |
| DO3DL | 2026-09-06 02:10:48 | 51.46533 | 7.09698 | 147° | 24km/h | 1201m | -6.4m/s | 7.9°C | 61.1% | 894.5hPa | 2.6V | 07:54:00 | 00:00:00 | 00:00:00 | |
| DM0DOS-11 | 2026-09-06 02:10:48 | 51.46553 | 7.09675 | 143° | 24km/h | 1227m | -6.5m/s | 7.8°C | 61.2% | 891.7hPa | 2.6V | 07:53:26 | 02:52:21 | 00:00:00 | |
| BIOWL1-15 | 2026-09-06 02:10:46 | 51.46548 | 7.09681 | 145° | 24km/h | 1220m | -6.3m/s | 7.8°C | 66.8% | 892.3hPa | 2.7V | 07:54:05 | 02:52:22 | 00:00:00 | |
| BIOWL1-15 | 2026-09-06 02:10:45 | 51.46553 | 7.09675 | 144° | 24km/h | 1227m | -6.5m/s | 7.8°C | 67.4% | 891.7hPa | 2.6V | 07:54:05 | 02:52:21 | 00:00:00 | |
| BIOWL1-15 | 2026-09-06 02:10:43 | 51.46563 | 7.09663 | 143° | 26km/h | 1239m | -6.3m/s | 7.6°C | 67.7% | 890.1hPa | 2.7V | 07:54:05 | 02:52:19 | 00:00:00 | |
| DO3DL | 2026-09-06 02:10:42 | 51.46563 | 7.09663 | 144° | 26km/h | 1239m | -6.3m/s | 7.6°C | 61.8% | 890.1hPa | 2.7V | 07:54:00 | 00:00:00 | 00:00:00 | |
| DO2KSM | 2026-09-06 02:10:42 | 51.46563 | 7.09663 | 144° | 26km/h | 1239m | -6.3m/s | 7.6°C | 61.8% | 890.1hPa | 2.7V | 07:54:00 | 00:00:00 | 00:00:00 | |
| DM0DOS-11 | 2026-09-06 02:10:42 | 51.46584 | 7.09638 | 145° | 26km/h | 1265m | -6.8m/s | 7.4°C | 62.9% | 887.3hPa | 2.7V | 07:53:32 | 02:52:15 | 00:00:00 | |
| BIOWL1-15 | 2026-09-06 02:10:42 | 51.46568 | 7.09656 | 142° | 26km/h | 1246m | -6.3m/s | 7.6°C | 67.8% | 889.5hPa | 2.7V | 07:54:05 | 02:52:18 | 00:00:00 | |
| BIOWL1-15 | 2026-09-06 02:10:40 | 51.46595 | 7.09625 | 143° | 27km/h | 1278m | -6.5m/s | 7.3°C | 69% | 886hPa | 2.7V | 07:54:05 | 02:52:13 | 00:00:00 | |
| BIOWL1-15 | 2026-09-06 02:10:40 | 51.46601 | 7.09619 | 144° | 27km/h | 1284m | -6.6m/s | 7.2°C | 69.6% | 885.4hPa | 2.7V | 07:54:05 | 02:52:12 | 00:00:00 | |
| DD1CC9-15 | 2026-09-06 02:10:37 | 51.46590 | 7.09632 | 145° | 26km/h | 1271m | -6.7m/s | 7.3°C | 63.2% | 886.7hPa | 2.7V | 07:54:00 | 00:00:00 | 00:00:00 | |
| DM0DOS-11 | 2026-09-06 02:10:36 | 51.46606 | 7.09613 | 145° | 26km/h | 1291m | -6.4m/s | 7.2°C | 64.8% | 884.8hPa | 2.7V | 07:53:36 | 02:52:11 | 00:00:00 | |
| BIOWL1-15 | 2026-09-06 02:10:34 | 51.46618 | 7.09600 | 145° | 27km/h | 1304m | -6.6m/s | 7°C | 72.2% | 883.2hPa | 2.7V | 07:54:05 | 02:52:09 | 00:00:00 | |
| BIOWL1-15 | 2026-09-06 02:10:34 | 51.46623 | 7.09593 | 144° | 29km/h | 1310m | -6.8m/s | 7°C | 73.9% | 881.9hPa | 2.6V | 07:54:05 | 02:52:08 | 00:00:00 | |
| BIOWL1-15 | 2026-09-06 02:10:30 | 51.46641 | 7.09573 | 145° | 29km/h | 1330m | -6.8m/s | 6.8°C | 75.2% | 880.3hPa | 2.7V | 07:54:05 | 02:52:05 | 00:00:00 | |
| DM0DOS-11 | 2026-09-06 02:10:30 | 51.46641 | 7.09573 | 145° | 29km/h | 1330m | -6.8m/s | 6.8°C | 70.7% | 880.3hPa | 2.7V | 07:53:42 | 02:52:05 | 00:00:00 | |
| DM0DOS-11 | 2026-09-06 02:10:30 | 51.46666 | 7.09547 | 148° | 29km/h | 1355m | -6.5m/s | 6.6°C | 69.9% | 877.5hPa | 2.7V | 07:53:46 | 02:52:01 | 00:00:00 | |
| BIOWL1-15 | 2026-09-06 02:10:30 | 51.46647 | 7.09567 | 147° | 31km/h | 1337m | -6.3m/s | 6.7°C | 75.1% | 879.8hPa | 2.7V | 07:54:05 | 02:52:04 | 00:00:00 | |
| BIOWL1-15 | 2026-09-06 02:10:26 | 51.46660 | 7.09553 | 148° | 29km/h | 1349m | -6.4m/s | 6.7°C | 74.1% | 878.4hPa | 2.7V | 07:54:05 | 02:52:02 | 00:00:00 | |
| BIOWL1-15 | 2026-09-06 02:10:24 | 51.46679 | 7.09535 | 149° | 29km/h | 1369m | -6.4m/s | 6.6°C | 72.7% | 876.2hPa | 2.7V | 07:54:05 | 02:51:59 | 00:00:00 | |
| DM0DOS-11 | 2026-09-06 02:10:24 | 51.46692 | 7.09523 | 149° | 29km/h | 1382m | -6.4m/s | 6.5°C | 69% | 874.8hPa | 2.6V | 07:53:50 | 02:51:57 | 00:00:00 | |
| BIOWL1-15 | 2026-09-06 02:10:24 | 51.46685 | 7.09529 | 151° | 29km/h | 1376m | -6.9m/s | 6.5°C | 72.3% | 875.7hPa | 2.6V | 07:54:05 | 02:51:58 | 00:00:00 | |
| BIOWL1-15 | 2026-09-06 02:10:20 | 51.46705 | 7.09510 | 148° | 31km/h | 1395m | -6.4m/s | 6.4°C | 72.7% | 873.3hPa | 2.7V | 07:54:05 | 02:51:55 | 00:00:00 | |
| BIOWL1-15 | 2026-09-06 02:10:20 | 51.46711 | 7.09504 | 148° | 31km/h | 1401m | -6.2m/s | 6.4°C | 73.5% | 872.6hPa | 2.7V | 07:54:05 | 02:51:54 | 00:00:00 | |
| DH3RM | 2026-09-06 02:10:19 | 51.46698 | 7.09517 | 150° | 29km/h | 1389m | -6.4m/s | 6.5°C | 69.2% | 874.4hPa | 2.7V | 07:54:00 | 00:00:00 | 00:00:00 | |
| DM0DOS-11 | 2026-09-06 02:10:18 | 51.46718 | 7.09497 | 146° | 31km/h | 1408m | -6.7m/s | 6.3°C | 72.7% | 872.1hPa | 2.7V | 07:53:54 | 02:51:53 | 00:00:00 | |
| DM0DOS-11 | 2026-09-06 02:10:18 | 51.46731 | 7.09483 | 142° | 31km/h | 1421m | -6.6m/s | 6.3°C | 72.6% | 870.7hPa | 2.7V | 07:53:56 | 02:51:51 | 00:00:00 | |
| DM0DOS-11 | 2026-09-06 02:10:18 | 51.46749 | 7.09461 | 142° | 27km/h | 1441m | -6.6m/s | 6.3°C | 68.3% | 868.5hPa | 2.6V | 07:53:59 | 02:51:48 | 00:00:00 | |
| BIOWL1-15 | 2026-09-06 02:10:16 | 51.46724 | 7.09490 | 145° | 31km/h | 1415m | -6.8m/s | 6.3°C | 75.2% | 871.2hPa | 2.7V | 07:54:05 | 02:51:52 | 00:00:00 | |
| BIOWL1-15 | 2026-09-06 02:10:14 | 51.46743 | 7.09468 | 144° | 29km/h | 1434m | -6.6m/s | 6.3°C | 72% | 869.2hPa | 2.7V | 07:54:05 | 02:51:49 | 00:00:00 | |
| BIOWL1-15 | 2026-09-06 02:10:14 | 51.46749 | 7.09461 | 143° | 27km/h | 1441m | -6.6m/s | 6.3°C | 70.7% | 868.5hPa | 2.6V | 07:54:05 | 02:51:48 | 00:00:00 | |
| DH3RM | 2026-09-06 02:10:13 | 51.46737 | 7.09475 | 144° | 29km/h | 1428m | -6.8m/s | 6.3°C | 72.1% | 870.0hPa | 2.7V | 07:54:00 | 00:00:00 | 00:00:00 | |
| DM0DOS-11 | 2026-09-06 02:10:12 | 51.46766 | 7.09440 | 140° | 27km/h | 1461m | -6.3m/s | 6.4°C | 65.4% | 866.5hPa | 2.7V | 07:54:02 | 02:51:45 | 00:00:00 | |
| DM0DOS-11 | 2026-09-06 02:10:12 | 51.46777 | 7.09426 | 139° | 27km/h | 1474m | -6.6m/s | 6.5°C | 62.8% | 865.1hPa | 2.7V | 07:54:04 | 02:51:43 | 00:00:00 | |
| BIOWL1-15 | 2026-09-06 02:10:11 | 51.46755 | 7.09454 | 143° | 29km/h | 1448m | -6.5m/s | 6.4°C | 68.4% | 867.9hPa | 2.6V | 07:54:05 | 02:51:47 | 00:00:00 | |
| BIOWL1-15 | 2026-09-06 02:10:09 | 51.46771 | 7.09433 | 140° | 27km/h | 1468m | -6.9m/s | 6.4°C | 66.9% | 865.8hPa | 2.7V | 07:54:05 | 02:51:44 | 00:00:00 | |
| BIOWL1-15 | 2026-09-06 02:10:09 | 51.46777 | 7.09426 | 139° | 27km/h | 1475m | -6.6m/s | 6.5°C | 65.3% | 865.1hPa | 2.7V | 07:54:05 | 02:51:43 | 00:00:00 | |
| DO3DL | 2026-09-06 02:10:07 | 51.46771 | 7.09433 | 141° | 27km/h | 1468m | -6.9m/s | 6.4°C | 64.7% | 865.8hPa | 2.6V | 07:54:00 | 00:00:00 | 00:00:00 | |
| DH3RM | 2026-09-06 02:10:06 | 51.46777 | 7.09426 | 140° | 27km/h | 1474m | -6.6m/s | 6.5°C | 63.0% | 865.1hPa | 2.6V | 07:54:00 | 00:00:00 | 00:00:00 | |
| DM0DOS-11 | 2026-09-06 02:10:06 | 51.46796 | 7.09395 | 131° | 27km/h | 1501m | -6.3m/s | 6.8°C | 57.3% | 862.3hPa | 2.6V | 07:54:08 | 02:51:39 | 00:00:00 | |
| BIOWL1-15 | 2026-09-06 02:10:05 | 51.46792 | 7.09403 | 133° | 27km/h | 1494m | -6.6m/s | 6.7°C | 62.8% | 863.1hPa | 2.7V | 07:54:56 | 02:51:40 | 00:00:00 | |
| BIOWL1-15 | 2026-09-06 02:10:05 | 51.46796 | 7.09395 | 131° | 27km/h | 1501m | -6.3m/s | 6.8°C | 60.3% | 862.3hPa | 2.6V | 07:54:56 | 02:51:39 | 00:00:00 | |
| BIOWL1-15 | 2026-09-06 02:10:01 | 51.46806 | 7.09378 | 130° | 27km/h | 1513m | -6.4m/s | 6.9°C | 57.8% | 861.1hPa | 2.7V | 07:54:56 | 02:51:37 | 00:00:00 | |
| DM0DOS-11 | 2026-09-06 02:10:00 | 51.46815 | 7.09360 | 127° | 27km/h | 1526m | -6.3m/s | 6.9°C | 52.9% | 859.5hPa | 2.7V | 07:54:12 | 02:51:35 | 00:00:00 | |
| DM0DOS-11 | 2026-09-06 02:10:00 | 51.46823 | 7.09343 | 123° | 26km/h | 1539m | -6.8m/s | 7°C | 48.1% | 858hPa | 2.7V | 07:54:14 | 02:51:33 | 00:00:00 | |
| BIOWL1-15 | 2026-09-06 02:09:59 | 51.46827 | 7.09334 | 123° | 27km/h | 1546m | -6.5m/s | 7°C | 50.9% | 857.3hPa | 2.7V | 07:54:56 | 02:51:32 | 00:00:00 | |
| BIOWL1-15 | 2026-09-06 02:09:59 | 51.46830 | 7.09325 | 120° | 26km/h | 1553m | -6.6m/s | 7.1°C | 49.4% | 857hPa | 2.7V | 07:54:56 | 02:51:31 | 00:00:00 | |
| DD1CC9-15 | 2026-09-06 02:09:56 | 51.46823 | 7.09343 | 124° | 26km/h | 1540m | -6.9m/s | 7.0°C | 48.2% | 858.0hPa | 2.7V | 07:54:00 | 00:00:00 | 00:00:00 | |
| DO3DL | 2026-09-06 02:09:54 | 51.46830 | 7.09325 | 121° | 26km/h | 1553m | -6.6m/s | 7.1°C | 45.5% | 857.0hPa | 2.7V | 07:54:00 | 00:00:00 | 00:00:00 | |
| DM0DOS-11 | 2026-09-06 02:09:54 | 51.46848 | 7.09266 | 114° | 27km/h | 1592m | -6.7m/s | 7.8°C | 34% | 852.9hPa | 2.7V | 07:54:22 | 02:51:25 | 00:00:00 | |
| BIOWL1-15 | 2026-09-06 02:09:53 | 51.46845 | 7.09276 | 113° | 27km/h | 1586m | -6.4m/s | 7.7°C | 38.9% | 853.6hPa | 2.7V | 07:54:56 | 02:51:26 | 00:00:00 | |
| BIOWL1-15 | 2026-09-06 02:09:53 | 51.46848 | 7.09266 | 115° | 27km/h | 1592m | -6.7m/s | 7.8°C | 38.3% | 852.9hPa | 2.7V | 07:54:56 | 02:51:25 | 00:00:00 | |
| BIOWL1-15 | 2026-09-06 02:09:47 | 51.46858 | 7.09234 | 116° | 29km/h | 1612m | -6.2m/s | 7.8°C | 36.9% | 850.8hPa | 2.7V | 07:54:56 | 02:51:22 | 00:00:00 | |
| BIOWL1-15 | 2026-09-06 02:09:47 | 51.46861 | 7.09224 | 117° | 29km/h | 1618m | -6.7m/s | 7.8°C | 36.9% | 850.2hPa | 2.7V | 07:54:56 | 02:51:21 | 00:00:00 | |
| BIOWL1-15 | 2026-09-06 02:09:43 | 51.46868 | 7.09204 | 118° | 29km/h | 1631m | -6.6m/s | 7.7°C | 37.1% | 848.8hPa | 2.6V | 07:54:56 | 02:51:19 | 00:00:00 | |
| DM0DOS-11 | 2026-09-06 02:09:42 | 51.46881 | 7.09163 | 118° | 27km/h | 1656m | -5.8m/s | 7.8°C | 31.7% | 846.2hPa | 2.7V | 07:54:32 | 02:51:15 | 00:00:00 | |
| BIOWL1-15 | 2026-09-06 02:09:41 | 51.46875 | 7.09183 | 117° | 29km/h | 1644m | -6.4m/s | 7.7°C | 36.8% | 847.6hPa | 2.7V | 07:54:56 | 02:51:17 | 00:00:00 | |
| BIOWL1-15 | 2026-09-06 02:09:40 | 51.46878 | 7.09173 | 118° | 29km/h | 1650m | -6.4m/s | 7.7°C | 36% | 846.7hPa | 2.7V | 07:54:56 | 02:51:16 | 00:00:00 | |
| DD1CC1-15 | 2026-09-06 02:09:38 | 51.46881 | 7.09163 | 120° | 27km/h | 1656m | -5.8m/s | 7.8°C | 31.9% | 846.2hPa | 2.6V | 07:54:00 | 00:00:00 | 00:00:00 | |
| WPPR-10 | 2026-09-06 02:09:38 | 51.46885 | 7.09153 | 119° | 27km/h | 1662m | -6.2m/s | 7.8°C | 31.2% | 845.5hPa | 2.6V | 00:00:00 | 00:00:00 | 00:00:00 | |
| BIOWL1-15 | 2026-09-06 02:09:38 | 51.46885 | 7.09153 | 120° | 29km/h | 1662m | -6.2m/s | 7.8°C | 35% | 845.5hPa | 2.7V | 07:54:56 | 02:51:14 | 00:00:00 | |
| DM0DOS-11 | 2026-09-06 02:09:36 | 51.46896 | 7.09122 | 119° | 29km/h | 1681m | -6.6m/s | 7.7°C | 30.7% | 843.8hPa | 2.6V | 07:54:36 | 02:51:11 | 00:00:00 | |
| BIOWL1-15 | 2026-09-06 02:09:36 | 51.46893 | 7.09132 | 121° | 29km/h | 1675m | -6.6m/s | 7.7°C | 34.7% | 844.2hPa | 2.7V | 07:54:56 | 02:51:12 | 00:00:00 | |
| BIOWL1-15 | 2026-09-06 02:09:35 | 51.46896 | 7.09122 | 119° | 29km/h | 1681m | -6.6m/s | 7.7°C | 34.6% | 843.8hPa | 2.6V | 07:54:56 | 02:51:11 | 00:00:00 | |
| BIOWL1-15 | 2026-09-06 02:09:33 | 51.46903 | 7.09102 | 119° | 29km/h | 1694m | -6.7m/s | 7.6°C | 34.7% | 842.3hPa | 2.7V | 07:54:56 | 02:51:09 | 00:00:00 | |
| BIOWL1-15 | 2026-09-06 02:09:32 | 51.46907 | 7.09091 | 118° | 29km/h | 1700m | -6.2m/s | 7.5°C | 34.6% | 841.7hPa | 2.7V | 07:54:56 | 02:51:08 | 00:00:00 | |
| BIOWL1-15 | 2026-09-06 02:09:31 | 51.46911 | 7.09081 | 118° | 29km/h | 1706m | -6.1m/s | 7.5°C | 34.3% | 841.1hPa | 2.7V | 07:54:56 | 02:51:07 | 00:00:00 | |
| DO9LL-15 | 2026-09-06 02:09:31 | 51.46910 | 7.09080 | 119° | 31km/h | 1706m | -6.0m/s | 7.5°C | 30.5% | 841.1hPa | 2.7V | 00:00:00 | 02:51:07 | 00:00:00 | |
| BIOWL7-15 | 2026-09-06 02:09:30 | 51.46910 | 7.09080 | 119° | 29km/h | 1706m | -6.1m/s | 7.5°C | 30.6% | 841.1hPa | 2.7V | 00:00:00 | 00:00:00 | 00:00:00 | |
| DM0DOS-11 | 2026-09-06 02:09:30 | 51.46926 | 7.09038 | 122° | 31km/h | 1731m | -6.2m/s | 7.4°C | 29.3% | 838.4hPa | 2.7V | 07:54:44 | 02:51:03 | 00:00:00 | |
| BIOWL1-15 | 2026-09-06 02:09:30 | 51.46914 | 7.09070 | 121° | 31km/h | 1712m | -6.3m/s | 7.5°C | 33.7% | 840.4hPa | 2.7V | 07:54:56 | 02:51:06 | 00:00:00 | |
| BIOWL1-15 | 2026-09-06 02:09:28 | 51.46922 | 7.09048 | 122° | 31km/h | 1725m | -6.3m/s | 7.5°C | 33% | 839.2hPa | 2.7V | 07:54:56 | 02:51:04 | 00:00:00 | |
| BIOWL1-15 | 2026-09-06 02:09:26 | 51.46931 | 7.09027 | 123° | 33km/h | 1737m | -6.6m/s | 7.4°C | 32% | 837.9hPa | 2.6V | 07:54:56 | 02:51:02 | 00:00:00 | |
| BIOWL1-15 | 2026-09-06 02:09:25 | 51.46943 | 7.08994 | 122° | 33km/h | 1757m | -6.5m/s | 7.4°C | 31.3% | 835.8hPa | 2.7V | 07:54:56 | 02:50:59 | 00:00:00 | |
| DM0DOS-11 | 2026-09-06 02:09:25 | 51.46952 | 7.08971 | 120° | 33km/h | 1769m | -6.3m/s | 7.4°C | 27.7% | 834.5hPa | 2.7V | 07:54:50 | 02:50:57 | 00:00:00 | |
| DM0DOS-11 | 2026-09-06 02:09:25 | 51.46960 | 7.08947 | 118° | 33km/h | 1782m | -6.3m/s | 7.3°C | 27.6% | 833.5hPa | 2.7V | 07:54:52 | 02:50:55 | 00:00:00 | |
| BIOWL1-15 | 2026-09-06 02:09:24 | 51.46948 | 7.08982 | 121° | 33km/h | 1763m | -6.6m/s | 7.4°C | 31.4% | 835.4hPa | 2.7V | 07:54:56 | 02:50:58 | 00:00:00 | |
| BIOWL1-15 | 2026-09-06 02:09:21 | 51.46964 | 7.08936 | 120° | 33km/h | 1788m | -6.2m/s | 7.3°C | 31.5% | 832.7hPa | 2.7V | 07:54:56 | 02:50:54 | 00:00:00 | |
| BIOWL1-15 | 2026-09-06 02:09:20 | 51.46968 | 7.08924 | 119° | 33km/h | 1794m | -6.5m/s | 7.3°C | 31.9% | 832hPa | 2.6V | 07:54:56 | 02:50:53 | 00:00:00 | |
| DO2KSM | 2026-09-06 02:09:19 | 51.46956 | 7.08959 | 120° | 33km/h | 1776m | -6.1m/s | 7.4°C | 27.7% | 834.2hPa | 2.6V | 07:54:00 | 00:00:00 | 00:00:00 | |
| DM0DOS-11 | 2026-09-06 02:09:18 | 51.46968 | 7.08924 | 119° | 33km/h | 1794m | -6.5m/s | 7.3°C | 28.1% | 832hPa | 2.6V | 07:54:54 | 02:50:53 | 00:00:00 | |
| DM0DOS-11 | 2026-09-06 02:09:18 | 51.46976 | 7.08901 | 118° | 33km/h | 1807m | -6.2m/s | 7.3°C | 28.4% | 830.9hPa | 2.7V | 07:54:56 | 02:50:51 | 00:00:00 | |
| BIOWL1-15 | 2026-09-06 02:09:18 | 51.46972 | 7.08913 | 121° | 33km/h | 1800m | -5.9m/s | 7.3°C | 32.1% | 831.6hPa | 2.6V | 07:54:56 | 02:50:52 | 00:00:00 | |
| BIOWL1-15 | 2026-09-06 02:09:14 | 51.46981 | 7.08889 | 121° | 33km/h | 1813m | -6.2m/s | 7.2°C | 32.4% | 830.2hPa | 2.7V | 07:55:47 | 02:50:50 | 00:00:00 | |
| BIOWL1-15 | 2026-09-06 02:09:12 | 51.46997 | 7.08842 | 119° | 35km/h | 1838m | -6.2m/s | 7.4°C | 32.2% | 827.7hPa | 2.7V | 07:55:47 | 02:50:46 | 00:00:00 | |
| BIOWL1-15 | 2026-09-06 02:09:12 | 51.47001 | 7.08830 | 118° | 35km/h | 1845m | -6.3m/s | 7.4°C | 31.7% | 827hPa | 2.7V | 07:55:47 | 02:50:45 | 00:00:00 | |
| DM0DOS-11 | 2026-09-06 02:09:12 | 51.46993 | 7.08854 | 118° | 33km/h | 1832m | -6.8m/s | 7.3°C | 28.9% | 828.4hPa | 2.7V | 07:55:00 | 02:50:47 | 00:00:00 | |
| DM0DOS-11 | 2026-09-06 02:09:12 | 51.47001 | 7.08830 | 118° | 35km/h | 1844m | -6.3m/s | 7.4°C | 27.8% | 827hPa | 2.7V | 07:55:02 | 02:50:45 | 00:00:00 | |
| BIOWL1-15 | 2026-09-06 02:09:10 | 51.47005 | 7.08817 | 118° | 33km/h | 1851m | -6.4m/s | 7.5°C | 31.5% | 826.5hPa | 2.6V | 07:55:47 | 02:50:44 | 00:00:00 | |
| BIOWL1-15 | 2026-09-06 02:09:06 | 51.47040 | 7.08710 | 116° | 35km/h | 1908m | -6.3m/s | 7.2°C | 33.3% | 820.9hPa | 2.6V | 07:55:47 | 02:50:35 | 00:00:00 | |
| DM0DOS-11 | 2026-09-06 02:09:06 | 51.47017 | 7.08782 | 118° | 33km/h | 1870m | -6.5m/s | 7.4°C | 28.5% | 824.5hPa | 2.7V | 07:55:06 | 02:50:41 | 00:00:00 | |
| DM0DOS-11 | 2026-09-06 02:09:06 | 51.47033 | 7.08735 | 116° | 33km/h | 1895m | -6.2m/s | 7.3°C | 28.6% | 822hPa | 2.7V | 07:55:10 | 02:50:37 | 00:00:00 | |
| BIOWL1-15 | 2026-09-06 02:09:06 | 51.47044 | 7.08698 | 115° | 33km/h | 1914m | -6.2m/s | 7.1°C | 33.4% | 820.2hPa | 2.6V | 07:55:47 | 02:50:34 | 00:00:00 | |
| DB0UT-7 | 2026-09-06 02:09:05 | 51.47017 | 7.08782 | 119° | 33km/h | 1870m | -6.5m/s | 7.4°C | 28.5% | 824.4hPa | 2.6V | 00:00:00 | 02:50:41 | 00:00:00 | |
| DO3DL | 2026-09-06 02:09:02 | 51.47025 | 7.08758 | 121° | 33km/h | 1883m | -6.1m/s | 7.3°C | 28.7% | 823.2hPa | 2.6V | 07:55:00 | 00:00:00 | 00:00:00 | |
| DH3RM | 2026-09-06 02:09:02 | 51.47025 | 7.08758 | 121° | 33km/h | 1883m | -6.1m/s | 7.3°C | 28.7% | 823.2hPa | 2.6V | 07:55:00 | 00:00:00 | 00:00:00 | |
| DM0DOS-11 | 2026-09-06 02:09:00 | 51.47040 | 7.08710 | 116° | 35km/h | 1907m | -6.3m/s | 7.2°C | 29.1% | 820.9hPa | 2.6V | 07:55:12 | 02:50:35 | 00:00:00 | |
| DM0DOS-11 | 2026-09-06 02:09:00 | 51.47047 | 7.08685 | 114° | 33km/h | 1920m | -6.3m/s | 7.1°C | 29.5% | 819.4hPa | 2.7V | 07:55:14 | 02:50:33 | 00:00:00 | |
| DM0DOS-11 | 2026-09-06 02:09:00 | 51.47055 | 7.08660 | 114° | 35km/h | 1932m | -6.6m/s | 7°C | 30.6% | 818.1hPa | 2.7V | 07:55:16 | 02:50:31 | 00:00:00 | |
| BIOWL1-15 | 2026-09-06 02:08:57 | 51.47048 | 7.08685 | 115° | 33km/h | 1920m | -6.3m/s | 7.1°C | 33.7% | 819.4hPa | 2.7V | 07:55:47 | 02:50:33 | 00:00:00 | |
| BIOWL1-15 | 2026-09-06 02:08:55 | 51.47066 | 7.08623 | 115° | 35km/h | 1951m | -6.3m/s | 6.9°C | 35.6% | 816.4hPa | 2.7V | 07:55:47 | 02:50:28 | 00:00:00 | |
| BIOWL1-15 | 2026-09-06 02:08:55 | 51.47070 | 7.08610 | 116° | 35km/h | 1957m | -5.9m/s | 6.9°C | 36.6% | 815.8hPa | 2.6V | 07:55:47 | 02:50:27 | 00:00:00 | |
| DM0DOS-11 | 2026-09-06 02:08:54 | 51.47063 | 7.08635 | 114° | 35km/h | 1945m | -6.1m/s | 6.9°C | 31.2% | 816.9hPa | 2.7V | 07:55:18 | 02:50:29 | 00:00:00 | |
| DM0DOS-11 | 2026-09-06 02:08:54 | 51.47070 | 7.08610 | 116° | 35km/h | 1957m | -5.9m/s | 6.9°C | 32.4% | 815.8hPa | 2.6V | 07:55:20 | 02:50:27 | 00:00:00 | |
| DM0DOS-11 | 2026-09-06 02:08:54 | 51.47078 | 7.08584 | 114° | 35km/h | 1969m | -6.2m/s | 6.8°C | 33.5% | 814.6hPa | 2.7V | 07:55:22 | 02:50:25 | 00:00:00 | |
| BIOWL1-15 | 2026-09-06 02:08:49 | 51.47081 | 7.08572 | 115° | 35km/h | 1976m | -6.5m/s | 6.8°C | 38.2% | 814hPa | 2.7V | 07:55:47 | 02:50:24 | 00:00:00 | |
| BIOWL1-15 | 2026-09-06 02:08:49 | 51.47085 | 7.08559 | 116° | 37km/h | 1982m | -6.7m/s | 6.7°C | 38.3% | 813.3hPa | 2.7V | 07:55:47 | 02:50:23 | 00:00:00 | |
| BIOWL9-15 | 2026-09-06 02:08:49 | 51.47081 | 7.08572 | 114° | 33km/h | 1976m | -6.5m/s | 6.8°C | 33.9% | 814.0hPa | 2.7V | 00:00:00 | 00:00:00 | 00:00:00 | |
| DM0DOS-11 | 2026-09-06 02:08:48 | 51.47085 | 7.08559 | 116° | 37km/h | 1982m | -6.7m/s | 6.7°C | 33.9% | 813.3hPa | 2.7V | 07:55:24 | 02:50:23 | 00:00:00 | |
| DM0DOS-11 | 2026-09-06 02:08:48 | 51.47093 | 7.08532 | 115° | 37km/h | 1996m | -6.6m/s | 6.7°C | 34.1% | 812hPa | 2.7V | 07:55:26 | 02:50:21 | 00:00:00 | |
| DM0DOS-11 | 2026-09-06 02:08:48 | 51.47102 | 7.08505 | 115° | 38km/h | 2008m | -6.4m/s | 6.6°C | 34.6% | 810.8hPa | 2.7V | 07:55:28 | 02:50:19 | 00:00:00 | |
| BIOWL1-15 | 2026-09-06 02:08:45 | 51.47093 | 7.08532 | 116° | 37km/h | 1996m | -6.6m/s | 6.7°C | 38.6% | 812hPa | 2.7V | 07:55:47 | 02:50:21 | 00:00:00 | |
| BIOWL1-15 | 2026-09-06 02:08:39 | 51.47118 | 7.08450 | 115° | 37km/h | 2034m | -6.2m/s | 6.4°C | 40.1% | 808.3hPa | 2.7V | 07:55:47 | 02:50:15 | 00:00:00 | |
| DM0DOS-11 | 2026-09-06 02:08:38 | 51.47123 | 7.08436 | 117° | 38km/h | 2040m | -6m/s | 6.4°C | 35.6% | 807.7hPa | 2.7V | 07:55:33 | 02:50:14 | 00:00:00 | |
| DO2KSM | 2026-09-06 02:08:37 | 51.47123 | 7.08436 | 119° | 38km/h | 2040m | -6.0m/s | 6.4°C | 35.7% | 807.7hPa | 2.7V | 07:55:00 | 00:00:00 | 00:00:00 | |
| WPPR-10 | 2026-09-06 02:08:36 | 51.47131 | 7.08408 | 116° | 38km/h | 2052m | -6.3m/s | 6.3°C | 36.0% | 806.5hPa | 2.7V | 00:00:00 | 00:00:00 | 00:00:00 | |
| DO3DL | 2026-09-06 02:08:35 | 51.47131 | 7.08408 | 118° | 38km/h | 2052m | -6.3m/s | 6.3°C | 36.0% | 806.5hPa | 2.7V | 07:55:00 | 00:00:00 | 00:00:00 | |
| DD1CC9-15 | 2026-09-06 02:08:34 | 51.47136 | 7.08394 | 118° | 40km/h | 2058m | -6.4m/s | 6.3°C | 36.5% | 805.7hPa | 2.7V | 07:55:00 | 00:00:00 | 00:00:00 | |
| DM0DOS-11 | 2026-09-06 02:08:33 | 51.47169 | 7.08292 | 119° | 42km/h | 2102m | -6.3m/s | 6.3°C | 36.6% | 801.4hPa | 2.7V | 07:55:43 | 02:50:04 | 00:00:00 | |
| BIOWL1-15 | 2026-09-06 02:08:31 | 51.47164 | 7.08307 | 117° | 40km/h | 2096m | -6m/s | 6.3°C | 41.1% | 802hPa | 2.7V | 07:55:47 | 02:50:05 | 00:00:00 | |
| DH3RM | 2026-09-06 02:08:30 | 51.47154 | 7.08336 | 119° | 40km/h | 2084m | -6.4m/s | 6.4°C | 36.4% | 803.4hPa | 2.7V | 07:55:00 | 00:00:00 | 00:00:00 | |
| DB0UT-7 | 2026-09-06 02:08:29 | 51.47164 | 7.08307 | 118° | 42km/h | 2096m | -6.0m/s | 6.3°C | 36.6% | 801.9hPa | 2.7V | 00:00:00 | 00:00:00 | 00:00:00 | |
| DM0DOS-11 | 2026-09-06 02:08:28 | 51.47194 | 7.08218 | 117° | 42km/h | 2133m | -6.4m/s | 6.1°C | 36.4% | 798.4hPa | 2.7V | 07:55:48 | 02:49:59 | 00:00:00 | |
| DH3RM | 2026-09-06 02:08:24 | 51.47183 | 7.08248 | 119° | 42km/h | 2121m | -6.2m/s | 6.2°C | 36.4% | 799.9hPa | 2.7V | 07:55:00 | 00:00:00 | 00:00:00 | |
| DM0DOS-11 | 2026-09-06 02:08:23 | 51.47220 | 7.08142 | 121° | 44km/h | 2163m | -6.3m/s | 6°C | 35% | 795.4hPa | 2.7V | 07:55:53 | 02:49:54 | 00:00:00 | |
| DD1CC3-15 | 2026-09-06 02:08:22 | 51.47193 | 7.08218 | 119° | 42km/h | 2133m | -6.4m/s | 6.1°C | 36.4% | 798.4hPa | 2.7V | 07:56:00 | 00:00:00 | 00:00:00 | |
| DO9LL-15 | 2026-09-06 02:08:21 | 51.47204 | 7.08188 | 120° | 42km/h | 2145m | -5.9m/s | 6.0°C | 35.8% | 797.1hPa | 2.7V | 07:55:00 | 02:49:57 | 00:00:00 | |
| DJ2KF-10 | 2026-09-06 02:08:20 | 51.47209 | 7.08172 | 120° | 42km/h | 2151m | -6.4m/s | 6.0°C | 35.3% | 796.6hPa | 2.7V | 00:00:00 | 02:49:56 | 00:00:00 | |
| DM0DOS-11 | 2026-09-06 02:08:18 | 51.47249 | 7.08069 | 122° | 42km/h | 2193m | -6.1m/s | 5.9°C | 34% | 792.5hPa | 2.7V | 07:55:58 | 02:49:49 | 00:00:00 | |
| BIOWL1-15 | 2026-09-06 02:08:18 | 51.47220 | 7.08142 | 122° | 44km/h | 2163m | -6.3m/s | 6°C | 39.3% | 795.4hPa | 2.7V | 07:56:38 | 02:49:54 | 00:00:00 | |
| DO2KSM | 2026-09-06 02:08:17 | 51.47220 | 7.08142 | 123° | 44km/h | 2163m | -6.3m/s | 6.0°C | 35.1% | 795.4hPa | 2.6V | 07:56:00 | 00:00:00 | 00:00:00 | |
| DD1CC1-15 | 2026-09-06 02:08:16 | 51.47226 | 7.08127 | 123° | 44km/h | 2169m | -5.9m/s | 6.0°C | 35.0% | 794.9hPa | 2.6V | 07:56:00 | 00:00:00 | 00:00:00 | |
| DJ2DS-15 | 2026-09-06 02:08:15 | 51.47238 | 7.08098 | 122° | 42km/h | 2181m | -5.9m/s | 6.0°C | 33.2% | 793.8hPa | 2.6V | 00:00:00 | 00:00:00 | 00:00:00 | |
| DD1CC9-15 | 2026-09-06 02:08:13 | 51.47243 | 7.08083 | 123° | 42km/h | 2187m | -6.0m/s | 6.0°C | 33.9% | 793.1hPa | 2.6V | 07:56:00 | 00:00:00 | 00:00:00 | |
| DH3RM | 2026-09-06 02:08:10 | 51.47260 | 7.08040 | 124° | 40km/h | 2205m | -6.2m/s | 6.0°C | 34.2% | 791.4hPa | 2.6V | 07:56:00 | 00:00:00 | 00:00:00 | |
| DM0DOS-11 | 2026-09-06 02:08:08 | 51.47277 | 7.07998 | 123° | 42km/h | 2223m | -6.3m/s | 6.1°C | 33.8% | 789.7hPa | 2.6V | 07:56:03 | 02:49:44 | 00:00:00 | |
| DM0DOS-11 | 2026-09-06 02:08:08 | 51.47307 | 7.07926 | 122° | 44km/h | 2252m | -6m/s | 6°C | 32.7% | 786.7hPa | 2.7V | 07:56:08 | 02:49:39 | 00:00:00 | |
| BIOWL1-15 | 2026-09-06 02:08:07 | 51.47283 | 7.07984 | 123° | 42km/h | 2229m | -5.7m/s | 6.1°C | 37.7% | 788.8hPa | 2.7V | 07:56:38 | 02:49:43 | 00:00:00 | |
| DH3RM | 2026-09-06 02:08:04 | 51.47295 | 7.07956 | 123° | 42km/h | 2241m | -6.1m/s | 6.1°C | 33.1% | 788.0hPa | 2.7V | 07:56:00 | 00:00:00 | 00:00:00 | |
| DO9LL-15 | 2026-09-06 02:08:01 | 51.47319 | 7.07895 | 122° | 47km/h | 2265m | -6.3m/s | 5.9°C | 32.8% | 785.7hPa | 2.7V | 00:00:00 | 02:49:37 | 00:00:00 | |
| DM0DOS-11 | 2026-09-06 02:07:58 | 51.47337 | 7.07850 | 121° | 44km/h | 2283m | -5.7m/s | 6°C | 30.3% | 783.8hPa | 2.7V | 07:56:13 | 02:49:34 | 00:00:00 | |
| DM0DOS-11 | 2026-09-06 02:07:58 | 51.47367 | 7.07771 | 120° | 46km/h | 2312m | -6.1m/s | 6°C | 32.9% | 781.1hPa | 2.6V | 07:56:18 | 02:49:29 | 00:00:00 | |
| BIOWL1-15 | 2026-09-06 02:07:57 | 51.47343 | 7.07834 | 122° | 44km/h | 2289m | -6.2m/s | 6°C | 32.8% | 783.4hPa | 2.7V | 07:56:38 | 02:49:33 | 00:00:00 | |
| DO2KSM | 2026-09-06 02:07:56 | 51.47343 | 7.07834 | 123° | 44km/h | 2289m | -6.2m/s | 6.0°C | 28.8% | 783.4hPa | 2.7V | 07:56:00 | 00:00:00 | 00:00:00 | |
| DD1CC1-15 | 2026-09-06 02:07:55 | 51.47349 | 7.07819 | 123° | 44km/h | 2295m | -6.1m/s | 6.0°C | 28.3% | 782.8hPa | 2.7V | 07:56:00 | 00:00:00 | 00:00:00 | |
| DM0DOS-11 | 2026-09-06 02:07:53 | 51.47397 | 7.07689 | 119° | 47km/h | 2341m | -5.7m/s | 5.9°C | 32.6% | 778.2hPa | 2.7V | 07:56:23 | 02:49:24 | 00:00:00 | |
| DH3RM | 2026-09-06 02:07:51 | 51.47372 | 7.07755 | 122° | 47km/h | 2318m | -5.9m/s | 6.0°C | 33.0% | 780.6hPa | 2.7V | 07:56:00 | 00:00:00 | 00:00:00 | |
| DO3DL | 2026-09-06 02:07:50 | 51.47379 | 7.07738 | 122° | 47km/h | 2324m | -6.2m/s | 6.0°C | 32.8% | 779.9hPa | 2.7V | 07:56:00 | 00:00:00 | 00:00:00 | |
| DB0UT-7 | 2026-09-06 02:07:49 | 51.47391 | 7.07705 | 121° | 49km/h | 2336m | -5.4m/s | 5.9°C | 32.5% | 778.9hPa | 2.7V | 00:00:00 | 00:00:00 | 00:00:00 | |
| DM0DOS-11 | 2026-09-06 02:07:48 | 51.47427 | 7.07603 | 118° | 49km/h | 2371m | -6m/s | 5.7°C | 33.1% | 775.4hPa | 2.7V | 07:56:28 | 02:49:19 | 00:00:00 | |
| BIOWL1-15 | 2026-09-06 02:07:46 | 51.47409 | 7.07655 | 120° | 49km/h | 2353m | -6.5m/s | 5.8°C | 37.4% | 777.2hPa | 2.7V | 07:56:38 | 02:49:22 | 00:00:00 | |
| DM0DOS-11 | 2026-09-06 02:07:43 | 51.47458 | 7.07513 | 120° | 51km/h | 2402m | -6.1m/s | 5.6°C | 34.7% | 772.5hPa | 2.7V | 07:56:33 | 02:49:14 | 00:00:00 | |
| BIOWL7-15 | 2026-09-06 02:07:42 | 51.47427 | 7.07603 | 120° | 49km/h | 2371m | -6.0m/s | 5.7°C | 33.1% | 775.4hPa | 2.7V | 00:00:00 | 00:00:00 | 00:00:00 | |
| DO9LL-15 | 2026-09-06 02:07:41 | 51.47439 | 7.07567 | 118° | 49km/h | 2383m | -6.2m/s | 5.7°C | 33.9% | 774.2hPa | 2.7V | 00:00:00 | 02:49:17 | 00:00:00 | |
| DD1CC8 | 2026-09-06 02:07:40 | 51.47452 | 7.07531 | 118° | 49km/h | 2395m | -6.3m/s | 5.7°C | 34.6% | 773.2hPa | 2.7V | 00:00:00 | 00:00:00 | 00:00:00 | |
| DJ2DS-15 | 2026-09-06 02:07:39 | 51.47452 | 7.07531 | 118° | 49km/h | 2395m | -6.3m/s | 5.7°C | 34.6% | 773.2hPa | 2.7V | 00:00:00 | 00:00:00 | 00:00:00 | |
| DM0DOS-11 | 2026-09-06 02:07:38 | 51.47489 | 7.07425 | 118° | 49km/h | 2432m | -6m/s | 5.4°C | 34.5% | 769.7hPa | 2.7V | 07:56:38 | 02:49:09 | 00:00:00 | |
| BIOWL1-15 | 2026-09-06 02:07:36 | 51.47470 | 7.07478 | 120° | 51km/h | 2413m | -6.2m/s | 5.5°C | 40.2% | 771.6hPa | 2.6V | 07:56:38 | 02:49:12 | 00:00:00 | |
| WPPR-10 | 2026-09-06 02:07:34 | 51.47489 | 7.07425 | 118° | 47km/h | 2432m | -6.0m/s | 5.4°C | 34.5% | 769.7hPa | 2.6V | 00:00:00 | 00:00:00 | 00:00:00 | |
| DD1CC9-15 | 2026-09-06 02:07:32 | 51.47489 | 7.07425 | 119° | 49km/h | 2432m | -6.0m/s | 5.4°C | 34.5% | 769.7hPa | 2.6V | 07:56:00 | 00:00:00 | 00:00:00 | |
| DH3RM | 2026-09-06 02:07:31 | 51.47495 | 7.07407 | 120° | 49km/h | 2438m | -6.3m/s | 5.4°C | 34.4% | 769.1hPa | 2.6V | 07:57:00 | 00:00:00 | 00:00:00 | |
| DO3DL | 2026-09-06 02:07:30 | 51.47501 | 7.07390 | 119° | 49km/h | 2444m | -6.4m/s | 5.3°C | 34.7% | 768.5hPa | 2.6V | 07:57:00 | 00:00:00 | 00:00:00 | |
| DM0DOS-11 | 2026-09-06 02:07:28 | 51.47519 | 7.07337 | 118° | 49km/h | 2463m | -5.8m/s | 5.2°C | 35.1% | 766.9hPa | 2.6V | 07:56:43 | 02:49:04 | 00:00:00 | |
| DM0DOS-11 | 2026-09-06 02:07:28 | 51.47549 | 7.07249 | 118° | 51km/h | 2492m | -5.9m/s | 5°C | 33.3% | 764hPa | 2.6V | 07:56:48 | 02:48:59 | 00:00:00 | |
| BIOWL1-15 | 2026-09-06 02:07:25 | 51.47537 | 7.07284 | 119° | 49km/h | 2481m | -5.8m/s | 5.1°C | 39.4% | 765.2hPa | 2.7V | 07:57:29 | 02:49:01 | 00:00:00 | |
| DO3DL | 2026-09-06 02:07:23 | 51.47543 | 7.07266 | 122° | 51km/h | 2487m | -6.0m/s | 5.0°C | 34.0% | 764.7hPa | 2.6V | 07:57:00 | 00:00:00 | 00:00:00 | |
| DO9LL-15 | 2026-09-06 02:07:21 | 51.47562 | 7.07214 | 120° | 51km/h | 2505m | -6.2m/s | 4.8°C | 32.4% | 762.8hPa | 2.6V | 00:00:00 | 02:48:57 | 00:00:00 | |
| DJ2KF-10 | 2026-09-06 02:07:20 | 51.47568 | 7.07196 | 121° | 51km/h | 2511m | -6.1m/s | 4.8°C | 32.4% | 762.2hPa | 2.6V | 00:00:00 | 02:48:56 | 00:00:00 | |
| DM0DOS-11 | 2026-09-06 02:07:18 | 51.47610 | 7.07073 | 119° | 51km/h | 2553m | -5.7m/s | 4.5°C | 32.8% | 758.4hPa | 2.6V | 07:56:58 | 02:48:49 | 00:00:00 | |
| BIOWL1-15 | 2026-09-06 02:07:14 | 51.47604 | 7.07091 | 118° | 49km/h | 2548m | -6.3m/s | 4.6°C | 37.4% | 758.9hPa | 2.6V | 07:57:29 | 02:48:50 | 00:00:00 | |
| DD1CC1-15 | 2026-09-06 02:07:13 | 51.47604 | 7.07091 | 119° | 49km/h | 2547m | -6.3m/s | 4.6°C | 32.7% | 758.9hPa | 2.7V | 07:57:00 | 00:00:00 | 00:00:00 | |
| DD1CC9-15 | 2026-09-06 02:07:12 | 51.47610 | 7.07073 | 120° | 51km/h | 2554m | -5.7m/s | 4.5°C | 32.8% | 758.4hPa | 2.7V | 07:57:00 | 00:00:00 | 00:00:00 | |
| DO3DL | 2026-09-06 02:07:10 | 51.47623 | 7.07037 | 121° | 51km/h | 2565m | -6.0m/s | 4.4°C | 33.1% | 757.4hPa | 2.7V | 07:57:00 | 00:00:00 | 00:00:00 | |
| DD1CC8 | 2026-09-06 02:07:09 | 51.47642 | 7.06983 | 119° | 51km/h | 2583m | -6.1m/s | 4.2°C | 33.3% | 755.7hPa | 2.7V | 00:00:00 | 00:00:00 | 00:00:00 | |
| DM0DOS-11 | 2026-09-06 02:07:08 | 51.47675 | 7.06892 | 120° | 51km/h | 2615m | -6.2m/s | 4°C | 33.3% | 752.8hPa | 2.7V | 07:57:08 | 02:48:39 | 00:00:00 | |
| BIOWL1-15 | 2026-09-06 02:07:04 | 51.47675 | 7.06892 | 120° | 51km/h | 2615m | -6.2m/s | 4°C | 38% | 752.8hPa | 2.7V | 07:57:29 | 02:48:39 | 00:00:00 | |
| DM0DOS-11 | 2026-09-06 02:07:03 | 51.47707 | 7.06802 | 118° | 49km/h | 2645m | -6m/s | 3.8°C | 33.5% | 750hPa | 2.6V | 07:57:13 | 02:48:34 | 00:00:00 | |
| WPPR-10 | 2026-09-06 02:07:03 | 51.47682 | 7.06874 | 119° | 51km/h | 2621m | -6.1m/s | 4.0°C | 33.3% | 752.1hPa | 2.6V | 00:00:00 | 00:00:00 | 00:00:00 | |
| DO9LL-15 | 2026-09-06 02:07:01 | 51.47688 | 7.06856 | 120° | 51km/h | 2627m | -5.7m/s | 3.9°C | 33.5% | 751.6hPa | 2.6V | 00:00:00 | 02:48:37 | 00:00:00 | |
| BIOWL7-15 | 2026-09-06 02:07:00 | 51.47688 | 7.06856 | 120° | 51km/h | 2627m | -5.8m/s | 3.9°C | 33.5% | 751.7hPa | 2.6V | 07:57:00 | 00:00:00 | 00:00:00 | |
| DM0DOS-11 | 2026-09-06 02:06:58 | 51.47739 | 7.06713 | 120° | 51km/h | 2676m | -6.1m/s | 3.8°C | 29.1% | 747hPa | 2.6V | 07:57:18 | 02:48:29 | 00:00:00 | |
| BIOWL1-15 | 2026-09-06 02:06:52 | 51.47746 | 7.06695 | 121° | 51km/h | 2682m | -6.2m/s | 3.7°C | 33.1% | 746.4hPa | 2.6V | 07:57:29 | 02:48:28 | 00:00:00 | |
| DD1CC9-15 | 2026-09-06 02:06:51 | 51.47746 | 7.06695 | 122° | 51km/h | 2682m | -6.2m/s | 3.7°C | 28.9% | 746.4hPa | 2.6V | 07:57:00 | 00:00:00 | 00:00:00 | |
| DO3DL | 2026-09-06 02:06:50 | 51.47752 | 7.06678 | 122° | 49km/h | 2688m | -6.1m/s | 3.7°C | 29.0% | 745.8hPa | 2.6V | 07:57:00 | 00:00:00 | 00:00:00 | |
| DM0DOS-11 | 2026-09-06 02:06:48 | 51.47773 | 7.06627 | 123° | 49km/h | 2706m | -5.8m/s | 3.6°C | 28.8% | 744.2hPa | 2.6V | 07:57:23 | 02:48:24 | 00:00:00 | |
| DM0DOS-11 | 2026-09-06 02:06:48 | 51.47808 | 7.06544 | 125° | 49km/h | 2736m | -6.3m/s | 3.4°C | 27.8% | 741.5hPa | 2.6V | 07:57:28 | 02:48:19 | 00:00:00 | |
| BIOWL1-15 | 2026-09-06 02:06:45 | 51.47823 | 7.06512 | 126° | 49km/h | 2749m | -6.4m/s | 3.3°C | 32% | 740.3hPa | 2.6V | 07:58:20 | 02:48:17 | 00:00:00 | |
| BIOWL9-15 | 2026-09-06 02:06:44 | 51.47801 | 7.06561 | 125° | 49km/h | 2730m | -6.4m/s | 3.5°C | 27.9% | 742.0hPa | 2.6V | 00:00:00 | 00:00:00 | 00:00:00 | |
| DB0ND-19 | 2026-09-06 02:06:43 | 51.47816 | 7.06528 | 126° | 49km/h | 2742m | -6.5m/s | 0°C | -1.0% | 740.8hPa | 2.6V | 00:00:00 | 00:00:00 | 00:00:00 | |
| DO9LL-15 | 2026-09-06 02:06:41 | 51.47823 | 7.06512 | 126° | 47km/h | 2749m | -6.3m/s | 3.3°C | 28.2% | 740.2hPa | 2.6V | 00:00:00 | 02:48:17 | 00:00:00 | |
| DM0DOS-11 | 2026-09-06 02:06:38 | 51.47845 | 7.06464 | 125° | 49km/h | 2768m | -6.5m/s | 3.2°C | 28.8% | 738.6hPa | 2.6V | 07:57:33 | 02:48:14 | 00:00:00 | |
| DM0DOS-11 | 2026-09-06 02:06:38 | 51.47882 | 7.06385 | 128° | 49km/h | 2800m | -6.3m/s | 3°C | 29.1% | 735.9hPa | 2.6V | 07:57:38 | 02:48:09 | 00:00:00 | |
| BIOWL1-15 | 2026-09-06 02:06:34 | 51.47905 | 7.06340 | 130° | 47km/h | 2819m | -6.5m/s | 3.1°C | 28.2% | 734.1hPa | 2.6V | 07:58:20 | 02:48:06 | 00:00:00 | |
| DM0DOS-11 | 2026-09-06 02:06:33 | 51.47920 | 7.06310 | 130° | 47km/h | 2832m | -6.1m/s | 3.1°C | 17.9% | 732.9hPa | 2.5V | 07:57:43 | 02:48:04 | 00:00:00 | |
| WPPR-10 | 2026-09-06 02:06:32 | 51.47897 | 7.06355 | 128° | 47km/h | 2812m | -6.5m/s | 3.0°C | 28.4% | 734.7hPa | 2.6V | 00:00:00 | 00:00:00 | 00:00:00 | |
| DM0DOS-11 | 2026-09-06 02:06:28 | 51.47960 | 7.06238 | 130° | 47km/h | 2863m | -6m/s | 3.2°C | 15% | 730.3hPa | 2.6V | 07:57:48 | 02:47:59 | 00:00:00 | |
| DB0UT-7 | 2026-09-06 02:06:28 | 51.47920 | 7.06310 | 131° | 49km/h | 2832m | -6.1m/s | 3.1°C | 17.9% | 732.8hPa | 2.6V | 00:00:00 | 00:00:00 | 00:00:00 | |
| DJ2DS-15 | 2026-09-06 02:06:27 | 51.47928 | 7.06296 | 132° | 46km/h | 2838m | -6.2m/s | 3.1°C | 16.9% | 732.5hPa | 2.6V | 00:00:00 | 00:00:00 | 00:00:00 | |
| DH3RM | 2026-09-06 02:06:26 | 51.47928 | 7.06296 | 133° | 47km/h | 2838m | -6.2m/s | 3.1°C | 16.9% | 732.5hPa | 2.6V | 07:58:00 | 00:00:00 | 00:00:00 | |
| DM0DOS-11 | 2026-09-06 02:06:23 | 51.48000 | 7.06161 | 129° | 49km/h | 2894m | -6.4m/s | 3.2°C | 12.9% | 727.3hPa | 2.6V | 07:57:53 | 02:47:54 | 00:00:00 | |
| BIOWL1-15 | 2026-09-06 02:06:20 | 51.47984 | 7.06192 | 129° | 49km/h | 2881m | -6.4m/s | 3.2°C | 14.4% | 728.4hPa | 2.6V | 07:58:20 | 02:47:56 | 00:00:00 | |
| DJ2KF-10 | 2026-09-06 02:06:20 | 51.47984 | 7.06192 | 130° | 49km/h | 2881m | -6.3m/s | 3.2°C | 13.3% | 728.4hPa | 2.5V | 00:00:00 | 02:47:56 | 00:00:00 | |
| BIOWL7-15 | 2026-09-06 02:06:18 | 51.47992 | 7.06177 | 130° | 49km/h | 2888m | -6.2m/s | 3.2°C | 13.2% | 727.8hPa | 2.5V | 00:00:00 | 00:00:00 | 00:00:00 | |
| DO3DL | 2026-09-06 02:06:17 | 51.48000 | 7.06161 | 130° | 49km/h | 2894m | -6.4m/s | 3.2°C | 12.9% | 727.3hPa | 2.5V | 07:58:00 | 00:00:00 | 00:00:00 | |
| DH3RM | 2026-09-06 02:06:14 | 51.48024 | 7.06114 | 131° | 49km/h | 2913m | -6.0m/s | 3.3°C | 12.3% | 725.7hPa | 2.5V | 07:58:00 | 00:00:00 | 00:00:00 | |
| DM0DOS-11 | 2026-09-06 02:06:13 | 51.48079 | 7.06007 | 129° | 47km/h | 2956m | -6.3m/s | 3.5°C | 8.8% | 721.8hPa | 2.5V | 07:58:03 | 02:47:44 | 00:00:00 | |
| DD1CC1-15 | 2026-09-06 02:06:11 | 51.48048 | 7.06068 | 130° | 47km/h | 2931m | -6.4m/s | 3.4°C | 10.2% | 724.0hPa | 2.5V | 07:58:00 | 00:00:00 | 00:00:00 | |
| DO3DL | 2026-09-06 02:06:10 | 51.48056 | 7.06052 | 130° | 47km/h | 2937m | -6.0m/s | 3.4°C | 10.0% | 723.5hPa | 2.5V | 07:58:00 | 00:00:00 | 00:00:00 | |
| DD1CC9-15 | 2026-09-06 02:06:09 | 51.48063 | 7.06037 | 130° | 47km/h | 2943m | -6.3m/s | 3.5°C | 9.7% | 722.9hPa | 2.5V | 07:58:00 | 00:00:00 | 00:00:00 | |
| BIOWL1-15 | 2026-09-06 02:06:09 | 51.48071 | 7.06022 | 129° | 47km/h | 2950m | -6.4m/s | 3.5°C | 9.3% | 722.3hPa | 2.6V | 07:58:20 | 02:47:45 | 00:00:00 | |
| DB0UT-7 | 2026-09-06 02:06:08 | 51.48078 | 7.06007 | 130° | 51km/h | 2956m | -6.2m/s | 3.4°C | 8.8% | 721.7hPa | 2.5V | 00:00:00 | 02:47:44 | 00:00:00 | |
| DD1CC8 | 2026-09-06 02:06:07 | 51.48094 | 7.05977 | 127° | 47km/h | 2969m | -6.4m/s | 3.5°C | 7.8% | 720.7hPa | 2.6V | 00:00:00 | 00:00:00 | 00:00:00 | |
| DM0DOS-11 | 2026-09-06 02:06:03 | 51.48116 | 7.05929 | 126° | 49km/h | 2988m | -6.4m/s | 3.5°C | 7.3% | 718.9hPa | 2.6V | 07:58:08 | 02:47:39 | 00:00:00 | |
| DM0DOS-11 | 2026-09-06 02:06:03 | 51.48154 | 7.05847 | 128° | 51km/h | 3019m | -6.2m/s | 3.2°C | 7.6% | 716.1hPa | 2.6V | 07:58:13 | 02:47:34 | 00:00:00 | |
| BIOWL1-15 | 2026-09-06 02:06:00 | 51.48154 | 7.05847 | 129° | 51km/h | 3019m | -6.2m/s | 3.2°C | 6.5% | 716.2hPa | 2.6V | 07:58:20 | 02:47:34 | 00:00:00 | |
| DJ2KF-10 | 2026-09-06 02:06:00 | 51.48138 | 7.05880 | 127° | 55km/h | 3007m | -6.1m/s | 3.3°C | 7.5% | 717.2hPa | 2.5V | 00:00:00 | 02:47:36 | 00:00:00 | |
| DD1CC3-15 | 2026-09-06 02:05:59 | 51.48138 | 7.05880 | 128° | 51km/h | 3007m | -6.1m/s | 3.3°C | 7.5% | 717.2hPa | 2.5V | 07:58:00 | 00:00:00 | 00:00:00 | |
| DM0DOS-11 | 2026-09-06 02:05:58 | 51.48193 | 7.05764 | 124° | 51km/h | 3051m | -6.2m/s | 3.3°C | 6% | 713.3hPa | 2.5V | 07:58:18 | 02:47:29 | 00:00:00 | |
| DO3DL | 2026-09-06 02:05:57 | 51.48154 | 7.05847 | 130° | 51km/h | 3019m | -6.2m/s | 3.2°C | 7.6% | 716.2hPa | 2.6V | 07:58:00 | 00:00:00 | 00:00:00 | |
| DH3RM | 2026-09-06 02:05:54 | 51.48178 | 7.05798 | 128° | 51km/h | 3038m | -6.1m/s | 3.2°C | 7.2% | 714.4hPa | 2.6V | 07:58:00 | 00:00:00 | 00:00:00 | |
| DM0DOS-11 | 2026-09-06 02:05:53 | 51.48230 | 7.05675 | 123° | 55km/h | 3083m | -6.5m/s | 3.2°C | 5.4% | 710.5hPa | 2.6V | 07:58:23 | 02:47:24 | 00:00:00 | |
| BIOWL1-15 | 2026-09-06 02:05:49 | 51.48238 | 7.05656 | 124° | 55km/h | 3089m | -6.4m/s | 3.1°C | 3.5% | 710hPa | 2.5V | 07:59:11 | 02:47:23 | 00:00:00 | |
| DM0DOS-11 | 2026-09-06 02:05:48 | 51.48272 | 7.05582 | 127° | 57km/h | 3115m | -6.7m/s | 3°C | 6.6% | 707.7hPa | 2.6V | 07:58:28 | 02:47:19 | 00:00:00 | |
| DB0UT-7 | 2026-09-06 02:05:48 | 51.48230 | 7.05675 | 124° | 60km/h | 3083m | -6.5m/s | 3.1°C | 5.4% | 710.4hPa | 2.6V | 00:00:00 | 00:00:00 | 00:00:00 | |
| DH3RM | 2026-09-06 02:05:47 | 51.48230 | 7.05675 | 124° | 55km/h | 3083m | -6.6m/s | 3.2°C | 5.5% | 710.5hPa | 2.6V | 07:59:00 | 00:00:00 | 00:00:00 | |
| DO3DL | 2026-09-06 02:05:44 | 51.48254 | 7.05619 | 127° | 57km/h | 3103m | -6.4m/s | 3.0°C | 5.7% | 708.8hPa | 2.6V | 07:59:00 | 00:00:00 | 00:00:00 | |
| DM0DOS-11 | 2026-09-06 02:05:43 | 51.48315 | 7.05488 | 126° | 58km/h | 3148m | -6.3m/s | 3.2°C | 8.5% | 704.9hPa | 2.6V | 07:58:33 | 02:47:14 | 00:00:00 | |
| BIOWL1-15 | 2026-09-06 02:05:39 | 51.48325 | 7.05469 | 126° | 58km/h | 3155m | -6.8m/s | 3.3°C | 8.3% | 704.3hPa | 2.6V | 07:59:11 | 02:47:13 | 00:00:00 | |
| DM0DOS-11 | 2026-09-06 02:05:38 | 51.48360 | 7.05392 | 127° | 58km/h | 3181m | -6.8m/s | 3.3°C | 9.6% | 701.9hPa | 2.5V | 07:58:38 | 02:47:09 | 00:00:00 | |
| DH3RM | 2026-09-06 02:05:35 | 51.48333 | 7.05449 | 127° | 60km/h | 3161m | -6.8m/s | 3.3°C | 10.1% | 703.7hPa | 2.6V | 07:59:00 | 00:00:00 | 00:00:00 | |
| AU51GT2 | 2026-09-06 02:05:34 | 51.48361 | 7.05392 | 127° | 58km/h | 3181m | -6.8m/s | 3.3°C | 9.6% | 701.9hPa | 2.6V | 00:00:00 | 00:00:00 | 00:00:00 | |
| DO1YAY-16 | 2026-09-06 02:05:33 | 51.48361 | 7.05392 | 127° | 58km/h | 3181m | -6.8m/s | 3.3°C | 9.6% | 701.9hPa | 2.6V | 00:00:00 | 00:00:00 | 00:00:00 | |
| DO9LL-15 | 2026-09-06 02:05:31 | 51.48379 | 7.05354 | 130° | 60km/h | 3195m | -6.5m/s | 3.4°C | 8.8% | 700.8hPa | 2.6V | 07:58:00 | 02:47:07 | 00:00:00 | |
| DD1CC1-15 | 2026-09-06 02:05:30 | 51.48379 | 7.05354 | 130° | 60km/h | 3195m | -6.6m/s | 3.4°C | 8.8% | 700.8hPa | 2.6V | 07:59:00 | 00:00:00 | 00:00:00 | |
| DM0DOS-11 | 2026-09-06 02:05:28 | 51.48408 | 7.05297 | 128° | 60km/h | 3214m | -6.7m/s | 3.6°C | 9.7% | 699.1hPa | 2.6V | 07:58:43 | 02:47:04 | 00:00:00 | |
| DM0DOS-11 | 2026-09-06 02:05:28 | 51.48457 | 7.05201 | 129° | 60km/h | 3247m | -6.4m/s | 3.6°C | 8.1% | 696.2hPa | 2.6V | 07:58:48 | 02:46:59 | 00:00:00 | |
| BIOWL1-15 | 2026-09-06 02:05:27 | 51.48418 | 7.05278 | 129° | 62km/h | 3221m | -6.6m/s | 3.6°C | 10.2% | 698.6hPa | 2.5V | 07:59:11 | 02:47:03 | 00:00:00 | |
| DO3DL | 2026-09-06 02:05:23 | 51.48447 | 7.05220 | 131° | 60km/h | 3241m | -6.8m/s | 3.6°C | 8.2% | 696.8hPa | 2.6V | 07:59:00 | 00:00:00 | 00:00:00 | |
| DH3RM | 2026-09-06 02:05:22 | 51.48457 | 7.05201 | 131° | 60km/h | 3247m | -6.4m/s | 3.6°C | 8.1% | 696.2hPa | 2.6V | 07:59:00 | 00:00:00 | 00:00:00 | |
| DM0DOS-11 | 2026-09-06 02:05:18 | 51.48506 | 7.05107 | 130° | 60km/h | 3279m | -6.7m/s | 3.5°C | 7.1% | 693.4hPa | 2.6V | 07:58:53 | 02:46:54 | 00:00:00 | |
| DM0DOS-11 | 2026-09-06 02:05:18 | 51.48556 | 7.05013 | 130° | 62km/h | 3312m | -7m/s | 3.2°C | 7.7% | 690.6hPa | 2.5V | 07:58:58 | 02:46:49 | 00:00:00 | |
| BIOWL1-15 | 2026-09-06 02:05:16 | 51.48526 | 7.05070 | 131° | 60km/h | 3292m | -6.7m/s | 3.4°C | 6.1% | 692.3hPa | 2.6V | 07:59:11 | 02:46:52 | 00:00:00 | |
| DJ2DS-15 | 2026-09-06 02:05:15 | 51.48536 | 7.05051 | 130° | 60km/h | 3298m | -6.5m/s | 3.3°C | 7.4% | 691.7hPa | 2.6V | 00:00:00 | 00:00:00 | 00:00:00 | |
| BIOWL7-15 | 2026-09-06 02:05:14 | 51.48536 | 7.05051 | 132° | 62km/h | 3299m | -6.5m/s | 3.3°C | 7.4% | 691.7hPa | 2.6V | 07:59:00 | 00:00:00 | 00:00:00 | |
| DM0DOS-11 | 2026-09-06 02:05:13 | 51.48606 | 7.04918 | 130° | 62km/h | 3345m | -6.6m/s | 3°C | 7.6% | 687.7hPa | 2.6V | 07:59:03 | 02:46:44 | 00:00:00 | |
| DB0UT-7 | 2026-09-06 02:05:13 | 51.48556 | 7.05013 | 131° | 62km/h | 3312m | -6.9m/s | 3.2°C | 7.7% | 690.6hPa | 2.6V | 00:00:00 | 02:46:49 | 00:00:00 | |
| DL4BBY-15 | 2026-09-06 02:05:11 | 51.48576 | 7.04975 | 131° | 62km/h | 3326m | -6.9m/s | 3.5°C | 0% | 0hPa | 2.6V | 00:00:00 | 00:00:00 | 00:00:00 | |
| DH3RM | 2026-09-06 02:05:10 | 51.48576 | 7.04975 | 131° | 62km/h | 3326m | -6.9m/s | 3.1°C | 7.4% | 689.5hPa | 2.6V | 07:59:00 | 00:00:00 | 00:00:00 | |
| DD1CC1-15 | 2026-09-06 02:05:09 | 51.48586 | 7.04956 | 131° | 62km/h | 3332m | -6.7m/s | 3.1°C | 7.5% | 688.8hPa | 2.6V | 07:59:00 | 00:00:00 | 00:00:00 | |
| DM0DOS-11 | 2026-09-06 02:05:08 | 51.48657 | 7.04822 | 130° | 62km/h | 3379m | -6.8m/s | 3°C | 10.2% | 684.9hPa | 2.6V | 07:59:08 | 02:46:39 | 00:00:00 | |
| BIOWL1-15 | 2026-09-06 02:05:06 | 51.48627 | 7.04880 | 130° | 62km/h | 3359m | -7m/s | 2.9°C | 7.7% | 686.5hPa | 2.5V | 07:59:11 | 02:46:42 | 00:00:00 | |
| HTAHTA | 2026-09-06 02:05:04 | 51.48647 | 7.04842 | 130° | 62km/h | 3372m | -6.8m/s | 2.9°C | 9.2% | 685.5hPa | 2.6V | 00:00:00 | 00:00:00 | 00:00:00 | |
| DM0DOS-11 | 2026-09-06 02:05:03 | 51.48708 | 7.04727 | 131° | 62km/h | 3413m | -6.6m/s | 2.9°C | 10.9% | 682hPa | 2.6V | 07:59:13 | 02:46:34 | 00:00:00 | |
| AU51GT2 | 2026-09-06 02:05:03 | 51.48667 | 7.04803 | 130° | 62km/h | 3386m | -6.8m/s | 3.0°C | 10.7% | 684.3hPa | 2.5V | 00:00:00 | 00:00:00 | 00:00:00 | |
| DO1YAY-16 | 2026-09-06 02:05:02 | 51.48667 | 7.04803 | 130° | 62km/h | 3386m | -6.8m/s | 3.0°C | 10.7% | 684.3hPa | 2.5V | 00:00:00 | 00:00:00 | 00:00:00 | |
| DO9LL-15 | 2026-09-06 02:05:01 | 51.48677 | 7.04784 | 131° | 62km/h | 3393m | -6.8m/s | 3.0°C | 10.8% | 683.7hPa | 2.5V | 00:00:00 | 02:46:37 | 00:00:00 | |
| DJ2KF-10 | 2026-09-06 02:05:00 | 51.48688 | 7.04765 | 131° | 62km/h | 3399m | -6.9m/s | 2.9°C | 10.9% | 683.2hPa | 2.5V | 00:00:00 | 02:46:36 | 00:00:00 | |
| DM0DOS-11 | 2026-09-06 02:04:58 | 51.48758 | 7.04634 | 130° | 60km/h | 3447m | -6.9m/s | 2.7°C | 10.9% | 679.1hPa | 2.5V | 07:59:18 | 02:46:29 | 00:00:00 | |
| BIOWL1-15 | 2026-09-06 02:04:56 | 51.48728 | 7.04689 | 131° | 60km/h | 3427m | -7.1m/s | 2.8°C | 11.7% | 680.7hPa | 2.6V | 08:00:02 | 02:46:32 | 00:00:00 | |
| BIOWL7-15 | 2026-09-06 02:04:54 | 51.48738 | 7.04671 | 132° | 60km/h | 3434m | -6.8m/s | 2.8°C | 10.9% | 680.1hPa | 2.5V | 00:00:00 | 00:00:00 | 00:00:00 | |
| DO2KSM | 2026-09-06 02:04:51 | 51.48768 | 7.04615 | 132° | 60km/h | 3454m | -6.7m/s | 2.7°C | 10.8% | 678.4hPa | 2.5V | 08:00:00 | 00:00:00 | 00:00:00 | |
| DO3DL | 2026-09-06 02:04:50 | 51.48778 | 7.04596 | 132° | 60km/h | 3460m | -6.9m/s | 2.6°C | 10.8% | 678.0hPa | 2.5V | 08:00:00 | 00:00:00 | 00:00:00 | |
| DM0DOS-11 | 2026-09-06 02:04:48 | 51.48809 | 7.04541 | 131° | 60km/h | 3481m | -6.8m/s | 2.5°C | 10.9% | 676.2hPa | 2.5V | 07:59:23 | 02:46:24 | 00:00:00 | |
| DM0DOS-11 | 2026-09-06 02:04:48 | 51.48862 | 7.04448 | 131° | 64km/h | 3516m | -7m/s | 2.4°C | 10.9% | 673.5hPa | 2.6V | 07:59:28 | 02:46:19 | 00:00:00 | |
| BIOWL1-15 | 2026-09-06 02:04:45 | 51.48840 | 7.04485 | 132° | 62km/h | 3502m | -7.1m/s | 2.4°C | 11.4% | 674.6hPa | 2.6V | 08:00:02 | 02:46:21 | 00:00:00 | |
| DH3RM | 2026-09-06 02:04:44 | 51.48840 | 7.04485 | 133° | 62km/h | 3502m | -7.1m/s | 2.4°C | 10.8% | 674.6hPa | 2.6V | 08:00:00 | 00:00:00 | 00:00:00 | |
| DB0UT-7 | 2026-09-06 02:04:43 | 51.48862 | 7.04447 | 132° | 64km/h | 3516m | -7.0m/s | 2.4°C | 10.9% | 673.5hPa | 2.6V | 00:00:00 | 00:00:00 | 00:00:00 | |
| DL4BBY-15 | 2026-09-06 02:04:41 | 51.48882 | 7.04409 | 131° | 66km/h | 3530m | -6.7m/s | 2.7°C | 0% | 0hPa | 2.6V | 00:00:00 | 00:00:00 | 00:00:00 | |
| BIOWL9-15 | 2026-09-06 02:04:40 | 51.48893 | 7.04390 | 130° | 62km/h | 3536m | -7.2m/s | 2.4°C | 10.8% | 671.7hPa | 2.6V | 00:00:00 | 00:00:00 | 00:00:00 | |
| DJ2DS-15 | 2026-09-06 02:04:39 | 51.48903 | 7.04371 | 130° | 62km/h | 3543m | -7.0m/s | 2.3°C | 10.8% | 671.0hPa | 2.6V | 00:00:00 | 00:00:00 | 00:00:00 | |
| DM0DOS-11 | 2026-09-06 02:04:38 | 51.48965 | 7.04257 | 132° | 62km/h | 3585m | -6.9m/s | 2.2°C | 11.4% | 667.5hPa | 2.6V | 07:59:38 | 02:46:09 | 00:00:00 | |
| BIOWL1-15 | 2026-09-06 02:04:36 | 51.48955 | 7.04276 | 132° | 62km/h | 3578m | -7.1m/s | 2.2°C | 13% | 668.1hPa | 2.5V | 08:00:02 | 02:46:10 | 00:00:00 | |
| HTAHTA | 2026-09-06 02:04:33 | 51.48965 | 7.04257 | 132° | 60km/h | 3585m | -6.9m/s | 2.2°C | 11.4% | 667.5hPa | 2.6V | 00:00:00 | 00:00:00 | 00:00:00 | |
| AU51GT2 | 2026-09-06 02:04:32 | 51.48987 | 7.04220 | 131° | 62km/h | 3599m | -7.1m/s | 2.1°C | 11.2% | 666.4hPa | 2.6V | 00:00:00 | 00:00:00 | 00:00:00 | |
| DO9LL-15 | 2026-09-06 02:04:31 | 51.48986 | 7.04219 | 132° | 66km/h | 3599m | -7.1m/s | 2.1°C | 11.2% | 666.4hPa | 2.6V | 00:00:00 | 02:46:07 | 00:00:00 | |
| DJ2KF-10 | 2026-09-06 02:04:30 | 51.48997 | 7.04200 | 132° | 66km/h | 3606m | -7.0m/s | 2.0°C | 11.4% | 666.0hPa | 2.6V | 00:00:00 | 02:46:06 | 00:00:00 | |
| DD1CC1-15 | 2026-09-06 02:04:29 | 51.48997 | 7.04200 | 133° | 64km/h | 3606m | -7.0m/s | 2.1°C | 11.3% | 666.0hPa | 2.5V | 08:00:00 | 00:00:00 | 00:00:00 | |
| DM0DOS-11 | 2026-09-06 02:04:28 | 51.49071 | 7.04061 | 129° | 66km/h | 3655m | -7.1m/s | 2°C | 11.7% | 661.9hPa | 2.5V | 07:59:48 | 02:45:59 | 00:00:00 | |
| BIOWL1-15 | 2026-09-06 02:04:23 | 51.49071 | 7.04061 | 130° | 66km/h | 3655m | -7.1m/s | 2°C | 12.6% | 661.9hPa | 2.5V | 08:00:02 | 02:45:59 | 00:00:00 | |
| DM0DOS-11 | 2026-09-06 02:04:23 | 51.49125 | 7.03957 | 129° | 68km/h | 3691m | -7m/s | 1.9°C | 13.1% | 658.8hPa | 2.6V | 07:59:53 | 02:45:54 | 00:00:00 | |
| DM0DOS-11 | 2026-09-06 02:04:18 | 51.49178 | 7.03853 | 128° | 66km/h | 3727m | -7.3m/s | 1.6°C | 15.2% | 655.9hPa | 2.6V | 07:59:58 | 02:45:49 | 00:00:00 | |
| BIOWL1-15 | 2026-09-06 02:04:15 | 51.49178 | 7.03853 | 129° | 66km/h | 3727m | -7.3m/s | 1.6°C | 17.2% | 655.9hPa | 2.6V | 08:00:02 | 02:45:49 | 00:00:00 | |
| DB0UT-7 | 2026-09-06 02:04:13 | 51.49178 | 7.03853 | 129° | 68km/h | 3727m | -7.3m/s | 1.6°C | 15.2% | 655.8hPa | 2.6V | 07:59:00 | 02:45:49 | 00:00:00 | |
| DH3RM | 2026-09-06 02:04:12 | 51.49178 | 7.03853 | 130° | 66km/h | 3727m | -7.3m/s | 1.6°C | 15.1% | 655.9hPa | 2.6V | 08:00:00 | 00:00:00 | 00:00:00 | |
| DL4BBY-15 | 2026-09-06 02:04:11 | 51.49199 | 7.03812 | 129° | 73km/h | 3741m | -7.3m/s | 1.9°C | 0% | 0hPa | 2.6V | 00:00:00 | 00:00:00 | 00:00:00 | |
| DM0DOS-11 | 2026-09-06 02:04:08 | 51.49230 | 7.03748 | 128° | 68km/h | 3763m | -7.2m/s | 1.4°C | 16.2% | 653hPa | 2.6V | 08:00:03 | 02:45:44 | 00:00:00 | |
| DM0DOS-11 | 2026-09-06 02:04:08 | 51.49282 | 7.03640 | 127° | 66km/h | 3798m | -7.3m/s | 1.3°C | 14% | 650.2hPa | 2.6V | 08:00:08 | 02:45:39 | 00:00:00 | |
| BIOWL1-15 | 2026-09-06 02:04:02 | 51.49293 | 7.03619 | 127° | 66km/h | 3806m | -7.2m/s | 1.4°C | 17% | 649.6hPa | 2.6V | 08:00:53 | 02:45:38 | 00:00:00 | |
| AU51GT2 | 2026-09-06 02:04:01 | 51.49313 | 7.03576 | 127° | 66km/h | 3820m | -7.3m/s | 1.4°C | 13.7% | 648.3hPa | 2.5V | 00:00:00 | 00:00:00 | 00:00:00 | |
| DO1YAY-16 | 2026-09-06 02:04:00 | 51.49313 | 7.03576 | 127° | 66km/h | 3820m | -7.3m/s | 1.4°C | 13.7% | 648.3hPa | 2.5V | 00:00:00 | 00:00:00 | 00:00:00 | |
| DM0DOS-11 | 2026-09-06 02:03:58 | 51.49333 | 7.03533 | 126° | 66km/h | 3835m | -7.2m/s | 1.3°C | 12.5% | 647.1hPa | 2.5V | 08:00:13 | 02:45:34 | 00:00:00 | |
| DM0DOS-11 | 2026-09-06 02:03:58 | 51.49384 | 7.03425 | 127° | 68km/h | 3871m | -7.2m/s | 1.1°C | 12.9% | 644.2hPa | 2.5V | 08:00:18 | 02:45:29 | 00:00:00 | |
| WPPR-10 | 2026-09-06 02:03:56 | 51.49353 | 7.03489 | 127° | 66km/h | 3849m | -7.1m/s | 1.2°C | 12.8% | 646.1hPa | 2.6V | 00:00:00 | 00:00:00 | 00:00:00 | |
| DJ3KS | 2026-09-06 02:03:54 | 51.49363 | 7.03468 | 128° | 68km/h | 3856m | -7.4m/s | 1.2°C | 12.7% | 645.6hPa | 2.6V | 00:00:00 | 00:00:00 | 00:00:00 | |
| DM0DOS-11 | 2026-09-06 02:03:53 | 51.49438 | 7.03316 | 127° | 68km/h | 3907m | -7.3m/s | 0.8°C | 13.5% | 641.6hPa | 2.6V | 08:00:23 | 02:45:24 | 00:00:00 | |
| BIOWL1-15 | 2026-09-06 02:03:51 | 51.49406 | 7.03381 | 128° | 68km/h | 3885m | -7.2m/s | 0.9°C | 14.5% | 643.3hPa | 2.6V | 08:00:53 | 02:45:27 | 00:00:00 | |
| DM0DOS-11 | 2026-09-06 02:03:48 | 51.49490 | 7.03206 | 127° | 68km/h | 3943m | -7.1m/s | 0.8°C | 8% | 638.5hPa | 2.6V | 08:00:28 | 02:45:19 | 00:00:00 | |
| DH3RM | 2026-09-06 02:03:46 | 51.49459 | 7.03272 | 128° | 68km/h | 3922m | -7.5m/s | 0.7°C | 13.2% | 640.3hPa | 2.6V | 08:00:00 | 00:00:00 | 00:00:00 | |
| DD1CC9-15 | 2026-09-06 02:03:45 | 51.49459 | 7.03272 | 128° | 68km/h | 3922m | -7.5m/s | 0.7°C | 13.2% | 640.3hPa | 2.6V | 08:00:00 | 00:00:00 | 00:00:00 | |
| DO3DL | 2026-09-06 02:03:44 | 51.49469 | 7.03249 | 129° | 69km/h | 3929m | -7.4m/s | 0.7°C | 13.5% | 639.6hPa | 2.6V | 08:00:00 | 00:00:00 | 00:00:00 | |
| DM0DOS-11 | 2026-09-06 02:03:43 | 51.49544 | 7.03098 | 129° | 68km/h | 3979m | -7.4m/s | 0.7°C | 4% | 635.9hPa | 2.6V | 08:00:33 | 02:45:14 | 00:00:00 | |
| BIOWL1-15 | 2026-09-06 02:03:40 | 51.49522 | 7.03141 | 129° | 68km/h | 3965m | -7.2m/s | 0.8°C | 2.4% | 636.8hPa | 2.5V | 08:00:53 | 02:45:16 | 00:00:00 | |
| DM0DOS-11 | 2026-09-06 02:03:38 | 51.49599 | 7.02993 | 129° | 68km/h | 4016m | -7.3m/s | 0.4°C | 9.7% | 632.9hPa | 2.6V | 08:00:38 | 02:45:09 | 00:00:00 | |
| BIOWL1-15 | 2026-09-06 02:03:30 | 51.49631 | 7.02929 | 128° | 68km/h | 4038m | -7.7m/s | 0.2°C | 14.3% | 631.1hPa | 2.5V | 08:00:53 | 02:45:06 | 00:00:00 | |
| DM0DOS-11 | 2026-09-06 02:03:28 | 51.49652 | 7.02885 | 127° | 68km/h | 4053m | -7.2m/s | 0°C | 14.6% | 630hPa | 2.6V | 08:00:43 | 02:45:04 | 00:00:00 | |
| DM0DOS-11 | 2026-09-06 02:03:28 | 51.49705 | 7.02775 | 127° | 69km/h | 4090m | -7.7m/s | -0.3°C | 23.5% | 626.9hPa | 2.5V | 08:00:48 | 02:44:59 | 00:00:00 | |
| BIOWL1-15 | 2026-09-06 02:03:22 | 51.49737 | 7.02709 | 127° | 68km/h | 4112m | -7.4m/s | -0.4°C | 23.7% | 625.4hPa | 2.6V | 08:00:53 | 02:44:56 | 00:00:00 | |
| DM0DOS-11 | 2026-09-06 02:03:18 | 51.49757 | 7.02665 | 126° | 68km/h | 4127m | -7.8m/s | -0.5°C | 23.2% | 624.1hPa | 2.5V | 08:00:53 | 02:44:54 | 00:00:00 | |
| MET0W-2 | 2026-09-06 02:03:17 | 51.49767 | 7.02643 | 126° | 68km/h | 4135m | -7.7m/s | -0.6°C | 23.7% | 623.5hPa | 2.6V | 00:00:00 | 00:00:00 | 00:00:00 | |
| DD1CC3-15 | 2026-09-06 02:03:15 | 51.49777 | 7.02621 | 127° | 69km/h | 4143m | -8.1m/s | -0.6°C | 24.4% | 623.0hPa | 2.6V | 08:01:00 | 00:00:00 | 00:00:00 | |
| DM0DOS-11 | 2026-09-06 02:03:13 | 51.49865 | 7.02441 | 128° | 69km/h | 4203m | -7.6m/s | -0.9°C | 24% | 618.2hPa | 2.6V | 08:01:03 | 02:44:44 | 00:00:00 | |
| BIOWL1-15 | 2026-09-06 02:03:12 | 51.49853 | 7.02463 | 129° | 71km/h | 4196m | -7.4m/s | -0.8°C | 26.1% | 618.8hPa | 2.6V | 08:01:44 | 02:44:45 | 00:00:00 | |
| BIOWL7-15 | 2026-09-06 02:03:11 | 51.49820 | 7.02530 | 129° | 71km/h | 4173m | -7.6m/s | -0.7°C | 17.0% | 620.6hPa | 2.6V | 00:00:00 | 00:00:00 | 00:00:00 | |
| BIOWL9-15 | 2026-09-06 02:03:07 | 51.49876 | 7.02419 | 128° | 69km/h | 4211m | -7.5m/s | -0.9°C | 24.3% | 617.6hPa | 2.6V | 00:00:00 | 00:00:00 | 00:00:00 | |
| DH3RM | 2026-09-06 02:03:06 | 51.49875 | 7.02419 | 130° | 69km/h | 4211m | -7.5m/s | -0.9°C | 24.3% | 617.6hPa | 2.6V | 08:01:00 | 00:00:00 | 00:00:00 | |
| DB0ND-19 | 2026-09-06 02:03:05 | 51.49898 | 7.02374 | 129° | 69km/h | 4225m | -7.4m/s | -0.9°C | 27.9% | 616.4hPa | 2.6V | 00:00:00 | 00:00:00 | 00:00:00 | |
| DM0DOS-11 | 2026-09-06 02:03:03 | 51.49982 | 7.02221 | 133° | 73km/h | 4277m | -7.3m/s | -0.8°C | 58.3% | 612.5hPa | 2.6V | 08:01:13 | 02:44:34 | 00:00:00 | |
| BIOWL1-15 | 2026-09-06 02:02:58 | 51.49982 | 7.02221 | 133° | 73km/h | 4277m | -7.3m/s | -0.8°C | 63.9% | 612.5hPa | 2.6V | 08:01:44 | 02:44:34 | 00:00:00 | |
| DM0DOS-11 | 2026-09-06 02:02:58 | 51.50046 | 7.02115 | 134° | 73km/h | 4314m | -7.5m/s | -1°C | 61.6% | 609.7hPa | 2.5V | 08:01:18 | 02:44:29 | 00:00:00 | |
| DO1YAY-16 | 2026-09-06 02:02:58 | 51.49982 | 7.02221 | 133° | 71km/h | 4277m | -7.3m/s | -0.8°C | 57.9% | 612.5hPa | 2.6V | 00:00:00 | 00:00:00 | 00:00:00 | |
| WPPR-10 | 2026-09-06 02:02:54 | 51.50033 | 7.02136 | 134° | 71km/h | 4307m | -7.4m/s | -1.0°C | 60.8% | 610.2hPa | 2.6V | 00:00:00 | 00:00:00 | 00:00:00 | |
| DM0DOS-11 | 2026-09-06 02:02:53 | 51.50111 | 7.02011 | 136° | 73km/h | 4351m | -7.6m/s | -1.3°C | 63.9% | 606.7hPa | 2.6V | 08:01:23 | 02:44:24 | 00:00:00 | |
| BIOWL1-15 | 2026-09-06 02:02:48 | 51.50111 | 7.02011 | 136° | 73km/h | 4351m | -7.6m/s | -1.3°C | 69.1% | 606.7hPa | 2.6V | 08:01:44 | 02:44:24 | 00:00:00 | |
| MET0W-2 | 2026-09-06 02:02:46 | 51.50138 | 7.01970 | 136° | 73km/h | 4366m | -7.6m/s | -1.2°C | 65.8% | 605.6hPa | 2.6V | 00:00:00 | 00:00:00 | 00:00:00 | |
| DO2KSM | 2026-09-06 02:02:45 | 51.50138 | 7.01970 | 138° | 75km/h | 4366m | -7.6m/s | -1.2°C | 65.8% | 605.6hPa | 2.6V | 08:01:00 | 00:00:00 | 00:00:00 | |
| DM0DOS-11 | 2026-09-06 02:02:43 | 51.50179 | 7.01909 | 136° | 73km/h | 4389m | -7.8m/s | -1.3°C | 67.6% | 603.9hPa | 2.6V | 08:01:28 | 02:44:19 | 00:00:00 | |
| DM0DOS-11 | 2026-09-06 02:02:43 | 51.50247 | 7.01806 | 137° | 75km/h | 4427m | -7.7m/s | -1.6°C | 69.9% | 600.9hPa | 2.5V | 08:01:33 | 02:44:14 | 00:00:00 | |
| BIOWL1-15 | 2026-09-06 02:02:39 | 51.50261 | 7.01785 | 137° | 75km/h | 4435m | -7.8m/s | -1.7°C | 76.2% | 600.5hPa | 2.5V | 08:01:44 | 02:44:13 | 00:00:00 | |
| DM0DOS-11 | 2026-09-06 02:02:38 | 51.50317 | 7.01703 | 136° | 75km/h | 4465m | -7.8m/s | -1.9°C | 72.3% | 598.2hPa | 2.6V | 08:01:38 | 02:44:09 | 00:00:00 | |
| BIOWL1-15 | 2026-09-06 02:02:28 | 51.50412 | 7.01555 | 135° | 73km/h | 4518m | -7.4m/s | -2.3°C | 78.1% | 594.3hPa | 2.6V | 08:02:35 | 02:44:02 | 00:00:00 | |
| DM0DOS-11 | 2026-09-06 02:02:28 | 51.50451 | 7.01492 | 134° | 73km/h | 4541m | -8.1m/s | -2.4°C | 74.4% | 592.6hPa | 2.5V | 08:01:48 | 02:43:59 | 00:00:00 | |
| AU51GT2 | 2026-09-06 02:02:28 | 51.50399 | 7.01576 | 134° | 73km/h | 4510m | -7.6m/s | -2.2°C | 73.0% | 594.9hPa | 2.5V | 00:00:00 | 00:00:00 | 00:00:00 | |
| DO1YAY-16 | 2026-09-06 02:02:27 | 51.50399 | 7.01576 | 134° | 73km/h | 4510m | -7.6m/s | -2.2°C | 73.0% | 594.9hPa | 2.5V | 00:00:00 | 00:00:00 | 00:00:00 | |
| DD1CC1-15 | 2026-09-06 02:02:26 | 51.50399 | 7.01576 | 136° | 73km/h | 4511m | -7.6m/s | -2.2°C | 73.0% | 594.9hPa | 2.5V | 08:01:00 | 00:00:00 | 00:00:00 | |
| DO3DL | 2026-09-06 02:02:25 | 51.50412 | 7.01555 | 136° | 73km/h | 4518m | -7.4m/s | -2.3°C | 73.1% | 594.3hPa | 2.5V | 08:02:00 | 00:00:00 | 00:00:00 | |
| DO2KSM | 2026-09-06 02:02:24 | 51.50425 | 7.01534 | 136° | 73km/h | 4526m | -7.6m/s | -2.3°C | 73.5% | 593.6hPa | 2.5V | 08:02:00 | 00:00:00 | 00:00:00 | |
| DM0DOS-11 | 2026-09-06 02:02:23 | 51.50516 | 7.01388 | 135° | 73km/h | 4579m | -7.9m/s | -2.6°C | 74.4% | 589.8hPa | 2.5V | 08:01:53 | 02:43:54 | 00:00:00 | |
| DH3RM | 2026-09-06 02:02:22 | 51.50464 | 7.01471 | 136° | 71km/h | 4549m | -7.6m/s | -2.5°C | 73.9% | 592.0hPa | 2.5V | 08:02:00 | 00:00:00 | 00:00:00 | |
| DD1CC9-15 | 2026-09-06 02:02:21 | 51.50464 | 7.01471 | 136° | 71km/h | 4549m | -7.6m/s | -2.5°C | 73.9% | 592.0hPa | 2.5V | 08:02:00 | 00:00:00 | 00:00:00 | |
| DC6BW-12 | 2026-09-06 02:02:20 | 51.50476 | 7.01451 | 136° | 73km/h | 4556m | -7.7m/s | -2.5°C | 74.1% | 591.5hPa | 2.5V | 00:00:00 | 00:00:00 | 00:00:00 | |
| DM0DOS-11 | 2026-09-06 02:02:18 | 51.50583 | 7.01283 | 134° | 75km/h | 4617m | -7.4m/s | -2.6°C | 72.1% | 586.9hPa | 2.5V | 08:01:58 | 02:43:49 | 00:00:00 | |
| BIOWL1-15 | 2026-09-06 02:02:17 | 51.50556 | 7.01325 | 135° | 75km/h | 4602m | -7.9m/s | -2.5°C | 76.2% | 588.2hPa | 2.6V | 08:02:35 | 02:43:51 | 00:00:00 | |
| DO2JMG | 2026-09-06 02:02:13 | 51.50583 | 7.01283 | 135° | 75km/h | 4617m | -7.4m/s | 0°C | 0% | 0hPa | 2.5V | 18:12:15 | 02:43:49 | 00:00:00 | |
| DB0UT-7 | 2026-09-06 02:02:12 | 51.50596 | 7.01261 | 135° | 77km/h | 4625m | -7.9m/s | -2.6°C | 72.3% | 586.3hPa | 2.6V | 00:00:00 | 02:43:48 | 00:00:00 | |
| DM0DOS-11 | 2026-09-06 02:02:08 | 51.50717 | 7.01066 | 134° | 75km/h | 4695m | -7.7m/s | -2.7°C | 65.4% | 581.4hPa | 2.6V | 08:02:08 | 02:43:39 | 00:00:00 | |
| BIOWL1-15 | 2026-09-06 02:02:05 | 51.50703 | 7.01088 | 135° | 75km/h | 4687m | -8.1m/s | -2.8°C | 71.8% | 581.8hPa | 2.6V | 08:02:35 | 02:43:40 | 00:00:00 | |
| DB0ND-19 | 2026-09-06 02:02:03 | 51.50717 | 7.01066 | 134° | 75km/h | 4695m | -7.7m/s | -2.7°C | 64.8% | 581.4hPa | 2.6V | 00:00:00 | 00:00:00 | 00:00:00 | |
| DO9LL-15 | 2026-09-06 02:02:01 | 51.50744 | 7.01022 | 135° | 77km/h | 4710m | -7.5m/s | -2.6°C | 62.3% | 580.1hPa | 2.6V | 00:00:00 | 02:43:37 | 00:00:00 | |
| DD1CC9-15 | 2026-09-06 02:02:00 | 51.50744 | 7.01022 | 135° | 75km/h | 4710m | -7.6m/s | -2.7°C | 61.8% | 580.1hPa | 2.6V | 08:02:00 | 00:00:00 | 00:00:00 | |
| DM0DOS-11 | 2026-09-06 02:01:58 | 51.50784 | 7.00956 | 134° | 77km/h | 4733m | -7.7m/s | -2.8°C | 63.2% | 578.5hPa | 2.6V | 08:02:13 | 02:43:34 | 00:00:00 | |
| DM0DOS-11 | 2026-09-06 02:01:58 | 51.50853 | 7.00845 | 135° | 77km/h | 4772m | -7.7m/s | -3°C | 62.6% | 575.6hPa | 2.6V | 08:02:18 | 02:43:29 | 00:00:00 | |
| DO1YAY-16 | 2026-09-06 02:01:56 | 51.50812 | 7.00911 | 134° | 77km/h | 4748m | -7.7m/s | -2.9°C | 61.4% | 577.3hPa | 2.6V | 00:00:00 | 00:00:00 | 00:00:00 | |
| DH3RM | 2026-09-06 02:01:54 | 51.50825 | 7.00889 | 135° | 77km/h | 4756m | -7.8m/s | -3.0°C | 61.6% | 576.7hPa | 2.6V | 08:02:00 | 00:00:00 | 00:00:00 | |
| BIOWL1-15 | 2026-09-06 02:01:54 | 51.50853 | 7.00845 | 135° | 77km/h | 4772m | -7.7m/s | -3.1°C | 68.2% | 575.6hPa | 2.6V | 08:02:35 | 02:43:29 | 00:00:00 | |
| DM0DOS-11 | 2026-09-06 02:01:53 | 51.50921 | 7.00736 | 134° | 77km/h | 4811m | -7.7m/s | -3.3°C | 63% | 572.8hPa | 2.6V | 08:02:23 | 02:43:24 | 00:00:00 | |
| WPPR-10 | 2026-09-06 02:01:52 | 51.50866 | 7.00823 | 135° | 75km/h | 4780m | -7.7m/s | -3.1°C | 62.4% | 575.1hPa | 2.6V | 00:00:00 | 00:00:00 | 00:00:00 | |
| DM0DOS-11 | 2026-09-06 02:01:48 | 51.50989 | 7.00626 | 133° | 77km/h | 4848m | -7.3m/s | -3.4°C | 62% | 570.1hPa | 2.6V | 08:02:28 | 02:43:19 | 00:00:00 | |
| BIOWL1-15 | 2026-09-06 02:01:44 | 51.51002 | 7.00603 | 133° | 77km/h | 4856m | -7.7m/s | -3.5°C | 67% | 569.5hPa | 2.6V | 08:02:35 | 02:43:18 | 00:00:00 | |
| DM0DOS-11 | 2026-09-06 02:01:43 | 51.51056 | 7.00511 | 133° | 78km/h | 4885m | -7.6m/s | -3.7°C | 61.1% | 567.4hPa | 2.6V | 08:02:33 | 02:43:14 | 00:00:00 | |
| DB0UT-7 | 2026-09-06 02:01:42 | 51.51002 | 7.00603 | 134° | 80km/h | 4856m | -7.7m/s | -3.4°C | 61.5% | 569.5hPa | 2.6V | 00:00:00 | 00:00:00 | 00:00:00 | |
| DD1CC9-15 | 2026-09-06 02:01:40 | 51.51015 | 7.00580 | 134° | 77km/h | 4863m | -7.4m/s | -3.5°C | 60.4% | 569.1hPa | 2.6V | 08:02:00 | 00:00:00 | 00:00:00 | |
| DJ2DS-15 | 2026-09-06 02:01:39 | 51.51056 | 7.00511 | 133° | 77km/h | 4885m | -7.6m/s | -3.7°C | 60.5% | 567.4hPa | 2.6V | 00:00:00 | 00:00:00 | 00:00:00 | |
| DM0DOS-11 | 2026-09-06 02:01:38 | 51.51124 | 7.00392 | 130° | 80km/h | 4921m | -7.4m/s | -3.8°C | 60.4% | 564.8hPa | 2.6V | 08:02:38 | 02:43:09 | 00:00:00 | |
| BIOWL1-15 | 2026-09-06 02:01:35 | 51.51150 | 7.00342 | 129° | 80km/h | 4935m | -7.4m/s | -3.8°C | 66.4% | 563.7hPa | 2.5V | 08:03:26 | 02:43:07 | 00:00:00 | |
| BIOWL9-15 | 2026-09-06 02:01:35 | 51.51111 | 7.00417 | 131° | 78km/h | 4914m | -7.1m/s | -3.8°C | 59.9% | 565.2hPa | 2.6V | 00:00:00 | 00:00:00 | 00:00:00 | |
| DH3RM | 2026-09-06 02:01:33 | 51.51110 | 7.00417 | 132° | 80km/h | 4914m | -7.1m/s | -3.8°C | 59.9% | 565.2hPa | 2.6V | 08:03:00 | 00:00:00 | 00:00:00 | |
| DB0ND-19 | 2026-09-06 02:01:32 | 51.51137 | 7.00368 | 130° | 80km/h | 4928m | -7.0m/s | -3.8°C | 60.0% | 564.2hPa | 2.6V | 00:00:00 | 00:00:00 | 00:00:00 | |
| DO9LL-15 | 2026-09-06 02:01:31 | 51.51150 | 7.00342 | 130° | 82km/h | 4935m | -7.4m/s | -3.8°C | 60.9% | 563.6hPa | 2.6V | 00:00:00 | 02:43:07 | 00:00:00 | |
| DM0DOS-11 | 2026-09-06 02:01:28 | 51.51189 | 7.00266 | 128° | 80km/h | 4958m | -7.6m/s | -3.9°C | 61.1% | 562.1hPa | 2.6V | 08:02:43 | 02:43:04 | 00:00:00 | |
| DM0DOS-11 | 2026-09-06 02:01:28 | 51.51252 | 7.00133 | 126° | 82km/h | 4995m | -7.3m/s | -4.2°C | 62% | 559.4hPa | 2.5V | 08:02:48 | 02:42:59 | 00:00:00 | |
| BIOWL1-15 | 2026-09-06 02:01:22 | 51.51289 | 7.00051 | 126° | 84km/h | 5021m | -11.7m/s | -4.3°C | 66.7% | 557.9hPa | 2.6V | 08:03:26 | 02:42:56 | 00:00:00 | |
| DM0DOS-11 | 2026-09-06 02:01:21 | 51.51337 | 6.99942 | 125° | 84km/h | 5058m | -9m/s | -4.5°C | 61.4% | 555.1hPa | 2.6V | 08:02:55 | 02:42:52 | 00:00:00 | |
| BIOWL1-15 | 2026-09-06 02:01:17 | 51.51409 | 6.99777 | 124° | 82km/h | 5128m | -12.1m/s | -5°C | 68.9% | 550.5hPa | 2.6V | 08:03:26 | 02:42:46 | 00:00:00 | |
| DJ3KS | 2026-09-06 02:01:14 | 51.51349 | 6.99914 | 127° | 84km/h | 5069m | -12.3m/s | -4.5°C | 60.3% | 554.6hPa | 2.5V | 00:00:00 | 00:00:00 | 00:00:00 | |
| MET0W-2 | 2026-09-06 02:01:13 | 51.51374 | 6.99859 | 124° | 84km/h | 5092m | -11.4m/s | -4.6°C | 61.0% | 552.9hPa | 2.5V | 00:00:00 | 00:00:00 | 00:00:00 | |
| DB0UT-7 | 2026-09-06 02:01:12 | 51.51386 | 6.99831 | 126° | 86km/h | 5104m | -11.4m/s | -4.7°C | 61.9% | 552.1hPa | 2.5V | 00:00:00 | 02:42:48 | 00:00:00 | |
| DM0DOS-11 | 2026-09-06 02:01:11 | 51.51457 | 6.99665 | 124° | 84km/h | 5174m | -11.8m/s | -5.4°C | 64.3% | 547.2hPa | 2.5V | 08:03:05 | 02:42:42 | 00:00:00 | |
| BIOWL1-15 | 2026-09-06 02:01:02 | 51.51529 | 6.99496 | 124° | 86km/h | 5242m | -11.5m/s | -5.5°C | 67.4% | 542.5hPa | 2.6V | 08:03:26 | 02:42:36 | 00:00:00 | |
| BIOWL7-15 | 2026-09-06 02:01:02 | 51.51505 | 6.99552 | 126° | 84km/h | 5218m | -11.4m/s | -5.4°C | 61.6% | 544.0hPa | 2.6V | 00:00:00 | 00:00:00 | 00:00:00 | |
| DM0DOS-11 | 2026-09-06 02:01:01 | 51.51576 | 6.99379 | 121° | 88km/h | 5288m | -11.3m/s | -5.7°C | 62.3% | 539.3hPa | 2.6V | 08:03:15 | 02:42:32 | 00:00:00 | |
| HTAHTA | 2026-09-06 02:00:56 | 51.51587 | 6.99349 | 121° | 86km/h | 5299m | -10.1m/s | -5.8°C | 61.8% | 538.5hPa | 2.6V | 00:00:00 | 00:00:00 | 00:00:00 | |
| DO1YAY-16 | 2026-09-06 02:00:54 | 51.51610 | 6.99290 | 121° | 86km/h | 5319m | -10.8m/s | -5.9°C | 62.2% | 537.2hPa | 2.6V | 00:00:00 | 00:00:00 | 00:00:00 | |
| DJ3KS | 2026-09-06 02:00:53 | 51.51599 | 6.99320 | 123° | 86km/h | 5309m | -10.6m/s | -5.9°C | 62.1% | 537.7hPa | 2.6V | 00:00:00 | 00:00:00 | 00:00:00 | |
| DM0DOS-11 | 2026-09-06 02:00:51 | 51.51690 | 6.99081 | 120° | 84km/h | 5400m | -11.6m/s | -6.3°C | 59.1% | 531.5hPa | 2.6V | 08:03:25 | 02:42:22 | 00:00:00 | |
| BIOWL1-15 | 2026-09-06 02:00:51 | 51.51656 | 6.99170 | 122° | 86km/h | 5365m | -10.5m/s | -6.2°C | 69% | 533.9hPa | 2.6V | 08:03:26 | 02:42:25 | 00:00:00 | |
| WPPR-10 | 2026-09-06 02:00:50 | 51.51644 | 6.99200 | 120° | 86km/h | 5354m | -11.4m/s | -6.1°C | 61.9% | 534.7hPa | 2.5V | 00:00:00 | 00:00:00 | 00:00:00 | |
| DH3RM | 2026-09-06 02:00:48 | 51.51656 | 6.99170 | 123° | 86km/h | 5365m | -10.5m/s | -6.2°C | 62.0% | 533.9hPa | 2.5V | 08:03:00 | 00:00:00 | 00:00:00 | |
| DO3DL | 2026-09-06 02:00:46 | 51.51678 | 6.99110 | 123° | 86km/h | 5389m | -11.7m/s | -6.2°C | 58.7% | 532.5hPa | 2.5V | 08:03:00 | 00:00:00 | 00:00:00 | |
| DD1CC1-15 | 2026-09-06 02:00:44 | 51.51701 | 6.99051 | 121° | 88km/h | 5411m | -10.6m/s | -6.3°C | 58.5% | 530.8hPa | 2.5V | 08:03:00 | 00:00:00 | 00:00:00 | |
| DL1CLM-18 | 2026-09-06 02:00:43 | 51.51712 | 6.99021 | 122° | 88km/h | 5422m | -12.3m/s | -6.4°C | 59.1% | 530.2hPa | 2.5V | 00:00:00 | 00:00:00 | 00:00:00 | |
| MET0W-2 | 2026-09-06 02:00:42 | 51.51735 | 6.98961 | 120° | 82km/h | 5446m | -11.5m/s | -6.6°C | 60.2% | 528.6hPa | 2.5V | 00:00:00 | 00:00:00 | 00:00:00 | |
| DM0DOS-11 | 2026-09-06 02:00:41 | 51.51801 | 6.98783 | 120° | 88km/h | 5514m | -10.5m/s | -7.2°C | 62% | 523.9hPa | 2.5V | 08:03:35 | 02:42:12 | 00:00:00 | |
| BIOWL1-15 | 2026-09-06 02:00:40 | 51.51768 | 6.98872 | 121° | 84km/h | 5481m | -11.5m/s | -6.9°C | 66.7% | 526.1hPa | 2.6V | 08:04:17 | 02:42:15 | 00:00:00 | |
| BIOWL1-15 | 2026-09-06 02:00:32 | 51.51886 | 6.98541 | 120° | 86km/h | 5599m | -11.1m/s | -7.9°C | 69.2% | 518.2hPa | 2.6V | 08:04:17 | 02:42:04 | 00:00:00 | |
| DM0DOS-11 | 2026-09-06 02:00:31 | 51.51907 | 6.98480 | 118° | 86km/h | 5621m | -11.2m/s | -8°C | 62.5% | 516.7hPa | 2.6V | 08:03:45 | 02:42:02 | 00:00:00 | |
| DO9LL-15 | 2026-09-06 02:00:30 | 51.51865 | 6.98602 | 121° | 86km/h | 5577m | -10.7m/s | -7.7°C | 62.6% | 519.6hPa | 2.6V | 00:00:00 | 02:42:06 | 00:00:00 | |
| DH3RM | 2026-09-06 02:00:29 | 51.51865 | 6.98602 | 121° | 86km/h | 5577m | -10.7m/s | -7.7°C | 61.7% | 519.6hPa | 2.6V | 08:04:00 | 00:00:00 | 00:00:00 | |
| DO3DL | 2026-09-06 02:00:28 | 51.51886 | 6.98541 | 121° | 86km/h | 5599m | -11.1m/s | -7.9°C | 62.4% | 518.2hPa | 2.6V | 08:04:00 | 00:00:00 | 00:00:00 | |
| DJ2DS-15 | 2026-09-06 02:00:27 | 51.51907 | 6.98480 | 118° | 84km/h | 5621m | -11.2m/s | -8.0°C | 61.6% | 516.7hPa | 2.6V | 00:00:00 | 00:00:00 | 00:00:00 | |
| HTAHTA | 2026-09-06 02:00:25 | 51.51928 | 6.98419 | 118° | 86km/h | 5643m | -11.7m/s | -8.1°C | 58.2% | 515.3hPa | 2.6V | 00:00:00 | 00:00:00 | 00:00:00 | |
| DO1YAY-16 | 2026-09-06 02:00:23 | 51.51948 | 6.98357 | 117° | 86km/h | 5666m | -11.5m/s | -8.1°C | 42.8% | 513.8hPa | 2.6V | 00:00:00 | 00:00:00 | 00:00:00 | |
| DM0DOS-11 | 2026-09-06 02:00:21 | 51.52009 | 6.98171 | 117° | 88km/h | 5731m | -10.9m/s | -8.6°C | 49.3% | 509.5hPa | 2.6V | 08:03:55 | 02:41:52 | 00:00:00 | |
| BIOWL1-15 | 2026-09-06 02:00:20 | 51.51989 | 6.98233 | 117° | 88km/h | 5710m | -10.7m/s | -8.4°C | 54.7% | 510.9hPa | 2.5V | 08:04:17 | 02:41:54 | 00:00:00 | |
| WPPR-10 | 2026-09-06 02:00:19 | 51.51978 | 6.98264 | 118° | 86km/h | 5699m | -11.1m/s | -8.3°C | 45.5% | 511.7hPa | 2.5V | 00:00:00 | 00:00:00 | 00:00:00 | |
| DO2KSM | 2026-09-06 02:00:18 | 51.51978 | 6.98264 | 120° | 86km/h | 5699m | -11.1m/s | -8.3°C | 45.5% | 511.7hPa | 2.5V | 08:04:00 | 00:00:00 | 00:00:00 | |
| DD1CC9-15 | 2026-09-06 02:00:17 | 51.51988 | 6.98233 | 118° | 88km/h | 5710m | -10.7m/s | -8.4°C | 47.4% | 510.9hPa | 2.5V | 08:04:00 | 00:00:00 | 00:00:00 | |
| DH3RM | 2026-09-06 02:00:16 | 51.51999 | 6.98202 | 120° | 86km/h | 5721m | -10.9m/s | -8.5°C | 47.9% | 510.2hPa | 2.5V | 08:04:00 | 00:00:00 | 00:00:00 | |
| DJ3KS | 2026-09-06 02:00:14 | 51.52019 | 6.98139 | 120° | 88km/h | 5742m | -11.4m/s | -8.7°C | 48.7% | 508.7hPa | 2.5V | 00:00:00 | 00:00:00 | 00:00:00 | |
| DO3DL | 2026-09-06 02:00:13 | 51.52030 | 6.98108 | 118° | 86km/h | 5754m | -11.1m/s | -8.8°C | 49.2% | 508.2hPa | 2.5V | 08:04:00 | 00:00:00 | 00:00:00 | |
| DC6BW-12 | 2026-09-06 02:00:12 | 51.52040 | 6.98077 | 119° | 88km/h | 5765m | -11.3m/s | -8.9°C | 50.0% | 507.4hPa | 2.5V | 00:00:00 | 00:00:00 | 00:00:00 | |
| DM0DOS-11 | 2026-09-06 02:00:11 | 51.52110 | 6.97858 | 117° | 86km/h | 5839m | -11.7m/s | -9.4°C | 45.9% | 502.5hPa | 2.5V | 08:04:05 | 02:41:42 | 00:00:00 | |
| BIOWL1-15 | 2026-09-06 02:00:07 | 51.52100 | 6.97888 | 117° | 84km/h | 5828m | -10.6m/s | -9.3°C | 51.9% | 503.1hPa | 2.5V | 08:04:17 | 02:41:43 | 00:00:00 | |
| DB0UT-7 | 2026-09-06 02:00:07 | 51.52100 | 6.97888 | 117° | 86km/h | 5828m | -10.6m/s | -9.3°C | 45.7% | 503.0hPa | 2.5V | 00:00:00 | 02:41:43 | 00:00:00 | |
| DO3DL | 2026-09-06 02:00:06 | 51.52100 | 6.97888 | 118° | 84km/h | 5828m | -10.6m/s | -9.3°C | 44.8% | 503.1hPa | 2.6V | 08:04:00 | 00:00:00 | 00:00:00 | |
| DH3RM | 2026-09-06 02:00:03 | 51.52130 | 6.97795 | 117° | 88km/h | 5860m | -11.0m/s | -9.6°C | 45.0% | 501.0hPa | 2.6V | 08:04:00 | 00:00:00 | 00:00:00 | |
| DD1CC1-15 | 2026-09-06 02:00:02 | 51.52139 | 6.97763 | 117° | 88km/h | 5871m | -10.6m/s | -9.7°C | 45.8% | 500.3hPa | 2.6V | 08:04:00 | 00:00:00 | 00:00:00 | |
| DM0DOS-11 | 2026-09-06 02:00:01 | 51.52206 | 6.97543 | 116° | 86km/h | 5945m | -11.5m/s | -10.2°C | 49.5% | 495.5hPa | 2.6V | 08:04:15 | 02:41:32 | 00:00:00 | |
| BIOWL1-15 | 2026-09-06 01:59:58 | 51.52206 | 6.97543 | 117° | 86km/h | 5945m | -11.5m/s | -10.2°C | 55.5% | 495.5hPa | 2.6V | 08:04:17 | 02:41:32 | 00:00:00 | |
| DL1ZP-14 | 2026-09-06 01:59:57 | 51.52206 | 6.97543 | 116° | 84km/h | 5945m | -11.5m/s | -10.2°C | 48.5% | 495.5hPa | 2.6V | 00:00:00 | 00:00:00 | 00:00:00 | |
| HTAHTA | 2026-09-06 01:59:54 | 51.52236 | 6.97448 | 116° | 88km/h | 5976m | -10.6m/s | -10.5°C | 49.7% | 493.4hPa | 2.6V | 00:00:00 | 00:00:00 | 00:00:00 | |
| DO1YAY-16 | 2026-09-06 01:59:52 | 51.52255 | 6.97385 | 115° | 84km/h | 5998m | -10.9m/s | -10.7°C | 52.8% | 492.1hPa | 2.6V | 00:00:00 | 00:00:00 | 00:00:00 | |
| DM0DOS-11 | 2026-09-06 01:59:51 | 51.52302 | 6.97227 | 115° | 88km/h | 6051m | -9.7m/s | -11.1°C | 56.8% | 488.8hPa | 2.6V | 08:04:25 | 02:41:22 | 00:00:00 | |
| BIOWL1-15 | 2026-09-06 01:59:45 | 51.52311 | 6.97195 | 115° | 84km/h | 6061m | -10m/s | -11.2°C | 62.9% | 488.1hPa | 2.6V | 08:05:08 | 02:41:21 | 00:00:00 | |
| DH3RM | 2026-09-06 01:59:44 | 51.52311 | 6.97195 | 116° | 84km/h | 6061m | -10.0m/s | -11.2°C | 56.8% | 488.1hPa | 2.5V | 08:05:00 | 00:00:00 | 00:00:00 | |
| DD1CC1-15 | 2026-09-06 01:59:42 | 51.52330 | 6.97132 | 116° | 86km/h | 6083m | -11.9m/s | -11.3°C | 56.8% | 486.9hPa | 2.5V | 08:05:00 | 00:00:00 | 00:00:00 | |
| DM0DOS-11 | 2026-09-06 01:59:41 | 51.52396 | 6.96915 | 116° | 82km/h | 6164m | -14m/s | -11.9°C | 56.7% | 481.8hPa | 2.5V | 08:04:35 | 02:41:12 | 00:00:00 | |
| BIOWL1-15 | 2026-09-06 01:59:34 | 51.52415 | 6.96854 | 117° | 84km/h | 6189m | -11.4m/s | -12.1°C | 58.7% | 480.1hPa | 2.5V | 08:05:08 | 02:41:10 | 00:00:00 | |
| DO3DL | 2026-09-06 01:59:33 | 51.52415 | 6.96854 | 118° | 84km/h | 6189m | -11.4m/s | -12.1°C | 53.3% | 480.1hPa | 2.6V | 08:05:00 | 00:00:00 | 00:00:00 | |
| DM0DOS-11 | 2026-09-06 01:59:31 | 51.52497 | 6.96617 | 120° | 80km/h | 6270m | -11.5m/s | -12.6°C | 49.4% | 475.1hPa | 2.6V | 08:04:45 | 02:41:02 | 00:00:00 | |
| BIOWL1-15 | 2026-09-06 01:59:26 | 51.52520 | 6.96560 | 122° | 82km/h | 6294m | -11.3m/s | -12.4°C | 47.6% | 473.7hPa | 2.6V | 08:05:08 | 02:41:00 | 00:00:00 | |
| DH3RM | 2026-09-06 01:59:24 | 51.52508 | 6.96588 | 123° | 86km/h | 6282m | -12.0m/s | -12.5°C | 43.3% | 474.4hPa | 2.5V | 08:05:00 | 00:00:00 | 00:00:00 | |
| DL1CLM-18 | 2026-09-06 01:59:22 | 51.52531 | 6.96531 | 124° | 84km/h | 6305m | -11.6m/s | -12.4°C | 45.1% | 472.9hPa | 2.5V | 00:00:00 | 00:00:00 | 00:00:00 | |
| DM0DOS-11 | 2026-09-06 01:59:21 | 51.52613 | 6.96332 | 123° | 84km/h | 6391m | -10.8m/s | -13°C | 54.3% | 467.6hPa | 2.5V | 08:04:55 | 02:40:52 | 00:00:00 | |
| BIOWL1-15 | 2026-09-06 01:59:13 | 51.52648 | 6.96247 | 124° | 84km/h | 6420m | -8.2m/s | -13.2°C | 59.4% | 465.7hPa | 2.5V | 08:05:08 | 02:40:49 | 00:00:00 | |
| BIOWL1-15 | 2026-09-06 01:59:02 | 51.52774 | 6.95938 | 123° | 82km/h | 6509m | -8.1m/s | -13.9°C | 60.1% | 460.3hPa | 2.5V | 08:05:59 | 02:40:38 | 00:00:00 | |
| BIOWL9-15 | 2026-09-06 01:58:59 | 51.52818 | 6.95826 | 122° | 82km/h | 6541m | -8.2m/s | -14.1°C | 51.8% | 458.4hPa | 2.6V | 00:00:00 | 00:00:00 | 00:00:00 | |
| DB0ND-19 | 2026-09-06 01:58:57 | 51.52830 | 6.95798 | 122° | 82km/h | 6549m | -8.0m/s | -14.2°C | 51.6% | 457.9hPa | 2.6V | 00:00:00 | 00:00:00 | 00:00:00 | |
| DL1ZP-14 | 2026-09-06 01:58:55 | 51.52864 | 6.95713 | 123° | 82km/h | 6573m | -8.0m/s | -14.4°C | 52.9% | 456.4hPa | 2.6V | 00:00:00 | 00:00:00 | 00:00:00 | |
| HTAHTA | 2026-09-06 01:58:52 | 51.52910 | 6.95599 | 123° | 82km/h | 6605m | -8.0m/s | -14.6°C | 52.6% | 454.5hPa | 2.5V | 00:00:00 | 00:00:00 | 00:00:00 | |
| DM0DOS-11 | 2026-09-06 01:58:51 | 51.52956 | 6.95485 | 122° | 84km/h | 6637m | -7.8m/s | -14.9°C | 53.2% | 452.6hPa | 2.5V | 08:05:25 | 02:40:22 | 00:00:00 | |
| BIOWL1-15 | 2026-09-06 01:58:51 | 51.52899 | 6.95627 | 123° | 84km/h | 6597m | -8m/s | -14.6°C | 58.4% | 455hPa | 2.5V | 08:05:59 | 02:40:27 | 00:00:00 | |
| AU51GT2 | 2026-09-06 01:58:50 | 51.52910 | 6.95599 | 123° | 82km/h | 6605m | -8.0m/s | -14.6°C | 52.6% | 454.5hPa | 2.6V | 00:00:00 | 00:00:00 | 00:00:00 | |
| DO1YAY-16 | 2026-09-06 01:58:49 | 51.52922 | 6.95571 | 122° | 82km/h | 6613m | -8.2m/s | -14.7°C | 52.7% | 454.1hPa | 2.6V | 00:00:00 | 00:00:00 | 00:00:00 | |
| WPPR-10 | 2026-09-06 01:58:46 | 51.52956 | 6.95485 | 122° | 82km/h | 6637m | -7.8m/s | -14.9°C | 51.9% | 452.6hPa | 2.6V | 00:00:00 | 00:00:00 | 00:00:00 | |
| DH3RM | 2026-09-06 01:58:44 | 51.52967 | 6.95456 | 123° | 84km/h | 6645m | -8.0m/s | -15.0°C | 52.0% | 452.1hPa | 2.6V | 08:05:00 | 00:00:00 | 00:00:00 | |
| DM0DOS-11 | 2026-09-06 01:58:41 | 51.53072 | 6.95194 | 122° | 86km/h | 6717m | -8m/s | -15.4°C | 49.8% | 447.8hPa | 2.6V | 08:05:35 | 02:40:12 | 00:00:00 | |
| DO2JMG | 2026-09-06 01:58:41 | 51.53014 | 6.95340 | 123° | 86km/h | 6677m | -8m/s | -15.2°C | 57.7% | 450.3hPa | 2.5V | 08:05:59 | 02:40:17 | 00:00:00 | |
| BIOWL1-15 | 2026-09-06 01:58:40 | 51.53026 | 6.95311 | 122° | 86km/h | 6685m | -7.9m/s | -15.2°C | 57.4% | 449.8hPa | 2.5V | 08:05:59 | 02:40:16 | 00:00:00 | |
| DO3DL | 2026-09-06 01:58:39 | 51.53025 | 6.95311 | 123° | 86km/h | 6685m | -7.9m/s | -15.2°C | 52.1% | 449.8hPa | 2.6V | 08:05:00 | 00:00:00 | 00:00:00 | |
| DL3AQ-11 | 2026-09-06 01:58:38 | 51.53060 | 6.95223 | 122° | 84km/h | 6709m | -8.1m/s | -15.4°C | 48.7% | 448.3hPa | 2.6V | 00:00:00 | 00:00:00 | 00:00:00 | |
| DB0UT-7 | 2026-09-06 01:58:37 | 51.53060 | 6.95223 | 123° | 88km/h | 6709m | -8.0m/s | -15.3°C | 50.1% | 448.3hPa | 2.6V | 08:05:00 | 00:00:00 | 00:00:00 | |
| DO2KSM | 2026-09-06 01:58:34 | 51.53083 | 6.95164 | 124° | 86km/h | 6725m | -8.0m/s | -15.5°C | 48.0% | 447.3hPa | 2.6V | 08:05:00 | 00:00:00 | 00:00:00 | |
| DD1CC9-15 | 2026-09-06 01:58:33 | 51.53095 | 6.95135 | 124° | 86km/h | 6733m | -7.9m/s | -15.5°C | 47.7% | 447.0hPa | 2.6V | 08:05:00 | 00:00:00 | 00:00:00 | |
| DO3DL | 2026-09-06 01:58:32 | 51.53107 | 6.95105 | 124° | 88km/h | 6741m | -7.9m/s | -15.6°C | 47.9% | 446.5hPa | 2.6V | 08:05:00 | 00:00:00 | 00:00:00 | |
| DM0DOS-11 | 2026-09-06 01:58:31 | 51.53191 | 6.94899 | 123° | 88km/h | 6796m | -8.1m/s | -16°C | 50.7% | 443.1hPa | 2.6V | 08:05:45 | 02:40:02 | 00:00:00 | |
| BIOWL1-15 | 2026-09-06 01:58:30 | 51.53143 | 6.95017 | 123° | 88km/h | 6764m | -8m/s | -15.8°C | 55.2% | 445hPa | 2.6V | 08:05:59 | 02:40:06 | 00:00:00 | |
| DL1XH-west | 2026-09-06 01:58:29 | 51.53155 | 6.94988 | 123° | 88km/h | 6773m | -8.1m/s | -15.9°C | 55.3% | 444.5hPa | 2.5V | 08:05:59 | 02:40:05 | 00:00:00 | |
| BIOWL9-15 | 2026-09-06 01:58:28 | 51.53179 | 6.94929 | 123° | 86km/h | 6789m | -7.9m/s | -16.0°C | 49.6% | 443.5hPa | 2.5V | 00:00:00 | 00:00:00 | 00:00:00 | |
| DB0ND-19 | 2026-09-06 01:58:26 | 51.53191 | 6.94899 | 123° | 88km/h | 6796m | -8.1m/s | -16.0°C | 49.4% | 443.1hPa | 2.5V | 00:00:00 | 00:00:00 | 00:00:00 | |
| DH3RM | 2026-09-06 01:58:24 | 51.53203 | 6.94869 | 124° | 88km/h | 6804m | -7.9m/s | -16.1°C | 49.2% | 442.6hPa | 2.5V | 08:05:00 | 00:00:00 | 00:00:00 | |
| DL1CLM-18 | 2026-09-06 01:58:23 | 51.53215 | 6.94839 | 124° | 88km/h | 6812m | -8.0m/s | -16.1°C | 48.0% | 442.2hPa | 2.5V | 08:05:00 | 00:00:00 | 00:00:00 | |
| DM0DOS-11 | 2026-09-06 01:58:21 | 51.53310 | 6.94601 | 122° | 88km/h | 6876m | -8m/s | -16.7°C | 47.3% | 438.5hPa | 2.5V | 08:05:55 | 02:39:52 | 00:00:00 | |
| BIOWL1-15 | 2026-09-06 01:58:19 | 51.53275 | 6.94690 | 123° | 88km/h | 6852m | -8.2m/s | -16.5°C | 51.4% | 439.9hPa | 2.6V | 08:05:59 | 02:39:55 | 00:00:00 | |
| DL1XH-west | 2026-09-06 01:58:18 | 51.53287 | 6.94660 | 123° | 86km/h | 6860m | -7.9m/s | -16.5°C | 51.3% | 439.4hPa | 2.6V | 08:05:59 | 02:39:54 | 00:00:00 | |
| DH3RM | 2026-09-06 01:58:17 | 51.53287 | 6.94660 | 124° | 86km/h | 6860m | -7.9m/s | -16.5°C | 46.1% | 439.4hPa | 2.6V | 08:05:00 | 00:00:00 | 00:00:00 | |
| WPPR-10 | 2026-09-06 01:58:15 | 51.53335 | 6.94542 | 123° | 88km/h | 6892m | -8.2m/s | -16.8°C | 46.4% | 437.6hPa | 2.6V | 00:00:00 | 00:00:00 | 00:00:00 | |
| DD1CC9-15 | 2026-09-06 01:58:13 | 51.53335 | 6.94542 | 124° | 88km/h | 6892m | -8.2m/s | -16.8°C | 46.4% | 437.6hPa | 2.6V | 08:05:00 | 00:00:00 | 00:00:00 | |
| WEDDY | 2026-09-06 01:58:12 | 51.53347 | 6.94512 | 125° | 88km/h | 6900m | -8.1m/s | -16.9°C | 47.1% | 437.1hPa | 2.6V | 08:05:00 | 00:00:00 | 00:00:00 | |
| DM0DOS-11 | 2026-09-06 01:58:11 | 51.53433 | 6.94300 | 122° | 89km/h | 6956m | -7.9m/s | -17.4°C | 53.9% | 433.9hPa | 2.6V | 08:06:05 | 02:39:42 | 00:00:00 | |
| BIOWL1-15 | 2026-09-06 01:58:10 | 51.53409 | 6.94361 | 123° | 89km/h | 6940m | -8.2m/s | -17.3°C | 56.9% | 434.8hPa | 2.6V | 08:06:50 | 02:39:44 | 00:00:00 | |
| DO2JMG | 2026-09-06 01:58:09 | 51.53397 | 6.94391 | 123° | 89km/h | 6932m | -7.8m/s | -17.2°C | 56.6% | 435.2hPa | 2.5V | 08:07:41 | 02:39:45 | 00:00:00 | |
| DL1XH-west | 2026-09-06 01:58:07 | 51.53421 | 6.94330 | 123° | 89km/h | 6948m | -8.3m/s | -17.3°C | 57% | 434.4hPa | 2.6V | 08:06:50 | 02:39:43 | 00:00:00 | |
| DB0UT-7 | 2026-09-06 01:58:07 | 51.53421 | 6.94330 | 123° | 88km/h | 6948m | -8.2m/s | -17.3°C | 54.1% | 434.3hPa | 2.6V | 00:00:00 | 02:39:43 | 00:00:00 | |
| DD1CC3-15 | 2026-09-06 01:58:06 | 51.53421 | 6.94330 | 124° | 89km/h | 6948m | -8.3m/s | -17.3°C | 52.6% | 434.4hPa | 2.6V | 08:06:00 | 00:00:00 | 00:00:00 | |
| DH3RM | 2026-09-06 01:58:04 | 51.53445 | 6.94269 | 123° | 89km/h | 6964m | -7.8m/s | -17.4°C | 51.6% | 433.3hPa | 2.6V | 08:06:00 | 00:00:00 | 00:00:00 | |
| DJ3KS | 2026-09-06 01:58:03 | 51.53458 | 6.94238 | 124° | 89km/h | 6971m | -7.8m/s | -17.5°C | 51.3% | 432.8hPa | 2.6V | 08:06:00 | 00:00:00 | 00:00:00 | |
| DJ2DS-15 | 2026-09-06 01:58:02 | 51.53482 | 6.94178 | 122° | 88km/h | 6988m | -8.1m/s | -17.6°C | 50.2% | 432.1hPa | 2.6V | 00:00:00 | 00:00:00 | 00:00:00 | |
| DM0DOS-11 | 2026-09-06 01:58:01 | 51.53555 | 6.93994 | 122° | 89km/h | 7036m | -8.1m/s | -17.8°C | 47.4% | 429.2hPa | 2.6V | 08:06:15 | 02:39:32 | 00:00:00 | |
| BIOWL1-15 | 2026-09-06 01:57:58 | 51.53531 | 6.94055 | 122° | 89km/h | 7020m | -8.2m/s | -17.6°C | 50.7% | 430.2hPa | 2.5V | 08:06:50 | 02:39:34 | 00:00:00 | |
| BIOWL9-15 | 2026-09-06 01:57:57 | 51.53555 | 6.93994 | 122° | 88km/h | 7036m | -8.1m/s | -17.8°C | 46.0% | 429.2hPa | 2.5V | 00:00:00 | 00:00:00 | 00:00:00 | |
| DL1XH-west | 2026-09-06 01:57:57 | 51.53543 | 6.94025 | 123° | 89km/h | 7028m | -8.1m/s | -17.7°C | 50.8% | 429.7hPa | 2.5V | 08:06:50 | 02:39:33 | 00:00:00 | |
| DB0ND-19 | 2026-09-06 01:57:55 | 51.53567 | 6.93964 | 122° | 88km/h | 7044m | -7.9m/s | -17.8°C | 45.7% | 428.7hPa | 2.5V | 00:00:00 | 00:00:00 | 00:00:00 | |
| DL1ZP-14 | 2026-09-06 01:57:52 | 51.53603 | 6.93874 | 122° | 88km/h | 7068m | -8.0m/s | -17.7°C | 33.6% | 427.4hPa | 2.5V | 00:00:00 | 00:00:00 | 00:00:00 | |
| DM0DOS-11 | 2026-09-06 01:57:51 | 51.53674 | 6.93696 | 122° | 86km/h | 7117m | -8.2m/s | -18.1°C | 39.3% | 424.7hPa | 2.4V | 08:06:25 | 02:39:22 | 00:00:00 | |
| DO2JMG | 2026-09-06 01:57:48 | 51.53651 | 6.93754 | 123° | 86km/h | 7101m | -8.3m/s | -17.9°C | 40.6% | 425.6hPa | 2.6V | 08:07:41 | 02:39:24 | 00:00:00 | |
| DL1XH-west | 2026-09-06 01:57:46 | 51.53674 | 6.93696 | 123° | 86km/h | 7117m | -8.2m/s | -18.1°C | 43.3% | 424.7hPa | 2.4V | 08:06:50 | 02:39:22 | 00:00:00 | |
| DH3RM | 2026-09-06 01:57:43 | 51.53698 | 6.93638 | 124° | 86km/h | 7134m | -8.3m/s | -18.2°C | 38.4% | 423.7hPa | 2.5V | 08:06:00 | 00:00:00 | 00:00:00 | |
| DJ3KS | 2026-09-06 01:57:42 | 51.53709 | 6.93608 | 124° | 86km/h | 7142m | -8.4m/s | -18.3°C | 38.7% | 423.2hPa | 2.5V | 08:06:00 | 00:00:00 | 00:00:00 | |
| DM0DOS-11 | 2026-09-06 01:57:41 | 51.53791 | 6.93403 | 122° | 86km/h | 7200m | -8.1m/s | -18.8°C | 41.7% | 420hPa | 2.5V | 08:06:35 | 02:39:12 | 00:00:00 | |
| DO2JMG | 2026-09-06 01:57:37 | 51.53779 | 6.93432 | 122° | 86km/h | 7191m | -8.3m/s | -18.7°C | 45.1% | 420.4hPa | 2.6V | 08:07:41 | 02:39:13 | 00:00:00 | |
| DL1XH-west | 2026-09-06 01:57:36 | 51.53790 | 6.93403 | 122° | 86km/h | 7200m | -8.1m/s | -18.8°C | 45.4% | 420hPa | 2.5V | 08:06:50 | 02:39:12 | 00:00:00 | |
| MET0W-2 | 2026-09-06 01:57:36 | 51.53814 | 6.93344 | 123° | 86km/h | 7216m | -7.8m/s | -18.9°C | 39.3% | 419.0hPa | 2.6V | 00:00:00 | 00:00:00 | 00:00:00 | |
| DO3DL | 2026-09-06 01:57:34 | 51.53814 | 6.93344 | 124° | 86km/h | 7216m | -7.8m/s | -18.9°C | 39.3% | 419.0hPa | 2.6V | 08:06:00 | 00:00:00 | 00:00:00 | |
| DO2KSM | 2026-09-06 01:57:33 | 51.53814 | 6.93344 | 124° | 86km/h | 7216m | -7.8m/s | -18.9°C | 39.3% | 419.0hPa | 2.6V | 08:06:00 | 00:00:00 | 00:00:00 | |
| DD1CC9-15 | 2026-09-06 01:57:32 | 51.53826 | 6.93314 | 124° | 88km/h | 7224m | -8.2m/s | -19.0°C | 38.4% | 418.6hPa | 2.6V | 08:06:00 | 00:00:00 | 00:00:00 | |
| DM0DOS-11 | 2026-09-06 01:57:31 | 51.53908 | 6.93108 | 121° | 86km/h | 7282m | -8.3m/s | -19.5°C | 39.4% | 415.4hPa | 2.6V | 08:06:45 | 02:39:02 | 00:00:00 | |
| DO2JMG | 2026-09-06 01:57:27 | 51.53897 | 6.93138 | 122° | 86km/h | 7273m | -8.3m/s | -19.4°C | 43.2% | 415.9hPa | 2.4V | 08:07:41 | 02:39:03 | 00:00:00 | |
| DL1XH-west | 2026-09-06 01:57:26 | 51.53908 | 6.93108 | 122° | 86km/h | 7282m | -8.3m/s | -19.5°C | 42.9% | 415.4hPa | 2.6V | 08:06:50 | 02:39:02 | 00:00:00 | |
| DD1CC3-15 | 2026-09-06 01:57:25 | 51.53908 | 6.93108 | 123° | 86km/h | 7282m | -8.3m/s | -19.5°C | 38.0% | 415.4hPa | 2.6V | 08:06:00 | 00:00:00 | 00:00:00 | |
| BUE01 | 2026-09-06 01:57:24 | 51.53931 | 6.93047 | 121° | 88km/h | 7298m | -8.1m/s | -19.6°C | 37.5% | 414.5hPa | 2.6V | 00:00:00 | 00:00:00 | 00:00:00 | |
| DH3RM | 2026-09-06 01:57:23 | 51.53931 | 6.93047 | 122° | 89km/h | 7298m | -8.1m/s | -19.6°C | 37.5% | 414.5hPa | 2.6V | 08:06:00 | 00:00:00 | 00:00:00 | |
| DM0DOS-11 | 2026-09-06 01:57:21 | 51.54029 | 6.92792 | 122° | 93km/h | 7363m | -7.9m/s | -20.2°C | 38.7% | 410.9hPa | 2.6V | 08:06:55 | 02:38:52 | 00:00:00 | |
| DO2JMG | 2026-09-06 01:57:16 | 51.54030 | 6.92792 | 122° | 93km/h | 7363m | -7.9m/s | -20.2°C | 42% | 410.9hPa | 2.6V | 08:07:41 | 02:38:52 | 00:00:00 | |
| DL1XH-west | 2026-09-06 01:57:15 | 51.54042 | 6.92760 | 122° | 95km/h | 7371m | -8.3m/s | -20.3°C | 42.1% | 410.4hPa | 2.6V | 08:07:41 | 02:38:51 | 00:00:00 | |
| WPPR-10 | 2026-09-06 01:57:13 | 51.54081 | 6.92662 | 121° | 95km/h | 7395m | -8.1m/s | -20.5°C | 32.8% | 409.1hPa | 2.5V | 00:00:00 | 00:00:00 | 00:00:00 | |
| DM0DOS-11 | 2026-09-06 01:57:11 | 51.54159 | 6.92457 | 121° | 100km/h | 7446m | -8.8m/s | -20.8°C | 26.8% | 406.2hPa | 2.5V | 08:07:05 | 02:38:42 | 00:00:00 | |
| BIOWL1-15 | 2026-09-06 01:57:07 | 51.54173 | 6.92423 | 122° | 100km/h | 7455m | -8.9m/s | -20.8°C | 29.2% | 405.7hPa | 2.6V | 08:07:41 | 02:38:41 | 00:00:00 | |
| DO2JMG | 2026-09-06 01:57:06 | 51.54159 | 6.92457 | 122° | 100km/h | 7447m | -8.8m/s | -20.8°C | 30.3% | 406.2hPa | 2.5V | 08:07:41 | 02:38:42 | 00:00:00 | |
| DL1XH-west | 2026-09-06 01:57:04 | 51.54186 | 6.92388 | 122° | 100km/h | 7464m | -8.6m/s | -20.9°C | 28.5% | 405.3hPa | 2.5V | 08:07:41 | 02:38:40 | 00:00:00 | |
| DM0DOS-11 | 2026-09-06 01:57:01 | 51.54296 | 6.92110 | 122° | 104km/h | 7532m | -8.5m/s | -21.5°C | 23.7% | 401.6hPa | 2.6V | 08:07:15 | 02:38:32 | 00:00:00 | |
| BIOWL1-15 | 2026-09-06 01:56:55 | 51.54310 | 6.92074 | 122° | 104km/h | 7540m | -8.5m/s | -21.6°C | 26.1% | 401hPa | 2.4V | 08:07:41 | 02:38:31 | 00:00:00 | |
| DL1XH-west | 2026-09-06 01:56:53 | 51.54339 | 6.92002 | 123° | 106km/h | 7558m | -8.6m/s | -21.7°C | 26.3% | 400.1hPa | 2.4V | 08:07:41 | 02:38:29 | 00:00:00 | |
| DL1ZP-14 | 2026-09-06 01:56:51 | 51.54381 | 6.91894 | 121° | 104km/h | 7582m | -8.3m/s | -22.0°C | 22.1% | 398.7hPa | 2.5V | 00:00:00 | 00:00:00 | 00:00:00 | |
| DJ2DS-15 | 2026-09-06 01:56:50 | 51.54381 | 6.91894 | 121° | 104km/h | 7582m | -8.3m/s | -22.0°C | 22.1% | 398.7hPa | 2.4V | 00:00:00 | 00:00:00 | 00:00:00 | |
| DD1CC8 | 2026-09-06 01:56:48 | 51.54424 | 6.91784 | 121° | 104km/h | 7608m | -8.4m/s | -22.2°C | 22.4% | 397.4hPa | 2.4V | 00:00:00 | 00:00:00 | 00:00:00 | |
| AU51GT2 | 2026-09-06 01:56:46 | 51.54437 | 6.91748 | 121° | 104km/h | 7616m | -8.5m/s | -22.3°C | 22.4% | 397.0hPa | 2.4V | 00:00:00 | 00:00:00 | 00:00:00 | |
| DO1YAY-16 | 2026-09-06 01:56:45 | 51.54451 | 6.91711 | 120° | 104km/h | 7625m | -8.6m/s | -22.3°C | 22.5% | 396.5hPa | 2.4V | 00:00:00 | 00:00:00 | 00:00:00 | |
| BIOWL1-15 | 2026-09-06 01:56:44 | 51.54465 | 6.91674 | 121° | 106km/h | 7634m | -8.7m/s | -22.4°C | 27.2% | 396hPa | 2.4V | 08:07:41 | 02:38:20 | 00:00:00 | |
| DL1XH-west | 2026-09-06 01:56:42 | 51.54492 | 6.91600 | 120° | 106km/h | 7651m | -8.6m/s | -22.5°C | 27.2% | 395.1hPa | 2.5V | 08:07:41 | 02:38:18 | 00:00:00 | |
| WPPR-10 | 2026-09-06 01:56:42 | 51.54506 | 6.91562 | 119° | 106km/h | 7659m | -8.6m/s | -22.5°C | 22.0% | 394.6hPa | 2.4V | 00:00:00 | 00:00:00 | 00:00:00 | |
| GOEST3-10 | 2026-09-06 01:56:41 | 51.54506 | 6.91562 | 120° | 108km/h | 7659m | -8.6m/s | -22.5°C | 23.2% | 394.6hPa | 2.4V | 00:00:00 | 02:38:17 | 00:00:00 | |
| DO3DL | 2026-09-06 01:56:40 | 51.54506 | 6.91562 | 121° | 108km/h | 7659m | -8.6m/s | -22.5°C | 22.0% | 394.6hPa | 2.4V | 08:07:00 | 00:00:00 | 00:00:00 | |
| DM0DOS-11 | 2026-09-06 01:56:38 | 51.54573 | 6.91373 | 119° | 108km/h | 7703m | -8.7m/s | -22.8°C | 21.7% | 392.3hPa | 2.4V | 08:07:35 | 02:38:12 | 00:00:00 | |
| BIOWL1-15 | 2026-09-06 01:56:34 | 51.54599 | 6.91296 | 119° | 108km/h | 7720m | -8.5m/s | -23°C | 25.6% | 391.4hPa | 2.5V | 08:07:41 | 02:38:10 | 00:00:00 | |
| DO2JMG | 2026-09-06 01:56:33 | 51.54612 | 6.91258 | 119° | 110km/h | 7728m | -8.7m/s | -23°C | 25.7% | 390.9hPa | 2.4V | 08:07:41 | 02:38:09 | 00:00:00 | |
| DL1XH-west | 2026-09-06 01:56:31 | 51.54638 | 6.91179 | 118° | 110km/h | 7746m | -8.6m/s | -23.1°C | 25.2% | 390.1hPa | 2.5V | 08:07:41 | 02:38:07 | 00:00:00 | |
| BIOWL1-15 | 2026-09-06 01:56:23 | 51.54743 | 6.90862 | 118° | 110km/h | 7814m | -8.4m/s | -23.6°C | 24.9% | 386.4hPa | 2.4V | 08:08:32 | 02:37:59 | 00:00:00 | |
| DO2JMG | 2026-09-06 01:56:22 | 51.54756 | 6.90823 | 118° | 110km/h | 7823m | -8.6m/s | -23.7°C | 25% | 385.9hPa | 2.4V | 08:08:32 | 02:37:58 | 00:00:00 | |
| DL1XH-west | 2026-09-06 01:56:20 | 51.54782 | 6.90744 | 118° | 110km/h | 7840m | -8.7m/s | -23.8°C | 25.3% | 385.1hPa | 2.4V | 08:08:32 | 02:37:56 | 00:00:00 | |
| BIOWL1-15 | 2026-09-06 01:56:14 | 51.54885 | 6.90431 | 117° | 108km/h | 7910m | -8.8m/s | -24.4°C | 25.2% | 381.3hPa | 2.5V | 08:08:32 | 02:37:48 | 00:00:00 | |
| DO2JMG | 2026-09-06 01:56:11 | 51.54897 | 6.90392 | 117° | 108km/h | 7919m | -8.8m/s | -24.5°C | 25.1% | 380.9hPa | 2.5V | 08:08:32 | 02:37:47 | 00:00:00 | |
| DL1XH-west | 2026-09-06 01:56:09 | 51.54922 | 6.90315 | 117° | 108km/h | 7936m | -8.5m/s | -24.6°C | 24.7% | 380.1hPa | 2.4V | 08:08:32 | 02:37:45 | 00:00:00 | |
| DO3DL | 2026-09-06 01:56:07 | 51.54934 | 6.90276 | 118° | 108km/h | 7945m | -8.4m/s | -24.7°C | 19.8% | 379.6hPa | 2.4V | 08:08:00 | 00:00:00 | 00:00:00 | |
| GOEST3-10 | 2026-09-06 01:56:05 | 51.54971 | 6.90161 | 118° | 106km/h | 7971m | -8.4m/s | -24.9°C | 21.3% | 378.1hPa | 2.4V | 00:00:00 | 00:00:00 | 00:00:00 | |
| DH3RM | 2026-09-06 01:56:04 | 51.54971 | 6.90161 | 118° | 106km/h | 7971m | -8.5m/s | -25.0°C | 20.0% | 378.2hPa | 2.4V | 08:08:00 | 00:00:00 | 00:00:00 | |
| DD1CC3-15 | 2026-09-06 01:56:03 | 51.54984 | 6.90123 | 118° | 106km/h | 7979m | -8.5m/s | -25.1°C | 20.1% | 377.8hPa | 2.4V | 08:08:00 | 00:00:00 | 00:00:00 | |
| DM0DOS-11 | 2026-09-06 01:56:02 | 51.55079 | 6.89818 | 116° | 104km/h | 8048m | -8.4m/s | -25.7°C | 20.8% | 374.3hPa | 2.4V | 08:08:15 | 02:37:32 | 00:00:00 | |
| DO2JMG | 2026-09-06 01:56:01 | 51.55020 | 6.90008 | 117° | 106km/h | 8005m | -8.5m/s | -25.3°C | 24.8% | 376.4hPa | 2.4V | 08:08:32 | 02:37:37 | 00:00:00 | |
| DL1XH-west | 2026-09-06 01:55:58 | 51.55055 | 6.89894 | 117° | 104km/h | 8031m | -8.6m/s | -25.5°C | 24.2% | 375.1hPa | 2.4V | 08:08:32 | 02:37:34 | 00:00:00 | |
| BIOWL9-15 | 2026-09-06 01:55:52 | 51.55127 | 6.89669 | 117° | 102km/h | 8081m | -8.3m/s | -26.0°C | 19.5% | 372.4hPa | 2.5V | 00:00:00 | 00:00:00 | 00:00:00 | |
| DM0DOS-11 | 2026-09-06 01:55:51 | 51.55199 | 6.89447 | 117° | 102km/h | 8131m | -8m/s | -26.5°C | 19.4% | 369.9hPa | 2.5V | 08:08:25 | 02:37:22 | 00:00:00 | |
| BIOWL1-15 | 2026-09-06 01:55:51 | 51.55139 | 6.89632 | 117° | 102km/h | 8089m | -8.3m/s | -26.1°C | 23.5% | 372hPa | 2.4V | 08:08:32 | 02:37:27 | 00:00:00 | |
| DO2JMG | 2026-09-06 01:55:50 | 51.55151 | 6.89595 | 118° | 102km/h | 8098m | -8.4m/s | -26.2°C | 23.1% | 371.7hPa | 2.4V | 08:08:32 | 02:37:26 | 00:00:00 | |
| DL1XH-west | 2026-09-06 01:55:47 | 51.55187 | 6.89484 | 118° | 102km/h | 8123m | -8.6m/s | -26.4°C | 23% | 370.4hPa | 2.5V | 08:08:32 | 02:37:23 | 00:00:00 | |
| DL3AQ-11 | 2026-09-06 01:55:45 | 51.55223 | 6.89374 | 117° | 100km/h | 8147m | -8.2m/s | -26.6°C | 17.6% | 369.1hPa | 2.4V | 00:00:00 | 00:00:00 | 00:00:00 | |
| GOEST3-10 | 2026-09-06 01:55:44 | 51.55223 | 6.89373 | 118° | 102km/h | 8148m | -8.2m/s | -26.6°C | 18.9% | 369.0hPa | 2.4V | 00:00:00 | 00:00:00 | 00:00:00 | |
| DO1YAY-16 | 2026-09-06 01:55:43 | 51.55235 | 6.89337 | 116° | 100km/h | 8156m | -8.2m/s | -26.7°C | 17.9% | 368.7hPa | 2.5V | 00:00:00 | 00:00:00 | 00:00:00 | |
| DD1CC3-15 | 2026-09-06 01:55:42 | 51.55235 | 6.89337 | 118° | 102km/h | 8156m | -8.2m/s | -26.7°C | 17.9% | 368.7hPa | 2.5V | 08:08:00 | 00:00:00 | 00:00:00 | |
| DM0DOS-11 | 2026-09-06 01:55:41 | 51.55316 | 6.89081 | 117° | 100km/h | 8213m | -8.2m/s | -27.1°C | 21.7% | 365.8hPa | 2.5V | 08:08:35 | 02:37:12 | 00:00:00 | |
| BIOWL1-15 | 2026-09-06 01:55:40 | 51.55270 | 6.89227 | 117° | 100km/h | 8181m | -8.1m/s | -26.9°C | 23.6% | 367.4hPa | 2.4V | 08:08:32 | 02:37:16 | 00:00:00 | |
| DO2JMG | 2026-09-06 01:55:39 | 51.55281 | 6.89190 | 117° | 100km/h | 8188m | -8.2m/s | -27°C | 24.1% | 367hPa | 2.4V | 08:08:32 | 02:37:15 | 00:00:00 | |
| DL1XH-west | 2026-09-06 01:55:37 | 51.55304 | 6.89118 | 117° | 100km/h | 8205m | -8.1m/s | -27.1°C | 25.2% | 366.2hPa | 2.5V | 08:09:23 | 02:37:13 | 00:00:00 | |
| DB0UT-7 | 2026-09-06 01:55:37 | 51.55304 | 6.89118 | 118° | 99km/h | 8205m | -8.0m/s | -27.0°C | 22.0% | 366.2hPa | 2.5V | 00:00:00 | 00:00:00 | 00:00:00 | |
| DD1CC1-15 | 2026-09-06 01:55:35 | 51.55316 | 6.89081 | 118° | 100km/h | 8213m | -8.2m/s | -27.1°C | 20.2% | 365.8hPa | 2.4V | 08:09:00 | 00:00:00 | 00:00:00 | |
| DO3DL | 2026-09-06 01:55:34 | 51.55327 | 6.89045 | 118° | 100km/h | 8221m | -8.3m/s | -27.1°C | 20.0% | 365.3hPa | 2.4V | 08:09:00 | 00:00:00 | 00:00:00 | |
| GOEST3-10 | 2026-09-06 01:55:33 | 51.55351 | 6.88973 | 118° | 99km/h | 8238m | -8.2m/s | -27.2°C | 21.1% | 364.5hPa | 2.4V | 00:00:00 | 00:00:00 | 00:00:00 | |
| DM0DOS-11 | 2026-09-06 01:55:31 | 51.55428 | 6.88717 | 115° | 99km/h | 8296m | -8.6m/s | -27.7°C | 19.4% | 361.6hPa | 2.4V | 08:08:45 | 02:37:02 | 00:00:00 | |
| DO2JMG | 2026-09-06 01:55:28 | 51.55407 | 6.88790 | 115° | 100km/h | 8279m | -8.3m/s | -27.6°C | 23.1% | 362.4hPa | 2.5V | 08:09:23 | 02:37:04 | 00:00:00 | |
| DL1XH-west | 2026-09-06 01:55:27 | 51.55418 | 6.88753 | 116° | 99km/h | 8288m | -8.6m/s | -27.6°C | 22.8% | 362.1hPa | 2.4V | 08:09:23 | 02:37:03 | 00:00:00 | |
| BIOWL1-15 | 2026-09-06 01:55:21 | 51.55503 | 6.88465 | 116° | 97km/h | 8355m | -8.2m/s | -28.1°C | 21% | 358.6hPa | 2.4V | 08:09:23 | 02:36:55 | 00:00:00 | |
| DO2JMG | 2026-09-06 01:55:18 | 51.55514 | 6.88430 | 116° | 97km/h | 8363m | -8.2m/s | -28.1°C | 20.8% | 358.2hPa | 2.4V | 08:09:23 | 02:36:54 | 00:00:00 | |
| DM0DOS-11 | 2026-09-06 01:55:17 | 51.55536 | 6.88359 | 115° | 97km/h | 8380m | -8.5m/s | -28.2°C | 17.3% | 357.4hPa | 2.6V | 08:08:55 | 02:36:52 | 00:00:00 | |
| DL1XH-west | 2026-09-06 01:55:16 | 51.55536 | 6.88359 | 116° | 97km/h | 8380m | -8.5m/s | -28.2°C | 20.3% | 357.4hPa | 2.6V | 08:09:23 | 02:36:52 | 00:00:00 | |
| DD1CC1-15 | 2026-09-06 01:55:15 | 51.55536 | 6.88359 | 117° | 97km/h | 8380m | -8.5m/s | -28.2°C | 15.9% | 357.4hPa | 2.4V | 08:09:00 | 00:00:00 | 00:00:00 | |
| DO3DL | 2026-09-06 01:55:14 | 51.55546 | 6.88323 | 117° | 97km/h | 8388m | -8.4m/s | -28.2°C | 15.9% | 356.9hPa | 2.4V | 08:09:00 | 00:00:00 | 00:00:00 | |
| GOEST3-10 | 2026-09-06 01:55:13 | 51.55568 | 6.88253 | 116° | 97km/h | 8405m | -8.4m/s | -28.2°C | 17.2% | 356.1hPa | 2.4V | 00:00:00 | 02:36:49 | 00:00:00 | |
| DO1YAY-16 | 2026-09-06 01:55:12 | 51.55578 | 6.88218 | 116° | 95km/h | 8413m | -8.6m/s | -28.3°C | 15.9% | 355.7hPa | 2.4V | 00:00:00 | 00:00:00 | 00:00:00 | |
| DM0DOS-11 | 2026-09-06 01:55:11 | 51.55643 | 6.88008 | 116° | 97km/h | 8461m | -7.6m/s | -28.7°C | 18.2% | 353.3hPa | 2.4V | 08:09:05 | 02:36:42 | 00:00:00 | |
| BIOWL1-15 | 2026-09-06 01:55:09 | 51.55610 | 6.88113 | 116° | 97km/h | 8438m | -8m/s | -28.5°C | 20.3% | 354.5hPa | 2.5V | 08:09:23 | 02:36:45 | 00:00:00 | |
| DO2JMG | 2026-09-06 01:55:07 | 51.55632 | 6.88043 | 117° | 97km/h | 8454m | -7.8m/s | -28.6°C | 20.4% | 353.6hPa | 2.5V | 08:09:23 | 02:36:43 | 00:00:00 | |
| DL1XH-west | 2026-09-06 01:55:05 | 51.55654 | 6.87973 | 117° | 97km/h | 8469m | -7.6m/s | -28.8°C | 20.8% | 352.9hPa | 2.4V | 08:09:23 | 02:36:41 | 00:00:00 | |
| GOEST3-10 | 2026-09-06 01:55:03 | 51.55677 | 6.87904 | 118° | 95km/h | 8484m | -7.7m/s | -28.8°C | 18.8% | 352.1hPa | 2.4V | 00:00:00 | 02:36:39 | 00:00:00 | |
| DJ2DS-15 | 2026-09-06 01:55:02 | 51.55688 | 6.87870 | 118° | 95km/h | 8492m | -7.7m/s | -28.9°C | 17.3% | 351.8hPa | 2.4V | 00:00:00 | 00:00:00 | 00:00:00 | |
| DD1CC3-15 | 2026-09-06 01:55:01 | 51.55688 | 6.87870 | 119° | 95km/h | 8492m | -7.7m/s | -28.9°C | 17.3% | 351.8hPa | 2.4V | 08:09:00 | 00:00:00 | 00:00:00 | |
| DM0DOS-11 | 2026-09-06 01:55:00 | 51.55757 | 6.87667 | 118° | 95km/h | 8548m | -9.7m/s | -29.4°C | 18.4% | 349.1hPa | 2.4V | 08:09:15 | 02:36:32 | 00:00:00 | |
| BIOWL1-15 | 2026-09-06 01:54:58 | 51.55734 | 6.87735 | 119° | 95km/h | 8529m | -10.3m/s | -29.2°C | 21.4% | 350.1hPa | 2.4V | 08:09:23 | 02:36:34 | 00:00:00 | |
| DO2JMG | 2026-09-06 01:54:56 | 51.55757 | 6.87667 | 119° | 95km/h | 8548m | -9.7m/s | -29.4°C | 21.1% | 349.1hPa | 2.4V | 08:09:23 | 02:36:32 | 00:00:00 | |
| DL1XH-west | 2026-09-06 01:54:55 | 51.55768 | 6.87634 | 119° | 95km/h | 8558m | -9.7m/s | -29.4°C | 20.9% | 348.6hPa | 2.5V | 08:09:23 | 02:36:31 | 00:00:00 | |
| DL3AQ-11 | 2026-09-06 01:54:54 | 51.55792 | 6.87567 | 119° | 93km/h | 8577m | -9.3m/s | -29.4°C | 15.9% | 347.7hPa | 2.4V | 00:00:00 | 00:00:00 | 00:00:00 | |
| DO3DL | 2026-09-06 01:54:53 | 51.55780 | 6.87600 | 120° | 95km/h | 8568m | -9.5m/s | -29.5°C | 16.5% | 348.2hPa | 2.4V | 08:09:00 | 00:00:00 | 00:00:00 | |
| GOEST3-10 | 2026-09-06 01:54:52 | 51.55803 | 6.87533 | 120° | 95km/h | 8586m | -9.2m/s | -29.2°C | 17.4% | 347.2hPa | 2.4V | 00:00:00 | 02:36:28 | 00:00:00 | |
| DH3RM | 2026-09-06 01:54:51 | 51.55803 | 6.87533 | 121° | 95km/h | 8586m | -9.3m/s | -29.3°C | 15.9% | 347.3hPa | 2.5V | 08:09:00 | 00:00:00 | 00:00:00 | |
| DM0DOS-11 | 2026-09-06 01:54:50 | 51.55875 | 6.87336 | 120° | 95km/h | 8640m | -9.1m/s | -29.2°C | 17.6% | 344.6hPa | 2.5V | 08:09:25 | 02:36:22 | 00:00:00 | |
| BIOWL1-15 | 2026-09-06 01:54:48 | 51.55851 | 6.87402 | 120° | 95km/h | 8622m | -9m/s | -29.1°C | 20.6% | 345.5hPa | 2.5V | 08:09:23 | 02:36:24 | 00:00:00 | |
| DO2JMG | 2026-09-06 01:54:46 | 51.55875 | 6.87336 | 121° | 95km/h | 8640m | -9.1m/s | -29.2°C | 20.8% | 344.6hPa | 2.5V | 08:10:14 | 02:36:22 | 00:00:00 | |
| DL1XH-west | 2026-09-06 01:54:44 | 51.55900 | 6.87270 | 120° | 95km/h | 8658m | -9.3m/s | -29.4°C | 20.8% | 343.8hPa | 2.4V | 08:10:14 | 02:36:20 | 00:00:00 | |
| GOEST3-10 | 2026-09-06 01:54:42 | 51.55924 | 6.87203 | 121° | 95km/h | 8677m | -9.4m/s | -29.5°C | 17.5% | 342.8hPa | 2.5V | 00:00:00 | 02:36:18 | 00:00:00 | |
| DO1YAY-16 | 2026-09-06 01:54:41 | 51.55936 | 6.87170 | 120° | 93km/h | 8687m | -9.3m/s | -29.6°C | 15.9% | 342.4hPa | 2.5V | 00:00:00 | 00:00:00 | 00:00:00 | |
| DM0DOS-11 | 2026-09-06 01:54:40 | 51.55997 | 6.87006 | 121° | 95km/h | 8733m | -9.4m/s | -29.8°C | 17.5% | 340.2hPa | 2.5V | 08:09:35 | 02:36:12 | 00:00:00 | |
| DO2JMG | 2026-09-06 01:54:36 | 51.55998 | 6.87006 | 122° | 95km/h | 8733m | -9.4m/s | -29.8°C | 20.8% | 340.2hPa | 2.5V | 08:10:14 | 02:36:12 | 00:00:00 | |
| DL1XH-west | 2026-09-06 01:54:34 | 51.56023 | 6.86941 | 122° | 93km/h | 8751m | -8.9m/s | -30°C | 21.1% | 339.3hPa | 2.5V | 08:10:14 | 02:36:10 | 00:00:00 | |
| GOEST3-10 | 2026-09-06 01:54:32 | 51.56048 | 6.86877 | 123° | 93km/h | 8770m | -9.3m/s | -30.1°C | 17.9% | 338.4hPa | 2.4V | 00:00:00 | 02:36:08 | 00:00:00 | |
| DM0DOS-11 | 2026-09-06 01:54:30 | 51.56124 | 6.86686 | 122° | 93km/h | 8826m | -9.5m/s | -30.7°C | 18% | 335.7hPa | 2.4V | 08:09:45 | 02:36:02 | 00:00:00 | |
| DO2JMG | 2026-09-06 01:54:26 | 51.56124 | 6.86686 | 123° | 93km/h | 8827m | -9.5m/s | -30.7°C | 21.4% | 335.7hPa | 2.4V | 08:10:14 | 02:36:02 | 00:00:00 | |
| DL1XH-west | 2026-09-06 01:54:24 | 51.56149 | 6.86622 | 123° | 93km/h | 8846m | -9.8m/s | -30.8°C | 22.2% | 334.8hPa | 2.5V | 08:10:14 | 02:36:00 | 00:00:00 | |
| GOEST3-10 | 2026-09-06 01:54:22 | 51.56175 | 6.86559 | 124° | 93km/h | 8865m | -9.4m/s | -30.9°C | 19.1% | 333.9hPa | 2.5V | 08:09:00 | 02:35:58 | 00:00:00 | |
| DM0DOS-11 | 2026-09-06 01:54:21 | 51.56252 | 6.86370 | 123° | 93km/h | 8923m | -9.9m/s | -31.4°C | 20.3% | 331.3hPa | 2.4V | 08:09:55 | 02:35:52 | 00:00:00 | |
| BIOWL1-15 | 2026-09-06 01:54:15 | 51.56341 | 6.86148 | 123° | 93km/h | 8989m | -9.3m/s | -32.1°C | 25.2% | 328.1hPa | 2.4V | 08:10:14 | 02:35:45 | 00:00:00 | |
| DO2JMG | 2026-09-06 01:54:15 | 51.56264 | 6.86338 | 123° | 93km/h | 8933m | -9.7m/s | -31.5°C | 24.2% | 330.8hPa | 2.4V | 08:10:14 | 02:35:51 | 00:00:00 | |
| DL1XH-west | 2026-09-06 01:54:13 | 51.56290 | 6.86275 | 123° | 93km/h | 8952m | -9.6m/s | -31.7°C | 24.5% | 329.9hPa | 2.5V | 08:10:14 | 02:35:49 | 00:00:00 | |
| GOEST3-10 | 2026-09-06 01:54:12 | 51.56303 | 6.86243 | 123° | 93km/h | 8962m | -9.2m/s | -31.8°C | 20.9% | 329.4hPa | 2.4V | 00:00:00 | 02:35:48 | 00:00:00 | |
| AU51GT2 | 2026-09-06 01:54:11 | 51.56316 | 6.86212 | 122° | 91km/h | 8971m | -9.2m/s | -31.9°C | 19.2% | 329.0hPa | 2.4V | 00:00:00 | 00:00:00 | 00:00:00 | |
| DM0DOS-11 | 2026-09-06 01:54:10 | 51.56380 | 6.86054 | 123° | 93km/h | 9018m | -9.6m/s | -32.3°C | 21.8% | 326.8hPa | 2.4V | 08:10:05 | 02:35:42 | 00:00:00 | |
| DO2JMG | 2026-09-06 01:54:04 | 51.56405 | 6.85991 | 123° | 93km/h | 9038m | -9.6m/s | -32.5°C | 26.1% | 325.9hPa | 2.4V | 08:10:14 | 02:35:40 | 00:00:00 | |
| DL1XH-west | 2026-09-06 01:54:03 | 51.56418 | 6.85960 | 124° | 93km/h | 9047m | -9.5m/s | -32.6°C | 26.3% | 325.4hPa | 2.5V | 08:10:14 | 02:35:39 | 00:00:00 | |
| BIOWL1-15 | 2026-09-06 01:54:02 | 51.56431 | 6.85928 | 123° | 93km/h | 9057m | -9.6m/s | -32.7°C | 26.5% | 325hPa | 2.5V | 08:10:14 | 02:35:38 | 00:00:00 | |
| DO2JMG | 2026-09-06 01:53:54 | 51.56534 | 6.85674 | 123° | 93km/h | 9135m | -9.8m/s | -33.4°C | 28.1% | 321.5hPa | 2.4V | 08:11:05 | 02:35:30 | 00:00:00 | |
| DL1XH-west | 2026-09-06 01:53:52 | 51.56559 | 6.85611 | 123° | 93km/h | 9155m | -9.8m/s | -33.6°C | 28.4% | 320.6hPa | 2.5V | 08:11:05 | 02:35:28 | 00:00:00 | |
| BIOWL1-15 | 2026-09-06 01:53:52 | 51.56597 | 6.85516 | 123° | 91km/h | 9185m | -9.9m/s | -33.9°C | 28.7% | 319.2hPa | 2.4V | 08:11:05 | 02:35:25 | 00:00:00 | |
| DM0DOS-11 | 2026-09-06 01:53:51 | 51.56636 | 6.85422 | 123° | 93km/h | 9214m | -9.9m/s | -34.2°C | 25.2% | 317.9hPa | 2.4V | 08:10:25 | 02:35:22 | 00:00:00 | |
| DJ2DS-15 | 2026-09-06 01:53:50 | 51.56585 | 6.85548 | 122° | 91km/h | 9175m | -10.1m/s | -33.8°C | 22.4% | 319.7hPa | 2.5V | 00:00:00 | 00:00:00 | 00:00:00 | |
| BIOWL9-15 | 2026-09-06 01:53:48 | 51.56610 | 6.85485 | 123° | 91km/h | 9195m | -9.9m/s | -34.0°C | 22.7% | 318.7hPa | 2.5V | 00:00:00 | 00:00:00 | 00:00:00 | |
| BUE01 | 2026-09-06 01:53:47 | 51.56636 | 6.85422 | 123° | 91km/h | 9214m | -9.9m/s | -34.2°C | 23.1% | 317.9hPa | 2.5V | 00:00:00 | 00:00:00 | 00:00:00 | |
| DO2JMG | 2026-09-06 01:53:43 | 51.56674 | 6.85328 | 124° | 93km/h | 9244m | -9.7m/s | -34.4°C | 28.9% | 316.5hPa | 2.5V | 08:11:05 | 02:35:19 | 00:00:00 | |
| DL1XH-west | 2026-09-06 01:53:41 | 51.56701 | 6.85266 | 124° | 93km/h | 9263m | -9.6m/s | -34.6°C | 29.1% | 315.6hPa | 2.4V | 08:11:05 | 02:35:17 | 00:00:00 | |
| BIOWL1-15 | 2026-09-06 01:53:40 | 51.56740 | 6.85172 | 124° | 93km/h | 9292m | -9.6m/s | -34.8°C | 29.7% | 314.3hPa | 2.5V | 08:11:05 | 02:35:14 | 00:00:00 | |
| DM0DOS-11 | 2026-09-06 01:53:40 | 51.56765 | 6.85110 | 123° | 93km/h | 9311m | -9.5m/s | -35°C | 26.4% | 313.5hPa | 2.4V | 08:10:35 | 02:35:12 | 00:00:00 | |
| DO2JMG | 2026-09-06 01:53:33 | 51.56804 | 6.85016 | 123° | 93km/h | 9339m | -9.5m/s | -35.3°C | 30.3% | 312.2hPa | 2.5V | 08:11:05 | 02:35:09 | 00:00:00 | |
| GOEST3-10 | 2026-09-06 01:53:32 | 51.56817 | 6.84984 | 123° | 95km/h | 9349m | -9.6m/s | -35.3°C | 26.8% | 311.7hPa | 2.4V | 00:00:00 | 02:35:08 | 00:00:00 | |
| DH3RM | 2026-09-06 01:53:31 | 51.56817 | 6.84984 | 124° | 93km/h | 9349m | -9.7m/s | -35.4°C | 24.4% | 311.7hPa | 2.4V | 08:11:00 | 00:00:00 | 00:00:00 | |
| DM0DOS-11 | 2026-09-06 01:53:30 | 51.56892 | 6.84789 | 121° | 93km/h | 9407m | -9.5m/s | -35.9°C | 27.1% | 309.2hPa | 2.4V | 08:10:45 | 02:35:02 | 00:00:00 | |
| DL1XH-west | 2026-09-06 01:53:30 | 51.56842 | 6.84920 | 122° | 95km/h | 9368m | -9.6m/s | -35.5°C | 30.2% | 310.9hPa | 2.4V | 08:11:05 | 02:35:06 | 00:00:00 | |
| DO2JMG | 2026-09-06 01:53:22 | 51.56942 | 6.84658 | 121° | 95km/h | 9445m | -9.4m/s | -36.2°C | 30.9% | 307.6hPa | 2.5V | 08:11:05 | 02:34:58 | 00:00:00 | |
| DL1XH-west | 2026-09-06 01:53:19 | 51.56980 | 6.84557 | 121° | 99km/h | 9473m | -9.5m/s | -36.4°C | 30.5% | 306.2hPa | 2.4V | 08:11:05 | 02:34:55 | 00:00:00 | |
| DO2JMG | 2026-09-06 01:53:12 | 51.57070 | 6.84315 | 120° | 99km/h | 9539m | -9.7m/s | -36.7°C | 27.3% | 303.4hPa | 2.5V | 08:11:05 | 02:34:48 | 00:00:00 | |
| BIOWL1-15 | 2026-09-06 01:53:09 | 51.57106 | 6.84209 | 119° | 100km/h | 9568m | -9.2m/s | -36.8°C | 25.9% | 302.1hPa | 2.4V | 08:11:05 | 02:34:45 | 00:00:00 | |
| DL1XH-west | 2026-09-06 01:53:08 | 51.57118 | 6.84174 | 119° | 99km/h | 9577m | -8.9m/s | -36.8°C | 25.6% | 301.7hPa | 2.4V | 08:11:05 | 02:34:44 | 00:00:00 | |
| DO2JMG | 2026-09-06 01:53:01 | 51.57202 | 6.83927 | 118° | 99km/h | 9641m | -9.1m/s | -37°C | 24.4% | 298.9hPa | 2.4V | 08:11:56 | 02:34:37 | 00:00:00 | |
| DM0DOS-11 | 2026-09-06 01:53:00 | 51.57259 | 6.83751 | 116° | 97km/h | 9688m | -9.2m/s | -37.2°C | 21.6% | 296.9hPa | 2.4V | 08:11:15 | 02:34:32 | 00:00:00 | |
| DL1XH-west | 2026-09-06 01:52:58 | 51.57236 | 6.83821 | 117° | 97km/h | 9669m | -9.8m/s | -37.1°C | 24.3% | 297.7hPa | 2.4V | 08:11:56 | 02:34:34 | 00:00:00 | |
| DO2JMG | 2026-09-06 01:52:51 | 51.57314 | 6.83574 | 116° | 99km/h | 9733m | -9.2m/s | -37.6°C | 26.9% | 295hPa | 2.4V | 08:11:56 | 02:34:27 | 00:00:00 | |
| DH3RM | 2026-09-06 01:52:51 | 51.57314 | 6.83573 | 117° | 99km/h | 9733m | -9.2m/s | -37.6°C | 21.2% | 295.0hPa | 2.4V | 08:11:00 | 00:00:00 | 00:00:00 | |
| DM0DOS-11 | 2026-09-06 01:52:50 | 51.57369 | 6.83394 | 115° | 99km/h | 9778m | -8.6m/s | -38°C | 25.3% | 293hPa | 2.4V | 08:11:25 | 02:34:22 | 00:00:00 | |
| DL1XH-west | 2026-09-06 01:52:47 | 51.57358 | 6.83430 | 116° | 99km/h | 9769m | -9.1m/s | -37.9°C | 28.2% | 293.4hPa | 2.5V | 08:11:56 | 02:34:23 | 00:00:00 | |
| BIOWL9-15 | 2026-09-06 01:52:46 | 51.57369 | 6.83394 | 115° | 97km/h | 9778m | -8.6m/s | -38.0°C | 22.8% | 293.0hPa | 2.4V | 00:00:00 | 00:00:00 | 00:00:00 | |
| DO2KSM | 2026-09-06 01:52:45 | 51.57380 | 6.83357 | 117° | 99km/h | 9787m | -8.9m/s | -38.1°C | 23.3% | 292.7hPa | 2.4V | 08:11:00 | 00:00:00 | 00:00:00 | |
| DD1CC9-15 | 2026-09-06 01:52:44 | 51.57380 | 6.83357 | 117° | 99km/h | 9787m | -8.9m/s | -38.1°C | 23.3% | 292.7hPa | 2.4V | 08:11:00 | 00:00:00 | 00:00:00 | |
| DH3RM | 2026-09-06 01:52:43 | 51.57390 | 6.83321 | 116° | 100km/h | 9796m | -9.2m/s | -38.1°C | 23.9% | 292.4hPa | 2.4V | 08:11:00 | 00:00:00 | 00:00:00 | |
| GOEST3-10 | 2026-09-06 01:52:42 | 51.57412 | 6.83248 | 116° | 100km/h | 9815m | -9.2m/s | -38.2°C | 27.1% | 291.5hPa | 2.4V | 00:00:00 | 02:34:18 | 00:00:00 | |
| DM0DOS-11 | 2026-09-06 01:52:40 | 51.57476 | 6.83027 | 115° | 100km/h | 9869m | -8.9m/s | -38.7°C | 27.6% | 289.2hPa | 2.4V | 08:11:35 | 02:34:12 | 00:00:00 | |
| DO2JMG | 2026-09-06 01:52:40 | 51.57434 | 6.83175 | 115° | 100km/h | 9833m | -9.5m/s | -38.4°C | 30.3% | 290.8hPa | 2.5V | 08:11:56 | 02:34:16 | 00:00:00 | |
| BIOWL1-15 | 2026-09-06 01:52:37 | 51.57465 | 6.83064 | 115° | 100km/h | 9860m | -9.1m/s | -38.6°C | 30.8% | 289.6hPa | 2.4V | 08:11:56 | 02:34:13 | 00:00:00 | |
| DL1XH-west | 2026-09-06 01:52:36 | 51.57476 | 6.83027 | 115° | 100km/h | 9869m | -8.9m/s | -38.7°C | 31% | 289.2hPa | 2.4V | 08:11:56 | 02:34:12 | 00:00:00 | |
| DO3DL | 2026-09-06 01:52:33 | 51.57509 | 6.82917 | 117° | 100km/h | 9897m | -9.3m/s | -39.0°C | 25.2% | 288.1hPa | 2.5V | 08:11:00 | 00:00:00 | 00:00:00 | |
| GOEST3-10 | 2026-09-06 01:52:32 | 51.57520 | 6.82881 | 116° | 100km/h | 9906m | -9.7m/s | -39.0°C | 28.2% | 287.6hPa | 2.5V | 00:00:00 | 02:34:08 | 00:00:00 | |
| DM0DOS-11 | 2026-09-06 01:52:31 | 51.57587 | 6.82663 | 115° | 100km/h | 9961m | -9.2m/s | -39.5°C | 28.6% | 285.4hPa | 2.5V | 08:11:45 | 02:34:02 | 00:00:00 | |
| DO2JMG | 2026-09-06 01:52:30 | 51.57542 | 6.82808 | 116° | 100km/h | 9925m | -8.8m/s | -39.2°C | 31.6% | 286.9hPa | 2.4V | 08:11:56 | 02:34:06 | 00:00:00 | |
| DL1XH-west | 2026-09-06 01:52:26 | 51.57587 | 6.82663 | 116° | 100km/h | 9961m | -9.3m/s | -39.5°C | 31.9% | 285.4hPa | 2.5V | 08:11:56 | 02:34:02 | 00:00:00 | |
| GOEST3-10 | 2026-09-06 01:52:25 | 51.57598 | 6.82626 | 116° | 100km/h | 9971m | -9.2m/s | -39.6°C | 28.5% | 284.9hPa | 2.4V | 00:00:00 | 00:00:00 | 00:00:00 | |
| DD1CC9-15 | 2026-09-06 01:52:24 | 51.57598 | 6.82626 | 116° | 100km/h | 9971m | -9.3m/s | -39.6°C | 25.7% | 285.0hPa | 2.4V | 08:11:00 | 00:00:00 | 00:00:00 | |
| DO2KSM | 2026-09-06 01:52:23 | 51.57609 | 6.82589 | 117° | 100km/h | 9980m | -9.4m/s | -39.7°C | 25.6% | 284.6hPa | 2.4V | 08:11:00 | 00:00:00 | 00:00:00 | |
| DM0DOS-11 | 2026-09-06 01:52:20 | 51.57697 | 6.82293 | 115° | 102km/h | 10057m | -9.1m/s | -40.3°C | 26.3% | 281.4hPa | 2.4V | 08:11:55 | 02:33:52 | 00:00:00 | |
| DL1XH-west | 2026-09-06 01:52:16 | 51.57697 | 6.82293 | 115° | 102km/h | 10057m | -9.1m/s | -40.3°C | 29.8% | 281.4hPa | 2.4V | 08:11:56 | 02:33:52 | 00:00:00 | |
| BIOWL1-15 | 2026-09-06 01:52:15 | 51.57708 | 6.82255 | 115° | 102km/h | 10066m | -9.4m/s | -40.3°C | 29.6% | 281.1hPa | 2.4V | 08:11:56 | 02:33:51 | 00:00:00 | |
| DB0ND-19 | 2026-09-06 01:52:14 | 51.57730 | 6.82180 | 114° | 100km/h | 10085m | -9.5m/s | -40.5°C | 22.7% | 280.3hPa | 2.5V | 00:00:00 | 00:00:00 | 00:00:00 | |
| BUE01 | 2026-09-06 01:52:13 | 51.57730 | 6.82180 | 114° | 100km/h | 10085m | -9.5m/s | -40.5°C | 22.7% | 280.3hPa | 2.5V | 00:00:00 | 00:00:00 | 00:00:00 | |
| DL1ZP-14 | 2026-09-06 01:52:11 | 51.57762 | 6.82066 | 114° | 102km/h | 10112m | -9.1m/s | -40.7°C | 22.3% | 279.1hPa | 2.5V | 00:00:00 | 00:00:00 | 00:00:00 | |
| DM0DOS-11 | 2026-09-06 01:52:10 | 51.57805 | 6.81914 | 114° | 104km/h | 10148m | -9.6m/s | -41°C | 24.5% | 277.6hPa | 2.4V | 08:12:05 | 02:33:42 | 00:00:00 | |
| DO2JMG | 2026-09-06 01:52:09 | 51.57772 | 6.82028 | 114° | 102km/h | 10121m | -9.1m/s | -40.8°C | 28.1% | 278.8hPa | 2.4V | 08:12:47 | 02:33:45 | 00:00:00 | |
| DL1XH-west | 2026-09-06 01:52:05 | 51.57816 | 6.81875 | 115° | 104km/h | 10157m | -9.5m/s | -41.1°C | 27.9% | 277.2hPa | 2.4V | 08:12:47 | 02:33:41 | 00:00:00 | |
| BIOWL1-15 | 2026-09-06 01:52:04 | 51.57827 | 6.81837 | 115° | 104km/h | 10167m | -9.3m/s | -41.2°C | 27.9% | 276.9hPa | 2.5V | 08:12:47 | 02:33:40 | 00:00:00 | |
| GOEST3-10 | 2026-09-06 01:52:04 | 51.57827 | 6.81837 | 115° | 104km/h | 10167m | -9.2m/s | -41.1°C | 24.9% | 276.8hPa | 2.5V | 08:12:00 | 00:00:00 | 00:00:00 | |
| DO2KSM | 2026-09-06 01:52:03 | 51.57827 | 6.81837 | 116° | 104km/h | 10167m | -9.3m/s | -41.2°C | 22.0% | 276.9hPa | 2.5V | 08:12:00 | 00:00:00 | 00:00:00 | |
| DJ2DS-15 | 2026-09-06 01:52:02 | 51.57849 | 6.81760 | 114° | 104km/h | 10185m | -8.5m/s | -41.3°C | 22.2% | 276.1hPa | 2.5V | 00:00:00 | 00:00:00 | 00:00:00 | |
| DM0DOS-11 | 2026-09-06 01:52:00 | 51.57914 | 6.81529 | 114° | 102km/h | 10240m | -9.5m/s | -41.8°C | 25.5% | 273.9hPa | 2.5V | 08:12:15 | 02:33:32 | 00:00:00 | |
| DO2JMG | 2026-09-06 01:51:58 | 51.57893 | 6.81606 | 114° | 104km/h | 10221m | -9.5m/s | -41.7°C | 28.3% | 274.7hPa | 2.4V | 08:12:47 | 02:33:34 | 00:00:00 | |
| DL1XH-west | 2026-09-06 01:51:54 | 51.57936 | 6.81453 | 115° | 104km/h | 10260m | -11.9m/s | -41.9°C | 28.5% | 273.3hPa | 2.5V | 08:12:47 | 02:33:30 | 00:00:00 | |
| BIOWL1-15 | 2026-09-06 01:51:53 | 51.57946 | 6.81415 | 114° | 102km/h | 10273m | -13.8m/s | -41.8°C | 28.5% | 272.8hPa | 2.4V | 08:12:47 | 02:33:29 | 00:00:00 | |
| GOEST3-10 | 2026-09-06 01:51:52 | 51.57957 | 6.81377 | 115° | 102km/h | 10286m | -13.5m/s | -41.9°C | 24.8% | 272.2hPa | 2.4V | 00:00:00 | 00:00:00 | 00:00:00 | |
| DC6BW-12 | 2026-09-06 01:51:51 | 51.57957 | 6.81377 | 115° | 102km/h | 10286m | -13.5m/s | -41.9°C | 22.0% | 272.2hPa | 2.4V | 08:12:00 | 00:00:00 | 00:00:00 | |
| DM0DOS-11 | 2026-09-06 01:51:50 | 51.58022 | 6.81151 | 114° | 102km/h | 10360m | -11.7m/s | -42.5°C | 26.1% | 269.1hPa | 2.4V | 08:12:25 | 02:33:22 | 00:00:00 | |
| DO2JMG | 2026-09-06 01:51:47 | 51.58011 | 6.81188 | 115° | 100km/h | 10348m | -11.9m/s | -42.5°C | 30.1% | 269.6hPa | 2.4V | 08:12:47 | 02:33:23 | 00:00:00 | |
| BIOWL1-15 | 2026-09-06 01:51:43 | 51.58054 | 6.81039 | 115° | 100km/h | 10401m | -12.5m/s | -42.8°C | 30.9% | 267.6hPa | 2.5V | 08:12:47 | 02:33:19 | 00:00:00 | |
| DO2JMG | 2026-09-06 01:51:36 | 51.58132 | 6.80780 | 115° | 100km/h | 10486m | -11.9m/s | -43.6°C | 32.7% | 264.2hPa | 2.4V | 08:12:47 | 02:33:12 | 00:00:00 | |
| DL1XH-west | 2026-09-06 01:51:32 | 51.58176 | 6.80630 | 115° | 104km/h | 10538m | -13.6m/s | -44.1°C | 32.5% | 262.2hPa | 2.5V | 08:12:47 | 02:33:08 | 00:00:00 | |
| DO2JMG | 2026-09-06 01:51:26 | 51.58244 | 6.80397 | 116° | 108km/h | 10607m | -10.4m/s | -44.7°C | 30.8% | 259.4hPa | 2.5V | 08:12:47 | 02:33:02 | 00:00:00 | |
| BIOWL1-15 | 2026-09-06 01:51:24 | 51.58293 | 6.80238 | 118° | 111km/h | 10654m | -13.2m/s | -44.9°C | 28.9% | 257.7hPa | 2.5V | 08:13:38 | 02:32:58 | 00:00:00 | |
| DL1XH-west | 2026-09-06 01:51:21 | 51.58305 | 6.80199 | 118° | 111km/h | 10667m | -12.8m/s | -44.9°C | 28.6% | 257.2hPa | 2.5V | 08:13:38 | 02:32:57 | 00:00:00 | |
| DM0DOS-11 | 2026-09-06 01:51:20 | 51.58371 | 6.79995 | 118° | 113km/h | 10742m | -18.1m/s | -45.3°C | 24.2% | 254.6hPa | 2.5V | 08:12:55 | 02:32:52 | 00:00:00 | |
| DO2JMG | 2026-09-06 01:51:16 | 51.58371 | 6.79995 | 119° | 113km/h | 10742m | -18.1m/s | -45.3°C | 28.7% | 254.6hPa | 2.5V | 08:13:38 | 02:32:52 | 00:00:00 | |
| DB0NH | 2026-09-06 01:51:15 | 51.58384 | 6.79954 | 118° | 120km/h | 10760m | -17.1m/s | -45.4°C | 24.5% | 253.8hPa | 2.5V | 08:12:00 | 02:32:51 | 00:00:00 | |
| DD1CC3-15 | 2026-09-06 01:51:14 | 51.58385 | 6.79954 | 119° | 115km/h | 10760m | -17.2m/s | -45.4°C | 21.3% | 253.9hPa | 2.4V | 08:13:00 | 00:00:00 | 00:00:00 | |
| BIOWL9-15 | 2026-09-06 01:51:13 | 51.58412 | 6.79873 | 118° | 113km/h | 10793m | -16.0m/s | -45.8°C | 21.6% | 252.6hPa | 2.4V | 00:00:00 | 00:00:00 | 00:00:00 | |
| GOEST3-10 | 2026-09-06 01:51:12 | 51.58425 | 6.79832 | 119° | 115km/h | 10809m | -15.1m/s | -45.9°C | 25.1% | 251.9hPa | 2.4V | 00:00:00 | 00:00:00 | 00:00:00 | |
| DM0DOS-11 | 2026-09-06 01:51:11 | 51.58507 | 6.79581 | 116° | 119km/h | 10886m | -11.8m/s | -46.5°C | 25.3% | 248.9hPa | 2.4V | 08:13:05 | 02:32:42 | 00:00:00 | |
| BIOWL1-15 | 2026-09-06 01:51:11 | 51.58439 | 6.79792 | 118° | 115km/h | 10823m | -14.5m/s | -46.1°C | 29.4% | 251.4hPa | 2.5V | 08:13:38 | 02:32:47 | 00:00:00 | |
| DO2JMG | 2026-09-06 01:51:05 | 51.58521 | 6.79538 | 117° | 120km/h | 10897m | -10.3m/s | -46.6°C | 28.7% | 248.4hPa | 2.5V | 08:13:38 | 02:32:41 | 00:00:00 | |
| DL3AQ-11 | 2026-09-06 01:51:05 | 51.58534 | 6.79495 | 116° | 119km/h | 10907m | -9.6m/s | -46.7°C | 21.5% | 248.1hPa | 2.4V | 00:00:00 | 00:00:00 | 00:00:00 | |
| DO1YAY-16 | 2026-09-06 01:51:04 | 51.58547 | 6.79451 | 116° | 119km/h | 10917m | -11.2m/s | -46.7°C | 21.2% | 247.7hPa | 2.4V | 00:00:00 | 00:00:00 | 00:00:00 | |
| DJ2KF-10 | 2026-09-06 01:51:03 | 51.58547 | 6.79451 | 117° | 126km/h | 10917m | -11.2m/s | -46.7°C | 24.7% | 247.6hPa | 2.4V | 00:00:00 | 02:32:39 | 00:00:00 | |
| DC4HF-4 | 2026-09-06 01:51:01 | 51.58588 | 6.79319 | 115° | 120km/h | 10952m | -10.3m/s | -47.0°C | 21.3% | 246.4hPa | 2.4V | 00:00:00 | 00:00:00 | 00:00:00 | |
| DM0DOS-11 | 2026-09-06 01:51:00 | 51.58642 | 6.79141 | 115° | 122km/h | 10996m | -10.9m/s | -47.2°C | 25.4% | 244.8hPa | 2.4V | 08:13:15 | 02:32:32 | 00:00:00 | |
| DL1XH-west | 2026-09-06 01:51:00 | 51.58588 | 6.79319 | 116° | 122km/h | 10952m | -10.3m/s | -47°C | 28.7% | 246.4hPa | 2.5V | 08:13:38 | 02:32:36 | 00:00:00 | |
| WPPR-10 | 2026-09-06 01:51:00 | 51.58588 | 6.79319 | 115° | 120km/h | 10952m | -10.3m/s | -47.0°C | 21.3% | 246.4hPa | 2.5V | 00:00:00 | 00:00:00 | 00:00:00 | |
| HARRO8 | 2026-09-06 01:50:55 | 51.58655 | 6.79096 | 115° | 122km/h | 11007m | -10.7m/s | -47.3°C | 22.1% | 244.4hPa | 2.5V | 00:00:00 | 00:00:00 | 00:00:00 | |
| DL1XH-15 | 2026-09-06 01:50:54 | 51.58735 | 6.78822 | 114° | 124km/h | 11072m | -10.1m/s | -47.9°C | 29.1% | 241.9hPa | 2.5V | 08:13:22 | 02:32:25 | 00:00:00 | |
| DO2JMG | 2026-09-06 01:50:54 | 51.58669 | 6.79050 | 116° | 124km/h | 11018m | -11.9m/s | -47.4°C | 30.3% | 244hPa | 2.5V | 08:13:38 | 02:32:30 | 00:00:00 | |
| DL3AQ-11 | 2026-09-06 01:50:54 | 51.58682 | 6.79005 | 115° | 124km/h | 11029m | -10.1m/s | -47.5°C | 23.0% | 243.5hPa | 2.4V | 00:00:00 | 00:00:00 | 00:00:00 | |
| SONCRA | 2026-09-06 01:50:53 | 51.58696 | 6.78959 | 114° | 124km/h | 11040m | -10.8m/s | -47.6°C | 23.3% | 243.2hPa | 2.4V | 00:00:00 | 00:00:00 | 00:00:00 | |
| MET0W-2 | 2026-09-06 01:50:52 | 51.58696 | 6.78959 | 114° | 124km/h | 11040m | -10.8m/s | -47.6°C | 23.3% | 243.2hPa | 2.4V | 00:00:00 | 00:00:00 | 00:00:00 | |
| DM0DOS-11 | 2026-09-06 01:50:51 | 51.58773 | 6.78684 | 114° | 124km/h | 11103m | -13.6m/s | -48.1°C | 30.1% | 240.9hPa | 2.4V | 08:13:25 | 02:32:22 | 00:00:00 | |
| DL1XH-west | 2026-09-06 01:50:50 | 51.58722 | 6.78868 | 115° | 124km/h | 11062m | -10.3m/s | -47.8°C | 32.5% | 242.3hPa | 2.4V | 08:13:38 | 02:32:26 | 00:00:00 | |
| DJ2DS-15 | 2026-09-06 01:50:50 | 51.58735 | 6.78822 | 114° | 122km/h | 11072m | -10.1m/s | -47.9°C | 25.2% | 241.9hPa | 2.4V | 00:00:00 | 00:00:00 | 00:00:00 | |
| DF5WG-10 | 2026-09-06 01:50:48 | 51.58747 | 6.78776 | 115° | 124km/h | 11082m | -9.2m/s | -47.9°C | 29.5% | 241.6hPa | 2.4V | 00:00:00 | 02:32:24 | 00:00:00 | |
| DB0NH | 2026-09-06 01:50:45 | 51.58786 | 6.78637 | 114° | 126km/h | 11116m | -12.6m/s | -48.2°C | 30.8% | 240.4hPa | 2.4V | 00:00:00 | 02:32:21 | 00:00:00 | |
| DL1XH-15 | 2026-09-06 01:50:44 | 51.58864 | 6.78359 | 114° | 126km/h | 11186m | -10.6m/s | -48.9°C | 34.1% | 237.7hPa | 2.4V | 08:13:32 | 02:32:15 | 00:00:00 | |
| DO2JMG | 2026-09-06 01:50:44 | 51.58799 | 6.78591 | 114° | 126km/h | 11129m | -12.6m/s | -48.3°C | 36% | 239.9hPa | 2.4V | 08:13:38 | 02:32:20 | 00:00:00 | |
| GOEST3-10 | 2026-09-06 01:50:43 | 51.58812 | 6.78545 | 115° | 126km/h | 11142m | -13.7m/s | -48.4°C | 31.9% | 239.5hPa | 2.5V | 00:00:00 | 02:32:19 | 00:00:00 | |
| BIOWL9-15 | 2026-09-06 01:50:42 | 51.58825 | 6.78499 | 114° | 124km/h | 11154m | -12.2m/s | -48.6°C | 28.5% | 238.9hPa | 2.4V | 00:00:00 | 00:00:00 | 00:00:00 | |
| DL1LOL-11 | 2026-09-06 01:50:41 | 51.58825 | 6.78499 | 115° | 126km/h | 11155m | -12.2m/s | -48.6°C | 28.5% | 238.9hPa | 2.4V | 00:00:00 | 00:00:00 | 00:00:00 | |
| DM0DOS-11 | 2026-09-06 01:50:40 | 51.58903 | 6.78220 | 114° | 126km/h | 11222m | -12.3m/s | -49.2°C | 35.2% | 236.4hPa | 2.4V | 08:13:35 | 02:32:12 | 00:00:00 | |
| DL1XH-west | 2026-09-06 01:50:39 | 51.58864 | 6.78359 | 115° | 126km/h | 11186m | -10.6m/s | -48.9°C | 39.1% | 237.7hPa | 2.4V | 08:13:38 | 02:32:15 | 00:00:00 | |
| DO2JMG | 2026-09-06 01:50:33 | 51.58942 | 6.78080 | 114° | 126km/h | 11261m | -12.6m/s | -49.6°C | 41.9% | 235.1hPa | 2.4V | 08:13:38 | 02:32:09 | 00:00:00 | |
| GOEST3-10 | 2026-09-06 01:50:33 | 51.58942 | 6.78080 | 115° | 126km/h | 11261m | -12.5m/s | -49.6°C | 36.0% | 235.1hPa | 2.5V | 00:00:00 | 02:32:09 | 00:00:00 | |
| DH3RM | 2026-09-06 01:50:32 | 51.58942 | 6.78080 | 115° | 126km/h | 11261m | -12.6m/s | -49.6°C | 31.5% | 235.1hPa | 2.5V | 08:13:00 | 00:00:00 | 00:00:00 | |
| DM0DOS-11 | 2026-09-06 01:50:31 | 51.59033 | 6.77753 | 113° | 126km/h | 11352m | -12.7m/s | -50.5°C | 39.4% | 231.9hPa | 2.5V | 08:13:45 | 02:32:02 | 00:00:00 | |
| DL1XH-west | 2026-09-06 01:50:29 | 51.58994 | 6.77894 | 114° | 126km/h | 11312m | -11.7m/s | -50.1°C | 43.7% | 233.3hPa | 2.4V | 08:14:29 | 02:32:05 | 00:00:00 | |
| DO2JMG | 2026-09-06 01:50:23 | 51.59072 | 6.77613 | 114° | 126km/h | 11387m | -12.8m/s | -50.8°C | 47% | 230.7hPa | 2.4V | 08:14:29 | 02:31:59 | 00:00:00 | |
| GOEST3-10 | 2026-09-06 01:50:23 | 51.59072 | 6.77612 | 114° | 128km/h | 11387m | -12.8m/s | -50.8°C | 41.8% | 230.6hPa | 2.5V | 00:00:00 | 02:31:59 | 00:00:00 | |
| DM0DOS-11 | 2026-09-06 01:50:21 | 51.59162 | 6.77283 | 113° | 126km/h | 11472m | -15.3m/s | -51.6°C | 44.9% | 227.8hPa | 2.5V | 08:13:55 | 02:31:52 | 00:00:00 | |
| BIOWL1-15 | 2026-09-06 01:50:19 | 51.59123 | 6.77425 | 114° | 128km/h | 11431m | -12.7m/s | -51.3°C | 49.5% | 229.1hPa | 2.4V | 08:14:29 | 02:31:55 | 00:00:00 | |
| DL1XH-west | 2026-09-06 01:50:18 | 51.59136 | 6.77377 | 114° | 128km/h | 11445m | -13.6m/s | -51.4°C | 50.1% | 228.7hPa | 2.4V | 08:14:29 | 02:31:54 | 00:00:00 | |
| DO2JMG | 2026-09-06 01:50:13 | 51.59202 | 6.77142 | 115° | 128km/h | 11525m | -17.8m/s | -52.1°C | 52.8% | 226.1hPa | 2.4V | 08:14:29 | 02:31:49 | 00:00:00 | |
| DD1CC3-15 | 2026-09-06 01:50:13 | 51.59202 | 6.77142 | 116° | 128km/h | 11525m | -17.8m/s | -52.1°C | 40.8% | 226.1hPa | 2.5V | 08:14:00 | 00:00:00 | 00:00:00 | |
| BIOWL9-15 | 2026-09-06 01:50:11 | 51.59229 | 6.77049 | 114° | 124km/h | 11560m | -17.4m/s | -52.4°C | 42.1% | 224.9hPa | 2.5V | 00:00:00 | 00:00:00 | 00:00:00 | |
| DL1XH-15 | 2026-09-06 01:50:10 | 51.59310 | 6.76768 | 115° | 128km/h | 11656m | -13.6m/s | -53.4°C | 52.6% | 221.3hPa | 2.5V | 08:14:06 | 02:31:41 | 00:00:00 | |
| DL1XH-west | 2026-09-06 01:50:08 | 51.59269 | 6.76908 | 115° | 128km/h | 11610m | -16.5m/s | -53°C | 55.6% | 223hPa | 2.4V | 08:14:29 | 02:31:44 | 00:00:00 | |
| DO2JMG | 2026-09-06 01:50:02 | 51.59350 | 6.76628 | 115° | 126km/h | 11701m | -16.2m/s | -53.8°C | 57.1% | 219.9hPa | 2.4V | 08:14:29 | 02:31:38 | 00:00:00 | |
| DO1YAY-16 | 2026-09-06 01:50:02 | 51.59363 | 6.76581 | 114° | 124km/h | 11717m | -16.1m/s | -53.9°C | 45.1% | 219.4hPa | 2.4V | 00:00:00 | 00:00:00 | 00:00:00 | |
| DM0DOS-11 | 2026-09-06 01:50:01 | 51.59430 | 6.76348 | 114° | 126km/h | 11800m | -16.1m/s | -54.5°C | 49.7% | 216.6hPa | 2.4V | 08:14:15 | 02:31:32 | 00:00:00 | |
| DL1XH-west | 2026-09-06 01:49:57 | 51.59417 | 6.76395 | 115° | 126km/h | 11784m | -16.6m/s | -54.4°C | 55.2% | 217.2hPa | 2.4V | 08:14:29 | 02:31:33 | 00:00:00 | |
| DF5WG-10 | 2026-09-06 01:49:57 | 51.59417 | 6.76395 | 116° | 126km/h | 11784m | -16.6m/s | -54.3°C | 49.5% | 217.1hPa | 2.4V | 00:00:00 | 02:31:33 | 00:00:00 | |
| WEDDY | 2026-09-06 01:49:53 | 51.59469 | 6.76210 | 116° | 126km/h | 11844m | -14.7m/s | -54.9°C | 44.4% | 215.1hPa | 2.4V | 08:14:00 | 00:00:00 | 00:00:00 | |
| DD1CC3-15 | 2026-09-06 01:49:52 | 51.59469 | 6.76210 | 116° | 126km/h | 11844m | -14.7m/s | -54.9°C | 0% | 215.1hPa | 2.4V | 08:14:00 | 00:00:00 | 00:00:00 | |
| DM0DOS-11 | 2026-09-06 01:49:51 | 51.59562 | 6.75882 | 113° | 128km/h | 11926m | -11.8m/s | -55.6°C | 52% | 212.2hPa | 2.4V | 08:14:25 | 02:31:22 | 00:00:00 | |
| DO2JMG | 2026-09-06 01:49:51 | 51.59496 | 6.76117 | 115° | 126km/h | 11871m | -10.7m/s | -55.1°C | 55.5% | 214hPa | 2.4V | 08:14:29 | 02:31:27 | 00:00:00 | |
| DL1XH-west | 2026-09-06 01:49:47 | 51.59548 | 6.75929 | 114° | 128km/h | 11915m | -10.5m/s | -55.5°C | 55.8% | 212.5hPa | 2.5V | 08:14:29 | 02:31:23 | 00:00:00 | |
| DH3RM | 2026-09-06 01:49:47 | 51.59549 | 6.75929 | 115° | 128km/h | 11915m | -10.5m/s | -55.5°C | 45.6% | 212.5hPa | 2.4V | 08:14:00 | 00:00:00 | 00:00:00 | |
| DD1CC1-15 | 2026-09-06 01:49:46 | 51.59549 | 6.75929 | 115° | 128km/h | 11915m | -10.5m/s | -55.5°C | 45.6% | 212.5hPa | 2.4V | 08:14:00 | 00:00:00 | 00:00:00 | |
| DL3AQ-11 | 2026-09-06 01:49:45 | 51.59587 | 6.75787 | 113° | 128km/h | 11949m | -10.3m/s | -55.8°C | 45.1% | 211.4hPa | 2.4V | 00:00:00 | 00:00:00 | 00:00:00 | |
| GOEST3-10 | 2026-09-06 01:49:44 | 51.59587 | 6.75787 | 114° | 128km/h | 11949m | -10.3m/s | -55.7°C | 51.9% | 211.3hPa | 2.4V | 00:00:00 | 02:31:20 | 00:00:00 | |
| DL1XH-15 | 2026-09-06 01:49:40 | 51.59702 | 6.75355 | 112° | 128km/h | 12066m | -10.4m/s | -56.4°C | 51.4% | 207.5hPa | 2.4V | 08:14:36 | 02:31:11 | 00:00:00 | |
| DM0DOS-11 | 2026-09-06 01:49:40 | 51.59689 | 6.75403 | 112° | 128km/h | 12055m | -10.9m/s | -56.3°C | 51% | 207.9hPa | 2.5V | 08:14:35 | 02:31:12 | 00:00:00 | |
| DO2JMG | 2026-09-06 01:49:40 | 51.59639 | 6.75596 | 113° | 128km/h | 12001m | -13.3m/s | -56.1°C | 54.5% | 209.8hPa | 2.4V | 08:15:20 | 02:31:16 | 00:00:00 | |
| DL1XH-west | 2026-09-06 01:49:36 | 51.59689 | 6.75403 | 113° | 128km/h | 12055m | -10.9m/s | -56.3°C | 55.1% | 207.9hPa | 2.5V | 08:15:20 | 02:31:12 | 00:00:00 | |
| DL1ZP-14 | 2026-09-06 01:49:36 | 51.59702 | 6.75355 | 112° | 128km/h | 12066m | -10.4m/s | -56.4°C | 44.6% | 207.6hPa | 2.4V | 00:00:00 | 00:00:00 | 00:00:00 | |
| GOEST3-10 | 2026-09-06 01:49:34 | 51.59714 | 6.75307 | 113° | 128km/h | 12076m | -10.2m/s | -56.4°C | 51.7% | 207.2hPa | 2.4V | 08:14:00 | 02:31:10 | 00:00:00 | |
| HTAHTA | 2026-09-06 01:49:33 | 51.59739 | 6.75210 | 112° | 128km/h | 12100m | -11.4m/s | -56.7°C | 46.2% | 206.5hPa | 2.6V | 00:00:00 | 00:00:00 | 00:00:00 | |
| AU51GT2 | 2026-09-06 01:49:32 | 51.59751 | 6.75162 | 112° | 128km/h | 12111m | -11.2m/s | -56.8°C | 46.6% | 206.1hPa | 2.6V | 00:00:00 | 00:00:00 | 00:00:00 | |
| DO1YAY-16 | 2026-09-06 01:49:31 | 51.59764 | 6.75114 | 113° | 126km/h | 12122m | -11.4m/s | -56.9°C | 46.8% | 205.7hPa | 2.6V | 00:00:00 | 00:00:00 | 00:00:00 | |
| DL1XH-15 | 2026-09-06 01:49:30 | 51.59829 | 6.74876 | 114° | 130km/h | 12185m | -10.6m/s | -57.5°C | 56.7% | 203.7hPa | 2.6V | 08:14:46 | 02:31:01 | 00:00:00 | |
| DL4BBY-15 | 2026-09-06 01:49:30 | 51.59764 | 6.75114 | 114° | 130km/h | 12123m | -11.4m/s | -56.6°C | 0% | 0hPa | 2.5V | 00:00:00 | 00:00:00 | 00:00:00 | |
| DO2JMG | 2026-09-06 01:49:30 | 51.59764 | 6.75114 | 113° | 128km/h | 12122m | -11.4m/s | -56.9°C | 58.1% | 205.7hPa | 2.4V | 08:15:20 | 02:31:06 | 00:00:00 | |
| GOEST3-10 | 2026-09-06 01:49:29 | 51.59776 | 6.75066 | 114° | 128km/h | 12134m | -11.6m/s | -57.0°C | 53.8% | 205.3hPa | 2.5V | 00:00:00 | 00:00:00 | 00:00:00 | |
| DM0DOS-11 | 2026-09-06 01:49:27 | 51.59816 | 6.74924 | 114° | 128km/h | 12173m | -12.8m/s | -57.4°C | 56% | 204.1hPa | 2.5V | 08:14:45 | 02:31:02 | 00:00:00 | |
| DL1XH-west | 2026-09-06 01:49:25 | 51.59830 | 6.74876 | 115° | 130km/h | 12185m | -10.6m/s | -57.5°C | 60.3% | 203.7hPa | 2.6V | 08:15:20 | 02:31:01 | 00:00:00 | |
| GOEST3-10 | 2026-09-06 01:49:24 | 51.59843 | 6.74828 | 115° | 130km/h | 12197m | -11.5m/s | -57.6°C | 56.7% | 203.3hPa | 2.4V | 00:00:00 | 02:31:00 | 00:00:00 | |
| DJ2KF-10 | 2026-09-06 01:49:23 | 51.59857 | 6.74781 | 116° | 130km/h | 12209m | -12.8m/s | -57.7°C | 57.1% | 203.0hPa | 2.4V | 00:00:00 | 02:30:59 | 00:00:00 | |
| HARRO8 | 2026-09-06 01:49:22 | 51.59871 | 6.74733 | 115° | 128km/h | 12221m | -11.4m/s | -57.8°C | 49.9% | 202.5hPa | 2.4V | 00:00:00 | 00:00:00 | 00:00:00 | |
| DM0DOS-11 | 2026-09-06 01:49:21 | 51.59954 | 6.74448 | 115° | 130km/h | 12303m | -14.8m/s | -58.4°C | 58.1% | 200.1hPa | 2.4V | 08:14:55 | 02:30:52 | 00:00:00 | |
| DL1XH-15 | 2026-09-06 01:49:20 | 51.59968 | 6.74401 | 115° | 130km/h | 12317m | -12.9m/s | -58.5°C | 58.7% | 199.5hPa | 2.4V | 08:14:56 | 02:30:51 | 00:00:00 | |
| DO2JMG | 2026-09-06 01:49:19 | 51.59912 | 6.74591 | 115° | 130km/h | 12258m | -14.4m/s | -58.1°C | 62.6% | 201.5hPa | 2.4V | 08:15:20 | 02:30:55 | 00:00:00 | |
| BIOWL1-15 | 2026-09-06 01:49:15 | 51.59968 | 6.74401 | 115° | 130km/h | 12317m | -12.9m/s | -58.5°C | 64% | 199.5hPa | 2.4V | 08:15:20 | 02:30:51 | 00:00:00 | |
| DL1XH-west | 2026-09-06 01:49:14 | 51.59982 | 6.74354 | 116° | 128km/h | 12330m | -12m/s | -58.6°C | 64.2% | 199.1hPa | 2.4V | 08:15:20 | 02:30:50 | 00:00:00 | |
| DB0NH | 2026-09-06 01:49:14 | 51.59982 | 6.74353 | 116° | 130km/h | 12330m | -12.0m/s | -58.6°C | 58.6% | 199.1hPa | 2.6V | 00:00:00 | 02:30:50 | 00:00:00 | |
| DC4HF-4 | 2026-09-06 01:49:13 | 51.60010 | 6.74259 | 115° | 128km/h | 12359m | -14.5m/s | -58.9°C | 51.7% | 198.3hPa | 2.6V | 00:00:00 | 00:00:00 | 00:00:00 | |
| DM0DOS-11 | 2026-09-06 01:49:11 | 51.60095 | 6.73976 | 115° | 130km/h | 12436m | -12.3m/s | -59.6°C | 61.2% | 195.8hPa | 2.6V | 08:15:05 | 02:30:42 | 00:00:00 | |
| DL1XH-15 | 2026-09-06 01:49:10 | 51.60109 | 6.73929 | 115° | 130km/h | 12447m | -11m/s | -59.8°C | 60.9% | 195.4hPa | 2.5V | 08:15:06 | 02:30:41 | 00:00:00 | |
| DO2JMG | 2026-09-06 01:49:09 | 51.60052 | 6.74118 | 116° | 130km/h | 12396m | -11.6m/s | -59.3°C | 65% | 197hPa | 2.4V | 08:15:20 | 02:30:45 | 00:00:00 | |
| BIOWL1-15 | 2026-09-06 01:49:04 | 51.60123 | 6.73881 | 115° | 130km/h | 12460m | -13.5m/s | -59.9°C | 65.1% | 195.1hPa | 2.5V | 08:15:20 | 02:30:40 | 00:00:00 | |
| DL1XH-west | 2026-09-06 01:49:03 | 51.60137 | 6.73834 | 115° | 130km/h | 12472m | -11.9m/s | -60°C | 65.2% | 194.6hPa | 2.4V | 08:15:20 | 02:30:39 | 00:00:00 | |
| HTAHTA | 2026-09-06 01:49:02 | 51.60165 | 6.73740 | 115° | 128km/h | 12497m | -13.2m/s | -60.2°C | 52.3% | 194.0hPa | 2.5V | 00:00:00 | 00:00:00 | 00:00:00 | |
| DM0DOS-11 | 2026-09-06 01:49:01 | 51.60236 | 6.73504 | 115° | 128km/h | 12560m | -12.6m/s | -60.8°C | 59.5% | 192hPa | 2.5V | 08:15:15 | 02:30:32 | 00:00:00 | |
| AU51GT2 | 2026-09-06 01:49:01 | 51.60179 | 6.73692 | 115° | 128km/h | 12510m | -13.3m/s | -60.3°C | 52.4% | 193.6hPa | 2.4V | 00:00:00 | 00:00:00 | 00:00:00 | |
| DL1XH-15 | 2026-09-06 01:49:00 | 51.60250 | 6.73458 | 116° | 128km/h | 12574m | -15.4m/s | -60.9°C | 59% | 191.7hPa | 2.4V | 08:15:16 | 02:30:31 | 00:00:00 | |
| DO2JMG | 2026-09-06 01:48:58 | 51.60207 | 6.73598 | 116° | 128km/h | 12534m | -11.5m/s | -60.6°C | 64.4% | 192.8hPa | 2.6V | 08:15:20 | 02:30:34 | 00:00:00 | |
| BIOWL1-15 | 2026-09-06 01:48:53 | 51.60278 | 6.73365 | 116° | 128km/h | 12604m | -14.6m/s | -61.2°C | 63.4% | 190.7hPa | 2.4V | 08:15:20 | 02:30:29 | 00:00:00 | |
| DJ2KF-10 | 2026-09-06 01:48:51 | 51.60306 | 6.73272 | 116° | 128km/h | 12635m | -14.5m/s | -61.4°C | 59.5% | 189.7hPa | 2.5V | 08:15:00 | 02:30:27 | 00:00:00 | |
| DL1XH-15 | 2026-09-06 01:48:50 | 51.60390 | 6.72990 | 116° | 128km/h | 12710m | -12.5m/s | -62.1°C | 57.9% | 187.3hPa | 2.4V | 08:15:26 | 02:30:21 | 00:00:00 | |
| DO2JMG | 2026-09-06 01:48:47 | 51.60362 | 6.73084 | 116° | 128km/h | 12687m | -12.6m/s | -61.9°C | 62.1% | 188.1hPa | 2.4V | 08:16:11 | 02:30:23 | 00:00:00 | |
| BIOWL1-15 | 2026-09-06 01:48:43 | 51.60418 | 6.72898 | 116° | 126km/h | 12737m | -14m/s | -62.4°C | 60.6% | 186.6hPa | 2.4V | 08:16:11 | 02:30:19 | 00:00:00 | |
| DL1XH-west | 2026-09-06 01:48:42 | 51.60433 | 6.72852 | 116° | 126km/h | 12750m | -13.8m/s | -62.5°C | 60.1% | 186.2hPa | 2.6V | 08:16:11 | 02:30:18 | 00:00:00 | |
| DM0DOS-11 | 2026-09-06 01:48:41 | 51.60517 | 6.72574 | 115° | 126km/h | 12832m | -13.7m/s | -63.2°C | 55.2% | 183.8hPa | 2.4V | 08:15:35 | 02:30:12 | 00:00:00 | |
| DO2JMG | 2026-09-06 01:48:36 | 51.60517 | 6.72574 | 116° | 126km/h | 12832m | -13.7m/s | -63.2°C | 57.4% | 183.8hPa | 2.4V | 08:16:11 | 02:30:12 | 00:00:00 | |
| BIOWL1-15 | 2026-09-06 01:48:32 | 51.60572 | 6.72388 | 116° | 128km/h | 12884m | -15m/s | -63.6°C | 55.4% | 182.2hPa | 2.5V | 08:16:11 | 02:30:08 | 00:00:00 | |
| GOEST3-10 | 2026-09-06 01:48:32 | 51.60572 | 6.72388 | 116° | 128km/h | 12884m | -15.0m/s | -63.5°C | 53.4% | 182.2hPa | 2.5V | 00:00:00 | 02:30:08 | 00:00:00 | |
| DM0DOS-11 | 2026-09-06 01:48:31 | 51.60655 | 6.72107 | 115° | 128km/h | 12959m | -11.8m/s | -64.2°C | 51.7% | 179.9hPa | 2.5V | 08:15:45 | 02:30:02 | 00:00:00 | |
| DL1XH-west | 2026-09-06 01:48:31 | 51.60586 | 6.72342 | 116° | 128km/h | 12899m | -15.2m/s | -63.7°C | 55% | 181.8hPa | 2.4V | 08:16:11 | 02:30:07 | 00:00:00 | |
| HTAHTA | 2026-09-06 01:48:31 | 51.60628 | 6.72201 | 115° | 128km/h | 12938m | -11.4m/s | -64.0°C | 45.0% | 180.6hPa | 2.4V | 00:00:00 | 00:00:00 | 00:00:00 | |
| DL1XH-15 | 2026-09-06 01:48:30 | 51.60669 | 6.72060 | 114° | 128km/h | 12973m | -15.3m/s | -64.3°C | 50.6% | 179.7hPa | 2.4V | 08:15:46 | 02:30:01 | 00:00:00 | |
| DO2JMG | 2026-09-06 01:48:25 | 51.60669 | 6.72060 | 115° | 128km/h | 12973m | -15.4m/s | -64.3°C | 51.8% | 179.7hPa | 2.4V | 08:16:11 | 02:30:01 | 00:00:00 | |
| BIOWL1-15 | 2026-09-06 01:48:21 | 51.60785 | 6.71630 | 112° | 128km/h | 13102m | -11.2m/s | -65.4°C | 46.9% | 175.8hPa | 2.4V | 08:16:11 | 02:29:52 | 00:00:00 | |
| DL1XH-15 | 2026-09-06 01:48:20 | 51.60796 | 6.71582 | 111° | 128km/h | 13115m | -14.9m/s | -65.4°C | 46.7% | 175.5hPa | 2.5V | 08:15:56 | 02:29:51 | 00:00:00 | |
| DL1XH-west | 2026-09-06 01:48:20 | 51.60735 | 6.71823 | 113° | 128km/h | 13050m | -14.2m/s | -64.9°C | 49.1% | 177.4hPa | 2.6V | 08:16:11 | 02:29:56 | 00:00:00 | |
| DB0NH | 2026-09-06 01:48:19 | 51.60748 | 6.71775 | 113° | 111km/h | 13065m | -14.6m/s | -65.0°C | 49.3% | 176.9hPa | 2.4V | 00:00:00 | 02:29:55 | 00:00:00 | |
| DM0DOS-11 | 2026-09-06 01:48:16 | 51.60785 | 6.71630 | 111° | 128km/h | 13101m | -11.2m/s | -65.3°C | 47.7% | 175.8hPa | 2.4V | 08:15:55 | 02:29:52 | 00:00:00 | |
| DO2JMG | 2026-09-06 01:48:14 | 51.60808 | 6.71533 | 110° | 128km/h | 13129m | -14.3m/s | -65.4°C | 45.7% | 175.1hPa | 2.5V | 08:16:11 | 02:29:50 | 00:00:00 | |
| DL3AQ-11 | 2026-09-06 01:48:14 | 51.60819 | 6.71484 | 110° | 128km/h | 13144m | -14.9m/s | -65.5°C | 37.1% | 174.7hPa | 2.6V | 00:00:00 | 00:00:00 | 00:00:00 | |
| GOEST3-10 | 2026-09-06 01:48:12 | 51.60830 | 6.71435 | 110° | 130km/h | 13159m | -14.4m/s | -65.5°C | 46.2% | 174.2hPa | 2.6V | 00:00:00 | 02:29:48 | 00:00:00 | |
| DO3DL | 2026-09-06 01:48:11 | 51.60830 | 6.71435 | 110° | 130km/h | 13159m | -14.5m/s | -65.5°C | 37.2% | 174.2hPa | 2.6V | 08:16:00 | 00:00:00 | 00:00:00 | |
| DM0DOS-11 | 2026-09-06 01:48:10 | 51.60892 | 6.71133 | 107° | 133km/h | 13236m | -10.7m/s | -65.5°C | 42.2% | 171.9hPa | 2.6V | 08:16:05 | 02:29:42 | 00:00:00 | |
| DL1XH-west | 2026-09-06 01:48:09 | 51.60862 | 6.71285 | 109° | 130km/h | 13198m | -13.1m/s | -65.5°C | 43.4% | 173.1hPa | 2.4V | 08:16:11 | 02:29:45 | 00:00:00 | |
| BIOWL1-15 | 2026-09-06 01:48:07 | 51.60902 | 6.71082 | 108° | 133km/h | 13249m | -14.7m/s | -65.5°C | 41.2% | 171.7hPa | 2.6V | 08:16:11 | 02:29:41 | 00:00:00 | |
| DO2JMG | 2026-09-06 01:48:03 | 51.60923 | 6.70979 | 108° | 131km/h | 13278m | -14.5m/s | -65.7°C | 40.1% | 170.8hPa | 2.4V | 08:16:11 | 02:29:39 | 00:00:00 | |
| DL1XH-west | 2026-09-06 01:47:58 | 51.60975 | 6.70724 | 108° | 133km/h | 13346m | -13.8m/s | -66.2°C | 37.6% | 168.9hPa | 2.5V | 08:17:02 | 02:29:34 | 00:00:00 | |
| BIOWL1-15 | 2026-09-06 01:47:55 | 51.61007 | 6.70570 | 108° | 133km/h | 13382m | -11.6m/s | -66.4°C | 36.1% | 167.9hPa | 2.4V | 08:17:02 | 02:29:31 | 00:00:00 | |
| WPPR-10 | 2026-09-06 01:47:54 | 51.61028 | 6.70467 | 107° | 131km/h | 13405m | -11.4m/s | -66.6°C | 29.3% | 167.2hPa | 2.4V | 00:00:00 | 00:00:00 | 00:00:00 | |
| DL1XH-15 | 2026-09-06 01:47:53 | 51.61079 | 6.70210 | 107° | 133km/h | 13469m | -10.3m/s | -66.9°C | 36.3% | 165.4hPa | 2.4V | 08:16:23 | 02:29:24 | 00:00:00 | |
| DO2JMG | 2026-09-06 01:47:52 | 51.61039 | 6.70416 | 108° | 133km/h | 13417m | -12m/s | -66.6°C | 34.3% | 166.9hPa | 2.5V | 08:17:02 | 02:29:28 | 00:00:00 | |
| DL1XH-west | 2026-09-06 01:47:48 | 51.61079 | 6.70210 | 108° | 133km/h | 13470m | -10.3m/s | -66.9°C | 32.3% | 165.4hPa | 2.4V | 08:17:02 | 02:29:24 | 00:00:00 | |
| BIOWL1-15 | 2026-09-06 01:47:45 | 51.61109 | 6.70055 | 107° | 133km/h | 13504m | -13.3m/s | -66.9°C | 30.6% | 164.6hPa | 2.5V | 08:17:02 | 02:29:21 | 00:00:00 | |
| DJ2KF-10 | 2026-09-06 01:47:45 | 51.61109 | 6.70055 | 108° | 124km/h | 13504m | -13.2m/s | -66.9°C | 34.6% | 164.5hPa | 2.4V | 00:00:00 | 02:29:21 | 00:00:00 | |
| DJ3KS | 2026-09-06 01:47:44 | 51.61109 | 6.70055 | 108° | 133km/h | 13504m | -13.3m/s | -66.9°C | 26.2% | 164.6hPa | 2.4V | 08:17:00 | 00:00:00 | 00:00:00 | |
| DK5PH-5 | 2026-09-06 01:47:43 | 51.61128 | 6.69952 | 108° | 122km/h | 13530m | -11.6m/s | -66.7°C | 34.2% | 163.8hPa | 2.4V | 00:00:00 | 02:29:19 | 00:00:00 | |
| DL1XH-15 | 2026-09-06 01:47:42 | 51.61188 | 6.69648 | 107° | 128km/h | 13603m | -11.9m/s | -66.9°C | 31.9% | 161.9hPa | 2.4V | 08:16:34 | 02:29:13 | 00:00:00 | |
| DO2JMG | 2026-09-06 01:47:41 | 51.61148 | 6.69850 | 108° | 133km/h | 13555m | -13.2m/s | -66.7°C | 28.7% | 163.2hPa | 2.4V | 08:17:02 | 02:29:17 | 00:00:00 | |
| DM0DOS-11 | 2026-09-06 01:47:39 | 51.61198 | 6.69598 | 107° | 128km/h | 13616m | -13m/s | -66.9°C | 31.5% | 161.6hPa | 2.4V | 08:16:35 | 02:29:12 | 00:00:00 | |
| DL1XH-west | 2026-09-06 01:47:38 | 51.61178 | 6.69698 | 108° | 130km/h | 13592m | -11.5m/s | -66.8°C | 27.4% | 162.2hPa | 2.4V | 08:17:02 | 02:29:14 | 00:00:00 | |
| BIOWL1-15 | 2026-09-06 01:47:35 | 51.61207 | 6.69549 | 107° | 126km/h | 13628m | -11.2m/s | -67°C | 25.7% | 161.2hPa | 2.5V | 08:17:02 | 02:29:11 | 00:00:00 | |
| DB0ND-19 | 2026-09-06 01:47:34 | 51.61216 | 6.69500 | 106° | 126km/h | 13640m | -12.1m/s | -67.1°C | 22.0% | 160.9hPa | 2.5V | 00:00:00 | 00:00:00 | 00:00:00 | |
| DO2KSM | 2026-09-06 01:47:33 | 51.61216 | 6.69500 | 108° | 126km/h | 13640m | -12.1m/s | -67.1°C | 22.0% | 160.9hPa | 2.5V | 08:17:00 | 00:00:00 | 00:00:00 | |
| DL1XH-15 | 2026-09-06 01:47:32 | 51.61279 | 6.69165 | 108° | 122km/h | 13738m | -13.1m/s | -65.8°C | 24.4% | 158.3hPa | 2.5V | 08:16:44 | 02:29:03 | 00:00:00 | |
| DO2JMG | 2026-09-06 01:47:31 | 51.61243 | 6.69354 | 106° | 124km/h | 13680m | -13.9m/s | -66.5°C | 23% | 159.9hPa | 2.4V | 08:17:02 | 02:29:07 | 00:00:00 | |
| DL4BBY-15 | 2026-09-06 01:47:30 | 51.61251 | 6.69306 | 107° | 117km/h | 13695m | -15.2m/s | -66.1°C | 0% | 0hPa | 2.4V | 00:00:00 | 00:00:00 | 00:00:00 | |
| DM0DOS-11 | 2026-09-06 01:47:29 | 51.61289 | 6.69118 | 108° | 122km/h | 13751m | -12.6m/s | -65.8°C | 24.1% | 158hPa | 2.4V | 08:16:45 | 02:29:02 | 00:00:00 | |
| DL1XH-west | 2026-09-06 01:47:27 | 51.61279 | 6.69165 | 108° | 122km/h | 13738m | -13.1m/s | -65.8°C | 20.7% | 158.3hPa | 2.5V | 08:17:02 | 02:29:03 | 00:00:00 | |
| BIOWL1-15 | 2026-09-06 01:47:26 | 51.61309 | 6.69024 | 110° | 122km/h | 13774m | -11.3m/s | -65.8°C | 19.3% | 157.4hPa | 2.4V | 08:17:02 | 02:29:00 | 00:00:00 | |
| DH3RM | 2026-09-06 01:47:25 | 51.61289 | 6.69118 | 110° | 122km/h | 13751m | -12.6m/s | -65.8°C | 17.0% | 158.0hPa | 2.6V | 08:17:00 | 00:00:00 | 00:00:00 | |
| DL1XH-15 | 2026-09-06 01:47:22 | 51.61388 | 6.68714 | 114° | 113km/h | 13859m | -12m/s | -65°C | 19.5% | 155.2hPa | 2.6V | 08:16:54 | 02:28:53 | 00:00:00 | |
| GOEST3-10 | 2026-09-06 01:47:22 | 51.61330 | 6.68932 | 111° | 117km/h | 13797m | -11.1m/s | -65.7°C | 22.4% | 156.8hPa | 2.5V | 00:00:00 | 02:28:58 | 00:00:00 | |
| DM0DOS-11 | 2026-09-06 01:47:21 | 51.61399 | 6.68672 | 113° | 113km/h | 13873m | -14.8m/s | -65.1°C | 19.3% | 154.9hPa | 2.5V | 08:16:55 | 02:28:52 | 00:00:00 | |
| DO2JMG | 2026-09-06 01:47:20 | 51.61353 | 6.68843 | 113° | 117km/h | 13822m | -14.2m/s | -65.5°C | 17.3% | 156.2hPa | 2.4V | 08:17:02 | 02:28:56 | 00:00:00 | |
| DL1XH-west | 2026-09-06 01:47:17 | 51.61388 | 6.68714 | 114° | 115km/h | 13859m | -12m/s | -65°C | 15.8% | 155.2hPa | 2.6V | 08:17:02 | 02:28:53 | 00:00:00 | |
| BIOWL1-15 | 2026-09-06 01:47:14 | 51.61422 | 6.68587 | 113° | 115km/h | 13899m | -11.2m/s | -65.2°C | 14.8% | 154.1hPa | 2.4V | 08:17:02 | 02:28:50 | 00:00:00 | |
| DK5PH-5 | 2026-09-06 01:47:13 | 51.61434 | 6.68544 | 114° | 111km/h | 13913m | -15.6m/s | -65.2°C | 18.9% | 153.9hPa | 2.4V | 00:00:00 | 02:28:49 | 00:00:00 | |
| GOEST3-10 | 2026-09-06 01:47:12 | 51.61445 | 6.68501 | 114° | 115km/h | 13928m | -13.9m/s | -65.3°C | 19.1% | 153.5hPa | 2.4V | 00:00:00 | 02:28:48 | 00:00:00 | |
| DH3RM | 2026-09-06 01:47:11 | 51.61445 | 6.68501 | 115° | 115km/h | 13928m | -14.0m/s | -65.3°C | 12.4% | 153.5hPa | 2.4V | 08:17:00 | 00:00:00 | 00:00:00 | |
| DM0DOS-11 | 2026-09-06 01:47:09 | 51.61520 | 6.68248 | 118° | 115km/h | 14011m | -15.9m/s | -64.5°C | 15.5% | 151.5hPa | 2.4V | 08:17:05 | 02:28:42 | 00:00:00 | |
| DO2JMG | 2026-09-06 01:47:09 | 51.61481 | 6.68373 | 115° | 115km/h | 13970m | -12.3m/s | -64.6°C | 13% | 152.4hPa | 2.5V | 08:17:02 | 02:28:45 | 00:00:00 | |
| DL1XH-west | 2026-09-06 01:47:06 | 51.61520 | 6.68248 | 118° | 115km/h | 14011m | -15.9m/s | -64.5°C | 11.9% | 151.5hPa | 2.4V | 08:17:53 | 02:28:42 | 00:00:00 | |
| BIOWL1-15 | 2026-09-06 01:47:04 | 51.61548 | 6.68166 | 120° | 115km/h | 14043m | -15m/s | -64.6°C | 11.3% | 150.7hPa | 2.6V | 08:17:53 | 02:28:40 | 00:00:00 | |
| BUE01 | 2026-09-06 01:47:03 | 51.61578 | 6.68085 | 121° | 113km/h | 14069m | -11.8m/s | -64.3°C | 8.9% | 149.9hPa | 2.4V | 00:00:00 | 00:00:00 | 00:00:00 | |
| GOEST3-10 | 2026-09-06 01:47:02 | 51.61578 | 6.68085 | 122° | 113km/h | 14069m | -11.8m/s | -64.3°C | 14.5% | 149.9hPa | 2.4V | 00:00:00 | 02:28:38 | 00:00:00 | |
| DO9LL-15 | 2026-09-06 01:47:00 | 51.61608 | 6.68008 | 124° | 106km/h | 14093m | -13.5m/s | -63.7°C | 13.3% | 149.4hPa | 2.5V | 00:00:00 | 02:28:36 | 00:00:00 | |
| DM0DOS-11 | 2026-09-06 01:46:59 | 51.61673 | 6.67857 | 125° | 111km/h | 14155m | -16.9m/s | -62°C | 10.7% | 147.9hPa | 2.5V | 08:17:15 | 02:28:32 | 00:00:00 | |
| DO2JMG | 2026-09-06 01:46:58 | 51.61640 | 6.67932 | 125° | 111km/h | 14123m | -15.4m/s | -62.7°C | 9.2% | 148.7hPa | 2.6V | 08:17:53 | 02:28:34 | 00:00:00 | |
| DL1XH-west | 2026-09-06 01:46:56 | 51.61672 | 6.67857 | 125° | 111km/h | 14155m | -16.9m/s | -62°C | 8.6% | 148hPa | 2.5V | 08:17:53 | 02:28:32 | 00:00:00 | |
| BIOWL1-15 | 2026-09-06 01:46:53 | 51.61722 | 6.67748 | 127° | 110km/h | 14200m | -12.6m/s | -61.8°C | 8.3% | 146.8hPa | 2.6V | 08:17:53 | 02:28:29 | 00:00:00 | |
| GOEST3-10 | 2026-09-06 01:46:52 | 51.61739 | 6.67713 | 128° | 108km/h | 14213m | -12.1m/s | -61.7°C | 10.4% | 146.5hPa | 2.5V | 00:00:00 | 02:28:28 | 00:00:00 | |
| DO2KSM | 2026-09-06 01:46:51 | 51.61739 | 6.67713 | 128° | 110km/h | 14213m | -12.2m/s | -61.8°C | 6.1% | 146.5hPa | 2.5V | 08:17:00 | 00:00:00 | 00:00:00 | |
| DM0DOS-11 | 2026-09-06 01:46:49 | 51.61840 | 6.67507 | 129° | 106km/h | 14298m | -12.4m/s | -61.9°C | 10% | 144.5hPa | 2.5V | 08:17:25 | 02:28:22 | 00:00:00 | |
| DO2JMG | 2026-09-06 01:46:48 | 51.61807 | 6.67574 | 129° | 108km/h | 14268m | -16.4m/s | -61.7°C | 7.9% | 145.3hPa | 2.6V | 08:17:53 | 02:28:24 | 00:00:00 | |
| DL1XH-west | 2026-09-06 01:46:46 | 51.61840 | 6.67507 | 129° | 106km/h | 14298m | -12.4m/s | -61.9°C | 7.8% | 144.5hPa | 2.5V | 08:17:53 | 02:28:22 | 00:00:00 | |
| BIOWL1-15 | 2026-09-06 01:46:43 | 51.61890 | 6.67407 | 128° | 104km/h | 14337m | -14.3m/s | -62.2°C | 7.6% | 143.6hPa | 2.6V | 08:17:53 | 02:28:19 | 00:00:00 | |
| DK5PH-5 | 2026-09-06 01:46:43 | 51.61890 | 6.67407 | 128° | 100km/h | 14338m | -14.2m/s | -62.2°C | 9.9% | 143.6hPa | 2.6V | 00:00:00 | 02:28:19 | 00:00:00 | |
| GOEST3-10 | 2026-09-06 01:46:42 | 51.61906 | 6.67373 | 128° | 104km/h | 14353m | -15.7m/s | -62.3°C | 9.9% | 143.3hPa | 2.6V | 00:00:00 | 02:28:18 | 00:00:00 | |
| DH3RM | 2026-09-06 01:46:40 | 51.61922 | 6.67340 | 128° | 104km/h | 14368m | -13.8m/s | -62.5°C | 5.8% | 142.9hPa | 2.6V | 08:17:00 | 00:00:00 | 00:00:00 | |
| DM0DOS-11 | 2026-09-06 01:46:39 | 51.62002 | 6.67171 | 127° | 102km/h | 14433m | -11.4m/s | -63.1°C | 10.6% | 141.3hPa | 2.6V | 08:17:35 | 02:28:12 | 00:00:00 | |
| DO2JMG | 2026-09-06 01:46:37 | 51.61986 | 6.67204 | 128° | 104km/h | 14420m | -13.9m/s | -63°C | 7.4% | 141.7hPa | 2.5V | 08:17:53 | 02:28:13 | 00:00:00 | |
| BIOWL1-15 | 2026-09-06 01:46:35 | 51.62048 | 6.67074 | 127° | 99km/h | 14472m | -14.3m/s | -63.3°C | 6.9% | 140.5hPa | 2.4V | 08:17:53 | 02:28:09 | 00:00:00 | |
| DL1XH-west | 2026-09-06 01:46:35 | 51.62018 | 6.67138 | 128° | 100km/h | 14445m | -13.2m/s | -63.2°C | 7.2% | 141.1hPa | 2.5V | 08:17:53 | 02:28:11 | 00:00:00 | |
| DD1CC9-15 | 2026-09-06 01:46:33 | 51.62033 | 6.67106 | 128° | 100km/h | 14458m | -12.8m/s | -63.3°C | 5.8% | 140.8hPa | 2.5V | 08:17:00 | 00:00:00 | 00:00:00 | |
| GOEST3-10 | 2026-09-06 01:46:32 | 51.62063 | 6.67042 | 126° | 99km/h | 14487m | -14.2m/s | -63.4°C | 10.6% | 140.2hPa | 2.5V | 08:17:00 | 02:28:08 | 00:00:00 | |
| DO2KSM | 2026-09-06 01:46:31 | 51.62063 | 6.67042 | 127° | 99km/h | 14487m | -14.3m/s | -63.4°C | 5.8% | 140.2hPa | 2.6V | 08:17:00 | 00:00:00 | 00:00:00 | |
| DO9LL-15 | 2026-09-06 01:46:30 | 51.62091 | 6.66976 | 124° | 97km/h | 14514m | -13.5m/s | -63.4°C | 10.5% | 139.5hPa | 2.6V | 00:00:00 | 02:28:06 | 00:00:00 | |
| DM0DOS-11 | 2026-09-06 01:46:29 | 51.62146 | 6.66840 | 122° | 100km/h | 14578m | -15.8m/s | -63.3°C | 10.1% | 138.2hPa | 2.6V | 08:17:45 | 02:28:02 | 00:00:00 | |
| DO2JMG | 2026-09-06 01:46:27 | 51.62132 | 6.66874 | 122° | 100km/h | 14562m | -16.7m/s | -63.4°C | 6.4% | 138.6hPa | 2.4V | 08:17:53 | 02:28:03 | 00:00:00 | |
| DL1XH-west | 2026-09-06 01:46:25 | 51.62160 | 6.66805 | 123° | 100km/h | 14594m | -15.4m/s | -63.4°C | 6.1% | 137.8hPa | 2.6V | 08:17:53 | 02:28:01 | 00:00:00 | |
| BIOWL1-15 | 2026-09-06 01:46:22 | 51.62202 | 6.66702 | 124° | 100km/h | 14635m | -14.8m/s | -63.4°C | 5.8% | 136.9hPa | 2.4V | 08:17:53 | 02:27:58 | 00:00:00 | |
| GOEST3-10 | 2026-09-06 01:46:22 | 51.62202 | 6.66702 | 124° | 99km/h | 14635m | -14.7m/s | -63.4°C | 9.8% | 136.8hPa | 2.6V | 00:00:00 | 02:27:58 | 00:00:00 | |
| DH3RM | 2026-09-06 01:46:21 | 51.62202 | 6.66702 | 125° | 100km/h | 14635m | -14.8m/s | -63.4°C | 5.0% | 136.9hPa | 2.6V | 08:17:00 | 00:00:00 | 00:00:00 | |
| WPPR-10 | 2026-09-06 01:46:20 | 51.62231 | 6.66635 | 125° | 99km/h | 14663m | -13.8m/s | -63.4°C | 4.9% | 136.2hPa | 2.6V | 00:00:00 | 00:00:00 | 00:00:00 | |
| DM0DOS-11 | 2026-09-06 01:46:19 | 51.62289 | 6.66507 | 127° | 95km/h | 14721m | -17m/s | -62.5°C | 8.8% | 135hPa | 2.6V | 08:17:55 | 02:27:52 | 00:00:00 | |
| DO2JMG | 2026-09-06 01:46:16 | 51.62289 | 6.66507 | 127° | 95km/h | 14721m | -17m/s | -62.6°C | 4.9% | 135hPa | 2.6V | 08:18:44 | 02:27:52 | 00:00:00 | |
| DL1XH-west | 2026-09-06 01:46:15 | 51.62304 | 6.66476 | 127° | 95km/h | 14737m | -15m/s | -62.6°C | 4.9% | 134.6hPa | 2.6V | 08:18:44 | 02:27:51 | 00:00:00 | |
| BIOWL1-15 | 2026-09-06 01:46:12 | 51.62346 | 6.66384 | 126° | 93km/h | 14777m | -12.8m/s | -62.2°C | 4.7% | 133.7hPa | 2.5V | 08:18:44 | 02:27:48 | 00:00:00 | |
| DL1XH-west | 2026-09-06 01:46:05 | 51.62436 | 6.66160 | 123° | 93km/h | 14875m | -14.8m/s | -61.9°C | 4.1% | 131.6hPa | 2.6V | 08:18:44 | 02:27:41 | 00:00:00 | |
| BIOWL1-15 | 2026-09-06 01:46:02 | 51.62474 | 6.66068 | 123° | 88km/h | 14922m | -14.1m/s | -61.6°C | 3.8% | 130.6hPa | 2.5V | 08:18:44 | 02:27:38 | 00:00:00 | |
| DO2JMG | 2026-09-06 01:45:55 | 51.62552 | 6.65865 | 120° | 82km/h | 15019m | -14.4m/s | -60.5°C | 3.5% | 128.6hPa | 2.6V | 08:18:44 | 02:27:31 | 00:00:00 | |
| DL1XH-west | 2026-09-06 01:45:54 | 51.62563 | 6.65836 | 120° | 82km/h | 15034m | -15.2m/s | -60.2°C | 3.4% | 128.3hPa | 2.4V | 08:18:44 | 02:27:30 | 00:00:00 | |
| BIOWL1-15 | 2026-09-06 01:45:51 | 51.62593 | 6.65750 | 120° | 82km/h | 15080m | -17.7m/s | -60.3°C | 3.2% | 127.4hPa | 2.6V | 08:18:44 | 02:27:27 | 00:00:00 | |
| DO2KSM | 2026-09-06 01:45:50 | 51.62593 | 6.65750 | 121° | 82km/h | 15080m | -17.7m/s | -60.3°C | 3.1% | 127.4hPa | 2.6V | 08:18:00 | 00:00:00 | 00:00:00 | |
| DM0DOS-11 | 2026-09-06 01:45:49 | 51.62642 | 6.65606 | 117° | 80km/h | 15169m | -19.3m/s | -60.4°C | 6.7% | 125.7hPa | 2.6V | 08:18:25 | 02:27:22 | 00:00:00 | |
| DO2JMG | 2026-09-06 01:45:45 | 51.62651 | 6.65578 | 118° | 78km/h | 15188m | -19.8m/s | -60.3°C | 3% | 125.3hPa | 2.6V | 08:18:44 | 02:27:21 | 00:00:00 | |
| DL1XH-west | 2026-09-06 01:45:44 | 51.62661 | 6.65549 | 118° | 80km/h | 15208m | -20.2m/s | -60.2°C | 3% | 125hPa | 2.5V | 08:18:44 | 02:27:20 | 00:00:00 | |
| BIOWL1-15 | 2026-09-06 01:45:43 | 51.62689 | 6.65462 | 117° | 82km/h | 15265m | -16.4m/s | -59.9°C | 2.9% | 123.7hPa | 2.6V | 08:18:44 | 02:27:17 | 00:00:00 | |
| GOEST3-10 | 2026-09-06 01:45:42 | 51.62679 | 6.65491 | 118° | 84km/h | 15247m | -18.0m/s | -59.9°C | 6.5% | 124.1hPa | 2.6V | 00:00:00 | 02:27:18 | 00:00:00 | |
| DH3RM | 2026-09-06 01:45:41 | 51.62679 | 6.65491 | 119° | 82km/h | 15247m | -18.1m/s | -60.0°C | 2.8% | 124.2hPa | 2.6V | 08:18:00 | 00:00:00 | 00:00:00 | |
| DM0DOS-11 | 2026-09-06 01:45:39 | 51.62739 | 6.65310 | 119° | 84km/h | 15338m | -14.6m/s | -59.7°C | 6.4% | 122.2hPa | 2.6V | 08:18:35 | 02:27:12 | 00:00:00 | |
| DO2JMG | 2026-09-06 01:45:34 | 51.62761 | 6.65251 | 121° | 84km/h | 15366m | -13.5m/s | -59.6°C | 2.8% | 121.7hPa | 2.5V | 08:18:44 | 02:27:10 | 00:00:00 | |
| DL1XH-west | 2026-09-06 01:45:33 | 51.62771 | 6.65223 | 122° | 82km/h | 15380m | -13.6m/s | -59.6°C | 2.7% | 121.4hPa | 2.5V | 08:18:44 | 02:27:09 | 00:00:00 | |
| BIOWL1-15 | 2026-09-06 01:45:30 | 51.62804 | 6.65140 | 123° | 78km/h | 15423m | -13.7m/s | -59.2°C | 2.6% | 120.6hPa | 2.6V | 08:18:44 | 02:27:06 | 00:00:00 | |
| DO9LL-15 | 2026-09-06 01:45:30 | 51.62804 | 6.65140 | 123° | 75km/h | 15423m | -13.6m/s | -59.2°C | 6.0% | 120.5hPa | 2.6V | 00:00:00 | 02:27:06 | 00:00:00 | |
| DM0DOS-11 | 2026-09-06 01:45:29 | 51.62846 | 6.65037 | 122° | 75km/h | 15485m | -14.7m/s | -59.1°C | 5.9% | 119.4hPa | 2.6V | 08:18:45 | 02:27:02 | 00:00:00 | |
| DL1XH-west | 2026-09-06 01:45:23 | 51.62877 | 6.64961 | 124° | 75km/h | 15525m | -13.2m/s | -59.1°C | 2.4% | 118.6hPa | 2.5V | 08:19:35 | 02:26:59 | 00:00:00 | |
| BIOWL1-15 | 2026-09-06 01:45:20 | 51.62931 | 6.64834 | 124° | 77km/h | 15599m | -13.7m/s | -59.3°C | 2.4% | 117.2hPa | 2.5V | 08:19:35 | 02:26:54 | 00:00:00 | |
| DM0DOS-11 | 2026-09-06 01:45:19 | 51.62952 | 6.64783 | 123° | 77km/h | 15630m | -18.4m/s | -59.3°C | 5.9% | 116.8hPa | 2.6V | 08:18:55 | 02:26:52 | 00:00:00 | |
| DO2JMG | 2026-09-06 01:45:13 | 51.62983 | 6.64706 | 121° | 73km/h | 15679m | -14.5m/s | -59.2°C | 2.3% | 115.8hPa | 2.5V | 08:19:35 | 02:26:49 | 00:00:00 | |
| DL1XH-west | 2026-09-06 01:45:12 | 51.62993 | 6.64681 | 121° | 73km/h | 15693m | -12.4m/s | -59.2°C | 2.3% | 115.5hPa | 2.5V | 08:19:35 | 02:26:48 | 00:00:00 | |
| AA1-15 | 2026-09-06 01:45:09 | 51.63020 | 6.64604 | 119° | 71km/h | 15732m | -12.6m/s | -59.3°C | 2.4% | 114.8hPa | 2.5V | 08:19:35 | 02:26:45 | 00:00:00 | |
| DM0DOS-11 | 2026-09-06 01:45:09 | 51.63045 | 6.64528 | 118° | 71km/h | 15773m | -15.2m/s | -59.4°C | 6% | 114hPa | 2.6V | 08:19:05 | 02:26:42 | 00:00:00 | |
| DO2JMG | 2026-09-06 01:45:02 | 51.63079 | 6.64427 | 119° | 71km/h | 15832m | -16.4m/s | -59.3°C | 2.2% | 113hPa | 2.5V | 08:19:35 | 02:26:38 | 00:00:00 | |
| AA1-15 | 2026-09-06 01:44:59 | 51.63107 | 6.64351 | 122° | 73km/h | 15876m | -15.6m/s | -58.9°C | 2.2% | 112.2hPa | 2.5V | 08:19:35 | 02:26:35 | 00:00:00 | |
| BIOWL1-15 | 2026-09-06 01:44:58 | 51.63117 | 6.64327 | 124° | 73km/h | 15891m | -13.7m/s | -58.8°C | 2.1% | 111.9hPa | 2.5V | 08:19:35 | 02:26:34 | 00:00:00 | |
| DL1XH-west | 2026-09-06 01:44:52 | 51.63179 | 6.64172 | 122° | 77km/h | 15975m | -14.5m/s | -58.5°C | 2% | 110.4hPa | 2.5V | 08:19:35 | 02:26:28 | 00:00:00 | |
| DB0NH | 2026-09-06 01:44:51 | 51.63189 | 6.64145 | 122° | 75km/h | 15990m | -13.6m/s | -58.5°C | 5.5% | 110.1hPa | 2.6V | 00:00:00 | 02:26:27 | 00:00:00 | |
| DM0DOS-11 | 2026-09-06 01:44:49 | 51.63238 | 6.64013 | 117° | 77km/h | 16052m | -11.9m/s | -58.6°C | 5.6% | 109hPa | 2.5V | 08:19:25 | 02:26:22 | 00:00:00 | |
| BIOWL1-15 | 2026-09-06 01:44:48 | 51.63219 | 6.64066 | 121° | 75km/h | 16028m | -12.7m/s | -58.7°C | 2% | 109.5hPa | 2.5V | 08:19:35 | 02:26:24 | 00:00:00 | |
| WPPR-10 | 2026-09-06 01:44:47 | 51.63228 | 6.64040 | 120° | 75km/h | 16040m | -12.2m/s | -58.7°C | 2.2% | 109.2hPa | 2.5V | 00:00:00 | 00:00:00 | 00:00:00 | |
| DL1XH-west | 2026-09-06 01:44:41 | 51.63277 | 6.63870 | 110° | 77km/h | 16113m | -13.2m/s | -58.7°C | 2.1% | 108hPa | 2.5V | 08:19:35 | 02:26:17 | 00:00:00 | |
| GOEST3-10 | 2026-09-06 01:44:41 | 51.63277 | 6.63870 | 111° | 78km/h | 16114m | -13.1m/s | -58.6°C | 5.7% | 107.9hPa | 2.5V | 00:00:00 | 02:26:17 | 00:00:00 | |
| SONCRA | 2026-09-06 01:44:40 | 51.63284 | 6.63841 | 109° | 77km/h | 16128m | -15.0m/s | -58.7°C | 2.2% | 107.8hPa | 2.5V | 00:00:00 | 00:00:00 | 00:00:00 | |
| DM0DOS-11 | 2026-09-06 01:44:39 | 51.63308 | 6.63720 | 108° | 78km/h | 16191m | -14.7m/s | -58.8°C | 5.6% | 106.7hPa | 2.5V | 08:19:35 | 02:26:12 | 00:00:00 | |
| BIOWL1-15 | 2026-09-06 01:44:38 | 51.63296 | 6.63781 | 108° | 78km/h | 16160m | -16.6m/s | -58.7°C | 2.1% | 107.3hPa | 2.6V | 08:19:35 | 02:26:14 | 00:00:00 | |
| AA1-15 | 2026-09-06 01:44:37 | 51.63302 | 6.63750 | 108° | 77km/h | 16176m | -15.5m/s | -58.8°C | 2% | 106.9hPa | 2.5V | 08:19:35 | 02:26:13 | 00:00:00 | |
| DO2JMG | 2026-09-06 01:44:30 | 51.63351 | 6.63548 | 117° | 75km/h | 16309m | -20.3m/s | -58.9°C | 1.9% | 104.9hPa | 2.5V | 08:20:26 | 02:26:06 | 00:00:00 | |
| BIOWL9-15 | 2026-09-06 01:44:30 | 51.63360 | 6.63521 | 119° | 73km/h | 16329m | -19.9m/s | -58.9°C | 2.1% | 104.5hPa | 2.5V | 00:00:00 | 00:00:00 | 00:00:00 | |
| DM0DOS-11 | 2026-09-06 01:44:29 | 51.63388 | 6.63446 | 122° | 71km/h | 16386m | -16.2m/s | -58.9°C | 5.6% | 103.5hPa | 2.5V | 08:19:45 | 02:26:02 | 00:00:00 | |
| BIOWL1-15 | 2026-09-06 01:44:27 | 51.63378 | 6.63471 | 122° | 71km/h | 16368m | -18.5m/s | -58.8°C | 1.9% | 103.8hPa | 2.5V | 08:20:26 | 02:26:03 | 00:00:00 | |
| AA1-15 | 2026-09-06 01:44:26 | 51.63388 | 6.63446 | 123° | 71km/h | 16386m | -16.2m/s | -58.9°C | 1.9% | 103.5hPa | 2.5V | 08:20:26 | 02:26:02 | 00:00:00 | |
| DL4BBY-15 | 2026-09-06 01:44:25 | 51.63397 | 6.63422 | 124° | 64km/h | 16401m | -14.2m/s | -58.6°C | 0% | 0hPa | 2.6V | 00:00:00 | 00:00:00 | 00:00:00 | |
| DC4HF-4 | 2026-09-06 01:44:24 | 51.63407 | 6.63399 | 123° | 68km/h | 16417m | -16.8m/s | -58.8°C | 2.1% | 103.0hPa | 2.6V | 00:00:00 | 00:00:00 | 00:00:00 | |
| DD1CC8 | 2026-09-06 01:44:23 | 51.63426 | 6.63353 | 121° | 66km/h | 16449m | -14.7m/s | -58.7°C | 2.1% | 102.4hPa | 2.6V | 00:00:00 | 00:00:00 | 00:00:00 | |
| HTAHTA | 2026-09-06 01:44:22 | 51.63426 | 6.63353 | 121° | 66km/h | 16449m | -14.7m/s | -58.7°C | 2.1% | 102.4hPa | 2.6V | 00:00:00 | 00:00:00 | 00:00:00 | |
| DB0NH | 2026-09-06 01:44:21 | 51.63434 | 6.63330 | 122° | 64km/h | 16463m | -12.7m/s | -58.7°C | 5.6% | 102.1hPa | 2.6V | 00:00:00 | 02:25:57 | 00:00:00 | |
| DO1YAY-16 | 2026-09-06 01:44:20 | 51.63451 | 6.63284 | 119° | 64km/h | 16489m | -12.9m/s | -58.7°C | 2.1% | 101.7hPa | 2.6V | 00:00:00 | 00:00:00 | 00:00:00 | |
| DM0DOS-11 | 2026-09-06 01:44:19 | 51.63474 | 6.63214 | 119° | 66km/h | 16532m | -17.9m/s | -58.9°C | 5.5% | 101.1hPa | 2.6V | 08:19:55 | 02:25:52 | 00:00:00 | |
| DL1XH-west | 2026-09-06 01:44:19 | 51.63451 | 6.63284 | 119° | 64km/h | 16489m | -12.9m/s | -58.7°C | 1.9% | 101.7hPa | 2.5V | 08:20:26 | 02:25:55 | 00:00:00 | |
| BIOWL1-15 | 2026-09-06 01:44:18 | 51.63474 | 6.63214 | 119° | 66km/h | 16532m | -17.9m/s | -58.9°C | 1.8% | 101.1hPa | 2.6V | 08:20:26 | 02:25:52 | 00:00:00 | |
| AA1-15 | 2026-09-06 01:44:15 | 51.63482 | 6.63191 | 119° | 66km/h | 16550m | -18.2m/s | -58.9°C | 1.9% | 100.8hPa | 2.5V | 08:20:26 | 02:25:51 | 00:00:00 | |
| DJ2KF-10 | 2026-09-06 01:44:15 | 51.63482 | 6.63190 | 120° | 64km/h | 16550m | -18.1m/s | -58.9°C | 5.6% | 100.8hPa | 2.5V | 08:19:00 | 02:25:51 | 00:00:00 | |
| DL3AQ-11 | 2026-09-06 01:44:14 | 51.63498 | 6.63143 | 118° | 66km/h | 16585m | -17.0m/s | -59.0°C | 2.1% | 100.3hPa | 2.6V | 00:00:00 | 00:00:00 | 00:00:00 | |
| DJ2DS-15 | 2026-09-06 01:44:13 | 51.63498 | 6.63143 | 118° | 66km/h | 16585m | -17.0m/s | -59.0°C | 2.1% | 100.3hPa | 2.6V | 00:00:00 | 00:00:00 | 00:00:00 | |
| HARRO8 | 2026-09-06 01:44:12 | 51.63515 | 6.63095 | 119° | 66km/h | 16616m | -13.7m/s | -59.1°C | 2.1% | 99.7hPa | 2.6V | 00:00:00 | 00:00:00 | 00:00:00 | |
| GOEST3-10 | 2026-09-06 01:44:11 | 51.63515 | 6.63095 | 120° | 66km/h | 16616m | -13.7m/s | -59.0°C | 5.8% | 99.7hPa | 2.6V | 00:00:00 | 02:25:47 | 00:00:00 | |
| DM0DOS-11 | 2026-09-06 01:44:09 | 51.63550 | 6.62973 | 112° | 64km/h | 16693m | -13.4m/s | -58.9°C | 5.9% | 98.5hPa | 2.6V | 08:20:05 | 02:25:42 | 00:00:00 | |
| DL1XH-west | 2026-09-06 01:44:09 | 51.63531 | 6.63046 | 115° | 68km/h | 16645m | -14.5m/s | -59.1°C | 2% | 99.2hPa | 2.5V | 08:20:26 | 02:25:45 | 00:00:00 | |
| DO2JMG | 2026-09-06 01:44:08 | 51.63537 | 6.63022 | 113° | 66km/h | 16661m | -17.6m/s | -59.1°C | 2% | 99.1hPa | 2.5V | 08:20:26 | 02:25:44 | 00:00:00 | |
| BIOWL1-15 | 2026-09-06 01:44:07 | 51.63556 | 6.62949 | 112° | 64km/h | 16706m | -13.4m/s | -58.8°C | 2% | 98.2hPa | 2.6V | 08:20:26 | 02:25:41 | 00:00:00 | |
| AA1-15 | 2026-09-06 01:44:05 | 51.63562 | 6.62926 | 111° | 62km/h | 16719m | -12.6m/s | -58.7°C | 2% | 98hPa | 2.6V | 08:20:26 | 02:25:40 | 00:00:00 | |
| DO3DL | 2026-09-06 01:44:04 | 51.63556 | 6.62949 | 112° | 64km/h | 16707m | -13.4m/s | -58.8°C | 2.2% | 98.3hPa | 2.5V | 08:20:00 | 00:00:00 | 00:00:00 | |
| EDDB2-12 | 2026-09-06 01:44:03 | 51.63681 | 6.62482 | 119° | 60km/h | 16991m | -13.4m/s | -57.5°C | 2.0% | 94.0hPa | 2.5V | 00:00:00 | 00:00:00 | 00:00:00 | |
| GOEST3-10 | 2026-09-06 01:44:01 | 51.63577 | 6.62855 | 111° | 60km/h | 16756m | -11.5m/s | -58.1°C | 5.6% | 97.4hPa | 2.5V | 00:00:00 | 02:25:37 | 00:00:00 | |
| DO9LL-15 | 2026-09-06 01:44:00 | 51.63582 | 6.62833 | 111° | 58km/h | 16768m | -12.8m/s | -57.9°C | 5.5% | 97.3hPa | 2.5V | 00:00:00 | 02:25:36 | 00:00:00 | |
| DM0DOS-11 | 2026-09-06 01:43:59 | 51.63605 | 6.62742 | 111° | 64km/h | 16831m | -19m/s | -57.7°C | 5.2% | 96.5hPa | 2.5V | 08:20:15 | 02:25:32 | 00:00:00 | |
| DL1XH-west | 2026-09-06 01:43:58 | 51.63593 | 6.62788 | 113° | 60km/h | 16794m | -15m/s | -57.8°C | 1.7% | 96.9hPa | 2.5V | 08:20:26 | 02:25:34 | 00:00:00 | |
| BIOWL1-15 | 2026-09-06 01:43:54 | 51.63617 | 6.62693 | 112° | 66km/h | 16866m | -16.3m/s | -57.6°C | 1.6% | 95.9hPa | 2.6V | 08:20:26 | 02:25:30 | 00:00:00 | |
| AA1-15 | 2026-09-06 01:43:53 | 51.63624 | 6.62669 | 115° | 66km/h | 16881m | -13.8m/s | -57.5°C | 1.6% | 95.6hPa | 2.6V | 08:20:26 | 02:25:29 | 00:00:00 | |
| DO2JMG | 2026-09-06 01:43:47 | 51.63666 | 6.62526 | 118° | 62km/h | 16964m | -14.2m/s | -57.4°C | 1.7% | 94.4hPa | 2.6V | 08:20:26 | 02:25:23 | 00:00:00 | |
| WPPR-10 | 2026-09-06 01:43:45 | 51.63681 | 6.62482 | 119° | 60km/h | 16991m | -13.4m/s | -57.5°C | 2.0% | 94.0hPa | 2.5V | 00:00:00 | 00:00:00 | 00:00:00 | |
| BIOWL1-15 | 2026-09-06 01:43:43 | 51.63696 | 6.62441 | 122° | 58km/h | 17018m | -14.3m/s | -57.1°C | 1.5% | 93.6hPa | 2.5V | 08:21:17 | 02:25:19 | 00:00:00 | |
| AA1-15 | 2026-09-06 01:43:42 | 51.63704 | 6.62422 | 123° | 55km/h | 17035m | -19m/s | -57°C | 1.5% | 93.4hPa | 2.6V | 08:21:17 | 02:25:18 | 00:00:00 | |
| HARRO8 | 2026-09-06 01:43:41 | 51.63719 | 6.62385 | 125° | 51km/h | 17072m | -18.0m/s | -57.2°C | 1.8% | 92.8hPa | 2.6V | 00:00:00 | 00:00:00 | 00:00:00 | |
| DM0DOS-11 | 2026-09-06 01:43:39 | 51.63747 | 6.62321 | 123° | 47km/h | 17134m | -15.5m/s | -57.1°C | 5.1% | 91.9hPa | 2.6V | 08:20:35 | 02:25:12 | 00:00:00 | |
| DL1XH-west | 2026-09-06 01:43:36 | 51.63747 | 6.62321 | 123° | 47km/h | 17134m | -15.5m/s | -57.1°C | 1.6% | 91.9hPa | 2.6V | 08:21:17 | 02:25:12 | 00:00:00 | |
| BIOWL1-15 | 2026-09-06 01:43:33 | 51.63767 | 6.62270 | 121° | 51km/h | 17188m | -17m/s | -57°C | 1.5% | 91.1hPa | 2.5V | 08:21:17 | 02:25:09 | 00:00:00 | |
| AA1-15 | 2026-09-06 01:43:31 | 51.63780 | 6.62234 | 119° | 51km/h | 17220m | -16.2m/s | -56.9°C | 1.5% | 90.7hPa | 2.5V | 08:21:17 | 02:25:07 | 00:00:00 | |
| DO2JMG | 2026-09-06 01:43:26 | 51.63809 | 6.62140 | 112° | 51km/h | 17305m | -13.3m/s | -57°C | 1.6% | 89.4hPa | 2.5V | 08:21:17 | 02:25:02 | 00:00:00 | |
| BIOWL1-15 | 2026-09-06 01:43:24 | 51.63823 | 6.62062 | 103° | 51km/h | 17369m | -18.6m/s | -56.9°C | 1.5% | 88.6hPa | 2.5V | 08:21:17 | 02:24:58 | 00:00:00 | |
| AA1-15 | 2026-09-06 01:43:20 | 51.63829 | 6.62022 | 103° | 49km/h | 17406m | -18.4m/s | -56.6°C | 1.5% | 88.1hPa | 2.5V | 08:21:17 | 02:24:56 | 00:00:00 | |
| DM0DOS-11 | 2026-09-06 01:43:19 | 51.63841 | 6.61946 | 104° | 47km/h | 17472m | -18m/s | -56.2°C | 4.7% | 87.1hPa | 2.6V | 08:20:55 | 02:24:52 | 00:00:00 | |
| DO2JMG | 2026-09-06 01:43:16 | 51.63841 | 6.61946 | 105° | 47km/h | 17472m | -18m/s | -56.2°C | 1.4% | 87.1hPa | 2.6V | 08:21:17 | 02:24:52 | 00:00:00 | |
| BIOWL1-15 | 2026-09-06 01:43:11 | 51.63858 | 6.61848 | 107° | 53km/h | 17564m | -16m/s | -55.8°C | 1.3% | 85.8hPa | 2.6V | 08:21:17 | 02:24:47 | 00:00:00 | |
| GOEST3-10 | 2026-09-06 01:43:11 | 51.63858 | 6.61848 | 107° | 55km/h | 17564m | -16.0m/s | -55.7°C | 4.6% | 85.8hPa | 2.5V | 00:00:00 | 02:24:47 | 00:00:00 | |
| DO3DL | 2026-09-06 01:43:10 | 51.63858 | 6.61848 | 108° | 53km/h | 17564m | -16.0m/s | -55.8°C | 1.6% | 85.9hPa | 2.5V | 08:21:00 | 00:00:00 | 00:00:00 | |
| DM0DOS-11 | 2026-09-06 01:43:09 | 51.63879 | 6.61740 | 107° | 58km/h | 17645m | -19m/s | -55.8°C | 4.5% | 84.8hPa | 2.5V | 08:21:05 | 02:24:42 | 00:00:00 | |
| AA1-15 | 2026-09-06 01:43:09 | 51.63866 | 6.61806 | 107° | 55km/h | 17595m | -16.1m/s | -55.8°C | 1.3% | 85.5hPa | 2.6V | 08:21:17 | 02:24:45 | 00:00:00 | |
| DL1XH-west | 2026-09-06 01:43:05 | 51.63883 | 6.61718 | 108° | 58km/h | 17665m | -20.4m/s | -55.7°C | 1.2% | 84.6hPa | 2.6V | 08:21:17 | 02:24:41 | 00:00:00 | |
| BIOWL1-15 | 2026-09-06 01:43:02 | 51.63908 | 6.61607 | 112° | 57km/h | 17765m | -20.9m/s | -56.2°C | 1.3% | 83.3hPa | 2.5V | 08:21:17 | 02:24:36 | 00:00:00 | |
| DF7PN | 2026-09-06 01:43:02 | 51.63903 | 6.61628 | 111° | 57km/h | 17745m | -19.7m/s | -56.2°C | 1.6% | 83.5hPa | 2.5V | 00:00:00 | 00:00:00 | 00:00:00 | |
| GOEST3-10 | 2026-09-06 01:43:01 | 51.63903 | 6.61628 | 112° | 55km/h | 17745m | -19.6m/s | -56.2°C | 4.6% | 83.5hPa | 2.5V | 00:00:00 | 02:24:37 | 00:00:00 | |
| DO9LL-15 | 2026-09-06 01:43:00 | 51.63908 | 6.61606 | 113° | 46km/h | 17765m | -20.9m/s | -56.1°C | 4.6% | 83.3hPa | 2.5V | 00:00:00 | 02:24:36 | 00:00:00 | |
| DM0DOS-11 | 2026-09-06 01:42:59 | 51.63931 | 6.61529 | 117° | 49km/h | 17848m | -19.2m/s | -56.5°C | 4.7% | 82.2hPa | 2.5V | 08:21:15 | 02:24:32 | 00:00:00 | |
| AA1-15 | 2026-09-06 01:42:58 | 51.63919 | 6.61566 | 115° | 53km/h | 17806m | -20.6m/s | -56.4°C | 1.2% | 82.8hPa | 2.6V | 08:21:17 | 02:24:34 | 00:00:00 | |
| DL1XH-west | 2026-09-06 01:42:55 | 51.63937 | 6.61511 | 118° | 49km/h | 17867m | -19.2m/s | -56.5°C | 1.3% | 82hPa | 2.5V | 08:21:17 | 02:24:31 | 00:00:00 | |
| DL3AQ-11 | 2026-09-06 01:42:54 | 51.63948 | 6.61477 | 118° | 46km/h | 17902m | -15.3m/s | -56.8°C | 1.6% | 81.4hPa | 2.6V | 00:00:00 | 00:00:00 | 00:00:00 | |
| DO2JMG | 2026-09-06 01:42:54 | 51.63942 | 6.61494 | 119° | 47km/h | 17886m | -18m/s | -56.7°C | 1.3% | 81.7hPa | 2.5V | 08:21:17 | 02:24:30 | 00:00:00 | |
| DL1ZP-14 | 2026-09-06 01:42:52 | 51.63959 | 6.61444 | 116° | 44km/h | 17936m | -17.0m/s | -57.0°C | 1.6% | 81.0hPa | 2.6V | 00:00:00 | 00:00:00 | 00:00:00 | |
| DO3DL | 2026-09-06 01:42:51 | 51.63959 | 6.61444 | 118° | 46km/h | 17936m | -17.0m/s | -56.9°C | 1.6% | 81.0hPa | 2.5V | 08:22:00 | 00:00:00 | 00:00:00 | |
| DD1CC1-15 | 2026-09-06 01:42:50 | 51.63959 | 6.61444 | 118° | 46km/h | 17936m | -17.0m/s | -56.9°C | 1.6% | 81.0hPa | 2.5V | 08:22:00 | 00:00:00 | 00:00:00 | |
| DM0DOS-11 | 2026-09-06 01:42:49 | 51.63981 | 6.61366 | 112° | 40km/h | 18029m | -18.2m/s | -57.2°C | 4.9% | 79.8hPa | 2.5V | 08:21:25 | 02:24:22 | 00:00:00 | |
| AA1-15 | 2026-09-06 01:42:48 | 51.63973 | 6.61396 | 113° | 42km/h | 17994m | -18.7m/s | -57.1°C | 1.4% | 80.3hPa | 2.5V | 08:22:08 | 02:24:24 | 00:00:00 | |
| DL1XH-west | 2026-09-06 01:42:45 | 51.63985 | 6.61351 | 112° | 38km/h | 18048m | -19.4m/s | -57.3°C | 1.4% | 79.7hPa | 2.6V | 08:22:08 | 02:24:21 | 00:00:00 | |
| DO2JMG | 2026-09-06 01:42:43 | 51.63991 | 6.61323 | 110° | 38km/h | 18085m | -18.7m/s | -57.2°C | 1.4% | 79.2hPa | 2.6V | 08:22:08 | 02:24:19 | 00:00:00 | |
| WPPR-10 | 2026-09-06 01:42:43 | 51.63991 | 6.61323 | 110° | 37km/h | 18085m | -18.7m/s | -57.2°C | 1.7% | 79.2hPa | 2.6V | 00:00:00 | 00:00:00 | 00:00:00 | |
| GOEST3-10 | 2026-09-06 01:42:41 | 51.63997 | 6.61293 | 108° | 40km/h | 18122m | -17.0m/s | -56.9°C | 4.8% | 78.6hPa | 2.6V | 00:00:00 | 02:24:17 | 00:00:00 | |
| DM0DOS-11 | 2026-09-06 01:42:39 | 51.64012 | 6.61212 | 108° | 46km/h | 18215m | -18.2m/s | -57.1°C | 5% | 77.5hPa | 2.6V | 08:21:35 | 02:24:12 | 00:00:00 | |
| BIOWL1-15 | 2026-09-06 01:42:38 | 51.64006 | 6.61246 | 106° | 42km/h | 18179m | -19.1m/s | -57°C | 1.3% | 78hPa | 2.6V | 08:22:08 | 02:24:14 | 00:00:00 | |
| DL1XH-west | 2026-09-06 01:42:34 | 51.64020 | 6.61176 | 111° | 49km/h | 18250m | -17.4m/s | -57.2°C | 1.4% | 77.1hPa | 2.5V | 08:22:08 | 02:24:10 | 00:00:00 | |
| DO2JMG | 2026-09-06 01:42:33 | 51.64025 | 6.61157 | 113° | 51km/h | 18266m | -16.4m/s | -57.3°C | 1.5% | 76.9hPa | 2.5V | 08:22:08 | 02:24:09 | 00:00:00 | |
| DF5WG-10 | 2026-09-06 01:42:33 | 51.64025 | 6.61157 | 114° | 51km/h | 18267m | -16.4m/s | -57.2°C | 5.1% | 76.8hPa | 2.5V | 00:00:00 | 02:24:09 | 00:00:00 | |
| GOEST3-10 | 2026-09-06 01:42:31 | 51.64035 | 6.61119 | 114° | 51km/h | 18304m | -20.5m/s | -57.5°C | 5.3% | 76.5hPa | 2.6V | 00:00:00 | 02:24:07 | 00:00:00 | |
| DO9LL-15 | 2026-09-06 01:42:30 | 51.64040 | 6.61099 | 114° | 44km/h | 18324m | -20.1m/s | -57.6°C | 5.4% | 76.2hPa | 2.5V | 00:00:00 | 02:24:06 | 00:00:00 | |
| DM0DOS-11 | 2026-09-06 01:42:29 | 51.64058 | 6.61023 | 109° | 49km/h | 18399m | -17.1m/s | -57.6°C | 5.6% | 75.3hPa | 2.5V | 08:21:45 | 02:24:02 | 00:00:00 | |
| BIOWL1-15 | 2026-09-06 01:42:27 | 51.64054 | 6.61042 | 109° | 49km/h | 18381m | -18.7m/s | -57.8°C | 1.7% | 75.5hPa | 2.5V | 08:22:08 | 02:24:03 | 00:00:00 | |
| DL1XH-west | 2026-09-06 01:42:23 | 51.64072 | 6.60967 | 114° | 49km/h | 18456m | -18.1m/s | -57.2°C | 1.6% | 74.6hPa | 2.6V | 08:22:08 | 02:23:59 | 00:00:00 | |
| DO2JMG | 2026-09-06 01:42:22 | 51.64077 | 6.60949 | 116° | 49km/h | 18475m | -19.7m/s | -57.2°C | 1.6% | 74.4hPa | 2.6V | 08:22:08 | 02:23:58 | 00:00:00 | |
| BIOWL1-15 | 2026-09-06 01:42:17 | 51.64111 | 6.60864 | 125° | 49km/h | 18578m | -22.5m/s | -56.6°C | 1.6% | 73.3hPa | 2.6V | 08:22:08 | 02:23:53 | 00:00:00 | |
| AA1-15 | 2026-09-06 01:42:16 | 51.64118 | 6.60848 | 125° | 49km/h | 18600m | -21.9m/s | -56.4°C | 1.6% | 73hPa | 2.6V | 08:22:08 | 02:23:52 | 00:00:00 | |
| DL1XH-west | 2026-09-06 01:42:13 | 51.64138 | 6.60799 | 121° | 46km/h | 18661m | -18.2m/s | -56°C | 1.4% | 72.3hPa | 2.5V | 08:22:08 | 02:23:49 | 00:00:00 | |
| WPPR-10 | 2026-09-06 01:42:12 | 51.64143 | 6.60783 | 117° | 46km/h | 18681m | -22.7m/s | -55.8°C | 1.6% | 72.1hPa | 2.5V | 00:00:00 | 00:00:00 | 00:00:00 | |
| DO2JMG | 2026-09-06 01:42:12 | 51.64143 | 6.60783 | 117° | 47km/h | 18681m | -22.7m/s | -55.8°C | 1.4% | 72.1hPa | 2.5V | 08:22:08 | 02:23:48 | 00:00:00 | |
| GOEST3-10 | 2026-09-06 01:42:11 | 51.64149 | 6.60766 | 118° | 40km/h | 18704m | -22.9m/s | -55.6°C | 4.9% | 71.8hPa | 2.5V | 00:00:00 | 02:23:47 | 00:00:00 | |
| DO3DL | 2026-09-06 01:42:10 | 51.64149 | 6.60766 | 119° | 44km/h | 18704m | -23.0m/s | -55.6°C | 1.6% | 71.9hPa | 2.5V | 08:22:00 | 00:00:00 | 00:00:00 | |
| DM0DOS-11 | 2026-09-06 01:42:09 | 51.64169 | 6.60691 | 115° | 37km/h | 18813m | -20.6m/s | -54.3°C | 4.5% | 70.6hPa | 2.5V | 08:22:05 | 02:23:42 | 00:00:00 | |
| BIOWL1-15 | 2026-09-06 01:42:09 | 51.64165 | 6.60705 | 111° | 37km/h | 18793m | -20.7m/s | -54.6°C | 1.2% | 70.8hPa | 2.5V | 08:22:08 | 02:23:43 | 00:00:00 | |
| AA1-15 | 2026-09-06 01:42:05 | 51.64173 | 6.60677 | 111° | 37km/h | 18835m | -20.4m/s | -53.8°C | 1% | 70.4hPa | 2.5V | 08:22:08 | 02:23:41 | 00:00:00 | |
| DL1XH-west | 2026-09-06 01:42:03 | 51.64179 | 6.60651 | 114° | 31km/h | 18881m | -25.6m/s | -52.9°C | 0.8% | 70hPa | 2.6V | 08:22:08 | 02:23:39 | 00:00:00 | |
| DO2JMG | 2026-09-06 01:42:01 | 51.64186 | 6.60629 | 122° | 31km/h | 18933m | -26.9m/s | -52.6°C | 0.7% | 69.5hPa | 2.6V | 08:22:59 | 02:23:37 | 00:00:00 | |
| BIOWL1-15 | 2026-09-06 01:41:57 | 51.64200 | 6.60589 | 117° | 27km/h | 19039m | -24.4m/s | -53.1°C | 0.8% | 68.3hPa | 2.5V | 08:22:59 | 02:23:33 | 00:00:00 | |
| AA1-15 | 2026-09-06 01:41:55 | 51.64207 | 6.60571 | 128° | 26km/h | 19087m | -23.5m/s | -53.4°C | 0.8% | 67.7hPa | 2.6V | 08:22:59 | 02:23:31 | 00:00:00 | |
| DL1XH-west | 2026-09-06 01:41:52 | 51.64218 | 6.60549 | 130° | 20km/h | 19162m | -24.1m/s | -53.9°C | 0.9% | 67hPa | 2.5V | 08:22:59 | 02:23:28 | 00:00:00 | |
| DO2JMG | 2026-09-06 01:41:50 | 51.64226 | 6.60536 | 133° | 20km/h | 19207m | -22.1m/s | -54.2°C | 0.9% | 66.5hPa | 2.5V | 08:22:59 | 02:23:26 | 00:00:00 | |
| DL1ZP-14 | 2026-09-06 01:41:50 | 51.64229 | 6.60529 | 124° | 20km/h | 19229m | -21.8m/s | -54.4°C | 1.4% | 66.2hPa | 2.6V | 00:00:00 | 00:00:00 | 00:00:00 | |
| DM0DOS-11 | 2026-09-06 01:41:49 | 51.64238 | 6.60508 | 115° | 20km/h | 19295m | -23.1m/s | -54.5°C | 4.3% | 65.6hPa | 2.5V | 08:22:25 | 02:23:22 | 00:00:00 | |
| BIOWL1-15 | 2026-09-06 01:41:49 | 51.64238 | 6.60508 | 115° | 20km/h | 19295m | -23.1m/s | -54.5°C | 1% | 65.6hPa | 2.5V | 08:22:59 | 02:23:22 | 00:00:00 | |
| AA1-15 | 2026-09-06 01:41:45 | 51.64240 | 6.60500 | 110° | 22km/h | 19318m | -23.1m/s | -54.2°C | 1% | 65.4hPa | 2.5V | 08:22:59 | 02:23:21 | 00:00:00 | |
| DL1XH-west | 2026-09-06 01:41:41 | 51.64245 | 6.60460 | 93° | 27km/h | 19404m | -21.5m/s | -54°C | 0.9% | 64.4hPa | 2.6V | 08:22:59 | 02:23:17 | 00:00:00 | |
| DM0DOS-11 | 2026-09-06 01:41:39 | 51.64249 | 6.60394 | 97° | 37km/h | 19534m | -27.8m/s | -54.8°C | 4.3% | 63.2hPa | 2.5V | 08:22:35 | 02:23:12 | 00:00:00 | |
| DO2JMG | 2026-09-06 01:41:39 | 51.64245 | 6.60437 | 92° | 31km/h | 19450m | -25.2m/s | -54.2°C | 1% | 64hPa | 2.5V | 08:22:59 | 02:23:15 | 00:00:00 | |
| BIOWL1-15 | 2026-09-06 01:41:35 | 51.64250 | 6.60379 | 98° | 40km/h | 19561m | -27.4m/s | -55.1°C | 1.1% | 63hPa | 2.6V | 08:22:59 | 02:23:11 | 00:00:00 | |
| AA1-15 | 2026-09-06 01:41:34 | 51.64251 | 6.60363 | 103° | 40km/h | 19588m | -26.7m/s | -55.2°C | 1.2% | 62.6hPa | 2.6V | 08:22:59 | 02:23:10 | 00:00:00 | |
| DL1XH-west | 2026-09-06 01:41:30 | 51.64263 | 6.60297 | 107° | 42km/h | 19690m | -23.5m/s | -55.5°C | 1.3% | 61.7hPa | 2.5V | 08:22:59 | 02:23:06 | 00:00:00 | |
| DO9LL-15 | 2026-09-06 01:41:30 | 51.64263 | 6.60297 | 108° | 31km/h | 19690m | -23.4m/s | -55.5°C | 4.8% | 61.6hPa | 2.5V | 08:22:00 | 02:23:06 | 00:00:00 | |
| DM0DOS-11 | 2026-09-06 01:41:29 | 51.64277 | 6.60237 | 111° | 37km/h | 19773m | -18.1m/s | -55.1°C | 4.7% | 60.7hPa | 2.6V | 08:22:45 | 02:23:02 | 00:00:00 | |
| DO2JMG | 2026-09-06 01:41:28 | 51.64270 | 6.60266 | 110° | 40km/h | 19735m | -20.6m/s | -55.7°C | 1.4% | 61.2hPa | 2.6V | 08:22:59 | 02:23:04 | 00:00:00 | |
| BIOWL1-15 | 2026-09-06 01:41:27 | 51.64281 | 6.60224 | 111° | 35km/h | 19793m | -20.9m/s | -54.8°C | 1.1% | 60.6hPa | 2.5V | 08:22:59 | 02:23:01 | 00:00:00 | |
| AA1-15 | 2026-09-06 01:41:23 | 51.64287 | 6.60198 | 112° | 35km/h | 19841m | -24.4m/s | -54.4°C | 1.1% | 60.3hPa | 2.5V | 08:22:59 | 02:22:59 | 00:00:00 | |
| DL1XH-west | 2026-09-06 01:41:20 | 51.64296 | 6.60161 | 115° | 29km/h | 19921m | -27.8m/s | -53.8°C | 0.9% | 59.6hPa | 2.5V | 08:22:59 | 02:22:56 | 00:00:00 | |
| DM0DOS-11 | 2026-09-06 01:41:19 | 51.64309 | 6.60117 | 108° | 29km/h | 20030m | -26.2m/s | -53.9°C | 4% | 58.5hPa | 2.6V | 08:22:55 | 02:22:52 | 00:00:00 | |
| DO2JMG | 2026-09-06 01:41:17 | 51.64306 | 6.60128 | 114° | 29km/h | 20003m | -27.6m/s | -53.8°C | 0.8% | 58.8hPa | 2.6V | 08:22:59 | 02:22:53 | 00:00:00 | |
| BIOWL1-15 | 2026-09-06 01:41:16 | 51.64313 | 6.60094 | 103° | 29km/h | 20081m | -24.4m/s | -54.2°C | 0.9% | 58hPa | 2.5V | 08:22:59 | 02:22:50 | 00:00:00 | |
| AA1-15 | 2026-09-06 01:41:13 | 51.64314 | 6.60083 | 101° | 29km/h | 20105m | -24.4m/s | -54.3°C | 1% | 57.8hPa | 2.5V | 08:22:59 | 02:22:49 | 00:00:00 | |
| DL1XH-west | 2026-09-06 01:41:10 | 51.64316 | 6.60050 | 91° | 26km/h | 20173m | -21.9m/s | -54.5°C | 1% | 57.1hPa | 2.6V | 08:23:50 | 02:22:46 | 00:00:00 | |
| DO2JMG | 2026-09-06 01:41:06 | 51.64314 | 6.60008 | 81° | 26km/h | 20253m | -17.1m/s | -54.5°C | 1% | 56.4hPa | 2.5V | 08:23:50 | 02:22:42 | 00:00:00 | |
| BIOWL1-15 | 2026-09-06 01:41:03 | 51.64312 | 6.59977 | 89° | 27km/h | 20308m | -19.9m/s | -54.5°C | 1.1% | 55.9hPa | 2.6V | 08:23:50 | 02:22:39 | 00:00:00 | |
| AA1-15 | 2026-09-06 01:41:02 | 51.64312 | 6.59965 | 94° | 29km/h | 20328m | -21.2m/s | -54.3°C | 1.1% | 55.8hPa | 2.5V | 08:23:50 | 02:22:38 | 00:00:00 | |
| DL1XH-west | 2026-09-06 01:40:59 | 51.64316 | 6.59924 | 103° | 38km/h | 20388m | -20.3m/s | -54.3°C | 1% | 55.2hPa | 2.5V | 08:23:50 | 02:22:35 | 00:00:00 | |
| DO2JMG | 2026-09-06 01:40:56 | 51.64324 | 6.59875 | 106° | 46km/h | 20449m | -19.6m/s | -54.4°C | 1.1% | 54.7hPa | 2.6V | 08:23:50 | 02:22:32 | 00:00:00 | |
| HSKMA3-T | 2026-09-06 01:40:54 | 51.64330 | 6.59839 | 105° | 46km/h | 20491m | -24.3m/s | -54.4°C | 1% | 54.4hPa | 2.5V | 08:28:05 | 02:22:30 | 00:00:00 | |
| BIOWL1-15 | 2026-09-06 01:40:53 | 51.64333 | 6.59821 | 106° | 44km/h | 20516m | -23.9m/s | -54.6°C | 1.1% | 54.2hPa | 2.5V | 08:23:50 | 02:22:29 | 00:00:00 | |
| AA1-15 | 2026-09-06 01:40:51 | 51.64339 | 6.59788 | 106° | 42km/h | 20561m | -20.4m/s | -55°C | 1.2% | 53.8hPa | 2.6V | 08:23:50 | 02:22:27 | 00:00:00 | |
| BUE01 | 2026-09-06 01:40:50 | 51.64344 | 6.59757 | 106° | 37km/h | 20600m | -20.1m/s | -54.6°C | 1.4% | 53.4hPa | 2.5V | 00:00:00 | 00:00:00 | 00:00:00 | |
| DM0DOS-11 | 2026-09-06 01:40:49 | 51.64351 | 6.59719 | 103° | 27km/h | 20662m | -20.6m/s | -53.9°C | 4.2% | 52.9hPa | 2.5V | 08:23:25 | 02:22:22 | 00:00:00 | |
| BIOWL1-15 | 2026-09-06 01:40:48 | 51.64355 | 6.59680 | 93° | 22km/h | 20744m | -20.8m/s | -54.1°C | 1% | 52.3hPa | 2.6V | 08:23:50 | 02:22:18 | 00:00:00 | |
| DL1XH-west | 2026-09-06 01:40:48 | 51.64347 | 6.59743 | 106° | 35km/h | 20620m | -20.1m/s | -54.4°C | 1.1% | 53.2hPa | 2.5V | 08:23:50 | 02:22:24 | 00:00:00 | |
| DO2JMG | 2026-09-06 01:40:46 | 51.64351 | 6.59719 | 103° | 27km/h | 20662m | -20.6m/s | -53.9°C | 0.9% | 52.9hPa | 2.5V | 08:23:50 | 02:22:22 | 00:00:00 | |
| HTAHTA | 2026-09-06 01:40:45 | 51.64352 | 6.59708 | 102° | 26km/h | 20682m | -20.7m/s | -54.0°C | 1.3% | 52.7hPa | 2.5V | 00:00:00 | 00:00:00 | 00:00:00 | |
| AA1-15 | 2026-09-06 01:40:41 | 51.64355 | 6.59671 | 86° | 22km/h | 20765m | -21.2m/s | -54°C | 1% | 52.1hPa | 2.5V | 08:23:50 | 02:22:17 | 00:00:00 | |
| DL1XH-west | 2026-09-06 01:40:38 | 51.64351 | 6.59643 | 76° | 26km/h | 20831m | -22.7m/s | -54°C | 1% | 51.6hPa | 2.6V | 08:23:50 | 02:22:14 | 00:00:00 | |
| DO2JMG | 2026-09-06 01:40:36 | 51.64348 | 6.59623 | 74° | 27km/h | 20878m | -25m/s | -54.1°C | 1% | 51.2hPa | 2.5V | 08:23:50 | 02:22:12 | 00:00:00 | |
| BIOWL1-15 | 2026-09-06 01:40:32 | 51.64340 | 6.59581 | 76° | 27km/h | 20967m | -20.7m/s | -53.8°C | 0.9% | 50.5hPa | 2.6V | 08:23:50 | 02:22:08 | 00:00:00 | |
| AA1-15 | 2026-09-06 01:40:30 | 51.64339 | 6.59561 | 91° | 24km/h | 21014m | -27.5m/s | -53.6°C | 0.8% | 50.2hPa | 2.5V | 08:23:50 | 02:22:06 | 00:00:00 | |
| DO9LL-15 | 2026-09-06 01:40:30 | 51.64339 | 6.59561 | 92° | 24km/h | 21014m | -27.5m/s | -53.5°C | 4.0% | 50.2hPa | 2.6V | 00:00:00 | 02:22:06 | 00:00:00 | |
| DM0DOS-11 | 2026-09-06 01:40:29 | 51.64344 | 6.59524 | 109° | 22km/h | 21111m | -24.5m/s | -54.2°C | 4.1% | 49.4hPa | 2.6V | 08:23:45 | 02:22:02 | 00:00:00 | |
| DL1XH-west | 2026-09-06 01:40:27 | 51.64342 | 6.59533 | 106° | 24km/h | 21088m | -22.3m/s | -54°C | 0.9% | 49.6hPa | 2.5V | 08:23:50 | 02:22:03 | 00:00:00 | |
| DO2JMG | 2026-09-06 01:40:25 | 51.64346 | 6.59515 | 112° | 24km/h | 21135m | -22.5m/s | -54.3°C | 0.9% | 49.2hPa | 2.6V | 08:23:50 | 02:22:01 | 00:00:00 | |
| DL3AQ-11 | 2026-09-06 01:40:25 | 51.64348 | 6.59507 | 110° | 22km/h | 21157m | -22.3m/s | -54.4°C | 1.3% | 49.0hPa | 2.5V | 00:00:00 | 00:00:00 | 00:00:00 | |
| DL4BBY-15 | 2026-09-06 01:40:24 | 51.64348 | 6.59506 | 111° | 22km/h | 21157m | -22.3m/s | -54.0°C | 0% | 0hPa | 2.5V | 00:00:00 | 00:00:00 | 00:00:00 | |
| DK5PH-5 | 2026-09-06 01:40:23 | 51.64349 | 6.59498 | 106° | 20km/h | 21181m | -23.9m/s | -54.3°C | 4.2% | 48.8hPa | 2.5V | 00:00:00 | 02:21:59 | 00:00:00 | |
| DO3MHA-11 | 2026-09-06 01:40:22 | 51.64351 | 6.59489 | 98° | 18km/h | 21206m | -27.8m/s | -54.3°C | 4.2% | 48.7hPa | 2.5V | 00:00:00 | 02:21:58 | 00:00:00 | |
| DL1XH-15 | 2026-09-06 01:40:21 | 51.64348 | 6.59432 | 82° | 27km/h | 21350m | -22m/s | -54.3°C | 4.2% | 47.6hPa | 2.5V | 08:23:55 | 02:21:52 | 00:00:00 | |
| BIOWL1-15 | 2026-09-06 01:40:21 | 51.64351 | 6.59480 | 91° | 22km/h | 21233m | -25.5m/s | -54.4°C | 1% | 48.5hPa | 2.5V | 08:23:50 | 02:21:57 | 00:00:00 | |
| AA1-15 | 2026-09-06 01:40:19 | 51.64351 | 6.59462 | 82° | 24km/h | 21283m | -23.6m/s | -54°C | 0.9% | 48.1hPa | 2.6V | 08:24:41 | 02:21:55 | 00:00:00 | |
| DL1XH-west | 2026-09-06 01:40:16 | 51.64348 | 6.59432 | 83° | 27km/h | 21350m | -22m/s | -54.3°C | 1% | 47.6hPa | 2.5V | 08:24:41 | 02:21:52 | 00:00:00 | |
| DO2JMG | 2026-09-06 01:40:14 | 51.64348 | 6.59411 | 96° | 27km/h | 21397m | -25m/s | -54.6°C | 1% | 47.3hPa | 2.5V | 08:24:41 | 02:21:50 | 00:00:00 | |
| BIOWL1-15 | 2026-09-06 01:40:10 | 51.64358 | 6.59369 | 127° | 27km/h | 21494m | -24.5m/s | -54.9°C | 1% | 46.5hPa | 2.5V | 08:24:41 | 02:21:46 | 00:00:00 | |
| DM0DOS-11 | 2026-09-06 01:40:09 | 51.64377 | 6.59341 | 148° | 22km/h | 21592m | -25.9m/s | -55.6°C | 4.8% | 45.8hPa | 2.6V | 08:24:05 | 02:21:42 | 00:00:00 | |
| AA1-15 | 2026-09-06 01:40:08 | 51.64367 | 6.59353 | 139° | 27km/h | 21542m | -22.2m/s | -55.3°C | 1.2% | 46.2hPa | 2.6V | 08:24:41 | 02:21:44 | 00:00:00 | |
| DL1XH-west | 2026-09-06 01:40:05 | 51.64381 | 6.59337 | 152° | 20km/h | 21617m | -24.2m/s | -55.7°C | 1.3% | 45.7hPa | 2.5V | 08:24:41 | 02:21:41 | 00:00:00 | |
| DO2JMG | 2026-09-06 01:40:03 | 51.64389 | 6.59331 | 156° | 15km/h | 21664m | -24.5m/s | -55.3°C | 1.2% | 45.3hPa | 2.5V | 08:24:41 | 02:21:39 | 00:00:00 | |
| EDDB2-11 | 2026-09-06 01:40:03 | 51.64426 | 6.59307 | 166° | 15km/h | 21937m | -23.7m/s | -54.3°C | 1.3% | 43.4hPa | 2.6V | 00:00:00 | 00:00:00 | 00:00:00 | |
| GOEST3-10 | 2026-09-06 01:40:01 | 51.64396 | 6.59326 | 162° | 13km/h | 21714m | -24.5m/s | -55.1°C | 4.6% | 44.9hPa | 2.6V | 00:00:00 | 02:21:37 | 00:00:00 | |
| DO9LL-15 | 2026-09-06 01:40:00 | 51.64399 | 6.59324 | 162° | 15km/h | 21738m | -22.3m/s | -55.1°C | 4.6% | 44.7hPa | 2.6V | 00:00:00 | 02:21:36 | 00:00:00 | |
| DM0DOS-11 | 2026-09-06 01:39:59 | 51.64411 | 6.59316 | 154° | 13km/h | 21834m | -26.6m/s | -54.3°C | 4.3% | 44.1hPa | 2.5V | 08:24:15 | 02:21:32 | 00:00:00 | |
| BIOWL1-15 | 2026-09-06 01:39:59 | 51.64402 | 6.59323 | 156° | 13km/h | 21761m | -24.2m/s | -55.1°C | 1.2% | 44.7hPa | 2.6V | 08:24:41 | 02:21:35 | 00:00:00 | |
| AA1-15 | 2026-09-06 01:39:57 | 51.64408 | 6.59318 | 152° | 13km/h | 21809m | -24m/s | -54.9°C | 1.2% | 44.3hPa | 2.5V | 08:24:41 | 02:21:33 | 00:00:00 | |
| DL1XH-west | 2026-09-06 01:39:55 | 51.64414 | 6.59314 | 157° | 15km/h | 21860m | -25.7m/s | -54.2°C | 1% | 44hPa | 2.5V | 08:24:41 | 02:21:31 | 00:00:00 | |
| DO2JMG | 2026-09-06 01:39:53 | 51.64422 | 6.59309 | 163° | 18km/h | 21912m | -26.2m/s | -54.3°C | 1% | 43.6hPa | 2.6V | 08:24:41 | 02:21:29 | 00:00:00 | |
| BIOWL1-15 | 2026-09-06 01:39:50 | 51.64443 | 6.59301 | 172° | 15km/h | 22027m | -25.3m/s | -54.6°C | 1% | 42.8hPa | 2.6V | 08:24:41 | 02:21:24 | 00:00:00 | |
| DB0NH | 2026-09-06 01:39:50 | 51.64434 | 6.59303 | 170° | 20km/h | 21980m | -20.8m/s | -54.3°C | 4.3% | 43.0hPa | 2.5V | 00:00:00 | 02:21:26 | 00:00:00 | |
| DM0DOS-11 | 2026-09-06 01:39:49 | 51.64449 | 6.59301 | 179° | 13km/h | 22076m | -24.5m/s | -54.7°C | 4.6% | 42.5hPa | 2.5V | 08:24:25 | 02:21:22 | 00:00:00 | |
| AA1-15 | 2026-09-06 01:39:47 | 51.64446 | 6.59301 | 179° | 13km/h | 22052m | -24.7m/s | -54.7°C | 1.1% | 42.6hPa | 2.6V | 08:24:41 | 02:21:23 | 00:00:00 | |
| DL1ZP-14 | 2026-09-06 01:39:45 | 51.64452 | 6.59301 | 175° | 9km/h | 22102m | -26.8m/s | -54.5°C | 1.4% | 42.4hPa | 2.5V | 00:00:00 | 00:00:00 | 00:00:00 | |
| DL1XH-west | 2026-09-06 01:39:44 | 51.64454 | 6.59300 | 160° | 7km/h | 22128m | -26.4m/s | -54.3°C | 1% | 42.2hPa | 2.5V | 08:24:41 | 02:21:20 | 00:00:00 | |
| DO2JMG | 2026-09-06 01:39:42 | 51.64456 | 6.59297 | 119° | 5km/h | 22177m | -22.5m/s | -54.4°C | 1.1% | 41.8hPa | 2.6V | 08:24:41 | 02:21:18 | 00:00:00 | |
| AU51GT2 | 2026-09-06 01:39:42 | 51.64456 | 6.59297 | 118° | 5km/h | 22177m | -22.5m/s | -54.4°C | 1.3% | 41.8hPa | 2.6V | 00:00:00 | 00:00:00 | 00:00:00 | |
| DO3MHA-11 | 2026-09-06 01:39:41 | 51.64457 | 6.59295 | 94° | 16km/h | 22200m | -24.0m/s | -54.3°C | 4.5% | 41.6hPa | 2.6V | 00:00:00 | 02:21:17 | 00:00:00 | |
| DO1YAY-16 | 2026-09-06 01:39:40 | 51.64457 | 6.59291 | 77° | 9km/h | 22224m | -24.3m/s | -54.2°C | 1.3% | 41.5hPa | 2.6V | 00:00:00 | 00:00:00 | 00:00:00 | |
| DM0DOS-11 | 2026-09-06 01:39:39 | 51.64453 | 6.59269 | 83° | 18km/h | 22328m | -25.4m/s | -53.9°C | 4.3% | 40.9hPa | 2.6V | 08:24:35 | 02:21:12 | 00:00:00 | |
| BIOWL1-15 | 2026-09-06 01:39:37 | 51.64454 | 6.59276 | 75° | 16km/h | 22301m | -27.8m/s | -53.8°C | 1% | 41hPa | 2.5V | 08:24:41 | 02:21:13 | 00:00:00 | |
| AA1-15 | 2026-09-06 01:39:36 | 51.64453 | 6.59269 | 83° | 18km/h | 22328m | -25.4m/s | -53.9°C | 0.9% | 40.9hPa | 2.6V | 08:24:41 | 02:21:12 | 00:00:00 | |
| DL1XH-west | 2026-09-06 01:39:33 | 51.64455 | 6.59244 | 105° | 24km/h | 22401m | -25.7m/s | -54.2°C | 1.2% | 40.4hPa | 2.5V | 08:24:41 | 02:21:09 | 00:00:00 | |
| DO2JMG | 2026-09-06 01:39:32 | 51.64456 | 6.59234 | 110° | 27km/h | 22427m | -26.4m/s | -54.3°C | 1.2% | 40.2hPa | 2.5V | 08:24:41 | 02:21:08 | 00:00:00 | |
| DM0DOS-11 | 2026-09-06 01:39:31 | 51.64485 | 6.59175 | 138° | 37km/h | 22579m | -25.5m/s | -53.4°C | 4.3% | 39.3hPa | 2.5V | 08:24:45 | 02:21:02 | 00:00:00 | |
| BIOWL1-15 | 2026-09-06 01:39:29 | 51.64478 | 6.59185 | 138° | 37km/h | 22553m | -26.2m/s | -53.3°C | 1% | 39.4hPa | 2.5V | 08:25:32 | 02:21:03 | 00:00:00 | |
| AA1-15 | 2026-09-06 01:39:25 | 51.64492 | 6.59166 | 145° | 35km/h | 22605m | -26.7m/s | -53.4°C | 1% | 39.1hPa | 2.6V | 08:25:32 | 02:21:01 | 00:00:00 | |
| DL1XH-west | 2026-09-06 01:39:23 | 51.64507 | 6.59152 | 154° | 38km/h | 22664m | -31.5m/s | -53.4°C | 1% | 38.8hPa | 2.6V | 08:25:32 | 02:20:59 | 00:00:00 | |
| DO2JMG | 2026-09-06 01:39:22 | 51.64516 | 6.59145 | 157° | 38km/h | 22694m | -29.1m/s | -53.4°C | 1% | 38.6hPa | 2.5V | 08:25:32 | 02:20:58 | 00:00:00 | |
| BIOWL1-15 | 2026-09-06 01:39:18 | 51.64570 | 6.59126 | 181° | 40km/h | 22871m | -30.4m/s | -51.7°C | 0.6% | 37.6hPa | 2.6V | 08:25:32 | 02:20:52 | 00:00:00 | |
| AA1-15 | 2026-09-06 01:39:14 | 51.64589 | 6.59130 | 193° | 40km/h | 22935m | -32.2m/s | -51.2°C | 0.5% | 37.2hPa | 2.5V | 08:25:32 | 02:20:50 | 00:00:00 | |
| DO2JMG | 2026-09-06 01:39:12 | 51.64608 | 6.59140 | 205° | 38km/h | 22996m | -28.1m/s | -51.2°C | 0.5% | 36.9hPa | 2.6V | 08:25:32 | 02:20:48 | 00:00:00 | |
| DM0DOS-11 | 2026-09-06 01:39:11 | 51.64651 | 6.59185 | 213° | 24km/h | 23170m | -31.4m/s | -51.8°C | 3.7% | 35.9hPa | 2.6V | 08:25:05 | 02:20:42 | 00:00:00 | |
| BIOWL1-15 | 2026-09-06 01:39:07 | 51.64656 | 6.59190 | 213° | 22km/h | 23201m | -30.5m/s | -51.9°C | 0.7% | 35.7hPa | 2.6V | 08:25:32 | 02:20:41 | 00:00:00 | |
| AA1-15 | 2026-09-06 01:39:04 | 51.64660 | 6.59194 | 207° | 16km/h | 23230m | -29.3m/s | -52°C | 0.7% | 35.6hPa | 2.5V | 08:25:32 | 02:20:40 | 00:00:00 | |
| DL1XH-west | 2026-09-06 01:39:02 | 51.64668 | 6.59198 | 186° | 15km/h | 23286m | -26.8m/s | -52.2°C | 0.8% | 35.3hPa | 2.5V | 08:25:32 | 02:20:38 | 00:00:00 | |
| DO2JMG | 2026-09-06 01:39:01 | 51.64671 | 6.59198 | 180° | 15km/h | 23314m | -29.2m/s | -52.3°C | 0.7% | 35.1hPa | 2.5V | 08:25:32 | 02:20:37 | 00:00:00 | |
| AA1-15 | 2026-09-06 01:38:54 | 51.64696 | 6.59203 | 203° | 16km/h | 23511m | -26.9m/s | -52.7°C | 0.9% | 34hPa | 2.6V | 08:25:32 | 02:20:30 | 00:00:00 | |
| DL1XH-west | 2026-09-06 01:38:52 | 51.64704 | 6.59207 | 196° | 15km/h | 23564m | -27.3m/s | -52.3°C | 0.9% | 33.8hPa | 2.5V | 08:25:32 | 02:20:28 | 00:00:00 | |
| DO2JMG | 2026-09-06 01:38:50 | 51.64711 | 6.59208 | 173° | 15km/h | 23618m | -26.1m/s | -51.9°C | 0.8% | 33.5hPa | 2.5V | 08:25:32 | 02:20:26 | 00:00:00 | |
| DJ2DS-15 | 2026-09-06 01:38:49 | 51.64718 | 6.59205 | 153° | 16km/h | 23670m | -26.2m/s | -52.0°C | 1.2% | 33.2hPa | 2.5V | 00:00:00 | 00:00:00 | 00:00:00 | |
| BIOWL9-15 | 2026-09-06 01:38:48 | 51.64718 | 6.59205 | 153° | 16km/h | 23670m | -26.2m/s | -52.0°C | 1.2% | 33.2hPa | 2.5V | 00:00:00 | 00:00:00 | 00:00:00 | |
| DB0ND-19 | 2026-09-06 01:38:47 | 51.64726 | 6.59199 | 153° | 16km/h | 23721m | -26.7m/s | -51.8°C | 1.1% | 32.9hPa | 2.5V | 00:00:00 | 00:00:00 | 00:00:00 | |
| BUE01 | 2026-09-06 01:38:46 | 51.64730 | 6.59196 | 156° | 16km/h | 23748m | -26.9m/s | -51.8°C | 1.1% | 32.8hPa | 2.5V | 00:00:00 | 00:00:00 | 00:00:00 | |
| BIOWL1-15 | 2026-09-06 01:38:44 | 51.64734 | 6.59193 | 159° | 16km/h | 23775m | -26.3m/s | -51.9°C | 0.8% | 32.7hPa | 2.5V | 08:25:32 | 02:20:20 | 00:00:00 | |
| DL1ZP-14 | 2026-09-06 01:38:43 | 51.64737 | 6.59192 | 174° | 13km/h | 23801m | -25.9m/s | -52.0°C | 1.2% | 32.5hPa | 2.6V | 00:00:00 | 00:00:00 | 00:00:00 | |
| DD1CC9-15 | 2026-09-06 01:38:42 | 51.64737 | 6.59192 | 175° | 15km/h | 23801m | -25.9m/s | -52.0°C | 1.2% | 32.5hPa | 2.6V | 08:25:00 | 00:00:00 | 00:00:00 | |
| DM0DOS-11 | 2026-09-06 01:38:41 | 51.64753 | 6.59197 | 36° | 0km/h | 23984m | -27.4m/s | -51.3°C | 3.9% | 31.6hPa | 2.6V | 08:25:35 | 02:20:12 | 00:00:00 | |
| DL1XH-west | 2026-09-06 01:38:41 | 51.64744 | 6.59192 | 195° | 11km/h | 23852m | -25.6m/s | -51.9°C | 0.8% | 32.3hPa | 2.5V | 08:25:32 | 02:20:17 | 00:00:00 | |
| DO2JMG | 2026-09-06 01:38:39 | 51.64749 | 6.59195 | 206° | 9km/h | 23904m | -28m/s | -51.6°C | 0.7% | 32hPa | 2.5V | 08:25:32 | 02:20:15 | 00:00:00 | |
| BIOWL1-15 | 2026-09-06 01:38:33 | 51.64751 | 6.59193 | 52° | 7km/h | 24061m | -25.9m/s | -50.7°C | 0.6% | 31.2hPa | 2.5V | 08:26:23 | 02:20:09 | 00:00:00 | |
| DH3RM | 2026-09-06 01:38:32 | 51.64751 | 6.59193 | 53° | 7km/h | 24061m | -25.9m/s | -50.7°C | 1.0% | 31.2hPa | 2.5V | 08:26:00 | 00:00:00 | 00:00:00 | |
| DM0DOS-11 | 2026-09-06 01:38:31 | 51.64743 | 6.59169 | 88° | 5km/h | 24249m | -28.2m/s | -50.6°C | 3.7% | 30.4hPa | 2.5V | 08:25:45 | 02:20:02 | 00:00:00 | |
| DL1XH-west | 2026-09-06 01:38:31 | 51.64748 | 6.59186 | 62° | 11km/h | 24113m | -27.2m/s | -50.7°C | 0.6% | 31hPa | 2.6V | 08:26:23 | 02:20:07 | 00:00:00 | |
| DO2JMG | 2026-09-06 01:38:28 | 51.64744 | 6.59175 | 58° | 9km/h | 24194m | -27.2m/s | -50.8°C | 0.7% | 30.6hPa | 2.5V | 08:26:23 | 02:20:04 | 00:00:00 | |
| AA1-15 | 2026-09-06 01:38:23 | 51.64745 | 6.59165 | 177° | 7km/h | 24341m | -31.8m/s | -50.3°C | 0.6% | 30hPa | 2.5V | 08:26:23 | 02:19:59 | 00:00:00 | |
| BIOWL1-15 | 2026-09-06 01:38:22 | 51.64748 | 6.59165 | 180° | 11km/h | 24372m | -31.3m/s | -50.3°C | 0.5% | 29.9hPa | 2.5V | 08:26:23 | 02:19:58 | 00:00:00 | |
| DL1XH-west | 2026-09-06 01:38:20 | 51.64754 | 6.59166 | 188° | 15km/h | 24429m | -27.3m/s | -50.5°C | 0.6% | 29.6hPa | 2.6V | 08:26:23 | 02:19:56 | 00:00:00 | |
| BIOWL7-15 | 2026-09-06 01:38:19 | 51.64754 | 6.59166 | 189° | 15km/h | 24430m | -27.3m/s | -50.5°C | 1.0% | 29.6hPa | 2.5V | 00:00:00 | 00:00:00 | 00:00:00 | |
| BIOWL9-15 | 2026-09-06 01:38:17 | 51.64766 | 6.59168 | 180° | 13km/h | 24516m | -30.7m/s | -50.4°C | 1.0% | 29.2hPa | 2.5V | 00:00:00 | 00:00:00 | 00:00:00 | |
| DO2JMG | 2026-09-06 01:38:17 | 51.64766 | 6.59168 | 181° | 15km/h | 24516m | -30.7m/s | -50.4°C | 0.6% | 29.2hPa | 2.5V | 08:26:23 | 02:19:53 | 00:00:00 | |
| DB0ND-19 | 2026-09-06 01:38:16 | 51.64774 | 6.59168 | 175° | 16km/h | 24577m | -33.1m/s | -50.2°C | 1.0% | 29.0hPa | 2.5V | 00:00:00 | 00:00:00 | 00:00:00 | |
| BUE01 | 2026-09-06 01:38:15 | 51.64778 | 6.59167 | 160° | 13km/h | 24610m | -32.2m/s | -50.1°C | 1.0% | 28.8hPa | 2.5V | 00:00:00 | 00:00:00 | 00:00:00 | |
| DL3AQ-11 | 2026-09-06 01:38:14 | 51.64782 | 6.59165 | 165° | 13km/h | 24642m | -31.6m/s | -49.9°C | 1.0% | 28.7hPa | 2.5V | 00:00:00 | 00:00:00 | 00:00:00 | |
| DJ2DS-15 | 2026-09-06 01:38:13 | 51.64785 | 6.59164 | 161° | 15km/h | 24673m | -31.2m/s | -49.8°C | 1.0% | 28.5hPa | 2.5V | 00:00:00 | 00:00:00 | 00:00:00 | |
| AA1-15 | 2026-09-06 01:38:13 | 51.64782 | 6.59165 | 165° | 15km/h | 24642m | -31.6m/s | -49.9°C | 0.5% | 28.7hPa | 2.6V | 08:26:23 | 02:19:49 | 00:00:00 | |
| DL1ZP-14 | 2026-09-06 01:38:12 | 51.64785 | 6.59164 | 161° | 15km/h | 24673m | -31.2m/s | -49.8°C | 1.0% | 28.5hPa | 2.5V | 00:00:00 | 00:00:00 | 00:00:00 | |
| BIOWL1-15 | 2026-09-06 01:38:12 | 51.64785 | 6.59164 | 161° | 15km/h | 24673m | -31.2m/s | -49.8°C | 0.5% | 28.5hPa | 2.5V | 08:26:23 | 02:19:48 | 00:00:00 | |
| DM0DOS-11 | 2026-09-06 01:38:11 | 51.64811 | 6.59150 | 176° | 24km/h | 24850m | -28.4m/s | -49.4°C | 3.4% | 27.7hPa | 2.5V | 08:26:05 | 02:19:42 | 00:00:00 | |
| DL1XH-west | 2026-09-06 01:38:09 | 51.64796 | 6.59156 | 157° | 18km/h | 24762m | -30.2m/s | -49.7°C | 0.5% | 28.1hPa | 2.6V | 08:26:23 | 02:19:45 | 00:00:00 | |
| DO2JMG | 2026-09-06 01:38:07 | 51.64805 | 6.59151 | 172° | 22km/h | 24821m | -28.6m/s | -49.5°C | 0.4% | 27.8hPa | 2.6V | 08:26:23 | 02:19:43 | 00:00:00 | |
| AA1-15 | 2026-09-06 01:38:02 | 51.64835 | 6.59153 | 194° | 22km/h | 24977m | -32.2m/s | -48.9°C | 0.3% | 27.2hPa | 2.6V | 08:26:23 | 02:19:38 | 00:00:00 | |
| BIOWL1-15 | 2026-09-06 01:38:01 | 51.64840 | 6.59155 | 202° | 18km/h | 25008m | -29.9m/s | -48.8°C | 0.3% | 27.1hPa | 2.5V | 08:26:23 | 02:19:37 | 00:00:00 | |
| DL1XH-west | 2026-09-06 01:37:59 | 51.64846 | 6.59161 | 218° | 13km/h | 25076m | -34.1m/s | -48.8°C | 0.2% | 26.8hPa | 2.5V | 08:26:23 | 02:19:35 | 00:00:00 | |
| DO2JMG | 2026-09-06 01:37:57 | 51.64850 | 6.59169 | 256° | 15km/h | 25143m | -32.9m/s | -48.9°C | 0.2% | 26.6hPa | 2.6V | 08:26:23 | 02:19:33 | 00:00:00 | |
| AA1-15 | 2026-09-06 01:37:52 | 51.64846 | 6.59195 | 308° | 16km/h | 25296m | -29.2m/s | -49.4°C | 0.3% | 25.9hPa | 2.5V | 08:26:23 | 02:19:28 | 00:00:00 | |
| BIOWL1-15 | 2026-09-06 01:37:50 | 51.64829 | 6.59216 | 339° | 16km/h | 25452m | -30.5m/s | -49.3°C | 0.3% | 25.3hPa | 2.5V | 08:27:14 | 02:19:23 | 00:00:00 | |
| DM0DOS-11 | 2026-09-06 01:37:50 | 51.64822 | 6.59219 | 345° | 13km/h | 25514m | -31.3m/s | -49.5°C | 3.4% | 25.1hPa | 2.6V | 08:26:26 | 02:19:21 | 00:00:00 | |
| DL1XH-west | 2026-09-06 01:37:49 | 51.64836 | 6.59209 | 325° | 18km/h | 25390m | -31.2m/s | -49.1°C | 0.3% | 25.6hPa | 2.6V | 08:26:23 | 02:19:25 | 00:00:00 | |
| DO2JMG | 2026-09-06 01:37:46 | 51.64825 | 6.59218 | 342° | 15km/h | 25482m | -30.9m/s | -49.4°C | 0.3% | 25.2hPa | 2.5V | 08:27:14 | 02:19:22 | 00:00:00 | |
| BIOWL1-15 | 2026-09-06 01:37:42 | 51.64813 | 6.59223 | 336° | 2km/h | 25671m | -34.4m/s | -49.9°C | 0.5% | 24.5hPa | 2.6V | 08:27:14 | 02:19:16 | 00:00:00 | |
| AA1-15 | 2026-09-06 01:37:41 | 51.64814 | 6.59223 | 340° | 4km/h | 25639m | -31.4m/s | -49.9°C | 0.4% | 24.6hPa | 2.5V | 08:27:14 | 02:19:17 | 00:00:00 | |
| GOEST3-10 | 2026-09-06 01:37:41 | 51.64814 | 6.59223 | 341° | 5km/h | 25639m | -31.3m/s | -49.8°C | 3.5% | 24.6hPa | 2.5V | 00:00:00 | 02:19:17 | 00:00:00 | |
| DM0DOS-11 | 2026-09-06 01:37:40 | 51.64808 | 6.59227 | 323° | 7km/h | 25845m | -34.3m/s | -49.9°C | 3.5% | 23.9hPa | 2.5V | 08:26:36 | 02:19:11 | 00:00:00 | |
| DL1XH-west | 2026-09-06 01:37:38 | 51.64812 | 6.59224 | 312° | 4km/h | 25740m | -34.7m/s | -49.9°C | 0.5% | 24.2hPa | 2.6V | 08:27:14 | 02:19:14 | 00:00:00 | |
| DO2JMG | 2026-09-06 01:37:35 | 51.64808 | 6.59227 | 323° | 7km/h | 25845m | -34.3m/s | -49.9°C | 0.5% | 23.9hPa | 2.5V | 08:27:14 | 02:19:11 | 00:00:00 | |
| HSKMA3-T | 2026-09-06 01:37:32 | 51.64802 | 6.59230 | 338° | 7km/h | 25946m | -31.7m/s | -50°C | 0.5% | 23.5hPa | 2.5V | 08:28:05 | 02:19:08 | 00:00:00 | |
| DL1XH-15 | 2026-09-06 01:37:31 | 51.64797 | 6.59224 | 116° | 9km/h | 26154m | -38.4m/s | -50°C | 3.6% | 22.8hPa | 2.5V | 08:26:45 | 02:19:02 | 00:00:00 | |
| AA1-15 | 2026-09-06 01:37:31 | 51.64800 | 6.59231 | 347° | 5km/h | 25979m | -32.8m/s | -49.9°C | 0.5% | 23.4hPa | 2.5V | 08:27:14 | 02:19:07 | 00:00:00 | |
| BIOWL1-15 | 2026-09-06 01:37:29 | 51.64797 | 6.59224 | 117° | 9km/h | 26154m | -38.4m/s | -50°C | 0.5% | 22.8hPa | 2.5V | 08:27:14 | 02:19:02 | 00:00:00 | |
| DL1XH-west | 2026-09-06 01:37:27 | 51.64797 | 6.59227 | 81° | 5km/h | 26116m | -36.8m/s | -50°C | 0.5% | 22.9hPa | 2.6V | 08:27:14 | 02:19:03 | 00:00:00 | |
| DO2JMG | 2026-09-06 01:37:25 | 51.64798 | 6.59221 | 127° | 7km/h | 26192m | -37.3m/s | -50.1°C | 0.6% | 22.7hPa | 2.5V | 08:27:14 | 02:19:01 | 00:00:00 | |
| DL4BBY-15 | 2026-09-06 01:37:24 | 51.64800 | 6.59218 | 126° | 11km/h | 26230m | -38.1m/s | -49.7°C | 0% | 0hPa | 2.6V | 00:00:00 | 00:00:00 | 00:00:00 | |
| DK5PH-5 | 2026-09-06 01:37:23 | 51.64802 | 6.59215 | 149° | 11km/h | 26269m | -39.1m/s | -49.9°C | 3.6% | 22.4hPa | 2.6V | 00:00:00 | 02:18:59 | 00:00:00 | |
| DH3RM | 2026-09-06 01:37:22 | 51.64802 | 6.59215 | 149° | 13km/h | 26269m | -39.1m/s | -50.0°C | 1.0% | 22.4hPa | 2.6V | 08:27:00 | 00:00:00 | 00:00:00 | |
| DL1XH-15 | 2026-09-06 01:37:21 | 51.64816 | 6.59207 | 160° | 4km/h | 26527m | -36.9m/s | -49.8°C | 3.6% | 21.5hPa | 2.6V | 08:26:55 | 02:18:52 | 00:00:00 | |
| AA1-15 | 2026-09-06 01:37:21 | 51.64807 | 6.59210 | 160° | 11km/h | 26344m | -36.5m/s | -49.8°C | 0.5% | 22.1hPa | 2.5V | 08:27:14 | 02:18:57 | 00:00:00 | |
| GOEST3-10 | 2026-09-06 01:37:21 | 51.64807 | 6.59210 | 161° | 7km/h | 26345m | -36.5m/s | -49.8°C | 3.5% | 22.0hPa | 2.5V | 00:00:00 | 02:18:57 | 00:00:00 | |
| DM0DOS-11 | 2026-09-06 01:37:20 | 51.64816 | 6.59206 | 70° | 4km/h | 26564m | -36.2m/s | -49.8°C | 3.6% | 21.4hPa | 2.5V | 08:26:56 | 02:18:51 | 00:00:00 | |
| HSKMA3-T | 2026-09-06 01:37:18 | 51.64814 | 6.59207 | 169° | 7km/h | 26454m | -37.4m/s | -49.8°C | 0.5% | 21.8hPa | 2.6V | 08:28:05 | 02:18:54 | 00:00:00 | |
| BIOWL1-15 | 2026-09-06 01:37:17 | 51.64815 | 6.59207 | 160° | 4km/h | 26527m | -36.9m/s | -49.8°C | 0.5% | 21.5hPa | 2.6V | 08:27:14 | 02:18:52 | 00:00:00 | |
| DL1XH-west | 2026-09-06 01:37:17 | 51.64815 | 6.59207 | 210° | 2km/h | 26491m | -36.4m/s | -49.7°C | 0.5% | 21.6hPa | 2.6V | 08:27:14 | 02:18:53 | 00:00:00 | |
| DO2JMG | 2026-09-06 01:37:15 | 51.64816 | 6.59206 | 70° | 4km/h | 26564m | -36.3m/s | -49.8°C | 0.6% | 21.4hPa | 2.5V | 08:27:14 | 02:18:51 | 00:00:00 | |
| DJ2KF-10 | 2026-09-06 01:37:15 | 51.64816 | 6.59206 | 71° | 11km/h | 26564m | -36.2m/s | -49.7°C | 3.6% | 21.3hPa | 2.6V | 00:00:00 | 02:18:51 | 00:00:00 | |
| DB0ND-19 | 2026-09-06 01:37:14 | 51.64814 | 6.59204 | 42° | 2km/h | 26633m | -33.6m/s | -49.7°C | 1.0% | 21.1hPa | 2.6V | 00:00:00 | 00:00:00 | 00:00:00 | |
| BUE01 | 2026-09-06 01:37:12 | 51.64814 | 6.59202 | 91° | 5km/h | 26667m | -35.5m/s | -49.7°C | 1.0% | 21.0hPa | 2.6V | 00:00:00 | 00:00:00 | 00:00:00 | |
| DL1XH-15 | 2026-09-06 01:37:11 | 51.64816 | 6.59173 | 93° | 18km/h | 26895m | -39.3m/s | -49.1°C | 3.5% | 20.4hPa | 2.6V | 08:27:05 | 02:18:42 | 00:00:00 | |
| GOEST3-10 | 2026-09-06 01:37:11 | 51.64814 | 6.59199 | 81° | 11km/h | 26704m | -38.2m/s | -49.7°C | 3.7% | 20.9hPa | 2.6V | 00:00:00 | 02:18:47 | 00:00:00 | |
| DM0DOS-11 | 2026-09-06 01:37:10 | 51.64816 | 6.59166 | 97° | 15km/h | 26934m | -38.4m/s | -48.9°C | 3.4% | 20.2hPa | 2.6V | 08:27:06 | 02:18:41 | 00:00:00 | |
| AA1-15 | 2026-09-06 01:37:10 | 51.64814 | 6.59195 | 101° | 9km/h | 26741m | -38.7m/s | -49.7°C | 0.6% | 20.9hPa | 2.5V | 08:27:14 | 02:18:46 | 00:00:00 | |
| DL1XH-west | 2026-09-06 01:37:07 | 51.64815 | 6.59179 | 102° | 13km/h | 26857m | -38.7m/s | -49.3°C | 0.5% | 20.5hPa | 2.6V | 08:27:14 | 02:18:43 | 00:00:00 | |
| DO2JMG | 2026-09-06 01:37:04 | 51.64817 | 6.59160 | 103° | 16km/h | 26972m | -38.2m/s | -48.8°C | 0.4% | 20.1hPa | 2.5V | 08:27:14 | 02:18:40 | 00:00:00 | |
| SONDE2-11 | 2026-09-06 01:37:02 | 51.64819 | 6.59139 | 112° | 15km/h | 27082m | -38.1m/s | -49.0°C | 0.9% | 19.7hPa | 2.6V | 00:00:00 | 00:00:00 | 00:00:00 | |
| DL1XH-15 | 2026-09-06 01:37:01 | 51.64827 | 6.59118 | 132° | 9km/h | 27267m | -35.7m/s | -48.8°C | 3.4% | 19.2hPa | 2.6V | 08:27:15 | 02:18:32 | 00:00:00 | |
| BIOWL1-15 | 2026-09-06 01:36:59 | 51.64825 | 6.59121 | 123° | 9km/h | 27231m | -36.4m/s | -48.8°C | 0.4% | 19.3hPa | 2.5V | 08:27:14 | 02:18:33 | 00:00:00 | |
| AA1-15 | 2026-09-06 01:36:59 | 51.64822 | 6.59129 | 119° | 13km/h | 27157m | -36.9m/s | -49°C | 0.4% | 19.6hPa | 2.5V | 08:27:14 | 02:18:35 | 00:00:00 | |
| DL1XH-west | 2026-09-06 01:36:56 | 51.64826 | 6.59118 | 132° | 9km/h | 27267m | -35.7m/s | -48.8°C | 0.4% | 19.2hPa | 2.6V | 08:28:05 | 02:18:32 | 00:00:00 | |
| DO2JMG | 2026-09-06 01:36:54 | 51.64830 | 6.59112 | 128° | 13km/h | 27345m | -41.8m/s | -48.5°C | 0.4% | 19hPa | 2.6V | 08:28:05 | 02:18:30 | 00:00:00 | |
| DL3AQ-11 | 2026-09-06 01:36:54 | 51.64831 | 6.59109 | 123° | 7km/h | 27387m | -41.0m/s | -48.4°C | 0.9% | 18.9hPa | 2.5V | 00:00:00 | 00:00:00 | 00:00:00 | |
| DK5PH-5 | 2026-09-06 01:36:53 | 51.64831 | 6.59109 | 124° | 11km/h | 27387m | -41.0m/s | -48.4°C | 3.3% | 18.9hPa | 2.5V | 00:00:00 | 02:18:29 | 00:00:00 | |
| DL1XH-15 | 2026-09-06 01:36:51 | 51.64836 | 6.59081 | 73° | 11km/h | 27654m | -38.9m/s | -47.6°C | 3.1% | 18.1hPa | 2.5V | 08:27:25 | 02:18:22 | 00:00:00 | |
| GOEST3-10 | 2026-09-06 01:36:51 | 51.64834 | 6.59101 | 105° | 11km/h | 27468m | -39.4m/s | -48.1°C | 3.2% | 18.6hPa | 2.6V | 00:00:00 | 02:18:27 | 00:00:00 | |
| DM0DOS-11 | 2026-09-06 01:36:50 | 51.64835 | 6.59077 | 68° | 11km/h | 27691m | -37m/s | -47.6°C | 3.1% | 18hPa | 2.6V | 08:27:26 | 02:18:21 | 00:00:00 | |
| AA1-15 | 2026-09-06 01:36:48 | 51.64835 | 6.59089 | 110° | 11km/h | 27580m | -36.1m/s | -47.9°C | 0.2% | 18.3hPa | 2.5V | 08:28:05 | 02:18:24 | 00:00:00 | |
| BIOWL1-15 | 2026-09-06 01:36:46 | 51.64834 | 6.59072 | 82° | 11km/h | 27728m | -36.7m/s | -47.5°C | 0.1% | 17.9hPa | 2.6V | 08:28:05 | 02:18:20 | 00:00:00 | |
| DL1XH-west | 2026-09-06 01:36:46 | 51.64836 | 6.59081 | 74° | 11km/h | 27654m | -38.9m/s | -47.6°C | 0.1% | 18.1hPa | 2.5V | 08:28:05 | 02:18:22 | 00:00:00 | |
| DO2JMG | 2026-09-06 01:36:43 | 51.64834 | 6.59068 | 62° | 11km/h | 27766m | -38.2m/s | -47.4°C | 0.1% | 17.8hPa | 2.6V | 08:28:05 | 02:18:19 | 00:00:00 | |
| DL1LOL-11 | 2026-09-06 01:36:42 | 51.64833 | 6.59068 | 62° | 11km/h | 27766m | -38.2m/s | -47.4°C | 0.8% | 17.8hPa | 2.5V | 00:00:00 | 00:00:00 | 00:00:00 | |
| DL1XH-15 | 2026-09-06 01:36:41 | 51.64828 | 6.59049 | 75° | 4km/h | 28038m | -40.2m/s | -48.1°C | 3.2% | 17.1hPa | 2.5V | 08:27:35 | 02:18:12 | 00:00:00 | |
| GOEST3-10 | 2026-09-06 01:36:41 | 51.64832 | 6.59060 | 73° | 7km/h | 27843m | -38.4m/s | -47.5°C | 3.0% | 17.6hPa | 2.5V | 00:00:00 | 02:18:17 | 00:00:00 | |
| DM0DOS-11 | 2026-09-06 01:36:40 | 51.64828 | 6.59048 | 115° | 2km/h | 28077m | -37.3m/s | -48.2°C | 3.2% | 17hPa | 2.5V | 08:27:36 | 02:18:11 | 00:00:00 | |
| HSKMA3-T | 2026-09-06 01:36:40 | 51.64831 | 6.59056 | 61° | 9km/h | 27881m | -36.2m/s | -47.6°C | 0.1% | 17.5hPa | 2.5V | 08:28:05 | 02:18:16 | 00:00:00 | |
| AA1-15 | 2026-09-06 01:36:37 | 51.64829 | 6.59050 | 50° | 2km/h | 27998m | -40.3m/s | -48°C | 0.2% | 17.2hPa | 2.5V | 08:28:05 | 02:18:13 | 00:00:00 | |
| DL1XH-west | 2026-09-06 01:36:36 | 51.64828 | 6.59049 | 75° | 4km/h | 28038m | -40.2m/s | -48.1°C | 0.2% | 17.1hPa | 2.5V | 08:28:05 | 02:18:12 | 00:00:00 | |
| BIOWL1-15 | 2026-09-06 01:36:35 | 51.64828 | 6.59048 | 32° | 4km/h | 28114m | -37m/s | -48.3°C | 0.3% | 16.9hPa | 2.6V | 08:28:05 | 02:18:10 | 00:00:00 | |
| DO2JMG | 2026-09-06 01:36:33 | 51.64827 | 6.59047 | 42° | 4km/h | 28150m | -37.2m/s | -48.5°C | 0.4% | 16.8hPa | 2.6V | 08:28:05 | 02:18:09 | 00:00:00 | |
| SONDE2-11 | 2026-09-06 01:36:31 | 51.64824 | 6.59035 | 70° | 16km/h | 28265m | -39.3m/s | -49.1°C | 1.0% | 16.5hPa | 2.5V | 00:00:00 | 00:00:00 | 00:00:00 | |
| DM0DOS-11 | 2026-09-06 01:36:30 | 51.64823 | 6.58991 | 104° | 29km/h | 28457m | -38.8m/s | -49.3°C | 3.7% | 16hPa | 2.5V | 08:27:46 | 02:18:01 | 00:00:00 | |
| HSKMA3-T | 2026-09-06 01:36:29 | 51.64823 | 6.59028 | 75° | 20km/h | 28304m | -39m/s | -49.1°C | 0.5% | 16.4hPa | 2.5V | 08:28:05 | 02:18:05 | 00:00:00 | |
| AA1-15 | 2026-09-06 01:36:26 | 51.64822 | 6.59001 | 97° | 24km/h | 28418m | -38.8m/s | -49.2°C | 0.6% | 16.1hPa | 2.5V | 08:28:05 | 02:18:02 | 00:00:00 | |
| DL1XH-west | 2026-09-06 01:36:25 | 51.64823 | 6.58991 | 105° | 29km/h | 28457m | -38.8m/s | -49.3°C | 0.6% | 16hPa | 2.5V | 08:28:05 | 02:18:01 | 00:00:00 | |
| DO2JMG | 2026-09-06 01:36:22 | 51.64832 | 6.58960 | 125° | 26km/h | 28577m | -40.4m/s | -49.2°C | 0.7% | 15.7hPa | 2.6V | 08:28:05 | 02:17:58 | 00:00:00 | |
| GOEST3-10 | 2026-09-06 01:36:21 | 51.64836 | 6.58952 | 134° | 20km/h | 28616m | -39.6m/s | -49.1°C | 3.8% | 15.6hPa | 2.5V | 00:00:00 | 02:17:57 | 00:00:00 | |
| DM0DOS-11 | 2026-09-06 01:36:20 | 51.64857 | 6.58922 | 138° | 18km/h | 28867m | -43.2m/s | -47.7°C | 3.5% | 15.1hPa | 2.5V | 08:27:56 | 02:17:51 | 00:00:00 | |
| HSKMA3-T | 2026-09-06 01:36:19 | 51.64845 | 6.58938 | 143° | 22km/h | 28698m | -40.7m/s | -48.8°C | 0.6% | 15.4hPa | 2.5V | 08:28:05 | 02:17:55 | 00:00:00 | |
| AA1-15 | 2026-09-06 01:36:16 | 51.64854 | 6.58926 | 134° | 15km/h | 28824m | -43.5m/s | -47.9°C | 0.4% | 15.2hPa | 2.6V | 08:28:05 | 02:17:52 | 00:00:00 | |
| DL1XH-west | 2026-09-06 01:36:14 | 51.64861 | 6.58917 | 138° | 16km/h | 28910m | -43.2m/s | -47.5°C | 0.4% | 15hPa | 2.5V | 08:28:05 | 02:17:50 | 00:00:00 | |
| DL3AQ-11 | 2026-09-06 01:36:14 | 51.64864 | 6.58913 | 143° | 20km/h | 28953m | -42.5m/s | -47.2°C | 0.9% | 14.9hPa | 2.6V | 00:00:00 | 00:00:00 | 00:00:00 | |
| BIOWL9-15 | 2026-09-06 01:36:13 | 51.64868 | 6.58907 | 134° | 22km/h | 28995m | -42.0m/s | -46.9°C | 0.8% | 14.8hPa | 2.6V | 00:00:00 | 00:00:00 | 00:00:00 | |
| DB0ND-19 | 2026-09-06 01:36:12 | 51.64873 | 6.58900 | 135° | 27km/h | 29037m | -43.2m/s | -46.8°C | 0.8% | 14.7hPa | 2.6V | 00:00:00 | 00:00:00 | 00:00:00 | |
| DL1XH-15 | 2026-09-06 01:36:11 | 51.64899 | 6.58869 | 150° | 20km/h | 29262m | -43.8m/s | -46.1°C | 3% | 14.2hPa | 2.6V | 08:28:05 | 02:17:42 | 00:00:00 | |
| DO2JMG | 2026-09-06 01:36:11 | 51.64873 | 6.58900 | 136° | 27km/h | 29037m | -43.2m/s | -46.8°C | 0.2% | 14.7hPa | 2.6V | 08:28:05 | 02:17:47 | 00:00:00 | |
| HSKMA3-T | 2026-09-06 01:36:08 | 51.64889 | 6.58879 | 143° | 26km/h | 29170m | -47.4m/s | -46.3°C | 0.2% | 14.4hPa | 2.5V | 08:28:05 | 02:17:44 | 00:00:00 | |
| BIOWL1-15 | 2026-09-06 01:36:06 | 51.64909 | 6.58864 | 171° | 18km/h | 29349m | -44.3m/s | -45.6°C | 0% | 14hPa | 2.5V | 08:28:56 | 02:17:40 | 00:00:00 | |
| AA1-15 | 2026-09-06 01:36:06 | 51.64899 | 6.58869 | 151° | 20km/h | 29262m | -43.8m/s | -46.1°C | 0.1% | 14.2hPa | 2.6V | 08:28:05 | 02:17:42 | 00:00:00 | |
| DL1XH-west | 2026-09-06 01:36:03 | 51.64913 | 6.58864 | 188° | 15km/h | 29392m | -41.8m/s | -45.4°C | 0% | 13.9hPa | 2.5V | 08:28:56 | 02:17:39 | 00:00:00 | |
| DO2JMG | 2026-09-06 01:36:01 | 51.64920 | 6.58866 | 191° | 13km/h | 29478m | -43.8m/s | -45°C | 0% | 13.7hPa | 2.6V | 08:28:56 | 02:17:37 | 00:00:00 | |
| HSKMA3-T | 2026-09-06 01:35:58 | 51.64929 | 6.58869 | 184° | 13km/h | 29608m | -43.7m/s | -45.5°C | 0% | 13.5hPa | 2.5V | 08:28:56 | 02:17:34 | 00:00:00 | |
| AA1-15 | 2026-09-06 01:35:55 | 51.64938 | 6.58865 | 162° | 15km/h | 29735m | -41.6m/s | -45.2°C | 0% | 13.2hPa | 2.6V | 08:28:56 | 02:17:31 | 00:00:00 | |
| BIOWL1-15 | 2026-09-06 01:35:53 | 51.64945 | 6.58861 | 166° | 13km/h | 29820m | -42.3m/s | -45.3°C | 0% | 13hPa | 2.5V | 08:28:56 | 02:17:29 | 00:00:00 | |
| DL1XH-west | 2026-09-06 01:35:52 | 51.64949 | 6.58860 | 175° | 13km/h | 29862m | -40.8m/s | -45.3°C | 0% | 12.9hPa | 2.5V | 08:28:56 | 02:17:28 | 00:00:00 | |
| DL1XH-15 | 2026-09-06 01:35:51 | 51.64961 | 6.58874 | 243° | 7km/h | 30100m | -43.4m/s | -45.6°C | 3.2% | 12.5hPa | 2.5V | 08:28:25 | 02:17:22 | 00:00:00 | |
| DO2JMG | 2026-09-06 01:35:50 | 51.64955 | 6.58861 | 205° | 15km/h | 29940m | -38.5m/s | -45.2°C | 0.1% | 12.8hPa | 2.6V | 08:28:56 | 02:17:26 | 00:00:00 | |
| HSKMA3-T | 2026-09-06 01:35:47 | 51.64960 | 6.58871 | 260° | 11km/h | 30058m | -41.9m/s | -45.5°C | 0.1% | 12.6hPa | 2.5V | 08:28:56 | 02:17:23 | 00:00:00 | |
| BIOWL1-15 | 2026-09-06 01:35:47 | 51.64961 | 6.58875 | 90° | 4km/h | 30230m | -43.6m/s | -45.4°C | 0.1% | 12.3hPa | 2.6V | 08:28:56 | 02:17:19 | 00:00:00 | |
| EDDB2-12 | 2026-09-06 01:35:47 | 51.64961 | 6.58874 | 243° | 7km/h | 30100m | -43.4m/s | -45.7°C | 0.8% | 12.5hPa | 2.6V | 00:00:00 | 00:00:00 | 00:00:00 | |
| AA1-15 | 2026-09-06 01:35:44 | 51.64961 | 6.58876 | 27° | 2km/h | 30187m | -42.8m/s | -45.5°C | 0.2% | 12.3hPa | 2.6V | 08:28:56 | 02:17:20 | 00:00:00 | |
| BIOWL9-15 | 2026-09-06 01:35:42 | 51.64962 | 6.58869 | 118° | 13km/h | 30317m | -44.3m/s | -45.0°C | 0.8% | 12.1hPa | 2.5V | 00:00:00 | 00:00:00 | 00:00:00 | |
| GOEST3-10 | 2026-09-06 01:35:41 | 51.64962 | 6.58869 | 119° | 18km/h | 30317m | -44.2m/s | -45.0°C | 3.1% | 12.1hPa | 2.5V | 00:00:00 | 02:17:17 | 00:00:00 | |
| DL1XH-west | 2026-09-06 01:35:41 | 51.64962 | 6.58869 | 119° | 13km/h | 30317m | -44.3m/s | -45°C | 0.1% | 12.1hPa | 2.5V | 08:28:56 | 02:17:17 | 00:00:00 | |
| DM0DOS-11 | 2026-09-06 01:35:40 | 51.64981 | 6.58837 | 152° | 22km/h | 30582m | -47.2m/s | -44.4°C | 2.9% | 11.6hPa | 2.5V | 08:28:36 | 02:17:11 | 00:00:00 | |
| DO2JMG | 2026-09-06 01:35:40 | 51.64964 | 6.58864 | 119° | 16km/h | 30361m | -43.8m/s | -44.8°C | 0% | 12hPa | 2.5V | 08:28:56 | 02:17:16 | 00:00:00 | |
| HSKMA3-T | 2026-09-06 01:35:36 | 51.64977 | 6.58841 | 139° | 20km/h | 30537m | -43.3m/s | -44.8°C | 0.1% | 11.7hPa | 2.5V | 08:28:56 | 02:17:12 | 00:00:00 | |
| AA1-15 | 2026-09-06 01:35:34 | 51.64986 | 6.58833 | 156° | 20km/h | 30631m | -49.1m/s | -43.9°C | 0% | 11.6hPa | 2.5V | 08:28:56 | 02:17:10 | 00:00:00 | |
| BIOWL1-15 | 2026-09-06 01:35:32 | 51.64995 | 6.58828 | 170° | 18km/h | 30727m | -48.3m/s | -42.9°C | 0% | 11.4hPa | 2.6V | 08:28:56 | 02:17:08 | 00:00:00 | |
| DL1XH-15 | 2026-09-06 01:35:32 | 51.65012 | 6.58829 | 146° | 5km/h | 31006m | -45.4m/s | -42.7°C | 2.5% | 10.9hPa | 2.6V | 08:28:45 | 02:17:02 | 00:00:00 | |
| DH3RM | 2026-09-06 01:35:32 | 51.64995 | 6.58828 | 171° | 18km/h | 30727m | -48.3m/s | -42.9°C | 0.6% | 11.4hPa | 2.5V | 08:28:00 | 00:00:00 | 00:00:00 | |
| GOEST3-10 | 2026-09-06 01:35:31 | 51.64999 | 6.58828 | 185° | 11km/h | 30775m | -46.8m/s | -42.6°C | 2.5% | 11.3hPa | 2.5V | 00:00:00 | 02:17:07 | 00:00:00 | |
| DM0DOS-11 | 2026-09-06 01:35:30 | 51.65013 | 6.58828 | 156° | 5km/h | 31052m | -47.1m/s | -42.6°C | 2.5% | 10.9hPa | 2.5V | 08:28:46 | 02:17:01 | 00:00:00 | |
| DL1XH-west | 2026-09-06 01:35:30 | 51.65002 | 6.58828 | 177° | 13km/h | 30821m | -46.9m/s | -42.6°C | 0% | 11.3hPa | 2.5V | 08:28:56 | 02:17:06 | 00:00:00 | |
| DO2JMG | 2026-09-06 01:35:29 | 51.65005 | 6.58828 | 189° | 9km/h | 30868m | -46.8m/s | -42.5°C | 0% | 11.2hPa | 2.5V | 08:28:56 | 02:17:05 | 00:00:00 | |
| HSKMA3-T | 2026-09-06 01:35:25 | 51.65013 | 6.58828 | 156° | 5km/h | 31052m | -47.2m/s | -42.6°C | 0% | 10.9hPa | 2.5V | 08:28:56 | 02:17:01 | 00:00:00 | |
| AA1-15 | 2026-09-06 01:35:23 | 51.65014 | 6.58825 | 126° | 5km/h | 31146m | -46.4m/s | -42.3°C | 0% | 10.7hPa | 2.5V | 08:28:56 | 02:16:59 | 00:00:00 | |
| DK5PH-5 | 2026-09-06 01:35:23 | 51.65014 | 6.58825 | 126° | 15km/h | 31147m | -46.3m/s | -42.2°C | 2.4% | 10.7hPa | 2.6V | 00:00:00 | 02:16:59 | 00:00:00 | |
| GOEST3-10 | 2026-09-06 01:35:21 | 51.65017 | 6.58821 | 123° | 7km/h | 31242m | -46.1m/s | -42.6°C | 2.5% | 10.5hPa | 2.6V | 00:00:00 | 02:16:57 | 00:00:00 | |
| BIOWL1-15 | 2026-09-06 01:35:21 | 51.65017 | 6.58821 | 122° | 9km/h | 31241m | -46.2m/s | -42.6°C | 0% | 10.6hPa | 2.6V | 08:28:56 | 02:16:57 | 00:00:00 | |
| DM0DOS-11 | 2026-09-06 01:35:20 | 51.65023 | 6.58808 | 123° | 4km/h | 31496m | -38.1m/s | -43.6°C | 2.8% | 10.1hPa | 2.6V | 08:28:56 | 02:16:51 | 00:00:00 | |
| DL1XH-west | 2026-09-06 01:35:19 | 51.65019 | 6.58815 | 126° | 5km/h | 31332m | -44.3m/s | -42.9°C | 0% | 10.4hPa | 2.5V | 08:28:56 | 02:16:55 | 00:00:00 | |
| DO2JMG | 2026-09-06 01:35:18 | 51.65020 | 6.58813 | 134° | 5km/h | 31375m | -42.5m/s | -43.1°C | 0% | 10.3hPa | 2.5V | 08:28:56 | 02:16:54 | 00:00:00 | |
| HSKMA3-T | 2026-09-06 01:35:15 | 51.65023 | 6.58808 | 123° | 4km/h | 31496m | -38.1m/s | -43.6°C | 0% | 10.2hPa | 2.6V | 08:28:56 | 02:16:51 | 00:00:00 | |
| AA1-15 | 2026-09-06 01:35:12 | 51.65024 | 6.58803 | 92° | 5km/h | 31611m | -38m/s | -43.7°C | 0% | 10hPa | 2.5V | 08:29:47 | 02:16:48 | 00:00:00 | |
| DL1XH-15 | 2026-09-06 01:35:11 | 51.65016 | 6.58775 | 81° | 16km/h | 31838m | -40.8m/s | -42.7°C | 2.8% | 9.6hPa | 2.6V | 08:29:05 | 02:16:42 | 00:00:00 | |
| BIOWL1-15 | 2026-09-06 01:35:11 | 51.65016 | 6.58775 | 82° | 16km/h | 31838m | -40.8m/s | -42.7°C | 0% | 9.6hPa | 2.6V | 08:29:47 | 02:16:42 | 00:00:00 | |
| DL1XH-west | 2026-09-06 01:35:09 | 51.65020 | 6.58794 | 63° | 13km/h | 31723m | -37.8m/s | -43.1°C | 0% | 9.8hPa | 2.5V | 08:29:47 | 02:16:45 | 00:00:00 | |
| DO2JMG | 2026-09-06 01:35:07 | 51.65017 | 6.58782 | 78° | 18km/h | 31798m | -39.3m/s | -42.9°C | 0% | 9.7hPa | 2.5V | 08:29:47 | 02:16:43 | 00:00:00 | |
| HSKMA3-T | 2026-09-06 01:35:04 | 51.65016 | 6.58760 | 98° | 16km/h | 31921m | -42m/s | -42.3°C | 0% | 9.5hPa | 2.6V | 08:29:47 | 02:16:40 | 00:00:00 | |
| AU51GT2 | 2026-09-06 01:35:03 | 51.65016 | 6.58752 | 101° | 20km/h | 31963m | -41.7m/s | -42.1°C | 0.7% | 9.4hPa | 2.5V | 00:00:00 | 00:00:00 | 00:00:00 | |
| DL1XH-15 | 2026-09-06 01:35:01 | 51.65035 | 6.58693 | 113° | 26km/h | 32246m | -40.5m/s | -40.2°C | 2.4% | 9hPa | 2.5V | 08:29:15 | 02:16:32 | 00:00:00 | |
| AA1-15 | 2026-09-06 01:35:01 | 51.65020 | 6.58737 | 114° | 24km/h | 32045m | -41.1m/s | -41.9°C | 0% | 9.3hPa | 2.5V | 08:29:47 | 02:16:37 | 00:00:00 | |
| DL1XH-west | 2026-09-06 01:34:59 | 51.65026 | 6.58720 | 117° | 24km/h | 32126m | -39.6m/s | -41.1°C | 0% | 9.2hPa | 2.6V | 08:29:47 | 02:16:35 | 00:00:00 | |
| DO2JMG | 2026-09-06 01:34:57 | 51.65032 | 6.58702 | 114° | 24km/h | 32206m | -39.1m/s | -40.5°C | 0% | 9.1hPa | 2.6V | 08:29:47 | 02:16:33 | 00:00:00 | |
| BIOWL1-15 | 2026-09-06 01:34:55 | 51.65037 | 6.58684 | 103° | 22km/h | 32286m | -39.1m/s | -40.1°C | 0% | 9hPa | 2.5V | 08:29:47 | 02:16:31 | 00:00:00 | |
| HSKMA3-T | 2026-09-06 01:34:54 | 51.65038 | 6.58674 | 89° | 24km/h | 32324m | -38.9m/s | -40°C | 0% | 9hPa | 2.5V | 08:29:47 | 02:16:30 | 00:00:00 | |
| DL3AQ-11 | 2026-09-06 01:34:54 | 51.65038 | 6.58665 | 88° | 22km/h | 32364m | -40.2m/s | -39.9°C | 0.6% | 8.9hPa | 2.6V | 00:00:00 | 00:00:00 | 00:00:00 | |
| HARRO8 | 2026-09-06 01:34:53 | 51.65038 | 6.58665 | 88° | 22km/h | 32364m | -40.2m/s | -39.9°C | 0.6% | 8.9hPa | 2.6V | 00:00:00 | 00:00:00 | 00:00:00 | |
| EDDB2-11 | 2026-09-06 01:34:52 | 51.65037 | 6.58656 | 81° | 20km/h | 32404m | -40.3m/s | -40.0°C | 0.6% | 8.8hPa | 2.6V | 00:00:00 | 00:00:00 | 00:00:00 | |
| DL1XH-15 | 2026-09-06 01:34:51 | 51.65030 | 6.58596 | 96° | 27km/h | 32672m | -47.1m/s | -39.8°C | 2.3% | 8.5hPa | 2.6V | 08:29:25 | 02:16:22 | 00:00:00 | |
| AA1-15 | 2026-09-06 01:34:50 | 51.65034 | 6.58639 | 69° | 24km/h | 32485m | -42.3m/s | -40°C | 0% | 8.8hPa | 2.5V | 08:29:47 | 02:16:26 | 00:00:00 | |
| DL1XH-west | 2026-09-06 01:34:48 | 51.65031 | 6.58619 | 80° | 26km/h | 32577m | -48.2m/s | -39.8°C | 0% | 8.7hPa | 2.5V | 08:29:47 | 02:16:24 | 00:00:00 | |
| DC4HF-4 | 2026-09-06 01:34:47 | 51.65030 | 6.58608 | 87° | 29km/h | 32625m | -48.4m/s | -39.8°C | 0.5% | 8.6hPa | 2.6V | 00:00:00 | 00:00:00 | 00:00:00 | |
| DM0DOS-11 | 2026-09-06 01:34:46 | 51.65031 | 6.58585 | 95° | 27km/h | 32719m | -46.9m/s | -39.8°C | 2.3% | 8.5hPa | 2.6V | 08:29:26 | 02:16:21 | 00:00:00 | |
| DO2JMG | 2026-09-06 01:34:46 | 51.65030 | 6.58596 | 96° | 27km/h | 32672m | -47.1m/s | -39.8°C | 0% | 8.5hPa | 2.6V | 08:29:47 | 02:16:22 | 00:00:00 | |
| BIOWL1-15 | 2026-09-06 01:34:45 | 51.65031 | 6.58585 | 96° | 27km/h | 32719m | -46.9m/s | -39.8°C | 0% | 8.5hPa | 2.6V | 08:29:47 | 02:16:21 | 00:00:00 | |
| HSKMA3-T | 2026-09-06 01:34:43 | 51.65034 | 6.58562 | 111° | 29km/h | 32814m | -47.8m/s | -39.6°C | 0% | 8.4hPa | 2.5V | 08:29:47 | 02:16:19 | 00:00:00 | |
| DL1XH-15 | 2026-09-06 01:34:41 | 51.65047 | 6.58514 | 135° | 9km/h | 33148m | -49.3m/s | -38.5°C | 2% | 7.9hPa | 2.5V | 08:29:35 | 02:16:12 | 00:00:00 | |
| AA1-15 | 2026-09-06 01:34:40 | 51.65040 | 6.58533 | 112° | 20km/h | 32957m | -46.6m/s | -38.9°C | 0% | 8.2hPa | 2.6V | 08:29:47 | 02:16:16 | 00:00:00 | |
| DL1XH-west | 2026-09-06 01:34:38 | 51.65044 | 6.58520 | 120° | 13km/h | 33050m | -47.4m/s | -38.7°C | 0% | 8.1hPa | 2.5V | 08:29:47 | 02:16:14 | 00:00:00 | |
| DM0DOS-11 | 2026-09-06 01:34:36 | 51.65048 | 6.58511 | 111° | 5km/h | 33197m | -48.2m/s | -38.6°C | 2% | 7.9hPa | 2.6V | 08:29:36 | 02:16:11 | 00:00:00 | |
| DO2JMG | 2026-09-06 01:34:36 | 51.65047 | 6.58514 | 136° | 9km/h | 33148m | -49.3m/s | -38.5°C | 0% | 7.9hPa | 2.5V | 08:29:47 | 02:16:12 | 00:00:00 | |
| BIOWL1-15 | 2026-09-06 01:34:35 | 51.65048 | 6.58511 | 111° | 5km/h | 33197m | -48.2m/s | -38.6°C | 0% | 7.9hPa | 2.6V | 08:29:47 | 02:16:11 | 00:00:00 | |
| HSKMA3-T | 2026-09-06 01:34:33 | 51.65049 | 6.58505 | 85° | 13km/h | 33288m | -45m/s | -38.8°C | 0% | 7.8hPa | 2.6V | 08:29:47 | 02:16:09 | 00:00:00 | |
| AU51GT2 | 2026-09-06 01:34:32 | 51.65046 | 6.58491 | 72° | 22km/h | 33376m | -43.3m/s | -39.0°C | 0.5% | 7.6hPa | 2.5V | 00:00:00 | 00:00:00 | 00:00:00 | |
| GOEST3-10 | 2026-09-06 01:34:31 | 51.65046 | 6.58491 | 73° | 37km/h | 33376m | -43.3m/s | -39.0°C | 2.1% | 7.6hPa | 2.5V | 08:29:00 | 02:16:07 | 00:00:00 | |
| DM0DOS-11 | 2026-09-06 01:34:30 | 51.65017 | 6.58404 | 60° | 46km/h | 33629m | -43.8m/s | -40.5°C | 2.4% | 7.4hPa | 2.5V | 08:29:46 | 02:16:01 | 00:00:00 | |
| AA1-15 | 2026-09-06 01:34:29 | 51.65040 | 6.58468 | 62° | 37km/h | 33459m | -40.3m/s | -39.4°C | 0% | 7.6hPa | 2.6V | 08:29:47 | 02:16:05 | 00:00:00 | |
| DL1XH-west | 2026-09-06 01:34:27 | 51.65029 | 6.58437 | 61° | 46km/h | 33542m | -43.3m/s | -40°C | 0% | 7.5hPa | 2.5V | 08:29:47 | 02:16:03 | 00:00:00 | |
| DO2JMG | 2026-09-06 01:34:26 | 51.65023 | 6.58420 | 58° | 49km/h | 33586m | -44m/s | -40.2°C | 0% | 7.4hPa | 2.5V | 08:29:47 | 02:16:02 | 00:00:00 | |
| BIOWL1-15 | 2026-09-06 01:34:24 | 51.65011 | 6.58388 | 59° | 46km/h | 33673m | -44.4m/s | -40.6°C | 0% | 7.3hPa | 2.6V | 08:29:47 | 02:16:00 | 00:00:00 | |
| HSKMA3-T | 2026-09-06 01:34:22 | 51.65002 | 6.58360 | 65° | 37km/h | 33763m | -46.4m/s | -40.5°C | 0% | 7.2hPa | 2.6V | 18:12:15 | 02:15:58 | 00:00:00 | |
| HARRO8 | 2026-09-06 01:34:22 | 51.65002 | 6.58360 | 64° | 35km/h | 33763m | -46.4m/s | -40.5°C | 0.6% | 7.2hPa | 2.5V | 00:00:00 | 00:00:00 | 00:00:00 | |
| GOEST3-10 | 2026-09-06 01:34:21 | 51.64999 | 6.58347 | 74° | 29km/h | 33811m | -49.0m/s | -40.5°C | 2.5% | 7.1hPa | 2.5V | 00:00:00 | 02:15:57 | 00:00:00 | |
| DM0DOS-11 | 2026-09-06 01:34:20 | 51.65010 | 6.58280 | 124° | 29km/h | 34149m | -53.5m/s | -40.2°C | 2.5% | 6.9hPa | 2.5V | 08:30:00 | 02:15:51 | 00:00:00 | |
| AA1-15 | 2026-09-06 01:34:19 | 51.64997 | 6.58323 | 99° | 29km/h | 33915m | -56m/s | -40.5°C | 0% | 7.1hPa | 2.5V | 18:12:15 | 02:15:55 | 00:00:00 | |
| DL1XH-west | 2026-09-06 01:34:16 | 51.65006 | 6.58290 | 119° | 29km/h | 34093m | -57.8m/s | -40.4°C | 0% | 6.9hPa | 2.5V | 18:12:15 | 02:15:52 | 00:00:00 | |
| DO2JMG | 2026-09-06 01:34:15 | 51.65010 | 6.58280 | 125° | 29km/h | 34149m | -53.5m/s | -40.2°C | 0% | 6.9hPa | 2.5V | 18:12:15 | 02:15:51 | 00:00:00 | |
| BIOWL1-15 | 2026-09-06 01:34:13 | 51.65020 | 6.58247 | 110° | 18km/h | 34339m | -43m/s | -38.6°C | 0% | 6.6hPa | 2.6V | 18:12:15 | 02:15:47 | 00:00:00 | |
| HSKMA3-T | 2026-09-06 01:34:12 | 51.65019 | 6.58254 | 114° | 20km/h | 34295m | -44.8m/s | -38.8°C | 0% | 6.7hPa | 2.6V | 18:12:15 | 02:15:48 | 00:00:00 | |
| DL1XH-15 | 2026-09-06 01:34:11 | 51.65019 | 6.58230 | 56° | 7km/h | 34566m | -48m/s | -38°C | 2.2% | 6.4hPa | 2.6V | 08:30:00 | 02:15:42 | 00:00:00 | |
| AA1-15 | 2026-09-06 01:34:08 | 51.65022 | 6.58234 | 45° | 5km/h | 34470m | -47.6m/s | -38.3°C | 0% | 6.5hPa | 2.5V | 18:12:15 | 02:15:44 | 00:00:00 | |
| DL1XH-west | 2026-09-06 01:34:06 | 51.65019 | 6.58230 | 57° | 7km/h | 34566m | -48m/s | -38°C | 0% | 6.4hPa | 2.6V | 18:12:15 | 02:15:42 | 00:00:00 | |
| DO2JMG | 2026-09-06 01:34:05 | 51.65019 | 6.58227 | 73° | 9km/h | 34612m | -45.8m/s | -38.1°C | 0% | 6.4hPa | 2.6V | 18:12:15 | 02:15:41 | 00:00:00 | |
| DO3MHA-11 | 2026-09-06 01:34:05 | 51.65019 | 6.58227 | 73° | 37km/h | 34613m | -45.7m/s | -38.0°C | 2.2% | 6.3hPa | 2.5V | 00:00:00 | 02:15:41 | 00:00:00 | |
| DL1ZP-14 | 2026-09-06 01:34:04 | 51.65020 | 6.58215 | 120° | 24km/h | 34701m | -43.6m/s | -38.0°C | 0.5% | 6.3hPa | 2.5V | 00:00:00 | 00:00:00 | 00:00:00 | |
| DD1CC8 | 2026-09-06 01:34:02 | 51.65080 | 6.58100 | 134° | 47km/h | 34990m | -47.6m/s | -36.3°C | 0.4% | 6.0hPa | 2.5V | 00:00:00 | 00:00:00 | 00:00:00 | |
| DL1XH-15 | 2026-09-06 01:34:01 | 51.65080 | 6.58100 | 134° | 47km/h | 34990m | -47.6m/s | -36.3°C | 1.9% | 6hPa | 2.5V | 08:30:00 | 02:15:32 | 00:00:00 | |
| BIOWL1-15 | 2026-09-06 01:34:01 | 51.65030 | 6.58192 | 127° | 44km/h | 34784m | -39m/s | -37.7°C | 0% | 6.2hPa | 2.5V | 18:12:15 | 02:15:37 | 00:00:00 | |
| AA1-15 | 2026-09-06 01:33:58 | 51.65059 | 6.58136 | 131° | 69km/h | 34901m | -40.4m/s | -36.6°C | 0% | 6.1hPa | 2.5V | 18:12:15 | 02:15:34 | 00:00:00 | |
| DL1XH-west | 2026-09-06 01:33:56 | 51.65080 | 6.58100 | 134° | 47km/h | 34990m | -47.6m/s | -36.3°C | 0% | 6hPa | 2.5V | 18:12:15 | 02:15:32 | 00:00:00 | |
| DO2JMG | 2026-09-06 01:33:54 | 51.65095 | 6.58077 | 137° | 35km/h | 35079m | -39.2m/s | -36.4°C | 0% | 5.9hPa | 2.6V | 18:12:15 | 02:15:30 | 00:00:00 | |
| DO3MHA-11 | 2026-09-06 01:33:54 | 51.65095 | 6.58077 | 138° | 35km/h | 35079m | -39.1m/s | -36.3°C | 2.0% | 5.8hPa | 2.5V | 00:00:00 | 02:15:30 | 00:00:00 | |
| DK5PH-5 | 2026-09-06 01:33:53 | 51.65100 | 6.58069 | 142° | 33km/h | 35115m | -32.9m/s | -36.3°C | 2.0% | 5.8hPa | 2.5V | 00:00:00 | 02:15:29 | 00:00:00 | |
| DL1XH-15 | 2026-09-06 01:33:51 | 51.65101 | 6.58105 | 175° | 16km/h | 35314m | -36.4m/s | -35.4°C | 1.8% | 5.7hPa | 2.5V | 08:30:00 | 02:15:22 | 00:00:00 | |
| GOEST3-10 | 2026-09-06 01:33:51 | 51.65108 | 6.58062 | 258° | 24km/h | 35171m | -24.8m/s | -36.0°C | 1.9% | 5.8hPa | 2.5V | 00:00:00 | 02:15:27 | 00:00:00 | |
| DM0DOS-11 | 2026-09-06 01:33:50 | 51.65107 | 6.58100 | 143° | 42km/h | 35349m | -34m/s | -35.2°C | 1.7% | 5.7hPa | 2.5V | 08:30:00 | 02:15:21 | 00:00:00 | |
| HSKMA3-T | 2026-09-06 01:33:50 | 51.65107 | 6.58068 | 285° | 20km/h | 35193m | -21.6m/s | -35.9°C | 0% | 5.8hPa | 2.5V | 18:12:15 | 02:15:26 | 00:00:00 | |
| AA1-15 | 2026-09-06 01:33:48 | 51.65101 | 6.58091 | 293° | 37km/h | 35243m | -31.3m/s | -35.6°C | 0% | 5.8hPa | 2.6V | 18:12:15 | 02:15:24 | 00:00:00 | |
| DL1XH-west | 2026-09-06 01:33:45 | 51.65107 | 6.58100 | 144° | 42km/h | 35349m | -34m/s | -35.2°C | 0% | 5.7hPa | 2.5V | 18:12:15 | 02:15:21 | 00:00:00 | |
| BIOWL1-15 | 2026-09-06 01:33:44 | 51.65157 | 6.58036 | 142° | 53km/h | 35414m | 9.8m/s | -35.3°C | 0% | 5.6hPa | 2.5V | 18:12:15 | 02:15:16 | 00:00:00 | |
| DO2JMG | 2026-09-06 01:33:43 | 51.65126 | 6.58076 | 142° | 49km/h | 35402m | -19.6m/s | -35.3°C | 0% | 5.6hPa | 2.6V | 18:12:15 | 02:15:19 | 00:00:00 | |
| EDDB2-12 | 2026-09-06 01:33:42 | 51.65136 | 6.58063 | 141° | 51km/h | 35416m | -10.2m/s | -35.3°C | 0.4% | 5.6hPa | 2.6V | 00:00:00 | 00:00:00 | 00:00:00 | |
| DL1XH-15 | 2026-09-06 01:33:41 | 51.65194 | 6.58006 | 162° | 31km/h | 35389m | 5.7m/s | -35.5°C | 1.8% | 5.6hPa | 2.6V | 08:30:00 | 02:15:12 | 00:00:00 | |
| GOEST3-10 | 2026-09-06 01:33:41 | 51.65146 | 6.58050 | 142° | 46km/h | 35421m | -0.2m/s | -35.3°C | 1.8% | 5.5hPa | 2.6V | 00:00:00 | 02:15:17 | 00:00:00 | |
| DM0DOS-11 | 2026-09-06 01:33:40 | 51.65201 | 6.58003 | 160° | 24km/h | 35383m | 5.5m/s | -35.6°C | 1.8% | 5.6hPa | 2.6V | 08:30:00 | 02:15:11 | 00:00:00 | |
| HSKMA3-T | 2026-09-06 01:33:39 | 51.65167 | 6.58025 | 154° | 40km/h | 35405m | 4.3m/s | -35.3°C | 0% | 5.6hPa | 2.5V | 18:12:15 | 02:15:15 | 00:00:00 | |
| AA1-15 | 2026-09-06 01:33:38 | 51.65177 | 6.58018 | 154° | 44km/h | 35400m | 5.3m/s | -35.4°C | 0% | 5.6hPa | 2.5V | 18:12:15 | 02:15:14 | 00:00:00 | |
| DO2JMG | 2026-09-06 01:33:33 | 51.65210 | 6.57994 | 135° | 20km/h | 35373m | 4.8m/s | -35.7°C | 0% | 5.7hPa | 2.5V | 18:12:15 | 02:15:09 | 00:00:00 | |
| DL1ZP-14 | 2026-09-06 01:33:32 | 51.65214 | 6.57987 | 126° | 24km/h | 35368m | 4.9m/s | -35.8°C | 0.4% | 5.6hPa | 2.5V | 00:00:00 | 00:00:00 | 00:00:00 | |
| DL1XH-15 | 2026-09-06 01:33:31 | 51.65259 | 6.57915 | 147° | 47km/h | 35337m | 4.5m/s | -36°C | 1.8% | 5.7hPa | 2.6V | 08:30:00 | 02:15:02 | 00:00:00 | |
| BIOWL1-15 | 2026-09-06 01:33:29 | 51.65231 | 6.57953 | 133° | 46km/h | 35352m | 5.5m/s | -35.9°C | 0% | 5.7hPa | 2.5V | 18:12:15 | 02:15:05 | 00:00:00 | |
| DM0DOS-11 | 2026-09-06 01:33:28 | 51.65269 | 6.57906 | 150° | 40km/h | 35333m | 4.8m/s | -36.1°C | 1.9% | 5.7hPa | 2.6V | 08:30:00 | 02:15:01 | 00:00:00 | |
| AA1-15 | 2026-09-06 01:33:28 | 51.65239 | 6.57939 | 138° | 49km/h | 35347m | 5.1m/s | -36°C | 0% | 5.7hPa | 2.5V | 18:12:15 | 02:15:04 | 00:00:00 | |
| DL1XH-west | 2026-09-06 01:33:23 | 51.65283 | 6.57893 | 144° | 24km/h | 35322m | 5.5m/s | -36.2°C | 0% | 5.7hPa | 2.5V | 18:12:15 | 02:14:59 | 00:00:00 | |
| DO2JMG | 2026-09-06 01:33:22 | 51.65287 | 6.57887 | 128° | 20km/h | 35317m | 5.5m/s | -36.2°C | 0% | 5.7hPa | 2.5V | 18:12:15 | 02:14:58 | 00:00:00 | |
| HSKMA3-T | 2026-09-06 01:33:19 | 51.65293 | 6.57860 | 107° | 31km/h | 35302m | 4.5m/s | -36.3°C | 0% | 5.7hPa | 2.6V | 18:12:15 | 02:14:55 | 00:00:00 | |
| DM0DOS-11 | 2026-09-06 01:33:18 | 51.65316 | 6.57809 | 143° | 47km/h | 35281m | 5.3m/s | -36.2°C | 1.9% | 5.7hPa | 2.6V | 08:30:00 | 02:14:51 | 00:00:00 | |
| BIOWL1-15 | 2026-09-06 01:33:18 | 51.65296 | 6.57848 | 116° | 37km/h | 35297m | 4.9m/s | -36.3°C | 0% | 5.7hPa | 2.5V | 18:12:15 | 02:14:54 | 00:00:00 | |
| AA1-15 | 2026-09-06 01:33:17 | 51.65301 | 6.57834 | 125° | 42km/h | 35292m | 5.3m/s | -36.3°C | 0% | 5.7hPa | 2.5V | 18:12:15 | 02:14:53 | 00:00:00 | |
| DL1XH-west | 2026-09-06 01:33:13 | 51.65336 | 6.57791 | 158° | 40km/h | 35271m | 4.7m/s | -36.2°C | 0% | 5.7hPa | 2.6V | 18:12:15 | 02:14:49 | 00:00:00 | |
| DO2JMG | 2026-09-06 01:33:12 | 51.65345 | 6.57786 | 162° | 33km/h | 35267m | 4.6m/s | -36.2°C | 0% | 5.7hPa | 2.5V | 18:12:15 | 02:14:48 | 00:00:00 | |
| DL1XH-15 | 2026-09-06 01:33:11 | 51.65359 | 6.57748 | 97° | 27km/h | 35235m | 4.5m/s | -36.4°C | 1.9% | 5.7hPa | 2.6V | 08:30:00 | 02:14:42 | 00:00:00 | |
| HSKMA3-T | 2026-09-06 01:33:08 | 51.65359 | 6.57767 | 90° | 18km/h | 35245m | 5.6m/s | -36.3°C | 0% | 5.7hPa | 2.6V | 18:12:15 | 02:14:44 | 00:00:00 | |
| AA1-15 | 2026-09-06 01:33:07 | 51.65359 | 6.57759 | 89° | 24km/h | 35240m | 5m/s | -36.4°C | 0% | 5.7hPa | 2.6V | 18:12:15 | 02:14:43 | 00:00:00 | |
| DL1XH-west | 2026-09-06 01:33:03 | 51.65371 | 6.57717 | 143° | 35km/h | 35221m | 5.5m/s | -36.6°C | 0% | 5.8hPa | 2.5V | 18:12:15 | 02:14:39 | 00:00:00 | |
| DO2JMG | 2026-09-06 01:33:01 | 51.65388 | 6.57704 | 165° | 38km/h | 35210m | 5.3m/s | -36.6°C | 0% | 5.8hPa | 2.6V | 18:12:15 | 02:14:37 | 00:00:00 | |
| DM0DOS-11 | 2026-09-06 01:33:00 | 51.65427 | 6.57675 | 112° | 27km/h | 35181m | 5.3m/s | -36.8°C | 1.9% | 5.8hPa | 2.6V | 08:30:00 | 02:14:31 | 00:00:00 | |
| HSKMA3-T | 2026-09-06 01:32:58 | 51.65414 | 6.57695 | 162° | 27km/h | 35196m | 4.5m/s | -36.7°C | 0% | 5.8hPa | 2.5V | 18:12:15 | 02:14:34 | 00:00:00 | |
| BIOWL1-15 | 2026-09-06 01:32:57 | 51.65420 | 6.57691 | 146° | 24km/h | 35191m | 5.1m/s | -36.8°C | 0% | 5.8hPa | 2.6V | 18:12:15 | 02:14:33 | 00:00:00 | |
| AA1-15 | 2026-09-06 01:32:56 | 51.65424 | 6.57684 | 125° | 24km/h | 35186m | 5.4m/s | -36.8°C | 0% | 5.8hPa | 2.6V | 18:12:15 | 02:14:32 | 00:00:00 | |
| DL1XH-west | 2026-09-06 01:32:52 | 51.65436 | 6.57641 | 122° | 31km/h | 35166m | 4.8m/s | -36.9°C | 0% | 5.8hPa | 2.5V | 18:12:15 | 02:14:28 | 00:00:00 | |
| DL1XH-15 | 2026-09-06 01:32:51 | 51.65474 | 6.57618 | 175° | 20km/h | 35137m | 4.2m/s | -37.1°C | 1.9% | 5.8hPa | 2.6V | 08:30:00 | 02:14:22 | 00:00:00 | |
| DO2JMG | 2026-09-06 01:32:50 | 51.65447 | 6.57625 | 153° | 29km/h | 35156m | 5.8m/s | -37°C | 0% | 5.8hPa | 2.6V | 18:12:15 | 02:14:26 | 00:00:00 | |
| HSKMA3-T | 2026-09-06 01:32:47 | 51.65468 | 6.57619 | 180° | 26km/h | 35141m | 3.8m/s | -37.1°C | 0% | 5.8hPa | 2.5V | 18:12:15 | 02:14:23 | 00:00:00 | |
| BIOWL1-15 | 2026-09-06 01:32:46 | 51.65474 | 6.57618 | 175° | 20km/h | 35137m | 4.2m/s | -37.1°C | 0% | 5.8hPa | 2.6V | 18:12:15 | 02:14:22 | 00:00:00 | |
| AA1-15 | 2026-09-06 01:32:45 | 51.65478 | 6.57617 | 155° | 16km/h | 35132m | 5m/s | -37.1°C | 0% | 5.8hPa | 2.6V | 18:12:15 | 02:14:21 | 00:00:00 | |
| DJ2KF-10 | 2026-09-06 01:32:45 | 51.65478 | 6.57617 | 155° | 29km/h | 35133m | 4.9m/s | -37.1°C | 2.0% | 5.8hPa | 2.6V | 00:00:00 | 02:14:21 | 00:00:00 | |
| GOEST3-10 | 2026-09-06 01:32:44 | 51.65481 | 6.57612 | 122° | 27km/h | 35128m | 5.7m/s | -37.1°C | 2.0% | 5.8hPa | 2.6V | 00:00:00 | 00:00:00 | 00:00:00 | |
| SMARD9-15 | 2026-09-06 01:32:43 | 51.65486 | 6.57582 | 104° | 35km/h | 35111m | 4.6m/s | -37.2°C | 0.4% | 5.8hPa | 2.5V | 00:00:00 | 00:00:00 | 00:00:00 | |
| DL1XH-15 | 2026-09-06 01:32:41 | 51.65515 | 6.57533 | 167° | 33km/h | 35088m | 5m/s | -37.3°C | 2% | 5.9hPa | 2.5V | 08:30:00 | 02:14:12 | 00:00:00 | |
| DL1XH-west | 2026-09-06 01:32:41 | 51.65486 | 6.57582 | 104° | 35km/h | 35111m | 4.6m/s | -37.2°C | 0% | 5.8hPa | 2.5V | 18:12:15 | 02:14:17 | 00:00:00 | |
| DO2JMG | 2026-09-06 01:32:39 | 51.65493 | 6.57555 | 126° | 37km/h | 35103m | 4.3m/s | -37.3°C | 0% | 5.9hPa | 2.6V | 18:12:15 | 02:14:15 | 00:00:00 | |
| HSKMA3-T | 2026-09-06 01:32:37 | 51.65507 | 6.57537 | 155° | 35km/h | 35093m | 5.3m/s | -37.3°C | 0% | 5.9hPa | 2.6V | 18:12:15 | 02:14:13 | 00:00:00 | |
| BIOWL1-15 | 2026-09-06 01:32:35 | 51.65534 | 6.57529 | 167° | 18km/h | 35073m | 4.6m/s | -37.4°C | 0% | 5.9hPa | 2.6V | 18:12:15 | 02:14:09 | 00:00:00 | |
| AA1-15 | 2026-09-06 01:32:34 | 51.65529 | 6.57530 | 178° | 24km/h | 35078m | 4.7m/s | -37.4°C | 0% | 5.9hPa | 2.5V | 18:12:15 | 02:14:10 | 00:00:00 | |
| BIOWL1-15 | 2026-09-06 01:32:34 | 51.65568 | 6.57439 | 135° | 38km/h | 35034m | 5m/s | -37.4°C | 0% | 5.9hPa | 2.5V | 18:12:15 | 02:14:01 | 00:00:00 | |
| DO3MHA-11 | 2026-09-06 01:32:34 | 51.65529 | 6.57530 | 178° | 31km/h | 35079m | 4.7m/s | -37.3°C | 2.0% | 5.8hPa | 2.6V | 00:00:00 | 02:14:10 | 00:00:00 | |
| BUE01 | 2026-09-06 01:32:33 | 51.65534 | 6.57529 | 166° | 16km/h | 35074m | 4.6m/s | -37.4°C | 0.5% | 5.9hPa | 2.6V | 00:00:00 | 00:00:00 | 00:00:00 | |
| DL1XH-15 | 2026-09-06 01:32:31 | 51.65562 | 6.57452 | 126° | 44km/h | 35039m | 4.6m/s | -37.4°C | 2% | 5.9hPa | 2.6V | 08:30:00 | 02:14:02 | 00:00:00 | |
| DM0DOS-11 | 2026-09-06 01:32:30 | 51.65568 | 6.57439 | 134° | 38km/h | 35034m | 5m/s | -37.4°C | 2% | 5.9hPa | 2.5V | 08:30:00 | 02:14:01 | 00:00:00 | |
| DL1XH-west | 2026-09-06 01:32:30 | 51.65543 | 6.57511 | 110° | 29km/h | 35059m | 5.5m/s | -37.4°C | 0% | 5.9hPa | 2.5V | 18:12:15 | 02:14:06 | 00:00:00 | |
| DO2JMG | 2026-09-06 01:32:28 | 51.65550 | 6.57483 | 114° | 44km/h | 35048m | 5.2m/s | -37.4°C | 0% | 5.9hPa | 2.6V | 18:12:15 | 02:14:04 | 00:00:00 | |
| HSKMA3-T | 2026-09-06 01:32:26 | 51.65562 | 6.57452 | 127° | 44km/h | 35039m | 4.6m/s | -37.4°C | 0% | 5.9hPa | 2.6V | 18:12:15 | 02:14:02 | 00:00:00 | |
| AA1-15 | 2026-09-06 01:32:23 | 51.65581 | 6.57423 | 148° | 26km/h | 35024m | 5.4m/s | -37.4°C | 0% | 5.9hPa | 2.5V | 18:12:15 | 02:13:59 | 00:00:00 | |
| DK5PH-5 | 2026-09-06 01:32:23 | 51.65581 | 6.57423 | 149° | 26km/h | 35024m | 5.3m/s | -37.4°C | 2.0% | 5.9hPa | 2.6V | 00:00:00 | 02:13:59 | 00:00:00 | |
| WPPR-10 | 2026-09-06 01:32:22 | 51.65590 | 6.57414 | 143° | 15km/h | 35013m | 5.0m/s | -37.4°C | 0.5% | 5.9hPa | 2.6V | 00:00:00 | 00:00:00 | 00:00:00 | |
| DL1XH-15 | 2026-09-06 01:32:21 | 51.65603 | 6.57373 | 116° | 35km/h | 34989m | 4.7m/s | -37.5°C | 1.9% | 6hPa | 2.6V | 08:30:00 | 02:13:52 | 00:00:00 | |
| DM0DOS-11 | 2026-09-06 01:32:20 | 51.65607 | 6.57360 | 123° | 37km/h | 34984m | 4.4m/s | -37.6°C | 1.9% | 6hPa | 2.6V | 08:30:00 | 02:13:51 | 00:00:00 | |
| DL1XH-west | 2026-09-06 01:32:20 | 51.65593 | 6.57410 | 128° | 15km/h | 35008m | 4.9m/s | -37.4°C | 0% | 6hPa | 2.5V | 18:12:15 | 02:13:56 | 00:00:00 | |
| DO2JMG | 2026-09-06 01:32:18 | 51.65597 | 6.57396 | 111° | 24km/h | 34999m | 4.8m/s | -37.5°C | 0% | 6hPa | 2.5V | 18:12:15 | 02:13:54 | 00:00:00 | |
| HSKMA3-T | 2026-09-06 01:32:15 | 51.65607 | 6.57360 | 123° | 38km/h | 34984m | 4.4m/s | -37.6°C | 0% | 6hPa | 2.6V | 18:12:15 | 02:13:51 | 00:00:00 | |
| BIOWL1-15 | 2026-09-06 01:32:14 | 51.65613 | 6.57348 | 130° | 37km/h | 34980m | 4.4m/s | -37.6°C | 0% | 6hPa | 2.5V | 18:12:15 | 02:13:50 | 00:00:00 | |
| AA1-15 | 2026-09-06 01:32:12 | 51.65625 | 6.57330 | 145° | 29km/h | 34971m | 5.1m/s | -37.7°C | 0% | 6hPa | 2.5V | 18:12:15 | 02:13:48 | 00:00:00 | |
| DL1XH-15 | 2026-09-06 01:32:11 | 51.65642 | 6.57296 | 101° | 27km/h | 34942m | 4.9m/s | -38.1°C | 2% | 6hPa | 2.5V | 08:30:00 | 02:13:42 | 00:00:00 | |
| DM0DOS-11 | 2026-09-06 01:32:10 | 51.65644 | 6.57284 | 106° | 33km/h | 34937m | 5.1m/s | -38.2°C | 2% | 6hPa | 2.5V | 08:30:00 | 02:13:41 | 00:00:00 | |
| DL1XH-west | 2026-09-06 01:32:09 | 51.65638 | 6.57317 | 134° | 13km/h | 34956m | 4.5m/s | -37.9°C | 0% | 6hPa | 2.6V | 18:12:15 | 02:13:45 | 00:00:00 | |
| DO2JMG | 2026-09-06 01:32:07 | 51.65641 | 6.57306 | 101° | 20km/h | 34947m | 4.6m/s | -38°C | 0% | 6hPa | 2.5V | 18:12:15 | 02:13:43 | 00:00:00 | |
| HSKMA3-T | 2026-09-06 01:32:05 | 51.65644 | 6.57284 | 106° | 33km/h | 34937m | 5.1m/s | -38.2°C | 0% | 6hPa | 2.5V | 18:12:15 | 02:13:41 | 00:00:00 | |
| BIOWL1-15 | 2026-09-06 01:32:03 | 51.65651 | 6.57256 | 121° | 40km/h | 34927m | 4.7m/s | -38.3°C | 0% | 6hPa | 2.6V | 18:12:15 | 02:13:39 | 00:00:00 | |
| AA1-15 | 2026-09-06 01:32:02 | 51.65657 | 6.57243 | 130° | 40km/h | 34922m | 4.6m/s | -38.4°C | 0% | 6hPa | 2.5V | 18:12:15 | 02:13:38 | 00:00:00 | |
| BUE01 | 2026-09-06 01:32:02 | 51.65664 | 6.57232 | 138° | 35km/h | 34918m | 5.0m/s | -38.5°C | 0.5% | 6.0hPa | 2.5V | 00:00:00 | 00:00:00 | 00:00:00 | |
| DM0DOS-11 | 2026-09-06 01:32:00 | 51.65684 | 6.57204 | 83° | 16km/h | 34888m | 5m/s | -38.8°C | 2.1% | 6hPa | 2.5V | 08:30:00 | 02:13:31 | 00:00:00 | |
| DL1XH-west | 2026-09-06 01:31:59 | 51.65676 | 6.57219 | 155° | 22km/h | 34908m | 4.9m/s | -38.7°C | 0% | 6hPa | 2.6V | 18:12:15 | 02:13:35 | 00:00:00 | |
| DO2JMG | 2026-09-06 01:31:56 | 51.65684 | 6.57209 | 95° | 11km/h | 34893m | 5.2m/s | -38.7°C | 0% | 6hPa | 2.5V | 18:12:15 | 02:13:32 | 00:00:00 | |
| HSKMA3-T | 2026-09-06 01:31:54 | 51.65683 | 6.57195 | 86° | 24km/h | 34883m | 4.5m/s | -38.8°C | 0% | 6.1hPa | 2.5V | 18:12:15 | 02:13:30 | 00:00:00 | |
| BIOWL1-15 | 2026-09-06 01:31:52 | 51.65705 | 6.57130 | 146° | 29km/h | 34854m | 5.2m/s | -39.2°C | 0% | 6.1hPa | 2.5V | 18:12:15 | 02:13:24 | 00:00:00 | |
| AA1-15 | 2026-09-06 01:31:52 | 51.65685 | 6.57172 | 106° | 33km/h | 34874m | 4.6m/s | -38.9°C | 0% | 6.1hPa | 2.6V | 18:12:15 | 02:13:28 | 00:00:00 | |
| DL1XH-15 | 2026-09-06 01:31:51 | 51.65714 | 6.57120 | 147° | 16km/h | 34844m | 5.2m/s | -39.2°C | 2.2% | 6.1hPa | 2.6V | 08:30:00 | 02:13:22 | 00:00:00 | |
| DL1XH-west | 2026-09-06 01:31:49 | 51.65699 | 6.57137 | 138° | 33km/h | 34859m | 5.1m/s | -39.1°C | 0% | 6.1hPa | 2.5V | 18:12:15 | 02:13:25 | 00:00:00 | |
| DO2JMG | 2026-09-06 01:31:46 | 51.65714 | 6.57120 | 147° | 16km/h | 34844m | 5.2m/s | -39.2°C | 0% | 6.1hPa | 2.6V | 18:12:15 | 02:13:22 | 00:00:00 | |
| HSKMA3-T | 2026-09-06 01:31:43 | 51.65717 | 6.57105 | 78° | 20km/h | 34829m | 4.9m/s | -39.3°C | 0% | 6.1hPa | 2.5V | 18:12:15 | 02:13:19 | 00:00:00 | |
| DL1XH-15 | 2026-09-06 01:31:41 | 51.65726 | 6.57025 | 135° | 22km/h | 34794m | 5.4m/s | -39.3°C | 2.2% | 6.1hPa | 2.5V | 08:30:00 | 02:13:12 | 00:00:00 | |
| AA1-15 | 2026-09-06 01:31:41 | 51.65715 | 6.57084 | 86° | 33km/h | 34819m | 5.5m/s | -39.3°C | 0% | 6.1hPa | 2.6V | 18:12:15 | 02:13:17 | 00:00:00 | |
| DM0DOS-11 | 2026-09-06 01:31:39 | 51.65730 | 6.57020 | 143° | 18km/h | 34788m | 5.1m/s | -39.4°C | 2.2% | 6.2hPa | 2.5V | 08:30:00 | 02:13:11 | 00:00:00 | |
| DL1XH-west | 2026-09-06 01:31:38 | 51.65719 | 6.57044 | 114° | 31km/h | 34804m | 4.8m/s | -39.3°C | 0% | 6.1hPa | 2.5V | 18:12:15 | 02:13:14 | 00:00:00 | |
| DO2JMG | 2026-09-06 01:31:35 | 51.65730 | 6.57020 | 144° | 18km/h | 34789m | 5.1m/s | -39.4°C | 0% | 6.2hPa | 2.5V | 18:12:15 | 02:13:11 | 00:00:00 | |
| HSKMA3-T | 2026-09-06 01:31:32 | 51.65736 | 6.57008 | 98° | 15km/h | 34775m | 4.7m/s | -39.4°C | 0% | 6.1hPa | 2.6V | 18:12:15 | 02:13:08 | 00:00:00 | |
| BIOWL1-15 | 2026-09-06 01:31:30 | 51.65736 | 6.56991 | 89° | 27km/h | 34764m | 5.4m/s | -39.4°C | 0% | 6.2hPa | 2.5V | 18:12:15 | 02:13:06 | 00:00:00 | |
| DM0DOS-11 | 2026-09-06 01:31:29 | 51.65747 | 6.56926 | 124° | 29km/h | 34739m | 5.2m/s | -39.4°C | 2.2% | 6.2hPa | 2.5V | 08:30:00 | 02:13:01 | 00:00:00 | |
| DL1XH-west | 2026-09-06 01:31:28 | 51.65738 | 6.56964 | 101° | 37km/h | 34754m | 5m/s | -39.4°C | 0% | 6.2hPa | 2.6V | 18:12:15 | 02:13:04 | 00:00:00 | |
| DO2JMG | 2026-09-06 01:31:24 | 51.65751 | 6.56918 | 131° | 24km/h | 34733m | 5.2m/s | -39.4°C | 0% | 6.2hPa | 2.5V | 18:12:15 | 02:13:00 | 00:00:00 | |
| HSKMA3-T | 2026-09-06 01:31:22 | 51.65757 | 6.56907 | 125° | 13km/h | 34723m | 5m/s | -39.4°C | 0% | 6.2hPa | 2.6V | 18:12:15 | 02:12:58 | 00:00:00 | |
| BIOWL1-15 | 2026-09-06 01:31:20 | 51.65760 | 6.56877 | 98° | 29km/h | 34703m | 5.4m/s | -39.4°C | 0% | 6.2hPa | 2.5V | 18:12:15 | 02:12:54 | 00:00:00 | |
| DM0DOS-11 | 2026-09-06 01:31:20 | 51.65768 | 6.56837 | 116° | 38km/h | 34687m | 5.2m/s | -39.4°C | 2.2% | 6.2hPa | 2.6V | 08:30:00 | 02:12:51 | 00:00:00 | |
| AA1-15 | 2026-09-06 01:31:19 | 51.65760 | 6.56888 | 94° | 24km/h | 34708m | 5.1m/s | -39.4°C | 0% | 6.2hPa | 2.5V | 18:12:15 | 02:12:55 | 00:00:00 | |
| DL1XH-west | 2026-09-06 01:31:17 | 51.65762 | 6.56865 | 104° | 35km/h | 34698m | 5.5m/s | -39.4°C | 0% | 6.2hPa | 2.5V | 18:12:15 | 02:12:53 | 00:00:00 | |
| DO2JMG | 2026-09-06 01:31:13 | 51.65777 | 6.56813 | 124° | 29km/h | 34677m | 4.8m/s | -39.4°C | 0% | 6.2hPa | 2.5V | 18:12:15 | 02:12:49 | 00:00:00 | |
| SONCRA | 2026-09-06 01:31:12 | 51.65781 | 6.56805 | 123° | 20km/h | 34672m | 5.1m/s | -39.4°C | 0.5% | 6.2hPa | 2.5V | 00:00:00 | 00:00:00 | 00:00:00 | |
| DL1XH-15 | 2026-09-06 01:31:11 | 51.65783 | 6.56765 | 99° | 24km/h | 34641m | 5.1m/s | -39.4°C | 2.1% | 6.3hPa | 2.5V | 08:30:00 | 02:12:42 | 00:00:00 | |
| HSKMA3-T | 2026-09-06 01:31:11 | 51.65783 | 6.56798 | 117° | 16km/h | 34667m | 5.1m/s | -39.4°C | 0% | 6.2hPa | 2.5V | 18:12:15 | 02:12:47 | 00:00:00 | |
| BIOWL1-15 | 2026-09-06 01:31:09 | 51.65782 | 6.56774 | 87° | 20km/h | 34647m | 4.9m/s | -39.4°C | 0% | 6.2hPa | 2.5V | 18:12:15 | 02:12:43 | 00:00:00 | |
| AA1-15 | 2026-09-06 01:31:09 | 51.65784 | 6.56787 | 79° | 13km/h | 34656m | 5.3m/s | -39.4°C | 0% | 6.3hPa | 2.6V | 18:12:15 | 02:12:45 | 00:00:00 | |
| DL1XH-west | 2026-09-06 01:31:06 | 51.65783 | 6.56765 | 100° | 24km/h | 34641m | 5.1m/s | -39.4°C | 0% | 6.3hPa | 2.5V | 18:12:15 | 02:12:42 | 00:00:00 | |
| DO2JMG | 2026-09-06 01:31:02 | 51.65800 | 6.56726 | 143° | 31km/h | 34620m | 4.9m/s | -39.5°C | 0% | 6.3hPa | 2.5V | 18:12:15 | 02:12:38 | 00:00:00 | |
| DL1XH-15 | 2026-09-06 01:31:01 | 51.65817 | 6.56684 | 85° | 26km/h | 34588m | 5.3m/s | -39.8°C | 2.2% | 6.3hPa | 2.6V | 08:30:00 | 02:12:32 | 00:00:00 | |
| BIOWL1-15 | 2026-09-06 01:31:01 | 51.65815 | 6.56708 | 128° | 18km/h | 34605m | 5.5m/s | -39.7°C | 0% | 6.3hPa | 2.5V | 18:12:15 | 02:12:35 | 00:00:00 | |
| HSKMA3-T | 2026-09-06 01:31:01 | 51.65806 | 6.56719 | 146° | 27km/h | 34616m | 4.8m/s | -39.6°C | 0% | 6.3hPa | 2.5V | 18:12:15 | 02:12:37 | 00:00:00 | |
| AA1-15 | 2026-09-06 01:30:58 | 51.65817 | 6.56701 | 105° | 18km/h | 34600m | 5.8m/s | -39.8°C | 0% | 6.3hPa | 2.6V | 18:12:15 | 02:12:34 | 00:00:00 | |
| DL1XH-west | 2026-09-06 01:30:56 | 51.65817 | 6.56684 | 85° | 26km/h | 34588m | 5.3m/s | -39.8°C | 0% | 6.3hPa | 2.6V | 18:12:15 | 02:12:32 | 00:00:00 | |
| DO2JMG | 2026-09-06 01:30:52 | 51.65822 | 6.56640 | 123° | 27km/h | 34568m | 5.6m/s | -40°C | 0% | 6.4hPa | 2.6V | 18:12:15 | 02:12:28 | 00:00:00 | |
| DL1XH-15 | 2026-09-06 01:30:51 | 51.65851 | 6.56599 | 124° | 27km/h | 34536m | 5.3m/s | -40.1°C | 2.3% | 6.4hPa | 2.6V | 08:30:00 | 02:12:22 | 00:00:00 | |
| HSKMA3-T | 2026-09-06 01:30:50 | 51.65831 | 6.56625 | 145° | 27km/h | 34557m | 5.4m/s | -40.1°C | 0% | 6.3hPa | 2.5V | 18:12:15 | 02:12:26 | 00:00:00 | |
| BIOWL1-15 | 2026-09-06 01:30:49 | 51.65837 | 6.56619 | 149° | 26km/h | 34552m | 5.3m/s | -40.1°C | 0% | 6.4hPa | 2.5V | 18:12:15 | 02:12:25 | 00:00:00 | |
| AA1-15 | 2026-09-06 01:30:48 | 51.65842 | 6.56613 | 145° | 26km/h | 34546m | 5m/s | -40.1°C | 0% | 6.4hPa | 2.5V | 18:12:15 | 02:12:24 | 00:00:00 | |
| DL1XH-west | 2026-09-06 01:30:45 | 51.65855 | 6.56588 | 117° | 31km/h | 34531m | 5.5m/s | -40.1°C | 0% | 6.4hPa | 2.6V | 18:12:15 | 02:12:21 | 00:00:00 | |
| DO2JMG | 2026-09-06 01:30:42 | 51.65866 | 6.56550 | 116° | 35km/h | 34516m | 4.6m/s | -40.1°C | 0% | 6.4hPa | 2.5V | 18:12:15 | 02:12:18 | 00:00:00 | |
| SONCRA | 2026-09-06 01:30:42 | 51.65870 | 6.56539 | 121° | 29km/h | 34511m | 5.3m/s | -40.1°C | 0.5% | 6.4hPa | 2.5V | 00:00:00 | 00:00:00 | 00:00:00 | |
| DM0DOS-11 | 2026-09-06 01:30:41 | 51.65882 | 6.56518 | 148° | 7km/h | 34488m | 5.5m/s | -39.9°C | 2.2% | 6.4hPa | 2.5V | 08:30:00 | 02:12:13 | 00:00:00 | |
| BIOWL1-15 | 2026-09-06 01:30:39 | 51.65877 | 6.56524 | 140° | 16km/h | 34499m | 6.2m/s | -40°C | 0% | 6.4hPa | 2.6V | 18:12:15 | 02:12:15 | 00:00:00 | |
| AA1-15 | 2026-09-06 01:30:37 | 51.65882 | 6.56518 | 148° | 7km/h | 34488m | 5.5m/s | -39.9°C | 0% | 6.4hPa | 2.5V | 18:12:15 | 02:12:13 | 00:00:00 | |
| DL1XH-west | 2026-09-06 01:30:35 | 51.65884 | 6.56512 | 108° | 13km/h | 34477m | 5m/s | -39.9°C | 0% | 6.4hPa | 2.5V | 18:12:15 | 02:12:11 | 00:00:00 | |
| DO2JMG | 2026-09-06 01:30:32 | 51.65891 | 6.56484 | 116° | 37km/h | 34461m | 5.7m/s | -39.9°C | 0% | 6.5hPa | 2.5V | 18:12:15 | 02:12:08 | 00:00:00 | |
| DL1XH-15 | 2026-09-06 01:30:31 | 51.65919 | 6.56431 | 148° | 5km/h | 34429m | 6m/s | -40°C | 2.2% | 6.5hPa | 2.5V | 08:30:00 | 02:12:02 | 00:00:00 | |
| BIOWL1-15 | 2026-09-06 01:30:29 | 51.65907 | 6.56447 | 134° | 35km/h | 34445m | 4.7m/s | -39.9°C | 0% | 6.5hPa | 2.6V | 18:12:15 | 02:12:05 | 00:00:00 | |
| DM0DOS-11 | 2026-09-06 01:30:28 | 51.65917 | 6.56433 | 146° | 16km/h | 34435m | 5.7m/s | -40°C | 2.2% | 6.5hPa | 2.6V | 08:30:00 | 02:12:03 | 00:00:00 | |
| AA1-15 | 2026-09-06 01:30:26 | 51.65919 | 6.56431 | 149° | 5km/h | 34429m | 6m/s | -40°C | 0% | 6.5hPa | 2.5V | 18:12:15 | 02:12:02 | 00:00:00 | |
| DL1XH-west | 2026-09-06 01:30:25 | 51.65920 | 6.56430 | 13° | 4km/h | 34424m | 5.8m/s | -40°C | 0% | 6.5hPa | 2.5V | 18:12:15 | 02:12:01 | 00:00:00 | |
| DL3AQ-11 | 2026-09-06 01:30:25 | 51.65918 | 6.56429 | 15° | 9km/h | 34418m | 5.4m/s | -40.0°C | 0.5% | 6.5hPa | 2.5V | 00:00:00 | 00:00:00 | 00:00:00 | |
| AU51GT2 | 2026-09-06 01:30:24 | 51.65915 | 6.56427 | 34° | 13km/h | 34413m | 5.1m/s | -40.0°C | 0.5% | 6.5hPa | 2.5V | 00:00:00 | 00:00:00 | 00:00:00 | |
| DK5PH-5 | 2026-09-06 01:30:23 | 51.65915 | 6.56427 | 35° | 31km/h | 34413m | 5.0m/s | -40.0°C | 2.2% | 6.5hPa | 2.5V | 00:00:00 | 02:11:59 | 00:00:00 | |
| DO9LL-15 | 2026-09-06 01:30:22 | 51.65913 | 6.56422 | 59° | 31km/h | 34408m | 4.8m/s | -40.0°C | 2.2% | 6.5hPa | 2.6V | 00:00:00 | 02:11:58 | 00:00:00 | |
| DL1XH-15 | 2026-09-06 01:30:21 | 51.65934 | 6.56362 | 144° | 35km/h | 34375m | 4.9m/s | -40.3°C | 2.2% | 6.5hPa | 2.6V | 08:30:00 | 02:11:52 | 00:00:00 | |
| DM0DOS-11 | 2026-09-06 01:30:21 | 51.65927 | 6.56371 | 138° | 38km/h | 34380m | 5.7m/s | -40.3°C | 2.2% | 6.5hPa | 2.5V | 08:30:00 | 02:11:53 | 00:00:00 | |
| DO2JMG | 2026-09-06 01:30:21 | 51.65912 | 6.56415 | 84° | 22km/h | 34403m | 5.1m/s | -40.1°C | 0% | 6.5hPa | 2.6V | 18:12:15 | 02:11:57 | 00:00:00 | |
| BIOWL1-15 | 2026-09-06 01:30:19 | 51.65915 | 6.56394 | 119° | 33km/h | 34392m | 6m/s | -40.2°C | 0% | 6.5hPa | 2.5V | 18:12:15 | 02:11:55 | 00:00:00 | |
| HSKMA3-T | 2026-09-06 01:30:18 | 51.65920 | 6.56382 | 130° | 38km/h | 34386m | 6.2m/s | -40.2°C | 0% | 6.5hPa | 2.5V | 18:12:15 | 02:11:54 | 00:00:00 | |
| AA1-15 | 2026-09-06 01:30:15 | 51.65941 | 6.56355 | 145° | 27km/h | 34370m | 4.5m/s | -40.4°C | 0% | 6.5hPa | 2.6V | 18:12:15 | 02:11:51 | 00:00:00 | |
| DL1XH-west | 2026-09-06 01:30:14 | 51.65945 | 6.56349 | 137° | 20km/h | 34365m | 4.7m/s | -40.4°C | 0% | 6.5hPa | 2.5V | 18:12:15 | 02:11:50 | 00:00:00 | |
| DL3AQ-11 | 2026-09-06 01:30:14 | 51.65947 | 6.56343 | 106° | 13km/h | 34360m | 5.7m/s | -40.5°C | 0.5% | 6.5hPa | 2.5V | 00:00:00 | 00:00:00 | 00:00:00 | |
| EDDB2-11 | 2026-09-06 01:30:13 | 51.65940 | 6.56309 | 74° | 29km/h | 34336m | 5.3m/s | -40.9°C | 0.5% | 6.6hPa | 2.5V | 00:00:00 | 00:00:00 | 00:00:00 | |
| DL1XH-15 | 2026-09-06 01:30:11 | 51.65943 | 6.56271 | 120° | 35km/h | 34319m | 5.8m/s | -41.2°C | 2.3% | 6.6hPa | 2.5V | 08:30:00 | 02:11:42 | 00:00:00 | |
| DO2JMG | 2026-09-06 01:30:10 | 51.65942 | 6.56320 | 65° | 29km/h | 34342m | 5.8m/s | -40.8°C | 0% | 6.6hPa | 2.6V | 18:12:15 | 02:11:46 | 00:00:00 | |
| DM0DOS-11 | 2026-09-06 01:30:08 | 51.65940 | 6.56284 | 104° | 33km/h | 34325m | 5.5m/s | -41.1°C | 2.3% | 6.6hPa | 2.5V | 08:30:00 | 02:11:43 | 00:00:00 | |
| HSKMA3-T | 2026-09-06 01:30:08 | 51.65939 | 6.56297 | 88° | 33km/h | 34331m | 5.3m/s | -41°C | 0% | 6.6hPa | 2.5V | 18:12:15 | 02:11:44 | 00:00:00 | |
| AA1-15 | 2026-09-06 01:30:05 | 51.65948 | 6.56260 | 135° | 37km/h | 34313m | 5.9m/s | -41.3°C | 0% | 6.6hPa | 2.5V | 18:12:15 | 02:11:41 | 00:00:00 | |
| DL1XH-west | 2026-09-06 01:30:04 | 51.65955 | 6.56250 | 145° | 37km/h | 34308m | 5.6m/s | -41.4°C | 0% | 6.6hPa | 2.6V | 18:12:15 | 02:11:40 | 00:00:00 | |
| DJTTGO | 2026-09-06 01:30:03 | 51.65955 | 6.56250 | 146° | 37km/h | 34308m | 5.6m/s | 0°C | 0% | 0hPa | 2.6V | 00:00:00 | 00:00:00 | 00:00:00 | |
| DM0DOS-11 | 2026-09-06 01:30:02 | 51.65982 | 6.56188 | 91° | 44km/h | 34271m | 6.4m/s | -41.7°C | 2.4% | 6.6hPa | 2.6V | 08:30:00 | 02:11:33 | 00:00:00 | |
| DL1XH-15 | 2026-09-06 01:30:01 | 51.65983 | 6.56170 | 95° | 49km/h | 34265m | 5.7m/s | -41.8°C | 2.4% | 6.6hPa | 2.5V | 08:30:00 | 02:11:32 | 00:00:00 | |
| DO2JMG | 2026-09-06 01:30:00 | 51.65979 | 6.56226 | 120° | 22km/h | 34288m | 4.5m/s | -41.5°C | 0% | 6.6hPa | 2.5V | 18:12:15 | 02:11:36 | 00:00:00 | |
| BIOWL1-15 | 2026-09-06 01:29:58 | 51.65982 | 6.56204 | 93° | 35km/h | 34277m | 6.4m/s | -41.6°C | 0% | 6.6hPa | 2.6V | 18:12:15 | 02:11:34 | 00:00:00 | |
| DL1XH-west | 2026-09-06 01:29:54 | 51.65989 | 6.56130 | 111° | 49km/h | 34255m | 4.6m/s | -41.9°C | 0% | 6.7hPa | 2.5V | 18:12:15 | 02:11:30 | 00:00:00 | |
| AU51GT2 | 2026-09-06 01:29:53 | 51.66000 | 6.56099 | 130° | 38km/h | 34245m | 5.6m/s | -42.0°C | 0.6% | 6.6hPa | 2.6V | 00:00:00 | 00:00:00 | 00:00:00 | |
| DO9LL-15 | 2026-09-06 01:29:52 | 51.66000 | 6.56099 | 131° | 38km/h | 34245m | 5.6m/s | -42.0°C | 2.4% | 6.6hPa | 2.6V | 00:00:00 | 02:11:28 | 00:00:00 | |
| DL1XH-15 | 2026-09-06 01:29:51 | 51.66030 | 6.56053 | 115° | 35km/h | 34212m | 6m/s | -42.3°C | 2.5% | 6.7hPa | 2.6V | 08:30:00 | 02:11:22 | 00:00:00 | |
| DO2JMG | 2026-09-06 01:29:49 | 51.66018 | 6.56077 | 149° | 24km/h | 34227m | 5.3m/s | -42°C | 0% | 6.7hPa | 2.5V | 18:12:15 | 02:11:25 | 00:00:00 | |
| HSKMA3-T | 2026-09-06 01:29:47 | 51.66026 | 6.56064 | 123° | 27km/h | 34217m | 4.9m/s | -42.1°C | 0% | 6.7hPa | 2.5V | 18:12:15 | 02:11:23 | 00:00:00 | |
| WPPR-10 | 2026-09-06 01:29:46 | 51.66030 | 6.56053 | 115° | 35km/h | 34213m | 6.0m/s | -42.3°C | 0.6% | 6.7hPa | 2.5V | 00:00:00 | 00:00:00 | 00:00:00 | |
| AA1-15 | 2026-09-06 01:29:43 | 51.66043 | 6.55999 | 110° | 57km/h | 34193m | 6.1m/s | -42.4°C | 0% | 6.7hPa | 2.5V | 18:12:15 | 02:11:19 | 00:00:00 | |
| EDDB2-11 | 2026-09-06 01:29:42 | 51.66052 | 6.55957 | 110° | 51km/h | 34182m | 5.7m/s | -42.4°C | 0.6% | 6.7hPa | 2.5V | 00:00:00 | 00:00:00 | 00:00:00 | |
| DM0DOS-11 | 2026-09-06 01:29:38 | 51.66066 | 6.55900 | 112° | 24km/h | 34158m | 5.8m/s | -42.4°C | 2.5% | 6.8hPa | 2.5V | 08:30:00 | 02:11:13 | 00:00:00 | |
| DO2JMG | 2026-09-06 01:29:38 | 51.66064 | 6.55910 | 112° | 29km/h | 34164m | 6.3m/s | -42.4°C | 0% | 6.7hPa | 2.5V | 18:12:15 | 02:11:14 | 00:00:00 | |
| BIOWL1-15 | 2026-09-06 01:29:37 | 51.66070 | 6.55883 | 109° | 22km/h | 34146m | 5.7m/s | -42.4°C | 0% | 6.8hPa | 2.6V | 18:12:15 | 02:11:11 | 00:00:00 | |
| HSKMA3-T | 2026-09-06 01:29:36 | 51.66068 | 6.55892 | 110° | 22km/h | 34152m | 5.6m/s | -42.4°C | 0% | 6.8hPa | 2.5V | 18:12:15 | 02:11:12 | 00:00:00 | |
| DB0UT-7 | 2026-09-06 01:29:36 | 51.66068 | 6.55892 | 111° | 40km/h | 34152m | 5.6m/s | -42.4°C | 2.5% | 6.7hPa | 2.6V | 00:00:00 | 00:00:00 | 00:00:00 | |
| DF5WG-10 | 2026-09-06 01:29:35 | 51.66070 | 6.55883 | 110° | 35km/h | 34147m | 5.6m/s | -42.4°C | 2.5% | 6.7hPa | 2.6V | 00:00:00 | 02:11:11 | 00:00:00 | |
| GOEST3-10 | 2026-09-06 01:29:34 | 51.66072 | 6.55875 | 107° | 33km/h | 34141m | 5.8m/s | -42.4°C | 2.6% | 6.7hPa | 2.6V | 00:00:00 | 00:00:00 | 00:00:00 | |
| DC6BW-12 | 2026-09-06 01:29:33 | 51.66072 | 6.55875 | 108° | 24km/h | 34141m | 5.9m/s | -42.5°C | 0.7% | 6.8hPa | 2.6V | 00:00:00 | 00:00:00 | 00:00:00 | |
| DM0DOS-11 | 2026-09-06 01:29:32 | 51.66068 | 6.55772 | 64° | 42km/h | 34100m | 6.6m/s | -42.2°C | 2.5% | 6.8hPa | 2.6V | 08:30:00 | 02:11:03 | 00:00:00 | |
| AA1-15 | 2026-09-06 01:29:32 | 51.66075 | 6.55852 | 100° | 35km/h | 34129m | 5.4m/s | -42.4°C | 0% | 6.8hPa | 2.5V | 18:12:15 | 02:11:08 | 00:00:00 | |
| DL1XH-15 | 2026-09-06 01:29:31 | 51.66063 | 6.55757 | 63° | 42km/h | 34094m | 5.5m/s | -42.2°C | 2.5% | 6.8hPa | 2.6V | 08:30:00 | 02:11:02 | 00:00:00 | |
| DO2JMG | 2026-09-06 01:29:28 | 51.66072 | 6.55788 | 71° | 42km/h | 34107m | 7.1m/s | -42.3°C | 0% | 6.8hPa | 2.6V | 18:12:15 | 02:11:04 | 00:00:00 | |
| HSKMA3-T | 2026-09-06 01:29:26 | 51.66063 | 6.55757 | 63° | 42km/h | 34094m | 5.5m/s | -42.2°C | 0% | 6.8hPa | 2.6V | 18:12:15 | 02:11:02 | 00:00:00 | |
| BIOWL1-15 | 2026-09-06 01:29:24 | 51.66054 | 6.55712 | 83° | 40km/h | 34077m | 6.8m/s | -42.1°C | 0% | 6.8hPa | 2.5V | 18:12:15 | 02:10:59 | 00:00:00 | |
| NBG1-10 | 2026-09-06 01:29:24 | 51.66056 | 6.55727 | 75° | 47km/h | 34084m | 5.8m/s | 0°C | 0% | 6.8hPa | 2.5V | 00:00:00 | 02:11:00 | 08:30:00 | |
| DC4HF-4 | 2026-09-06 01:29:23 | 51.66053 | 6.55695 | 91° | 40km/h | 34071m | 6.0m/s | -42.1°C | 0.6% | 6.8hPa | 2.6V | 00:00:00 | 00:00:00 | 00:00:00 | |
| AU51GT2 | 2026-09-06 01:29:22 | 51.66054 | 6.55679 | 94° | 40km/h | 34066m | 5.0m/s | -42.1°C | 0.6% | 6.8hPa | 2.6V | 00:00:00 | 00:00:00 | 00:00:00 | |
| DL1XH-15 | 2026-09-06 01:29:21 | 51.66045 | 6.55608 | 55° | 40km/h | 34036m | 5.8m/s | -42.1°C | 2.5% | 6.9hPa | 2.6V | 08:30:00 | 02:10:52 | 00:00:00 | |
| AA1-15 | 2026-09-06 01:29:21 | 51.66054 | 6.55679 | 95° | 40km/h | 34065m | 5m/s | -42.1°C | 0% | 6.8hPa | 2.6V | 18:12:15 | 02:10:57 | 00:00:00 | |
| DO2JMG | 2026-09-06 01:29:17 | 51.66050 | 6.55621 | 63° | 37km/h | 34042m | 6.7m/s | -42.2°C | 0% | 6.9hPa | 2.6V | 18:12:15 | 02:10:53 | 00:00:00 | |
| HSKMA3-T | 2026-09-06 01:29:15 | 51.66039 | 6.55594 | 55° | 44km/h | 34030m | 5.3m/s | -42.2°C | 0% | 6.9hPa | 2.6V | 18:12:15 | 02:10:51 | 00:00:00 | |
| BIOWL1-15 | 2026-09-06 01:29:14 | 51.66033 | 6.55578 | 58° | 47km/h | 34025m | 6.4m/s | -42.2°C | 0% | 6.9hPa | 2.5V | 18:12:15 | 02:10:50 | 00:00:00 | |
| DM0DOS-11 | 2026-09-06 01:29:12 | 51.66003 | 6.55447 | 70° | 42km/h | 33982m | 6.2m/s | -42.2°C | 2.5% | 6.9hPa | 2.5V | 08:30:00 | 02:10:43 | 00:00:00 | |
| DL1XH-west | 2026-09-06 01:29:10 | 51.66013 | 6.55501 | 74° | 51km/h | 34001m | 5.6m/s | -42.2°C | 0% | 6.9hPa | 2.6V | 18:12:15 | 02:10:46 | 00:00:00 | |
| DO2JMG | 2026-09-06 01:29:07 | 51.66003 | 6.55447 | 71° | 42km/h | 33982m | 6.2m/s | -42.2°C | 0% | 6.9hPa | 2.5V | 18:12:15 | 02:10:43 | 00:00:00 | |
| HSKMA3-T | 2026-09-06 01:29:05 | 51.65996 | 6.55417 | 74° | 37km/h | 33971m | 5.6m/s | -42.1°C | 0% | 6.9hPa | 2.5V | 18:12:15 | 02:10:41 | 00:00:00 | |
| BIOWL1-15 | 2026-09-06 01:29:04 | 51.65989 | 6.55370 | 72° | 44km/h | 33952m | 5.3m/s | -42.1°C | 0% | 7hPa | 2.5V | 18:12:15 | 02:10:38 | 00:00:00 | |
| EDDB2-12 | 2026-09-06 01:29:03 | 51.65992 | 6.55387 | 76° | 40km/h | 33958m | 6.2m/s | -42.1°C | 0.7% | 7.0hPa | 2.5V | 00:00:00 | 00:00:00 | 00:00:00 | |
| DH3RM | 2026-09-06 01:29:02 | 51.65992 | 6.55387 | 78° | 40km/h | 33958m | 6.2m/s | -42.1°C | 0.7% | 7.0hPa | 2.5V | 00:00:00 | 00:00:00 | 00:00:00 | |
| DL1XH-15 | 2026-09-06 01:29:01 | 51.65936 | 6.55263 | 45° | 66km/h | 33916m | 4.2m/s | -41.9°C | 2.5% | 7hPa | 2.5V | 08:30:00 | 02:10:32 | 00:00:00 | |
| DL1XH-west | 2026-09-06 01:28:59 | 51.65970 | 6.55317 | 50° | 58km/h | 33934m | 7.7m/s | -42°C | 0% | 7hPa | 2.6V | 18:12:15 | 02:10:35 | 00:00:00 | |
| DM0DOS-11 | 2026-09-06 01:28:58 | 51.65947 | 6.55281 | 42° | 66km/h | 33921m | 5.2m/s | -42°C | 2.5% | 7hPa | 2.6V | 08:30:00 | 02:10:33 | 00:00:00 | |
| DO2JMG | 2026-09-06 01:28:57 | 51.65948 | 6.55281 | 42° | 66km/h | 33921m | 5.2m/s | -42°C | 0% | 7hPa | 2.6V | 18:12:15 | 02:10:33 | 00:00:00 | |
| HSKMA3-T | 2026-09-06 01:28:55 | 51.65925 | 6.55243 | 51° | 64km/h | 33911m | 5m/s | -41.9°C | 0% | 7hPa | 2.5V | 18:12:15 | 02:10:31 | 00:00:00 | |
| DL3AQ-11 | 2026-09-06 01:28:54 | 51.65909 | 6.55203 | 68° | 53km/h | 33899m | 7.0m/s | -41.8°C | 0.6% | 7.0hPa | 2.5V | 00:00:00 | 00:00:00 | 00:00:00 | |
| DK5PH-5 | 2026-09-06 01:28:53 | 51.65909 | 6.55203 | 69° | 53km/h | 33899m | 6.9m/s | -41.7°C | 2.5% | 7.0hPa | 2.5V | 00:00:00 | 02:10:29 | 00:00:00 | |
| DM0DOS-11 | 2026-09-06 01:28:52 | 51.65889 | 6.55104 | 46° | 47km/h | 33862m | 6.2m/s | -41.6°C | 2.4% | 7hPa | 2.5V | 08:30:00 | 02:10:23 | 00:00:00 | |
| BIOWL1-15 | 2026-09-06 01:28:51 | 51.65904 | 6.55164 | 83° | 44km/h | 33886m | 5.2m/s | -41.7°C | 0% | 7hPa | 2.6V | 18:12:15 | 02:10:27 | 00:00:00 | |
| DL1XH-15 | 2026-09-06 01:28:51 | 51.65879 | 6.55089 | 42° | 57km/h | 33856m | 6.3m/s | -41.6°C | 2.5% | 7.1hPa | 2.6V | 08:30:00 | 02:10:22 | 00:00:00 | |
| DL1XH-west | 2026-09-06 01:28:49 | 51.65900 | 6.55132 | 71° | 38km/h | 33875m | 6.3m/s | -41.6°C | 0% | 7hPa | 2.5V | 18:12:15 | 02:10:25 | 00:00:00 | |
| DO2JMG | 2026-09-06 01:28:46 | 51.65879 | 6.55089 | 42° | 58km/h | 33856m | 6.3m/s | -41.6°C | 0% | 7.1hPa | 2.6V | 18:12:15 | 02:10:22 | 00:00:00 | |
| SONDE2-11 | 2026-09-06 01:28:45 | 51.65868 | 6.55073 | 42° | 66km/h | 33850m | 6.4m/s | -41.6°C | 0.6% | 7.1hPa | 2.5V | 00:00:00 | 00:00:00 | 00:00:00 | |
| HSKMA3-T | 2026-09-06 01:28:44 | 51.65855 | 6.55053 | 45° | 73km/h | 33843m | 6.9m/s | -41.5°C | 0% | 7.1hPa | 2.5V | 18:12:15 | 02:10:20 | 00:00:00 | |
| DJ2KF-10 | 2026-09-06 01:28:44 | 51.65855 | 6.55053 | 46° | 44km/h | 33843m | 6.8m/s | -41.5°C | 2.4% | 7.0hPa | 2.5V | 00:00:00 | 02:10:20 | 00:00:00 | |
| DH3RM | 2026-09-06 01:28:43 | 51.65855 | 6.55053 | 46° | 73km/h | 33843m | 6.9m/s | -41.5°C | 0.6% | 7.1hPa | 2.5V | 00:00:00 | 00:00:00 | 00:00:00 | |
| DL1XH-15 | 2026-09-06 01:28:41 | 51.65792 | 6.54875 | 55° | 35km/h | 33790m | 7m/s | -41.5°C | 2.5% | 7.1hPa | 2.5V | 08:30:00 | 02:10:12 | 00:00:00 | |
| BIOWL1-15 | 2026-09-06 01:28:40 | 51.65796 | 6.54888 | 65° | 42km/h | 33797m | 6.8m/s | -41.6°C | 0% | 7.1hPa | 2.5V | 18:12:15 | 02:10:13 | 00:00:00 | |
| DL1XH-west | 2026-09-06 01:28:39 | 51.65806 | 6.54928 | 69° | 62km/h | 33810m | 6m/s | -41.5°C | 0% | 7.1hPa | 2.6V | 18:12:15 | 02:10:15 | 00:00:00 | |
| DO2JMG | 2026-09-06 01:28:35 | 51.65786 | 6.54864 | 43° | 31km/h | 33784m | 6.6m/s | -41.5°C | 0% | 7.1hPa | 2.5V | 18:12:15 | 02:10:11 | 00:00:00 | |
| HSKMA3-T | 2026-09-06 01:28:33 | 51.65772 | 6.54848 | 33° | 38km/h | 33771m | 6m/s | -41.5°C | 0% | 7.2hPa | 2.6V | 18:12:15 | 02:10:09 | 00:00:00 | |
| DM0DOS-11 | 2026-09-06 01:28:32 | 51.65720 | 6.54752 | 57° | 58km/h | 33734m | 5.8m/s | -41.5°C | 2.5% | 7.2hPa | 2.6V | 08:30:00 | 02:10:03 | 00:00:00 | |
| DL1XH-west | 2026-09-06 01:28:29 | 51.65737 | 6.54792 | 54° | 60km/h | 33746m | 6.2m/s | -41.6°C | 0% | 7.2hPa | 2.5V | 18:12:15 | 02:10:05 | 00:00:00 | |
| AA1-15 | 2026-09-06 01:28:28 | 51.65728 | 6.54772 | 57° | 60km/h | 33740m | 5.6m/s | -41.6°C | 0% | 7.2hPa | 2.5V | 18:12:15 | 02:10:04 | 00:00:00 | |
| BIOWL1-15 | 2026-09-06 01:28:26 | 51.65712 | 6.54733 | 56° | 53km/h | 33728m | 6.4m/s | -41.5°C | 0% | 7.2hPa | 2.6V | 18:12:15 | 02:10:02 | 00:00:00 | |
| DO2JMG | 2026-09-06 01:28:24 | 51.65699 | 6.54703 | 51° | 38km/h | 33715m | 6.1m/s | -41.4°C | 0% | 7.2hPa | 2.5V | 18:12:15 | 02:10:00 | 00:00:00 | |
| HSKMA3-T | 2026-09-06 01:28:22 | 51.65688 | 6.54681 | 50° | 31km/h | 33703m | 6.6m/s | -41.3°C | 0% | 7.2hPa | 2.5V | 18:12:15 | 02:09:58 | 00:00:00 | |
| DL1ZP-14 | 2026-09-06 01:28:22 | 51.65683 | 6.54672 | 50° | 31km/h | 33696m | 6.9m/s | -41.3°C | 0.6% | 7.2hPa | 2.6V | 00:00:00 | 00:00:00 | 00:00:00 | |
| DL1XH-15 | 2026-09-06 01:28:21 | 51.65653 | 6.54621 | 39° | 35km/h | 33664m | 7.2m/s | -41.1°C | 2.4% | 7.3hPa | 2.6V | 08:30:00 | 02:09:52 | 00:00:00 | |
| DL1XH-west | 2026-09-06 01:28:19 | 51.65672 | 6.54651 | 50° | 35km/h | 33683m | 5.8m/s | -41.2°C | 0% | 7.2hPa | 2.5V | 18:12:15 | 02:09:55 | 00:00:00 | |
| DM0DOS-11 | 2026-09-06 01:28:18 | 51.65660 | 6.54630 | 43° | 35km/h | 33671m | 7m/s | -41.1°C | 2.4% | 7.3hPa | 2.5V | 08:30:00 | 02:09:53 | 00:00:00 | |
| AA1-15 | 2026-09-06 01:28:17 | 51.65660 | 6.54630 | 44° | 35km/h | 33671m | 7m/s | -41.1°C | 0% | 7.3hPa | 2.5V | 18:12:15 | 02:09:53 | 00:00:00 | |
| BIOWL1-15 | 2026-09-06 01:28:16 | 51.65653 | 6.54621 | 40° | 35km/h | 33664m | 7.2m/s | -41.1°C | 0% | 7.3hPa | 2.6V | 18:12:15 | 02:09:52 | 00:00:00 | |
| DO2JMG | 2026-09-06 01:28:14 | 51.65640 | 6.54603 | 43° | 35km/h | 33652m | 5.1m/s | -41°C | 0% | 7.3hPa | 2.6V | 18:12:15 | 02:09:50 | 00:00:00 | |
| HSKMA3-T | 2026-09-06 01:28:11 | 51.65626 | 6.54567 | 72° | 37km/h | 33633m | 7.9m/s | -40.8°C | 0% | 7.3hPa | 2.5V | 18:12:15 | 02:09:47 | 00:00:00 | |
| DC4HF-4 | 2026-09-06 01:28:11 | 51.65624 | 6.54553 | 78° | 38km/h | 33626m | 6.6m/s | -40.8°C | 0.6% | 7.3hPa | 2.5V | 00:00:00 | 00:00:00 | 00:00:00 | |
| GOEST3-10 | 2026-09-06 01:28:09 | 51.65622 | 6.54538 | 78° | 29km/h | 33621m | 5.0m/s | -40.7°C | 2.4% | 7.2hPa | 2.5V | 00:00:00 | 02:09:45 | 00:00:00 | |
| DL1XH-15 | 2026-09-06 01:28:08 | 51.65613 | 6.54505 | 42° | 22km/h | 33602m | 7.2m/s | -40.6°C | 2.4% | 7.3hPa | 2.5V | 08:30:00 | 02:09:42 | 00:00:00 | |
| DL1XH-west | 2026-09-06 01:28:08 | 51.65619 | 6.54524 | 72° | 33km/h | 33615m | 5.2m/s | -40.7°C | 0% | 7.3hPa | 2.6V | 18:12:15 | 02:09:44 | 00:00:00 | |
| AA1-15 | 2026-09-06 01:28:07 | 51.65616 | 6.54513 | 61° | 27km/h | 33609m | 6.9m/s | -40.7°C | 0% | 7.3hPa | 2.6V | 18:12:15 | 02:09:43 | 00:00:00 | |
| BIOWL1-15 | 2026-09-06 01:28:05 | 51.65608 | 6.54500 | 22° | 20km/h | 33595m | 6.4m/s | -40.6°C | 0% | 7.4hPa | 2.5V | 18:12:15 | 02:09:41 | 00:00:00 | |
| DO2JMG | 2026-09-06 01:28:03 | 51.65598 | 6.54497 | 9° | 18km/h | 33583m | 6.4m/s | -40.5°C | 0% | 7.4hPa | 2.6V | 18:12:15 | 02:09:39 | 00:00:00 | |
| HSKMA3-T | 2026-09-06 01:28:00 | 51.65588 | 6.54486 | 55° | 20km/h | 33564m | 5.6m/s | -40.4°C | 0% | 7.4hPa | 2.5V | 18:12:15 | 02:09:36 | 00:00:00 | |
| DL1XH-west | 2026-09-06 01:27:58 | 51.65582 | 6.54470 | 59° | 26km/h | 33552m | 6.7m/s | -40.3°C | 0% | 7.4hPa | 2.6V | 18:12:15 | 02:09:34 | 00:00:00 | |
| AA1-15 | 2026-09-06 01:27:56 | 51.65573 | 6.54451 | 54° | 31km/h | 33539m | 6.6m/s | -40.3°C | 0% | 7.4hPa | 2.6V | 18:12:15 | 02:09:32 | 00:00:00 | |
| BIOWL1-15 | 2026-09-06 01:27:55 | 51.65569 | 6.54441 | 55° | 31km/h | 33532m | 6.1m/s | -40.3°C | 0% | 7.4hPa | 2.5V | 18:12:15 | 02:09:31 | 00:00:00 | |
| DO2JMG | 2026-09-06 01:27:52 | 51.65559 | 6.54409 | 76° | 27km/h | 33513m | 7.1m/s | -40.2°C | 0% | 7.4hPa | 2.5V | 18:12:15 | 02:09:28 | 00:00:00 | |
| DL1XH-15 | 2026-09-06 01:27:51 | 51.65548 | 6.54373 | 1° | 22km/h | 33476m | 7.5m/s | -40°C | 2.3% | 7.5hPa | 2.5V | 08:30:00 | 02:09:22 | 00:00:00 | |
| HSKMA3-T | 2026-09-06 01:27:50 | 51.65558 | 6.54390 | 86° | 20km/h | 33501m | 5.5m/s | -40.2°C | 0% | 7.4hPa | 2.6V | 18:12:15 | 02:09:26 | 00:00:00 | |
| DL1XH-west | 2026-09-06 01:27:47 | 51.65553 | 6.54374 | 17° | 15km/h | 33483m | 7m/s | -40.1°C | 0% | 7.5hPa | 2.5V | 18:12:15 | 02:09:23 | 00:00:00 | |
| AA1-15 | 2026-09-06 01:27:46 | 51.65548 | 6.54373 | 2° | 22km/h | 33476m | 7.5m/s | -40.1°C | 0% | 7.5hPa | 2.5V | 18:12:15 | 02:09:22 | 00:00:00 | |
| DO1YAY-16 | 2026-09-06 01:27:46 | 51.65542 | 6.54373 | 359° | 26km/h | 33469m | 6.0m/s | -40.0°C | 0.6% | 7.5hPa | 2.6V | 00:00:00 | 00:00:00 | 00:00:00 | |
| DM0DOS-11 | 2026-09-06 01:27:45 | 51.65524 | 6.54368 | 37° | 18km/h | 33455m | 6.1m/s | -40°C | 2.3% | 7.5hPa | 2.6V | 08:30:00 | 02:09:18 | 00:00:00 | |
| BIOWL1-15 | 2026-09-06 01:27:44 | 51.65535 | 6.54373 | 5° | 27km/h | 33464m | 4.1m/s | -40°C | 0% | 7.5hPa | 2.6V | 18:12:15 | 02:09:20 | 00:00:00 | |
| DF5WG-10 | 2026-09-06 01:27:43 | 51.65529 | 6.54371 | 17° | 18km/h | 33460m | 4.4m/s | -39.9°C | 2.3% | 7.4hPa | 2.6V | 00:00:00 | 02:09:19 | 00:00:00 | |
| DL1XH-15 | 2026-09-06 01:27:41 | 51.65536 | 6.54327 | 134° | 16km/h | 33416m | 7.1m/s | -39.7°C | 2.2% | 7.5hPa | 2.5V | 08:30:00 | 02:09:12 | 00:00:00 | |
| DO2JMG | 2026-09-06 01:27:41 | 51.65522 | 6.54362 | 77° | 16km/h | 33448m | 6.6m/s | -39.9°C | 0% | 7.5hPa | 2.5V | 18:12:15 | 02:09:17 | 00:00:00 | |
| HSKMA3-T | 2026-09-06 01:27:40 | 51.65522 | 6.54355 | 110° | 20km/h | 33442m | 6.3m/s | -39.9°C | 0% | 7.5hPa | 2.5V | 18:12:15 | 02:09:16 | 00:00:00 | |
| DL1XH-west | 2026-09-06 01:27:37 | 51.65533 | 6.54333 | 133° | 22km/h | 33423m | 7m/s | -39.8°C | 0% | 7.5hPa | 2.6V | 18:12:15 | 02:09:13 | 00:00:00 | |
| DB0UT-7 | 2026-09-06 01:27:36 | 51.65536 | 6.54327 | 135° | 15km/h | 33416m | 7.0m/s | -39.7°C | 2.2% | 7.5hPa | 2.6V | 00:00:00 | 00:00:00 | 00:00:00 | |
| DM0DOS-11 | 2026-09-06 01:27:35 | 51.65541 | 6.54320 | 126° | 4km/h | 33391m | 5.7m/s | -39.6°C | 2.2% | 7.6hPa | 2.6V | 08:30:00 | 02:09:08 | 00:00:00 | |
| AA1-15 | 2026-09-06 01:27:35 | 51.65538 | 6.54324 | 137° | 9km/h | 33409m | 6.6m/s | -39.7°C | 0% | 7.5hPa | 2.5V | 18:12:15 | 02:09:11 | 00:00:00 | |
| BIOWL1-15 | 2026-09-06 01:27:33 | 51.65540 | 6.54321 | 148° | 2km/h | 33397m | 5.7m/s | -39.6°C | 0% | 7.6hPa | 2.6V | 18:12:15 | 02:09:09 | 00:00:00 | |
| DO2JMG | 2026-09-06 01:27:30 | 51.65542 | 6.54315 | 107° | 13km/h | 33379m | 6.7m/s | -39.6°C | 0% | 7.6hPa | 2.5V | 18:12:15 | 02:09:06 | 00:00:00 | |
| HSKMA3-T | 2026-09-06 01:27:29 | 51.65543 | 6.54309 | 104° | 18km/h | 33372m | 6.8m/s | -39.6°C | 0% | 7.6hPa | 2.5V | 18:12:15 | 02:09:05 | 00:00:00 | |
| DL1XH-west | 2026-09-06 01:27:26 | 51.65545 | 6.54286 | 94° | 16km/h | 33354m | 5.7m/s | -39.8°C | 0% | 7.6hPa | 2.6V | 18:12:15 | 02:09:02 | 00:00:00 | |
| AA1-15 | 2026-09-06 01:27:24 | 51.65545 | 6.54279 | 105° | 2km/h | 33341m | 6.5m/s | -39.9°C | 0% | 7.6hPa | 2.6V | 18:12:15 | 02:09:00 | 00:00:00 | |
| BIOWL1-15 | 2026-09-06 01:27:22 | 51.65547 | 6.54282 | 228° | 13km/h | 33329m | 5.5m/s | -40°C | 0% | 7.6hPa | 2.5V | 18:12:15 | 02:08:58 | 00:00:00 | |
| DL1XH-15 | 2026-09-06 01:27:21 | 51.65577 | 6.54279 | 141° | 24km/h | 33295m | 4.9m/s | -39.8°C | 2.3% | 7.7hPa | 2.5V | 08:30:00 | 02:08:52 | 00:00:00 | |
| DO2JMG | 2026-09-06 01:27:19 | 51.65560 | 6.54290 | 180° | 24km/h | 33312m | 6.2m/s | -39.9°C | 0% | 7.7hPa | 2.6V | 18:12:15 | 02:08:55 | 00:00:00 | |
| DL1XH-west | 2026-09-06 01:27:16 | 51.65577 | 6.54279 | 141° | 24km/h | 33295m | 4.9m/s | -39.8°C | 0% | 7.7hPa | 2.5V | 18:12:15 | 02:08:52 | 00:00:00 | |
| DM0DOS-11 | 2026-09-06 01:27:15 | 51.65586 | 6.54268 | 219° | 7km/h | 33274m | 5.5m/s | -39.8°C | 2.2% | 7.7hPa | 2.6V | 08:30:00 | 02:08:48 | 00:00:00 | |
| AA1-15 | 2026-09-06 01:27:14 | 51.65584 | 6.54269 | 129° | 11km/h | 33285m | 5.7m/s | -39.8°C | 0% | 7.7hPa | 2.5V | 18:12:15 | 02:08:50 | 00:00:00 | |
| DF5WG-10 | 2026-09-06 01:27:13 | 51.65585 | 6.54267 | 160° | 22km/h | 33280m | 5.7m/s | -39.7°C | 2.3% | 7.6hPa | 2.6V | 00:00:00 | 02:08:49 | 08:30:00 | |
| DB0NH | 2026-09-06 01:27:12 | 51.65586 | 6.54268 | 220° | 16km/h | 33274m | 5.4m/s | -39.7°C | 2.2% | 7.7hPa | 2.6V | 00:00:00 | 02:08:48 | 00:00:00 | |
| DL1XH-15 | 2026-09-06 01:27:11 | 51.65620 | 6.54277 | 158° | 31km/h | 33241m | 6m/s | -39.8°C | 2.3% | 7.7hPa | 2.6V | 08:30:00 | 02:08:42 | 00:00:00 | |
| BIOWL1-15 | 2026-09-06 01:27:11 | 51.65588 | 6.54271 | 222° | 15km/h | 33268m | 5.5m/s | -39.8°C | 0% | 7.7hPa | 2.5V | 18:12:15 | 02:08:47 | 00:00:00 | |
| DO2JMG | 2026-09-06 01:27:09 | 51.65597 | 6.54279 | 198° | 27km/h | 33257m | 5.5m/s | -39.8°C | 0% | 7.7hPa | 2.5V | 18:12:15 | 02:08:45 | 00:00:00 | |
| HSKMA3-T | 2026-09-06 01:27:08 | 51.65612 | 6.54281 | 171° | 33km/h | 33246m | 5.5m/s | -39.8°C | 0% | 7.7hPa | 2.6V | 18:12:15 | 02:08:43 | 00:00:00 | |
| DL1XH-west | 2026-09-06 01:27:06 | 51.65620 | 6.54277 | 159° | 31km/h | 33241m | 6m/s | -39.8°C | 0% | 7.7hPa | 2.6V | 18:12:15 | 02:08:42 | 00:00:00 | |
| AA1-15 | 2026-09-06 01:27:04 | 51.65632 | 6.54264 | 131° | 27km/h | 33228m | 6.1m/s | -39.8°C | 0% | 7.7hPa | 2.5V | 18:12:15 | 02:08:40 | 00:00:00 | |
| MET0W-2 | 2026-09-06 01:27:04 | 51.65636 | 6.54256 | 119° | 22km/h | 33223m | 5.4m/s | -39.8°C | 0.5% | 7.8hPa | 2.5V | 00:00:00 | 00:00:00 | 00:00:00 | |
| DF5WG-10 | 2026-09-06 01:27:03 | 51.65636 | 6.54256 | 120° | 18km/h | 33223m | 5.4m/s | -39.8°C | 2.2% | 7.7hPa | 2.5V | 00:00:00 | 02:08:39 | 00:00:00 | |
| SMARD9-15 | 2026-09-06 01:27:02 | 51.65640 | 6.54243 | 128° | 13km/h | 33213m | 5.5m/s | -39.9°C | 0.6% | 7.8hPa | 2.5V | 00:00:00 | 00:00:00 | 00:00:00 | |
| DL1XH-15 | 2026-09-06 01:27:01 | 51.65662 | 6.54243 | 193° | 22km/h | 33182m | 4.9m/s | -40.1°C | 2.3% | 7.8hPa | 2.5V | 08:30:00 | 02:08:32 | 00:00:00 | |
| BIOWL1-15 | 2026-09-06 01:27:00 | 51.65643 | 6.54240 | 153° | 13km/h | 33206m | 6.6m/s | -39.9°C | 0% | 7.8hPa | 2.6V | 18:12:15 | 02:08:36 | 00:00:00 | |
| DO2JMG | 2026-09-06 01:26:58 | 51.65651 | 6.54239 | 191° | 20km/h | 33193m | 6.2m/s | -40°C | 0% | 7.8hPa | 2.5V | 18:12:15 | 02:08:34 | 00:00:00 | |
| HSKMA3-T | 2026-09-06 01:26:56 | 51.65662 | 6.54243 | 194° | 22km/h | 33182m | 4.9m/s | -40.1°C | 0% | 7.8hPa | 2.5V | 18:12:15 | 02:08:32 | 00:00:00 | |
| DL1XH-west | 2026-09-06 01:26:55 | 51.65667 | 6.54245 | 191° | 20km/h | 33177m | 5.1m/s | -40.1°C | 0% | 7.8hPa | 2.5V | 18:12:15 | 02:08:31 | 00:00:00 | |
| AA1-15 | 2026-09-06 01:26:53 | 51.65674 | 6.54245 | 151° | 9km/h | 33166m | 6.1m/s | -40.1°C | 0% | 7.9hPa | 2.6V | 18:12:15 | 02:08:29 | 00:00:00 | |
| DK5PH-5 | 2026-09-06 01:26:53 | 51.65674 | 6.54245 | 151° | 22km/h | 33166m | 6.0m/s | -40.1°C | 2.3% | 7.8hPa | 2.5V | 00:00:00 | 02:08:29 | 00:00:00 | |
| DH3RM | 2026-09-06 01:26:52 | 51.65674 | 6.54245 | 152° | 9km/h | 33166m | 6.1m/s | -40.1°C | 0.6% | 7.9hPa | 2.5V | 00:00:00 | 00:00:00 | 00:00:00 | |
| DL1XH-15 | 2026-09-06 01:26:51 | 51.65693 | 6.54185 | 139° | 40km/h | 33128m | 5m/s | -40.3°C | 2.3% | 7.9hPa | 2.5V | 08:30:00 | 02:08:22 | 00:00:00 | |
| BIOWL1-15 | 2026-09-06 01:26:50 | 51.65677 | 6.54228 | 99° | 24km/h | 33150m | 4.5m/s | -40.2°C | 0% | 7.8hPa | 2.5V | 18:12:15 | 02:08:26 | 00:00:00 | |
| DO2JMG | 2026-09-06 01:26:47 | 51.65686 | 6.54196 | 131° | 37km/h | 33133m | 6.4m/s | -40.3°C | 0% | 7.8hPa | 2.6V | 18:12:15 | 02:08:23 | 00:00:00 | |
| HTAHTA | 2026-09-06 01:26:46 | 51.65693 | 6.54185 | 139° | 38km/h | 33128m | 5.0m/s | -40.3°C | 0.6% | 7.9hPa | 2.6V | 00:00:00 | 00:00:00 | 00:00:00 | |
| DM0DOS-11 | 2026-09-06 01:26:45 | 51.65718 | 6.54156 | 137° | 15km/h | 33108m | 6.5m/s | -40.2°C | 2.3% | 7.9hPa | 2.6V | 08:30:00 | 02:08:18 | 00:00:00 | |
| DL1XH-west | 2026-09-06 01:26:45 | 51.65701 | 6.54175 | 145° | 38km/h | 33123m | 4m/s | -40.3°C | 0% | 7.9hPa | 2.5V | 18:12:15 | 02:08:21 | 00:00:00 | |
| AA1-15 | 2026-09-06 01:26:43 | 51.65714 | 6.54161 | 147° | 24km/h | 33114m | 5.5m/s | -40.3°C | 0% | 7.9hPa | 2.6V | 18:12:15 | 02:08:19 | 00:00:00 | |
| DF5WG-10 | 2026-09-06 01:26:43 | 51.65714 | 6.54161 | 148° | 16km/h | 33115m | 5.5m/s | -40.2°C | 2.3% | 7.8hPa | 2.6V | 00:00:00 | 02:08:19 | 00:00:00 | |
| DD1CC1-15 | 2026-09-06 01:26:42 | 51.65714 | 6.54161 | 148° | 24km/h | 33115m | 5.5m/s | -40.3°C | 0.6% | 7.9hPa | 2.6V | 00:00:00 | 00:00:00 | 00:00:00 | |
| DL1XH-15 | 2026-09-06 01:26:41 | 51.65714 | 6.54138 | 105° | 16km/h | 33075m | 5m/s | -40.3°C | 2.3% | 7.9hPa | 2.6V | 08:30:00 | 02:08:12 | 00:00:00 | |
| BIOWL1-15 | 2026-09-06 01:26:41 | 51.65716 | 6.54149 | 29° | 11km/h | 33091m | 4.7m/s | -40.2°C | 0% | 7.9hPa | 2.5V | 18:12:15 | 02:08:15 | 00:00:00 | |
| DO2JMG | 2026-09-06 01:26:37 | 51.65713 | 6.54144 | 81° | 11km/h | 33081m | 5.5m/s | -40.3°C | 0% | 7.9hPa | 2.5V | 18:12:15 | 02:08:13 | 00:00:00 | |
| DL1XH-west | 2026-09-06 01:26:34 | 51.65718 | 6.54121 | 113° | 29km/h | 33065m | 5.3m/s | -40.3°C | 0% | 7.9hPa | 2.6V | 18:12:15 | 02:08:10 | 00:00:00 | |
| DM0DOS-11 | 2026-09-06 01:26:34 | 51.65723 | 6.54097 | 107° | 33km/h | 33053m | 6.1m/s | -40.3°C | 2.3% | 8hPa | 2.5V | 08:30:00 | 02:08:08 | 00:00:00 | |
| AA1-15 | 2026-09-06 01:26:33 | 51.65721 | 6.54110 | 111° | 33km/h | 33060m | 6.3m/s | -40.3°C | 0% | 8hPa | 2.5V | 18:12:15 | 02:08:09 | 00:00:00 | |
| BIOWL1-15 | 2026-09-06 01:26:29 | 51.65729 | 6.54060 | 102° | 27km/h | 33038m | 4.7m/s | -40.4°C | 0% | 8hPa | 2.6V | 18:12:15 | 02:08:05 | 00:00:00 | |
| DO2JMG | 2026-09-06 01:26:26 | 51.65735 | 6.54037 | 137° | 16km/h | 33021m | 6.6m/s | -40.4°C | 0% | 8hPa | 2.5V | 18:12:15 | 02:08:02 | 00:00:00 | |
| DM0DOS-11 | 2026-09-06 01:26:24 | 51.65743 | 6.54024 | 81° | 13km/h | 33002m | 4.8m/s | -40.5°C | 2.2% | 8hPa | 2.6V | 08:30:00 | 02:07:58 | 00:00:00 | |
| DL1XH-west | 2026-09-06 01:26:24 | 51.65741 | 6.54031 | 151° | 13km/h | 33010m | 3.7m/s | -40.4°C | 0% | 8hPa | 2.5V | 18:12:15 | 02:08:00 | 00:00:00 | |
| HSKMA3-T | 2026-09-06 01:26:23 | 51.65743 | 6.54028 | 121° | 9km/h | 33006m | 3.7m/s | -40.5°C | 0% | 8hPa | 2.5V | 18:12:15 | 02:07:59 | 00:00:00 | |
| AA1-15 | 2026-09-06 01:26:22 | 51.65743 | 6.54024 | 82° | 13km/h | 33003m | 4.8m/s | -40.6°C | 0% | 8hPa | 2.6V | 18:12:15 | 02:07:58 | 00:00:00 | |
| BIOWL1-15 | 2026-09-06 01:26:18 | 51.65730 | 6.53979 | 68° | 46km/h | 32979m | 4.1m/s | -40.8°C | 0% | 8hPa | 2.5V | 18:12:15 | 02:07:54 | 00:00:00 | |
| DO2JMG | 2026-09-06 01:26:16 | 51.65725 | 6.53943 | 89° | 44km/h | 32971m | 4.6m/s | -40.9°C | 0% | 8.1hPa | 2.6V | 18:12:15 | 02:07:52 | 00:00:00 | |
| HTAHTA | 2026-09-06 01:26:15 | 51.65726 | 6.53927 | 103° | 40km/h | 32965m | 6.4m/s | -41.0°C | 0.6% | 8.1hPa | 2.5V | 00:00:00 | 00:00:00 | 00:00:00 | |
| DM0DOS-11 | 2026-09-06 01:26:14 | 51.65742 | 6.53892 | 147° | 31km/h | 32947m | 4.4m/s | -41°C | 2.4% | 8.1hPa | 2.5V | 08:30:00 | 02:07:48 | 00:00:00 | |
| DL1XH-west | 2026-09-06 01:26:13 | 51.65735 | 6.53901 | 137° | 35km/h | 32953m | 5.7m/s | -41°C | 0% | 8.1hPa | 2.5V | 18:12:15 | 02:07:49 | 00:00:00 | |
| HSKMA3-T | 2026-09-06 01:26:12 | 51.65742 | 6.53892 | 148° | 31km/h | 32947m | 4.4m/s | -41.1°C | 0% | 8.1hPa | 2.5V | 18:12:15 | 02:07:48 | 00:00:00 | |
| AA1-15 | 2026-09-06 01:26:11 | 51.65748 | 6.53886 | 148° | 26km/h | 32943m | 4.1m/s | -41.1°C | 0% | 8.1hPa | 2.6V | 18:12:15 | 02:07:47 | 00:00:00 | |
| AU51GT2 | 2026-09-06 01:26:10 | 51.65752 | 6.53880 | 132° | 18km/h | 32939m | 4.8m/s | -41.1°C | 0.6% | 8.1hPa | 2.5V | 00:00:00 | 00:00:00 | 00:00:00 | |
| GOEST3-10 | 2026-09-06 01:26:09 | 51.65754 | 6.53874 | 99° | 35km/h | 32934m | 5.5m/s | -41.1°C | 2.4% | 8.1hPa | 2.5V | 00:00:00 | 02:07:45 | 00:00:00 | |
| DL1XH-15 | 2026-09-06 01:26:08 | 51.65747 | 6.53837 | 68° | 46km/h | 32916m | 6.1m/s | -41.2°C | 2.4% | 8.1hPa | 2.5V | 08:30:00 | 02:07:42 | 00:00:00 | |
| BIOWL1-15 | 2026-09-06 01:26:07 | 51.65736 | 6.53767 | 85° | 37km/h | 32894m | 5.8m/s | -41.2°C | 0% | 8.2hPa | 2.6V | 18:12:15 | 02:07:38 | 00:00:00 | |
| DO2JMG | 2026-09-06 01:26:05 | 51.65744 | 6.53819 | 71° | 49km/h | 32910m | 5.5m/s | -41.2°C | 0% | 8.1hPa | 2.5V | 18:12:15 | 02:07:41 | 00:00:00 | |
| DM0DOS-11 | 2026-09-06 01:26:05 | 51.65736 | 6.53767 | 84° | 37km/h | 32894m | 5.8m/s | -41.2°C | 2.4% | 8.1hPa | 2.6V | 08:30:00 | 02:07:38 | 00:00:00 | |
| DL1XH-west | 2026-09-06 01:26:03 | 51.65738 | 6.53783 | 80° | 44km/h | 32900m | 5.2m/s | -41.2°C | 0% | 8.1hPa | 2.6V | 18:12:15 | 02:07:39 | 00:00:00 | |
| SONCRA | 2026-09-06 01:26:02 | 51.65736 | 6.53767 | 84° | 37km/h | 32894m | 5.8m/s | -41.2°C | 0.6% | 8.2hPa | 2.6V | 00:00:00 | 00:00:00 | 00:00:00 | |
| DL1XH-15 | 2026-09-06 01:26:01 | 51.65747 | 6.53708 | 117° | 27km/h | 32860m | 5.5m/s | -41.3°C | 2.4% | 8.2hPa | 2.6V | 08:30:00 | 02:07:32 | 00:00:00 | |
| HSKMA3-T | 2026-09-06 01:26:01 | 51.65736 | 6.53753 | 91° | 29km/h | 32888m | 6m/s | -41.3°C | 0% | 8.1hPa | 2.5V | 18:12:15 | 02:07:37 | 00:00:00 | |
| AA1-15 | 2026-09-06 01:26:00 | 51.65736 | 6.53742 | 101° | 24km/h | 32882m | 5.9m/s | -41.3°C | 0% | 8.1hPa | 2.5V | 18:12:15 | 02:07:36 | 00:00:00 | |
| BIOWL1-15 | 2026-09-06 01:25:56 | 51.65753 | 6.53665 | 87° | 26km/h | 32839m | 6m/s | -41.4°C | 0% | 8.2hPa | 2.5V | 18:12:15 | 02:07:28 | 00:00:00 | |
| DO2JMG | 2026-09-06 01:25:55 | 51.65749 | 6.53698 | 112° | 29km/h | 32854m | 5.4m/s | -41.4°C | 0% | 8.2hPa | 2.6V | 18:12:15 | 02:07:31 | 00:00:00 | |
| DM0DOS-11 | 2026-09-06 01:25:54 | 51.65753 | 6.53665 | 87° | 26km/h | 32839m | 6m/s | -41.4°C | 2.4% | 8.2hPa | 2.5V | 08:30:00 | 02:07:28 | 00:00:00 | |
| DL4BBY-15 | 2026-09-06 01:25:54 | 51.65752 | 6.53686 | 106° | 24km/h | 32849m | 4.9m/s | -41.0°C | 0% | 0hPa | 2.5V | 00:00:00 | 00:00:00 | 00:00:00 | |
| DF5WG-10 | 2026-09-06 01:25:53 | 51.65753 | 6.53675 | 97° | 26km/h | 32844m | 5.0m/s | -41.3°C | 2.4% | 8.2hPa | 2.5V | 00:00:00 | 02:07:29 | 00:00:00 | |
| DL1XH-west | 2026-09-06 01:25:53 | 51.65753 | 6.53675 | 96° | 27km/h | 32844m | 5m/s | -41.4°C | 0% | 8.2hPa | 2.5V | 18:12:15 | 02:07:29 | 00:00:00 | |
| DJ2KF-10 | 2026-09-06 01:25:52 | 51.65753 | 6.53665 | 88° | 26km/h | 32839m | 5.9m/s | -41.3°C | 2.4% | 8.2hPa | 2.5V | 00:00:00 | 02:07:28 | 08:30:00 | |
| DL1XH-15 | 2026-09-06 01:25:51 | 51.65733 | 6.53613 | 51° | 31km/h | 32802m | 5.4m/s | -41.4°C | 2.4% | 8.2hPa | 2.5V | 08:30:00 | 02:07:22 | 00:00:00 | |
| AA1-15 | 2026-09-06 01:25:50 | 51.65750 | 6.53648 | 59° | 22km/h | 32826m | 5.9m/s | -41.4°C | 0% | 8.2hPa | 2.6V | 18:12:15 | 02:07:26 | 00:00:00 | |
| BUE01 | 2026-09-06 01:25:49 | 51.65747 | 6.53640 | 50° | 24km/h | 32820m | 5.5m/s | -41.4°C | 0.6% | 8.2hPa | 2.5V | 00:00:00 | 00:00:00 | 00:00:00 | |
| DC4HF-4 | 2026-09-06 01:25:46 | 51.65733 | 6.53613 | 51° | 31km/h | 32802m | 5.4m/s | -41.4°C | 0.6% | 8.2hPa | 2.5V | 00:00:00 | 00:00:00 | 00:00:00 | |
| DD1CC8 | 2026-09-06 01:25:45 | 51.65728 | 6.53603 | 53° | 27km/h | 32797m | 4.8m/s | -41.3°C | 0.6% | 8.3hPa | 2.5V | 00:00:00 | 00:00:00 | 00:00:00 | |
| DM0DOS-11 | 2026-09-06 01:25:44 | 51.65720 | 6.53581 | 65° | 15km/h | 32778m | 5.8m/s | -41.3°C | 2.4% | 8.3hPa | 2.5V | 08:30:00 | 02:07:18 | 00:00:00 | |
| BIOWL1-15 | 2026-09-06 01:25:44 | 51.65724 | 6.53595 | 56° | 24km/h | 32791m | 6.2m/s | -41.3°C | 0% | 8.3hPa | 2.6V | 18:12:15 | 02:07:20 | 00:00:00 | |
| DL1XH-west | 2026-09-06 01:25:42 | 51.65720 | 6.53581 | 66° | 15km/h | 32778m | 5.8m/s | -41.3°C | 0% | 8.3hPa | 2.5V | 18:12:15 | 02:07:18 | 00:00:00 | |
| AA1-15 | 2026-09-06 01:25:40 | 51.65718 | 6.53570 | 82° | 16km/h | 32768m | 5.7m/s | -41.3°C | 0% | 8.3hPa | 2.5V | 18:12:15 | 02:07:16 | 00:00:00 | |
| HSKMA3-T | 2026-09-06 01:25:39 | 51.65717 | 6.53563 | 80° | 20km/h | 32762m | 6.7m/s | -41.3°C | 0% | 8.3hPa | 2.6V | 18:12:15 | 02:07:15 | 00:00:00 | |
| DO2JMG | 2026-09-06 01:25:34 | 51.65702 | 6.53517 | 39° | 26km/h | 32732m | 6.3m/s | -41.3°C | 0% | 8.4hPa | 2.5V | 18:12:15 | 02:07:10 | 00:00:00 | |
| DL1XH-west | 2026-09-06 01:25:32 | 51.65691 | 6.53506 | 32° | 26km/h | 32721m | 4.9m/s | -41.3°C | 0% | 8.3hPa | 2.6V | 18:12:15 | 02:07:08 | 00:00:00 | |
| AA1-15 | 2026-09-06 01:25:29 | 51.65677 | 6.53484 | 61° | 27km/h | 32703m | 6.3m/s | -41.3°C | 0% | 8.4hPa | 2.5V | 18:12:15 | 02:07:05 | 00:00:00 | |
| HSKMA3-T | 2026-09-06 01:25:28 | 51.65674 | 6.53474 | 71° | 29km/h | 32697m | 5.7m/s | -41.3°C | 0% | 8.4hPa | 2.5V | 18:12:15 | 02:07:04 | 00:00:00 | |
| BIOWL1-15 | 2026-09-06 01:25:23 | 51.65652 | 6.53365 | 44° | 18km/h | 32615m | 5.2m/s | -41.2°C | 0% | 8.5hPa | 2.5V | 18:12:15 | 02:06:50 | 00:00:00 | |
| DO2JMG | 2026-09-06 01:25:23 | 51.65669 | 6.53432 | 81° | 13km/h | 32668m | 5.3m/s | -41.2°C | 0% | 8.4hPa | 2.6V | 18:12:15 | 02:06:59 | 00:00:00 | |
| DL1XH-west | 2026-09-06 01:25:21 | 51.65668 | 6.53421 | 82° | 16km/h | 32656m | 6.5m/s | -41.2°C | 0% | 8.4hPa | 2.5V | 18:12:15 | 02:06:57 | 00:00:00 | |
| AA1-15 | 2026-09-06 01:25:18 | 51.65664 | 6.53395 | 71° | 26km/h | 32639m | 5m/s | -41.2°C | 0% | 8.4hPa | 2.6V | 18:12:15 | 02:06:54 | 00:00:00 | |
| HSKMA3-T | 2026-09-06 01:25:17 | 51.65662 | 6.53386 | 64° | 24km/h | 32633m | 5.8m/s | -41.2°C | 0% | 8.5hPa | 2.6V | 18:12:15 | 02:06:53 | 00:00:00 | |
| DO2JMG | 2026-09-06 01:25:13 | 51.65649 | 6.53360 | 55° | 16km/h | 32610m | 4.5m/s | -41.3°C | 0% | 8.5hPa | 2.5V | 18:12:15 | 02:06:49 | 00:00:00 | |
| DL1XH-west | 2026-09-06 01:25:11 | 51.65646 | 6.53346 | 87° | 24km/h | 32599m | 6.9m/s | -41.3°C | 0% | 8.5hPa | 2.6V | 18:12:15 | 02:06:47 | 00:00:00 | |
| DL1XH-15 | 2026-09-06 01:25:11 | 51.65656 | 6.53289 | 115° | 22km/h | 32569m | 6.6m/s | -41.3°C | 2.5% | 8.6hPa | 2.5V | 08:30:00 | 02:06:42 | 00:00:00 | |
| AA1-15 | 2026-09-06 01:25:08 | 51.65650 | 6.53310 | 108° | 33km/h | 32580m | 5m/s | -41.3°C | 0% | 8.5hPa | 2.5V | 18:12:15 | 02:06:44 | 00:00:00 | |
| HSKMA3-T | 2026-09-06 01:25:07 | 51.65653 | 6.53299 | 113° | 29km/h | 32575m | 5.6m/s | -41.3°C | 0% | 8.5hPa | 2.5V | 18:12:15 | 02:06:43 | 00:00:00 | |
| BIOWL1-15 | 2026-09-06 01:25:05 | 51.65662 | 6.53270 | 102° | 11km/h | 32545m | 6.6m/s | -41.2°C | 0% | 8.6hPa | 2.5V | 18:12:15 | 02:06:38 | 00:00:00 | |
| DO2JMG | 2026-09-06 01:25:03 | 51.65661 | 6.53274 | 113° | 9km/h | 32551m | 5.4m/s | -41.2°C | 0% | 8.6hPa | 2.5V | 18:12:15 | 02:06:39 | 00:00:00 | |
| DL1XH-west | 2026-09-06 01:25:01 | 51.65662 | 6.53265 | 95° | 15km/h | 32538m | 6.6m/s | -41.2°C | 0% | 8.6hPa | 2.5V | 18:12:15 | 02:06:37 | 00:00:00 | |
| AA1-15 | 2026-09-06 01:24:58 | 51.65662 | 6.53242 | 85° | 22km/h | 32521m | 5.4m/s | -41.2°C | 0% | 8.6hPa | 2.6V | 18:12:15 | 02:06:34 | 00:00:00 | |
| HSKMA3-T | 2026-09-06 01:24:57 | 51.65661 | 6.53234 | 81° | 20km/h | 32515m | 6.6m/s | -41.2°C | 0% | 8.6hPa | 2.5V | 18:12:15 | 02:06:33 | 00:00:00 | |
| BIOWL1-15 | 2026-09-06 01:24:52 | 51.65661 | 6.53203 | 118° | 20km/h | 32486m | 5.7m/s | -41.1°C | 0% | 8.7hPa | 2.6V | 18:12:15 | 02:06:28 | 00:00:00 | |
| DL1XH-west | 2026-09-06 01:24:50 | 51.65668 | 6.53186 | 129° | 31km/h | 32472m | 6.8m/s | -41°C | 0% | 8.7hPa | 2.5V | 18:12:15 | 02:06:26 | 00:00:00 | |
| AA1-15 | 2026-09-06 01:24:47 | 51.65683 | 6.53160 | 137° | 24km/h | 32456m | 5.6m/s | -40.9°C | 0% | 8.7hPa | 2.5V | 18:12:15 | 02:06:23 | 00:00:00 | |
| HSKMA3-T | 2026-09-06 01:24:46 | 51.65687 | 6.53155 | 143° | 15km/h | 32450m | 7.2m/s | -40.9°C | 0% | 8.7hPa | 2.6V | 18:12:15 | 02:06:22 | 00:00:00 | |
| DM0DOS-11 | 2026-09-06 01:24:44 | 51.65692 | 6.53153 | 159° | 4km/h | 32424m | 6.7m/s | -40.8°C | 2.4% | 8.7hPa | 2.5V | 08:30:00 | 02:06:18 | 00:00:00 | |
| DO2JMG | 2026-09-06 01:24:42 | 51.65692 | 6.53153 | 160° | 4km/h | 32424m | 6.7m/s | -40.8°C | 0% | 8.7hPa | 2.5V | 18:12:15 | 02:06:18 | 00:00:00 | |
| BIOWL1-15 | 2026-09-06 01:24:41 | 51.65694 | 6.53151 | 134° | 9km/h | 32418m | 6.5m/s | -40.7°C | 0% | 8.8hPa | 2.5V | 18:12:15 | 02:06:17 | 00:00:00 | |
| DL1XH-west | 2026-09-06 01:24:39 | 51.65698 | 6.53141 | 119° | 20km/h | 32405m | 6m/s | -40.7°C | 0% | 8.8hPa | 2.6V | 18:12:15 | 02:06:15 | 00:00:00 | |
| AA1-15 | 2026-09-06 01:24:37 | 51.65702 | 6.53126 | 110° | 22km/h | 32393m | 7.2m/s | -40.7°C | 0% | 8.8hPa | 2.6V | 18:12:15 | 02:06:13 | 00:00:00 | |
| HSKMA3-T | 2026-09-06 01:24:35 | 51.65706 | 6.53108 | 105° | 24km/h | 32380m | 5.6m/s | -40.8°C | 0% | 8.8hPa | 2.5V | 18:12:15 | 02:06:11 | 00:00:00 | |
| DM0DOS-11 | 2026-09-06 01:24:34 | 51.65712 | 6.53080 | 117° | 27km/h | 32361m | 6.9m/s | -40.8°C | 2.3% | 8.8hPa | 2.6V | 08:30:00 | 02:06:08 | 00:00:00 | |
| DO2JMG | 2026-09-06 01:24:32 | 51.65712 | 6.53080 | 118° | 27km/h | 32361m | 6.9m/s | -40.8°C | 0% | 8.8hPa | 2.6V | 18:12:15 | 02:06:08 | 00:00:00 | |
| BIOWL1-15 | 2026-09-06 01:24:31 | 51.65716 | 6.53071 | 123° | 26km/h | 32355m | 5.6m/s | -40.8°C | 0% | 8.8hPa | 2.5V | 18:12:15 | 02:06:07 | 00:00:00 | |
| DO9LL-15 | 2026-09-06 01:24:31 | 51.65716 | 6.53071 | 123° | 11km/h | 32355m | 5.6m/s | -40.8°C | 2.3% | 8.8hPa | 2.5V | 00:00:00 | 02:06:07 | 08:30:00 | |
| GOEST3-10 | 2026-09-06 01:24:29 | 51.65721 | 6.53057 | 125° | 7km/h | 32345m | 6.1m/s | -40.8°C | 2.3% | 8.8hPa | 2.5V | 00:00:00 | 02:06:05 | 00:00:00 | |
| DL1XH-15 | 2026-09-06 01:24:28 | 51.65723 | 6.53051 | 65° | 2km/h | 32324m | 5.5m/s | -41°C | 2.3% | 8.9hPa | 2.5V | 08:30:00 | 02:06:02 | 00:00:00 | |
| DL1XH-west | 2026-09-06 01:24:28 | 51.65723 | 6.53054 | 119° | 7km/h | 32337m | 7.7m/s | -40.9°C | 0% | 8.8hPa | 2.6V | 18:12:15 | 02:06:04 | 00:00:00 | |
| AA1-15 | 2026-09-06 01:24:26 | 51.65723 | 6.53051 | 65° | 2km/h | 32324m | 5.5m/s | -41°C | 0% | 8.9hPa | 2.5V | 18:12:15 | 02:06:02 | 00:00:00 | |
| HSKMA3-T | 2026-09-06 01:24:24 | 51.65724 | 6.53046 | 110° | 11km/h | 32312m | 6.8m/s | -41°C | 0% | 8.9hPa | 2.5V | 18:12:15 | 02:06:00 | 00:00:00 | |
| DO2JMG | 2026-09-06 01:24:22 | 51.65727 | 6.53032 | 113° | 26km/h | 32300m | 5.6m/s | -41°C | 0% | 8.9hPa | 2.6V | 18:12:15 | 02:05:58 | 00:00:00 | |
| BIOWL1-15 | 2026-09-06 01:24:21 | 51.65730 | 6.53022 | 111° | 29km/h | 32294m | 5.5m/s | -41°C | 0% | 8.9hPa | 2.6V | 18:12:15 | 02:05:57 | 00:00:00 | |
| SMARD9-10 | 2026-09-06 01:24:20 | 51.65730 | 6.53022 | 112° | 29km/h | 32294m | 5.5m/s | -41.0°C | 0.6% | 8.9hPa | 2.5V | 00:00:00 | 00:00:00 | 00:00:00 | |
| DB0NH | 2026-09-06 01:24:19 | 51.65734 | 6.53000 | 103° | 22km/h | 32282m | 6.6m/s | -41.0°C | 2.4% | 8.9hPa | 2.5V | 00:00:00 | 02:05:55 | 00:00:00 | |
| DL1XH-15 | 2026-09-06 01:24:18 | 51.65735 | 6.52975 | 91° | 16km/h | 32263m | 5.5m/s | -41.1°C | 2.3% | 8.9hPa | 2.6V | 08:30:00 | 02:05:52 | 00:00:00 | |
| DL1XH-west | 2026-09-06 01:24:18 | 51.65735 | 6.52990 | 95° | 22km/h | 32275m | 6.6m/s | -41.1°C | 0% | 8.9hPa | 2.5V | 18:12:15 | 02:05:54 | 00:00:00 | |
| AA1-15 | 2026-09-06 01:24:15 | 51.65736 | 6.52968 | 100° | 15km/h | 32258m | 5.4m/s | -41.2°C | 0% | 8.9hPa | 2.6V | 18:12:15 | 02:05:51 | 00:00:00 | |
| HSKMA3-T | 2026-09-06 01:24:13 | 51.65739 | 6.52955 | 123° | 20km/h | 32245m | 7m/s | -41.3°C | 0% | 9hPa | 2.5V | 18:12:15 | 02:05:49 | 00:00:00 | |
| DO2JMG | 2026-09-06 01:24:12 | 51.65743 | 6.52948 | 127° | 24km/h | 32238m | 6.4m/s | -41.4°C | 0% | 9hPa | 2.5V | 18:12:15 | 02:05:48 | 00:00:00 | |
| BIOWL1-15 | 2026-09-06 01:24:10 | 51.65750 | 6.52932 | 123° | 24km/h | 32226m | 5.8m/s | -41.5°C | 0% | 9hPa | 2.5V | 18:12:15 | 02:05:46 | 00:00:00 | |
| DL1XH-west | 2026-09-06 01:24:07 | 51.65755 | 6.52910 | 98° | 18km/h | 32207m | 5.6m/s | -41.6°C | 0% | 9hPa | 2.6V | 18:12:15 | 02:05:43 | 00:00:00 | |
| AA1-15 | 2026-09-06 01:24:04 | 51.65759 | 6.52886 | 115° | 24km/h | 32188m | 6.5m/s | -41.7°C | 0% | 9hPa | 2.5V | 18:12:15 | 02:05:40 | 00:00:00 | |
| HSKMA3-T | 2026-09-06 01:24:04 | 51.65761 | 6.52877 | 121° | 24km/h | 32182m | 5.6m/s | -41.7°C | 0% | 9hPa | 2.5V | 18:12:15 | 02:05:39 | 00:00:00 | |
| BIOWL1-15 | 2026-09-06 01:24:02 | 51.65769 | 6.52858 | 121° | 15km/h | 32164m | 6.6m/s | -41.9°C | 0% | 9.1hPa | 2.6V | 18:12:15 | 02:05:36 | 00:00:00 | |
| DO2JMG | 2026-09-06 01:24:02 | 51.65764 | 6.52870 | 123° | 20km/h | 32177m | 5.5m/s | -41.8°C | 0% | 9.1hPa | 2.6V | 18:12:15 | 02:05:38 | 00:00:00 | |
| DL1XH-west | 2026-09-06 01:23:57 | 51.65774 | 6.52844 | 121° | 16km/h | 32148m | 5.7m/s | -42°C | 0% | 9.1hPa | 2.5V | 18:12:15 | 02:05:33 | 00:00:00 | |
| AA1-15 | 2026-09-06 01:23:54 | 51.65781 | 6.52818 | 105° | 29km/h | 32130m | 5.4m/s | -42.2°C | 0% | 9.2hPa | 2.6V | 18:12:15 | 02:05:30 | 00:00:00 | |
| HSKMA3-T | 2026-09-06 01:23:53 | 51.65783 | 6.52806 | 95° | 31km/h | 32124m | 5.1m/s | -42.2°C | 0% | 9.1hPa | 2.6V | 18:12:15 | 02:05:29 | 00:00:00 | |
| DO2JMG | 2026-09-06 01:23:51 | 51.65780 | 6.52782 | 67° | 29km/h | 32113m | 6.5m/s | -42.3°C | 0% | 9.2hPa | 2.5V | 18:12:15 | 02:05:27 | 00:00:00 | |
| BIOWL1-15 | 2026-09-06 01:23:50 | 51.65777 | 6.52772 | 51° | 26km/h | 32106m | 6.5m/s | -42.5°C | 0% | 9.2hPa | 2.5V | 18:12:15 | 02:05:26 | 00:00:00 | |
| DB0NH | 2026-09-06 01:23:49 | 51.65773 | 6.52766 | 35° | 26km/h | 32101m | 5.7m/s | -42.5°C | 2.6% | 9.1hPa | 2.6V | 00:00:00 | 02:05:25 | 00:00:00 | |
| DL1XH-15 | 2026-09-06 01:23:48 | 51.65766 | 6.52759 | 123° | 4km/h | 32084m | 5.4m/s | -42.6°C | 2.6% | 9.2hPa | 2.6V | 08:30:00 | 02:05:22 | 00:00:00 | |
| DL1XH-west | 2026-09-06 01:23:47 | 51.65766 | 6.52761 | 20° | 7km/h | 32090m | 5m/s | -42.6°C | 0% | 9.2hPa | 2.6V | 18:12:15 | 02:05:23 | 00:00:00 | |
| DJ2KF-10 | 2026-09-06 01:23:47 | 51.65766 | 6.52760 | 21° | 22km/h | 32090m | 4.9m/s | -42.5°C | 2.6% | 9.1hPa | 2.6V | 00:00:00 | 02:05:23 | 00:00:00 | |
| DF5WG-10 | 2026-09-06 01:23:45 | 51.65767 | 6.52757 | 141° | 15km/h | 32079m | 5.7m/s | -42.6°C | 2.6% | 9.1hPa | 2.6V | 00:00:00 | 02:05:21 | 00:00:00 | |
| DM0DOS-11 | 2026-09-06 01:23:44 | 51.65779 | 6.52731 | 113° | 37km/h | 32061m | 5.9m/s | -42.7°C | 2.6% | 9.2hPa | 2.6V | 08:30:00 | 02:05:18 | 00:00:00 | |
| AA1-15 | 2026-09-06 01:23:44 | 51.65771 | 6.52752 | 134° | 24km/h | 32073m | 6m/s | -42.7°C | 0% | 9.2hPa | 2.5V | 18:12:15 | 02:05:20 | 00:00:00 | |
| HSKMA3-T | 2026-09-06 01:23:42 | 51.65779 | 6.52731 | 114° | 37km/h | 32061m | 5.9m/s | -42.7°C | 0% | 9.2hPa | 2.6V | 18:12:15 | 02:05:18 | 00:00:00 | |
| DO2JMG | 2026-09-06 01:23:41 | 51.65782 | 6.52717 | 103° | 38km/h | 32055m | 5.9m/s | -42.7°C | 0% | 9.2hPa | 2.6V | 18:12:15 | 02:05:17 | 00:00:00 | |
| BIOWL1-15 | 2026-09-06 01:23:39 | 51.65778 | 6.52666 | 60° | 24km/h | 32032m | 6.1m/s | -42.6°C | 0% | 9.2hPa | 2.6V | 18:12:15 | 02:05:13 | 00:00:00 | |
| DL1XH-west | 2026-09-06 01:23:36 | 51.65775 | 6.52659 | 52° | 18km/h | 32025m | 6.3m/s | -42.6°C | 0% | 9.3hPa | 2.6V | 18:12:15 | 02:05:12 | 00:00:00 | |
| DB0UT-7 | 2026-09-06 01:23:36 | 51.65775 | 6.52658 | 52° | 20km/h | 32026m | 6.2m/s | -42.5°C | 2.5% | 9.2hPa | 2.6V | 00:00:00 | 00:00:00 | 00:00:00 | |
| AU51GT2 | 2026-09-06 01:23:35 | 51.65772 | 6.52654 | 48° | 13km/h | 32020m | 6.1m/s | -42.6°C | 0.7% | 9.3hPa | 2.6V | 00:00:00 | 00:00:00 | 00:00:00 | |
| DM0DOS-11 | 2026-09-06 01:23:34 | 51.65767 | 6.52642 | 59° | 13km/h | 32002m | 5.8m/s | -42.6°C | 2.5% | 9.3hPa | 2.6V | 08:30:00 | 02:05:08 | 00:00:00 | |
| AA1-15 | 2026-09-06 01:23:33 | 51.65768 | 6.52646 | 56° | 11km/h | 32008m | 5.3m/s | -42.6°C | 0% | 9.3hPa | 2.5V | 18:12:15 | 02:05:09 | 00:00:00 | |
| HSKMA3-T | 2026-09-06 01:23:32 | 51.65767 | 6.52642 | 60° | 13km/h | 32002m | 5.8m/s | -42.6°C | 0% | 9.3hPa | 2.6V | 18:12:15 | 02:05:08 | 00:00:00 | |
| DO2JMG | 2026-09-06 01:23:30 | 51.65763 | 6.52631 | 60° | 20km/h | 31990m | 6.2m/s | -42.6°C | 0% | 9.3hPa | 2.6V | 18:12:15 | 02:05:06 | 00:00:00 | |
| BIOWL1-15 | 2026-09-06 01:23:29 | 51.65760 | 6.52624 | 63° | 22km/h | 31984m | 5.3m/s | -42.6°C | 0% | 9.3hPa | 2.5V | 18:12:15 | 02:05:05 | 00:00:00 | |
| GOEST3-10 | 2026-09-06 01:23:28 | 51.65758 | 6.52616 | 72° | 22km/h | 31979m | 5.1m/s | -42.6°C | 2.6% | 9.3hPa | 2.5V | 00:00:00 | 02:05:04 | 00:00:00 | |
| DM0DOS-11 | 2026-09-06 01:23:27 | 51.65763 | 6.52563 | 86° | 22km/h | 31946m | 5.5m/s | -42.9°C | 2.6% | 9.4hPa | 2.5V | 08:30:00 | 02:04:58 | 00:00:00 | |
| DL1XH-west | 2026-09-06 01:23:25 | 51.65758 | 6.52591 | 110° | 22km/h | 31961m | 5.8m/s | -42.8°C | 0% | 9.4hPa | 2.6V | 18:12:15 | 02:05:01 | 00:00:00 | |
| AA1-15 | 2026-09-06 01:23:22 | 51.65763 | 6.52563 | 86° | 22km/h | 31946m | 5.5m/s | -42.9°C | 0% | 9.4hPa | 2.5V | 18:12:15 | 02:04:58 | 00:00:00 | |
| HSKMA3-T | 2026-09-06 01:23:21 | 51.65761 | 6.52555 | 64° | 22km/h | 31940m | 6.5m/s | -42.9°C | 0% | 9.4hPa | 2.5V | 18:12:15 | 02:04:57 | 00:00:00 | |
| BIOWL1-15 | 2026-09-06 01:23:21 | 51.65753 | 6.52543 | 22° | 26km/h | 31927m | 6.3m/s | -43°C | 0% | 9.4hPa | 2.5V | 18:12:15 | 02:04:55 | 00:00:00 | |
| DO2JMG | 2026-09-06 01:23:20 | 51.65758 | 6.52548 | 41° | 24km/h | 31934m | 6.8m/s | -42.9°C | 0% | 9.4hPa | 2.5V | 18:12:15 | 02:04:56 | 00:00:00 | |
| DL1XH-west | 2026-09-06 01:23:14 | 51.65736 | 6.52541 | 138° | 7km/h | 31900m | 5.7m/s | -43.1°C | 0% | 9.4hPa | 2.5V | 18:12:15 | 02:04:50 | 00:00:00 | |
| AA1-15 | 2026-09-06 01:23:12 | 51.65740 | 6.52530 | 113° | 22km/h | 31889m | 5.8m/s | -43.2°C | 0% | 9.5hPa | 2.5V | 18:12:15 | 02:04:48 | 00:00:00 | |
| HSKMA3-T | 2026-09-06 01:23:11 | 51.65742 | 6.52521 | 96° | 27km/h | 31883m | 5.9m/s | -43.2°C | 0% | 9.5hPa | 2.6V | 18:12:15 | 02:04:47 | 00:00:00 | |
| DO2JMG | 2026-09-06 01:23:10 | 51.65741 | 6.52509 | 80° | 29km/h | 31878m | 5.7m/s | -43.2°C | 0% | 9.5hPa | 2.6V | 18:12:15 | 02:04:46 | 00:00:00 | |
| BIOWL1-15 | 2026-09-06 01:23:08 | 51.65734 | 6.52488 | 45° | 29km/h | 31867m | 5.6m/s | -43.3°C | 0% | 9.5hPa | 2.5V | 18:12:15 | 02:04:44 | 00:00:00 | |
| DL1XH-west | 2026-09-06 01:23:04 | 51.65711 | 6.52479 | 340° | 20km/h | 31843m | 5.6m/s | -43.5°C | 0% | 9.5hPa | 2.6V | 18:12:15 | 02:04:40 | 00:00:00 | |
| AA1-15 | 2026-09-06 01:23:01 | 51.65702 | 6.52485 | 5° | 9km/h | 31825m | 6.1m/s | -43.5°C | 0% | 9.6hPa | 2.5V | 18:12:15 | 02:04:37 | 00:00:00 | |
| HSKMA3-T | 2026-09-06 01:23:00 | 51.65699 | 6.52483 | 44° | 9km/h | 31820m | 5.8m/s | -43.5°C | 0% | 9.6hPa | 2.5V | 18:12:15 | 02:04:36 | 00:00:00 | |
| DO2JMG | 2026-09-06 01:22:59 | 51.65698 | 6.52480 | 73° | 11km/h | 31814m | 5.5m/s | -43.5°C | 0% | 9.6hPa | 2.5V | 18:12:15 | 02:04:35 | 00:00:00 | |
| DL1XH-15 | 2026-09-06 01:22:57 | 51.65700 | 6.52463 | 121° | 16km/h | 31795m | 6.5m/s | -43.6°C | 2.7% | 9.6hPa | 2.6V | 08:30:00 | 02:04:32 | 00:00:00 | |
| BIOWL1-15 | 2026-09-06 01:22:57 | 51.65698 | 6.52469 | 108° | 15km/h | 31802m | 6.7m/s | -43.6°C | 0% | 9.6hPa | 2.6V | 18:12:15 | 02:04:33 | 00:00:00 | |
| DL1XH-west | 2026-09-06 01:22:54 | 51.65704 | 6.52453 | 115° | 15km/h | 31785m | 4.5m/s | -43.6°C | 0% | 9.6hPa | 2.5V | 18:12:15 | 02:04:30 | 00:00:00 | |
| AA1-15 | 2026-09-06 01:22:51 | 51.65702 | 6.52438 | 38° | 16km/h | 31767m | 6.4m/s | -43.6°C | 0% | 9.6hPa | 2.5V | 18:12:15 | 02:04:27 | 00:00:00 | |
| HSKMA3-T | 2026-09-06 01:22:50 | 51.65698 | 6.52435 | 19° | 18km/h | 31760m | 5.6m/s | -43.6°C | 0% | 9.7hPa | 2.6V | 18:12:15 | 02:04:26 | 00:00:00 | |
| BIOWL1-15 | 2026-09-06 01:22:49 | 51.65685 | 6.52437 | 326° | 16km/h | 31742m | 5.9m/s | -43.6°C | 0% | 9.7hPa | 2.5V | 18:12:15 | 02:04:23 | 00:00:00 | |
| DO2JMG | 2026-09-06 01:22:48 | 51.65689 | 6.52434 | 345° | 16km/h | 31749m | 6.8m/s | -43.6°C | 0% | 9.7hPa | 2.6V | 18:12:15 | 02:04:24 | 00:00:00 | |
| DL1XH-15 | 2026-09-06 01:22:47 | 51.65683 | 6.52441 | 318° | 13km/h | 31737m | 4.6m/s | -43.6°C | 2.7% | 9.7hPa | 2.5V | 08:30:00 | 02:04:22 | 00:00:00 | |
| BIOWL9-15 | 2026-09-06 01:22:46 | 51.65680 | 6.52443 | 327° | 9km/h | 31733m | 4.7m/s | -43.7°C | 0.7% | 9.7hPa | 2.6V | 00:00:00 | 00:00:00 | 00:00:00 | |
| DL1XH-west | 2026-09-06 01:22:43 | 51.65676 | 6.52443 | 45° | 11km/h | 31720m | 6.6m/s | -43.6°C | 0% | 9.7hPa | 2.6V | 18:12:15 | 02:04:19 | 00:00:00 | |
| AA1-15 | 2026-09-06 01:22:40 | 51.65673 | 6.52425 | 86° | 18km/h | 31702m | 6.7m/s | -43.7°C | 0% | 9.7hPa | 2.5V | 18:12:15 | 02:04:16 | 00:00:00 | |
| HSKMA3-T | 2026-09-06 01:22:39 | 51.65673 | 6.52419 | 93° | 16km/h | 31696m | 6.1m/s | -43.7°C | 0% | 9.7hPa | 2.5V | 18:12:15 | 02:04:15 | 00:00:00 | |
| DL1XH-15 | 2026-09-06 01:22:37 | 51.65671 | 6.52405 | 36° | 11km/h | 31681m | 5m/s | -43.9°C | 2.7% | 9.8hPa | 2.6V | 08:30:00 | 02:04:12 | 00:00:00 | |
| DM0DOS-11 | 2026-09-06 01:22:37 | 51.65652 | 6.52397 | 11° | 24km/h | 31657m | 4.6m/s | -44°C | 2.7% | 9.8hPa | 2.5V | 08:30:00 | 02:04:08 | 00:00:00 | |
| DO2JMG | 2026-09-06 01:22:37 | 51.65673 | 6.52409 | 69° | 9km/h | 31685m | 4.4m/s | -43.8°C | 0% | 9.8hPa | 2.5V | 18:12:15 | 02:04:13 | 00:00:00 | |
| BIOWL1-15 | 2026-09-06 01:22:36 | 51.65671 | 6.52405 | 37° | 11km/h | 31681m | 5m/s | -43.9°C | 0% | 9.8hPa | 2.6V | 18:12:15 | 02:04:12 | 00:00:00 | |
| DL1XH-west | 2026-09-06 01:22:33 | 51.65658 | 6.52399 | 13° | 26km/h | 31662m | 5.6m/s | -44°C | 0% | 9.8hPa | 2.5V | 18:12:15 | 02:04:09 | 00:00:00 | |
| AA1-15 | 2026-09-06 01:22:29 | 51.65641 | 6.52393 | 49° | 4km/h | 31639m | 6m/s | -44.1°C | 0% | 9.8hPa | 2.6V | 18:12:15 | 02:04:05 | 00:00:00 | |
| GOEST3-10 | 2026-09-06 01:22:28 | 51.65641 | 6.52391 | 132° | 11km/h | 31634m | 5.3m/s | -44.1°C | 2.8% | 9.8hPa | 2.6V | 00:00:00 | 02:04:04 | 08:30:00 | |
| DM0DOS-11 | 2026-09-06 01:22:27 | 51.65643 | 6.52370 | 35° | 7km/h | 31600m | 6.3m/s | -44.1°C | 2.8% | 9.9hPa | 2.6V | 08:30:00 | 02:03:58 | 00:00:00 | |
| DO2JMG | 2026-09-06 01:22:27 | 51.65642 | 6.52389 | 131° | 9km/h | 31628m | 5.6m/s | -44.1°C | 0% | 9.9hPa | 2.6V | 18:12:15 | 02:04:03 | 00:00:00 | |
| BIOWL1-15 | 2026-09-06 01:22:25 | 51.65645 | 6.52381 | 99° | 11km/h | 31616m | 6m/s | -44.1°C | 0% | 9.9hPa | 2.5V | 18:12:15 | 02:04:01 | 00:00:00 | |
| DL1XH-west | 2026-09-06 01:22:23 | 51.65644 | 6.52372 | 61° | 9km/h | 31605m | 5.1m/s | -44.1°C | 0% | 9.9hPa | 2.5V | 18:12:15 | 02:03:59 | 00:00:00 | |
| AA1-15 | 2026-09-06 01:22:18 | 51.65635 | 6.52373 | 345° | 11km/h | 31578m | 4.9m/s | -44.2°C | 0% | 9.9hPa | 2.5V | 18:12:15 | 02:03:54 | 00:00:00 | |
| DO2JMG | 2026-09-06 01:22:16 | 51.65629 | 6.52372 | 30° | 13km/h | 31566m | 5.8m/s | -44.2°C | 0% | 9.9hPa | 2.5V | 18:12:15 | 02:03:52 | 00:00:00 | |
| BIOWL1-15 | 2026-09-06 01:22:14 | 51.65634 | 6.52348 | 155° | 24km/h | 31537m | 6.2m/s | -44.1°C | 0% | 10hPa | 2.5V | 18:12:15 | 02:03:47 | 00:00:00 | |
| DL1XH-west | 2026-09-06 01:22:12 | 51.65629 | 6.52352 | 140° | 18km/h | 31544m | 7.2m/s | -44.1°C | 0% | 10hPa | 2.5V | 18:12:15 | 02:03:48 | 00:00:00 | |
| AA1-15 | 2026-09-06 01:22:08 | 51.65649 | 6.52337 | 147° | 16km/h | 31521m | 6.1m/s | -44°C | 0% | 10hPa | 2.6V | 18:12:15 | 02:03:44 | 00:00:00 | |
| DO2JMG | 2026-09-06 01:22:05 | 51.65652 | 6.52326 | 64° | 9km/h | 31505m | 5m/s | -44°C | 0% | 10hPa | 2.5V | 18:12:15 | 02:03:41 | 00:00:00 | |
| BIOWL1-15 | 2026-09-06 01:22:03 | 51.65647 | 6.52317 | 85° | 7km/h | 31476m | 5.6m/s | -43.9°C | 0% | 10.1hPa | 2.6V | 18:12:15 | 02:03:36 | 00:00:00 | |
| DL1XH-west | 2026-09-06 01:22:01 | 51.65648 | 6.52319 | 58° | 4km/h | 31482m | 4.7m/s | -43.9°C | 0% | 10.1hPa | 2.6V | 18:12:15 | 02:03:37 | 00:00:00 | |
| WPPR-10 | 2026-09-06 01:22:00 | 51.65647 | 6.52317 | 84° | 5km/h | 31477m | 5.6m/s | -43.9°C | 0.8% | 10.1hPa | 2.6V | 00:00:00 | 00:00:00 | 00:00:00 | |
| DJ2DS-15 | 2026-09-06 01:21:59 | 51.65647 | 6.52313 | 93° | 11km/h | 31470m | 6.6m/s | -43.9°C | 0.8% | 10.1hPa | 2.6V | 00:00:00 | 00:00:00 | 00:00:00 | |
| DL3AQ-11 | 2026-09-06 01:21:58 | 51.65649 | 6.52302 | 113° | 15km/h | 31459m | 4.8m/s | -43.9°C | 0.7% | 10.1hPa | 2.6V | 00:00:00 | 00:00:00 | 00:00:00 | |
| DM0DOS-11 | 2026-09-06 01:21:57 | 51.65663 | 6.52297 | 212° | 13km/h | 31432m | 3.9m/s | -43.8°C | 2.7% | 10.1hPa | 2.6V | 08:30:00 | 02:03:28 | 00:00:00 | |
| AA1-15 | 2026-09-06 01:21:57 | 51.65649 | 6.52302 | 113° | 15km/h | 31459m | 4.8m/s | -43.9°C | 0% | 10.1hPa | 2.5V | 18:12:15 | 02:03:33 | 00:00:00 | |
| DO2JMG | 2026-09-06 01:21:55 | 51.65653 | 6.52294 | 155° | 13km/h | 31448m | 6.6m/s | -43.8°C | 0% | 10.1hPa | 2.5V | 18:12:15 | 02:03:31 | 00:00:00 | |
| BIOWL1-15 | 2026-09-06 01:21:51 | 51.65666 | 6.52299 | 47° | 7km/h | 31415m | 6.2m/s | -43.8°C | 0% | 10.1hPa | 2.5V | 18:12:15 | 02:03:25 | 00:00:00 | |
| DL1XH-west | 2026-09-06 01:21:51 | 51.65665 | 6.52299 | 214° | 7km/h | 31428m | 5.3m/s | -43.8°C | 0% | 10.1hPa | 2.5V | 18:12:15 | 02:03:27 | 00:00:00 | |
| DF7PN | 2026-09-06 01:21:48 | 51.65664 | 6.52296 | 41° | 13km/h | 31410m | 5.2m/s | -43.7°C | 0.7% | 10.2hPa | 2.6V | 00:00:00 | 00:00:00 | 00:00:00 | |
| DL1XH-15 | 2026-09-06 01:21:47 | 51.65658 | 6.52289 | 32° | 15km/h | 31400m | 5.3m/s | -43.7°C | 2.7% | 10.2hPa | 2.6V | 08:30:00 | 02:03:22 | 00:00:00 | |
| DM0DOS-11 | 2026-09-06 01:21:47 | 51.65654 | 6.52285 | 187° | 5km/h | 31378m | 5.2m/s | -43.6°C | 2.7% | 10.2hPa | 2.5V | 08:30:00 | 02:03:18 | 00:00:00 | |
| HSKMA3-T | 2026-09-06 01:21:47 | 51.65661 | 6.52292 | 37° | 16km/h | 31405m | 4.5m/s | -43.7°C | 0% | 10.2hPa | 2.6V | 18:12:15 | 02:03:23 | 00:00:00 | |
| AA1-15 | 2026-09-06 01:21:46 | 51.65658 | 6.52289 | 33° | 15km/h | 31400m | 5.4m/s | -43.7°C | 0% | 10.2hPa | 2.6V | 18:12:15 | 02:03:22 | 00:00:00 | |
| DO2JMG | 2026-09-06 01:21:44 | 51.65653 | 6.52285 | 9° | 5km/h | 31389m | 5.6m/s | -43.6°C | 0% | 10.2hPa | 2.5V | 18:12:15 | 02:03:20 | 00:00:00 | |
| DL1XH-west | 2026-09-06 01:21:41 | 51.65655 | 6.52285 | 167° | 9km/h | 31372m | 6m/s | -43.5°C | 0% | 10.2hPa | 2.5V | 18:12:15 | 02:03:17 | 00:00:00 | |
| DH3RM | 2026-09-06 01:21:40 | 51.65656 | 6.52285 | 168° | 9km/h | 31372m | 6.0m/s | -43.5°C | 0.7% | 10.2hPa | 2.5V | 00:00:00 | 00:00:00 | 00:00:00 | |
| DO9LL-15 | 2026-09-06 01:21:39 | 51.65660 | 6.52281 | 141° | 11km/h | 31360m | 5.2m/s | -43.4°C | 2.7% | 10.2hPa | 2.5V | 00:00:00 | 02:03:15 | 00:00:00 | |
| DD1CC9-15 | 2026-09-06 01:21:38 | 51.65660 | 6.52281 | 141° | 13km/h | 31360m | 5.2m/s | -43.5°C | 0.8% | 10.3hPa | 2.5V | 00:00:00 | 00:00:00 | 00:00:00 | |
| DL1XH-15 | 2026-09-06 01:21:37 | 51.65667 | 6.52273 | 161° | 7km/h | 31343m | 6.2m/s | -43.4°C | 2.7% | 10.3hPa | 2.5V | 08:30:00 | 02:03:12 | 00:00:00 | |
| DM0DOS-11 | 2026-09-06 01:21:37 | 51.65665 | 6.52270 | 34° | 13km/h | 31321m | 6.4m/s | -43.4°C | 2.7% | 10.3hPa | 2.6V | 08:30:00 | 02:03:08 | 00:00:00 | |
| AA1-15 | 2026-09-06 01:21:35 | 51.65668 | 6.52273 | 173° | 4km/h | 31338m | 5.1m/s | -43.4°C | 0% | 10.3hPa | 2.5V | 18:12:15 | 02:03:11 | 00:00:00 | |
| DO2JMG | 2026-09-06 01:21:34 | 51.65668 | 6.52273 | 25° | 2km/h | 31333m | 5m/s | -43.4°C | 0% | 10.3hPa | 2.5V | 18:12:15 | 02:03:10 | 00:00:00 | |
| DL1XH-west | 2026-09-06 01:21:30 | 51.65660 | 6.52263 | 51° | 13km/h | 31311m | 4.1m/s | -43.4°C | 0% | 10.3hPa | 2.5V | 18:12:15 | 02:03:06 | 00:00:00 | |
| BIOWL7-15 | 2026-09-06 01:21:29 | 51.65660 | 6.52262 | 52° | 13km/h | 31311m | 4.1m/s | -43.4°C | 0.8% | 10.3hPa | 2.5V | 00:00:00 | 00:00:00 | 00:00:00 | |
| GOEST3-10 | 2026-09-06 01:21:28 | 51.65659 | 6.52256 | 128° | 15km/h | 31300m | 6.6m/s | -43.3°C | 2.7% | 10.3hPa | 2.5V | 00:00:00 | 02:03:04 | 00:00:00 | |
| DM0DOS-11 | 2026-09-06 01:21:27 | 51.65678 | 6.52242 | 103° | 15km/h | 31267m | 5.6m/s | -43.2°C | 2.7% | 10.4hPa | 2.5V | 08:30:00 | 02:02:58 | 00:00:00 | |
| DL1XH-15 | 2026-09-06 01:21:27 | 51.65664 | 6.52254 | 173° | 16km/h | 31288m | 5.1m/s | -43.3°C | 2.6% | 10.4hPa | 2.6V | 08:30:00 | 02:03:02 | 00:00:00 | |
| DO2JMG | 2026-09-06 01:21:24 | 51.65673 | 6.52250 | 156° | 16km/h | 31278m | 5.3m/s | -43.3°C | 0% | 10.4hPa | 2.6V | 18:12:15 | 02:03:00 | 00:00:00 | |
| DL1XH-west | 2026-09-06 01:21:20 | 51.65677 | 6.52231 | 57° | 13km/h | 31257m | 4.8m/s | -43.2°C | 0% | 10.4hPa | 2.5V | 18:12:15 | 02:02:56 | 00:00:00 | |
| DD1CC9-15 | 2026-09-06 01:21:18 | 51.65675 | 6.52228 | 34° | 11km/h | 31251m | 6.0m/s | -43.2°C | 0.8% | 10.4hPa | 2.5V | 00:00:00 | 00:00:00 | 00:00:00 | |
| DL1XH-15 | 2026-09-06 01:21:17 | 51.65670 | 6.52230 | 289° | 7km/h | 31233m | 5.4m/s | -43.1°C | 2.7% | 10.4hPa | 2.5V | 08:30:00 | 02:02:52 | 00:00:00 | |
| DM0DOS-11 | 2026-09-06 01:21:17 | 51.65675 | 6.52237 | 191° | 13km/h | 31211m | 4.5m/s | -43°C | 2.6% | 10.5hPa | 2.6V | 08:30:00 | 02:02:48 | 00:00:00 | |
| HSKMA3-T | 2026-09-06 01:21:14 | 51.65670 | 6.52235 | 223° | 5km/h | 31221m | 5.8m/s | -43.1°C | 0% | 10.4hPa | 2.5V | 18:12:15 | 02:02:50 | 00:00:00 | |
| DO2JMG | 2026-09-06 01:21:13 | 51.65672 | 6.52236 | 197° | 9km/h | 31216m | 4.9m/s | -43°C | 0% | 10.5hPa | 2.5V | 18:12:15 | 02:02:49 | 00:00:00 | |
| DL1XH-west | 2026-09-06 01:21:10 | 51.65682 | 6.52241 | 199° | 16km/h | 31199m | 6.2m/s | -43.1°C | 0% | 10.5hPa | 2.6V | 18:12:15 | 02:02:46 | 00:00:00 | |
| BUE01 | 2026-09-06 01:21:10 | 51.65686 | 6.52243 | 199° | 13km/h | 31194m | 4.5m/s | -43.1°C | 0.7% | 10.5hPa | 2.5V | 00:00:00 | 00:00:00 | 00:00:00 | |
| DO9LL-15 | 2026-09-06 01:21:09 | 51.65686 | 6.52243 | 200° | 18km/h | 31194m | 4.5m/s | -43.1°C | 2.6% | 10.5hPa | 2.5V | 00:00:00 | 02:02:45 | 00:00:00 | |
| GOEST3-10 | 2026-09-06 01:21:08 | 51.65688 | 6.52244 | 190° | 9km/h | 31190m | 4.5m/s | -43.1°C | 2.6% | 10.5hPa | 2.5V | 00:00:00 | 02:02:44 | 00:00:00 | |
| DM0DOS-11 | 2026-09-06 01:21:07 | 51.65682 | 6.52233 | 333° | 9km/h | 31156m | 6.1m/s | -43.2°C | 2.6% | 10.6hPa | 2.5V | 08:30:00 | 02:02:38 | 00:00:00 | |
| HSKMA3-T | 2026-09-06 01:21:03 | 51.65684 | 6.52233 | 12° | 11km/h | 31162m | 5.5m/s | -43.3°C | 0% | 10.6hPa | 2.6V | 18:12:15 | 02:02:39 | 00:00:00 | |
| BIOWL1-15 | 2026-09-06 01:21:02 | 51.65681 | 6.52241 | 250° | 15km/h | 31145m | 5m/s | -43.3°C | 0% | 10.6hPa | 2.5V | 18:12:15 | 02:02:36 | 00:00:00 | |
| DO2JMG | 2026-09-06 01:21:02 | 51.65682 | 6.52233 | 333° | 9km/h | 31156m | 6.1m/s | -43.3°C | 0% | 10.6hPa | 2.5V | 18:12:15 | 02:02:38 | 00:00:00 | |
| DL1XH-west | 2026-09-06 01:20:59 | 51.65683 | 6.52246 | 231° | 16km/h | 31140m | 5.1m/s | -43.3°C | 0% | 10.6hPa | 2.5V | 18:12:15 | 02:02:35 | 00:00:00 | |
| AA1-15 | 2026-09-06 01:20:53 | 51.65704 | 6.52252 | 181° | 13km/h | 31106m | 6.3m/s | -43.5°C | 0% | 10.7hPa | 2.5V | 18:12:15 | 02:02:29 | 00:00:00 | |
| HSKMA3-T | 2026-09-06 01:20:52 | 51.65707 | 6.52252 | 194° | 11km/h | 31100m | 5.5m/s | -43.6°C | 0% | 10.7hPa | 2.5V | 18:12:15 | 02:02:28 | 00:00:00 | |
| DO2JMG | 2026-09-06 01:20:51 | 51.65709 | 6.52253 | 197° | 7km/h | 31095m | 4.8m/s | -43.7°C | 0% | 10.7hPa | 2.6V | 18:12:15 | 02:02:27 | 00:00:00 | |
| BIOWL1-15 | 2026-09-06 01:20:49 | 51.65712 | 6.52253 | 142° | 4km/h | 31084m | 6.7m/s | -43.8°C | 0% | 10.7hPa | 2.6V | 18:12:15 | 02:02:25 | 00:00:00 | |
| DL1XH-west | 2026-09-06 01:20:48 | 51.65712 | 6.52252 | 117° | 5km/h | 31078m | 5.8m/s | -43.8°C | 0% | 10.7hPa | 2.5V | 18:12:15 | 02:02:24 | 00:00:00 | |
| DJ2DS-15 | 2026-09-06 01:20:47 | 51.65713 | 6.52250 | 123° | 4km/h | 31073m | 4.6m/s | -43.8°C | 0.8% | 10.7hPa | 2.6V | 00:00:00 | 00:00:00 | 00:00:00 | |
| DF7PN | 2026-09-06 01:20:46 | 51.65714 | 6.52249 | 158° | 4km/h | 31068m | 4.8m/s | -43.8°C | 0.7% | 10.7hPa | 2.6V | 00:00:00 | 00:00:00 | 00:00:00 | |
| DF8AY | 2026-09-06 01:20:42 | 51.65720 | 6.52260 | 243° | 13km/h | 31047m | 4.3m/s | 0°C | 0% | 0hPa | 2.6V | 18:12:15 | 02:02:18 | 00:00:00 | |
| HSKMA3-T | 2026-09-06 01:20:41 | 51.65721 | 6.52264 | 237° | 9km/h | 31042m | 6.1m/s | -43.6°C | 0% | 10.8hPa | 2.5V | 18:12:15 | 02:02:17 | 00:00:00 | |
| DO2JMG | 2026-09-06 01:20:40 | 51.65723 | 6.52266 | 202° | 5km/h | 31035m | 6.4m/s | -43.6°C | 0% | 10.8hPa | 2.5V | 18:12:15 | 02:02:16 | 00:00:00 | |
| BIOWL1-15 | 2026-09-06 01:20:38 | 51.65726 | 6.52264 | 143° | 11km/h | 31024m | 5.2m/s | -43.5°C | 0% | 10.8hPa | 2.5V | 18:12:15 | 02:02:14 | 00:00:00 | |
| DL1XH-15 | 2026-09-06 01:20:37 | 51.65733 | 6.52258 | 160° | 18km/h | 31012m | 6.6m/s | -43.5°C | 2.7% | 10.8hPa | 2.6V | 08:30:00 | 02:02:12 | 00:00:00 | |
| DL1XH-west | 2026-09-06 01:20:37 | 51.65729 | 6.52261 | 151° | 15km/h | 31019m | 5.9m/s | -43.5°C | 0% | 10.8hPa | 2.6V | 18:12:15 | 02:02:13 | 00:00:00 | |
| DM0DOS-11 | 2026-09-06 01:20:36 | 51.65752 | 6.52251 | 160° | 18km/h | 30990m | 6.3m/s | -43.4°C | 2.7% | 10.8hPa | 2.5V | 08:30:00 | 02:02:08 | 00:00:00 | |
| AA1-15 | 2026-09-06 01:20:31 | 51.65756 | 6.52248 | 153° | 15km/h | 30984m | 5.6m/s | -43.3°C | 0% | 10.9hPa | 2.5V | 18:12:15 | 02:02:07 | 00:00:00 | |
| DO2JMG | 2026-09-06 01:20:29 | 51.65761 | 6.52244 | 169° | 7km/h | 30974m | 4.8m/s | -43.3°C | 0% | 10.9hPa | 2.6V | 18:12:15 | 02:02:05 | 00:00:00 | |
| DL1XH-15 | 2026-09-06 01:20:27 | 51.65767 | 6.52252 | 234° | 15km/h | 30956m | 5.1m/s | -43.2°C | 2.7% | 10.9hPa | 2.5V | 08:30:00 | 02:02:02 | 00:00:00 | |
| DL1XH-west | 2026-09-06 01:20:27 | 51.65765 | 6.52247 | 227° | 13km/h | 30962m | 6.8m/s | -43.3°C | 0% | 10.9hPa | 2.5V | 18:12:15 | 02:02:03 | 00:00:00 | |
| AA1-15 | 2026-09-06 01:20:20 | 51.65779 | 6.52254 | 142° | 18km/h | 30924m | 5.2m/s | -43.2°C | 0% | 10.9hPa | 2.5V | 18:12:15 | 02:01:56 | 00:00:00 | |
| HSKMA3-T | 2026-09-06 01:20:19 | 51.65784 | 6.52249 | 152° | 24km/h | 30918m | 6.3m/s | -43.1°C | 0% | 11hPa | 2.5V | 18:12:15 | 02:01:55 | 00:00:00 | |
| DO2JMG | 2026-09-06 01:20:18 | 51.65790 | 6.52245 | 161° | 27km/h | 30912m | 6.3m/s | -43.1°C | 0% | 11hPa | 2.5V | 18:12:15 | 02:01:54 | 00:00:00 | |
| DL1XH-15 | 2026-09-06 01:20:17 | 51.65805 | 6.52240 | 171° | 33km/h | 30901m | 4.6m/s | -43.1°C | 2.6% | 11hPa | 2.6V | 08:30:00 | 02:01:52 | 00:00:00 | |
| BIOWL1-15 | 2026-09-06 01:20:16 | 51.65823 | 6.52235 | 163° | 15km/h | 30886m | 7m/s | -43.2°C | 0% | 11hPa | 2.5V | 18:12:15 | 02:01:49 | 00:00:00 | |
| DM0DOS-11 | 2026-09-06 01:20:16 | 51.65826 | 6.52233 | 141° | 7km/h | 30879m | 6.6m/s | -43.3°C | 2.6% | 11hPa | 2.5V | 08:30:00 | 02:01:48 | 00:00:00 | |
| DL1XH-west | 2026-09-06 01:20:16 | 51.65805 | 6.52240 | 172° | 33km/h | 30901m | 4.6m/s | -43.1°C | 0% | 11hPa | 2.6V | 18:12:15 | 02:01:52 | 00:00:00 | |
| AA1-15 | 2026-09-06 01:20:09 | 51.65824 | 6.52233 | 306° | 7km/h | 30863m | 5.8m/s | -43.4°C | 0% | 11.1hPa | 2.6V | 18:12:15 | 02:01:45 | 00:00:00 | |
| DL1XH-15 | 2026-09-06 01:20:07 | 51.65825 | 6.52248 | 238° | 15km/h | 30846m | 4.4m/s | -43.4°C | 2.6% | 11.1hPa | 2.5V | 08:30:00 | 02:01:42 | 00:00:00 | |
| DO2JMG | 2026-09-06 01:20:07 | 51.65823 | 6.52242 | 262° | 15km/h | 30851m | 5.3m/s | -43.4°C | 0% | 11.1hPa | 2.6V | 18:12:15 | 02:01:43 | 00:00:00 | |
| DL1XH-west | 2026-09-06 01:20:05 | 51.65827 | 6.52252 | 209° | 15km/h | 30841m | 4.4m/s | -43.4°C | 0% | 11.1hPa | 2.5V | 18:12:15 | 02:01:41 | 00:00:00 | |
| BIOWL1-15 | 2026-09-06 01:20:04 | 51.65831 | 6.52253 | 178° | 16km/h | 30836m | 5.9m/s | -43.5°C | 0% | 11.1hPa | 2.5V | 18:12:15 | 02:01:40 | 00:00:00 | |
| AA1-15 | 2026-09-06 01:19:59 | 51.65860 | 6.52218 | 142° | 33km/h | 30805m | 6.1m/s | -43.7°C | 0% | 11.1hPa | 2.5V | 18:12:15 | 02:01:35 | 00:00:00 | |
| AU51GT2 | 2026-09-06 01:19:58 | 51.65866 | 6.52210 | 147° | 27km/h | 30799m | 5.8m/s | -43.7°C | 0.7% | 11.2hPa | 2.5V | 00:00:00 | 00:00:00 | 00:00:00 | |
| HSKMA3-T | 2026-09-06 01:19:58 | 51.65866 | 6.52210 | 148° | 27km/h | 30799m | 5.8m/s | -43.7°C | 0% | 11.2hPa | 2.5V | 18:12:15 | 02:01:34 | 00:00:00 | |
| DL1XH-15 | 2026-09-06 01:19:57 | 51.65875 | 6.52203 | 157° | 13km/h | 30788m | 5.6m/s | -43.8°C | 2.7% | 11.2hPa | 2.5V | 08:30:00 | 02:01:32 | 00:00:00 | |
| DO2JMG | 2026-09-06 01:19:56 | 51.65875 | 6.52203 | 158° | 13km/h | 30788m | 5.6m/s | -43.8°C | 0% | 11.2hPa | 2.5V | 18:12:15 | 02:01:32 | 00:00:00 | |
| BIOWL1-15 | 2026-09-06 01:19:56 | 51.65878 | 6.52200 | 96° | 5km/h | 30775m | 7.1m/s | -43.9°C | 0% | 11.2hPa | 2.6V | 18:12:15 | 02:01:30 | 00:00:00 | |
| DL1XH-west | 2026-09-06 01:19:55 | 51.65877 | 6.52201 | 149° | 5km/h | 30781m | 6.4m/s | -43.9°C | 0% | 11.2hPa | 2.6V | 18:12:15 | 02:01:31 | 00:00:00 | |
| AA1-15 | 2026-09-06 01:19:48 | 51.65887 | 6.52173 | 152° | 26km/h | 30739m | 6.7m/s | -44.2°C | 0% | 11.2hPa | 2.6V | 18:12:15 | 02:01:24 | 00:00:00 | |
| GOEST3-10 | 2026-09-06 01:19:48 | 51.65886 | 6.52173 | 152° | 33km/h | 30739m | 6.7m/s | -44.1°C | 2.7% | 11.2hPa | 2.5V | 00:00:00 | 02:01:24 | 00:00:00 | |
| DM0DOS-11 | 2026-09-06 01:19:47 | 51.65920 | 6.52113 | 106° | 40km/h | 30703m | 5.1m/s | -44.6°C | 2.7% | 11.3hPa | 2.5V | 08:30:00 | 02:01:18 | 00:00:00 | |
| DL1XH-15 | 2026-09-06 01:19:47 | 51.65900 | 6.52161 | 146° | 33km/h | 30728m | 5m/s | -44.3°C | 2.7% | 11.3hPa | 2.6V | 08:30:00 | 02:01:22 | 00:00:00 | |
| HSKMA3-T | 2026-09-06 01:19:47 | 51.65893 | 6.52168 | 152° | 31km/h | 30733m | 5.4m/s | -44.2°C | 0% | 11.2hPa | 2.6V | 18:12:15 | 02:01:23 | 00:00:00 | |
| DC4HF-4 | 2026-09-06 01:19:46 | 51.65907 | 6.52152 | 136° | 35km/h | 30723m | 6.1m/s | -44.4°C | 0.7% | 11.3hPa | 2.5V | 00:00:00 | 00:00:00 | 00:00:00 | |
| BIOWL1-15 | 2026-09-06 01:19:45 | 51.65917 | 6.52128 | 114° | 38km/h | 30709m | 6.4m/s | -44.5°C | 0% | 11.3hPa | 2.5V | 18:12:15 | 02:01:19 | 00:00:00 | |
| DL1XH-west | 2026-09-06 01:19:45 | 51.65907 | 6.52152 | 136° | 35km/h | 30722m | 6.1m/s | -44.4°C | 0% | 11.3hPa | 2.5V | 18:12:15 | 02:01:21 | 00:00:00 | |
| DL3AQ-11 | 2026-09-06 01:19:45 | 51.65912 | 6.52142 | 125° | 37km/h | 30716m | 7.2m/s | -44.4°C | 0.7% | 11.3hPa | 2.5V | 00:00:00 | 00:00:00 | 00:00:00 | |
| DF7PN | 2026-09-06 01:19:44 | 51.65912 | 6.52142 | 125° | 37km/h | 30716m | 7.2m/s | -44.4°C | 0.7% | 11.3hPa | 2.5V | 00:00:00 | 00:00:00 | 00:00:00 | |
| GOEST3-10 | 2026-09-06 01:19:43 | 51.65917 | 6.52128 | 114° | 35km/h | 30709m | 6.3m/s | -44.5°C | 2.7% | 11.2hPa | 2.5V | 00:00:00 | 00:00:00 | 00:00:00 | |
| DO3MHA-11 | 2026-09-06 01:19:40 | 51.65925 | 6.52085 | 109° | 24km/h | 30694m | 5.1m/s | -44.6°C | 2.7% | 11.3hPa | 2.5V | 00:00:00 | 02:01:16 | 00:00:00 | |
| DC6BW-12 | 2026-09-06 01:19:39 | 51.65925 | 6.52085 | 109° | 31km/h | 30694m | 5.1m/s | -44.7°C | 0.8% | 11.3hPa | 2.5V | 00:00:00 | 00:00:00 | 00:00:00 | |
| DL1XH-15 | 2026-09-06 01:19:37 | 51.65943 | 6.52059 | 167° | 24km/h | 30669m | 5.4m/s | -45°C | 2.8% | 11.4hPa | 2.5V | 08:30:00 | 02:01:12 | 00:00:00 | |
| DM0DOS-11 | 2026-09-06 01:19:37 | 51.65959 | 6.52042 | 103° | 22km/h | 30645m | 6.2m/s | -45.3°C | 2.9% | 11.4hPa | 2.6V | 08:30:00 | 02:01:08 | 00:00:00 | |
| AA1-15 | 2026-09-06 01:19:37 | 51.65937 | 6.52062 | 161° | 24km/h | 30675m | 6m/s | -45°C | 0% | 11.4hPa | 2.5V | 18:12:15 | 02:01:13 | 00:00:00 | |
| BIOWL1-15 | 2026-09-06 01:19:37 | 51.65957 | 6.52049 | 125° | 18km/h | 30651m | 6.2m/s | -45.3°C | 0.1% | 11.4hPa | 2.6V | 18:12:15 | 02:01:09 | 00:00:00 | |
| DL1XH-west | 2026-09-06 01:19:35 | 51.65948 | 6.52057 | 165° | 22km/h | 30663m | 5.7m/s | -45.1°C | 0% | 11.4hPa | 2.5V | 18:12:15 | 02:01:11 | 00:00:00 | |
| DL3AQ-11 | 2026-09-06 01:19:34 | 51.65957 | 6.52049 | 125° | 18km/h | 30652m | 6.2m/s | -45.3°C | 0.8% | 11.4hPa | 2.5V | 00:00:00 | 00:00:00 | 00:00:00 | |
| GOEST3-10 | 2026-09-06 01:19:33 | 51.65957 | 6.52049 | 126° | 27km/h | 30652m | 6.1m/s | -45.2°C | 2.9% | 11.4hPa | 2.5V | 00:00:00 | 00:00:00 | 00:00:00 | |
| DH3RM | 2026-09-06 01:19:31 | 51.65959 | 6.52042 | 104° | 22km/h | 30646m | 6.2m/s | -45.3°C | 0.8% | 11.4hPa | 2.5V | 00:00:00 | 00:00:00 | 00:00:00 | |
| DO3MHA-11 | 2026-09-06 01:19:30 | 51.65960 | 6.52020 | 92° | 31km/h | 30634m | 6.1m/s | -45.3°C | 2.9% | 11.4hPa | 2.5V | 00:00:00 | 02:01:06 | 08:30:00 | |
| DO1YAY-16 | 2026-09-06 01:19:29 | 51.65960 | 6.52007 | 93° | 33km/h | 30627m | 6.6m/s | -45.4°C | 0.8% | 11.4hPa | 2.6V | 00:00:00 | 00:00:00 | 00:00:00 | |
| DL1XH-15 | 2026-09-06 01:19:27 | 51.65964 | 6.51964 | 98° | 37km/h | 30609m | 5.6m/s | -45.5°C | 2.9% | 11.4hPa | 2.6V | 08:30:00 | 02:01:02 | 00:00:00 | |
| DM0DOS-11 | 2026-09-06 01:19:27 | 51.65968 | 6.51914 | 102° | 20km/h | 30585m | 6.5m/s | -45.5°C | 3% | 11.5hPa | 2.5V | 08:30:00 | 02:00:58 | 00:00:00 | |
| AA1-15 | 2026-09-06 01:19:26 | 51.65964 | 6.51964 | 99° | 37km/h | 30609m | 5.6m/s | -45.5°C | 0.1% | 11.5hPa | 2.6V | 18:12:15 | 02:01:02 | 00:00:00 | |
| BIOWL1-15 | 2026-09-06 01:19:25 | 51.65967 | 6.51923 | 96° | 27km/h | 30591m | 5.2m/s | -45.5°C | 0.2% | 11.5hPa | 2.5V | 18:12:15 | 02:00:59 | 00:00:00 | |
| DO2JMG | 2026-09-06 01:19:25 | 51.65965 | 6.51949 | 97° | 37km/h | 30603m | 7m/s | -45.5°C | 0.1% | 11.5hPa | 2.6V | 18:12:15 | 02:01:01 | 00:00:00 | |
| DL1XH-west | 2026-09-06 01:19:24 | 51.65966 | 6.51935 | 95° | 33km/h | 30596m | 6.2m/s | -45.5°C | 0.1% | 11.5hPa | 2.5V | 18:12:15 | 02:01:00 | 00:00:00 | |
| DL4BBY-15 | 2026-09-06 01:19:24 | 51.65966 | 6.51935 | 95° | 26km/h | 30597m | 6.1m/s | -45.1°C | 0% | 0hPa | 2.5V | 00:00:00 | 00:00:00 | 00:00:00 | |
| GOEST3-10 | 2026-09-06 01:19:23 | 51.65967 | 6.51923 | 97° | 16km/h | 30591m | 5.2m/s | -45.5°C | 3.0% | 11.5hPa | 2.5V | 00:00:00 | 00:00:00 | 00:00:00 | |
| DK5PH-5 | 2026-09-06 01:19:22 | 51.65968 | 6.51914 | 103° | 26km/h | 30585m | 6.4m/s | -45.5°C | 3.0% | 11.5hPa | 2.5V | 00:00:00 | 02:00:58 | 00:00:00 | |
| DO3MHA-11 | 2026-09-06 01:19:20 | 51.65971 | 6.51902 | 130° | 11km/h | 30572m | 5.7m/s | -45.5°C | 3.0% | 11.5hPa | 2.5V | 00:00:00 | 02:00:56 | 00:00:00 | |
| DC6BW-12 | 2026-09-06 01:19:19 | 51.65971 | 6.51902 | 130° | 11km/h | 30572m | 5.8m/s | -45.5°C | 0.8% | 11.5hPa | 2.5V | 00:00:00 | 00:00:00 | 00:00:00 | |
| DH3RM | 2026-09-06 01:19:18 | 51.65972 | 6.51899 | 119° | 9km/h | 30567m | 4.3m/s | -45.6°C | 0.8% | 11.5hPa | 2.5V | 00:00:00 | 00:00:00 | 00:00:00 | |
| DL1XH-15 | 2026-09-06 01:19:17 | 51.65970 | 6.51880 | 67° | 27km/h | 30549m | 7.3m/s | -45.6°C | 3% | 11.6hPa | 2.5V | 08:30:00 | 02:00:52 | 00:00:00 | |
| DM0DOS-11 | 2026-09-06 01:19:17 | 51.65958 | 6.51820 | 82° | 42km/h | 30523m | 6.3m/s | -45.6°C | 2.9% | 11.6hPa | 2.6V | 08:30:00 | 02:00:48 | 00:00:00 | |
| AA1-15 | 2026-09-06 01:19:16 | 51.65970 | 6.51880 | 68° | 27km/h | 30549m | 7.3m/s | -45.6°C | 0.2% | 11.6hPa | 2.5V | 18:12:15 | 02:00:52 | 00:00:00 | |
| BIOWL1-15 | 2026-09-06 01:19:15 | 51.65958 | 6.51820 | 83° | 42km/h | 30523m | 6.3m/s | -45.6°C | 0.1% | 11.6hPa | 2.6V | 18:12:15 | 02:00:48 | 00:00:00 | |
| DL1XH-west | 2026-09-06 01:19:14 | 51.65963 | 6.51853 | 70° | 42km/h | 30536m | 5.8m/s | -45.7°C | 0.1% | 11.6hPa | 2.5V | 18:12:15 | 02:00:50 | 00:00:00 | |
| GOEST3-10 | 2026-09-06 01:19:13 | 51.65960 | 6.51836 | 76° | 40km/h | 30530m | 6.4m/s | -45.6°C | 2.9% | 11.6hPa | 2.6V | 00:00:00 | 00:00:00 | 00:00:00 | |
| DH3RM | 2026-09-06 01:19:12 | 51.65960 | 6.51836 | 77° | 44km/h | 30530m | 6.5m/s | -45.6°C | 0.8% | 11.6hPa | 2.6V | 00:00:00 | 00:00:00 | 00:00:00 | |
| DD1CC1-15 | 2026-09-06 01:19:09 | 51.65958 | 6.51786 | 96° | 38km/h | 30513m | 5.0m/s | -45.6°C | 0.8% | 11.6hPa | 2.6V | 00:00:00 | 00:00:00 | 00:00:00 | |
| DL1XH-15 | 2026-09-06 01:19:07 | 51.65958 | 6.51735 | 73° | 22km/h | 30489m | 5.7m/s | -45.5°C | 3% | 11.7hPa | 2.6V | 08:30:00 | 02:00:42 | 00:00:00 | |
| DM0DOS-11 | 2026-09-06 01:19:07 | 51.65948 | 6.51723 | 355° | 9km/h | 30463m | 6m/s | -45.5°C | 2.9% | 11.7hPa | 2.5V | 08:30:00 | 02:00:38 | 00:00:00 | |
| AA1-15 | 2026-09-06 01:19:05 | 51.65956 | 6.51728 | 54° | 16km/h | 30483m | 5.7m/s | -45.5°C | 0.1% | 11.7hPa | 2.6V | 18:12:15 | 02:00:41 | 00:00:00 | |
| DL1XH-west | 2026-09-06 01:19:04 | 51.65954 | 6.51725 | 29° | 13km/h | 30477m | 6.4m/s | -45.5°C | 0.1% | 11.7hPa | 2.6V | 18:12:15 | 02:00:40 | 00:00:00 | |
| DO2JMG | 2026-09-06 01:19:03 | 51.65951 | 6.51723 | 5° | 11km/h | 30470m | 7.8m/s | -45.5°C | 0.2% | 11.7hPa | 2.5V | 18:12:15 | 02:00:39 | 00:00:00 | |
| BIOWL1-15 | 2026-09-06 01:19:02 | 51.65949 | 6.51723 | 355° | 9km/h | 30464m | 6m/s | -45.5°C | 0.1% | 11.7hPa | 2.5V | 18:12:15 | 02:00:38 | 00:00:00 | |
| HTAHTA | 2026-09-06 01:19:01 | 51.65943 | 6.51720 | 36° | 15km/h | 30453m | 5.7m/s | -45.5°C | 0.8% | 11.8hPa | 2.6V | 00:00:00 | 00:00:00 | 00:00:00 | |
| GOEST3-10 | 2026-09-06 01:18:58 | 51.65935 | 6.51705 | 59° | 33km/h | 30440m | 6.5m/s | -45.4°C | 2.9% | 11.7hPa | 2.6V | 00:00:00 | 02:00:34 | 00:00:00 | |
| DM0DOS-11 | 2026-09-06 01:18:57 | 51.65922 | 6.51642 | 62° | 7km/h | 30404m | 6.2m/s | -45.5°C | 2.8% | 11.8hPa | 2.6V | 08:30:00 | 02:00:28 | 00:00:00 | |
| AA1-15 | 2026-09-06 01:18:54 | 51.65924 | 6.51654 | 78° | 26km/h | 30417m | 6.1m/s | -45.4°C | 0.1% | 11.8hPa | 2.5V | 18:12:15 | 02:00:30 | 00:00:00 | |
| DL1XH-west | 2026-09-06 01:18:53 | 51.65923 | 6.51646 | 78° | 16km/h | 30411m | 6m/s | -45.4°C | 0.1% | 11.8hPa | 2.5V | 18:12:15 | 02:00:29 | 00:00:00 | |
| DO2JMG | 2026-09-06 01:18:52 | 51.65922 | 6.51642 | 63° | 7km/h | 30404m | 6.2m/s | -45.5°C | 0% | 11.9hPa | 2.6V | 18:12:15 | 02:00:28 | 00:00:00 | |
| HARRO8 | 2026-09-06 01:18:51 | 51.65919 | 6.51640 | 350° | 7km/h | 30392m | 6.8m/s | -45.5°C | 0.8% | 11.8hPa | 2.5V | 00:00:00 | 00:00:00 | 00:00:00 | |
| DH3RM | 2026-09-06 01:18:50 | 51.65921 | 6.51640 | 9° | 5km/h | 30399m | 6.2m/s | -45.5°C | 0.8% | 11.9hPa | 2.5V | 00:00:00 | 00:00:00 | 00:00:00 | |
| DD1CC1-15 | 2026-09-06 01:18:49 | 51.65919 | 6.51640 | 352° | 9km/h | 30392m | 6.8m/s | -45.5°C | 0.8% | 11.8hPa | 2.5V | 00:00:00 | 00:00:00 | 00:00:00 | |
| GOEST3-10 | 2026-09-06 01:18:48 | 51.65914 | 6.51641 | 3° | 9km/h | 30379m | 5.5m/s | -45.6°C | 2.9% | 11.8hPa | 2.5V | 00:00:00 | 02:00:24 | 00:00:00 | |
| DM0DOS-11 | 2026-09-06 01:18:47 | 51.65901 | 6.51634 | 40° | 11km/h | 30343m | 5.4m/s | -45.9°C | 2.9% | 11.9hPa | 2.5V | 08:30:00 | 02:00:18 | 00:00:00 | |
| MET0W-2 | 2026-09-06 01:18:47 | 51.65908 | 6.51640 | 13° | 9km/h | 30368m | 6.0m/s | -45.8°C | 0.8% | 11.9hPa | 2.6V | 00:00:00 | 00:00:00 | 00:00:00 | |
| AA1-15 | 2026-09-06 01:18:44 | 51.65904 | 6.51638 | 22° | 7km/h | 30355m | 6.4m/s | -45.9°C | 0.1% | 11.9hPa | 2.6V | 18:12:15 | 02:00:20 | 00:00:00 | |
| DL1XH-west | 2026-09-06 01:18:43 | 51.65903 | 6.51637 | 31° | 7km/h | 30349m | 5.7m/s | -45.9°C | 0.1% | 11.9hPa | 2.6V | 18:12:15 | 02:00:19 | 00:00:00 | |
| BIOWL1-15 | 2026-09-06 01:18:42 | 51.65901 | 6.51634 | 40° | 11km/h | 30343m | 5.4m/s | -45.9°C | 0.1% | 11.9hPa | 2.5V | 18:12:15 | 02:00:18 | 00:00:00 | |
| DO2JMG | 2026-09-06 01:18:41 | 51.65899 | 6.51631 | 43° | 15km/h | 30338m | 5.8m/s | -45.9°C | 0.1% | 12hPa | 2.5V | 18:12:15 | 02:00:17 | 00:00:00 | |
| GOEST3-10 | 2026-09-06 01:18:38 | 51.65888 | 6.51614 | 46° | 13km/h | 30320m | 4.7m/s | -45.9°C | 2.9% | 11.9hPa | 2.5V | 00:00:00 | 02:00:14 | 00:00:00 | |
| DM0DOS-11 | 2026-09-06 01:18:37 | 51.65885 | 6.51626 | 258° | 27km/h | 30284m | 6.3m/s | -46.1°C | 3% | 12.1hPa | 2.5V | 08:30:00 | 02:00:08 | 00:00:00 | |
| AA1-15 | 2026-09-06 01:18:33 | 51.65884 | 6.51616 | 252° | 24km/h | 30290m | 6.1m/s | -46.1°C | 0.2% | 12.1hPa | 2.5V | 18:12:15 | 02:00:09 | 00:00:00 | |
| DL1XH-west | 2026-09-06 01:18:32 | 51.65885 | 6.51626 | 258° | 27km/h | 30284m | 6.3m/s | -46.1°C | 0.2% | 12.1hPa | 2.5V | 18:12:15 | 02:00:08 | 00:00:00 | |
| BIOWL1-15 | 2026-09-06 01:18:31 | 51.65886 | 6.51636 | 268° | 26km/h | 30277m | 6.3m/s | -46.2°C | 0.1% | 12.1hPa | 2.6V | 18:12:15 | 02:00:07 | 00:00:00 | |
| DO2JMG | 2026-09-06 01:18:30 | 51.65886 | 6.51646 | 281° | 22km/h | 30272m | 5.3m/s | -46.2°C | 0.2% | 12.1hPa | 2.6V | 18:12:15 | 02:00:06 | 00:00:00 | |
| GOEST3-10 | 2026-09-06 01:18:28 | 51.65882 | 6.51658 | 313° | 11km/h | 30262m | 4.9m/s | -46.2°C | 3.0% | 12.1hPa | 2.5V | 00:00:00 | 02:00:04 | 00:00:00 | |
| DM0DOS-11 | 2026-09-06 01:18:27 | 51.65883 | 6.51632 | 97° | 20km/h | 30223m | 6.3m/s | -46.4°C | 3.1% | 12.1hPa | 2.6V | 08:30:00 | 01:59:58 | 00:00:00 | |
| AA1-15 | 2026-09-06 01:18:23 | 51.65882 | 6.51640 | 101° | 22km/h | 30230m | 6.6m/s | -46.4°C | 0.2% | 12.1hPa | 2.6V | 18:12:15 | 01:59:59 | 00:00:00 | |
| DL1XH-west | 2026-09-06 01:18:22 | 51.65883 | 6.51632 | 98° | 20km/h | 30223m | 6.3m/s | -46.4°C | 0.3% | 12.1hPa | 2.6V | 18:12:15 | 01:59:58 | 00:00:00 | |
| BIOWL1-15 | 2026-09-06 01:18:21 | 51.65884 | 6.51625 | 105° | 15km/h | 30218m | 5.1m/s | -46.4°C | 0.3% | 12.2hPa | 2.5V | 18:12:15 | 01:59:57 | 00:00:00 | |
| HARRO8 | 2026-09-06 01:18:20 | 51.65887 | 6.51621 | 189° | 9km/h | 30206m | 7.4m/s | -46.5°C | 0.9% | 12.2hPa | 2.5V | 00:00:00 | 00:00:00 | 00:00:00 | |
| DO2JMG | 2026-09-06 01:18:20 | 51.65885 | 6.51621 | 136° | 9km/h | 30212m | 5.7m/s | -46.5°C | 0.3% | 12.2hPa | 2.5V | 18:12:15 | 01:59:56 | 00:00:00 | |
| GOEST3-10 | 2026-09-06 01:18:18 | 51.65890 | 6.51623 | 215° | 15km/h | 30199m | 6.8m/s | -46.5°C | 3.1% | 12.1hPa | 2.5V | 00:00:00 | 01:59:54 | 00:00:00 | |
| DM0DOS-11 | 2026-09-06 01:18:17 | 51.65899 | 6.51641 | 71° | 11km/h | 30165m | 5.7m/s | -46.5°C | 3.2% | 12.3hPa | 2.5V | 08:30:00 | 01:59:48 | 00:00:00 | |
| AA1-15 | 2026-09-06 01:18:12 | 51.65899 | 6.51641 | 71° | 11km/h | 30165m | 5.7m/s | -46.5°C | 0.3% | 12.3hPa | 2.5V | 18:12:15 | 01:59:48 | 00:00:00 | |
| DL1XH-west | 2026-09-06 01:18:11 | 51.65898 | 6.51635 | 84° | 15km/h | 30158m | 6.9m/s | -46.5°C | 0.3% | 12.3hPa | 2.5V | 18:12:15 | 01:59:47 | 00:00:00 | |
| BIOWL1-15 | 2026-09-06 01:18:10 | 51.65898 | 6.51629 | 98° | 18km/h | 30152m | 6.6m/s | -46.4°C | 0.3% | 12.3hPa | 2.6V | 18:12:15 | 01:59:46 | 00:00:00 | |
| DO2JMG | 2026-09-06 01:18:09 | 51.65899 | 6.51621 | 109° | 20km/h | 30145m | 6m/s | -46.4°C | 0.3% | 12.3hPa | 2.6V | 18:12:15 | 01:59:45 | 00:00:00 | |
| AA1-15 | 2026-09-06 01:18:02 | 51.65908 | 6.51593 | 224° | 7km/h | 30105m | 7.2m/s | -46.1°C | 0.3% | 12.4hPa | 2.5V | 18:12:15 | 01:59:38 | 00:00:00 | |
| DL1XH-west | 2026-09-06 01:18:01 | 51.65910 | 6.51596 | 221° | 13km/h | 30098m | 6.4m/s | -46°C | 0.2% | 12.4hPa | 2.5V | 18:12:15 | 01:59:37 | 00:00:00 | |
| HSKMA3-T | 2026-09-06 01:18:00 | 51.65913 | 6.51599 | 212° | 15km/h | 30093m | 4.4m/s | -46°C | 0.2% | 12.4hPa | 2.5V | 18:12:15 | 01:59:36 | 00:00:00 | |
| BIOWL1-15 | 2026-09-06 01:17:59 | 51.65916 | 6.51601 | 195° | 13km/h | 30088m | 4m/s | -46°C | 0.2% | 12.4hPa | 2.5V | 18:12:15 | 01:59:35 | 00:00:00 | |
| DO2JMG | 2026-09-06 01:17:58 | 51.65919 | 6.51601 | 163° | 9km/h | 30083m | 5.7m/s | -45.9°C | 0.2% | 12.4hPa | 2.6V | 18:12:15 | 01:59:34 | 00:00:00 | |
| DC4HF-4 | 2026-09-06 01:17:58 | 51.65920 | 6.51599 | 114° | 9km/h | 30077m | 7.1m/s | -45.9°C | 0.8% | 12.4hPa | 2.5V | 00:00:00 | 00:00:00 | 00:00:00 | |
| DM0DOS-11 | 2026-09-06 01:17:57 | 51.65920 | 6.51562 | 111° | 16km/h | 30048m | 6.4m/s | -45.8°C | 3% | 12.5hPa | 2.5V | 08:30:00 | 01:59:28 | 00:00:00 | |
| AA1-15 | 2026-09-06 01:17:52 | 51.65920 | 6.51562 | 112° | 16km/h | 30048m | 6.4m/s | -45.8°C | 0.2% | 12.5hPa | 2.5V | 18:12:15 | 01:59:28 | 00:00:00 | |
| DL1XH-west | 2026-09-06 01:17:51 | 51.65922 | 6.51557 | 141° | 15km/h | 30042m | 6m/s | -45.7°C | 0.1% | 12.5hPa | 2.6V | 18:12:15 | 01:59:27 | 00:00:00 | |
| BIOWL1-15 | 2026-09-06 01:17:49 | 51.65928 | 6.51554 | 176° | 13km/h | 30031m | 5.2m/s | -45.7°C | 0.2% | 12.5hPa | 2.6V | 18:12:15 | 01:59:25 | 00:00:00 | |
| HARRO8 | 2026-09-06 01:17:49 | 51.65931 | 6.51554 | 176° | 9km/h | 30026m | 6.2m/s | -45.7°C | 0.8% | 12.6hPa | 2.5V | 00:00:00 | 00:00:00 | 00:00:00 | |
| DL1XH-15 | 2026-09-06 01:17:47 | 51.65934 | 6.51552 | 84° | 5km/h | 30013m | 6.2m/s | -45.7°C | 3% | 12.5hPa | 2.5V | 08:30:00 | 01:59:22 | 00:00:00 | |
| DO2JMG | 2026-09-06 01:17:47 | 51.65933 | 6.51553 | 156° | 5km/h | 30019m | 6.6m/s | -45.7°C | 0.2% | 12.6hPa | 2.5V | 18:12:15 | 01:59:23 | 00:00:00 | |
| SONCRA | 2026-09-06 01:17:45 | 51.65933 | 6.51549 | 62° | 7km/h | 30008m | 5.4m/s | -45.7°C | 0.8% | 12.6hPa | 2.5V | 00:00:00 | 00:00:00 | 00:00:00 | |
| DL1XH-west | 2026-09-06 01:17:41 | 51.65932 | 6.51533 | 123° | 11km/h | 29986m | 6.3m/s | -45.7°C | 0.1% | 12.6hPa | 2.5V | 18:12:15 | 01:59:17 | 00:00:00 | |
| HSKMA3-T | 2026-09-06 01:17:39 | 51.65937 | 6.51525 | 138° | 16km/h | 29974m | 5.1m/s | -45.7°C | 0.2% | 12.6hPa | 2.5V | 18:12:15 | 01:59:15 | 00:00:00 | |
| BIOWL1-15 | 2026-09-06 01:17:38 | 51.65940 | 6.51520 | 130° | 18km/h | 29969m | 5.4m/s | -45.7°C | 0.1% | 12.7hPa | 2.5V | 18:12:15 | 01:59:14 | 00:00:00 | |
| DL1XH-15 | 2026-09-06 01:17:37 | 51.65944 | 6.51507 | 106° | 20km/h | 29956m | 5.7m/s | -45.7°C | 2.9% | 12.7hPa | 2.6V | 08:30:00 | 01:59:12 | 00:00:00 | |
| DM0DOS-11 | 2026-09-06 01:17:37 | 51.65950 | 6.51479 | 128° | 13km/h | 29934m | 6.3m/s | -45.7°C | 3% | 12.7hPa | 2.5V | 08:30:00 | 01:59:08 | 00:00:00 | |
| DO2JMG | 2026-09-06 01:17:36 | 51.65944 | 6.51507 | 106° | 20km/h | 29956m | 5.7m/s | -45.7°C | 0.1% | 12.7hPa | 2.6V | 18:12:15 | 01:59:12 | 00:00:00 | |
| DL1XH-west | 2026-09-06 01:17:30 | 51.65954 | 6.51472 | 137° | 13km/h | 29923m | 5.5m/s | -45.6°C | 0.2% | 12.7hPa | 2.6V | 18:12:15 | 01:59:06 | 00:00:00 | |
| HSKMA3-T | 2026-09-06 01:17:29 | 51.65956 | 6.51468 | 129° | 13km/h | 29917m | 6.7m/s | -45.6°C | 0.2% | 12.7hPa | 2.5V | 18:12:15 | 01:59:05 | 00:00:00 | |
| DL1XH-15 | 2026-09-06 01:17:27 | 51.65961 | 6.51455 | 121° | 13km/h | 29900m | 5.1m/s | -45.6°C | 3% | 12.8hPa | 2.5V | 08:30:00 | 01:59:02 | 00:00:00 | |
| BIOWL1-15 | 2026-09-06 01:17:27 | 51.65959 | 6.51460 | 114° | 13km/h | 29905m | 4.5m/s | -45.6°C | 0.2% | 12.8hPa | 2.5V | 18:12:15 | 01:59:03 | 00:00:00 | |
| DO2JMG | 2026-09-06 01:17:25 | 51.65963 | 6.51452 | 135° | 11km/h | 29894m | 6.7m/s | -45.6°C | 0.2% | 12.8hPa | 2.6V | 18:12:15 | 01:59:01 | 00:00:00 | |
| DL1XH-west | 2026-09-06 01:17:20 | 51.65968 | 6.51440 | 62° | 11km/h | 29865m | 6.6m/s | -45.6°C | 0.2% | 12.8hPa | 2.5V | 18:12:15 | 01:58:56 | 00:00:00 | |
| HSKMA3-T | 2026-09-06 01:17:18 | 51.65964 | 6.51432 | 63° | 13km/h | 29855m | 3.5m/s | -45.7°C | 0.1% | 12.9hPa | 2.6V | 18:12:15 | 01:58:54 | 00:00:00 | |
| DL1XH-15 | 2026-09-06 01:17:17 | 51.65964 | 6.51424 | 132° | 9km/h | 29845m | 6.8m/s | -45.8°C | 3% | 12.9hPa | 2.6V | 08:30:00 | 01:58:52 | 00:00:00 | |
| BIOWL1-15 | 2026-09-06 01:17:16 | 51.65964 | 6.51424 | 132° | 9km/h | 29845m | 6.8m/s | -45.8°C | 0.2% | 12.9hPa | 2.6V | 18:12:15 | 01:58:52 | 00:00:00 | |
| DO2JMG | 2026-09-06 01:17:14 | 51.65971 | 6.51420 | 169° | 22km/h | 29832m | 5.6m/s | -45.8°C | 0.2% | 12.9hPa | 2.5V | 18:12:15 | 01:58:50 | 00:00:00 | |
| DL1XH-west | 2026-09-06 01:17:10 | 51.65992 | 6.51405 | 128° | 20km/h | 29810m | 6.2m/s | -45.8°C | 0.2% | 13hPa | 2.6V | 18:12:15 | 01:58:46 | 00:00:00 | |
| DD1CC9-15 | 2026-09-06 01:17:10 | 51.65992 | 6.51405 | 129° | 20km/h | 29810m | 6.2m/s | -45.8°C | 0.9% | 13.0hPa | 2.5V | 00:00:00 | 00:00:00 | 00:00:00 | |
| EDDB2-12 | 2026-09-06 01:17:09 | 51.65994 | 6.51399 | 108° | 16km/h | 29804m | 5.6m/s | -45.8°C | 0.8% | 13.0hPa | 2.5V | 00:00:00 | 00:00:00 | 00:00:00 | |
| DL1XH-15 | 2026-09-06 01:17:07 | 51.65996 | 6.51379 | 101° | 15km/h | 29788m | 5.9m/s | -45.8°C | 3% | 13hPa | 2.5V | 08:30:00 | 01:58:42 | 00:00:00 | |
| DM0DOS-11 | 2026-09-06 01:17:07 | 51.66003 | 6.51366 | 168° | 9km/h | 29767m | 5.7m/s | -45.7°C | 3% | 13hPa | 2.5V | 08:30:00 | 01:58:38 | 00:00:00 | |
| HSKMA3-T | 2026-09-06 01:17:07 | 51.65996 | 6.51385 | 93° | 16km/h | 29794m | 5m/s | -45.8°C | 0.2% | 13hPa | 2.5V | 18:12:15 | 01:58:43 | 00:00:00 | |
| BIOWL1-15 | 2026-09-06 01:17:05 | 51.65999 | 6.51370 | 137° | 11km/h | 29777m | 5.3m/s | -45.8°C | 0.2% | 13hPa | 2.6V | 18:12:15 | 01:58:40 | 00:00:00 | |
| DO2JMG | 2026-09-06 01:17:03 | 51.66001 | 6.51368 | 156° | 11km/h | 29772m | 4.6m/s | -45.7°C | 0.2% | 13hPa | 2.5V | 18:12:15 | 01:58:39 | 00:00:00 | |
| DL1XH-west | 2026-09-06 01:16:59 | 51.66007 | 6.51367 | 231° | 4km/h | 29749m | 5.4m/s | -45.7°C | 0.1% | 13.1hPa | 2.6V | 18:12:15 | 01:58:35 | 00:00:00 | |
| GOEST3-10 | 2026-09-06 01:16:58 | 51.66008 | 6.51369 | 222° | 15km/h | 29744m | 4.7m/s | -45.6°C | 2.9% | 13.0hPa | 2.6V | 00:00:00 | 01:58:34 | 00:00:00 | |
| DM0DOS-11 | 2026-09-06 01:16:57 | 51.66028 | 6.51375 | 142° | 13km/h | 29709m | 6.5m/s | -45.8°C | 3% | 13.2hPa | 2.6V | 08:30:00 | 01:58:28 | 00:00:00 | |
| DL1XH-15 | 2026-09-06 01:16:57 | 51.66013 | 6.51374 | 203° | 16km/h | 29732m | 6.8m/s | -45.7°C | 2.9% | 13.1hPa | 2.5V | 08:30:00 | 01:58:32 | 00:00:00 | |
| HSKMA3-T | 2026-09-06 01:16:57 | 51.66010 | 6.51371 | 211° | 11km/h | 29738m | 6.4m/s | -45.7°C | 0.1% | 13.1hPa | 2.6V | 18:12:15 | 01:58:33 | 00:00:00 | |
| BIOWL1-15 | 2026-09-06 01:16:55 | 51.66017 | 6.51376 | 195° | 18km/h | 29726m | 4.8m/s | -45.7°C | 0.2% | 13.1hPa | 2.5V | 18:12:15 | 01:58:31 | 00:00:00 | |
| DO2JMG | 2026-09-06 01:16:52 | 51.66028 | 6.51375 | 143° | 13km/h | 29709m | 6.5m/s | -45.8°C | 0.2% | 13.2hPa | 2.6V | 18:12:15 | 01:58:28 | 00:00:00 | |
| AA1-15 | 2026-09-06 01:16:49 | 51.66033 | 6.51360 | 115° | 16km/h | 29693m | 6.2m/s | -45.9°C | 0.2% | 13.2hPa | 2.5V | 18:12:15 | 01:58:25 | 00:00:00 | |
| DL1XH-west | 2026-09-06 01:16:48 | 51.66036 | 6.51354 | 129° | 16km/h | 29687m | 6.1m/s | -45.9°C | 0.2% | 13.2hPa | 2.5V | 18:12:15 | 01:58:24 | 00:00:00 | |
| DM0DOS-11 | 2026-09-06 01:16:47 | 51.66051 | 6.51347 | 239° | 7km/h | 29653m | 5.4m/s | -46.1°C | 3.1% | 13.3hPa | 2.5V | 08:30:00 | 01:58:18 | 00:00:00 | |
| DL1XH-15 | 2026-09-06 01:16:47 | 51.66042 | 6.51347 | 159° | 15km/h | 29676m | 4.8m/s | -46.1°C | 3.1% | 13.2hPa | 2.5V | 08:30:00 | 01:58:22 | 00:00:00 | |
| HSKMA3-T | 2026-09-06 01:16:46 | 51.66042 | 6.51347 | 160° | 16km/h | 29676m | 4.8m/s | -46.1°C | 0.2% | 13.2hPa | 2.5V | 18:12:15 | 01:58:22 | 00:00:00 | |
| DC4HF-4 | 2026-09-06 01:16:46 | 51.66046 | 6.51345 | 171° | 13km/h | 29671m | 4.8m/s | -46.1°C | 0.9% | 13.2hPa | 2.5V | 00:00:00 | 00:00:00 | 00:00:00 | |
| DO2JMG | 2026-09-06 01:16:42 | 51.66051 | 6.51348 | 239° | 7km/h | 29653m | 5.4m/s | -46.2°C | 0.3% | 13.3hPa | 2.5V | 18:12:15 | 01:58:18 | 00:00:00 | |
| AA1-15 | 2026-09-06 01:16:39 | 51.66056 | 6.51355 | 200° | 13km/h | 29636m | 5.3m/s | -46.1°C | 0.2% | 13.3hPa | 2.6V | 18:12:15 | 01:58:15 | 00:00:00 | |
| DL1XH-west | 2026-09-06 01:16:38 | 51.66059 | 6.51356 | 176° | 13km/h | 29631m | 5.2m/s | -46°C | 0.2% | 13.3hPa | 2.6V | 18:12:15 | 01:58:14 | 00:00:00 | |
| HSKMA3-T | 2026-09-06 01:16:35 | 51.66066 | 6.51346 | 113° | 18km/h | 29613m | 5.4m/s | -45.9°C | 0.2% | 13.3hPa | 2.5V | 18:12:15 | 01:58:11 | 00:00:00 | |
| BIOWL1-15 | 2026-09-06 01:16:33 | 51.66071 | 6.51331 | 121° | 22km/h | 29602m | 6.1m/s | -45.8°C | 0.2% | 13.4hPa | 2.6V | 18:12:15 | 01:58:09 | 00:00:00 | |
| DO2JMG | 2026-09-06 01:16:32 | 51.66074 | 6.51324 | 132° | 22km/h | 29596m | 6.5m/s | -45.8°C | 0.2% | 13.4hPa | 2.6V | 18:12:15 | 01:58:08 | 00:00:00 | |
| DL1XH-west | 2026-09-06 01:16:28 | 51.66086 | 6.51308 | 127° | 9km/h | 29574m | 6.6m/s | -45.6°C | 0.2% | 13.4hPa | 2.5V | 18:12:15 | 01:58:04 | 00:00:00 | |
| HSKMA3-T | 2026-09-06 01:16:24 | 51.66086 | 6.51296 | 100° | 7km/h | 29552m | 6.4m/s | -45.5°C | 0.1% | 13.5hPa | 2.6V | 18:12:15 | 01:58:00 | 00:00:00 | |
| BIOWL1-15 | 2026-09-06 01:16:22 | 51.66092 | 6.51281 | 111° | 13km/h | 29530m | 6.6m/s | -45.4°C | 0.1% | 13.5hPa | 2.6V | 18:12:15 | 01:57:56 | 00:00:00 | |
| DO2JMG | 2026-09-06 01:16:21 | 51.66090 | 6.51286 | 123° | 13km/h | 29535m | 5m/s | -45.4°C | 0.1% | 13.5hPa | 2.5V | 18:12:15 | 01:57:57 | 00:00:00 | |
| WPPR-10 | 2026-09-06 01:16:19 | 51.66092 | 6.51276 | 95° | 15km/h | 29524m | 6.4m/s | -45.4°C | 0.8% | 13.5hPa | 2.6V | 00:00:00 | 00:00:00 | 00:00:00 | |
| GOEST3-10 | 2026-09-06 01:16:18 | 51.66092 | 6.51269 | 92° | 18km/h | 29518m | 5.2m/s | -45.4°C | 2.9% | 13.5hPa | 2.6V | 00:00:00 | 01:57:54 | 00:00:00 | |
| DM0DOS-11 | 2026-09-06 01:16:17 | 51.66103 | 6.51232 | 126° | 16km/h | 29483m | 6.3m/s | -45.6°C | 2.9% | 13.6hPa | 2.6V | 08:30:00 | 01:57:48 | 00:00:00 | |
| DL1XH-west | 2026-09-06 01:16:17 | 51.66093 | 6.51262 | 94° | 18km/h | 29513m | 4.6m/s | -45.4°C | 0.1% | 13.5hPa | 2.5V | 18:12:15 | 01:57:53 | 00:00:00 | |
| AA1-15 | 2026-09-06 01:16:15 | 51.66095 | 6.51249 | 119° | 18km/h | 29501m | 6.9m/s | -45.5°C | 0.1% | 13.6hPa | 2.5V | 18:12:15 | 01:57:51 | 00:00:00 | |
| HSKMA3-T | 2026-09-06 01:16:14 | 51.66098 | 6.51243 | 130° | 18km/h | 29494m | 5.7m/s | -45.5°C | 0.1% | 13.6hPa | 2.6V | 18:12:15 | 01:57:50 | 00:00:00 | |
| BIOWL1-15 | 2026-09-06 01:16:12 | 51.66103 | 6.51232 | 126° | 16km/h | 29483m | 6.4m/s | -45.7°C | 0.1% | 13.6hPa | 2.6V | 18:12:15 | 01:57:48 | 00:00:00 | |
| DO2JMG | 2026-09-06 01:16:11 | 51.66105 | 6.51226 | 112° | 15km/h | 29476m | 6.6m/s | -45.7°C | 0.1% | 13.6hPa | 2.5V | 18:12:15 | 01:57:47 | 00:00:00 | |
| DH3RM | 2026-09-06 01:16:10 | 51.66105 | 6.51227 | 113° | 15km/h | 29477m | 6.6m/s | -45.7°C | 0.8% | 13.6hPa | 2.5V | 00:00:00 | 00:00:00 | 00:00:00 | |
| DC4HF-4 | 2026-09-06 01:16:09 | 51.66107 | 6.51216 | 106° | 13km/h | 29465m | 5.2m/s | -45.8°C | 0.8% | 13.7hPa | 2.5V | 00:00:00 | 00:00:00 | 00:00:00 | |
| GOEST3-10 | 2026-09-06 01:16:08 | 51.66108 | 6.51211 | 116° | 20km/h | 29460m | 6.7m/s | -45.9°C | 2.9% | 13.6hPa | 2.5V | 00:00:00 | 01:57:44 | 00:00:00 | |
| DM0DOS-11 | 2026-09-06 01:16:07 | 51.66124 | 6.51164 | 114° | 29km/h | 29423m | 4.5m/s | -46.2°C | 3% | 13.7hPa | 2.5V | 08:30:00 | 01:57:38 | 00:00:00 | |
| DL1XH-west | 2026-09-06 01:16:07 | 51.66110 | 6.51205 | 124° | 16km/h | 29453m | 6.5m/s | -46°C | 0.2% | 13.7hPa | 2.6V | 18:12:15 | 01:57:43 | 00:00:00 | |
| AA1-15 | 2026-09-06 01:16:04 | 51.66119 | 6.51184 | 115° | 24km/h | 29435m | 7m/s | -46.2°C | 0.2% | 13.7hPa | 2.5V | 18:12:15 | 01:57:40 | 00:00:00 | |
| HSKMA3-T | 2026-09-06 01:16:03 | 51.66121 | 6.51175 | 111° | 26km/h | 29428m | 5.6m/s | -46.2°C | 0.2% | 13.7hPa | 2.5V | 18:12:15 | 01:57:39 | 00:00:00 | |
| BIOWL1-15 | 2026-09-06 01:16:02 | 51.66124 | 6.51164 | 114° | 29km/h | 29423m | 4.5m/s | -46.2°C | 0.2% | 13.7hPa | 2.5V | 18:12:15 | 01:57:38 | 00:00:00 | |
| DO2JMG | 2026-09-06 01:16:01 | 51.66127 | 6.51154 | 120° | 29km/h | 29418m | 5.7m/s | -46.2°C | 0.2% | 13.8hPa | 2.6V | 18:12:15 | 01:57:37 | 00:00:00 | |
| DJ2DS-15 | 2026-09-06 01:15:59 | 51.66143 | 6.51127 | 143° | 27km/h | 29400m | 5.1m/s | -46.4°C | 0.8% | 13.8hPa | 2.5V | 00:00:00 | 00:00:00 | 00:00:00 | |
| DL3AQ-11 | 2026-09-06 01:15:58 | 51.66148 | 6.51121 | 143° | 24km/h | 29395m | 5.3m/s | -46.4°C | 0.8% | 13.8hPa | 2.5V | 00:00:00 | 00:00:00 | 00:00:00 | |
| DM0DOS-11 | 2026-09-06 01:15:57 | 51.66162 | 6.51093 | 125° | 18km/h | 29364m | 6.5m/s | -46.6°C | 3.1% | 13.9hPa | 2.5V | 08:30:00 | 01:57:28 | 00:00:00 | |
| DL1XH-west | 2026-09-06 01:15:56 | 51.66153 | 6.51115 | 139° | 22km/h | 29388m | 7m/s | -46.5°C | 0.2% | 13.8hPa | 2.5V | 18:12:15 | 01:57:32 | 00:00:00 | |
| AA1-15 | 2026-09-06 01:15:54 | 51.66158 | 6.51104 | 120° | 15km/h | 29375m | 5.7m/s | -46.5°C | 0.2% | 13.8hPa | 2.6V | 18:12:15 | 01:57:30 | 00:00:00 | |
| HSKMA3-T | 2026-09-06 01:15:53 | 51.66160 | 6.51099 | 119° | 15km/h | 29370m | 5.3m/s | -46.6°C | 0.2% | 13.8hPa | 2.6V | 18:12:15 | 01:57:29 | 00:00:00 | |
| BIOWL1-15 | 2026-09-06 01:15:51 | 51.66175 | 6.51071 | 130° | 31km/h | 29346m | 5.2m/s | -46.7°C | 0.2% | 13.9hPa | 2.5V | 18:12:15 | 01:57:25 | 00:00:00 | |
| DO2JMG | 2026-09-06 01:15:51 | 51.66166 | 6.51087 | 134° | 22km/h | 29357m | 6.5m/s | -46.6°C | 0.3% | 13.9hPa | 2.5V | 18:12:15 | 01:57:27 | 00:00:00 | |
| AU51GT2 | 2026-09-06 01:15:50 | 51.66170 | 6.51080 | 134° | 26km/h | 29351m | 5.7m/s | -46.7°C | 0.9% | 13.9hPa | 2.6V | 00:00:00 | 00:00:00 | 00:00:00 | |
| SONDE2-11 | 2026-09-06 01:15:49 | 51.66180 | 6.51061 | 123° | 31km/h | 29340m | 6.8m/s | -46.8°C | 0.9% | 13.9hPa | 2.6V | 00:00:00 | 00:00:00 | 00:00:00 | |
| WPPR-10 | 2026-09-06 01:15:48 | 51.66180 | 6.51061 | 123° | 31km/h | 29340m | 6.8m/s | -46.8°C | 0.9% | 13.9hPa | 2.6V | 00:00:00 | 00:00:00 | 00:00:00 | |
| DL1XH-15 | 2026-09-06 01:15:47 | 51.66188 | 6.51037 | 113° | 35km/h | 29326m | 5.5m/s | -46.9°C | 3.2% | 13.9hPa | 2.6V | 08:30:00 | 01:57:22 | 00:00:00 | |
| DM0DOS-11 | 2026-09-06 01:15:47 | 51.66204 | 6.50992 | 128° | 31km/h | 29303m | 4.8m/s | -47°C | 3.2% | 14hPa | 2.6V | 08:30:00 | 01:57:18 | 00:00:00 | |
| DL1XH-west | 2026-09-06 01:15:45 | 51.66191 | 6.51025 | 115° | 35km/h | 29321m | 5.3m/s | -46.9°C | 0.3% | 13.9hPa | 2.5V | 18:12:15 | 01:57:21 | 00:00:00 | |
| AA1-15 | 2026-09-06 01:15:44 | 51.66195 | 6.51013 | 120° | 33km/h | 29315m | 7m/s | -47°C | 0.3% | 14hPa | 2.5V | 18:12:15 | 01:57:20 | 00:00:00 | |
| BIOWL1-15 | 2026-09-06 01:15:43 | 51.66209 | 6.50982 | 126° | 29km/h | 29298m | 5.8m/s | -47°C | 0.3% | 14hPa | 2.6V | 18:12:15 | 01:57:17 | 00:00:00 | |
| HSKMA3-T | 2026-09-06 01:15:42 | 51.66204 | 6.50992 | 128° | 31km/h | 29303m | 4.9m/s | -47°C | 0.3% | 14hPa | 2.6V | 18:12:15 | 01:57:18 | 00:00:00 | |
| DO2JMG | 2026-09-06 01:15:40 | 51.66213 | 6.50972 | 122° | 29km/h | 29292m | 6.9m/s | -47°C | 0.3% | 14hPa | 2.5V | 18:12:15 | 01:57:16 | 00:00:00 | |
| DL1XH-15 | 2026-09-06 01:15:37 | 51.66227 | 6.50932 | 125° | 27km/h | 29267m | 6.9m/s | -46.9°C | 3.2% | 14hPa | 2.6V | 08:30:00 | 01:57:12 | 00:00:00 | |
| DM0DOS-11 | 2026-09-06 01:15:37 | 51.66243 | 6.50901 | 119° | 22km/h | 29244m | 6.7m/s | -46.9°C | 3.1% | 14.1hPa | 2.5V | 08:30:00 | 01:57:08 | 00:00:00 | |
| DL1XH-west | 2026-09-06 01:15:34 | 51.66236 | 6.50915 | 136° | 26km/h | 29255m | 5m/s | -46.9°C | 0.3% | 14.1hPa | 2.6V | 18:12:15 | 01:57:10 | 00:00:00 | |
| AA1-15 | 2026-09-06 01:15:33 | 51.66240 | 6.50908 | 131° | 24km/h | 29250m | 4.9m/s | -46.9°C | 0.3% | 14.1hPa | 2.5V | 18:12:15 | 01:57:09 | 00:00:00 | |
| HSKMA3-T | 2026-09-06 01:15:32 | 51.66243 | 6.50901 | 119° | 22km/h | 29244m | 6.7m/s | -46.9°C | 0.3% | 14.1hPa | 2.5V | 18:12:15 | 01:57:08 | 00:00:00 | |
| BIOWL1-15 | 2026-09-06 01:15:30 | 51.66246 | 6.50884 | 95° | 22km/h | 29232m | 5.4m/s | -46.9°C | 0.3% | 14.1hPa | 2.5V | 18:12:15 | 01:57:06 | 00:00:00 | |
| DO2JMG | 2026-09-06 01:15:29 | 51.66247 | 6.50875 | 96° | 24km/h | 29226m | 6m/s | -46.9°C | 0.2% | 14.2hPa | 2.6V | 18:12:15 | 01:57:05 | 00:00:00 | |
| WEDDY | 2026-09-06 01:15:28 | 51.66247 | 6.50875 | 97° | 24km/h | 29226m | 6.0m/s | -46.9°C | 0.9% | 14.2hPa | 2.5V | 00:00:00 | 00:00:00 | 00:00:00 | |
| DL1XH-15 | 2026-09-06 01:15:27 | 51.66251 | 6.50845 | 108° | 26km/h | 29207m | 5.3m/s | -46.9°C | 3.1% | 14.2hPa | 2.5V | 08:30:00 | 01:57:02 | 00:00:00 | |
| DM0DOS-11 | 2026-09-06 01:15:27 | 51.66258 | 6.50811 | 121° | 18km/h | 29184m | 5m/s | -46.9°C | 3.1% | 14.2hPa | 2.6V | 08:30:00 | 01:56:58 | 00:00:00 | |
| DL1XH-west | 2026-09-06 01:15:24 | 51.66255 | 6.50827 | 106° | 24km/h | 29195m | 6.8m/s | -46.9°C | 0.3% | 14.2hPa | 2.5V | 18:12:15 | 01:57:00 | 00:00:00 | |
| AA1-15 | 2026-09-06 01:15:23 | 51.66256 | 6.50818 | 110° | 20km/h | 29189m | 5.5m/s | -46.9°C | 0.4% | 14.2hPa | 2.6V | 18:12:15 | 01:56:59 | 00:00:00 | |
| BIOWL1-15 | 2026-09-06 01:15:20 | 51.66270 | 6.50796 | 153° | 24km/h | 29165m | 5.4m/s | -46.9°C | 0.3% | 14.3hPa | 2.5V | 18:12:15 | 01:56:55 | 00:00:00 | |
| HSKMA3-T | 2026-09-06 01:15:20 | 51.66265 | 6.50801 | 149° | 20km/h | 29171m | 6.9m/s | -46.9°C | 0.3% | 14.3hPa | 2.5V | 18:12:15 | 01:56:56 | 00:00:00 | |
| DO2JMG | 2026-09-06 01:15:18 | 51.66275 | 6.50792 | 148° | 22km/h | 29161m | 4.3m/s | -46.9°C | 0.3% | 14.3hPa | 2.5V | 18:12:15 | 01:56:54 | 00:00:00 | |
| DL1XH-15 | 2026-09-06 01:15:17 | 51.66282 | 6.50781 | 115° | 16km/h | 29150m | 6.8m/s | -46.9°C | 3.1% | 14.3hPa | 2.6V | 08:30:00 | 01:56:52 | 00:00:00 | |
| DL1XH-west | 2026-09-06 01:15:13 | 51.66279 | 6.50764 | 50° | 16km/h | 29131m | 5.4m/s | -46.8°C | 0.3% | 14.4hPa | 2.5V | 18:12:15 | 01:56:49 | 00:00:00 | |
| HSKMA3-T | 2026-09-06 01:15:09 | 51.66277 | 6.50743 | 123° | 18km/h | 29108m | 5.5m/s | -46.8°C | 0.3% | 14.4hPa | 2.6V | 18:12:15 | 01:56:45 | 00:00:00 | |
| DO2JMG | 2026-09-06 01:15:08 | 51.66280 | 6.50737 | 125° | 22km/h | 29102m | 5.4m/s | -46.8°C | 0.3% | 14.4hPa | 2.6V | 18:12:15 | 01:56:44 | 00:00:00 | |
| DL1XH-west | 2026-09-06 01:15:02 | 51.66288 | 6.50700 | 100° | 4km/h | 29067m | 6.7m/s | -46.9°C | 0.3% | 14.5hPa | 2.5V | 18:12:15 | 01:56:38 | 00:00:00 | |
| BIOWL1-15 | 2026-09-06 01:15:00 | 51.66289 | 6.50699 | 123° | 0km/h | 29056m | 4.7m/s | -47°C | 0.3% | 14.5hPa | 2.5V | 18:12:15 | 01:56:36 | 00:00:00 | |
| HSKMA3-T | 2026-09-06 01:14:59 | 51.66289 | 6.50698 | 66° | 4km/h | 29051m | 5.1m/s | -47°C | 0.3% | 14.5hPa | 2.5V | 18:12:15 | 01:56:35 | 00:00:00 | |
| DO2JMG | 2026-09-06 01:14:57 | 51.66286 | 6.50691 | 60° | 16km/h | 29038m | 6.5m/s | -47.1°C | 0.3% | 14.6hPa | 2.6V | 18:12:15 | 01:56:33 | 00:00:00 | |
| DL1XH-west | 2026-09-06 01:14:51 | 51.66281 | 6.50658 | 141° | 7km/h | 29004m | 5.6m/s | -47.2°C | 0.3% | 14.6hPa | 2.6V | 18:12:15 | 01:56:27 | 00:00:00 | |
| BIOWL1-15 | 2026-09-06 01:14:49 | 51.66285 | 6.50653 | 132° | 11km/h | 28991m | 6.7m/s | -47.2°C | 0.3% | 14.7hPa | 2.5V | 18:12:15 | 01:56:25 | 00:00:00 | |
| GOEST3-10 | 2026-09-06 01:14:48 | 51.66286 | 6.50649 | 122° | 18km/h | 28985m | 6.1m/s | -47.1°C | 3.1% | 14.6hPa | 2.5V | 00:00:00 | 01:56:24 | 00:00:00 | |
| DM0DOS-11 | 2026-09-06 01:14:47 | 51.66305 | 6.50612 | 122° | 22km/h | 28948m | 6.3m/s | -47.2°C | 3.1% | 14.8hPa | 2.5V | 08:30:00 | 01:56:18 | 00:00:00 | |
| DO2JMG | 2026-09-06 01:14:47 | 51.66289 | 6.50644 | 121° | 16km/h | 28979m | 5.2m/s | -47.1°C | 0.3% | 14.7hPa | 2.5V | 18:12:15 | 01:56:23 | 00:00:00 | |
| WPPR-10 | 2026-09-06 01:14:46 | 51.66294 | 6.50632 | 131° | 20km/h | 28967m | 7.5m/s | -47.1°C | 0.9% | 14.7hPa | 2.5V | 00:00:00 | 00:00:00 | 00:00:00 | |
| DL1XH-west | 2026-09-06 01:14:41 | 51.66307 | 6.50605 | 111° | 20km/h | 28941m | 6.8m/s | -47.3°C | 0.2% | 14.8hPa | 2.5V | 18:12:15 | 01:56:17 | 00:00:00 | |
| BIOWL1-15 | 2026-09-06 01:14:38 | 51.66311 | 6.50584 | 117° | 13km/h | 28925m | 6.8m/s | -47.4°C | 0.3% | 14.8hPa | 2.5V | 18:12:15 | 01:56:14 | 00:00:00 | |
| DL1XH-15 | 2026-09-06 01:14:37 | 51.66316 | 6.50578 | 163° | 13km/h | 28911m | 5.8m/s | -47.4°C | 3.1% | 14.8hPa | 2.5V | 08:30:00 | 01:56:12 | 00:00:00 | |
| DO2JMG | 2026-09-06 01:14:37 | 51.66313 | 6.50581 | 143° | 13km/h | 28918m | 7.1m/s | -47.4°C | 0.3% | 14.8hPa | 2.5V | 18:12:15 | 01:56:13 | 00:00:00 | |
| DL1XH-west | 2026-09-06 01:14:31 | 51.66332 | 6.50561 | 125° | 20km/h | 28881m | 5.1m/s | -47.7°C | 0.4% | 14.9hPa | 2.5V | 18:12:15 | 01:56:07 | 00:00:00 | |
| AA1-15 | 2026-09-06 01:14:30 | 51.66335 | 6.50555 | 128° | 20km/h | 28876m | 5.3m/s | -47.7°C | 0.3% | 14.9hPa | 2.5V | 18:12:15 | 01:56:06 | 00:00:00 | |
| HSKMA3-T | 2026-09-06 01:14:28 | 51.66343 | 6.50543 | 148° | 22km/h | 28863m | 6.8m/s | -47.8°C | 0.4% | 14.9hPa | 2.5V | 18:12:15 | 01:56:04 | 00:00:00 | |
| DL1XH-15 | 2026-09-06 01:14:27 | 51.66353 | 6.50535 | 160° | 22km/h | 28851m | 5.2m/s | -47.8°C | 3.3% | 15hPa | 2.6V | 08:30:00 | 01:56:02 | 00:00:00 | |
| DO2JMG | 2026-09-06 01:14:26 | 51.66353 | 6.50535 | 161° | 22km/h | 28851m | 5.2m/s | -47.8°C | 0.4% | 15hPa | 2.6V | 18:12:15 | 01:56:02 | 00:00:00 | |
| DL1XH-west | 2026-09-06 01:14:20 | 51.66372 | 6.50505 | 125° | 20km/h | 28816m | 5.8m/s | -47.8°C | 0.4% | 15hPa | 2.6V | 18:12:15 | 01:55:56 | 00:00:00 | |
| AA1-15 | 2026-09-06 01:14:19 | 51.66376 | 6.50499 | 138° | 20km/h | 28810m | 6.9m/s | -47.8°C | 0.4% | 15.1hPa | 2.5V | 18:12:15 | 01:55:55 | 00:00:00 | |
| BIOWL1-15 | 2026-09-06 01:14:17 | 51.66395 | 6.50483 | 148° | 20km/h | 28787m | 6.6m/s | -47.8°C | 0.4% | 15.1hPa | 2.6V | 18:12:15 | 01:55:51 | 00:00:00 | |
| DL1XH-15 | 2026-09-06 01:14:17 | 51.66390 | 6.50487 | 155° | 22km/h | 28792m | 4.9m/s | -47.8°C | 3.2% | 15.1hPa | 2.5V | 08:30:00 | 01:55:52 | 00:00:00 | |
| DM0DOS-11 | 2026-09-06 01:14:17 | 51.66404 | 6.50464 | 113° | 18km/h | 28767m | 5.8m/s | -47.9°C | 3.2% | 15.2hPa | 2.5V | 08:30:00 | 01:55:48 | 00:00:00 | |
| HSKMA3-T | 2026-09-06 01:14:17 | 51.66385 | 6.50490 | 157° | 22km/h | 28798m | 5.1m/s | -47.8°C | 0.3% | 15.1hPa | 2.5V | 18:12:15 | 01:55:53 | 00:00:00 | |
| DO2JMG | 2026-09-06 01:14:16 | 51.66390 | 6.50487 | 156° | 22km/h | 28792m | 4.9m/s | -47.8°C | 0.4% | 15.1hPa | 2.5V | 18:12:15 | 01:55:52 | 00:00:00 | |
| DL1XH-west | 2026-09-06 01:14:09 | 51.66410 | 6.50445 | 127° | 20km/h | 28748m | 5.4m/s | -47.9°C | 0.3% | 15.2hPa | 2.6V | 18:12:15 | 01:55:45 | 00:00:00 | |
| BIOWL1-15 | 2026-09-06 01:14:08 | 51.66421 | 6.50420 | 121° | 29km/h | 28731m | 6.8m/s | -48°C | 0.4% | 15.2hPa | 2.5V | 18:12:15 | 01:55:42 | 00:00:00 | |
| DL1XH-15 | 2026-09-06 01:14:07 | 51.66421 | 6.50420 | 120° | 29km/h | 28731m | 6.8m/s | -48°C | 3.2% | 15.2hPa | 2.5V | 08:30:00 | 01:55:42 | 00:00:00 | |
| HSKMA3-T | 2026-09-06 01:14:07 | 51.66417 | 6.50430 | 125° | 26km/h | 28737m | 6.7m/s | -48°C | 0.3% | 15.2hPa | 2.5V | 18:12:15 | 01:55:43 | 00:00:00 | |
| DO2JMG | 2026-09-06 01:14:05 | 51.66425 | 6.50409 | 119° | 33km/h | 28724m | 5.8m/s | -48°C | 0.4% | 15.3hPa | 2.5V | 18:12:15 | 01:55:41 | 00:00:00 | |
| AA1-15 | 2026-09-06 01:13:59 | 51.66447 | 6.50363 | 118° | 11km/h | 28691m | 5.4m/s | -48.3°C | 0.4% | 15.3hPa | 2.5V | 18:12:15 | 01:55:35 | 00:00:00 | |
| DL1XH-west | 2026-09-06 01:13:58 | 51.66448 | 6.50358 | 98° | 13km/h | 28685m | 5.6m/s | -48.4°C | 0.4% | 15.4hPa | 2.5V | 18:12:15 | 01:55:34 | 00:00:00 | |
| DM0DOS-11 | 2026-09-06 01:13:57 | 51.66461 | 6.50297 | 122° | 33km/h | 28650m | 5m/s | -48.7°C | 3.4% | 15.4hPa | 2.5V | 08:30:00 | 01:55:28 | 00:00:00 | |
| DL1XH-15 | 2026-09-06 01:13:57 | 51.66449 | 6.50343 | 99° | 26km/h | 28673m | 6m/s | -48.5°C | 3.3% | 15.4hPa | 2.6V | 08:30:00 | 01:55:32 | 00:00:00 | |
| BIOWL1-15 | 2026-09-06 01:13:56 | 51.66449 | 6.50343 | 99° | 26km/h | 28673m | 6m/s | -48.5°C | 0.5% | 15.4hPa | 2.6V | 18:12:15 | 01:55:32 | 00:00:00 | |
| DO2JMG | 2026-09-06 01:13:54 | 51.66453 | 6.50320 | 114° | 33km/h | 28661m | 6.3m/s | -48.6°C | 0.5% | 15.4hPa | 2.5V | 18:12:15 | 01:55:30 | 00:00:00 | |
| AA1-15 | 2026-09-06 01:13:49 | 51.66472 | 6.50266 | 114° | 27km/h | 28632m | 6.1m/s | -48.8°C | 0.5% | 15.5hPa | 2.6V | 18:12:15 | 01:55:25 | 00:00:00 | |
| DO1YAY-16 | 2026-09-06 01:13:48 | 51.66477 | 6.50248 | 119° | 20km/h | 28622m | 4.7m/s | -48.9°C | 1.0% | 15.5hPa | 2.5V | 00:00:00 | 00:00:00 | 00:00:00 | |
| DL1XH-15 | 2026-09-06 01:13:47 | 51.66480 | 6.50241 | 129° | 20km/h | 28616m | 6.7m/s | -48.9°C | 3.4% | 15.5hPa | 2.5V | 08:30:00 | 01:55:22 | 00:00:00 | |
| DM0DOS-11 | 2026-09-06 01:13:47 | 51.66496 | 6.50223 | 132° | 18km/h | 28593m | 5m/s | -48.9°C | 3.5% | 15.6hPa | 2.6V | 08:30:00 | 01:55:18 | 00:00:00 | |
| DL1XH-west | 2026-09-06 01:13:47 | 51.66477 | 6.50248 | 120° | 22km/h | 28621m | 4.7m/s | -48.9°C | 0.5% | 15.5hPa | 2.5V | 18:12:15 | 01:55:23 | 00:00:00 | |
| AU51GT2 | 2026-09-06 01:13:46 | 51.66483 | 6.50235 | 144° | 18km/h | 28609m | 6.7m/s | -48.9°C | 1.0% | 15.5hPa | 2.6V | 00:00:00 | 00:00:00 | 00:00:00 | |
| DC4HF-4 | 2026-09-06 01:13:45 | 51.66483 | 6.50235 | 144° | 18km/h | 28609m | 6.7m/s | -48.9°C | 1.0% | 15.5hPa | 2.6V | 00:00:00 | 00:00:00 | 00:00:00 | |
| HSKMA3-T | 2026-09-06 01:13:44 | 51.66488 | 6.50231 | 154° | 20km/h | 28603m | 5.7m/s | -48.9°C | 0.5% | 15.6hPa | 2.6V | 18:12:15 | 01:55:20 | 00:00:00 | |
| DO2JMG | 2026-09-06 01:13:43 | 51.66492 | 6.50228 | 149° | 18km/h | 28598m | 4.5m/s | -48.9°C | 0.5% | 15.6hPa | 2.6V | 18:12:15 | 01:55:19 | 00:00:00 | |
| AA1-15 | 2026-09-06 01:13:38 | 51.66501 | 6.50183 | 96° | 37km/h | 28568m | 6.2m/s | -48.9°C | 0.5% | 15.6hPa | 2.6V | 18:12:15 | 01:55:14 | 00:00:00 | |
| DL1XH-west | 2026-09-06 01:13:36 | 51.66505 | 6.50153 | 111° | 38km/h | 28555m | 5.6m/s | -48.9°C | 0.6% | 15.7hPa | 2.5V | 18:12:15 | 01:55:12 | 00:00:00 | |
| BIOWL1-15 | 2026-09-06 01:13:35 | 51.66509 | 6.50140 | 117° | 37km/h | 28550m | 5.2m/s | -49°C | 0.5% | 15.7hPa | 2.5V | 18:12:15 | 01:55:11 | 00:00:00 | |
| HSKMA3-T | 2026-09-06 01:13:34 | 51.66513 | 6.50127 | 121° | 33km/h | 28544m | 5.4m/s | -49°C | 0.5% | 15.7hPa | 2.5V | 18:12:15 | 01:55:10 | 00:00:00 | |
| DO2JMG | 2026-09-06 01:13:32 | 51.66520 | 6.50108 | 116° | 20km/h | 28532m | 6.2m/s | -49°C | 0.5% | 15.7hPa | 2.6V | 18:12:15 | 01:55:08 | 00:00:00 | |
| AA1-15 | 2026-09-06 01:13:28 | 51.66525 | 6.50091 | 137° | 9km/h | 28508m | 6.7m/s | -49°C | 0.5% | 15.8hPa | 2.5V | 18:12:15 | 01:55:04 | 00:00:00 | |
| DM0DOS-11 | 2026-09-06 01:13:27 | 51.66529 | 6.50060 | 91° | 26km/h | 28472m | 6.1m/s | -49°C | 3.5% | 15.9hPa | 2.5V | 08:30:00 | 01:54:58 | 00:00:00 | |
| DL1XH-west | 2026-09-06 01:13:26 | 51.66528 | 6.50085 | 126° | 9km/h | 28497m | 5.1m/s | -49°C | 0.5% | 15.8hPa | 2.6V | 18:12:15 | 01:55:02 | 00:00:00 | |
| BIOWL1-15 | 2026-09-06 01:13:24 | 51.66530 | 6.50076 | 89° | 15km/h | 28484m | 6.8m/s | -49°C | 0.5% | 15.8hPa | 2.5V | 18:12:15 | 01:55:00 | 00:00:00 | |
| HSKMA3-T | 2026-09-06 01:13:23 | 51.66529 | 6.50069 | 87° | 20km/h | 28478m | 5.8m/s | -49°C | 0.6% | 15.8hPa | 2.5V | 18:12:15 | 01:54:59 | 00:00:00 | |
| DO2JMG | 2026-09-06 01:13:21 | 51.66530 | 6.50049 | 97° | 29km/h | 28466m | 7.3m/s | -49°C | 0.6% | 15.9hPa | 2.5V | 18:12:15 | 01:54:57 | 00:00:00 | |
| GOEST3-10 | 2026-09-06 01:13:21 | 51.66530 | 6.50049 | 98° | 27km/h | 28466m | 7.3m/s | -49.0°C | 3.5% | 15.8hPa | 2.5V | 00:00:00 | 00:00:00 | 00:00:00 | |
| DD1CC8 | 2026-09-06 01:13:20 | 51.66533 | 6.50025 | 101° | 29km/h | 28454m | 5.3m/s | 0°C | -1.0% | -1.0hPa | 2.5V | 00:00:00 | 00:00:00 | 00:00:00 | |
| DF5WG-10 | 2026-09-06 01:13:19 | 51.66533 | 6.50025 | 102° | 15km/h | 28454m | 5.3m/s | -48.9°C | 3.5% | 15.9hPa | 2.5V | 00:00:00 | 01:54:55 | 00:00:00 | |
| DL3AQ-11 | 2026-09-06 01:13:18 | 51.66534 | 6.49995 | 80° | 16km/h | 28435m | 5.8m/s | -48.9°C | 1.0% | 16.0hPa | 2.5V | 00:00:00 | 00:00:00 | 00:00:00 | |
| DM0DOS-11 | 2026-09-06 01:13:17 | 51.66535 | 6.49980 | 150° | 9km/h | 28411m | 5.9m/s | -48.9°C | 3.5% | 16hPa | 2.5V | 08:30:00 | 01:54:48 | 00:00:00 | |
| AA1-15 | 2026-09-06 01:13:17 | 51.66535 | 6.50003 | 91° | 24km/h | 28441m | 6.7m/s | -49°C | 0.6% | 15.9hPa | 2.5V | 18:12:15 | 01:54:53 | 00:00:00 | |
| DL1XH-west | 2026-09-06 01:13:15 | 51.66534 | 6.49989 | 76° | 11km/h | 28429m | 5.2m/s | -48.9°C | 0.6% | 16hPa | 2.5V | 18:12:15 | 01:54:51 | 00:00:00 | |
| BIOWL1-15 | 2026-09-06 01:13:13 | 51.66534 | 6.49982 | 124° | 7km/h | 28417m | 7.2m/s | -48.9°C | 0.6% | 16hPa | 2.6V | 18:12:15 | 01:54:49 | 00:00:00 | |
| HSKMA3-T | 2026-09-06 01:13:12 | 51.66535 | 6.49980 | 150° | 9km/h | 28411m | 5.9m/s | -48.9°C | 0.6% | 16hPa | 2.5V | 18:12:15 | 01:54:48 | 00:00:00 | |
| DO2JMG | 2026-09-06 01:13:11 | 51.66537 | 6.49978 | 148° | 11km/h | 28405m | 4.8m/s | -48.9°C | 0.5% | 16hPa | 2.5V | 18:12:15 | 01:54:47 | 00:00:00 | |
| GOEST3-10 | 2026-09-06 01:13:11 | 51.66537 | 6.49978 | 148° | 13km/h | 28406m | 4.7m/s | -48.8°C | 3.5% | 16.0hPa | 2.5V | 00:00:00 | 00:00:00 | 00:00:00 | |
| DH3RM | 2026-09-06 01:13:10 | 51.66537 | 6.49978 | 149° | 11km/h | 28406m | 4.8m/s | -48.9°C | 1.0% | 16.0hPa | 2.6V | 00:00:00 | 00:00:00 | 00:00:00 | |
| DF5WG-10 | 2026-09-06 01:13:09 | 51.66540 | 6.49972 | 106° | 16km/h | 28393m | 7.0m/s | -48.8°C | 3.5% | 16.0hPa | 2.6V | 00:00:00 | 01:54:45 | 00:00:00 | |
| DC6BW-12 | 2026-09-06 01:13:08 | 51.66540 | 6.49972 | 107° | 11km/h | 28393m | 7.0m/s | -48.9°C | 1.0% | 16.1hPa | 2.6V | 00:00:00 | 00:00:00 | 00:00:00 | |
| DL1XH-15 | 2026-09-06 01:13:07 | 51.66541 | 6.49954 | 95° | 18km/h | 28374m | 7m/s | -48.9°C | 3.4% | 16.1hPa | 2.6V | 08:30:00 | 01:54:42 | 00:00:00 | |
| DM0DOS-11 | 2026-09-06 01:13:07 | 51.66543 | 6.49922 | 84° | 18km/h | 28350m | 6.8m/s | -48.8°C | 3.4% | 16.2hPa | 2.6V | 08:30:00 | 01:54:38 | 00:00:00 | |
| AA1-15 | 2026-09-06 01:13:06 | 51.66541 | 6.49954 | 96° | 18km/h | 28374m | 7m/s | -48.9°C | 0.5% | 16.1hPa | 2.6V | 18:12:15 | 01:54:42 | 00:00:00 | |
| DL1XH-west | 2026-09-06 01:13:04 | 51.66543 | 6.49938 | 100° | 20km/h | 28362m | 5.6m/s | -48.9°C | 0.5% | 16.1hPa | 2.5V | 18:12:15 | 01:54:40 | 00:00:00 | |
| DO2JMG | 2026-09-06 01:13:01 | 51.66543 | 6.49916 | 74° | 15km/h | 28344m | 5.6m/s | -48.7°C | 0.5% | 16.2hPa | 2.6V | 18:12:15 | 01:54:37 | 00:00:00 | |
| EDDB2-12 | 2026-09-06 01:13:01 | 51.66542 | 6.49912 | 69° | 9km/h | 28339m | 4.8m/s | -48.7°C | 1.0% | 16.2hPa | 2.6V | 00:00:00 | 00:00:00 | 00:00:00 | |
| DJ2DS-15 | 2026-09-06 01:12:58 | 51.66542 | 6.49907 | 151° | 4km/h | 28327m | 6.9m/s | -48.6°C | 1.0% | 16.2hPa | 2.6V | 00:00:00 | 00:00:00 | 00:00:00 | |
| DL1XH-15 | 2026-09-06 01:12:57 | 51.66545 | 6.49907 | 183° | 5km/h | 28315m | 5m/s | -48.6°C | 3.4% | 16.2hPa | 2.6V | 08:30:00 | 01:54:32 | 00:00:00 | |
| GOEST3-10 | 2026-09-06 01:12:56 | 51.66545 | 6.49907 | 184° | 4km/h | 28315m | 4.9m/s | -48.5°C | 3.4% | 16.2hPa | 2.6V | 00:00:00 | 01:54:32 | 00:00:00 | |
| DM0DOS-11 | 2026-09-06 01:12:55 | 51.66545 | 6.49905 | 54° | 4km/h | 28291m | 5.6m/s | -48.6°C | 3.4% | 16.3hPa | 2.5V | 08:30:00 | 01:54:28 | 00:00:00 | |
| AA1-15 | 2026-09-06 01:12:55 | 51.66546 | 6.49907 | 174° | 4km/h | 28309m | 6.9m/s | -48.6°C | 0.5% | 16.3hPa | 2.6V | 18:12:15 | 01:54:31 | 00:00:00 | |
| DL1XH-west | 2026-09-06 01:12:54 | 51.66546 | 6.49907 | 86° | 2km/h | 28303m | 6.5m/s | -48.6°C | 0.5% | 16.3hPa | 2.6V | 18:12:15 | 01:54:30 | 00:00:00 | |
| BIOWL1-15 | 2026-09-06 01:12:53 | 51.66546 | 6.49906 | 49° | 4km/h | 28296m | 5.7m/s | -48.6°C | 0.5% | 16.3hPa | 2.5V | 18:12:15 | 01:54:29 | 00:00:00 | |
| DO2JMG | 2026-09-06 01:12:50 | 51.66546 | 6.49903 | 172° | 4km/h | 28278m | 6.5m/s | -48.6°C | 0.5% | 16.4hPa | 2.6V | 18:12:15 | 01:54:26 | 00:00:00 | |
| HTAHTA | 2026-09-06 01:12:48 | 51.66549 | 6.49903 | 178° | 5km/h | 28267m | 5.1m/s | -48.6°C | 1.0% | 16.4hPa | 2.5V | 00:00:00 | 00:00:00 | 00:00:00 | |
| DL1XH-15 | 2026-09-06 01:12:47 | 51.66551 | 6.49901 | 116° | 5km/h | 28254m | 6.4m/s | -48.6°C | 3.4% | 16.4hPa | 2.5V | 08:30:00 | 01:54:22 | 00:00:00 | |
| DM0DOS-11 | 2026-09-06 01:12:47 | 51.66556 | 6.49891 | 147° | 11km/h | 28230m | 5.3m/s | -48.6°C | 3.5% | 16.5hPa | 2.6V | 08:30:00 | 01:54:18 | 00:00:00 | |
| DO1YAY-16 | 2026-09-06 01:12:46 | 51.66551 | 6.49899 | 112° | 5km/h | 28249m | 5.2m/s | -48.6°C | 1.0% | 16.4hPa | 2.6V | 00:00:00 | 00:00:00 | 00:00:00 | |
| AA1-15 | 2026-09-06 01:12:44 | 51.66552 | 6.49896 | 125° | 9km/h | 28243m | 5.9m/s | -48.6°C | 0.5% | 16.4hPa | 2.6V | 18:12:15 | 01:54:20 | 00:00:00 | |
| DL1XH-west | 2026-09-06 01:12:43 | 51.66554 | 6.49894 | 139° | 11km/h | 28236m | 6.9m/s | -48.6°C | 0.6% | 16.5hPa | 2.6V | 18:12:15 | 01:54:19 | 00:00:00 | |
| DO2JMG | 2026-09-06 01:12:40 | 51.66559 | 6.49888 | 147° | 5km/h | 28220m | 6.7m/s | -48.6°C | 0.6% | 16.5hPa | 2.5V | 18:12:15 | 01:54:16 | 00:00:00 | |
| WEDDY | 2026-09-06 01:12:39 | 51.66560 | 6.49887 | 0° | 0km/h | 28213m | 6.5m/s | -48.7°C | 1.0% | 16.5hPa | 2.5V | 00:00:00 | 00:00:00 | 00:00:00 | |
| DL1XH-15 | 2026-09-06 01:12:37 | 51.66559 | 6.49890 | 236° | 5km/h | 28196m | 6.9m/s | -48.6°C | 3.5% | 16.5hPa | 2.5V | 08:30:00 | 01:54:12 | 00:00:00 | |
| BIOWL1-15 | 2026-09-06 01:12:35 | 51.66564 | 6.49895 | 212° | 7km/h | 28178m | 5.7m/s | -48.5°C | 0.5% | 16.6hPa | 2.5V | 18:12:15 | 01:54:09 | 00:00:00 | |
| AA1-15 | 2026-09-06 01:12:34 | 51.66562 | 6.49893 | 210° | 9km/h | 28184m | 5.3m/s | -48.6°C | 0.5% | 16.6hPa | 2.5V | 18:12:15 | 01:54:10 | 00:00:00 | |
| DM0DOS-11 | 2026-09-06 01:12:33 | 51.66566 | 6.49896 | 217° | 5km/h | 28172m | 7m/s | -48.5°C | 3.4% | 16.6hPa | 2.6V | 08:30:00 | 01:54:08 | 00:00:00 | |
| DL1XH-west | 2026-09-06 01:12:32 | 51.66566 | 6.49896 | 218° | 5km/h | 28172m | 7m/s | -48.5°C | 0.5% | 16.6hPa | 2.6V | 18:12:15 | 01:54:08 | 00:00:00 | |
| DL1XH-15 | 2026-09-06 01:12:31 | 51.66570 | 6.49889 | 131° | 7km/h | 28135m | 5.8m/s | -48.3°C | 3.4% | 16.7hPa | 2.6V | 08:30:00 | 01:54:02 | 00:00:00 | |
| HSKMA3-T | 2026-09-06 01:12:30 | 51.66566 | 6.49897 | 86° | 2km/h | 28160m | 5.4m/s | -48.4°C | 0.5% | 16.6hPa | 2.6V | 18:12:15 | 01:54:06 | 00:00:00 | |
| DO2JMG | 2026-09-06 01:12:29 | 51.66566 | 6.49895 | 110° | 4km/h | 28153m | 6.5m/s | -48.3°C | 0.5% | 16.7hPa | 2.5V | 18:12:15 | 01:54:05 | 00:00:00 | |
| DF5WG-10 | 2026-09-06 01:12:29 | 51.66566 | 6.49895 | 111° | 7km/h | 28154m | 6.5m/s | -48.3°C | 3.4% | 16.6hPa | 2.5V | 00:00:00 | 01:54:05 | 00:00:00 | |
| DM0DOS-11 | 2026-09-06 01:12:27 | 51.66572 | 6.49887 | 224° | 7km/h | 28111m | 5.3m/s | -48.2°C | 3.4% | 16.8hPa | 2.5V | 08:30:00 | 01:53:58 | 00:00:00 | |
| AA1-15 | 2026-09-06 01:12:23 | 51.66571 | 6.49886 | 237° | 2km/h | 28116m | 5m/s | -48.2°C | 0.5% | 16.8hPa | 2.5V | 18:12:15 | 01:53:59 | 00:00:00 | |
| DL1XH-west | 2026-09-06 01:12:22 | 51.66572 | 6.49887 | 225° | 7km/h | 28111m | 5.3m/s | -48.2°C | 0.5% | 16.8hPa | 2.5V | 18:12:15 | 01:53:58 | 00:00:00 | |
| DO2JMG | 2026-09-06 01:12:19 | 51.66580 | 6.49895 | 207° | 16km/h | 28093m | 5.3m/s | -48.2°C | 0.5% | 16.8hPa | 2.6V | 18:12:15 | 01:53:55 | 00:00:00 | |
| DF5WG-10 | 2026-09-06 01:12:19 | 51.66580 | 6.49895 | 208° | 13km/h | 28093m | 5.3m/s | -48.2°C | 3.4% | 16.8hPa | 2.5V | 00:00:00 | 01:53:55 | 00:00:00 | |
| WEDDY | 2026-09-06 01:12:18 | 51.66583 | 6.49898 | 210° | 15km/h | 28087m | 6.7m/s | -48.2°C | 1.0% | 16.8hPa | 2.5V | 00:00:00 | 00:00:00 | 00:00:00 | |
| HTAHTA | 2026-09-06 01:12:17 | 51.66586 | 6.49901 | 209° | 11km/h | 28080m | 6.2m/s | -48.2°C | 1.0% | 16.8hPa | 2.5V | 00:00:00 | 00:00:00 | 00:00:00 | |
| GOEST3-10 | 2026-09-06 01:12:16 | 51.66588 | 6.49902 | 204° | 11km/h | 28075m | 5.1m/s | -48.1°C | 3.4% | 16.8hPa | 2.5V | 00:00:00 | 01:53:52 | 00:00:00 | |
| DM0DOS-11 | 2026-09-06 01:12:13 | 51.66599 | 6.49902 | 176° | 15km/h | 28051m | 5.5m/s | -48.1°C | 3.4% | 16.9hPa | 2.5V | 08:30:00 | 01:53:48 | 00:00:00 | |
| DL1XH-west | 2026-09-06 01:12:12 | 51.66599 | 6.49902 | 176° | 15km/h | 28051m | 5.5m/s | -48.1°C | 0.5% | 16.9hPa | 2.5V | 18:12:15 | 01:53:48 | 00:00:00 | |
| DO2JMG | 2026-09-06 01:12:09 | 51.66608 | 6.49904 | 218° | 7km/h | 28033m | 6.6m/s | -48°C | 0.5% | 17hPa | 2.5V | 18:12:15 | 01:53:45 | 00:00:00 | |
| HSKMA3-T | 2026-09-06 01:12:08 | 51.66609 | 6.49907 | 241° | 7km/h | 28027m | 5.9m/s | -48°C | 0.5% | 17hPa | 2.6V | 18:12:15 | 01:53:44 | 00:00:00 | |
| DM0DOS-11 | 2026-09-06 01:12:07 | 51.66615 | 6.49926 | 311° | 5km/h | 27991m | 6.5m/s | -48°C | 3.4% | 17.1hPa | 2.6V | 08:30:00 | 01:53:38 | 00:00:00 | |
| AA1-15 | 2026-09-06 01:12:02 | 51.66614 | 6.49926 | 311° | 5km/h | 27991m | 6.5m/s | -48°C | 0.5% | 17.1hPa | 2.6V | 18:12:15 | 01:53:38 | 00:00:00 | |
| BIOWL1-15 | 2026-09-06 01:12:01 | 51.66613 | 6.49927 | 337° | 4km/h | 27985m | 5.3m/s | -47.9°C | 0.5% | 17.1hPa | 2.6V | 18:12:15 | 01:53:37 | 00:00:00 | |
| DO2JMG | 2026-09-06 01:11:58 | 51.66614 | 6.49926 | 169° | 7km/h | 27967m | 6m/s | -47.9°C | 0.5% | 17.1hPa | 2.5V | 18:12:15 | 01:53:34 | 00:00:00 | |
| DL1XH-15 | 2026-09-06 01:11:57 | 51.66618 | 6.49925 | 171° | 7km/h | 27956m | 5.7m/s | -47.8°C | 3.3% | 17.2hPa | 2.6V | 08:30:00 | 01:53:32 | 00:00:00 | |
| AA1-15 | 2026-09-06 01:11:52 | 51.66622 | 6.49928 | 252° | 5km/h | 27932m | 6.7m/s | -47.7°C | 0.4% | 17.2hPa | 2.5V | 18:12:15 | 01:53:28 | 00:00:00 | |
| DL1XH-west | 2026-09-06 01:11:51 | 51.66622 | 6.49930 | 242° | 7km/h | 27925m | 6.9m/s | -47.7°C | 0.5% | 17.3hPa | 2.5V | 18:12:15 | 01:53:27 | 00:00:00 | |
| HSKMA3-T | 2026-09-06 01:11:48 | 51.66624 | 6.49937 | 298° | 2km/h | 27908m | 7m/s | -47.6°C | 0.4% | 17.2hPa | 2.5V | 18:12:15 | 01:53:24 | 00:00:00 | |
| DJ2DS-15 | 2026-09-06 01:11:47 | 51.66623 | 6.49935 | 71° | 5km/h | 27897m | 4.7m/s | -47.6°C | 1.0% | 17.3hPa | 2.5V | 00:00:00 | 00:00:00 | 00:00:00 | |
| HTAHTA | 2026-09-06 01:11:46 | 51.66623 | 6.49935 | 71° | 5km/h | 27897m | 4.7m/s | -47.6°C | 1.0% | 17.3hPa | 2.5V | 00:00:00 | 00:00:00 | 00:00:00 | |
| AA1-15 | 2026-09-06 01:11:42 | 51.66627 | 6.49928 | 178° | 11km/h | 27874m | 5.2m/s | -47.5°C | 0.4% | 17.4hPa | 2.5V | 18:12:15 | 01:53:18 | 00:00:00 | |
| DL1XH-west | 2026-09-06 01:11:40 | 51.66632 | 6.49929 | 190° | 5km/h | 27864m | 6.1m/s | -47.4°C | 0.4% | 17.4hPa | 2.5V | 18:12:15 | 01:53:16 | 00:00:00 | |
| DF5WG-10 | 2026-09-06 01:11:39 | 51.66633 | 6.49929 | 193° | 7km/h | 27858m | 6.7m/s | -47.3°C | 3.3% | 17.4hPa | 2.5V | 00:00:00 | 01:53:15 | 00:00:00 | |
| DD1CC1-15 | 2026-09-06 01:11:38 | 51.66633 | 6.49929 | 193° | 2km/h | 27858m | 6.7m/s | -47.3°C | 1.0% | 17.4hPa | 2.5V | 00:00:00 | 00:00:00 | 00:00:00 | |
| DL1XH-15 | 2026-09-06 01:11:37 | 51.66632 | 6.49929 | 224° | 2km/h | 27841m | 5.2m/s | -47.2°C | 3.2% | 17.5hPa | 2.5V | 08:30:00 | 01:53:12 | 00:00:00 | |
| DO2JMG | 2026-09-06 01:11:37 | 51.66633 | 6.49929 | 4° | 2km/h | 27846m | 4.5m/s | -47.2°C | 0.4% | 17.4hPa | 2.6V | 18:12:15 | 01:53:13 | 00:00:00 | |
| AA1-15 | 2026-09-06 01:11:31 | 51.66643 | 6.49941 | 219° | 11km/h | 27814m | 5.7m/s | -47.2°C | 0.4% | 17.5hPa | 2.5V | 18:12:15 | 01:53:07 | 00:00:00 | |
| BIOWL1-15 | 2026-09-06 01:11:30 | 51.66645 | 6.49944 | 220° | 7km/h | 27808m | 6.4m/s | -47.2°C | 0.3% | 17.6hPa | 2.5V | 18:12:15 | 01:53:06 | 00:00:00 | |
| DL1XH-west | 2026-09-06 01:11:29 | 51.66646 | 6.49945 | 204° | 2km/h | 27801m | 6.1m/s | -47.2°C | 0.3% | 17.6hPa | 2.5V | 18:12:15 | 01:53:05 | 00:00:00 | |
| BIOWL7-15 | 2026-09-06 01:11:29 | 51.66646 | 6.49945 | 205° | 2km/h | 27802m | 6.1m/s | -47.2°C | 0.9% | 17.6hPa | 2.6V | 00:00:00 | 00:00:00 | 00:00:00 | |
| WEDDY | 2026-09-06 01:11:28 | 51.66646 | 6.49945 | 205° | 2km/h | 27802m | 6.1m/s | -47.2°C | 0.9% | 17.6hPa | 2.6V | 00:00:00 | 00:00:00 | 00:00:00 | |
| DL1XH-15 | 2026-09-06 01:11:27 | 51.66648 | 6.49943 | 161° | 7km/h | 27785m | 6.5m/s | -47.1°C | 3.2% | 17.6hPa | 2.6V | 08:30:00 | 01:53:02 | 00:00:00 | |
| DM0DOS-11 | 2026-09-06 01:11:27 | 51.66657 | 6.49944 | 206° | 7km/h | 27760m | 6.5m/s | -47.1°C | 3.2% | 17.7hPa | 2.5V | 08:30:00 | 01:52:58 | 00:00:00 | |
| DO2JMG | 2026-09-06 01:11:27 | 51.66647 | 6.49944 | 136° | 4km/h | 27790m | 5.1m/s | -47.2°C | 0.3% | 17.6hPa | 2.6V | 18:12:15 | 01:53:03 | 00:00:00 | |
| AA1-15 | 2026-09-06 01:11:20 | 51.66660 | 6.49948 | 229° | 7km/h | 27749m | 5.4m/s | -47.2°C | 0.4% | 17.7hPa | 2.6V | 18:12:15 | 01:52:56 | 00:00:00 | |
| DL1XH-west | 2026-09-06 01:11:19 | 51.66661 | 6.49950 | 221° | 9km/h | 27743m | 6.8m/s | -47.2°C | 0.4% | 17.8hPa | 2.5V | 18:12:15 | 01:52:55 | 00:00:00 | |
| DL1XH-15 | 2026-09-06 01:11:17 | 51.66668 | 6.49954 | 166° | 9km/h | 27725m | 5.8m/s | -47.2°C | 3.2% | 17.8hPa | 2.5V | 08:30:00 | 01:52:52 | 00:00:00 | |
| DM0DOS-11 | 2026-09-06 01:11:17 | 51.66672 | 6.49938 | 106° | 15km/h | 27699m | 6.8m/s | -47.3°C | 3.2% | 17.8hPa | 2.5V | 08:30:00 | 01:52:48 | 00:00:00 | |
| HSKMA3-T | 2026-09-06 01:11:17 | 51.66666 | 6.49954 | 191° | 11km/h | 27730m | 5.2m/s | -47.2°C | 0.3% | 17.8hPa | 2.5V | 18:12:15 | 01:52:53 | 00:00:00 | |
| DO2JMG | 2026-09-06 01:11:16 | 51.66668 | 6.49954 | 166° | 9km/h | 27725m | 5.8m/s | -47.2°C | 0.3% | 17.8hPa | 2.5V | 18:12:15 | 01:52:52 | 00:00:00 | |
| AA1-15 | 2026-09-06 01:11:10 | 51.66675 | 6.49927 | 124° | 15km/h | 27687m | 4.8m/s | -47.4°C | 0.4% | 17.9hPa | 2.5V | 18:12:15 | 01:52:46 | 00:00:00 | |
| DL1XH-west | 2026-09-06 01:11:09 | 51.66677 | 6.49922 | 124° | 13km/h | 27682m | 5.7m/s | -47.5°C | 0.4% | 17.9hPa | 2.6V | 18:12:15 | 01:52:45 | 00:00:00 | |
| DH3RM | 2026-09-06 01:11:09 | 51.66677 | 6.49922 | 124° | 13km/h | 27683m | 5.7m/s | -47.5°C | 1.0% | 17.9hPa | 2.5V | 00:00:00 | 00:00:00 | 00:00:00 | |
| DL1XH-15 | 2026-09-06 01:11:07 | 51.66682 | 6.49914 | 163° | 7km/h | 27665m | 5.5m/s | -47.5°C | 3.3% | 17.9hPa | 2.5V | 08:30:00 | 01:52:42 | 00:00:00 | |
| DO2JMG | 2026-09-06 01:11:06 | 51.66682 | 6.49914 | 164° | 7km/h | 27665m | 5.5m/s | -47.5°C | 0.4% | 17.9hPa | 2.5V | 18:12:15 | 01:52:42 | 00:00:00 | |
| AA1-15 | 2026-09-06 01:11:00 | 51.66702 | 6.49912 | 136° | 13km/h | 27629m | 7m/s | -47.7°C | 0.4% | 18.1hPa | 2.5V | 18:12:15 | 01:52:36 | 00:00:00 | |
| DL1XH-west | 2026-09-06 01:10:58 | 51.66705 | 6.49901 | 102° | 16km/h | 27617m | 5.1m/s | -47.7°C | 0.4% | 18.1hPa | 2.5V | 18:12:15 | 01:52:34 | 00:00:00 | |
| DL1XH-15 | 2026-09-06 01:10:57 | 51.66707 | 6.49888 | 120° | 16km/h | 27605m | 5.8m/s | -47.7°C | 3.3% | 18.1hPa | 2.6V | 08:30:00 | 01:52:32 | 00:00:00 | |
| DM0DOS-11 | 2026-09-06 01:10:57 | 51.66715 | 6.49880 | 204° | 7km/h | 27582m | 6m/s | -47.7°C | 3.3% | 18.2hPa | 2.5V | 08:30:00 | 01:52:28 | 00:00:00 | |
| DO2JMG | 2026-09-06 01:10:56 | 51.66707 | 6.49888 | 120° | 16km/h | 27605m | 5.8m/s | -47.7°C | 0.4% | 18.1hPa | 2.6V | 18:12:15 | 01:52:32 | 00:00:00 | |
| AA1-15 | 2026-09-06 01:10:49 | 51.66723 | 6.49887 | 202° | 18km/h | 27564m | 6.4m/s | -47.7°C | 0.5% | 18.2hPa | 2.6V | 18:12:15 | 01:52:25 | 00:00:00 | |
| BIOWL1-15 | 2026-09-06 01:10:48 | 51.66727 | 6.49889 | 187° | 20km/h | 27559m | 4.8m/s | -47.8°C | 0.5% | 18.2hPa | 2.5V | 18:12:15 | 01:52:24 | 00:00:00 | |
| DL1XH-15 | 2026-09-06 01:10:47 | 51.66737 | 6.49886 | 151° | 18km/h | 27549m | 5.9m/s | -47.8°C | 3.2% | 18.3hPa | 2.5V | 08:30:00 | 01:52:22 | 00:00:00 | |
| DL1XH-west | 2026-09-06 01:10:47 | 51.66732 | 6.49889 | 170° | 18km/h | 27554m | 4.3m/s | -47.8°C | 0.4% | 18.3hPa | 2.5V | 18:12:15 | 01:52:23 | 00:00:00 | |
| DO2JMG | 2026-09-06 01:10:45 | 51.66740 | 6.49882 | 127° | 16km/h | 27543m | 6.6m/s | -47.8°C | 0.4% | 18.3hPa | 2.6V | 18:12:15 | 01:52:21 | 00:00:00 | |
| BIOWL1-15 | 2026-09-06 01:10:38 | 51.66750 | 6.49855 | 194° | 13km/h | 27503m | 5.2m/s | -47.9°C | 0.4% | 18.4hPa | 2.5V | 18:12:15 | 01:52:14 | 00:00:00 | |
| DL1XH-15 | 2026-09-06 01:10:37 | 51.66755 | 6.49859 | 211° | 11km/h | 27491m | 6.7m/s | -47.9°C | 3.3% | 18.4hPa | 2.5V | 08:30:00 | 01:52:12 | 00:00:00 | |
| DL1XH-west | 2026-09-06 01:10:36 | 51.66755 | 6.49859 | 211° | 11km/h | 27491m | 6.7m/s | -47.9°C | 0.4% | 18.4hPa | 2.5V | 18:12:15 | 01:52:12 | 00:00:00 | |
| HSKMA3-T | 2026-09-06 01:10:35 | 51.66757 | 6.49861 | 205° | 7km/h | 27485m | 5.7m/s | 0°C | 0% | 0hPa | 2.5V | 18:12:15 | 01:52:11 | 00:00:00 | |
| DO2JMG | 2026-09-06 01:10:34 | 51.66759 | 6.49861 | 170° | 7km/h | 27480m | 4.8m/s | -48°C | 0.5% | 18.4hPa | 2.6V | 18:12:15 | 01:52:10 | 00:00:00 | |
| DB0NH | 2026-09-06 01:10:33 | 51.66761 | 6.49860 | 147° | 13km/h | 27475m | 5.2m/s | -48.0°C | 3.3% | 18.4hPa | 2.6V | 00:00:00 | 01:52:09 | 00:00:00 | |
| DL1XH-15 | 2026-09-06 01:10:31 | 51.66781 | 6.49818 | 111° | 15km/h | 27435m | 4.6m/s | -48°C | 3.3% | 18.6hPa | 2.5V | 08:30:00 | 01:52:02 | 00:00:00 | |
| BIOWL1-15 | 2026-09-06 01:10:29 | 51.66780 | 6.49824 | 111° | 18km/h | 27439m | 4.8m/s | -48°C | 0.4% | 18.6hPa | 2.6V | 18:12:15 | 01:52:03 | 00:00:00 | |
| AA1-15 | 2026-09-06 01:10:28 | 51.66778 | 6.49831 | 118° | 20km/h | 27445m | 6.8m/s | -48°C | 0.4% | 18.6hPa | 2.6V | 18:12:15 | 01:52:04 | 00:00:00 | |
| DL1XH-west | 2026-09-06 01:10:25 | 51.66783 | 6.49813 | 119° | 13km/h | 27429m | 6.2m/s | -48°C | 0.4% | 18.6hPa | 2.5V | 18:12:15 | 01:52:01 | 00:00:00 | |
| HSKMA3-T | 2026-09-06 01:10:24 | 51.66785 | 6.49809 | 132° | 11km/h | 27423m | 5.8m/s | 0°C | 0% | 0hPa | 2.5V | 18:12:15 | 01:52:00 | 00:00:00 | |
| DM0DOS-11 | 2026-09-06 01:10:23 | 51.66787 | 6.49805 | 167° | 4km/h | 27412m | 6.6m/s | -48°C | 3.2% | 18.6hPa | 2.6V | 08:30:00 | 01:51:58 | 00:00:00 | |
| DO2JMG | 2026-09-06 01:10:23 | 51.66786 | 6.49806 | 148° | 7km/h | 27418m | 5.2m/s | -48°C | 0.5% | 18.6hPa | 2.6V | 18:12:15 | 01:51:59 | 00:00:00 | |
| DK5PH-5 | 2026-09-06 01:10:22 | 51.66787 | 6.49805 | 168° | 15km/h | 27412m | 6.6m/s | -48.0°C | 3.2% | 18.6hPa | 2.6V | 00:00:00 | 01:51:58 | 00:00:00 | |
| BIOWL9-15 | 2026-09-06 01:10:21 | 51.66789 | 6.49806 | 220° | 4km/h | 27400m | 5.1m/s | -48.1°C | 1.0% | 18.7hPa | 2.6V | 00:00:00 | 00:00:00 | 00:00:00 | |
| DB0ND-19 | 2026-09-06 01:10:20 | 51.66790 | 6.49808 | 201° | 7km/h | 27395m | 5.2m/s | -48.1°C | 1.0% | 18.7hPa | 2.6V | 00:00:00 | 00:00:00 | 00:00:00 | |
| DF5WG-10 | 2026-09-06 01:10:19 | 51.66790 | 6.49808 | 202° | 18km/h | 27395m | 5.2m/s | -48.1°C | 3.3% | 18.7hPa | 2.6V | 00:00:00 | 01:51:55 | 00:00:00 | |
| DL1XH-15 | 2026-09-06 01:10:18 | 51.66803 | 6.49807 | 164° | 24km/h | 27376m | 5.5m/s | -48.3°C | 3.3% | 18.8hPa | 2.6V | 08:30:00 | 01:51:52 | 00:00:00 | |
| AA1-15 | 2026-09-06 01:10:18 | 51.66797 | 6.49809 | 175° | 20km/h | 27382m | 6.1m/s | -48.2°C | 0.4% | 18.7hPa | 2.6V | 18:12:15 | 01:51:53 | 00:00:00 | |
| BIOWL1-15 | 2026-09-06 01:10:16 | 51.66803 | 6.49807 | 164° | 24km/h | 27377m | 5.5m/s | -48.3°C | 0.5% | 18.8hPa | 2.6V | 18:12:15 | 01:51:52 | 00:00:00 | |
| DL1XH-west | 2026-09-06 01:10:14 | 51.66814 | 6.49799 | 143° | 24km/h | 27364m | 6.5m/s | -48.5°C | 0.5% | 18.8hPa | 2.5V | 18:12:15 | 01:51:50 | 00:00:00 | |
| DM0DOS-11 | 2026-09-06 01:10:13 | 51.66822 | 6.49787 | 134° | 20km/h | 27352m | 5.8m/s | -48.5°C | 3.4% | 18.8hPa | 2.5V | 08:30:00 | 01:51:48 | 00:00:00 | |
| DO2JMG | 2026-09-06 01:10:13 | 51.66818 | 6.49793 | 136° | 22km/h | 27358m | 5.1m/s | -48.5°C | 0.5% | 18.8hPa | 2.5V | 18:12:15 | 01:51:49 | 00:00:00 | |
| HTAHTA | 2026-09-06 01:10:13 | 51.66822 | 6.49787 | 134° | 20km/h | 27353m | 5.8m/s | -48.5°C | 1.0% | 18.8hPa | 2.6V | 00:00:00 | 00:00:00 | 00:00:00 | |
| GOEST3-10 | 2026-09-06 01:10:11 | 51.66825 | 6.49781 | 139° | 9km/h | 27347m | 6.3m/s | -48.4°C | 3.4% | 18.8hPa | 2.6V | 00:00:00 | 00:00:00 | 00:00:00 | |
| DO1YAY-16 | 2026-09-06 01:10:10 | 51.66828 | 6.49777 | 142° | 13km/h | 27341m | 5.4m/s | -48.5°C | 1.0% | 18.9hPa | 2.5V | 00:00:00 | 00:00:00 | 00:00:00 | |
| AU51GT2 | 2026-09-06 01:10:09 | 51.66831 | 6.49773 | 129° | 2km/h | 27329m | 7.1m/s | -48.4°C | 1.0% | 18.9hPa | 2.5V | 00:00:00 | 00:00:00 | 00:00:00 | |
| DJ2KF-10 | 2026-09-06 01:10:08 | 51.66831 | 6.49773 | 130° | 15km/h | 27329m | 7.1m/s | -48.4°C | 3.3% | 18.8hPa | 2.5V | 00:00:00 | 01:51:44 | 00:00:00 | |
| DM0DOS-11 | 2026-09-06 01:10:07 | 51.66844 | 6.49771 | 162° | 26km/h | 27295m | 5m/s | -48.5°C | 3.4% | 19hPa | 2.5V | 08:30:00 | 01:51:38 | 00:00:00 | |
| AA1-15 | 2026-09-06 01:10:06 | 51.66831 | 6.49772 | 240° | 2km/h | 27317m | 4.7m/s | -48.4°C | 0.5% | 18.9hPa | 2.5V | 18:12:15 | 01:51:42 | 00:00:00 | |
| DL1XH-west | 2026-09-06 01:10:04 | 51.66835 | 6.49774 | 184° | 13km/h | 27306m | 6.6m/s | -48.4°C | 0.5% | 18.9hPa | 2.6V | 18:12:15 | 01:51:40 | 00:00:00 | |
| DO2JMG | 2026-09-06 01:10:02 | 51.66844 | 6.49771 | 163° | 26km/h | 27295m | 5m/s | -48.5°C | 0.5% | 19hPa | 2.5V | 18:12:15 | 01:51:38 | 00:00:00 | |
| SONCRA | 2026-09-06 01:10:00 | 51.66861 | 6.49753 | 127° | 26km/h | 27277m | 5.6m/s | -48.6°C | 1.0% | 19.1hPa | 2.5V | 00:00:00 | 00:00:00 | 00:00:00 | |
| MET0W-2 | 2026-09-06 01:09:59 | 51.66864 | 6.49744 | 116° | 24km/h | 27272m | 4.7m/s | -48.6°C | 1.0% | 19.1hPa | 2.5V | 00:00:00 | 00:00:00 | 00:00:00 | |
| DL3AQ-11 | 2026-09-06 01:09:58 | 51.66867 | 6.49736 | 113° | 20km/h | 27267m | 5.5m/s | -48.7°C | 1.0% | 19.1hPa | 2.5V | 00:00:00 | 00:00:00 | 00:00:00 | |
| DL1XH-15 | 2026-09-06 01:09:57 | 51.66869 | 6.49729 | 111° | 16km/h | 27261m | 6.2m/s | -48.6°C | 3.4% | 19.1hPa | 2.5V | 08:30:00 | 01:51:32 | 00:00:00 | |
| BIOWL1-15 | 2026-09-06 01:09:56 | 51.66868 | 6.49729 | 111° | 16km/h | 27261m | 6.2m/s | -48.7°C | 0.5% | 19.1hPa | 2.5V | 18:12:15 | 01:51:32 | 00:00:00 | |
| DL1XH-west | 2026-09-06 01:09:53 | 51.66869 | 6.49718 | 53° | 7km/h | 27244m | 6.3m/s | -48.7°C | 0.6% | 19.1hPa | 2.6V | 18:12:15 | 01:51:29 | 00:00:00 | |
| DM0DOS-11 | 2026-09-06 01:09:52 | 51.66867 | 6.49716 | 38° | 9km/h | 27238m | 6.6m/s | -48.8°C | 3.5% | 19.1hPa | 2.5V | 08:30:00 | 01:51:28 | 00:00:00 | |
| DK5PH-5 | 2026-09-06 01:09:52 | 51.66868 | 6.49716 | 39° | 16km/h | 27238m | 6.5m/s | -48.7°C | 3.5% | 19.1hPa | 2.6V | 00:00:00 | 01:51:28 | 00:00:00 | |
| DL1XH-15 | 2026-09-06 01:09:51 | 51.66874 | 6.49699 | 136° | 22km/h | 27205m | 6.2m/s | -48.7°C | 3.4% | 19.2hPa | 2.6V | 08:30:00 | 01:51:22 | 00:00:00 | |
| DO2JMG | 2026-09-06 01:09:51 | 51.66866 | 6.49714 | 40° | 7km/h | 27232m | 5.2m/s | -48.8°C | 0.6% | 19.2hPa | 2.5V | 18:12:15 | 01:51:27 | 00:00:00 | |
| BIOWL9-15 | 2026-09-06 01:09:50 | 51.66865 | 6.49710 | 135° | 5km/h | 27221m | 6.6m/s | -48.8°C | 1.0% | 19.2hPa | 2.6V | 00:00:00 | 00:00:00 | 00:00:00 | |
| DF5WG-10 | 2026-09-06 01:09:49 | 51.66865 | 6.49710 | 136° | 18km/h | 27221m | 6.6m/s | -48.8°C | 3.5% | 19.2hPa | 2.6V | 00:00:00 | 01:51:25 | 00:00:00 | |
| DM0DOS-11 | 2026-09-06 01:09:47 | 51.66886 | 6.49664 | 110° | 22km/h | 27183m | 6m/s | -48.7°C | 3.4% | 19.3hPa | 2.6V | 08:30:00 | 01:51:18 | 00:00:00 | |
| BUE01 | 2026-09-06 01:09:47 | 51.66874 | 6.49699 | 136° | 22km/h | 27205m | 6.2m/s | -48.7°C | 1.0% | 19.2hPa | 2.6V | 00:00:00 | 00:00:00 | 00:00:00 | |
| BIOWL1-15 | 2026-09-06 01:09:46 | 51.66886 | 6.49664 | 111° | 22km/h | 27183m | 6m/s | -48.7°C | 0.5% | 19.3hPa | 2.6V | 18:12:15 | 01:51:18 | 00:00:00 | |
| AA1-15 | 2026-09-06 01:09:46 | 51.66878 | 6.49692 | 125° | 26km/h | 27199m | 6.6m/s | -48.7°C | 0.5% | 19.2hPa | 2.5V | 18:12:15 | 01:51:21 | 00:00:00 | |
| DL1XH-west | 2026-09-06 01:09:43 | 51.66884 | 6.49673 | 111° | 26km/h | 27188m | 4.3m/s | -48.7°C | 0.5% | 19.3hPa | 2.5V | 18:12:15 | 01:51:19 | 00:00:00 | |
| DO2JMG | 2026-09-06 01:09:40 | 51.66890 | 6.49651 | 112° | 13km/h | 27170m | 5.7m/s | -48.8°C | 0.6% | 19.4hPa | 2.5V | 18:12:15 | 01:51:16 | 00:00:00 | |
| DF5WG-10 | 2026-09-06 01:09:39 | 51.66890 | 6.49647 | 97° | 16km/h | 27165m | 5.3m/s | -48.7°C | 3.5% | 19.3hPa | 2.5V | 00:00:00 | 01:51:15 | 00:00:00 | |
| AU51GT2 | 2026-09-06 01:09:38 | 51.66889 | 6.49640 | 60° | 11km/h | 27154m | 5.7m/s | -48.8°C | 1.0% | 19.4hPa | 2.5V | 00:00:00 | 00:00:00 | 00:00:00 | |
| DM0DOS-11 | 2026-09-06 01:09:37 | 51.66882 | 6.49603 | 88° | 18km/h | 27126m | 6m/s | -48.9°C | 3.5% | 19.5hPa | 2.5V | 08:30:00 | 01:51:08 | 00:00:00 | |
| AA1-15 | 2026-09-06 01:09:34 | 51.66884 | 6.49619 | 75° | 22km/h | 27138m | 4.6m/s | -48.9°C | 0.6% | 19.4hPa | 2.5V | 18:12:15 | 01:51:10 | 00:00:00 | |
| BIOWL1-15 | 2026-09-06 01:09:33 | 51.66883 | 6.49611 | 81° | 20km/h | 27132m | 6.4m/s | -48.9°C | 0.6% | 19.5hPa | 2.5V | 18:12:15 | 01:51:09 | 00:00:00 | |
| DL1XH-west | 2026-09-06 01:09:32 | 51.66882 | 6.49603 | 88° | 18km/h | 27126m | 6m/s | -48.9°C | 0.6% | 19.5hPa | 2.5V | 18:12:15 | 01:51:08 | 00:00:00 | |
| DO2JMG | 2026-09-06 01:09:29 | 51.66881 | 6.49580 | 82° | 22km/h | 27110m | 6.8m/s | -48.9°C | 0.6% | 19.5hPa | 2.6V | 18:12:15 | 01:51:05 | 00:00:00 | |
| DL1XH-15 | 2026-09-06 01:09:28 | 51.66876 | 6.49552 | 66° | 24km/h | 27093m | 5.4m/s | -49°C | 3.5% | 19.6hPa | 2.5V | 08:30:00 | 01:51:02 | 00:00:00 | |
| AA1-15 | 2026-09-06 01:09:23 | 51.66871 | 6.49532 | 75° | 13km/h | 27075m | 4.5m/s | -49°C | 0.6% | 19.6hPa | 2.5V | 18:12:15 | 01:50:59 | 00:00:00 | |
| DL1XH-west | 2026-09-06 01:09:21 | 51.66869 | 6.49521 | 82° | 15km/h | 27064m | 6.4m/s | -49°C | 0.6% | 19.7hPa | 2.5V | 18:12:15 | 01:50:57 | 00:00:00 | |
| DO2JMG | 2026-09-06 01:09:18 | 51.66870 | 6.49502 | 113° | 15km/h | 27048m | 6.4m/s | -49°C | 0.7% | 19.7hPa | 2.5V | 18:12:15 | 01:50:54 | 00:00:00 | |
| DL1XH-15 | 2026-09-06 01:09:17 | 51.66874 | 6.49493 | 135° | 15km/h | 27035m | 5m/s | -48.9°C | 3.5% | 19.8hPa | 2.5V | 08:30:00 | 01:50:52 | 00:00:00 | |
| DH3RM | 2026-09-06 01:09:17 | 51.66872 | 6.49497 | 132° | 13km/h | 27042m | 6.3m/s | -48.9°C | 1.0% | 19.7hPa | 2.6V | 00:00:00 | 00:00:00 | 00:00:00 | |
| DM0DOS-11 | 2026-09-06 01:09:16 | 51.66880 | 6.49472 | 91° | 15km/h | 27013m | 4.6m/s | -48.7°C | 3.5% | 19.8hPa | 2.6V | 08:30:00 | 01:50:48 | 00:00:00 | |
| AA1-15 | 2026-09-06 01:09:14 | 51.66879 | 6.49478 | 100° | 15km/h | 27018m | 5.6m/s | -48.8°C | 0.6% | 19.8hPa | 2.6V | 18:12:15 | 01:50:49 | 00:00:00 | |
| DL1XH-west | 2026-09-06 01:09:10 | 51.66880 | 6.49462 | 95° | 11km/h | 27002m | 6.2m/s | -48.7°C | 0.6% | 19.9hPa | 2.5V | 18:12:15 | 01:50:46 | 00:00:00 | |
| DF5WG-10 | 2026-09-06 01:09:09 | 51.66880 | 6.49458 | 98° | 15km/h | 26996m | 5.3m/s | -48.6°C | 3.4% | 19.8hPa | 2.5V | 00:00:00 | 01:50:45 | 00:00:00 | |
| DL1XH-15 | 2026-09-06 01:09:07 | 51.66879 | 6.49445 | 66° | 15km/h | 26980m | 7m/s | -48.6°C | 3.4% | 19.9hPa | 2.5V | 08:30:00 | 01:50:42 | 00:00:00 | |
| DO2JMG | 2026-09-06 01:09:07 | 51.66880 | 6.49450 | 73° | 11km/h | 26986m | 6m/s | -48.6°C | 0.5% | 19.9hPa | 2.6V | 18:12:15 | 01:50:43 | 00:00:00 | |
| GOEST3-10 | 2026-09-06 01:09:06 | 51.66879 | 6.49445 | 67° | 16km/h | 26980m | 6.9m/s | -48.6°C | 3.4% | 19.8hPa | 2.6V | 00:00:00 | 01:50:42 | 00:00:00 | |
| DM0DOS-11 | 2026-09-06 01:09:05 | 51.66874 | 6.49420 | 91° | 15km/h | 26956m | 6m/s | -48.6°C | 3.4% | 20hPa | 2.6V | 08:30:00 | 01:50:38 | 00:00:00 | |
| AA1-15 | 2026-09-06 01:09:03 | 51.66874 | 6.49426 | 78° | 15km/h | 26962m | 6.8m/s | -48.6°C | 0.5% | 20hPa | 2.6V | 18:12:15 | 01:50:39 | 00:00:00 | |
| BIOWL1-15 | 2026-09-06 01:09:00 | 51.66875 | 6.49409 | 98° | 15km/h | 26945m | 6.1m/s | -48.6°C | 0.5% | 20hPa | 2.5V | 18:12:15 | 01:50:36 | 00:00:00 | |
| DF5WG-10 | 2026-09-06 01:08:59 | 51.66875 | 6.49403 | 94° | 15km/h | 26939m | 6.2m/s | -48.5°C | 3.4% | 20.0hPa | 2.5V | 00:00:00 | 01:50:35 | 00:00:00 | |
| DL1XH-west | 2026-09-06 01:08:59 | 51.66875 | 6.49403 | 93° | 16km/h | 26939m | 6.2m/s | -48.6°C | 0.5% | 20hPa | 2.5V | 18:12:15 | 01:50:35 | 00:00:00 | |
| DL1XH-15 | 2026-09-06 01:08:57 | 51.66876 | 6.49385 | 105° | 11km/h | 26921m | 6.9m/s | -48.6°C | 3.4% | 20.1hPa | 2.6V | 08:30:00 | 01:50:32 | 00:00:00 | |
| DO2JMG | 2026-09-06 01:08:56 | 51.66876 | 6.49385 | 106° | 11km/h | 26922m | 6.9m/s | -48.6°C | 0.5% | 20.1hPa | 2.6V | 18:12:15 | 01:50:32 | 00:00:00 | |
| GOEST3-10 | 2026-09-06 01:08:56 | 51.66876 | 6.49385 | 106° | 13km/h | 26922m | 6.9m/s | -48.5°C | 3.4% | 20.0hPa | 2.6V | 00:00:00 | 01:50:32 | 08:30:00 | |
| DM0DOS-11 | 2026-09-06 01:08:55 | 51.66877 | 6.49367 | 72° | 16km/h | 26898m | 6.1m/s | -48.7°C | 3.4% | 20.2hPa | 2.5V | 08:30:00 | 01:50:28 | 00:00:00 | |
| AA1-15 | 2026-09-06 01:08:53 | 51.66878 | 6.49373 | 84° | 13km/h | 26905m | 6.7m/s | -48.6°C | 0.5% | 20.1hPa | 2.5V | 18:12:15 | 01:50:29 | 00:00:00 | |
| DL1XH-west | 2026-09-06 01:08:48 | 51.66872 | 6.49340 | 89° | 15km/h | 26876m | 5.6m/s | -48.8°C | 0.6% | 20.2hPa | 2.5V | 18:12:15 | 01:50:24 | 00:00:00 | |
| DL1XH-15 | 2026-09-06 01:08:47 | 51.66872 | 6.49328 | 92° | 16km/h | 26864m | 6.8m/s | -48.8°C | 3.4% | 20.3hPa | 2.6V | 08:30:00 | 01:50:22 | 00:00:00 | |
| DO2JMG | 2026-09-06 01:08:45 | 51.66873 | 6.49321 | 93° | 18km/h | 26858m | 5.9m/s | -48.8°C | 0.5% | 20.3hPa | 2.6V | 18:12:15 | 01:50:21 | 00:00:00 | |
| AA1-15 | 2026-09-06 01:08:42 | 51.66876 | 6.49303 | 128° | 13km/h | 26841m | 6.8m/s | -48.9°C | 0.6% | 20.3hPa | 2.5V | 18:12:15 | 01:50:18 | 00:00:00 | |
| DF8AY | 2026-09-06 01:08:39 | 51.66881 | 6.49293 | 109° | 9km/h | 26824m | 6.5m/s | 0°C | 0% | 20.4hPa | 2.6V | 18:12:15 | 01:50:15 | 00:00:00 | |
| DL1XH-west | 2026-09-06 01:08:38 | 51.66881 | 6.49289 | 72° | 11km/h | 26818m | 6.3m/s | -49°C | 0.6% | 20.4hPa | 2.6V | 18:12:15 | 01:50:14 | 00:00:00 | |
| DL1XH-15 | 2026-09-06 01:08:37 | 51.66877 | 6.49281 | 42° | 15km/h | 26806m | 6m/s | -49.1°C | 3.4% | 20.5hPa | 2.5V | 08:30:00 | 01:50:12 | 00:00:00 | |
| DO2JMG | 2026-09-06 01:08:35 | 51.66874 | 6.49277 | 40° | 15km/h | 26800m | 6.6m/s | -49.1°C | 0.6% | 20.5hPa | 2.5V | 18:12:15 | 01:50:11 | 00:00:00 | |
| AA1-15 | 2026-09-06 01:08:32 | 51.66866 | 6.49262 | 59° | 20km/h | 26783m | 6.8m/s | -49.2°C | 0.6% | 20.5hPa | 2.5V | 18:12:15 | 01:50:08 | 00:00:00 | |
| BIOWL1-15 | 2026-09-06 01:08:31 | 51.66862 | 6.49238 | 96° | 18km/h | 26766m | 5.5m/s | -49.4°C | 0.6% | 20.6hPa | 2.6V | 18:12:15 | 01:50:05 | 00:00:00 | |
| DL1XH-west | 2026-09-06 01:08:27 | 51.66865 | 6.49228 | 139° | 11km/h | 26753m | 5.5m/s | -49.5°C | 0.6% | 20.6hPa | 2.5V | 18:12:15 | 01:50:03 | 00:00:00 | |
| GOEST3-10 | 2026-09-06 01:08:26 | 51.66866 | 6.49226 | 153° | 7km/h | 26748m | 4.7m/s | -49.5°C | 3.5% | 20.6hPa | 2.5V | 00:00:00 | 01:50:02 | 00:00:00 | |
| DM0DOS-11 | 2026-09-06 01:08:25 | 51.66863 | 6.49225 | 350° | 13km/h | 26725m | 6.4m/s | -49.6°C | 3.6% | 20.7hPa | 2.6V | 08:30:00 | 01:49:58 | 00:00:00 | |
| DO2JMG | 2026-09-06 01:08:25 | 51.66867 | 6.49225 | 138° | 2km/h | 26743m | 6.2m/s | -49.5°C | 0.6% | 20.7hPa | 2.5V | 18:12:15 | 01:50:01 | 00:00:00 | |
| AA1-15 | 2026-09-06 01:08:22 | 51.66863 | 6.49225 | 350° | 13km/h | 26725m | 6.4m/s | -49.6°C | 0.6% | 20.7hPa | 2.6V | 18:12:15 | 01:49:58 | 00:00:00 | |
| BIOWL1-15 | 2026-09-06 01:08:21 | 51.66852 | 6.49227 | 6° | 18km/h | 26707m | 5.3m/s | -49.7°C | 0.7% | 20.8hPa | 2.5V | 18:12:15 | 01:49:55 | 00:00:00 | |
| DL1XH-west | 2026-09-06 01:08:17 | 51.66843 | 6.49222 | 30° | 20km/h | 26695m | 5.6m/s | -49.8°C | 0.7% | 20.8hPa | 2.6V | 18:12:15 | 01:49:53 | 00:00:00 | |
| DB0ND-19 | 2026-09-06 01:08:16 | 51.66836 | 6.49214 | 43° | 11km/h | 26685m | 6.1m/s | -49.8°C | 1.1% | 20.8hPa | 2.6V | 00:00:00 | 00:00:00 | 00:00:00 | |
| DM0DOS-11 | 2026-09-06 01:08:15 | 51.66836 | 6.49214 | 241° | 7km/h | 26668m | 5m/s | -49.8°C | 3.7% | 20.9hPa | 2.6V | 08:30:00 | 01:49:48 | 00:00:00 | |
| DO2JMG | 2026-09-06 01:08:15 | 51.66836 | 6.49214 | 44° | 11km/h | 26685m | 6.1m/s | -49.8°C | 0.7% | 20.8hPa | 2.5V | 18:12:15 | 01:49:51 | 00:00:00 | |
| AA1-15 | 2026-09-06 01:08:11 | 51.66836 | 6.49217 | 253° | 7km/h | 26662m | 6.2m/s | -49.7°C | 0.7% | 20.9hPa | 2.6V | 18:12:15 | 01:49:47 | 00:00:00 | |
| BIOWL1-15 | 2026-09-06 01:08:08 | 51.66836 | 6.49222 | 291° | 4km/h | 26646m | 5m/s | -49.7°C | 0.7% | 21hPa | 2.5V | 18:12:15 | 01:49:44 | 00:00:00 | |
| DL1XH-west | 2026-09-06 01:08:06 | 51.66836 | 6.49225 | 266° | 4km/h | 26635m | 5.8m/s | -49.7°C | 0.7% | 21hPa | 2.6V | 18:12:15 | 01:49:42 | 00:00:00 | |
| DO2JMG | 2026-09-06 01:08:04 | 51.66835 | 6.49228 | 328° | 5km/h | 26625m | 4.5m/s | -49.7°C | 0.7% | 21hPa | 2.6V | 18:12:15 | 01:49:40 | 00:00:00 | |
| AA1-15 | 2026-09-06 01:08:01 | 51.66830 | 6.49225 | 48° | 11km/h | 26609m | 5m/s | -49.6°C | 0.7% | 21.1hPa | 2.5V | 18:12:15 | 01:49:37 | 00:00:00 | |
| BIOWL1-15 | 2026-09-06 01:07:58 | 51.66830 | 6.49215 | 160° | 11km/h | 26594m | 5.4m/s | -49.6°C | 0.7% | 21.1hPa | 2.5V | 18:12:15 | 01:49:34 | 00:00:00 | |
| DL3AQ-11 | 2026-09-06 01:07:58 | 51.66833 | 6.49215 | 190° | 13km/h | 26589m | 5.3m/s | -49.6°C | 1.1% | 21.1hPa | 2.5V | 00:00:00 | 00:00:00 | 00:00:00 | |
| DL1XH-15 | 2026-09-06 01:07:57 | 51.66836 | 6.49217 | 209° | 15km/h | 26583m | 5.4m/s | -49.5°C | 3.6% | 21.1hPa | 2.5V | 08:30:00 | 01:49:32 | 00:00:00 | |
| DL1XH-west | 2026-09-06 01:07:55 | 51.66839 | 6.49221 | 229° | 15km/h | 26577m | 5.4m/s | -49.5°C | 0.6% | 21.2hPa | 2.6V | 18:12:15 | 01:49:31 | 00:00:00 | |
| DO2JMG | 2026-09-06 01:07:54 | 51.66841 | 6.49226 | 248° | 13km/h | 26572m | 5.3m/s | -49.5°C | 0.7% | 21.2hPa | 2.6V | 18:12:15 | 01:49:30 | 00:00:00 | |
| AA1-15 | 2026-09-06 01:07:51 | 51.66841 | 6.49232 | 99° | 2km/h | 26557m | 6.1m/s | -49.5°C | 0.6% | 21.2hPa | 2.5V | 18:12:15 | 01:49:27 | 00:00:00 | |
| DF7PN | 2026-09-06 01:07:50 | 51.66843 | 6.49227 | 116° | 11km/h | 26544m | 5.4m/s | -49.5°C | 1.0% | 21.3hPa | 2.5V | 00:00:00 | 00:00:00 | 00:00:00 | |
| DD1CC1-15 | 2026-09-06 01:07:49 | 51.66842 | 6.49230 | 111° | 7km/h | 26551m | 6.3m/s | -49.5°C | 1.0% | 21.3hPa | 2.5V | 00:00:00 | 00:00:00 | 00:00:00 | |
| DL1XH-15 | 2026-09-06 01:07:47 | 51.66847 | 6.49212 | 114° | 11km/h | 26528m | 5.7m/s | -49.6°C | 3.6% | 21.3hPa | 2.5V | 08:30:00 | 01:49:22 | 00:00:00 | |
| BIOWL1-15 | 2026-09-06 01:07:47 | 51.66846 | 6.49217 | 114° | 13km/h | 26534m | 5.5m/s | -49.6°C | 0.7% | 21.3hPa | 2.5V | 18:12:15 | 01:49:23 | 00:00:00 | |
| GOEST3-10 | 2026-09-06 01:07:46 | 51.66847 | 6.49212 | 115° | 11km/h | 26529m | 5.6m/s | -49.6°C | 3.6% | 21.3hPa | 2.6V | 00:00:00 | 01:49:22 | 00:00:00 | |
| DM0DOS-11 | 2026-09-06 01:07:45 | 51.66855 | 6.49203 | 168° | 15km/h | 26507m | 6.8m/s | -49.7°C | 3.6% | 21.4hPa | 2.6V | 08:30:00 | 01:49:18 | 00:00:00 | |
| DO2JMG | 2026-09-06 01:07:44 | 51.66850 | 6.49206 | 142° | 9km/h | 26518m | 4.4m/s | -49.7°C | 0.7% | 21.4hPa | 2.6V | 18:12:15 | 01:49:20 | 00:00:00 | |
| DF8AY | 2026-09-06 01:07:42 | 51.66877 | 6.49209 | 192° | 15km/h | 26479m | 4m/s | 0°C | 0% | 21.5hPa | 2.6V | 18:12:15 | 01:49:13 | 00:00:00 | |
| AA1-15 | 2026-09-06 01:07:40 | 51.66864 | 6.49203 | 189° | 20km/h | 26495m | 5.5m/s | -49.7°C | 0.7% | 21.4hPa | 2.5V | 18:12:15 | 01:49:16 | 00:00:00 | |
| BIOWL1-15 | 2026-09-06 01:07:40 | 51.66881 | 6.49209 | 175° | 15km/h | 26473m | 6.3m/s | -49.7°C | 0.7% | 21.5hPa | 2.5V | 18:12:15 | 01:49:12 | 00:00:00 | |
| DC6BW-12 | 2026-09-06 01:07:39 | 51.66869 | 6.49204 | 200° | 18km/h | 26489m | 6.8m/s | -49.7°C | 1.1% | 21.5hPa | 2.5V | 00:00:00 | 00:00:00 | 00:00:00 | |
| DL1XH-15 | 2026-09-06 01:07:37 | 51.66881 | 6.49209 | 174° | 15km/h | 26473m | 6.3m/s | -49.7°C | 3.6% | 21.5hPa | 2.5V | 08:30:00 | 01:49:12 | 00:00:00 | |
| DB0UT-7 | 2026-09-06 01:07:36 | 51.66881 | 6.49209 | 175° | 11km/h | 26474m | 6.3m/s | -49.6°C | 3.6% | 21.5hPa | 2.5V | 00:00:00 | 00:00:00 | 00:00:00 | |
| DM0DOS-11 | 2026-09-06 01:07:35 | 51.66895 | 6.49191 | 122° | 18km/h | 26450m | 6.5m/s | -49.6°C | 3.6% | 21.6hPa | 2.6V | 08:30:00 | 01:49:08 | 00:00:00 | |
| DO2JMG | 2026-09-06 01:07:33 | 51.66892 | 6.49197 | 129° | 20km/h | 26456m | 5m/s | -49.6°C | 0.6% | 21.6hPa | 2.6V | 18:12:15 | 01:49:09 | 00:00:00 | |
| AA1-15 | 2026-09-06 01:07:30 | 51.66899 | 6.49181 | 127° | 11km/h | 26438m | 5.1m/s | -49.7°C | 0.6% | 21.6hPa | 2.5V | 18:12:15 | 01:49:06 | 00:00:00 | |
| DD1CC1-15 | 2026-09-06 01:07:29 | 51.66899 | 6.49181 | 128° | 11km/h | 26439m | 5.1m/s | -49.7°C | 1.1% | 21.6hPa | 2.5V | 00:00:00 | 00:00:00 | 00:00:00 | |
| DL1XH-15 | 2026-09-06 01:07:27 | 51.66909 | 6.49171 | 164° | 13km/h | 26416m | 4m/s | -49.8°C | 3.6% | 21.7hPa | 2.5V | 08:30:00 | 01:49:02 | 00:00:00 | |
| GOEST3-10 | 2026-09-06 01:07:26 | 51.66909 | 6.49171 | 165° | 7km/h | 26417m | 3.9m/s | -49.7°C | 3.6% | 21.7hPa | 2.5V | 00:00:00 | 01:49:02 | 08:30:00 | |
| DM0DOS-11 | 2026-09-06 01:07:25 | 51.66916 | 6.49173 | 233° | 4km/h | 26394m | 5.1m/s | -49.8°C | 3.6% | 21.8hPa | 2.6V | 08:30:00 | 01:48:58 | 00:00:00 | |
| BIOWL1-15 | 2026-09-06 01:07:25 | 51.66911 | 6.49170 | 177° | 11km/h | 26412m | 5.1m/s | -49.8°C | 0.7% | 21.7hPa | 2.5V | 18:12:15 | 01:49:01 | 00:00:00 | |
| DL1XH-west | 2026-09-06 01:07:23 | 51.66915 | 6.49172 | 230° | 5km/h | 26400m | 6.1m/s | -49.8°C | 0.7% | 21.8hPa | 2.5V | 18:12:15 | 01:48:59 | 00:00:00 | |
| DF8AY | 2026-09-06 01:07:22 | 51.66916 | 6.49173 | 234° | 4km/h | 26394m | 5.1m/s | 0°C | 0% | 21.8hPa | 2.6V | 18:12:15 | 01:48:58 | 00:00:00 | |
| DK5PH-5 | 2026-09-06 01:07:22 | 51.66916 | 6.49173 | 234° | 9km/h | 26395m | 5.1m/s | -49.7°C | 3.6% | 21.7hPa | 2.6V | 00:00:00 | 01:48:58 | 00:00:00 | |
| DL1XH-15 | 2026-09-06 01:07:21 | 51.66927 | 6.49154 | 108° | 16km/h | 26361m | 5.9m/s | -49.8°C | 3.6% | 21.9hPa | 2.6V | 08:30:00 | 01:48:52 | 00:00:00 | |
| AA1-15 | 2026-09-06 01:07:19 | 51.66920 | 6.49171 | 136° | 13km/h | 26378m | 5.8m/s | -49.8°C | 0.7% | 21.8hPa | 2.5V | 18:12:15 | 01:48:55 | 00:00:00 | |
| MET0W-2 | 2026-09-06 01:07:19 | 51.66923 | 6.49166 | 126° | 16km/h | 26372m | 5.2m/s | -49.8°C | 1.1% | 21.8hPa | 2.5V | 00:00:00 | 00:00:00 | 00:00:00 | |
| DC6BW-12 | 2026-09-06 01:07:17 | 51.66923 | 6.49166 | 128° | 16km/h | 26373m | 5.2m/s | -49.8°C | 1.1% | 21.8hPa | 2.5V | 00:00:00 | 00:00:00 | 00:00:00 | |
| GOEST3-10 | 2026-09-06 01:07:16 | 51.66927 | 6.49154 | 109° | 11km/h | 26361m | 5.8m/s | -49.7°C | 3.6% | 21.8hPa | 2.5V | 00:00:00 | 01:48:52 | 00:00:00 | |
| DM0DOS-11 | 2026-09-06 01:07:15 | 51.66930 | 6.49137 | 143° | 7km/h | 26340m | 6.3m/s | -49.7°C | 3.6% | 22hPa | 2.5V | 08:30:00 | 01:48:48 | 00:00:00 | |
| BIOWL1-15 | 2026-09-06 01:07:15 | 51.66928 | 6.49148 | 102° | 13km/h | 26355m | 4.9m/s | -49.7°C | 0.7% | 21.9hPa | 2.6V | 18:12:15 | 01:48:51 | 00:00:00 | |
| DO2JMG | 2026-09-06 01:07:13 | 51.66929 | 6.49140 | 119° | 7km/h | 26346m | 5.7m/s | -49.7°C | 0.7% | 21.9hPa | 2.5V | 18:12:15 | 01:48:49 | 00:00:00 | |
| DL1XH-west | 2026-09-06 01:07:12 | 51.66930 | 6.49137 | 143° | 7km/h | 26340m | 6.3m/s | -49.7°C | 0.7% | 22hPa | 2.5V | 18:12:15 | 01:48:48 | 00:00:00 | |
| AA1-15 | 2026-09-06 01:07:09 | 51.66935 | 6.49133 | 122° | 5km/h | 26324m | 5.2m/s | -49.7°C | 0.7% | 22hPa | 2.5V | 18:12:15 | 01:48:45 | 00:00:00 | |
| DL1XH-15 | 2026-09-06 01:07:08 | 51.66931 | 6.49127 | 27° | 11km/h | 26308m | 5m/s | -49.7°C | 3.6% | 22.1hPa | 2.6V | 08:30:00 | 01:48:42 | 00:00:00 | |
| BIOWL1-15 | 2026-09-06 01:07:05 | 51.66929 | 6.49125 | 30° | 11km/h | 26303m | 5.1m/s | -49.7°C | 0.7% | 22.1hPa | 2.6V | 18:12:15 | 01:48:41 | 00:00:00 | |
| DM0DOS-11 | 2026-09-06 01:07:04 | 51.66927 | 6.49117 | 120° | 11km/h | 26285m | 5.5m/s | -49.8°C | 3.6% | 22.1hPa | 2.5V | 08:30:00 | 01:48:38 | 00:00:00 | |
| DO2JMG | 2026-09-06 01:07:03 | 51.66927 | 6.49121 | 98° | 7km/h | 26291m | 6.1m/s | -49.8°C | 0.7% | 22.1hPa | 2.5V | 18:12:15 | 01:48:39 | 00:00:00 | |
| DL1XH-west | 2026-09-06 01:07:02 | 51.66927 | 6.49117 | 121° | 11km/h | 26285m | 5.5m/s | -49.8°C | 0.7% | 22.1hPa | 2.5V | 18:12:15 | 01:48:38 | 00:00:00 | |
| AA1-15 | 2026-09-06 01:06:58 | 51.66933 | 6.49099 | 112° | 13km/h | 26262m | 5.4m/s | -49.9°C | 0.7% | 22.2hPa | 2.6V | 18:12:15 | 01:48:34 | 00:00:00 | |
| BIOWL1-15 | 2026-09-06 01:06:54 | 51.66939 | 6.49092 | 225° | 5km/h | 26240m | 5m/s | -50°C | 0.7% | 22.3hPa | 2.6V | 18:12:15 | 01:48:30 | 00:00:00 | |
| DM0DOS-11 | 2026-09-06 01:06:54 | 51.66939 | 6.49095 | 312° | 5km/h | 26227m | 5.8m/s | -49.9°C | 3.7% | 22.3hPa | 2.5V | 08:30:00 | 01:48:28 | 00:00:00 | |
| DF8AY | 2026-09-06 01:06:53 | 51.66940 | 6.49094 | 274° | 4km/h | 26234m | 6.6m/s | 0°C | 0% | 22.3hPa | 2.6V | 18:12:15 | 01:48:29 | 00:00:00 | |
| DL1XH-west | 2026-09-06 01:06:52 | 51.66939 | 6.49095 | 313° | 5km/h | 26228m | 5.8m/s | -49.9°C | 0.7% | 22.3hPa | 2.5V | 18:12:15 | 01:48:28 | 00:00:00 | |
| AA1-15 | 2026-09-06 01:06:48 | 51.66939 | 6.49098 | 148° | 5km/h | 26205m | 5.3m/s | -50°C | 0.7% | 22.4hPa | 2.6V | 18:12:15 | 01:48:24 | 00:00:00 | |
| DF7PN | 2026-09-06 01:06:47 | 51.66940 | 6.49096 | 130° | 9km/h | 26199m | 6.4m/s | -50.0°C | 1.1% | 22.4hPa | 2.5V | 00:00:00 | 00:00:00 | 00:00:00 | |
| BIOWL1-15 | 2026-09-06 01:06:43 | 51.66950 | 6.49071 | 5° | 5km/h | 26155m | 7m/s | -50°C | 0.7% | 22.6hPa | 2.5V | 18:12:15 | 01:48:15 | 00:00:00 | |
| DO2JMG | 2026-09-06 01:06:41 | 51.66950 | 6.49072 | 143° | 5km/h | 26166m | 4.3m/s | -50°C | 0.8% | 22.6hPa | 2.5V | 18:12:15 | 01:48:17 | 00:00:00 | |
| AA1-15 | 2026-09-06 01:06:38 | 51.66947 | 6.49071 | 360° | 11km/h | 26149m | 5.7m/s | -50°C | 0.7% | 22.6hPa | 2.6V | 18:12:15 | 01:48:14 | 00:00:00 | |
| DF8AY | 2026-09-06 01:06:35 | 51.66939 | 6.49071 | 349° | 7km/h | 26134m | 5.9m/s | 0°C | 0% | 22.7hPa | 2.5V | 18:12:15 | 01:48:11 | 00:00:00 | |
| DM0DOS-11 | 2026-09-06 01:06:35 | 51.66941 | 6.49073 | 179° | 9km/h | 26117m | 4.6m/s | -49.9°C | 3.7% | 22.7hPa | 2.6V | 08:30:00 | 01:48:08 | 00:00:00 | |
| BIOWL1-15 | 2026-09-06 01:06:31 | 51.66943 | 6.49073 | 168° | 9km/h | 26113m | 5.5m/s | -49.9°C | 0.7% | 22.7hPa | 2.6V | 18:12:15 | 01:48:07 | 00:00:00 | |
| DO2JMG | 2026-09-06 01:06:30 | 51.66945 | 6.49072 | 149° | 5km/h | 26107m | 6.3m/s | -49.9°C | 0.7% | 22.8hPa | 2.5V | 18:12:15 | 01:48:06 | 00:00:00 | |
| DD1CC9-15 | 2026-09-06 01:06:28 | 51.66945 | 6.49070 | 96° | 4km/h | 26101m | 5.6m/s | -49.9°C | 1.2% | 22.8hPa | 2.6V | 00:00:00 | 00:00:00 | 00:00:00 | |
| DL1XH-15 | 2026-09-06 01:06:27 | 51.66943 | 6.49065 | 41° | 5km/h | 26085m | 5.7m/s | -49.9°C | 3.7% | 22.8hPa | 2.6V | 08:30:00 | 01:48:02 | 00:00:00 | |
| AA1-15 | 2026-09-06 01:06:27 | 51.66944 | 6.49067 | 37° | 5km/h | 26091m | 5.1m/s | -49.9°C | 0.7% | 22.8hPa | 2.6V | 18:12:15 | 01:48:03 | 00:00:00 | |
| GOEST3-10 | 2026-09-06 01:06:26 | 51.66943 | 6.49065 | 42° | 5km/h | 26085m | 5.6m/s | -49.8°C | 3.7% | 22.8hPa | 2.6V | 00:00:00 | 01:48:02 | 00:00:00 | |
| DM0DOS-11 | 2026-09-06 01:06:25 | 51.66938 | 6.49060 | 14° | 7km/h | 26063m | 6.6m/s | -49.8°C | 3.7% | 22.9hPa | 2.6V | 08:30:00 | 01:47:58 | 00:00:00 | |
| BIOWL1-15 | 2026-09-06 01:06:22 | 51.66933 | 6.49059 | 351° | 9km/h | 26052m | 4.9m/s | -49.8°C | 0.7% | 23hPa | 2.5V | 18:12:15 | 01:47:56 | 00:00:00 | |
| DL1XH-west | 2026-09-06 01:06:21 | 51.66936 | 6.49059 | 5° | 11km/h | 26057m | 6m/s | -49.8°C | 0.8% | 22.9hPa | 2.6V | 18:12:15 | 01:47:57 | 00:00:00 | |
| DO2JMG | 2026-09-06 01:06:19 | 51.66932 | 6.49060 | 325° | 7km/h | 26047m | 5.2m/s | -49.7°C | 0.8% | 23hPa | 2.5V | 18:12:15 | 01:47:55 | 00:00:00 | |
| DF8AY | 2026-09-06 01:06:18 | 51.66931 | 6.49062 | 279° | 7km/h | 26041m | 6.7m/s | 0°C | 0% | 23hPa | 2.5V | 18:12:15 | 01:47:54 | 00:00:00 | |
| DL1XH-15 | 2026-09-06 01:06:17 | 51.66932 | 6.49070 | 242° | 13km/h | 26030m | 4.5m/s | -49.7°C | 3.7% | 23hPa | 2.6V | 08:30:00 | 01:47:52 | 00:00:00 | |
| AA1-15 | 2026-09-06 01:06:16 | 51.66932 | 6.49070 | 242° | 13km/h | 26030m | 4.5m/s | -49.7°C | 0.7% | 23.1hPa | 2.6V | 18:12:15 | 01:47:52 | 00:00:00 | |
| DL1XH-west | 2026-09-06 01:06:10 | 51.66931 | 6.49093 | 320° | 5km/h | 25996m | 6.2m/s | -49.5°C | 0.7% | 23.2hPa | 2.5V | 18:12:15 | 01:47:46 | 00:00:00 | |
| DO2JMG | 2026-09-06 01:06:08 | 51.66928 | 6.49094 | 352° | 7km/h | 25985m | 5.7m/s | -49.5°C | 0.7% | 23.2hPa | 2.5V | 18:12:15 | 01:47:44 | 00:00:00 | |
| DL1XH-15 | 2026-09-06 01:06:07 | 51.66924 | 6.49096 | 340° | 11km/h | 25973m | 4.8m/s | -49.5°C | 3.6% | 23.2hPa | 2.6V | 08:30:00 | 01:47:42 | 00:00:00 | |
| AA1-15 | 2026-09-06 01:06:06 | 51.66923 | 6.49096 | 341° | 11km/h | 25973m | 4.8m/s | -49.5°C | 0.6% | 23.2hPa | 2.6V | 18:12:15 | 01:47:42 | 00:00:00 | |
| DL1XH-west | 2026-09-06 01:05:59 | 51.66924 | 6.49124 | 276° | 15km/h | 25935m | 5.8m/s | -49.4°C | 0.7% | 23.4hPa | 2.6V | 18:12:15 | 01:47:35 | 00:00:00 | |
| DL3AQ-11 | 2026-09-06 01:05:58 | 51.66922 | 6.49134 | 283° | 11km/h | 25924m | 6.1m/s | -49.4°C | 1.1% | 23.4hPa | 2.5V | 00:00:00 | 00:00:00 | 00:00:00 | |
| DL1XH-15 | 2026-09-06 01:05:57 | 51.66922 | 6.49139 | 280° | 9km/h | 25918m | 6.1m/s | -49.4°C | 3.5% | 23.4hPa | 2.5V | 08:30:00 | 01:47:32 | 00:00:00 | |
| DO2JMG | 2026-09-06 01:05:57 | 51.66922 | 6.49134 | 284° | 11km/h | 25924m | 6.1m/s | -49.4°C | 0.7% | 23.4hPa | 2.5V | 18:12:15 | 01:47:33 | 00:00:00 | |
| AA1-15 | 2026-09-06 01:05:56 | 51.66922 | 6.49139 | 280° | 9km/h | 25918m | 6.1m/s | -49.4°C | 0.6% | 23.4hPa | 2.5V | 18:12:15 | 01:47:32 | 00:00:00 | |
| BIOWL1-15 | 2026-09-06 01:05:49 | 51.66918 | 6.49158 | 232° | 9km/h | 25867m | 6.5m/s | -49.5°C | 0.7% | 23.6hPa | 2.5V | 18:12:15 | 01:47:23 | 00:00:00 | |
| DL1XH-west | 2026-09-06 01:05:48 | 51.66917 | 6.49156 | 225° | 9km/h | 25872m | 5.2m/s | -49.5°C | 0.7% | 23.6hPa | 2.5V | 18:12:15 | 01:47:24 | 00:00:00 | |
| DL1XH-15 | 2026-09-06 01:05:47 | 51.66919 | 6.49161 | 246° | 9km/h | 25860m | 6m/s | -49.5°C | 3.6% | 23.6hPa | 2.5V | 08:30:00 | 01:47:22 | 00:00:00 | |
| DO2JMG | 2026-09-06 01:05:46 | 51.66919 | 6.49161 | 246° | 9km/h | 25860m | 6m/s | -49.5°C | 0.7% | 23.6hPa | 2.5V | 18:12:15 | 01:47:22 | 00:00:00 | |
| AA1-15 | 2026-09-06 01:05:45 | 51.66920 | 6.49165 | 258° | 9km/h | 25855m | 5.3m/s | -49.5°C | 0.7% | 23.7hPa | 2.6V | 18:12:15 | 01:47:21 | 00:00:00 | |
| DL1XH-west | 2026-09-06 01:05:38 | 51.66920 | 6.49203 | 302° | 13km/h | 25814m | 4.8m/s | -49.5°C | 0.7% | 23.8hPa | 2.5V | 18:12:15 | 01:47:14 | 00:00:00 | |
| DL1XH-15 | 2026-09-06 01:05:37 | 51.66918 | 6.49212 | 272° | 11km/h | 25803m | 6.5m/s | -49.5°C | 3.6% | 23.9hPa | 2.5V | 08:30:00 | 01:47:12 | 00:00:00 | |
| BIOWL1-15 | 2026-09-06 01:05:37 | 51.66918 | 6.49207 | 294° | 11km/h | 25809m | 5.3m/s | -49.5°C | 0.7% | 23.8hPa | 2.5V | 18:12:15 | 01:47:13 | 00:00:00 | |
| DO2JMG | 2026-09-06 01:05:36 | 51.66918 | 6.49212 | 273° | 11km/h | 25803m | 6.5m/s | -49.5°C | 0.7% | 23.9hPa | 2.5V | 18:12:15 | 01:47:12 | 00:00:00 | |
| GOEST3-10 | 2026-09-06 01:05:36 | 51.66918 | 6.49212 | 273° | 11km/h | 25803m | 6.4m/s | -49.4°C | 3.6% | 23.8hPa | 2.5V | 00:00:00 | 01:47:12 | 00:00:00 | |
| DM0DOS-11 | 2026-09-06 01:05:35 | 51.66921 | 6.49228 | 253° | 9km/h | 25779m | 5.5m/s | -49.7°C | 3.6% | 23.9hPa | 2.5V | 08:30:00 | 01:47:08 | 00:00:00 | |
| AA1-15 | 2026-09-06 01:05:34 | 51.66919 | 6.49220 | 248° | 11km/h | 25791m | 5.5m/s | -49.5°C | 0.7% | 23.9hPa | 2.6V | 18:12:15 | 01:47:10 | 00:00:00 | |
| DF8AY | 2026-09-06 01:05:31 | 51.66923 | 6.49235 | 238° | 11km/h | 25768m | 6m/s | 0°C | 0% | 24hPa | 2.6V | 18:12:15 | 01:47:06 | 00:00:00 | |
| DO1YAY-16 | 2026-09-06 01:05:31 | 51.66923 | 6.49235 | 238° | 9km/h | 25768m | 6.0m/s | -49.7°C | 1.1% | 24.0hPa | 2.5V | 00:00:00 | 00:00:00 | 00:00:00 | |
| AU51GT2 | 2026-09-06 01:05:29 | 51.66924 | 6.49239 | 232° | 11km/h | 25762m | 6.4m/s | -49.7°C | 1.1% | 24.0hPa | 2.5V | 00:00:00 | 00:00:00 | 00:00:00 | |
| DL1LOL-11 | 2026-09-06 01:05:28 | 51.66924 | 6.49239 | 233° | 13km/h | 25762m | 6.4m/s | -49.7°C | 1.1% | 24.0hPa | 2.5V | 00:00:00 | 00:00:00 | 00:00:00 | |
| DL1XH-15 | 2026-09-06 01:05:27 | 51.66928 | 6.49251 | 278° | 9km/h | 25746m | 6.9m/s | -49.6°C | 3.6% | 24.1hPa | 2.5V | 08:30:00 | 01:47:02 | 00:00:00 | |
| DL1XH-west | 2026-09-06 01:05:27 | 51.66927 | 6.49247 | 253° | 11km/h | 25751m | 4.8m/s | -49.6°C | 0.7% | 24.1hPa | 2.5V | 18:12:15 | 01:47:03 | 00:00:00 | |
| BIOWL1-15 | 2026-09-06 01:05:26 | 51.66928 | 6.49251 | 279° | 9km/h | 25746m | 6.9m/s | -49.6°C | 0.7% | 24.1hPa | 2.5V | 18:12:15 | 01:47:02 | 00:00:00 | |
| DO2JMG | 2026-09-06 01:05:25 | 51.66927 | 6.49254 | 306° | 9km/h | 25739m | 6.4m/s | -49.6°C | 0.7% | 24.1hPa | 2.5V | 18:12:15 | 01:47:01 | 00:00:00 | |
| AA1-15 | 2026-09-06 01:05:24 | 51.66925 | 6.49257 | 318° | 9km/h | 25733m | 5.1m/s | -49.6°C | 0.7% | 24.1hPa | 2.6V | 18:12:15 | 01:47:00 | 00:00:00 | |
| HARRO8 | 2026-09-06 01:05:24 | 51.66924 | 6.49260 | 310° | 7km/h | 25728m | 6.1m/s | -49.6°C | 1.1% | 24.1hPa | 2.5V | 00:00:00 | 00:00:00 | 00:00:00 | |
| DF5WG-10 | 2026-09-06 01:05:22 | 51.66923 | 6.49262 | 276° | 5km/h | 25722m | 6.2m/s | -49.6°C | 3.6% | 24.1hPa | 2.5V | 00:00:00 | 01:46:58 | 00:00:00 | |
| DL1XH-15 | 2026-09-06 01:05:21 | 51.66928 | 6.49266 | 216° | 9km/h | 25687m | 6.7m/s | -49.6°C | 3.6% | 24.2hPa | 2.5V | 08:30:00 | 01:46:52 | 00:00:00 | |
| DF8AY | 2026-09-06 01:05:19 | 51.66925 | 6.49264 | 169° | 4km/h | 25705m | 6.9m/s | 0°C | 0% | 24.2hPa | 2.5V | 18:12:15 | 01:46:55 | 00:00:00 | |
| DL1XH-west | 2026-09-06 01:05:16 | 51.66929 | 6.49266 | 217° | 9km/h | 25687m | 6.7m/s | -49.6°C | 0.7% | 24.2hPa | 2.5V | 18:12:15 | 01:46:52 | 00:00:00 | |
| DO2JMG | 2026-09-06 01:05:15 | 51.66930 | 6.49269 | 233° | 9km/h | 25681m | 5.1m/s | -49.6°C | 0.7% | 24.3hPa | 2.5V | 18:12:15 | 01:46:51 | 00:00:00 | |
| AA1-15 | 2026-09-06 01:05:13 | 51.66931 | 6.49275 | 286° | 7km/h | 25670m | 6.8m/s | -49.7°C | 0.7% | 24.3hPa | 2.6V | 18:12:15 | 01:46:49 | 00:00:00 | |
| DF5WG-10 | 2026-09-06 01:05:12 | 51.66930 | 6.49277 | 316° | 5km/h | 25664m | 5.4m/s | -49.7°C | 3.6% | 24.3hPa | 2.6V | 00:00:00 | 01:46:48 | 08:30:00 | |
| GOEST3-10 | 2026-09-06 01:05:11 | 51.66929 | 6.49279 | 323° | 4km/h | 25659m | 5.1m/s | -49.6°C | 3.6% | 24.3hPa | 2.5V | 00:00:00 | 00:00:00 | 08:30:00 | |
| BIOWL9-15 | 2026-09-06 01:05:10 | 51.66928 | 6.49281 | 315° | 4km/h | 25653m | 6.8m/s | -49.7°C | 1.1% | 24.4hPa | 2.5V | 00:00:00 | 00:00:00 | 00:00:00 | |
| DB0ND-19 | 2026-09-06 01:05:09 | 51.66928 | 6.49282 | 284° | 4km/h | 25646m | 5.7m/s | -49.7°C | 1.1% | 24.4hPa | 2.5V | 00:00:00 | 00:00:00 | 00:00:00 | |
| DL1XH-15 | 2026-09-06 01:05:07 | 51.66927 | 6.49286 | 308° | 4km/h | 25628m | 6.1m/s | -49.7°C | 3.6% | 24.5hPa | 2.5V | 08:30:00 | 01:46:42 | 00:00:00 | |
| DF8AY | 2026-09-06 01:05:07 | 51.66927 | 6.49285 | 288° | 4km/h | 25635m | 6.6m/s | 0°C | 0% | 24.5hPa | 2.6V | 18:12:15 | 01:46:43 | 00:00:00 | |
| BIOWL1-15 | 2026-09-06 01:05:07 | 51.66927 | 6.49287 | 293° | 4km/h | 25623m | 5.3m/s | -49.7°C | 0.7% | 24.5hPa | 2.5V | 18:12:15 | 01:46:41 | 00:00:00 | |
| DL1XH-west | 2026-09-06 01:05:06 | 51.66927 | 6.49286 | 308° | 4km/h | 25628m | 6.1m/s | -49.7°C | 0.7% | 24.5hPa | 2.5V | 18:12:15 | 01:46:42 | 00:00:00 | |
| DO2JMG | 2026-09-06 01:05:04 | 51.66926 | 6.49289 | 257° | 5km/h | 25618m | 5.6m/s | -49.7°C | 0.7% | 24.5hPa | 2.5V | 18:12:15 | 01:46:40 | 00:00:00 | |
| DM0DOS-11 | 2026-09-06 01:05:03 | 51.66928 | 6.49295 | 233° | 11km/h | 25605m | 5.3m/s | -49.8°C | 3.7% | 24.6hPa | 2.6V | 08:30:00 | 01:46:38 | 00:00:00 | |
| AA1-15 | 2026-09-06 01:05:03 | 51.66927 | 6.49292 | 239° | 9km/h | 25611m | 6.9m/s | -49.8°C | 0.7% | 24.6hPa | 2.6V | 18:12:15 | 01:46:39 | 00:00:00 | |
| DL1XH-15 | 2026-09-06 01:05:02 | 51.66928 | 6.49314 | 295° | 9km/h | 25570m | 6.3m/s | -49.9°C | 3.6% | 24.7hPa | 2.5V | 08:30:00 | 01:46:32 | 00:00:00 | |
| DF8AY | 2026-09-06 01:04:57 | 51.66929 | 6.49311 | 305° | 9km/h | 25576m | 6.1m/s | 0°C | 0% | 24.7hPa | 2.6V | 18:12:15 | 01:46:33 | 00:00:00 | |
| BIOWL1-15 | 2026-09-06 01:04:57 | 51.66927 | 6.49317 | 295° | 9km/h | 25564m | 5.4m/s | -49.9°C | 0.8% | 24.7hPa | 2.5V | 18:12:15 | 01:46:31 | 00:00:00 | |
| DL1XH-west | 2026-09-06 01:04:56 | 51.66928 | 6.49314 | 296° | 9km/h | 25570m | 6.3m/s | -49.9°C | 0.7% | 24.7hPa | 2.5V | 18:12:15 | 01:46:32 | 00:00:00 | |
| WPPR-10 | 2026-09-06 01:04:56 | 51.66927 | 6.49317 | 295° | 7km/h | 25564m | 5.4m/s | -49.9°C | 1.1% | 24.7hPa | 2.6V | 00:00:00 | 00:00:00 | 00:00:00 | |
| DM0DOS-11 | 2026-09-06 01:04:55 | 51.66922 | 6.49326 | 323° | 9km/h | 25546m | 5.5m/s | -50°C | 3.7% | 24.8hPa | 2.6V | 08:30:00 | 01:46:28 | 00:00:00 | |
| DO2JMG | 2026-09-06 01:04:54 | 51.66926 | 6.49321 | 306° | 9km/h | 25559m | 5.9m/s | -50°C | 0.7% | 24.8hPa | 2.5V | 18:12:15 | 01:46:30 | 00:00:00 | |
| AA1-15 | 2026-09-06 01:04:52 | 51.66922 | 6.49326 | 324° | 9km/h | 25546m | 5.5m/s | -50°C | 0.7% | 24.8hPa | 2.6V | 18:12:15 | 01:46:28 | 00:00:00 | |
| SONCRA | 2026-09-06 01:04:49 | 51.66920 | 6.49335 | 265° | 7km/h | 25529m | 5.3m/s | -49.9°C | 1.1% | 24.9hPa | 2.5V | 00:00:00 | 00:00:00 | 00:00:00 | |
| BIOWL1-15 | 2026-09-06 01:04:46 | 51.66915 | 6.49356 | 301° | 11km/h | 25501m | 5.3m/s | -49.9°C | 0.7% | 25hPa | 2.5V | 18:12:15 | 01:46:20 | 00:00:00 | |
| DL1XH-west | 2026-09-06 01:04:45 | 51.66916 | 6.49352 | 303° | 13km/h | 25506m | 4.5m/s | -49.9°C | 0.7% | 25hPa | 2.5V | 18:12:15 | 01:46:21 | 00:00:00 | |
| DB0NH | 2026-09-06 01:04:45 | 51.66916 | 6.49352 | 303° | 15km/h | 25506m | 4.4m/s | -49.9°C | 3.6% | 24.9hPa | 2.6V | 00:00:00 | 01:46:21 | 00:00:00 | |
| DM0DOS-11 | 2026-09-06 01:04:43 | 51.66913 | 6.49363 | 265° | 7km/h | 25489m | 6m/s | -49.9°C | 3.7% | 25hPa | 2.6V | 08:30:00 | 01:46:18 | 00:00:00 | |
| DO2JMG | 2026-09-06 01:04:43 | 51.66914 | 6.49360 | 289° | 9km/h | 25495m | 6.3m/s | -49.9°C | 0.8% | 25hPa | 2.6V | 18:12:15 | 01:46:19 | 00:00:00 | |
| AA1-15 | 2026-09-06 01:04:42 | 51.66913 | 6.49363 | 265° | 7km/h | 25489m | 6m/s | -49.9°C | 0.7% | 25hPa | 2.6V | 18:12:15 | 01:46:18 | 00:00:00 | |
| DF8AY | 2026-09-06 01:04:35 | 51.66912 | 6.49387 | 277° | 13km/h | 25449m | 6.6m/s | 0°C | 0% | 25.2hPa | 2.6V | 18:12:15 | 01:46:11 | 00:00:00 | |
| DM0DOS-11 | 2026-09-06 01:04:35 | 51.66913 | 6.49405 | 268° | 15km/h | 25431m | 6.4m/s | -49.7°C | 3.6% | 25.2hPa | 2.5V | 08:30:00 | 01:46:08 | 00:00:00 | |
| DL1XH-west | 2026-09-06 01:04:34 | 51.66912 | 6.49393 | 265° | 15km/h | 25442m | 6.1m/s | -49.8°C | 0.7% | 25.2hPa | 2.5V | 18:12:15 | 01:46:10 | 00:00:00 | |
| DL1ZP-14 | 2026-09-06 01:04:33 | 51.66912 | 6.49399 | 262° | 15km/h | 25437m | 5.3m/s | -49.8°C | 1.1% | 25.2hPa | 2.5V | 00:00:00 | 00:00:00 | 00:00:00 | |
| DO2JMG | 2026-09-06 01:04:33 | 51.66912 | 6.49399 | 263° | 15km/h | 25437m | 5.3m/s | -49.8°C | 0.8% | 25.2hPa | 2.5V | 18:12:15 | 01:46:09 | 00:00:00 | |
| DD1CC8 | 2026-09-06 01:04:32 | 51.66913 | 6.49411 | 277° | 15km/h | 25425m | 6.4m/s | -49.7°C | 1.1% | 25.3hPa | 2.6V | 00:00:00 | 00:00:00 | 00:00:00 | |
| GOEST3-10 | 2026-09-06 01:04:31 | 51.66912 | 6.49411 | 278° | 13km/h | 25425m | 6.4m/s | -49.7°C | 3.7% | 25.2hPa | 2.6V | 00:00:00 | 00:00:00 | 00:00:00 | |
| AA1-15 | 2026-09-06 01:04:31 | 51.66913 | 6.49411 | 278° | 16km/h | 25424m | 6.4m/s | -49.7°C | 0.8% | 25.3hPa | 2.6V | 18:12:15 | 01:46:07 | 00:00:00 | |
| DL1XH-15 | 2026-09-06 01:04:26 | 51.66912 | 6.49436 | 258° | 11km/h | 25395m | 4.9m/s | -49.8°C | 3.6% | 25.4hPa | 2.6V | 08:30:00 | 01:46:02 | 00:00:00 | |
| BIOWL1-15 | 2026-09-06 01:04:23 | 51.66916 | 6.49484 | 253° | 22km/h | 25354m | 5.3m/s | -49.7°C | 0.7% | 25.6hPa | 2.5V | 18:12:15 | 01:45:55 | 00:00:00 | |
| DM0DOS-11 | 2026-09-06 01:04:23 | 51.66912 | 6.49459 | 265° | 18km/h | 25372m | 6.3m/s | -49.7°C | 3.6% | 25.5hPa | 2.5V | 08:30:00 | 01:45:58 | 00:00:00 | |
| DO2JMG | 2026-09-06 01:04:23 | 51.66912 | 6.49452 | 276° | 16km/h | 25378m | 4.7m/s | -49.8°C | 0.7% | 25.4hPa | 2.5V | 18:12:15 | 01:45:59 | 00:00:00 | |
| DF8AY | 2026-09-06 01:04:22 | 51.66912 | 6.49459 | 266° | 18km/h | 25372m | 6.4m/s | 0°C | 0% | 0hPa | 2.5V | 18:12:15 | 01:45:58 | 00:00:00 | |
| AA1-15 | 2026-09-06 01:04:21 | 51.66913 | 6.49467 | 256° | 20km/h | 25366m | 6.7m/s | -49.7°C | 0.7% | 25.5hPa | 2.6V | 18:12:15 | 01:45:57 | 00:00:00 | |
| DL1XH-west | 2026-09-06 01:04:13 | 51.66925 | 6.49529 | 239° | 18km/h | 25318m | 4.7m/s | -49.5°C | 0.7% | 25.7hPa | 2.5V | 18:12:15 | 01:45:49 | 00:00:00 | |
| DO2JMG | 2026-09-06 01:04:12 | 51.66927 | 6.49536 | 244° | 18km/h | 25313m | 5.9m/s | -49.5°C | 0.7% | 25.7hPa | 2.5V | 18:12:15 | 01:45:48 | 00:00:00 | |
| AA1-15 | 2026-09-06 01:04:10 | 51.66930 | 6.49551 | 254° | 20km/h | 25300m | 5.3m/s | -49.6°C | 0.7% | 25.8hPa | 2.6V | 18:12:15 | 01:45:46 | 00:00:00 | |
| DJ2KF-10 | 2026-09-06 01:04:08 | 51.66934 | 6.49566 | 241° | 24km/h | 25289m | 7.0m/s | -49.5°C | 3.6% | 25.7hPa | 2.5V | 00:00:00 | 01:45:44 | 00:00:00 | |
| DB0ND-19 | 2026-09-06 01:04:07 | 51.66937 | 6.49573 | 228° | 18km/h | 25282m | 5.9m/s | -49.6°C | 1.1% | 25.8hPa | 2.5V | 00:00:00 | 00:00:00 | 00:00:00 | |
| DB0UT-7 | 2026-09-06 01:04:06 | 51.66940 | 6.49578 | 223° | 24km/h | 25277m | 4.7m/s | -49.6°C | 3.6% | 25.8hPa | 2.5V | 00:00:00 | 01:45:42 | 00:00:00 | |
| DM0DOS-11 | 2026-09-06 01:04:05 | 51.66951 | 6.49597 | 221° | 16km/h | 25254m | 4.7m/s | -49.7°C | 3.7% | 25.9hPa | 2.5V | 08:30:00 | 01:45:38 | 00:00:00 | |
| BIOWL1-15 | 2026-09-06 01:04:03 | 51.66949 | 6.49592 | 228° | 15km/h | 25259m | 5.1m/s | -49.7°C | 0.8% | 25.9hPa | 2.5V | 18:12:15 | 01:45:39 | 00:00:00 | |
| DL1XH-west | 2026-09-06 01:04:02 | 51.66952 | 6.49597 | 222° | 16km/h | 25254m | 4.7m/s | -49.7°C | 0.7% | 25.9hPa | 2.5V | 18:12:15 | 01:45:38 | 00:00:00 | |
| DO2JMG | 2026-09-06 01:04:01 | 51.66955 | 6.49601 | 215° | 18km/h | 25249m | 6.4m/s | -49.7°C | 0.8% | 25.9hPa | 2.6V | 18:12:15 | 01:45:37 | 00:00:00 | |
| AA1-15 | 2026-09-06 01:04:00 | 51.66959 | 6.49606 | 211° | 22km/h | 25242m | 6.6m/s | -49.8°C | 0.7% | 26hPa | 2.6V | 18:12:15 | 01:45:36 | 00:00:00 | |
| DF8AY | 2026-09-06 01:03:57 | 51.66974 | 6.49622 | 222° | 24km/h | 25224m | 6.5m/s | 0°C | 0% | 0hPa | 2.5V | 18:12:15 | 01:45:33 | 00:00:00 | |
| GOEST3-10 | 2026-09-06 01:03:56 | 51.66978 | 6.49629 | 225° | 22km/h | 25218m | 5.0m/s | -49.7°C | 3.7% | 26.0hPa | 2.6V | 00:00:00 | 01:45:32 | 00:00:00 | |
| DM0DOS-11 | 2026-09-06 01:03:55 | 51.66996 | 6.49648 | 203° | 24km/h | 25195m | 5.6m/s | -49.6°C | 3.6% | 26.1hPa | 2.5V | 08:30:00 | 01:45:28 | 00:00:00 | |
| BIOWL1-15 | 2026-09-06 01:03:53 | 51.66991 | 6.49644 | 206° | 24km/h | 25201m | 6.4m/s | -49.6°C | 0.8% | 26.1hPa | 2.5V | 18:12:15 | 01:45:29 | 00:00:00 | |
| DK5PH-5 | 2026-09-06 01:03:52 | 51.66996 | 6.49648 | 204° | 20km/h | 25195m | 5.5m/s | -49.6°C | 3.6% | 26.1hPa | 2.6V | 00:00:00 | 01:45:28 | 00:00:00 | |
| DL1XH-15 | 2026-09-06 01:03:51 | 51.67029 | 6.49675 | 199° | 29km/h | 25159m | 6.2m/s | -49.4°C | 3.6% | 26.3hPa | 2.6V | 08:30:00 | 01:45:22 | 00:00:00 | |
| DL1XH-west | 2026-09-06 01:03:51 | 51.67002 | 6.49652 | 206° | 24km/h | 25189m | 5.8m/s | -49.6°C | 0.7% | 26.2hPa | 2.6V | 18:12:15 | 01:45:27 | 00:00:00 | |
| DO2JMG | 2026-09-06 01:03:50 | 51.67007 | 6.49656 | 211° | 22km/h | 25183m | 6.8m/s | -49.5°C | 0.7% | 26.2hPa | 2.6V | 18:12:15 | 01:45:26 | 00:00:00 | |
| AA1-15 | 2026-09-06 01:03:49 | 51.67012 | 6.49661 | 214° | 22km/h | 25177m | 5.7m/s | -49.5°C | 0.7% | 26.2hPa | 2.5V | 18:12:15 | 01:45:25 | 00:00:00 | |
| BIOWL1-15 | 2026-09-06 01:03:47 | 51.67051 | 6.49687 | 202° | 29km/h | 25141m | 6.5m/s | -49.5°C | 0.6% | 26.4hPa | 2.5V | 18:12:15 | 01:45:19 | 00:00:00 | |
| GOEST3-10 | 2026-09-06 01:03:46 | 51.67029 | 6.49675 | 200° | 29km/h | 25159m | 6.1m/s | -49.4°C | 3.6% | 26.3hPa | 2.5V | 00:00:00 | 01:45:22 | 00:00:00 | |
| DM0DOS-11 | 2026-09-06 01:03:45 | 51.67057 | 6.49692 | 200° | 27km/h | 25135m | 5m/s | -49.5°C | 3.5% | 26.4hPa | 2.5V | 08:30:00 | 01:45:18 | 00:00:00 | |
| DF8AY | 2026-09-06 01:03:44 | 51.67044 | 6.49683 | 199° | 31km/h | 25147m | 6.5m/s | 0°C | 0% | 0hPa | 2.5V | 18:12:15 | 01:45:20 | 00:00:00 | |
| DL1XH-west | 2026-09-06 01:03:41 | 51.67064 | 6.49695 | 197° | 29km/h | 25130m | 6m/s | -49.6°C | 0.6% | 26.4hPa | 2.6V | 18:12:15 | 01:45:17 | 00:00:00 | |
| DO2JMG | 2026-09-06 01:03:39 | 51.67078 | 6.49701 | 192° | 27km/h | 25117m | 5.2m/s | -49.7°C | 0.7% | 26.5hPa | 2.5V | 18:12:15 | 01:45:15 | 00:00:00 | |
| BIOWL1-15 | 2026-09-06 01:03:32 | 51.67113 | 6.49723 | 194° | 24km/h | 25075m | 5.6m/s | -49.8°C | 0.6% | 26.7hPa | 2.5V | 18:12:15 | 01:45:08 | 00:00:00 | |
| DF5WG-10 | 2026-09-06 01:03:32 | 51.67113 | 6.49723 | 194° | 31km/h | 25075m | 5.5m/s | -49.7°C | 3.5% | 26.6hPa | 2.6V | 00:00:00 | 01:45:08 | 00:00:00 | |
| DL1XH-15 | 2026-09-06 01:03:31 | 51.67156 | 6.49732 | 178° | 37km/h | 25039m | 6.3m/s | -49.7°C | 3.5% | 26.8hPa | 2.6V | 08:30:00 | 01:45:02 | 00:00:00 | |
| DL1XH-west | 2026-09-06 01:03:30 | 51.67125 | 6.49727 | 192° | 26km/h | 25063m | 7m/s | -49.7°C | 0.6% | 26.7hPa | 2.6V | 18:12:15 | 01:45:06 | 00:00:00 | |
| DO2JMG | 2026-09-06 01:03:28 | 51.67139 | 6.49731 | 185° | 31km/h | 25052m | 5m/s | -49.7°C | 0.7% | 26.7hPa | 2.5V | 18:12:15 | 01:45:04 | 00:00:00 | |
| BIOWL1-15 | 2026-09-06 01:03:23 | 51.67194 | 6.49728 | 175° | 22km/h | 25010m | 5.4m/s | -50.1°C | 0.7% | 26.9hPa | 2.6V | 18:12:15 | 01:44:57 | 00:00:00 | |
| DL1XH-west | 2026-09-06 01:03:20 | 51.67200 | 6.49727 | 174° | 24km/h | 25004m | 6.5m/s | -50.1°C | 0.7% | 26.9hPa | 2.6V | 18:12:15 | 01:44:56 | 00:00:00 | |
| DO2JMG | 2026-09-06 01:03:17 | 51.67218 | 6.49725 | 182° | 24km/h | 24988m | 5.7m/s | -50.3°C | 0.7% | 27hPa | 2.5V | 18:12:15 | 01:44:53 | 00:00:00 | |
| DL1XH-15 | 2026-09-06 01:03:16 | 51.67224 | 6.49726 | 187° | 22km/h | 24982m | 6.8m/s | -50.3°C | 3.7% | 27hPa | 2.6V | 08:30:00 | 01:44:52 | 00:00:00 | |
| GOEST3-10 | 2026-09-06 01:03:16 | 51.67224 | 6.49726 | 188° | 24km/h | 24982m | 6.8m/s | -50.3°C | 3.7% | 27.0hPa | 2.5V | 00:00:00 | 01:44:52 | 00:00:00 | |
| DB0NH | 2026-09-06 01:03:15 | 51.67230 | 6.49727 | 191° | 20km/h | 24976m | 5.4m/s | -50.3°C | 3.7% | 27.0hPa | 2.5V | 00:00:00 | 01:44:51 | 00:00:00 | |
| DF5WG-10 | 2026-09-06 01:03:12 | 51.67248 | 6.49729 | 174° | 22km/h | 24959m | 5.9m/s | -50.4°C | 3.7% | 27.1hPa | 2.5V | 00:00:00 | 01:44:48 | 00:00:00 | |
| DL1XH-15 | 2026-09-06 01:03:11 | 51.67281 | 6.49718 | 164° | 20km/h | 24923m | 6.6m/s | -50.3°C | 3.6% | 27.3hPa | 2.6V | 08:30:00 | 01:44:42 | 00:00:00 | |
| BIOWL1-15 | 2026-09-06 01:03:10 | 51.67261 | 6.49725 | 168° | 26km/h | 24946m | 6.6m/s | -50.4°C | 0.8% | 27.2hPa | 2.6V | 18:12:15 | 01:44:46 | 00:00:00 | |
| DL1XH-west | 2026-09-06 01:03:09 | 51.67267 | 6.49723 | 169° | 22km/h | 24940m | 6m/s | -50.4°C | 0.8% | 27.2hPa | 2.5V | 18:12:15 | 01:44:45 | 00:00:00 | |
| AA1-15 | 2026-09-06 01:03:07 | 51.67277 | 6.49720 | 168° | 18km/h | 24929m | 5.2m/s | -50.3°C | 0.7% | 27.2hPa | 2.5V | 18:12:15 | 01:44:43 | 00:00:00 | |
| DO2JMG | 2026-09-06 01:03:06 | 51.67281 | 6.49718 | 165° | 20km/h | 24923m | 6.6m/s | -50.3°C | 0.7% | 27.3hPa | 2.6V | 18:12:15 | 01:44:42 | 00:00:00 | |
| BIOWL1-15 | 2026-09-06 01:03:02 | 51.67309 | 6.49706 | 169° | 16km/h | 24889m | 4.9m/s | -50.4°C | 0.7% | 27.4hPa | 2.6V | 18:12:15 | 01:44:36 | 00:00:00 | |
| DL1XH-west | 2026-09-06 01:02:59 | 51.67313 | 6.49705 | 167° | 18km/h | 24883m | 6.4m/s | -50.5°C | 0.8% | 27.4hPa | 2.5V | 18:12:15 | 01:44:35 | 00:00:00 | |
| AA1-15 | 2026-09-06 01:02:57 | 51.67323 | 6.49700 | 159° | 24km/h | 24872m | 4.5m/s | -50.7°C | 0.8% | 27.5hPa | 2.5V | 18:12:15 | 01:44:33 | 00:00:00 | |
| DL1XH-15 | 2026-09-06 01:02:56 | 51.67329 | 6.49696 | 153° | 22km/h | 24867m | 5m/s | -50.8°C | 3.7% | 27.5hPa | 2.6V | 08:30:00 | 01:44:32 | 00:00:00 | |
| DO2JMG | 2026-09-06 01:02:56 | 51.67329 | 6.49696 | 153° | 22km/h | 24867m | 5m/s | -50.8°C | 0.8% | 27.5hPa | 2.6V | 18:12:15 | 01:44:32 | 00:00:00 | |
| BIOWL1-15 | 2026-09-06 01:02:52 | 51.67353 | 6.49677 | 176° | 22km/h | 24832m | 5.2m/s | -51°C | 0.8% | 27.6hPa | 2.6V | 18:12:15 | 01:44:26 | 00:00:00 | |
| DF5WG-10 | 2026-09-06 01:02:52 | 51.67344 | 6.49680 | 156° | 18km/h | 24844m | 6.0m/s | -50.9°C | 3.8% | 27.6hPa | 2.6V | 00:00:00 | 01:44:28 | 00:00:00 | |
| DL1XH-15 | 2026-09-06 01:02:51 | 51.67374 | 6.49678 | 179° | 16km/h | 24810m | 4.7m/s | -51.1°C | 3.8% | 27.7hPa | 2.6V | 08:30:00 | 01:44:22 | 00:00:00 | |
| DL1XH-west | 2026-09-06 01:02:48 | 51.67365 | 6.49677 | 186° | 22km/h | 24821m | 6.3m/s | -51.1°C | 0.8% | 27.7hPa | 2.5V | 18:12:15 | 01:44:24 | 00:00:00 | |
| AA1-15 | 2026-09-06 01:02:47 | 51.67370 | 6.49678 | 186° | 18km/h | 24815m | 5.6m/s | -51.1°C | 0.9% | 27.7hPa | 2.5V | 18:12:15 | 01:44:23 | 00:00:00 | |
| DO2JMG | 2026-09-06 01:02:45 | 51.67378 | 6.49678 | 173° | 18km/h | 24804m | 6.6m/s | -51.1°C | 0.9% | 27.8hPa | 2.6V | 18:12:15 | 01:44:21 | 00:00:00 | |
| DO3MHA-11 | 2026-09-06 01:02:45 | 51.67378 | 6.49678 | 174° | 16km/h | 24805m | 6.5m/s | -51.1°C | 3.8% | 27.7hPa | 2.6V | 00:00:00 | 01:44:21 | 00:00:00 | |
| DJ3KS | 2026-09-06 01:02:44 | 51.67378 | 6.49678 | 174° | 18km/h | 24805m | 6.6m/s | -51.1°C | 1.2% | 27.8hPa | 2.5V | 00:00:00 | 00:00:00 | 00:00:00 | |
| DD1CC1-15 | 2026-09-06 01:02:43 | 51.67383 | 6.49676 | 168° | 18km/h | 24799m | 5.6m/s | -51.1°C | 1.2% | 27.8hPa | 2.5V | 00:00:00 | 00:00:00 | 00:00:00 | |
| DF5WG-10 | 2026-09-06 01:02:42 | 51.67390 | 6.49673 | 166° | 18km/h | 24789m | 5.6m/s | -51.1°C | 3.8% | 27.8hPa | 2.5V | 00:00:00 | 01:44:18 | 00:00:00 | |
| DL1XH-15 | 2026-09-06 01:02:41 | 51.67411 | 6.49669 | 187° | 22km/h | 24756m | 5.3m/s | -51.2°C | 3.8% | 28hPa | 2.6V | 08:30:00 | 01:44:12 | 00:00:00 | |
| BIOWL1-15 | 2026-09-06 01:02:39 | 51.67398 | 6.49671 | 168° | 11km/h | 24772m | 5.6m/s | -51.2°C | 0.9% | 27.9hPa | 2.5V | 18:12:15 | 01:44:15 | 00:00:00 | |
| DL1XH-west | 2026-09-06 01:02:37 | 51.67406 | 6.49669 | 177° | 20km/h | 24761m | 4.9m/s | -51.2°C | 0.9% | 28hPa | 2.5V | 18:12:15 | 01:44:13 | 00:00:00 | |
| AA1-15 | 2026-09-06 01:02:36 | 51.67411 | 6.49669 | 187° | 22km/h | 24756m | 5.4m/s | -51.3°C | 0.9% | 28hPa | 2.6V | 18:12:15 | 01:44:12 | 00:00:00 | |
| DO2JMG | 2026-09-06 01:02:35 | 51.67417 | 6.49671 | 197° | 24km/h | 24749m | 6.7m/s | -51.3°C | 0.9% | 28hPa | 2.6V | 18:12:15 | 01:44:11 | 00:00:00 | |
| BIOWL9-15 | 2026-09-06 01:02:35 | 51.67423 | 6.49675 | 203° | 26km/h | 24743m | 5.6m/s | -51.4°C | 1.2% | 28.0hPa | 2.6V | 00:00:00 | 00:00:00 | 00:00:00 | |
| DO3MHA-11 | 2026-09-06 01:02:34 | 51.67423 | 6.49675 | 204° | 20km/h | 24744m | 5.6m/s | -51.4°C | 3.9% | 28.0hPa | 2.6V | 00:00:00 | 01:44:10 | 00:00:00 | |
| DF5WG-10 | 2026-09-06 01:02:32 | 51.67436 | 6.49683 | 199° | 20km/h | 24733m | 6.2m/s | -51.4°C | 3.9% | 28.0hPa | 2.6V | 00:00:00 | 01:44:08 | 00:00:00 | |
| DL1XH-15 | 2026-09-06 01:02:31 | 51.67465 | 6.49688 | 163° | 13km/h | 24698m | 5.7m/s | -51.4°C | 3.9% | 28.2hPa | 2.6V | 08:30:00 | 01:44:02 | 00:00:00 | |
| BIOWL1-15 | 2026-09-06 01:02:29 | 51.67454 | 6.49688 | 185° | 20km/h | 24716m | 6.1m/s | -51.4°C | 0.9% | 28.1hPa | 2.5V | 18:12:15 | 01:44:05 | 00:00:00 | |
| DL1XH-west | 2026-09-06 01:02:27 | 51.67462 | 6.49689 | 177° | 13km/h | 24704m | 5.3m/s | -51.4°C | 0.9% | 28.2hPa | 2.5V | 18:12:15 | 01:44:03 | 00:00:00 | |
| AA1-15 | 2026-09-06 01:02:26 | 51.67465 | 6.49688 | 164° | 13km/h | 24698m | 5.7m/s | -51.4°C | 0.9% | 28.2hPa | 2.6V | 18:12:15 | 01:44:02 | 00:00:00 | |
| DO2JMG | 2026-09-06 01:02:25 | 51.67468 | 6.49686 | 153° | 15km/h | 24692m | 6.5m/s | -51.4°C | 0.9% | 28.3hPa | 2.6V | 18:12:15 | 01:44:01 | 00:00:00 | |
| DM0DOS-11 | 2026-09-06 01:02:24 | 51.67482 | 6.49681 | 181° | 24km/h | 24676m | 6.4m/s | -51.5°C | 3.9% | 28.3hPa | 2.5V | 08:30:00 | 01:43:58 | 00:00:00 | |
| BIOWL1-15 | 2026-09-06 01:02:18 | 51.67515 | 6.49686 | 181° | 38km/h | 24653m | 5.5m/s | -51.5°C | 0.9% | 28.4hPa | 2.5V | 18:12:15 | 01:43:54 | 00:00:00 | |
| DL1XH-west | 2026-09-06 01:02:17 | 51.67525 | 6.49686 | 180° | 35km/h | 24649m | 4.5m/s | -51.5°C | 0.9% | 28.4hPa | 2.5V | 18:12:15 | 01:43:53 | 00:00:00 | |
| DL1XH-15 | 2026-09-06 01:02:16 | 51.67533 | 6.49686 | 181° | 31km/h | 24643m | 5.5m/s | -51.5°C | 3.8% | 28.5hPa | 2.6V | 08:30:00 | 01:43:52 | 00:00:00 | |
| AA1-15 | 2026-09-06 01:02:16 | 51.67533 | 6.49686 | 181° | 31km/h | 24643m | 5.5m/s | -51.5°C | 0.9% | 28.5hPa | 2.6V | 18:12:15 | 01:43:52 | 00:00:00 | |
| DO2JMG | 2026-09-06 01:02:15 | 51.67540 | 6.49687 | 184° | 26km/h | 24638m | 6.2m/s | -51.5°C | 0.9% | 28.5hPa | 2.6V | 18:12:15 | 01:43:51 | 00:00:00 | |
| DL3AQ-11 | 2026-09-06 01:02:14 | 51.67550 | 6.49687 | 175° | 15km/h | 24627m | 4.9m/s | -51.6°C | 1.2% | 28.5hPa | 2.5V | 00:00:00 | 00:00:00 | 00:00:00 | |
| DF5WG-10 | 2026-09-06 01:02:12 | 51.67554 | 6.49686 | 165° | 26km/h | 24622m | 5.9m/s | -51.7°C | 3.9% | 28.5hPa | 2.5V | 00:00:00 | 01:43:48 | 08:30:00 | |
| GOEST3-10 | 2026-09-06 01:02:11 | 51.67558 | 6.49684 | 161° | 26km/h | 24616m | 5.4m/s | -51.7°C | 3.9% | 28.6hPa | 2.6V | 00:00:00 | 01:43:47 | 00:00:00 | |
| DL1XH-15 | 2026-09-06 01:02:10 | 51.67597 | 6.49685 | 193° | 27km/h | 24585m | 5.1m/s | -52°C | 4% | 28.7hPa | 2.6V | 08:30:00 | 01:43:41 | 00:00:00 | |
| BIOWL1-15 | 2026-09-06 01:02:08 | 51.67577 | 6.49678 | 181° | 27km/h | 24600m | 5.8m/s | -51.9°C | 1% | 28.7hPa | 2.5V | 18:12:15 | 01:43:44 | 00:00:00 | |
| DL1XH-west | 2026-09-06 01:02:06 | 51.67590 | 6.49682 | 195° | 27km/h | 24589m | 4.8m/s | -52°C | 1% | 28.7hPa | 2.6V | 18:12:15 | 01:43:42 | 00:00:00 | |
| DB0UT-7 | 2026-09-06 01:02:06 | 51.67590 | 6.49682 | 195° | 15km/h | 24590m | 4.8m/s | -51.9°C | 4.0% | 28.7hPa | 2.6V | 00:00:00 | 01:43:42 | 00:00:00 | |
| GOEST3-10 | 2026-09-06 01:02:05 | 51.67597 | 6.49684 | 194° | 27km/h | 24585m | 5.0m/s | -51.9°C | 4.0% | 28.7hPa | 2.6V | 00:00:00 | 00:00:00 | 08:30:00 | |
| DM0DOS-11 | 2026-09-06 01:02:04 | 51.67619 | 6.49687 | 175° | 27km/h | 24568m | 4.7m/s | -51.9°C | 4% | 28.8hPa | 2.5V | 08:30:00 | 01:43:38 | 00:00:00 | |
| DO2JMG | 2026-09-06 01:02:04 | 51.67604 | 6.49687 | 188° | 27km/h | 24579m | 5.8m/s | -52°C | 1% | 28.8hPa | 2.5V | 18:12:15 | 01:43:40 | 00:00:00 | |
| BIOWL1-15 | 2026-09-06 01:01:57 | 51.67644 | 6.49684 | 172° | 11km/h | 24541m | 5.2m/s | -51.8°C | 0.9% | 28.9hPa | 2.5V | 18:12:15 | 01:43:33 | 00:00:00 | |
| DL1XH-15 | 2026-09-06 01:01:56 | 51.67649 | 6.49680 | 150° | 13km/h | 24529m | 6.3m/s | -51.8°C | 4% | 29hPa | 2.6V | 08:30:00 | 01:43:31 | 00:00:00 | |
| DL1XH-west | 2026-09-06 01:01:56 | 51.67646 | 6.49682 | 160° | 11km/h | 24535m | 6m/s | -51.8°C | 0.9% | 29hPa | 2.6V | 18:12:15 | 01:43:32 | 00:00:00 | |
| AA1-15 | 2026-09-06 01:01:55 | 51.67649 | 6.49680 | 151° | 13km/h | 24529m | 6.4m/s | -51.8°C | 1% | 29hPa | 2.6V | 18:12:15 | 01:43:31 | 00:00:00 | |
| DM0DOS-11 | 2026-09-06 01:01:54 | 51.67657 | 6.49673 | 154° | 9km/h | 24513m | 6.5m/s | -51.8°C | 3.9% | 29.1hPa | 2.5V | 08:30:00 | 01:43:28 | 00:00:00 | |
| DO2JMG | 2026-09-06 01:01:53 | 51.67655 | 6.49675 | 147° | 11km/h | 24519m | 5.4m/s | -51.8°C | 0.9% | 29hPa | 2.5V | 18:12:15 | 01:43:29 | 00:00:00 | |
| AU51GT2 | 2026-09-06 01:01:52 | 51.67657 | 6.49673 | 154° | 7km/h | 24513m | 6.5m/s | -51.8°C | 1.2% | 29.1hPa | 2.6V | 00:00:00 | 00:00:00 | 00:00:00 | |
| HTAHTA | 2026-09-06 01:01:51 | 51.67661 | 6.49672 | 176° | 9km/h | 24503m | 4.9m/s | -51.9°C | 1.2% | 29.1hPa | 2.6V | 00:00:00 | 00:00:00 | 00:00:00 | |
| DL1XH-15 | 2026-09-06 01:01:50 | 51.67677 | 6.49674 | 203° | 9km/h | 24475m | 5m/s | -52.1°C | 4% | 29.2hPa | 2.6V | 08:30:00 | 01:43:21 | 00:00:00 | |
| DL1XH-west | 2026-09-06 01:01:46 | 51.67674 | 6.49673 | 196° | 13km/h | 24481m | 5.9m/s | -52.1°C | 0.9% | 29.2hPa | 2.6V | 18:12:15 | 01:43:22 | 00:00:00 | |
| AA1-15 | 2026-09-06 01:01:45 | 51.67677 | 6.49674 | 203° | 9km/h | 24475m | 5m/s | -52.1°C | 1% | 29.2hPa | 2.6V | 18:12:15 | 01:43:21 | 00:00:00 | |
| DM0DOS-11 | 2026-09-06 01:01:44 | 51.67683 | 6.49676 | 169° | 11km/h | 24460m | 5.5m/s | -52.1°C | 4% | 29.3hPa | 2.5V | 08:30:00 | 01:43:18 | 00:00:00 | |
| DO2JMG | 2026-09-06 01:01:43 | 51.67681 | 6.49676 | 183° | 9km/h | 24466m | 5.6m/s | -52.1°C | 1% | 29.3hPa | 2.5V | 18:12:15 | 01:43:19 | 00:00:00 | |
| DF5WG-10 | 2026-09-06 01:01:42 | 51.67683 | 6.49676 | 170° | 7km/h | 24461m | 5.4m/s | -52.1°C | 4.0% | 29.2hPa | 2.5V | 00:00:00 | 01:43:18 | 00:00:00 | |
| DD1CC9-15 | 2026-09-06 01:01:41 | 51.67683 | 6.49676 | 171° | 11km/h | 24461m | 5.5m/s | -52.1°C | 1.3% | 29.3hPa | 2.6V | 00:00:00 | 00:00:00 | 00:00:00 | |
| DO3MHA-11 | 2026-09-06 01:01:40 | 51.67688 | 6.49674 | 164° | 5km/h | 24450m | 5.6m/s | -52.1°C | 4.0% | 29.3hPa | 2.6V | 00:00:00 | 01:43:16 | 00:00:00 | |
| DH3RM | 2026-09-06 01:01:39 | 51.67688 | 6.49674 | 164° | 7km/h | 24450m | 5.6m/s | -52.1°C | 1.3% | 29.3hPa | 2.5V | 00:00:00 | 00:00:00 | 00:00:00 | |
| DJ2KF-10 | 2026-09-06 01:01:38 | 51.67690 | 6.49672 | 147° | 7km/h | 24439m | 4.4m/s | -52.1°C | 4.0% | 29.3hPa | 2.5V | 00:00:00 | 01:43:14 | 00:00:00 | |
| DL1XH-15 | 2026-09-06 01:01:36 | 51.67693 | 6.49666 | 112° | 9km/h | 24423m | 5.2m/s | -52.1°C | 4% | 29.5hPa | 2.6V | 08:30:00 | 01:43:11 | 00:00:00 | |
| BIOWL1-15 | 2026-09-06 01:01:36 | 51.67692 | 6.49669 | 120° | 7km/h | 24429m | 6.3m/s | -52.1°C | 1% | 29.4hPa | 2.6V | 18:12:15 | 01:43:12 | 00:00:00 | |
| DL1XH-west | 2026-09-06 01:01:35 | 51.67693 | 6.49666 | 113° | 9km/h | 24423m | 5.2m/s | -52.1°C | 1% | 29.5hPa | 2.6V | 18:12:15 | 01:43:11 | 00:00:00 | |
| DM0DOS-11 | 2026-09-06 01:01:34 | 51.67694 | 6.49658 | 84° | 4km/h | 24407m | 5.5m/s | -52.2°C | 4% | 29.5hPa | 2.5V | 08:30:00 | 01:43:08 | 00:00:00 | |
| AA1-15 | 2026-09-06 01:01:34 | 51.67694 | 6.49663 | 108° | 9km/h | 24418m | 4.8m/s | -52.2°C | 0.9% | 29.5hPa | 2.5V | 18:12:15 | 01:43:10 | 00:00:00 | |
| DO2JMG | 2026-09-06 01:01:32 | 51.67694 | 6.49658 | 84° | 4km/h | 24407m | 5.5m/s | -52.2°C | 1% | 29.5hPa | 2.5V | 18:12:15 | 01:43:08 | 00:00:00 | |
| BIOWL1-15 | 2026-09-06 01:01:26 | 51.67703 | 6.49648 | 159° | 9km/h | 24375m | 6.4m/s | -52.4°C | 1% | 29.6hPa | 2.6V | 18:12:15 | 01:43:02 | 00:00:00 | |
| DL1XH-west | 2026-09-06 01:01:25 | 51.67704 | 6.49647 | 163° | 7km/h | 24369m | 5.3m/s | -52.4°C | 1% | 29.7hPa | 2.6V | 18:12:15 | 01:43:01 | 00:00:00 | |
| DM0DOS-11 | 2026-09-06 01:01:24 | 51.67710 | 6.49643 | 142° | 11km/h | 24353m | 5.5m/s | -52.5°C | 4.1% | 29.8hPa | 2.5V | 08:30:00 | 01:42:58 | 00:00:00 | |
| AA1-15 | 2026-09-06 01:01:23 | 51.67708 | 6.49645 | 150° | 9km/h | 24359m | 6.2m/s | -52.5°C | 1% | 29.7hPa | 2.5V | 18:12:15 | 01:42:59 | 00:00:00 | |
| DO2JMG | 2026-09-06 01:01:22 | 51.67710 | 6.49643 | 143° | 11km/h | 24353m | 5.5m/s | -52.5°C | 1% | 29.8hPa | 2.5V | 18:12:15 | 01:42:58 | 00:00:00 | |
| DD1CC9-15 | 2026-09-06 01:01:21 | 51.67712 | 6.49640 | 131° | 9km/h | 24349m | 3.8m/s | -52.5°C | 1.3% | 29.8hPa | 2.6V | 00:00:00 | 00:00:00 | 00:00:00 | |
| DO3MHA-11 | 2026-09-06 01:01:20 | 51.67712 | 6.49638 | 114° | 9km/h | 24344m | 5.4m/s | -52.4°C | 4.1% | 29.7hPa | 2.6V | 00:00:00 | 01:42:56 | 00:00:00 | |
| DO9LL-15 | 2026-09-06 01:01:19 | 51.67713 | 6.49635 | 82° | 7km/h | 24339m | 6.3m/s | -52.4°C | 4.1% | 29.8hPa | 2.6V | 00:00:00 | 01:42:55 | 00:00:00 | |
| WPPR-10 | 2026-09-06 01:01:18 | 51.67712 | 6.49633 | 61° | 7km/h | 24332m | 5.0m/s | -52.4°C | 1.3% | 29.9hPa | 2.6V | 00:00:00 | 00:00:00 | 00:00:00 | |
| SMARD9-10 | 2026-09-06 01:01:17 | 51.67712 | 6.49632 | 62° | 7km/h | 24333m | 5.0m/s | -52.4°C | 1.3% | 29.9hPa | 2.6V | 00:00:00 | 00:00:00 | 00:00:00 | |
| DL1XH-15 | 2026-09-06 01:01:16 | 51.67711 | 6.49620 | 96° | 13km/h | 24317m | 4.8m/s | -52.4°C | 4.1% | 29.9hPa | 2.6V | 08:30:00 | 01:42:51 | 00:00:00 | |
| BIOWL1-15 | 2026-09-06 01:01:15 | 51.67716 | 6.49603 | 148° | 7km/h | 24291m | 4.7m/s | -52.3°C | 1% | 30.1hPa | 2.6V | 18:12:15 | 01:42:46 | 00:00:00 | |
| GOEST3-10 | 2026-09-06 01:01:15 | 51.67711 | 6.49620 | 97° | 11km/h | 24317m | 4.8m/s | -52.3°C | 4.1% | 29.9hPa | 2.5V | 00:00:00 | 00:00:00 | 00:00:00 | |
| DM0DOS-11 | 2026-09-06 01:01:14 | 51.67713 | 6.49607 | 119° | 7km/h | 24301m | 5.9m/s | -52.3°C | 4% | 30hPa | 2.5V | 08:30:00 | 01:42:48 | 00:00:00 | |
| DL1XH-west | 2026-09-06 01:01:14 | 51.67711 | 6.49615 | 104° | 13km/h | 24312m | 4.1m/s | -52.4°C | 1% | 30hPa | 2.5V | 18:12:15 | 01:42:50 | 00:00:00 | |
| AA1-15 | 2026-09-06 01:01:12 | 51.67713 | 6.49607 | 119° | 7km/h | 24301m | 5.9m/s | -52.3°C | 1% | 30hPa | 2.5V | 18:12:15 | 01:42:48 | 00:00:00 | |
| DO2JMG | 2026-09-06 01:01:11 | 51.67714 | 6.49604 | 135° | 5km/h | 24296m | 4.9m/s | -52.3°C | 1% | 30hPa | 2.6V | 18:12:15 | 01:42:47 | 00:00:00 | |
| DO3MHA-11 | 2026-09-06 01:01:10 | 51.67716 | 6.49603 | 148° | 5km/h | 24292m | 4.7m/s | -52.3°C | 4.0% | 30.0hPa | 2.6V | 00:00:00 | 01:42:46 | 00:00:00 | |
| DC4HF-4 | 2026-09-06 01:01:08 | 51.67720 | 6.49598 | 151° | 4km/h | 24276m | 4.7m/s | -52.3°C | 1.2% | 30.1hPa | 2.6V | 00:00:00 | 00:00:00 | 00:00:00 | |
| SONCRA | 2026-09-06 01:01:07 | 51.67721 | 6.49598 | 179° | 2km/h | 24270m | 6.3m/s | -52.3°C | 1.2% | 30.1hPa | 2.6V | 00:00:00 | 00:00:00 | 00:00:00 | |
| DF7PN | 2026-09-06 01:01:06 | 51.67721 | 6.49598 | 283° | 2km/h | 24265m | 5.3m/s | -52.3°C | 1.2% | 30.2hPa | 2.6V | 00:00:00 | 00:00:00 | 00:00:00 | |
| GOEST3-10 | 2026-09-06 01:01:05 | 51.67721 | 6.49598 | 284° | 4km/h | 24265m | 5.2m/s | -52.2°C | 4.0% | 30.1hPa | 2.6V | 00:00:00 | 00:00:00 | 00:00:00 | |
| DM0DOS-11 | 2026-09-06 01:01:04 | 51.67721 | 6.49599 | 126° | 4km/h | 24250m | 6m/s | -52.3°C | 3.9% | 30.2hPa | 2.5V | 08:30:00 | 01:42:38 | 00:00:00 | |
| DL1XH-west | 2026-09-06 01:01:04 | 51.67721 | 6.49599 | 299° | 4km/h | 24260m | 3.9m/s | -52.3°C | 1% | 30.2hPa | 2.5V | 18:12:15 | 01:42:40 | 00:00:00 | |
| BIOWL1-15 | 2026-09-06 01:01:03 | 51.67721 | 6.49600 | 316° | 0km/h | 24256m | 4.5m/s | -52.3°C | 0.9% | 30.2hPa | 2.5V | 18:12:15 | 01:42:39 | 00:00:00 | |
| AA1-15 | 2026-09-06 01:01:02 | 51.67721 | 6.49599 | 126° | 4km/h | 24250m | 6m/s | -52.4°C | 0.9% | 30.3hPa | 2.5V | 18:12:15 | 01:42:38 | 00:00:00 | |
| DO2JMG | 2026-09-06 01:01:01 | 51.67722 | 6.49598 | 136° | 7km/h | 24245m | 4.9m/s | -52.4°C | 0.9% | 30.3hPa | 2.6V | 18:12:15 | 01:42:37 | 00:00:00 | |
| BUE01 | 2026-09-06 01:00:59 | 51.67728 | 6.49593 | 183° | 9km/h | 24230m | 5.6m/s | -52.5°C | 1.2% | 30.3hPa | 2.6V | 00:00:00 | 00:00:00 | 00:00:00 | |
| DL1XH-15 | 2026-09-06 01:00:56 | 51.67733 | 6.49598 | 241° | 5km/h | 24215m | 5m/s | -52.6°C | 4% | 30.4hPa | 2.6V | 08:30:00 | 01:42:31 | 00:00:00 | |
| GOEST3-10 | 2026-09-06 01:00:55 | 51.67732 | 6.49598 | 242° | 5km/h | 24216m | 5.0m/s | -52.5°C | 4.0% | 30.3hPa | 2.5V | 00:00:00 | 00:00:00 | 00:00:00 | |
| DM0DOS-11 | 2026-09-06 01:00:54 | 51.67735 | 6.49601 | 195° | 5km/h | 24200m | 4.2m/s | -52.8°C | 4% | 30.5hPa | 2.5V | 08:30:00 | 01:42:28 | 00:00:00 | |
| DL1XH-west | 2026-09-06 01:00:53 | 51.67734 | 6.49601 | 197° | 4km/h | 24204m | 4.8m/s | -52.7°C | 1% | 30.5hPa | 2.5V | 18:12:15 | 01:42:29 | 00:00:00 | |
| DO1YAY-16 | 2026-09-06 01:00:51 | 51.67736 | 6.49602 | 210° | 7km/h | 24196m | 5.1m/s | -52.9°C | 1.3% | 30.5hPa | 2.6V | 00:00:00 | 00:00:00 | 00:00:00 | |
| DL1XH-15 | 2026-09-06 01:00:50 | 51.67750 | 6.49621 | 182° | 13km/h | 24163m | 5.4m/s | -53.2°C | 4.2% | 30.7hPa | 2.6V | 08:30:00 | 01:42:21 | 00:00:00 | |
| DO2JMG | 2026-09-06 01:00:50 | 51.67738 | 6.49605 | 223° | 11km/h | 24190m | 5.4m/s | -52.9°C | 1.1% | 30.5hPa | 2.6V | 18:12:15 | 01:42:26 | 00:00:00 | |
| HTAHTA | 2026-09-06 01:00:49 | 51.67743 | 6.49613 | 231° | 13km/h | 24180m | 4.6m/s | -53.0°C | 1.3% | 30.6hPa | 2.5V | 00:00:00 | 00:00:00 | 00:00:00 | |
| WPPR-10 | 2026-09-06 01:00:47 | 51.67745 | 6.49617 | 223° | 11km/h | 24175m | 5.8m/s | -53.1°C | 1.3% | 30.6hPa | 2.5V | 00:00:00 | 00:00:00 | 00:00:00 | |
| GOEST3-10 | 2026-09-06 01:00:45 | 51.67750 | 6.49621 | 183° | 16km/h | 24164m | 5.4m/s | -53.2°C | 4.2% | 30.6hPa | 2.5V | 00:00:00 | 00:00:00 | 00:00:00 | |
| DM0DOS-11 | 2026-09-06 01:00:43 | 51.67762 | 6.49620 | 184° | 18km/h | 24148m | 5.5m/s | -53.3°C | 4.2% | 30.7hPa | 2.5V | 08:30:00 | 01:42:18 | 00:00:00 | |
| DL1XH-west | 2026-09-06 01:00:43 | 51.67757 | 6.49620 | 177° | 16km/h | 24153m | 4.8m/s | -53.3°C | 1.1% | 30.7hPa | 2.5V | 18:12:15 | 01:42:19 | 00:00:00 | |
| BIOWL1-15 | 2026-09-06 01:00:41 | 51.67766 | 6.49621 | 192° | 18km/h | 24143m | 5m/s | -53.3°C | 1.1% | 30.7hPa | 2.6V | 18:12:15 | 01:42:17 | 00:00:00 | |
| DO2JMG | 2026-09-06 01:00:39 | 51.67775 | 6.49624 | 188° | 16km/h | 24133m | 6.2m/s | -53.3°C | 1.1% | 30.8hPa | 2.5V | 18:12:15 | 01:42:15 | 00:00:00 | |
| DL3AQ-11 | 2026-09-06 01:00:38 | 51.67783 | 6.49624 | 172° | 16km/h | 24122m | 4.1m/s | -53.3°C | 1.3% | 30.9hPa | 2.6V | 00:00:00 | 00:00:00 | 00:00:00 | |
| DB0UT-7 | 2026-09-06 01:00:36 | 51.67787 | 6.49623 | 177° | 20km/h | 24117m | 5.1m/s | -53.3°C | 4.2% | 30.8hPa | 2.6V | 00:00:00 | 00:00:00 | 00:00:00 | |
| GOEST3-10 | 2026-09-06 01:00:35 | 51.67792 | 6.49623 | 180° | 20km/h | 24112m | 6.0m/s | -53.3°C | 4.2% | 30.8hPa | 2.6V | 00:00:00 | 00:00:00 | 08:30:00 | |
| DM0DOS-11 | 2026-09-06 01:00:33 | 51.67807 | 6.49619 | 156° | 20km/h | 24095m | 6.5m/s | -53.4°C | 4.2% | 31hPa | 2.5V | 08:30:00 | 01:42:08 | 00:00:00 | |
| DL1XH-west | 2026-09-06 01:00:32 | 51.67807 | 6.49619 | 156° | 20km/h | 24095m | 6.5m/s | -53.4°C | 1.1% | 31hPa | 2.5V | 18:12:15 | 01:42:08 | 00:00:00 | |
| BIOWL1-15 | 2026-09-06 01:00:31 | 51.67812 | 6.49614 | 145° | 22km/h | 24090m | 5.2m/s | -53.5°C | 1.1% | 31hPa | 2.6V | 18:12:15 | 01:42:07 | 00:00:00 | |
| DO2JMG | 2026-09-06 01:00:29 | 51.67821 | 6.49603 | 143° | 22km/h | 24080m | 4.9m/s | -53.5°C | 1.1% | 31.1hPa | 2.5V | 18:12:15 | 01:42:05 | 00:00:00 | |
| DC6BW-12 | 2026-09-06 01:00:27 | 51.67825 | 6.49598 | 152° | 20km/h | 24075m | 5.8m/s | -53.5°C | 1.4% | 31.1hPa | 2.5V | 00:00:00 | 00:00:00 | 00:00:00 | |
| DJ3KS | 2026-09-06 01:00:26 | 51.67830 | 6.49595 | 162° | 18km/h | 24070m | 5.0m/s | -53.6°C | 1.4% | 31.1hPa | 2.5V | 00:00:00 | 00:00:00 | 00:00:00 | |
| GOEST3-10 | 2026-09-06 01:00:25 | 51.67838 | 6.49591 | 166° | 15km/h | 24060m | 5.3m/s | -53.6°C | 4.3% | 31.1hPa | 2.5V | 00:00:00 | 00:00:00 | 00:00:00 | |
| DM0DOS-11 | 2026-09-06 01:00:23 | 51.67847 | 6.49583 | 137° | 16km/h | 24044m | 3.9m/s | -53.8°C | 4.3% | 31.2hPa | 2.5V | 08:30:00 | 01:41:58 | 00:00:00 | |
| DL1XH-west | 2026-09-06 01:00:21 | 51.67850 | 6.49578 | 143° | 18km/h | 24039m | 5m/s | -53.8°C | 1.2% | 31.3hPa | 2.6V | 18:12:15 | 01:41:57 | 00:00:00 | |
| BIOWL1-15 | 2026-09-06 01:00:20 | 51.67854 | 6.49574 | 148° | 20km/h | 24034m | 5.7m/s | -53.8°C | 1.2% | 31.3hPa | 2.6V | 18:12:15 | 01:41:56 | 00:00:00 | |
| DO2JMG | 2026-09-06 01:00:19 | 51.67858 | 6.49570 | 154° | 22km/h | 24028m | 5.2m/s | -53.9°C | 1.2% | 31.3hPa | 2.5V | 18:12:15 | 01:41:55 | 00:00:00 | |
| DL1XH-west | 2026-09-06 01:00:11 | 51.67892 | 6.49519 | 125° | 20km/h | 23985m | 6.3m/s | -53.9°C | 1.2% | 31.5hPa | 2.6V | 18:12:15 | 01:41:47 | 00:00:00 | |
| BIOWL1-15 | 2026-09-06 01:00:10 | 51.67895 | 6.49512 | 119° | 18km/h | 23980m | 5.2m/s | -53.9°C | 1.2% | 31.6hPa | 2.6V | 18:12:15 | 01:41:46 | 00:00:00 | |
| DO2JMG | 2026-09-06 01:00:08 | 51.67899 | 6.49502 | 138° | 13km/h | 23970m | 5.7m/s | -53.8°C | 1.2% | 31.6hPa | 2.5V | 18:12:15 | 01:41:44 | 00:00:00 | |
| DH3RM | 2026-09-06 01:00:08 | 51.67899 | 6.49502 | 139° | 13km/h | 23970m | 5.7m/s | -53.8°C | 1.4% | 31.6hPa | 2.6V | 00:00:00 | 00:00:00 | 00:00:00 | |
| DB0UT-7 | 2026-09-06 01:00:06 | 51.67906 | 6.49498 | 174° | 18km/h | 23959m | 5.3m/s | -53.7°C | 4.4% | 31.6hPa | 2.6V | 00:00:00 | 01:41:42 | 08:30:00 | |
| GOEST3-10 | 2026-09-06 01:00:05 | 51.67909 | 6.49497 | 175° | 20km/h | 23954m | 5.6m/s | -53.7°C | 4.3% | 31.6hPa | 2.6V | 00:00:00 | 00:00:00 | 00:00:00 | |
| DM0DOS-11 | 2026-09-06 01:00:03 | 51.67923 | 6.49491 | 154° | 22km/h | 23937m | 4.5m/s | -53.7°C | 4.3% | 31.8hPa | 2.5V | 08:30:00 | 01:41:38 | 00:00:00 | |
| AA1-15 | 2026-09-06 01:00:01 | 51.67928 | 6.49486 | 155° | 27km/h | 23932m | 6.4m/s | -53.7°C | 1.1% | 31.8hPa | 2.6V | 18:12:15 | 01:41:37 | 00:00:00 | |
| DL1XH-west | 2026-09-06 01:00:00 | 51.67935 | 6.49482 | 157° | 29km/h | 23926m | 5.9m/s | -53.6°C | 1.1% | 31.8hPa | 2.6V | 18:12:15 | 01:41:36 | 00:00:00 | |
| DO2JMG | 2026-09-06 00:59:57 | 51.67954 | 6.49466 | 146° | 26km/h | 23910m | 6.3m/s | -53.6°C | 1.1% | 31.9hPa | 2.5V | 18:12:15 | 01:41:33 | 00:00:00 | |
| DM0DOS-11 | 2026-09-06 00:59:56 | 51.67970 | 6.49455 | 207° | 13km/h | 23882m | 4.8m/s | -53.9°C | 4.4% | 32hPa | 2.5V | 08:30:00 | 01:41:28 | 00:00:00 | |
| DC4HF-4 | 2026-09-06 00:59:56 | 51.67962 | 6.49456 | 143° | 13km/h | 23899m | 4.9m/s | -53.7°C | 1.3% | 31.9hPa | 2.6V | 00:00:00 | 00:00:00 | 00:00:00 | |
| GOEST3-10 | 2026-09-06 00:59:55 | 51.67962 | 6.49456 | 144° | 13km/h | 23899m | 4.8m/s | -53.7°C | 4.3% | 31.9hPa | 2.6V | 00:00:00 | 00:00:00 | 00:00:00 | |
| DL4BBY-15 | 2026-09-06 00:59:54 | 51.67965 | 6.49454 | 161° | 18km/h | 23894m | 6.0m/s | -53.5°C | 0% | 0hPa | 2.6V | 00:00:00 | 00:00:00 | 00:00:00 | |
| DO3MHA-11 | 2026-09-06 00:59:53 | 51.67967 | 6.49453 | 191° | 20km/h | 23888m | 6.1m/s | -53.8°C | 4.4% | 31.9hPa | 2.6V | 00:00:00 | 01:41:29 | 00:00:00 | |
| DF5WG-10 | 2026-09-06 00:59:52 | 51.67970 | 6.49455 | 208° | 20km/h | 23882m | 4.8m/s | 0°C | 0% | 0hPa | 2.6V | 00:00:00 | 01:41:28 | 00:00:00 | |
| DL1XH-15 | 2026-09-06 00:59:50 | 51.68005 | 6.49467 | 183° | 29km/h | 23846m | 4.6m/s | -53.8°C | 4.3% | 32.2hPa | 2.6V | 08:30:00 | 01:41:21 | 00:00:00 | |
| AA1-15 | 2026-09-06 00:59:50 | 51.67977 | 6.49460 | 205° | 15km/h | 23871m | 6m/s | -53.9°C | 1.2% | 32.1hPa | 2.6V | 18:12:15 | 01:41:26 | 00:00:00 | |
| DL1XH-west | 2026-09-06 00:59:49 | 51.67981 | 6.49463 | 195° | 18km/h | 23866m | 4.6m/s | -53.9°C | 1.2% | 32.1hPa | 2.5V | 18:12:15 | 01:41:25 | 00:00:00 | |
| DO2JMG | 2026-09-06 00:59:46 | 51.67998 | 6.49466 | 186° | 29km/h | 23852m | 6.2m/s | -53.8°C | 1.2% | 32.2hPa | 2.6V | 18:12:15 | 01:41:22 | 00:00:00 | |
| GOEST3-10 | 2026-09-06 00:59:45 | 51.68005 | 6.49467 | 184° | 22km/h | 23847m | 4.5m/s | -53.7°C | 4.3% | 32.2hPa | 2.5V | 00:00:00 | 00:00:00 | 00:00:00 | |
| DM0DOS-11 | 2026-09-06 00:59:43 | 51.68023 | 6.49467 | 173° | 16km/h | 23830m | 5.6m/s | -53.7°C | 4.3% | 32.3hPa | 2.5V | 08:30:00 | 01:41:18 | 00:00:00 | |
| AA1-15 | 2026-09-06 00:59:40 | 51.68030 | 6.49467 | 184° | 13km/h | 23818m | 6.1m/s | -53.7°C | 1.1% | 32.4hPa | 2.6V | 18:12:15 | 01:41:16 | 00:00:00 | |
| DL1XH-west | 2026-09-06 00:59:39 | 51.68033 | 6.49467 | 191° | 13km/h | 23813m | 5.1m/s | -53.7°C | 1.2% | 32.4hPa | 2.5V | 18:12:15 | 01:41:15 | 00:00:00 | |
| DJ2KF-10 | 2026-09-06 00:59:38 | 51.68036 | 6.49468 | 192° | 16km/h | 23808m | 5.5m/s | -53.6°C | 4.2% | 32.4hPa | 2.5V | 00:00:00 | 01:41:14 | 00:00:00 | |
| DL1XH-15 | 2026-09-06 00:59:36 | 51.68048 | 6.49471 | 184° | 20km/h | 23784m | 6.3m/s | -53.9°C | 4.2% | 32.5hPa | 2.5V | 08:30:00 | 01:41:10 | 00:00:00 | |
| DO2JMG | 2026-09-06 00:59:35 | 51.68044 | 6.49470 | 186° | 15km/h | 23791m | 5.7m/s | -53.8°C | 1.1% | 32.5hPa | 2.6V | 18:12:15 | 01:41:11 | 00:00:00 | |
| AA1-15 | 2026-09-06 00:59:29 | 51.68078 | 6.49462 | 156° | 24km/h | 23758m | 5.1m/s | -54.1°C | 1.2% | 32.7hPa | 2.5V | 18:12:15 | 01:41:05 | 00:00:00 | |
| DL1XH-west | 2026-09-06 00:59:28 | 51.68084 | 6.49458 | 156° | 24km/h | 23752m | 6.2m/s | -54.1°C | 1.2% | 32.7hPa | 2.5V | 18:12:15 | 01:41:04 | 00:00:00 | |
| DO2JMG | 2026-09-06 00:59:24 | 51.68096 | 6.49442 | 103° | 11km/h | 23729m | 5.1m/s | -54.2°C | 1.2% | 32.8hPa | 2.5V | 18:12:15 | 01:41:00 | 00:00:00 | |
| AA1-15 | 2026-09-06 00:59:18 | 51.68107 | 6.49430 | 153° | 15km/h | 23699m | 6m/s | -54.5°C | 1.2% | 33hPa | 2.5V | 18:12:15 | 01:40:54 | 00:00:00 | |
| DL1XH-west | 2026-09-06 00:59:17 | 51.68110 | 6.49427 | 141° | 15km/h | 23693m | 5.6m/s | -54.6°C | 1.3% | 33hPa | 2.5V | 18:12:15 | 01:40:53 | 00:00:00 | |
| DO2JMG | 2026-09-06 00:59:13 | 51.68122 | 6.49407 | 128° | 16km/h | 23670m | 4.7m/s | -54.5°C | 1.3% | 33.1hPa | 2.5V | 18:12:15 | 01:40:49 | 00:00:00 | |
| DO3MHA-11 | 2026-09-06 00:59:13 | 51.68122 | 6.49407 | 128° | 18km/h | 23670m | 4.7m/s | -54.5°C | 4.6% | 33.1hPa | 2.5V | 00:00:00 | 01:40:49 | 00:00:00 | |
| HARRO8 | 2026-09-06 00:59:11 | 51.68126 | 6.49395 | 103° | 18km/h | 23659m | 6.4m/s | -54.5°C | 1.4% | 33.2hPa | 2.5V | 00:00:00 | 00:00:00 | 00:00:00 | |
| GOEST3-10 | 2026-09-06 00:59:10 | 51.68127 | 6.49388 | 100° | 16km/h | 23653m | 4.9m/s | -54.4°C | 4.6% | 33.1hPa | 2.5V | 00:00:00 | 01:40:46 | 00:00:00 | |
| DF5WG-10 | 2026-09-06 00:59:09 | 51.68128 | 6.49380 | 105° | 20km/h | 23649m | 4.4m/s | 0°C | 0% | 0hPa | 2.5V | 00:00:00 | 01:40:45 | 08:30:00 | |
| DJ2KF-10 | 2026-09-06 00:59:08 | 51.68130 | 6.49375 | 119° | 15km/h | 23643m | 6.4m/s | -54.3°C | 4.5% | 33.2hPa | 2.5V | 00:00:00 | 01:40:44 | 00:00:00 | |
| AA1-15 | 2026-09-06 00:59:08 | 51.68130 | 6.49375 | 118° | 15km/h | 23643m | 6.4m/s | -54.4°C | 1.3% | 33.3hPa | 2.5V | 18:12:15 | 01:40:44 | 00:00:00 | |
| DM0DOS-11 | 2026-09-06 00:59:07 | 51.68150 | 6.49344 | 134° | 20km/h | 23610m | 5.4m/s | -54.3°C | 4.5% | 33.4hPa | 2.5V | 08:30:00 | 01:40:38 | 00:00:00 | |
| BIOWL1-15 | 2026-09-06 00:59:07 | 51.68132 | 6.49370 | 137° | 15km/h | 23637m | 5.7m/s | -54.4°C | 1.3% | 33.3hPa | 2.5V | 18:12:15 | 01:40:43 | 00:00:00 | |
| DL1XH-west | 2026-09-06 00:59:06 | 51.68135 | 6.49366 | 146° | 16km/h | 23632m | 4.5m/s | -54.3°C | 1.3% | 33.3hPa | 2.6V | 18:12:15 | 01:40:42 | 00:00:00 | |
| DB0NH | 2026-09-06 00:59:06 | 51.68135 | 6.49366 | 146° | 13km/h | 23632m | 4.4m/s | -54.3°C | 4.5% | 33.3hPa | 2.6V | 00:00:00 | 01:40:42 | 00:00:00 | |
| GOEST3-10 | 2026-09-06 00:59:05 | 51.68139 | 6.49362 | 144° | 20km/h | 23627m | 6.1m/s | -54.3°C | 4.5% | 33.3hPa | 2.6V | 00:00:00 | 00:00:00 | 08:30:00 | |
| DL1XH-15 | 2026-09-06 00:59:04 | 51.68160 | 6.49330 | 128° | 15km/h | 23593m | 5.5m/s | -54.3°C | 4.5% | 33.5hPa | 2.5V | 08:30:00 | 01:40:35 | 00:00:00 | |
| DO2JMG | 2026-09-06 00:59:02 | 51.68150 | 6.49344 | 135° | 20km/h | 23610m | 5.4m/s | -54.3°C | 1.2% | 33.4hPa | 2.5V | 18:12:15 | 01:40:38 | 00:00:00 | |
| DF7PN | 2026-09-06 00:59:02 | 51.68154 | 6.49339 | 139° | 18km/h | 23604m | 6.4m/s | -54.3°C | 1.4% | 33.5hPa | 2.5V | 00:00:00 | 00:00:00 | 00:00:00 | |
| BIOWL9-15 | 2026-09-06 00:58:58 | 51.68162 | 6.49320 | 97° | 11km/h | 23581m | 5.2m/s | -54.3°C | 1.4% | 33.6hPa | 2.5V | 00:00:00 | 00:00:00 | 00:00:00 | |
| DM0DOS-11 | 2026-09-06 00:58:57 | 51.68168 | 6.49309 | 163° | 11km/h | 23552m | 6.5m/s | -54.2°C | 4.6% | 33.7hPa | 2.5V | 08:30:00 | 01:40:28 | 00:00:00 | |
| AA1-15 | 2026-09-06 00:58:57 | 51.68162 | 6.49320 | 97° | 11km/h | 23581m | 5.2m/s | -54.3°C | 1.3% | 33.6hPa | 2.5V | 18:12:15 | 01:40:33 | 00:00:00 | |
| DL1XH-west | 2026-09-06 00:58:56 | 51.68163 | 6.49316 | 93° | 9km/h | 23576m | 4.9m/s | -54.3°C | 1.4% | 33.6hPa | 2.6V | 18:12:15 | 01:40:32 | 00:00:00 | |
| DO2JMG | 2026-09-06 00:58:52 | 51.68168 | 6.49309 | 164° | 11km/h | 23552m | 6.5m/s | -54.2°C | 1.3% | 33.7hPa | 2.5V | 18:12:15 | 01:40:28 | 00:00:00 | |
| DL1ZP-14 | 2026-09-06 00:58:51 | 51.68172 | 6.49307 | 162° | 15km/h | 23546m | 5.6m/s | -54.2°C | 1.4% | 33.8hPa | 2.6V | 00:00:00 | 00:00:00 | 00:00:00 | |
| GOEST3-10 | 2026-09-06 00:58:50 | 51.68175 | 6.49306 | 169° | 16km/h | 23541m | 4.6m/s | -54.1°C | 4.6% | 33.7hPa | 2.6V | 00:00:00 | 01:40:26 | 00:00:00 | |
| DO9LL-15 | 2026-09-06 00:58:49 | 51.68180 | 6.49305 | 177° | 16km/h | 23536m | 6.6m/s | -54.1°C | 4.5% | 33.8hPa | 2.5V | 00:00:00 | 01:40:25 | 00:00:00 | |
| DH3RM | 2026-09-06 00:58:48 | 51.68180 | 6.49305 | 177° | 18km/h | 23536m | 6.7m/s | -54.1°C | 1.4% | 33.8hPa | 2.5V | 00:00:00 | 00:00:00 | 00:00:00 | |
| DM0DOS-11 | 2026-09-06 00:58:47 | 51.68201 | 6.49300 | 184° | 7km/h | 23496m | 6.3m/s | -53.8°C | 4.4% | 34hPa | 2.5V | 08:30:00 | 01:40:18 | 00:00:00 | |
| AA1-15 | 2026-09-06 00:58:46 | 51.68192 | 6.49305 | 174° | 15km/h | 23518m | 6.5m/s | -54°C | 1.2% | 33.9hPa | 2.6V | 18:12:15 | 01:40:22 | 00:00:00 | |
| DL1XH-west | 2026-09-06 00:58:45 | 51.68195 | 6.49304 | 159° | 11km/h | 23512m | 5.8m/s | -54°C | 1.2% | 33.9hPa | 2.6V | 18:12:15 | 01:40:21 | 00:00:00 | |
| DO2JMG | 2026-09-06 00:58:42 | 51.68202 | 6.49300 | 184° | 7km/h | 23496m | 6.3m/s | -53.8°C | 1.3% | 34hPa | 2.5V | 18:12:15 | 01:40:18 | 00:00:00 | |
| GOEST3-10 | 2026-09-06 00:58:40 | 51.68206 | 6.49302 | 200° | 13km/h | 23486m | 4.9m/s | -53.7°C | 4.4% | 34.0hPa | 2.5V | 00:00:00 | 01:40:16 | 00:00:00 | |
| DO3MHA-11 | 2026-09-06 00:58:39 | 51.68209 | 6.49304 | 195° | 16km/h | 23481m | 5.9m/s | 0°C | 0% | 0hPa | 2.5V | 00:00:00 | 01:40:15 | 00:00:00 | |
| DL1XH-15 | 2026-09-06 00:58:38 | 51.68227 | 6.49312 | 206° | 18km/h | 23452m | 5m/s | -53.5°C | 4.4% | 34.3hPa | 2.5V | 08:30:00 | 01:40:10 | 00:00:00 | |
| DL3AQ-11 | 2026-09-06 00:58:38 | 51.68215 | 6.49305 | 187° | 13km/h | 23469m | 4.3m/s | -53.6°C | 1.4% | 34.2hPa | 2.5V | 00:00:00 | 00:00:00 | 00:00:00 | |
| DM0DOS-11 | 2026-09-06 00:58:37 | 51.68236 | 6.49317 | 192° | 18km/h | 23440m | 6.7m/s | -53.5°C | 4.4% | 34.3hPa | 2.5V | 08:30:00 | 01:40:08 | 00:00:00 | |
| BIOWL1-15 | 2026-09-06 00:58:36 | 51.68231 | 6.49315 | 201° | 18km/h | 23447m | 5.9m/s | -53.5°C | 1.2% | 34.3hPa | 2.5V | 18:12:15 | 01:40:09 | 00:00:00 | |
| DL1XH-west | 2026-09-06 00:58:35 | 51.68223 | 6.49309 | 205° | 16km/h | 23458m | 6.6m/s | -53.5°C | 1.2% | 34.2hPa | 2.6V | 18:12:15 | 01:40:11 | 00:00:00 | |
| DO2JMG | 2026-09-06 00:58:31 | 51.68240 | 6.49318 | 190° | 18km/h | 23434m | 5.5m/s | -53.5°C | 1.2% | 34.4hPa | 2.6V | 18:12:15 | 01:40:07 | 00:00:00 | |
| DF7PN | 2026-09-06 00:58:31 | 51.68245 | 6.49320 | 192° | 18km/h | 23429m | 5.7m/s | -53.5°C | 1.4% | 34.4hPa | 2.5V | 00:00:00 | 00:00:00 | 00:00:00 | |
| GOEST3-10 | 2026-09-06 00:58:30 | 51.68245 | 6.49320 | 193° | 18km/h | 23429m | 5.6m/s | -53.4°C | 4.4% | 34.3hPa | 2.5V | 00:00:00 | 01:40:06 | 00:00:00 | |
| DO3MHA-11 | 2026-09-06 00:58:29 | 51.68249 | 6.49322 | 201° | 20km/h | 23423m | 6.4m/s | 0°C | 0% | 0hPa | 2.5V | 00:00:00 | 01:40:05 | 00:00:00 | |
| DM0DOS-11 | 2026-09-06 00:58:27 | 51.68282 | 6.49342 | 215° | 20km/h | 23382m | 5.5m/s | -53.4°C | 4.3% | 34.6hPa | 2.5V | 08:30:00 | 01:39:58 | 00:00:00 | |
| AA1-15 | 2026-09-06 00:58:25 | 51.68267 | 6.49333 | 194° | 20km/h | 23399m | 5.7m/s | -53.4°C | 1.2% | 34.5hPa | 2.6V | 18:12:15 | 01:40:01 | 00:00:00 | |
| DL1XH-west | 2026-09-06 00:58:24 | 51.68272 | 6.49335 | 198° | 20km/h | 23394m | 5.1m/s | -53.4°C | 1.2% | 34.6hPa | 2.5V | 18:12:15 | 01:40:00 | 00:00:00 | |
| DO2JMG | 2026-09-06 00:58:20 | 51.68289 | 6.49351 | 213° | 16km/h | 23370m | 7m/s | -53.3°C | 1.2% | 34.7hPa | 2.6V | 18:12:15 | 01:39:56 | 00:00:00 | |
| GOEST3-10 | 2026-09-06 00:58:20 | 51.68289 | 6.49351 | 214° | 18km/h | 23371m | 6.9m/s | -53.3°C | 4.3% | 34.6hPa | 2.6V | 00:00:00 | 01:39:56 | 08:30:00 | |
| DD1CC8 | 2026-09-06 00:58:19 | 51.68293 | 6.49355 | 208° | 15km/h | 23364m | 5.6m/s | -53.3°C | 1.4% | 34.7hPa | 2.6V | 00:00:00 | 00:00:00 | 00:00:00 | |
| DH3RM | 2026-09-06 00:58:18 | 51.68296 | 6.49358 | 210° | 18km/h | 23359m | 5.0m/s | -53.2°C | 1.4% | 34.7hPa | 2.6V | 00:00:00 | 00:00:00 | 00:00:00 | |
| DM0DOS-11 | 2026-09-06 00:58:17 | 51.68339 | 6.49381 | 194° | 29km/h | 23319m | 6.7m/s | -53°C | 4.3% | 35hPa | 2.6V | 08:30:00 | 01:39:47 | 00:00:00 | |
| AA1-15 | 2026-09-06 00:58:14 | 51.68317 | 6.49374 | 194° | 27km/h | 23336m | 6.9m/s | -53.1°C | 1.2% | 34.9hPa | 2.5V | 18:12:15 | 01:39:50 | 00:00:00 | |
| DL1XH-west | 2026-09-06 00:58:13 | 51.68324 | 6.49376 | 189° | 29km/h | 23330m | 5.7m/s | -53.1°C | 1.2% | 34.9hPa | 2.5V | 18:12:15 | 01:39:49 | 00:00:00 | |
| DO2JMG | 2026-09-06 00:58:09 | 51.68352 | 6.49388 | 200° | 24km/h | 23307m | 4.9m/s | -53°C | 1.2% | 35hPa | 2.5V | 18:12:15 | 01:39:45 | 00:00:00 | |
| DO3MHA-11 | 2026-09-06 00:58:09 | 51.68351 | 6.49388 | 201° | 24km/h | 23308m | 4.9m/s | 0°C | 0% | 0hPa | 2.5V | 00:00:00 | 01:39:45 | 00:00:00 | |
| DJ2KF-10 | 2026-09-06 00:58:08 | 51.68357 | 6.49390 | 197° | 31km/h | 23302m | 6.2m/s | -52.9°C | 4.2% | 35.0hPa | 2.5V | 00:00:00 | 01:39:44 | 00:00:00 | |
| DF5WG-10 | 2026-09-06 00:58:07 | 51.68362 | 6.49392 | 192° | 26km/h | 23296m | 5.7m/s | 0°C | 0% | 0hPa | 2.5V | 00:00:00 | 01:39:43 | 00:00:00 | |
| DM0DOS-11 | 2026-09-06 00:58:06 | 51.68391 | 6.49408 | 203° | 27km/h | 23270m | 4.7m/s | -52.9°C | 4.3% | 35.2hPa | 2.5V | 08:30:00 | 01:39:38 | 00:00:00 | |
| AA1-15 | 2026-09-06 00:58:04 | 51.68379 | 6.49400 | 203° | 24km/h | 23280m | 5.9m/s | -52.9°C | 1.1% | 35.2hPa | 2.5V | 18:12:15 | 01:39:40 | 00:00:00 | |
| BIOWL1-15 | 2026-09-06 00:58:03 | 51.68391 | 6.49408 | 203° | 27km/h | 23270m | 4.7m/s | -52.9°C | 1.2% | 35.2hPa | 2.5V | 18:12:15 | 01:39:38 | 00:00:00 | |
| DL1XH-west | 2026-09-06 00:58:03 | 51.68385 | 6.49404 | 206° | 26km/h | 23275m | 5m/s | -52.9°C | 1.1% | 35.2hPa | 2.5V | 18:12:15 | 01:39:39 | 00:00:00 | |
| DO2JMG | 2026-09-06 00:57:59 | 51.68411 | 6.49416 | 183° | 29km/h | 23252m | 5.4m/s | -52.9°C | 1.2% | 35.3hPa | 2.5V | 18:12:15 | 01:39:35 | 00:00:00 | |
| DL3AQ-11 | 2026-09-06 00:57:58 | 51.68435 | 6.49420 | 191° | 31km/h | 23235m | 5.5m/s | -52.8°C | 1.3% | 35.4hPa | 2.5V | 00:00:00 | 00:00:00 | 00:00:00 | |
| DL1XH-15 | 2026-09-06 00:57:57 | 51.68459 | 6.49427 | 186° | 31km/h | 23218m | 5.9m/s | -52.8°C | 4.1% | 35.5hPa | 2.5V | 08:30:00 | 01:39:29 | 00:00:00 | |
| DL1XH-west | 2026-09-06 00:57:53 | 51.68458 | 6.49427 | 187° | 31km/h | 23218m | 5.9m/s | -52.8°C | 1.1% | 35.5hPa | 2.5V | 18:12:15 | 01:39:29 | 00:00:00 | |
| DO2JMG | 2026-09-06 00:57:48 | 51.68497 | 6.49439 | 188° | 33km/h | 23189m | 5.8m/s | -52.7°C | 1.1% | 35.7hPa | 2.5V | 18:12:15 | 01:39:24 | 00:00:00 | |
| DL1XH-15 | 2026-09-06 00:57:47 | 51.68541 | 6.49437 | 179° | 35km/h | 23161m | 5.6m/s | -52.6°C | 4.2% | 35.8hPa | 2.5V | 08:30:00 | 01:39:19 | 00:00:00 | |
| BIOWL1-15 | 2026-09-06 00:57:45 | 51.68541 | 6.49437 | 179° | 35km/h | 23161m | 5.6m/s | -52.6°C | 1.1% | 35.9hPa | 2.5V | 18:12:15 | 01:39:19 | 00:00:00 | |
| DH3RM | 2026-09-06 00:57:45 | 51.68523 | 6.49438 | 176° | 37km/h | 23172m | 5.0m/s | -52.6°C | 1.3% | 35.8hPa | 2.5V | 00:00:00 | 00:00:00 | 00:00:00 | |
| DM0DOS-11 | 2026-09-06 00:57:44 | 51.68549 | 6.49437 | 179° | 35km/h | 23155m | 4.8m/s | -52.6°C | 4.1% | 35.9hPa | 2.5V | 08:30:00 | 01:39:18 | 00:00:00 | |
| DL1XH-west | 2026-09-06 00:57:42 | 51.68550 | 6.49437 | 179° | 35km/h | 23155m | 4.8m/s | -52.6°C | 1.1% | 35.9hPa | 2.5V | 18:12:15 | 01:39:18 | 00:00:00 | |
| DO2JMG | 2026-09-06 00:57:37 | 51.68590 | 6.49427 | 173° | 31km/h | 23128m | 6.4m/s | -52.7°C | 1.1% | 36hPa | 2.5V | 18:12:15 | 01:39:13 | 00:00:00 | |
| BIOWL1-15 | 2026-09-06 00:57:32 | 51.68645 | 6.49422 | 172° | 38km/h | 23095m | 5.2m/s | -52.9°C | 1.1% | 36.2hPa | 2.6V | 18:12:15 | 01:39:07 | 00:00:00 | |
| DM0DOS-11 | 2026-09-06 00:57:32 | 51.68645 | 6.49422 | 172° | 38km/h | 23095m | 5.2m/s | -52.9°C | 4.1% | 36.2hPa | 2.6V | 08:30:00 | 01:39:07 | 00:00:00 | |
| DL1XH-west | 2026-09-06 00:57:32 | 51.68635 | 6.49424 | 172° | 38km/h | 23100m | 4.8m/s | -52.9°C | 1.1% | 36.2hPa | 2.5V | 18:12:15 | 01:39:08 | 00:00:00 | |
| DF5WG-10 | 2026-09-06 00:57:32 | 51.68635 | 6.49424 | 173° | 38km/h | 23100m | 4.7m/s | 0°C | 0% | 0hPa | 2.6V | 00:00:00 | 01:39:08 | 00:00:00 | |
| DC4HF-4 | 2026-09-06 00:57:31 | 51.68645 | 6.49422 | 172° | 37km/h | 23095m | 5.2m/s | -52.9°C | 1.3% | 36.2hPa | 2.6V | 00:00:00 | 00:00:00 | 00:00:00 | |
| DO3MHA-11 | 2026-09-06 00:57:30 | 51.68654 | 6.49420 | 175° | 31km/h | 23089m | 6.5m/s | 0°C | 0% | 0hPa | 2.6V | 00:00:00 | 01:39:06 | 00:00:00 | |
| MET0W-2 | 2026-09-06 00:57:29 | 51.68671 | 6.49417 | 169° | 31km/h | 23078m | 5.4m/s | -52.8°C | 1.3% | 36.3hPa | 2.6V | 00:00:00 | 00:00:00 | 00:00:00 | |
| DF7PN | 2026-09-06 00:57:28 | 51.68671 | 6.49417 | 169° | 31km/h | 23078m | 5.4m/s | -52.8°C | 1.3% | 36.3hPa | 2.6V | 00:00:00 | 00:00:00 | 00:00:00 | |
| DK5PH-5 | 2026-09-06 00:57:27 | 51.68679 | 6.49414 | 164° | 33km/h | 23072m | 6.5m/s | -52.8°C | 4.1% | 36.3hPa | 2.6V | 00:00:00 | 01:39:03 | 00:00:00 | |
| DM0DOS-11 | 2026-09-06 00:57:26 | 51.68720 | 6.49390 | 153° | 29km/h | 23039m | 6.4m/s | -53°C | 4.1% | 36.5hPa | 2.6V | 08:30:00 | 01:38:57 | 00:00:00 | |
| DO2JMG | 2026-09-06 00:57:26 | 51.68686 | 6.49410 | 159° | 29km/h | 23065m | 5.1m/s | -52.8°C | 1.1% | 36.4hPa | 2.6V | 18:12:15 | 01:39:02 | 00:00:00 | |
| AA1-15 | 2026-09-06 00:57:21 | 51.68720 | 6.49390 | 154° | 29km/h | 23039m | 6.4m/s | -53°C | 1.1% | 36.5hPa | 2.6V | 18:12:15 | 01:38:57 | 00:00:00 | |
| BIOWL1-15 | 2026-09-06 00:57:20 | 51.68742 | 6.49369 | 150° | 37km/h | 23022m | 6.3m/s | -53.1°C | 1.1% | 36.6hPa | 2.5V | 18:12:15 | 01:38:54 | 00:00:00 | |
| DO3MHA-11 | 2026-09-06 00:57:20 | 51.68727 | 6.49384 | 148° | 37km/h | 23033m | 5.9m/s | 0°C | 0% | 0hPa | 2.5V | 00:00:00 | 01:38:56 | 00:00:00 | |
| DO9LL-15 | 2026-09-06 00:57:19 | 51.68734 | 6.49377 | 147° | 35km/h | 23028m | 5.1m/s | -53.0°C | 4.2% | 36.5hPa | 2.5V | 00:00:00 | 01:38:55 | 00:00:00 | |
| DL1ZP-14 | 2026-09-06 00:57:18 | 51.68750 | 6.49362 | 153° | 37km/h | 23016m | 5.3m/s | -53.1°C | 1.3% | 36.6hPa | 2.5V | 00:00:00 | 00:00:00 | 00:00:00 | |
| DD1CC8 | 2026-09-06 00:57:17 | 51.68759 | 6.49355 | 153° | 38km/h | 23011m | 4.2m/s | -53.1°C | 1.3% | 36.7hPa | 2.6V | 00:00:00 | 00:00:00 | 00:00:00 | |
| DM0DOS-11 | 2026-09-06 00:57:16 | 51.68803 | 6.49319 | 157° | 35km/h | 22983m | 6m/s | -53.2°C | 4.1% | 36.8hPa | 2.6V | 08:30:00 | 01:38:47 | 00:00:00 | |
| DO2JMG | 2026-09-06 00:57:15 | 51.68768 | 6.49348 | 152° | 40km/h | 23006m | 5.8m/s | -53.1°C | 1.1% | 36.7hPa | 2.6V | 18:12:15 | 01:38:51 | 00:00:00 | |
| DO1YAY-16 | 2026-09-06 00:57:14 | 51.68785 | 6.49332 | 150° | 38km/h | 22995m | 5.1m/s | -53.2°C | 1.3% | 36.8hPa | 2.5V | 00:00:00 | 00:00:00 | 00:00:00 | |
| AU51GT2 | 2026-09-06 00:57:13 | 51.68794 | 6.49325 | 154° | 37km/h | 22989m | 5.7m/s | -53.2°C | 1.3% | 36.8hPa | 2.5V | 00:00:00 | 00:00:00 | 00:00:00 | |
| DL1XH-15 | 2026-09-06 00:57:12 | 51.68824 | 6.49303 | 145° | 29km/h | 22966m | 6.3m/s | -53.4°C | 4.2% | 36.9hPa | 2.5V | 08:30:00 | 01:38:44 | 00:00:00 | |
| AA1-15 | 2026-09-06 00:57:10 | 51.68810 | 6.49314 | 159° | 33km/h | 22978m | 5.2m/s | -53.3°C | 1.1% | 36.9hPa | 2.6V | 18:12:15 | 01:38:46 | 00:00:00 | |
| BIOWL1-15 | 2026-09-06 00:57:09 | 51.68824 | 6.49303 | 146° | 29km/h | 22966m | 6.3m/s | -53.4°C | 1.2% | 36.9hPa | 2.5V | 18:12:15 | 01:38:44 | 00:00:00 | |
| DO2JMG | 2026-09-06 00:57:04 | 51.68844 | 6.49270 | 134° | 29km/h | 22944m | 5.5m/s | -53.3°C | 1.2% | 37.1hPa | 2.5V | 18:12:15 | 01:38:40 | 00:00:00 | |
| DL1XH-15 | 2026-09-06 00:57:02 | 51.68887 | 6.49196 | 140° | 35km/h | 22905m | 5.1m/s | -53.7°C | 4.3% | 37.2hPa | 2.5V | 08:30:00 | 01:38:33 | 00:00:00 | |
| AA1-15 | 2026-09-06 00:57:00 | 51.68867 | 6.49229 | 130° | 40km/h | 22922m | 4.6m/s | -53.5°C | 1.1% | 37.2hPa | 2.6V | 18:12:15 | 01:38:36 | 00:00:00 | |
| SONCRA | 2026-09-06 00:56:58 | 51.68881 | 6.49206 | 136° | 37km/h | 22911m | 6.1m/s | -53.7°C | 1.4% | 37.2hPa | 2.6V | 00:00:00 | 00:00:00 | 00:00:00 | |
| DF7PN | 2026-09-06 00:56:57 | 51.68887 | 6.49196 | 140° | 33km/h | 22906m | 5.1m/s | -53.7°C | 1.4% | 37.3hPa | 2.6V | 00:00:00 | 00:00:00 | 00:00:00 | |
| DM0DOS-11 | 2026-09-06 00:56:56 | 51.68922 | 6.49142 | 139° | 33km/h | 22872m | 5.1m/s | -53.8°C | 4.3% | 37.5hPa | 2.6V | 08:30:00 | 01:38:27 | 00:00:00 | |
| DO2JMG | 2026-09-06 00:56:54 | 51.68905 | 6.49169 | 131° | 31km/h | 22889m | 5.4m/s | -53.7°C | 1.2% | 37.4hPa | 2.5V | 18:12:15 | 01:38:30 | 00:00:00 | |
| DL1XH-west | 2026-09-06 00:56:50 | 51.68928 | 6.49132 | 138° | 37km/h | 22867m | 5.2m/s | -53.9°C | 1.2% | 37.5hPa | 2.6V | 18:12:15 | 01:38:26 | 00:00:00 | |
| AA1-15 | 2026-09-06 00:56:49 | 51.68935 | 6.49122 | 136° | 38km/h | 22861m | 6.5m/s | -54°C | 1.3% | 37.5hPa | 2.5V | 18:12:15 | 01:38:25 | 00:00:00 | |
| BIOWL1-15 | 2026-09-06 00:56:48 | 51.68956 | 6.49092 | 143° | 37km/h | 22845m | 5.9m/s | -54.2°C | 1.3% | 37.6hPa | 2.6V | 18:12:15 | 01:38:22 | 00:00:00 | |
| DL1ZP-14 | 2026-09-06 00:56:47 | 51.68956 | 6.49092 | 143° | 35km/h | 22845m | 5.9m/s | -54.2°C | 1.4% | 37.6hPa | 2.6V | 00:00:00 | 00:00:00 | 00:00:00 | |
| DD1CC8 | 2026-09-06 00:56:46 | 51.68963 | 6.49084 | 144° | 33km/h | 22840m | 4.1m/s | -54.2°C | 1.5% | 37.7hPa | 2.6V | 00:00:00 | 00:00:00 | 00:00:00 | |
| DM0DOS-11 | 2026-09-06 00:56:45 | 51.68984 | 6.49047 | 120° | 27km/h | 22818m | 5.8m/s | -54.2°C | 4.5% | 37.8hPa | 2.6V | 08:30:00 | 01:38:17 | 00:00:00 | |
| DO2JMG | 2026-09-06 00:56:43 | 51.68975 | 6.49067 | 132° | 31km/h | 22830m | 6.5m/s | -54.2°C | 1.3% | 37.7hPa | 2.5V | 18:12:15 | 01:38:19 | 00:00:00 | |
| DL1XH-west | 2026-09-06 00:56:40 | 51.68988 | 6.49037 | 121° | 27km/h | 22812m | 6.1m/s | -54.1°C | 1.3% | 37.9hPa | 2.6V | 18:12:15 | 01:38:16 | 00:00:00 | |
| AA1-15 | 2026-09-06 00:56:39 | 51.68991 | 6.49027 | 122° | 29km/h | 22807m | 4.3m/s | -54.1°C | 1.3% | 37.9hPa | 2.5V | 18:12:15 | 01:38:15 | 00:00:00 | |
| WPPR-10 | 2026-09-06 00:56:39 | 51.68996 | 6.49016 | 121° | 33km/h | 22802m | 4.7m/s | -54.1°C | 1.4% | 37.9hPa | 2.6V | 00:00:00 | 00:00:00 | 00:00:00 | |
| DJ2KF-10 | 2026-09-06 00:56:38 | 51.68995 | 6.49016 | 122° | 35km/h | 22802m | 4.7m/s | -54.0°C | 4.5% | 37.8hPa | 2.6V | 00:00:00 | 01:38:14 | 00:00:00 | |
| HARRO8 | 2026-09-06 00:56:37 | 51.69005 | 6.48990 | 119° | 40km/h | 22791m | 5.4m/s | -54.1°C | 1.4% | 38.0hPa | 2.6V | 00:00:00 | 00:00:00 | 00:00:00 | |
| DB0UT-7 | 2026-09-06 00:56:36 | 51.69005 | 6.48990 | 120° | 37km/h | 22791m | 5.4m/s | -54.0°C | 4.5% | 37.9hPa | 2.6V | 00:00:00 | 00:00:00 | 00:00:00 | |
| DM0DOS-11 | 2026-09-06 00:56:35 | 51.69031 | 6.48927 | 121° | 33km/h | 22764m | 5.8m/s | -54°C | 4.5% | 38.1hPa | 2.6V | 08:30:00 | 01:38:07 | 00:00:00 | |
| BIOWL1-15 | 2026-09-06 00:56:35 | 51.69010 | 6.48975 | 121° | 42km/h | 22786m | 4.7m/s | -54.1°C | 1.3% | 38hPa | 2.6V | 18:12:15 | 01:38:11 | 00:00:00 | |
| DO2JMG | 2026-09-06 00:56:32 | 51.69027 | 6.48938 | 126° | 33km/h | 22769m | 4.4m/s | -54°C | 1.3% | 38.1hPa | 2.5V | 18:12:15 | 01:38:08 | 00:00:00 | |
| DL1XH-west | 2026-09-06 00:56:30 | 51.69035 | 6.48915 | 115° | 31km/h | 22758m | 5.9m/s | -54°C | 1.3% | 38.1hPa | 2.6V | 18:12:15 | 01:38:06 | 00:00:00 | |
| AA1-15 | 2026-09-06 00:56:29 | 51.69038 | 6.48904 | 109° | 29km/h | 22753m | 5.3m/s | -53.9°C | 1.3% | 38.2hPa | 2.5V | 18:12:15 | 01:38:05 | 00:00:00 | |
| DL1XH-15 | 2026-09-06 00:56:26 | 51.69043 | 6.48871 | 104° | 29km/h | 22736m | 4m/s | -53.9°C | 4.5% | 38.2hPa | 2.6V | 08:30:00 | 01:38:02 | 00:00:00 | |
| DM0DOS-11 | 2026-09-06 00:56:25 | 51.69059 | 6.48799 | 118° | 42km/h | 22709m | 5.5m/s | -53.8°C | 4.5% | 38.4hPa | 2.6V | 08:30:00 | 01:37:57 | 00:00:00 | |
| DO2JMG | 2026-09-06 00:56:22 | 51.69055 | 6.48814 | 113° | 42km/h | 22715m | 5.6m/s | -53.8°C | 1.3% | 38.4hPa | 2.5V | 18:12:15 | 01:37:58 | 00:00:00 | |
| DL1XH-west | 2026-09-06 00:56:20 | 51.69064 | 6.48784 | 122° | 42km/h | 22705m | 4.7m/s | -53.7°C | 1.3% | 38.5hPa | 2.6V | 18:12:15 | 01:37:56 | 00:00:00 | |
| AA1-15 | 2026-09-06 00:56:18 | 51.69076 | 6.48754 | 119° | 44km/h | 22694m | 5.6m/s | -53.7°C | 1.3% | 38.5hPa | 2.5V | 18:12:15 | 01:37:54 | 00:00:00 | |
| DL1XH-15 | 2026-09-06 00:56:16 | 51.69085 | 6.48725 | 113° | 37km/h | 22684m | 4.9m/s | -53.6°C | 4.5% | 38.6hPa | 2.6V | 08:30:00 | 01:37:52 | 00:00:00 | |
| DL1ZP-14 | 2026-09-06 00:56:16 | 51.69088 | 6.48712 | 112° | 31km/h | 22678m | 6.3m/s | -53.5°C | 1.4% | 38.6hPa | 2.6V | 00:00:00 | 00:00:00 | 00:00:00 | |
| DM0DOS-11 | 2026-09-06 00:56:15 | 51.69094 | 6.48663 | 94° | 35km/h | 22657m | 5m/s | -53.4°C | 4.4% | 38.7hPa | 2.6V | 08:30:00 | 01:37:47 | 00:00:00 | |
| DO2JMG | 2026-09-06 00:56:12 | 51.69094 | 6.48676 | 96° | 33km/h | 22662m | 6m/s | -53.4°C | 1.3% | 38.7hPa | 2.5V | 18:12:15 | 01:37:48 | 00:00:00 | |
| DL1XH-west | 2026-09-06 00:56:09 | 51.69096 | 6.48633 | 97° | 37km/h | 22647m | 5.8m/s | -53.3°C | 1.2% | 38.8hPa | 2.5V | 18:12:15 | 01:37:45 | 00:00:00 | |
| AA1-15 | 2026-09-06 00:56:07 | 51.69100 | 6.48604 | 107° | 38km/h | 22637m | 4.2m/s | -53.2°C | 1.2% | 38.9hPa | 2.5V | 18:12:15 | 01:37:43 | 00:00:00 | |
| DL1XH-15 | 2026-09-06 00:56:06 | 51.69103 | 6.48589 | 109° | 40km/h | 22632m | 4.5m/s | -53.2°C | 4.3% | 38.9hPa | 2.6V | 08:30:00 | 01:37:42 | 00:00:00 | |
| DO2JMG | 2026-09-06 00:56:02 | 51.69119 | 6.48520 | 109° | 42km/h | 22612m | 4.3m/s | -53°C | 1.2% | 39hPa | 2.5V | 18:12:15 | 01:37:38 | 00:00:00 | |
| BIOWL1-15 | 2026-09-06 00:56:00 | 51.69126 | 6.48472 | 94° | 24km/h | 22591m | 5.5m/s | -52.9°C | 1.1% | 39.1hPa | 2.5V | 18:12:15 | 01:37:34 | 00:00:00 | |
| DL1XH-west | 2026-09-06 00:55:59 | 51.69126 | 6.48482 | 99° | 24km/h | 22596m | 4.2m/s | -53°C | 1.1% | 39.1hPa | 2.5V | 18:12:15 | 01:37:35 | 00:00:00 | |
| AA1-15 | 2026-09-06 00:55:57 | 51.69127 | 6.48462 | 91° | 26km/h | 22585m | 5.9m/s | -52.9°C | 1.2% | 39.2hPa | 2.5V | 18:12:15 | 01:37:33 | 00:00:00 | |
| DL1XH-15 | 2026-09-06 00:55:56 | 51.69127 | 6.48451 | 91° | 29km/h | 22580m | 4.5m/s | -52.9°C | 4.2% | 39.2hPa | 2.6V | 08:30:00 | 01:37:32 | 00:00:00 | |
| DO2JMG | 2026-09-06 00:55:52 | 51.69130 | 6.48400 | 102° | 35km/h | 22560m | 4.6m/s | -52.9°C | 1.1% | 39.3hPa | 2.5V | 18:12:15 | 01:37:28 | 00:00:00 | |
| BIOWL1-15 | 2026-09-06 00:55:48 | 51.69143 | 6.48307 | 111° | 33km/h | 22530m | 5m/s | -52.8°C | 1.2% | 39.5hPa | 2.6V | 18:12:15 | 01:37:22 | 00:00:00 | |
| DL1XH-west | 2026-09-06 00:55:48 | 51.69138 | 6.48337 | 102° | 42km/h | 22541m | 4.3m/s | -52.8°C | 1.1% | 39.5hPa | 2.5V | 18:12:15 | 01:37:24 | 00:00:00 | |
| AA1-15 | 2026-09-06 00:55:47 | 51.69141 | 6.48321 | 106° | 38km/h | 22535m | 6m/s | -52.8°C | 1.1% | 39.5hPa | 2.5V | 18:12:15 | 01:37:23 | 00:00:00 | |
| DO2JMG | 2026-09-06 00:55:42 | 51.69151 | 6.48263 | 90° | 27km/h | 22509m | 5m/s | -52.9°C | 1.2% | 39.6hPa | 2.5V | 18:12:15 | 01:37:18 | 00:00:00 | |
| DL1XH-west | 2026-09-06 00:55:38 | 51.69149 | 6.48217 | 88° | 29km/h | 22489m | 4.8m/s | -52.9°C | 1.1% | 39.8hPa | 2.5V | 18:12:15 | 01:37:14 | 00:00:00 | |
| AA1-15 | 2026-09-06 00:55:36 | 51.69148 | 6.48191 | 87° | 35km/h | 22479m | 6.6m/s | -52.9°C | 1.1% | 39.8hPa | 2.6V | 18:12:15 | 01:37:12 | 00:00:00 | |
| DO2JMG | 2026-09-06 00:55:31 | 51.69147 | 6.48118 | 93° | 27km/h | 22452m | 4.4m/s | -52.8°C | 1.1% | 40hPa | 2.6V | 18:12:15 | 01:37:07 | 00:00:00 | |
| BIOWL1-15 | 2026-09-06 00:55:30 | 51.69146 | 6.48087 | 79° | 26km/h | 22437m | 6m/s | -52.8°C | 1.1% | 40.1hPa | 2.5V | 18:12:15 | 01:37:04 | 00:00:00 | |
| DL1XH-15 | 2026-09-06 00:55:27 | 51.69143 | 6.48067 | 71° | 26km/h | 22425m | 5.6m/s | -52.9°C | 4.1% | 40.2hPa | 2.6V | 08:30:00 | 01:37:02 | 00:00:00 | |
| DL1XH-west | 2026-09-06 00:55:27 | 51.69145 | 6.48077 | 73° | 26km/h | 22431m | 5.3m/s | -52.8°C | 1% | 40.1hPa | 2.5V | 18:12:15 | 01:37:03 | 00:00:00 | |
| AA1-15 | 2026-09-06 00:55:26 | 51.69143 | 6.48067 | 72° | 26km/h | 22426m | 5.6m/s | -52.9°C | 1.1% | 40.2hPa | 2.6V | 18:12:15 | 01:37:02 | 00:00:00 | |
| DM0DOS-11 | 2026-09-06 00:55:24 | 51.69128 | 6.48010 | 62° | 40km/h | 22398m | 5.4m/s | -53.1°C | 4.2% | 40.3hPa | 2.6V | 08:30:00 | 01:36:57 | 00:00:00 | |
| BIOWL1-15 | 2026-09-06 00:55:21 | 51.69094 | 6.47911 | 63° | 29km/h | 22358m | 4m/s | -53.2°C | 1.3% | 40.6hPa | 2.5V | 18:12:15 | 01:36:49 | 00:00:00 | |
| DO2JMG | 2026-09-06 00:55:21 | 51.69128 | 6.48010 | 63° | 40km/h | 22398m | 5.4m/s | -53.1°C | 1.1% | 40.3hPa | 2.6V | 18:12:15 | 01:36:57 | 00:00:00 | |
| DB0ND-19 | 2026-09-06 00:55:20 | 51.69118 | 6.47981 | 60° | 38km/h | 22388m | 5.8m/s | -53.2°C | 1.4% | 40.4hPa | 2.6V | 00:00:00 | 00:00:00 | 00:00:00 | |
| DH3RM | 2026-09-06 00:55:19 | 51.69118 | 6.47981 | 61° | 40km/h | 22388m | 5.8m/s | -53.2°C | 1.4% | 40.4hPa | 2.6V | 00:00:00 | 00:00:00 | 00:00:00 | |
| DL1XH-15 | 2026-09-06 00:55:17 | 51.69106 | 6.47944 | 60° | 31km/h | 22373m | 5.1m/s | -53.2°C | 4.3% | 40.5hPa | 2.6V | 08:30:00 | 01:36:52 | 00:00:00 | |
| DL1XH-west | 2026-09-06 00:55:16 | 51.69105 | 6.47944 | 61° | 33km/h | 22373m | 5.1m/s | -53.2°C | 1.2% | 40.5hPa | 2.6V | 18:12:15 | 01:36:52 | 00:00:00 | |
| GOEST3-10 | 2026-09-06 00:55:15 | 51.69101 | 6.47933 | 62° | 29km/h | 22368m | 5.7m/s | -53.1°C | 4.4% | 40.5hPa | 2.6V | 00:00:00 | 00:00:00 | 00:00:00 | |
| DM0DOS-11 | 2026-09-06 00:55:12 | 51.69088 | 6.47891 | 65° | 26km/h | 22348m | 5.4m/s | -53.3°C | 4.4% | 40.6hPa | 2.6V | 08:30:00 | 01:36:47 | 00:00:00 | |
| DO2JMG | 2026-09-06 00:55:10 | 51.69086 | 6.47881 | 63° | 26km/h | 22344m | 4.4m/s | -53.3°C | 1.3% | 40.7hPa | 2.6V | 18:12:15 | 01:36:46 | 00:00:00 | |
| BIOWL1-15 | 2026-09-06 00:55:07 | 51.69037 | 6.47804 | 32° | 38km/h | 22309m | 4.7m/s | -53.1°C | 1.2% | 40.9hPa | 2.5V | 18:12:15 | 01:36:39 | 00:00:00 | |
| DL1XH-15 | 2026-09-06 00:55:07 | 51.69064 | 6.47836 | 42° | 46km/h | 22324m | 4.1m/s | -53.2°C | 4.3% | 40.8hPa | 2.6V | 08:30:00 | 01:36:42 | 00:00:00 | |
| DL1XH-west | 2026-09-06 00:55:05 | 51.69055 | 6.47824 | 38° | 46km/h | 22319m | 5.5m/s | -53.1°C | 1.2% | 40.8hPa | 2.6V | 18:12:15 | 01:36:41 | 00:00:00 | |
| DL3AQ-11 | 2026-09-06 00:55:05 | 51.69046 | 6.47813 | 34° | 42km/h | 22314m | 5.3m/s | -53.1°C | 1.4% | 40.9hPa | 2.6V | 00:00:00 | 00:00:00 | 00:00:00 | |
| DJ3KS | 2026-09-06 00:55:03 | 51.69046 | 6.47813 | 36° | 42km/h | 22314m | 5.3m/s | -53.1°C | 1.4% | 40.9hPa | 2.6V | 00:00:00 | 00:00:00 | 00:00:00 | |
| DM0DOS-11 | 2026-09-06 00:55:02 | 51.69024 | 6.47789 | 39° | 29km/h | 22299m | 5.2m/s | -53°C | 4.3% | 40.9hPa | 2.6V | 08:30:00 | 01:36:37 | 00:00:00 | |
| DO2JMG | 2026-09-06 00:55:00 | 51.69018 | 6.47781 | 49° | 26km/h | 22294m | 5.5m/s | -53°C | 1.2% | 41hPa | 2.6V | 18:12:15 | 01:36:36 | 00:00:00 | |
| DH3RM | 2026-09-06 00:55:00 | 51.69019 | 6.47781 | 50° | 26km/h | 22294m | 5.5m/s | -52.9°C | 1.4% | 41.0hPa | 2.6V | 00:00:00 | 00:00:00 | 00:00:00 | |
| DL1XH-15 | 2026-09-06 00:54:57 | 51.69009 | 6.47750 | 74° | 16km/h | 22273m | 5.6m/s | -52.9°C | 4.3% | 41.1hPa | 2.6V | 08:30:00 | 01:36:32 | 00:00:00 | |
| DL1XH-west | 2026-09-06 00:54:55 | 51.69008 | 6.47743 | 73° | 18km/h | 22268m | 4.7m/s | -52.9°C | 1.2% | 41.2hPa | 2.6V | 18:12:15 | 01:36:31 | 00:00:00 | |
| BIOWL1-15 | 2026-09-06 00:54:52 | 51.69001 | 6.47719 | 59° | 26km/h | 22253m | 3.6m/s | -52.8°C | 1.1% | 41.3hPa | 2.5V | 18:12:15 | 01:36:28 | 00:00:00 | |
| DM0DOS-11 | 2026-09-06 00:54:52 | 51.68998 | 6.47710 | 51° | 26km/h | 22249m | 5.4m/s | -52.7°C | 4.2% | 41.3hPa | 2.6V | 08:30:00 | 01:36:27 | 00:00:00 | |
| DO2JMG | 2026-09-06 00:54:50 | 51.68993 | 6.47702 | 43° | 26km/h | 22243m | 5.8m/s | -52.7°C | 1.1% | 41.3hPa | 2.6V | 18:12:15 | 01:36:26 | 00:00:00 | |
| DB0ND-19 | 2026-09-06 00:54:49 | 51.68982 | 6.47689 | 34° | 27km/h | 22233m | 4.7m/s | -52.6°C | 1.4% | 41.4hPa | 2.5V | 00:00:00 | 00:00:00 | 00:00:00 | |
| BIOWL1-15 | 2026-09-06 00:54:48 | 51.68943 | 6.47628 | 81° | 20km/h | 22187m | 6.4m/s | -52.4°C | 1.1% | 41.7hPa | 2.5V | 18:12:15 | 01:36:15 | 00:00:00 | |
| DL1XH-15 | 2026-09-06 00:54:47 | 51.68970 | 6.47674 | 39° | 31km/h | 22223m | 5.1m/s | -52.6°C | 4.2% | 41.5hPa | 2.6V | 08:30:00 | 01:36:22 | 00:00:00 | |
| DM0DOS-11 | 2026-09-06 00:54:46 | 51.68946 | 6.47641 | 52° | 16km/h | 22198m | 4.1m/s | -52.4°C | 4.1% | 41.6hPa | 2.6V | 08:30:00 | 01:36:17 | 00:00:00 | |
| DL1XH-west | 2026-09-06 00:54:44 | 51.68958 | 6.47658 | 40° | 27km/h | 22213m | 4.7m/s | -52.5°C | 1.1% | 41.5hPa | 2.5V | 18:12:15 | 01:36:20 | 00:00:00 | |
| DO2JMG | 2026-09-06 00:54:40 | 51.68944 | 6.47636 | 71° | 16km/h | 22193m | 5.4m/s | -52.4°C | 1.1% | 41.6hPa | 2.6V | 18:12:15 | 01:36:16 | 00:00:00 | |
| DL1XH-15 | 2026-09-06 00:54:36 | 51.68941 | 6.47602 | 77° | 20km/h | 22172m | 5.8m/s | -52.4°C | 4.1% | 41.8hPa | 2.6V | 08:30:00 | 01:36:12 | 00:00:00 | |
| AA1-15 | 2026-09-06 00:54:33 | 51.68936 | 6.47586 | 49° | 15km/h | 22157m | 5.1m/s | -52.6°C | 1.2% | 41.9hPa | 2.5V | 18:12:15 | 01:36:09 | 00:00:00 | |
| HARRO8 | 2026-09-06 00:54:32 | 51.68931 | 6.47576 | 52° | 15km/h | 22146m | 5.0m/s | -52.5°C | 1.4% | 41.9hPa | 2.6V | 00:00:00 | 00:00:00 | 00:00:00 | |
| DL1XH-15 | 2026-09-06 00:54:31 | 51.68921 | 6.47558 | 36° | 11km/h | 22121m | 4.4m/s | -52.4°C | 4.1% | 42.1hPa | 2.6V | 08:30:00 | 01:36:02 | 00:00:00 | |
| DO2JMG | 2026-09-06 00:54:30 | 51.68926 | 6.47567 | 55° | 13km/h | 22136m | 5.1m/s | -52.5°C | 1.1% | 42hPa | 2.5V | 18:12:15 | 01:36:05 | 00:00:00 | |
| BIOWL1-15 | 2026-09-06 00:54:28 | 51.68925 | 6.47563 | 48° | 9km/h | 22131m | 5.9m/s | -52.4°C | 1.1% | 42hPa | 2.5V | 18:12:15 | 01:36:04 | 00:00:00 | |
| DH3RM | 2026-09-06 00:54:27 | 51.68925 | 6.47563 | 49° | 9km/h | 22131m | 5.9m/s | -52.4°C | 1.3% | 42.0hPa | 2.6V | 00:00:00 | 00:00:00 | 00:00:00 | |
| DB0NH | 2026-09-06 00:54:26 | 51.68921 | 6.47558 | 37° | 13km/h | 22121m | 4.4m/s | -52.3°C | 4.1% | 42.0hPa | 2.6V | 00:00:00 | 01:36:02 | 00:00:00 | |
| DL3AQ-11 | 2026-09-06 00:54:25 | 51.68916 | 6.47551 | 49° | 15km/h | 22109m | 5.5m/s | -52.3°C | 1.3% | 42.2hPa | 2.6V | 00:00:00 | 00:00:00 | 00:00:00 | |
| DM0DOS-11 | 2026-09-06 00:54:24 | 51.68911 | 6.47535 | 84° | 13km/h | 22092m | 5.9m/s | -52.5°C | 4.1% | 42.3hPa | 2.6V | 08:30:00 | 01:35:57 | 00:00:00 | |
| AA1-15 | 2026-09-06 00:54:23 | 51.68914 | 6.47546 | 59° | 16km/h | 22104m | 4.6m/s | -52.3°C | 1% | 42.2hPa | 2.5V | 18:12:15 | 01:35:59 | 00:00:00 | |
| DO2JMG | 2026-09-06 00:54:18 | 51.68913 | 6.47518 | 108° | 16km/h | 22076m | 5.4m/s | -52.7°C | 1.1% | 42.4hPa | 2.5V | 18:12:15 | 01:35:54 | 00:00:00 | |
| BIOWL1-15 | 2026-09-06 00:54:18 | 51.68916 | 6.47509 | 120° | 9km/h | 22066m | 6m/s | -52.8°C | 1.1% | 42.5hPa | 2.6V | 18:12:15 | 01:35:52 | 00:00:00 | |
| DL1XH-west | 2026-09-06 00:54:13 | 51.68917 | 6.47505 | 22° | 2km/h | 22050m | 6.1m/s | -52.9°C | 1.2% | 42.6hPa | 2.5V | 18:12:15 | 01:35:49 | 00:00:00 | |
| AA1-15 | 2026-09-06 00:54:12 | 51.68917 | 6.47505 | 41° | 5km/h | 22044m | 5.8m/s | -52.9°C | 1.2% | 42.6hPa | 2.5V | 18:12:15 | 01:35:48 | 00:00:00 | |
| DD1CC8 | 2026-09-06 00:54:11 | 51.68915 | 6.47501 | 54° | 4km/h | 22034m | 4.8m/s | -52.9°C | 1.4% | 42.7hPa | 2.5V | 00:00:00 | 00:00:00 | 00:00:00 | |
| GOEST3-10 | 2026-09-06 00:54:10 | 51.68915 | 6.47501 | 55° | 7km/h | 22034m | 4.8m/s | -52.9°C | 4.3% | 42.6hPa | 2.5V | 00:00:00 | 01:35:46 | 00:00:00 | |
| DJ2KF-10 | 2026-09-06 00:54:08 | 51.68915 | 6.47499 | 153° | 18km/h | 22023m | 4.7m/s | -52.8°C | 4.2% | 42.7hPa | 2.5V | 00:00:00 | 01:35:44 | 08:30:00 | |
| DO2JMG | 2026-09-06 00:54:08 | 51.68915 | 6.47499 | 152° | 5km/h | 22023m | 4.8m/s | -52.9°C | 1.2% | 42.7hPa | 2.5V | 18:12:15 | 01:35:44 | 00:00:00 | |
| AU51GT2 | 2026-09-06 00:54:07 | 51.68919 | 6.47496 | 150° | 11km/h | 22013m | 5.6m/s | -52.9°C | 1.4% | 42.8hPa | 2.6V | 00:00:00 | 00:00:00 | 00:00:00 | |
| DB0UT-7 | 2026-09-06 00:54:06 | 51.68919 | 6.47496 | 151° | 18km/h | 22014m | 5.6m/s | -52.8°C | 4.3% | 42.7hPa | 2.6V | 00:00:00 | 01:35:42 | 00:00:00 | |
| GOEST3-10 | 2026-09-06 00:54:05 | 51.68922 | 6.47493 | 146° | 15km/h | 22008m | 4.7m/s | -52.8°C | 4.2% | 42.8hPa | 2.6V | 00:00:00 | 00:00:00 | 00:00:00 | |
| DM0DOS-11 | 2026-09-06 00:54:04 | 51.68936 | 6.47481 | 156° | 15km/h | 21989m | 4.1m/s | -52.8°C | 4.2% | 43hPa | 2.6V | 08:30:00 | 01:35:37 | 00:00:00 | |
| DL1XH-west | 2026-09-06 00:54:02 | 51.68932 | 6.47483 | 158° | 15km/h | 21994m | 5.5m/s | -52.8°C | 1.2% | 42.9hPa | 2.5V | 18:12:15 | 01:35:38 | 00:00:00 | |
| AA1-15 | 2026-09-06 00:54:01 | 51.68936 | 6.47481 | 157° | 15km/h | 21989m | 4.1m/s | -52.8°C | 1.2% | 43hPa | 2.6V | 18:12:15 | 01:35:37 | 00:00:00 | |
| BIOWL1-15 | 2026-09-06 00:53:58 | 51.68950 | 6.47463 | 138° | 9km/h | 21964m | 5.4m/s | -52.8°C | 1.1% | 43.1hPa | 2.6V | 18:12:15 | 01:35:32 | 00:00:00 | |
| DO2JMG | 2026-09-06 00:53:57 | 51.68948 | 6.47466 | 136° | 13km/h | 21969m | 5.6m/s | -52.7°C | 1% | 43.1hPa | 2.5V | 18:12:15 | 01:35:33 | 00:00:00 | |
| DL1XH-15 | 2026-09-06 00:53:57 | 51.68950 | 6.47463 | 137° | 9km/h | 21964m | 5.4m/s | -52.8°C | 4.1% | 43.1hPa | 2.6V | 08:30:00 | 01:35:32 | 00:00:00 | |
| DL1XH-west | 2026-09-06 00:53:51 | 51.68961 | 6.47450 | 160° | 16km/h | 21939m | 4.4m/s | -53.1°C | 1.2% | 43.3hPa | 2.6V | 18:12:15 | 01:35:27 | 00:00:00 | |
| AA1-15 | 2026-09-06 00:53:50 | 51.68966 | 6.47448 | 173° | 18km/h | 21933m | 6.1m/s | -53.1°C | 1.2% | 43.3hPa | 2.6V | 18:12:15 | 01:35:26 | 00:00:00 | |
| GOEST3-10 | 2026-09-06 00:53:50 | 51.68966 | 6.47448 | 173° | 26km/h | 21934m | 6.0m/s | -53.0°C | 4.2% | 43.3hPa | 2.6V | 00:00:00 | 01:35:26 | 08:30:00 | |
| DO9LL-15 | 2026-09-06 00:53:49 | 51.68970 | 6.47448 | 180° | 22km/h | 21928m | 4.7m/s | -53.0°C | 4.3% | 43.3hPa | 2.5V | 00:00:00 | 01:35:25 | 00:00:00 | |
| DL1XH-15 | 2026-09-06 00:53:47 | 51.69020 | 6.47439 | 168° | 24km/h | 21894m | 4.4m/s | -53.2°C | 4.3% | 43.6hPa | 2.5V | 08:30:00 | 01:35:18 | 00:00:00 | |
| DO2JMG | 2026-09-06 00:53:47 | 51.68983 | 6.47447 | 174° | 29km/h | 21918m | 6m/s | -53.2°C | 1.2% | 43.4hPa | 2.5V | 18:12:15 | 01:35:23 | 00:00:00 | |
| BIOWL1-15 | 2026-09-06 00:53:45 | 51.68999 | 6.47443 | 171° | 31km/h | 21909m | 4.4m/s | -53.2°C | 1.2% | 43.5hPa | 2.6V | 18:12:15 | 01:35:21 | 00:00:00 | |
| DL1XH-west | 2026-09-06 00:53:40 | 51.69030 | 6.47433 | 150° | 22km/h | 21883m | 5.7m/s | -53.2°C | 1.2% | 43.7hPa | 2.6V | 18:12:15 | 01:35:16 | 00:00:00 | |
| AA1-15 | 2026-09-06 00:53:39 | 51.69034 | 6.47428 | 145° | 20km/h | 21878m | 5.1m/s | -53.2°C | 1.2% | 43.7hPa | 2.5V | 18:12:15 | 01:35:15 | 00:00:00 | |
| DJ2KF-10 | 2026-09-06 00:53:38 | 51.69038 | 6.47423 | 146° | 22km/h | 21872m | 5.9m/s | -53.1°C | 4.3% | 43.7hPa | 2.5V | 00:00:00 | 01:35:14 | 00:00:00 | |
| DL1XH-15 | 2026-09-06 00:53:37 | 51.69067 | 6.47395 | 157° | 26km/h | 21843m | 5.9m/s | -53.2°C | 4.2% | 43.9hPa | 2.5V | 08:30:00 | 01:35:08 | 00:00:00 | |
| DO2JMG | 2026-09-06 00:53:36 | 51.69046 | 6.47415 | 149° | 20km/h | 21862m | 3.7m/s | -53.1°C | 1.2% | 43.8hPa | 2.6V | 18:12:15 | 01:35:12 | 00:00:00 | |
| BIOWL1-15 | 2026-09-06 00:53:35 | 51.69051 | 6.47410 | 147° | 24km/h | 21858m | 5.7m/s | -53.1°C | 1.2% | 43.9hPa | 2.6V | 18:12:15 | 01:35:11 | 00:00:00 | |
| GOEST3-10 | 2026-09-06 00:53:35 | 51.69051 | 6.47410 | 148° | 24km/h | 21858m | 5.6m/s | -53.1°C | 4.3% | 43.8hPa | 2.6V | 00:00:00 | 00:00:00 | 00:00:00 | |
| BIOWL7-15 | 2026-09-06 00:53:34 | 51.69056 | 6.47405 | 148° | 26km/h | 21852m | 5.1m/s | -53.1°C | 1.4% | 43.9hPa | 2.6V | 00:00:00 | 00:00:00 | 00:00:00 | |
| DM0DOS-11 | 2026-09-06 00:53:32 | 51.69073 | 6.47392 | 167° | 24km/h | 21837m | 5.8m/s | -53.2°C | 4.3% | 44hPa | 2.6V | 08:30:00 | 01:35:07 | 00:00:00 | |
| DL1XH-west | 2026-09-06 00:53:30 | 51.69079 | 6.47391 | 172° | 24km/h | 21831m | 5m/s | -53.3°C | 1.2% | 44hPa | 2.6V | 18:12:15 | 01:35:06 | 00:00:00 | |
| AA1-15 | 2026-09-06 00:53:29 | 51.69085 | 6.47389 | 170° | 22km/h | 21826m | 5.6m/s | -53.3°C | 1.2% | 44.1hPa | 2.5V | 18:12:15 | 01:35:05 | 00:00:00 | |
| DD1CC9-15 | 2026-09-06 00:53:28 | 51.69085 | 6.47389 | 171° | 22km/h | 21826m | 5.6m/s | -53.3°C | 1.5% | 44.1hPa | 2.6V | 00:00:00 | 00:00:00 | 00:00:00 | |
| DM0DOS-11 | 2026-09-06 00:53:27 | 51.69121 | 6.47367 | 138° | 16km/h | 21784m | 4.8m/s | -53.2°C | 4.3% | 44.3hPa | 2.6V | 08:30:00 | 01:34:57 | 00:00:00 | |
| DO2JMG | 2026-09-06 00:53:26 | 51.69100 | 6.47382 | 160° | 20km/h | 21811m | 5m/s | -53.3°C | 1.2% | 44.2hPa | 2.6V | 18:12:15 | 01:35:02 | 00:00:00 | |
| BIOWL1-15 | 2026-09-06 00:53:24 | 51.69110 | 6.47377 | 163° | 20km/h | 21800m | 5m/s | -53.2°C | 1.2% | 44.2hPa | 2.5V | 18:12:15 | 01:35:00 | 00:00:00 | |
| DL1XH-west | 2026-09-06 00:53:20 | 51.69124 | 6.47363 | 143° | 16km/h | 21779m | 3.7m/s | -53.2°C | 1.2% | 44.4hPa | 2.6V | 18:12:15 | 01:34:56 | 00:00:00 | |
| AA1-15 | 2026-09-06 00:53:19 | 51.69128 | 6.47359 | 152° | 18km/h | 21775m | 6.2m/s | -53.2°C | 1.2% | 44.4hPa | 2.5V | 18:12:15 | 01:34:55 | 00:00:00 | |
| DO9LL-15 | 2026-09-06 00:53:19 | 51.69128 | 6.47359 | 152° | 20km/h | 21775m | 6.1m/s | -53.1°C | 4.3% | 44.4hPa | 2.5V | 00:00:00 | 01:34:55 | 00:00:00 | |
| DL3AQ-11 | 2026-09-06 00:53:18 | 51.69138 | 6.47352 | 160° | 24km/h | 21765m | 4.1m/s | -53.2°C | 1.4% | 44.5hPa | 2.6V | 00:00:00 | 00:00:00 | 00:00:00 | |
| DM0DOS-11 | 2026-09-06 00:53:16 | 51.69172 | 6.47333 | 172° | 22km/h | 21733m | 5.8m/s | -53°C | 4.1% | 44.7hPa | 2.6V | 08:30:00 | 01:34:47 | 00:00:00 | |
| DO2JMG | 2026-09-06 00:53:15 | 51.69150 | 6.47345 | 157° | 26km/h | 21754m | 5.7m/s | -53.1°C | 1.2% | 44.5hPa | 2.6V | 18:12:15 | 01:34:51 | 00:00:00 | |
| BIOWL1-15 | 2026-09-06 00:53:13 | 51.69161 | 6.47337 | 160° | 24km/h | 21744m | 4.3m/s | -53°C | 1.2% | 44.6hPa | 2.5V | 18:12:15 | 01:34:49 | 00:00:00 | |
| DL1XH-west | 2026-09-06 00:53:09 | 51.69183 | 6.47331 | 170° | 20km/h | 21723m | 4.5m/s | -53°C | 1.2% | 44.8hPa | 2.5V | 18:12:15 | 01:34:45 | 00:00:00 | |
| AA1-15 | 2026-09-06 00:53:08 | 51.69187 | 6.47329 | 162° | 18km/h | 21717m | 6.5m/s | -52.9°C | 1.1% | 44.8hPa | 2.5V | 18:12:15 | 01:34:44 | 00:00:00 | |
| DJ2KF-10 | 2026-09-06 00:53:08 | 51.69187 | 6.47329 | 162° | 22km/h | 21717m | 6.4m/s | -52.9°C | 4.1% | 44.7hPa | 2.6V | 00:00:00 | 01:34:44 | 00:00:00 | |
| DD1CC9-15 | 2026-09-06 00:53:07 | 51.69188 | 6.47329 | 163° | 18km/h | 21717m | 6.5m/s | -52.9°C | 1.4% | 44.8hPa | 2.6V | 00:00:00 | 00:00:00 | 00:00:00 | |
| DM0DOS-11 | 2026-09-06 00:53:06 | 51.69223 | 6.47310 | 161° | 27km/h | 21681m | 5.9m/s | -53.5°C | 4.2% | 45hPa | 2.6V | 08:30:00 | 01:34:37 | 00:00:00 | |
| DO2JMG | 2026-09-06 00:53:04 | 51.69205 | 6.47317 | 165° | 22km/h | 21697m | 5.7m/s | -53°C | 1.1% | 44.9hPa | 2.5V | 18:12:15 | 01:34:40 | 00:00:00 | |
| BIOWL1-15 | 2026-09-06 00:53:03 | 51.69210 | 6.47315 | 168° | 24km/h | 21691m | 5.2m/s | -53°C | 1.1% | 45hPa | 2.5V | 18:12:15 | 01:34:39 | 00:00:00 | |
| DL1XH-west | 2026-09-06 00:52:59 | 51.69235 | 6.47302 | 158° | 24km/h | 21671m | 4.1m/s | -53.8°C | 1.3% | 45.1hPa | 2.5V | 18:12:15 | 01:34:35 | 00:00:00 | |
| AA1-15 | 2026-09-06 00:52:57 | 51.69246 | 6.47297 | 171° | 20km/h | 21660m | 6.1m/s | -53.8°C | 1.2% | 45.2hPa | 2.5V | 18:12:15 | 01:34:33 | 00:00:00 | |
| DL1XH-15 | 2026-09-06 00:52:56 | 51.69259 | 6.47293 | 161° | 16km/h | 21644m | 5.5m/s | -53.9°C | 4.3% | 45.3hPa | 2.5V | 08:30:00 | 01:34:30 | 00:00:00 | |
| DM0DOS-11 | 2026-09-06 00:52:56 | 51.69270 | 6.47288 | 173° | 15km/h | 21628m | 5.6m/s | -54°C | 4.4% | 45.5hPa | 2.6V | 08:30:00 | 01:34:27 | 00:00:00 | |
| DO2JMG | 2026-09-06 00:52:54 | 51.69259 | 6.47293 | 162° | 16km/h | 21644m | 5.6m/s | -53.9°C | 1.2% | 45.3hPa | 2.5V | 18:12:15 | 01:34:30 | 00:00:00 | |
| BIOWL1-15 | 2026-09-06 00:52:52 | 51.69266 | 6.47289 | 164° | 15km/h | 21633m | 5.5m/s | -54°C | 1.2% | 45.4hPa | 2.5V | 18:12:15 | 01:34:28 | 00:00:00 | |
| DL1XH-west | 2026-09-06 00:52:48 | 51.69282 | 6.47285 | 163° | 20km/h | 21612m | 6m/s | -54.1°C | 1.3% | 45.6hPa | 2.5V | 18:12:15 | 01:34:24 | 00:00:00 | |
| AA1-15 | 2026-09-06 00:52:47 | 51.69288 | 6.47282 | 158° | 24km/h | 21606m | 5.4m/s | -54.1°C | 1.3% | 45.6hPa | 2.5V | 18:12:15 | 01:34:23 | 00:00:00 | |
| DL1XH-15 | 2026-09-06 00:52:46 | 51.69306 | 6.47271 | 164° | 27km/h | 21589m | 5.9m/s | -54.1°C | 4.4% | 45.7hPa | 2.5V | 08:30:00 | 01:34:20 | 00:00:00 | |
| DO2JMG | 2026-09-06 00:52:44 | 51.69306 | 6.47271 | 164° | 27km/h | 21589m | 5.9m/s | -54.1°C | 1.3% | 45.7hPa | 2.5V | 18:12:15 | 01:34:20 | 00:00:00 | |
| BIOWL1-15 | 2026-09-06 00:52:43 | 51.69328 | 6.47260 | 160° | 33km/h | 21573m | 5.8m/s | -54.2°C | 1.3% | 45.8hPa | 2.6V | 18:12:15 | 01:34:17 | 00:00:00 | |
| DL1XH-west | 2026-09-06 00:52:37 | 51.69360 | 6.47244 | 164° | 33km/h | 21551m | 4.5m/s | -54.5°C | 1.4% | 46hPa | 2.5V | 18:12:15 | 01:34:13 | 00:00:00 | |
| DO2JMG | 2026-09-06 00:52:33 | 51.69388 | 6.47222 | 148° | 29km/h | 21528m | 6.8m/s | -54.7°C | 1.4% | 46.1hPa | 2.5V | 18:12:15 | 01:34:09 | 00:00:00 | |
| BIOWL1-15 | 2026-09-06 00:52:30 | 51.69408 | 6.47200 | 142° | 37km/h | 21511m | 6.8m/s | -54.7°C | 1.4% | 46.3hPa | 2.6V | 18:12:15 | 01:34:06 | 00:00:00 | |
| DL1XH-west | 2026-09-06 00:52:27 | 51.69432 | 6.47172 | 147° | 40km/h | 21494m | 6.5m/s | -54.6°C | 1.4% | 46.4hPa | 2.5V | 18:12:15 | 01:34:03 | 00:00:00 | |
| AA1-15 | 2026-09-06 00:52:26 | 51.69441 | 6.47164 | 151° | 40km/h | 21488m | 4.9m/s | -54.5°C | 1.4% | 46.4hPa | 2.6V | 18:12:15 | 01:34:02 | 00:00:00 | |
| DL1XH-15 | 2026-09-06 00:52:26 | 51.69459 | 6.47147 | 149° | 44km/h | 21478m | 6.2m/s | -54.5°C | 4.5% | 46.5hPa | 2.5V | 08:30:00 | 01:34:00 | 00:00:00 | |
| DD1CC1-15 | 2026-09-06 00:52:25 | 51.69449 | 6.47156 | 152° | 40km/h | 21484m | 4.8m/s | -54.5°C | 1.5% | 46.4hPa | 2.6V | 00:00:00 | 00:00:00 | 00:00:00 | |
| DM0DOS-11 | 2026-09-06 00:52:24 | 51.69486 | 6.47116 | 141° | 42km/h | 21463m | 4.9m/s | -54.4°C | 4.5% | 46.6hPa | 2.6V | 08:30:00 | 01:33:57 | 00:00:00 | |
| DO2JMG | 2026-09-06 00:52:23 | 51.69468 | 6.47138 | 146° | 46km/h | 21472m | 5.4m/s | -54.5°C | 1.3% | 46.5hPa | 2.5V | 18:12:15 | 01:33:59 | 00:00:00 | |
| BIOWL1-15 | 2026-09-06 00:52:19 | 51.69501 | 6.47096 | 139° | 37km/h | 21451m | 5.5m/s | -54.3°C | 1.4% | 46.7hPa | 2.5V | 18:12:15 | 01:33:55 | 00:00:00 | |
| SONCRA | 2026-09-06 00:52:19 | 51.69508 | 6.47087 | 137° | 33km/h | 21446m | 5.2m/s | -54.3°C | 1.5% | 46.7hPa | 2.5V | 00:00:00 | 00:00:00 | 00:00:00 | |
| DF7PN | 2026-09-06 00:52:18 | 51.69514 | 6.47077 | 134° | 35km/h | 21440m | 6.2m/s | 0°C | -1.0% | -1.0hPa | 2.5V | 00:00:00 | 00:00:00 | 00:00:00 | |
| DL1XH-15 | 2026-09-06 00:52:16 | 51.69529 | 6.47046 | 123° | 29km/h | 21423m | 6.4m/s | -54.2°C | 4.4% | 46.9hPa | 2.5V | 08:30:00 | 01:33:50 | 00:00:00 | |
| DL1XH-west | 2026-09-06 00:52:16 | 51.69520 | 6.47067 | 131° | 35km/h | 21434m | 5.4m/s | -54.2°C | 1.3% | 46.8hPa | 2.6V | 18:12:15 | 01:33:52 | 00:00:00 | |
| AA1-15 | 2026-09-06 00:52:15 | 51.69525 | 6.47057 | 126° | 31km/h | 21429m | 5.6m/s | -54.2°C | 1.4% | 46.9hPa | 2.6V | 18:12:15 | 01:33:51 | 00:00:00 | |
| GOEST3-10 | 2026-09-06 00:52:15 | 51.69525 | 6.47057 | 127° | 31km/h | 21429m | 5.6m/s | -54.2°C | 4.5% | 46.8hPa | 2.6V | 00:00:00 | 00:00:00 | 00:00:00 | |
| DM0DOS-11 | 2026-09-06 00:52:13 | 51.69543 | 6.47018 | 132° | 31km/h | 21406m | 6.6m/s | -54.4°C | 4.4% | 47hPa | 2.6V | 08:30:00 | 01:33:47 | 00:00:00 | |
| DO2JMG | 2026-09-06 00:52:12 | 51.69538 | 6.47027 | 128° | 29km/h | 21412m | 4.6m/s | -54.3°C | 1.4% | 47hPa | 2.5V | 18:12:15 | 01:33:48 | 00:00:00 | |
| BIOWL1-15 | 2026-09-06 00:52:08 | 51.69562 | 6.46990 | 142° | 35km/h | 21391m | 6m/s | -54.6°C | 1.4% | 47.1hPa | 2.5V | 18:12:15 | 01:33:44 | 00:00:00 | |
| DJ2KF-10 | 2026-09-06 00:52:08 | 51.69562 | 6.46990 | 142° | 29km/h | 21392m | 6.0m/s | -54.5°C | 4.5% | 47.1hPa | 2.5V | 00:00:00 | 01:33:44 | 00:00:00 | |
| DL1ZP-14 | 2026-09-06 00:52:07 | 51.69569 | 6.46981 | 141° | 31km/h | 21386m | 6.0m/s | -54.7°C | 1.5% | 47.2hPa | 2.5V | 00:00:00 | 00:00:00 | 00:00:00 | |
| DL1XH-15 | 2026-09-06 00:52:06 | 51.69586 | 6.46955 | 130° | 33km/h | 21369m | 6m/s | -54.6°C | 4.6% | 47.3hPa | 2.5V | 08:30:00 | 01:33:40 | 00:00:00 | |
| DL1XH-west | 2026-09-06 00:52:05 | 51.69581 | 6.46964 | 135° | 31km/h | 21374m | 5.5m/s | -54.7°C | 1.5% | 47.3hPa | 2.6V | 18:12:15 | 01:33:41 | 00:00:00 | |
| GOEST3-10 | 2026-09-06 00:52:05 | 51.69580 | 6.46964 | 136° | 31km/h | 21375m | 5.5m/s | -54.6°C | 4.6% | 47.2hPa | 2.6V | 00:00:00 | 00:00:00 | 00:00:00 | |
| DD1CC9-15 | 2026-09-06 00:52:04 | 51.69580 | 6.46964 | 136° | 31km/h | 21375m | 5.5m/s | -54.7°C | 1.6% | 47.3hPa | 2.6V | 00:00:00 | 00:00:00 | 00:00:00 | |
| DM0DOS-11 | 2026-09-06 00:52:03 | 51.69599 | 6.46922 | 114° | 29km/h | 21353m | 6.5m/s | -54.5°C | 4.6% | 47.4hPa | 2.6V | 08:30:00 | 01:33:37 | 00:00:00 | |
| DO2JMG | 2026-09-06 00:52:01 | 51.69599 | 6.46922 | 115° | 29km/h | 21353m | 6.6m/s | -54.5°C | 1.4% | 47.4hPa | 2.6V | 18:12:15 | 01:33:37 | 00:00:00 | |
| BIOWL1-15 | 2026-09-06 00:51:58 | 51.69607 | 6.46890 | 111° | 29km/h | 21337m | 6m/s | -54.4°C | 1.4% | 47.5hPa | 2.5V | 18:12:15 | 01:33:34 | 00:00:00 | |
| DL3AQ-11 | 2026-09-06 00:51:58 | 51.69610 | 6.46879 | 113° | 31km/h | 21331m | 5.2m/s | -54.4°C | 1.5% | 47.6hPa | 2.5V | 00:00:00 | 00:00:00 | 00:00:00 | |
| HARRO8 | 2026-09-06 00:51:57 | 51.69613 | 6.46867 | 114° | 31km/h | 21327m | 4.2m/s | -54.3°C | 1.5% | 47.6hPa | 2.5V | 00:00:00 | 00:00:00 | 00:00:00 | |
| DJ2DS-15 | 2026-09-06 00:51:56 | 51.69613 | 6.46867 | 114° | 31km/h | 21327m | 4.2m/s | -54.3°C | 1.5% | 47.6hPa | 2.5V | 00:00:00 | 00:00:00 | 00:00:00 | |
| DL1XH-15 | 2026-09-06 00:51:55 | 51.69619 | 6.46845 | 113° | 27km/h | 21316m | 6.2m/s | -54.3°C | 4.4% | 47.7hPa | 2.5V | 08:30:00 | 01:33:30 | 00:00:00 | |
| DL1XH-west | 2026-09-06 00:51:55 | 51.69616 | 6.46856 | 114° | 31km/h | 21322m | 5m/s | -54.3°C | 1.3% | 47.7hPa | 2.6V | 18:12:15 | 01:33:31 | 00:00:00 | |
| AA1-15 | 2026-09-06 00:51:54 | 51.69619 | 6.46845 | 113° | 27km/h | 21316m | 6.2m/s | -54.3°C | 1.2% | 47.7hPa | 2.5V | 18:12:15 | 01:33:30 | 00:00:00 | |
| DL4BBY-15 | 2026-09-06 00:51:54 | 51.69619 | 6.46845 | 114° | 29km/h | 21317m | 6.1m/s | -54.0°C | 0% | 0hPa | 2.6V | 00:00:00 | 00:00:00 | 00:00:00 | |
| DM0DOS-11 | 2026-09-06 00:51:53 | 51.69627 | 6.46818 | 120° | 26km/h | 21301m | 6m/s | -54.3°C | 4.3% | 47.8hPa | 2.6V | 08:30:00 | 01:33:27 | 00:00:00 | |
| DO2JMG | 2026-09-06 00:51:50 | 51.69631 | 6.46809 | 124° | 27km/h | 21295m | 5.4m/s | -54.3°C | 1.3% | 47.9hPa | 2.6V | 18:12:15 | 01:33:26 | 00:00:00 | |
| BIOWL1-15 | 2026-09-06 00:51:47 | 51.69643 | 6.46781 | 124° | 26km/h | 21278m | 5.6m/s | -54.7°C | 1.3% | 48hPa | 2.5V | 18:12:15 | 01:33:23 | 00:00:00 | |
| DL1XH-west | 2026-09-06 00:51:45 | 51.69650 | 6.46762 | 121° | 29km/h | 21268m | 5.1m/s | -54.8°C | 1.4% | 48hPa | 2.6V | 18:12:15 | 01:33:21 | 00:00:00 | |
| AA1-15 | 2026-09-06 00:51:44 | 51.69654 | 6.46751 | 123° | 33km/h | 21263m | 6.1m/s | -54.8°C | 1.4% | 48.1hPa | 2.5V | 18:12:15 | 01:33:20 | 00:00:00 | |
| DD1CC1-15 | 2026-09-06 00:51:43 | 51.69654 | 6.46751 | 124° | 33km/h | 21263m | 6.1m/s | -54.8°C | 1.5% | 48.1hPa | 2.6V | 00:00:00 | 00:00:00 | 00:00:00 | |
| DM0DOS-11 | 2026-09-06 00:51:42 | 51.69669 | 6.46719 | 129° | 29km/h | 21248m | 6.3m/s | -54.8°C | 4.4% | 48.2hPa | 2.6V | 08:30:00 | 01:33:17 | 00:00:00 | |
| DO2JMG | 2026-09-06 00:51:40 | 51.69674 | 6.46710 | 134° | 27km/h | 21242m | 5.3m/s | -54.8°C | 1.4% | 48.2hPa | 2.6V | 18:12:15 | 01:33:16 | 00:00:00 | |
| BIOWL1-15 | 2026-09-06 00:51:37 | 51.69690 | 6.46687 | 140° | 31km/h | 21225m | 4.7m/s | -54.8°C | 1.3% | 48.4hPa | 2.5V | 18:12:15 | 01:33:13 | 00:00:00 | |
| DL1XH-west | 2026-09-06 00:51:34 | 51.69706 | 6.46663 | 135° | 27km/h | 21210m | 6.2m/s | -54.9°C | 1.3% | 48.5hPa | 2.5V | 18:12:15 | 01:33:10 | 00:00:00 | |
| AA1-15 | 2026-09-06 00:51:33 | 51.69711 | 6.46655 | 131° | 27km/h | 21204m | 4.7m/s | -55°C | 1.3% | 48.5hPa | 2.5V | 18:12:15 | 01:33:09 | 00:00:00 | |
| DM0DOS-11 | 2026-09-06 00:51:32 | 51.69720 | 6.46636 | 127° | 33km/h | 21194m | 5.8m/s | -55.3°C | 4.6% | 48.6hPa | 2.6V | 08:30:00 | 01:33:07 | 00:00:00 | |
| DO2JMG | 2026-09-06 00:51:29 | 51.69730 | 6.46615 | 125° | 31km/h | 21184m | 4.6m/s | -55.8°C | 1.5% | 48.7hPa | 2.5V | 18:12:15 | 01:33:05 | 00:00:00 | |
| BIOWL1-15 | 2026-09-06 00:51:28 | 51.69758 | 6.46558 | 138° | 20km/h | 21148m | 6.4m/s | -55.8°C | 1.5% | 49hPa | 2.5V | 18:12:15 | 01:32:58 | 00:00:00 | |
| DL1XH-west | 2026-09-06 00:51:24 | 51.69749 | 6.46571 | 132° | 26km/h | 21158m | 4.9m/s | -55.9°C | 1.6% | 48.9hPa | 2.5V | 18:12:15 | 01:33:00 | 00:00:00 | |
| AA1-15 | 2026-09-06 00:51:23 | 51.69754 | 6.46564 | 136° | 24km/h | 21153m | 4.5m/s | -55.8°C | 1.5% | 48.9hPa | 2.5V | 18:12:15 | 01:32:59 | 00:00:00 | |
| DM0DOS-11 | 2026-09-06 00:51:22 | 51.69761 | 6.46552 | 134° | 20km/h | 21142m | 5.7m/s | -55.8°C | 4.9% | 49hPa | 2.6V | 08:30:00 | 01:32:57 | 00:00:00 | |
| DO2JMG | 2026-09-06 00:51:19 | 51.69768 | 6.46539 | 123° | 24km/h | 21131m | 6.1m/s | -55.7°C | 1.5% | 49.1hPa | 2.5V | 18:12:15 | 01:32:55 | 00:00:00 | |
| DL1XH-west | 2026-09-06 00:51:14 | 51.69776 | 6.46488 | 93° | 24km/h | 21105m | 4.8m/s | -55.6°C | 1.5% | 49.3hPa | 2.5V | 18:12:15 | 01:32:50 | 00:00:00 | |
| BIOWL1-15 | 2026-09-06 00:51:14 | 51.69778 | 6.46465 | 104° | 13km/h | 21090m | 5.8m/s | -55.7°C | 1.5% | 49.4hPa | 2.6V | 18:12:15 | 01:32:47 | 00:00:00 | |
| AA1-15 | 2026-09-06 00:51:12 | 51.69777 | 6.46471 | 102° | 18km/h | 21096m | 4.2m/s | -55.7°C | 1.5% | 49.4hPa | 2.5V | 18:12:15 | 01:32:48 | 00:00:00 | |
| DM0DOS-11 | 2026-09-06 00:51:12 | 51.69778 | 6.46465 | 103° | 13km/h | 21090m | 5.8m/s | -55.7°C | 4.8% | 49.4hPa | 2.6V | 08:30:00 | 01:32:47 | 00:00:00 | |
| DO2JMG | 2026-09-06 00:51:09 | 51.69780 | 6.46458 | 132° | 7km/h | 21079m | 4.4m/s | -55.7°C | 1.5% | 49.5hPa | 2.5V | 18:12:15 | 01:32:45 | 00:00:00 | |
| DL1XH-west | 2026-09-06 00:51:03 | 51.69793 | 6.46430 | 98° | 20km/h | 21050m | 5.6m/s | -55.5°C | 1.4% | 49.7hPa | 2.5V | 18:12:15 | 01:32:39 | 00:00:00 | |
| BIOWL1-15 | 2026-09-06 00:51:02 | 51.69792 | 6.46390 | 87° | 26km/h | 21030m | 4.3m/s | -55.6°C | 1.4% | 49.9hPa | 2.5V | 18:12:15 | 01:32:35 | 00:00:00 | |
| DM0DOS-11 | 2026-09-06 00:51:02 | 51.69793 | 6.46411 | 85° | 26km/h | 21040m | 4.6m/s | -55.6°C | 4.6% | 49.8hPa | 2.6V | 08:30:00 | 01:32:37 | 00:00:00 | |
| AA1-15 | 2026-09-06 00:51:01 | 51.69793 | 6.46411 | 86° | 26km/h | 21040m | 4.6m/s | -55.6°C | 1.4% | 49.8hPa | 2.6V | 18:12:15 | 01:32:37 | 00:00:00 | |
| DO2JMG | 2026-09-06 00:50:58 | 51.69792 | 6.46381 | 82° | 22km/h | 21025m | 4.9m/s | -55.7°C | 1.4% | 49.9hPa | 2.5V | 18:12:15 | 01:32:34 | 00:00:00 | |
| WPPR-10 | 2026-09-06 00:50:57 | 51.69790 | 6.46369 | 69° | 7km/h | 21015m | 4.3m/s | -56.0°C | 1.6% | 50.0hPa | 2.6V | 00:00:00 | 00:00:00 | 00:00:00 | |
| DM0DOS-11 | 2026-09-06 00:50:56 | 51.69794 | 6.46360 | 123° | 9km/h | 20991m | 5.4m/s | -56.1°C | 5% | 50.2hPa | 2.6V | 08:30:00 | 01:32:27 | 00:00:00 | |
| DL1XH-west | 2026-09-06 00:50:53 | 51.69791 | 6.46364 | 156° | 7km/h | 21000m | 4.3m/s | -56.1°C | 1.5% | 50.1hPa | 2.5V | 18:12:15 | 01:32:29 | 00:00:00 | |
| AA1-15 | 2026-09-06 00:50:50 | 51.69796 | 6.46350 | 91° | 18km/h | 20981m | 4.4m/s | -56°C | 1.6% | 50.3hPa | 2.5V | 18:12:15 | 01:32:25 | 00:00:00 | |
| BIOWL1-15 | 2026-09-06 00:50:50 | 51.69795 | 6.46356 | 99° | 13km/h | 20986m | 5m/s | -56.1°C | 1.6% | 50.2hPa | 2.6V | 18:12:15 | 01:32:26 | 00:00:00 | |
| DO2JMG | 2026-09-06 00:50:47 | 51.69796 | 6.46332 | 92° | 24km/h | 20971m | 5.1m/s | -55.9°C | 1.6% | 50.4hPa | 2.5V | 18:12:15 | 01:32:23 | 00:00:00 | |
| SONCRA | 2026-09-06 00:50:45 | 51.69795 | 6.46312 | 80° | 24km/h | 20961m | 5.8m/s | -55.9°C | 1.7% | 50.4hPa | 2.5V | 00:00:00 | 00:00:00 | 00:00:00 | |
| DL1XH-west | 2026-09-06 00:50:42 | 51.69791 | 6.46285 | 75° | 20km/h | 20946m | 5.3m/s | -55.7°C | 1.6% | 50.5hPa | 2.5V | 18:12:15 | 01:32:18 | 00:00:00 | |
| BIOWL1-15 | 2026-09-06 00:50:42 | 51.69789 | 6.46269 | 87° | 18km/h | 20936m | 4.4m/s | -55.6°C | 1.5% | 50.6hPa | 2.6V | 18:12:15 | 01:32:16 | 00:00:00 | |
| AA1-15 | 2026-09-06 00:50:39 | 51.69789 | 6.46262 | 85° | 20km/h | 20932m | 4.4m/s | -55.6°C | 1.5% | 50.7hPa | 2.5V | 18:12:15 | 01:32:15 | 00:00:00 | |
| DL3AQ-11 | 2026-09-06 00:50:38 | 51.69787 | 6.46245 | 77° | 20km/h | 20921m | 4.8m/s | -55.6°C | 1.6% | 50.8hPa | 2.5V | 00:00:00 | 00:00:00 | 00:00:00 | |
| DL1XH-15 | 2026-09-06 00:50:37 | 51.69785 | 6.46219 | 89° | 22km/h | 20907m | 4.1m/s | -55.6°C | 4.8% | 50.9hPa | 2.5V | 08:30:00 | 01:32:10 | 00:00:00 | |
| DO2JMG | 2026-09-06 00:50:37 | 51.69787 | 6.46245 | 77° | 22km/h | 20921m | 4.8m/s | -55.6°C | 1.5% | 50.8hPa | 2.5V | 18:12:15 | 01:32:13 | 00:00:00 | |
| DB0ND-19 | 2026-09-06 00:50:37 | 51.69786 | 6.46237 | 81° | 20km/h | 20917m | 4.4m/s | -55.5°C | 1.6% | 50.8hPa | 2.6V | 00:00:00 | 00:00:00 | 00:00:00 | |
| DM0DOS-11 | 2026-09-06 00:50:36 | 51.69783 | 6.46193 | 78° | 22km/h | 20892m | 4.8m/s | -55.7°C | 4.8% | 51hPa | 2.6V | 08:30:00 | 01:32:07 | 00:00:00 | |
| DL1XH-west | 2026-09-06 00:50:31 | 51.69784 | 6.46193 | 78° | 22km/h | 20892m | 4.8m/s | -55.7°C | 1.5% | 51hPa | 2.6V | 18:12:15 | 01:32:07 | 00:00:00 | |
| AA1-15 | 2026-09-06 00:50:29 | 51.69782 | 6.46177 | 90° | 18km/h | 20882m | 6.1m/s | -55.7°C | 1.5% | 51hPa | 2.5V | 18:12:15 | 01:32:05 | 00:00:00 | |
| HTAHTA | 2026-09-06 00:50:28 | 51.69783 | 6.46163 | 97° | 15km/h | 20873m | 3.2m/s | -55.7°C | 1.6% | 51.1hPa | 2.6V | 00:00:00 | 00:00:00 | 00:00:00 | |
| DK5PH-5 | 2026-09-06 00:50:27 | 51.69783 | 6.46163 | 98° | 29km/h | 20873m | 3.2m/s | -55.6°C | 4.8% | 51.1hPa | 2.6V | 00:00:00 | 01:32:03 | 00:00:00 | |
| DM0DOS-11 | 2026-09-06 00:50:26 | 51.69781 | 6.46116 | 88° | 22km/h | 20843m | 4m/s | -55.5°C | 4.7% | 51.4hPa | 2.6V | 08:30:00 | 01:31:57 | 00:00:00 | |
| DO2JMG | 2026-09-06 00:50:26 | 51.69783 | 6.46156 | 91° | 16km/h | 20869m | 5.4m/s | -55.6°C | 1.5% | 51.2hPa | 2.6V | 18:12:15 | 01:32:02 | 00:00:00 | |
| DL1XH-west | 2026-09-06 00:50:20 | 51.69780 | 6.46106 | 85° | 24km/h | 20839m | 6.3m/s | -55.5°C | 1.5% | 51.4hPa | 2.6V | 18:12:15 | 01:31:56 | 00:00:00 | |
| BIOWL1-15 | 2026-09-06 00:50:18 | 51.69779 | 6.46085 | 86° | 27km/h | 20828m | 3.9m/s | -55.5°C | 1.5% | 51.5hPa | 2.5V | 18:12:15 | 01:31:54 | 00:00:00 | |
| DM0DOS-11 | 2026-09-06 00:50:16 | 51.69776 | 6.46011 | 73° | 27km/h | 20793m | 4.7m/s | -55.5°C | 4.7% | 51.8hPa | 2.6V | 08:30:00 | 01:31:47 | 00:00:00 | |
| DO2JMG | 2026-09-06 00:50:15 | 51.69780 | 6.46054 | 94° | 24km/h | 20814m | 4.1m/s | -55.5°C | 1.5% | 51.6hPa | 2.6V | 18:12:15 | 01:31:51 | 00:00:00 | |
| BIOWL1-15 | 2026-09-06 00:50:10 | 51.69771 | 6.45980 | 81° | 27km/h | 20779m | 3.7m/s | -55.4°C | 1.4% | 51.9hPa | 2.5V | 18:12:15 | 01:31:44 | 00:00:00 | |
| DL1XH-west | 2026-09-06 00:50:10 | 51.69774 | 6.46001 | 75° | 26km/h | 20788m | 5.9m/s | -55.5°C | 1.5% | 51.8hPa | 2.6V | 18:12:15 | 01:31:46 | 00:00:00 | |
| AA1-15 | 2026-09-06 00:50:09 | 51.69772 | 6.45990 | 79° | 26km/h | 20783m | 4.4m/s | -55.4°C | 1.5% | 51.8hPa | 2.5V | 18:12:15 | 01:31:45 | 00:00:00 | |
| DJ2KF-10 | 2026-09-06 00:50:08 | 51.69771 | 6.45980 | 81° | 38km/h | 20779m | 3.6m/s | -55.3°C | 4.7% | 51.8hPa | 2.6V | 00:00:00 | 01:31:44 | 00:00:00 | |
| BUE01 | 2026-09-06 00:50:07 | 51.69769 | 6.45955 | 82° | 33km/h | 20769m | 5.3m/s | -55.3°C | 1.6% | 52.0hPa | 2.6V | 00:00:00 | 00:00:00 | 00:00:00 | |
| DM0DOS-11 | 2026-09-06 00:50:06 | 51.69769 | 6.45881 | 90° | 42km/h | 20743m | 5.7m/s | -55.3°C | 4.7% | 52.2hPa | 2.6V | 08:30:00 | 01:31:37 | 00:00:00 | |
| DO2JMG | 2026-09-06 00:50:05 | 51.69768 | 6.45941 | 86° | 35km/h | 20764m | 4.2m/s | -55.3°C | 1.4% | 52hPa | 2.6V | 18:12:15 | 01:31:41 | 00:00:00 | |
| AA1-15 | 2026-09-06 00:49:59 | 51.69768 | 6.45847 | 88° | 40km/h | 20735m | 4.1m/s | -55.4°C | 1.5% | 52.2hPa | 2.5V | 18:12:15 | 01:31:35 | 00:00:00 | |
| BIOWL1-15 | 2026-09-06 00:49:57 | 51.69763 | 6.45758 | 79° | 37km/h | 20707m | 3.5m/s | -55.6°C | 1.5% | 52.5hPa | 2.5V | 18:12:15 | 01:31:29 | 00:00:00 | |
| DK5PH-5 | 2026-09-06 00:49:57 | 51.69767 | 6.45816 | 89° | 38km/h | 20725m | 4.3m/s | -55.4°C | 4.7% | 52.3hPa | 2.5V | 00:00:00 | 01:31:33 | 00:00:00 | |
| DL1XH-15 | 2026-09-06 00:49:56 | 51.69765 | 6.45773 | 80° | 38km/h | 20711m | 4.9m/s | -55.6°C | 4.8% | 52.4hPa | 2.5V | 08:30:00 | 01:31:30 | 00:00:00 | |
| DM0DOS-11 | 2026-09-06 00:49:56 | 51.69761 | 6.45730 | 83° | 33km/h | 20697m | 5.1m/s | -55.6°C | 4.8% | 52.5hPa | 2.6V | 08:30:00 | 01:31:27 | 00:00:00 | |
| DO2JMG | 2026-09-06 00:49:55 | 51.69766 | 6.45788 | 83° | 37km/h | 20716m | 5.6m/s | -55.6°C | 1.4% | 52.4hPa | 2.6V | 18:12:15 | 01:31:31 | 00:00:00 | |
| DL1XH-west | 2026-09-06 00:49:49 | 51.69760 | 6.45703 | 90° | 33km/h | 20689m | 4.3m/s | -55.5°C | 1.5% | 52.6hPa | 2.5V | 18:12:15 | 01:31:25 | 00:00:00 | |
| DL1XH-15 | 2026-09-06 00:49:47 | 51.69757 | 6.45623 | 83° | 40km/h | 20665m | 4.6m/s | -55.6°C | 4.8% | 52.8hPa | 2.5V | 08:30:00 | 01:31:20 | 00:00:00 | |
| DM0DOS-11 | 2026-09-06 00:49:46 | 51.69753 | 6.45570 | 83° | 46km/h | 20650m | 4.3m/s | -55.5°C | 4.8% | 53hPa | 2.6V | 08:30:00 | 01:31:17 | 00:00:00 | |
| DO2JMG | 2026-09-06 00:49:44 | 51.69757 | 6.45623 | 83° | 40km/h | 20665m | 4.6m/s | -55.6°C | 1.5% | 52.8hPa | 2.5V | 18:12:15 | 01:31:20 | 00:00:00 | |
| AA1-15 | 2026-09-06 00:49:38 | 51.69748 | 6.45519 | 80° | 38km/h | 20637m | 4.4m/s | -55.4°C | 1.5% | 53.1hPa | 2.5V | 18:12:15 | 01:31:14 | 00:00:00 | |
| DJ2KF-10 | 2026-09-06 00:49:38 | 51.69748 | 6.45519 | 80° | 37km/h | 20637m | 4.4m/s | -55.4°C | 4.8% | 53.0hPa | 2.5V | 00:00:00 | 01:31:14 | 08:30:00 | |
| DL1XH-15 | 2026-09-06 00:49:37 | 51.69744 | 6.45458 | 85° | 40km/h | 20618m | 4.3m/s | -55.2°C | 4.8% | 53.2hPa | 2.5V | 08:30:00 | 01:31:10 | 00:00:00 | |
| DM0DOS-11 | 2026-09-06 00:49:36 | 51.69740 | 6.45410 | 79° | 40km/h | 20603m | 4.1m/s | -55.1°C | 4.7% | 53.3hPa | 2.6V | 08:30:00 | 01:31:07 | 00:00:00 | |
| DO2JMG | 2026-09-06 00:49:34 | 51.69744 | 6.45458 | 85° | 40km/h | 20618m | 4.3m/s | -55.3°C | 1.5% | 53.2hPa | 2.5V | 18:12:15 | 01:31:10 | 00:00:00 | |
| DL1XH-west | 2026-09-06 00:49:28 | 51.69735 | 6.45363 | 81° | 38km/h | 20588m | 4.6m/s | -55°C | 1.4% | 53.5hPa | 2.5V | 18:12:15 | 01:31:04 | 00:00:00 | |
| AA1-15 | 2026-09-06 00:49:27 | 51.69733 | 6.45348 | 78° | 37km/h | 20583m | 5.9m/s | -55°C | 1.4% | 53.5hPa | 2.5V | 18:12:15 | 01:31:03 | 00:00:00 | |
| DK5PH-5 | 2026-09-06 00:49:27 | 51.69733 | 6.45348 | 78° | 35km/h | 20583m | 5.8m/s | -54.9°C | 4.6% | 53.4hPa | 2.5V | 00:00:00 | 01:31:03 | 00:00:00 | |
| DM0DOS-11 | 2026-09-06 00:49:26 | 51.69725 | 6.45260 | 80° | 40km/h | 20553m | 5.5m/s | -55°C | 4.6% | 53.7hPa | 2.6V | 08:30:00 | 01:30:57 | 00:00:00 | |
| DL1XH-15 | 2026-09-06 00:49:26 | 51.69728 | 6.45306 | 84° | 37km/h | 20567m | 5.5m/s | -55°C | 4.6% | 53.6hPa | 2.5V | 08:30:00 | 01:31:00 | 00:00:00 | |
| DO2JMG | 2026-09-06 00:49:24 | 51.69728 | 6.45306 | 85° | 37km/h | 20567m | 5.6m/s | -55°C | 1.4% | 53.6hPa | 2.5V | 18:12:15 | 01:31:00 | 00:00:00 | |
| BIOWL1-15 | 2026-09-06 00:49:23 | 51.69728 | 6.45291 | 86° | 37km/h | 20562m | 4.1m/s | -55°C | 1.4% | 53.6hPa | 2.5V | 18:12:15 | 01:30:59 | 00:00:00 | |
| AA1-15 | 2026-09-06 00:49:17 | 51.69719 | 6.45195 | 86° | 40km/h | 20533m | 5.4m/s | -55°C | 1.4% | 53.9hPa | 2.5V | 18:12:15 | 01:30:53 | 00:00:00 | |
| DL1XH-15 | 2026-09-06 00:49:16 | 51.69717 | 6.45150 | 81° | 35km/h | 20518m | 6m/s | -55°C | 4.7% | 54hPa | 2.5V | 08:30:00 | 01:30:50 | 00:00:00 | |
| BIOWL1-15 | 2026-09-06 00:49:16 | 51.69714 | 6.45124 | 83° | 31km/h | 20508m | 4.6m/s | -55°C | 1.4% | 54.1hPa | 2.5V | 18:12:15 | 01:30:48 | 00:00:00 | |
| DO2JMG | 2026-09-06 00:49:13 | 51.69716 | 6.45137 | 80° | 31km/h | 20513m | 4m/s | -55°C | 1.5% | 54.1hPa | 2.5V | 18:12:15 | 01:30:49 | 00:00:00 | |
| AA1-15 | 2026-09-06 00:49:07 | 51.69712 | 6.45057 | 80° | 35km/h | 20483m | 5.2m/s | -54.9°C | 1.4% | 54.4hPa | 2.5V | 18:12:15 | 01:30:43 | 00:00:00 | |
| DM0DOS-11 | 2026-09-06 00:49:06 | 51.69704 | 6.44978 | 80° | 33km/h | 20454m | 5.8m/s | -54.7°C | 4.5% | 54.6hPa | 2.6V | 08:30:00 | 01:30:37 | 00:00:00 | |
| DL1XH-15 | 2026-09-06 00:49:04 | 51.69707 | 6.45018 | 81° | 33km/h | 20469m | 5.8m/s | -54.8°C | 4.6% | 54.4hPa | 2.5V | 08:30:00 | 01:30:40 | 00:00:00 | |
| DO2JMG | 2026-09-06 00:49:02 | 51.69705 | 6.44992 | 84° | 33km/h | 20459m | 4.7m/s | -54.7°C | 1.4% | 54.5hPa | 2.5V | 18:12:15 | 01:30:38 | 00:00:00 | |
| DL1ZP-14 | 2026-09-06 00:49:01 | 51.69702 | 6.44965 | 78° | 33km/h | 20449m | 4.0m/s | -54.7°C | 1.5% | 54.6hPa | 2.6V | 00:00:00 | 00:00:00 | 00:00:00 | |
| DO1YAY-16 | 2026-09-06 00:48:57 | 51.69698 | 6.44912 | 82° | 31km/h | 20429m | 5.2m/s | -54.7°C | 1.5% | 54.8hPa | 2.6V | 00:00:00 | 00:00:00 | 00:00:00 | |
| DM0DOS-11 | 2026-09-06 00:48:56 | 51.69690 | 6.44852 | 77° | 27km/h | 20403m | 4.5m/s | -54.6°C | 4.5% | 55hPa | 2.6V | 08:30:00 | 01:30:27 | 00:00:00 | |
| DL1XH-15 | 2026-09-06 00:48:56 | 51.69695 | 6.44887 | 74° | 31km/h | 20419m | 4.6m/s | -54.7°C | 4.6% | 54.9hPa | 2.5V | 08:30:00 | 01:30:30 | 00:00:00 | |
| AA1-15 | 2026-09-06 00:48:56 | 51.69698 | 6.44912 | 82° | 31km/h | 20429m | 5.2m/s | -54.7°C | 1.3% | 54.8hPa | 2.6V | 18:12:15 | 01:30:32 | 00:00:00 | |
| DO2JMG | 2026-09-06 00:48:52 | 51.69692 | 6.44864 | 78° | 29km/h | 20408m | 5.4m/s | -54.7°C | 1.3% | 55hPa | 2.5V | 18:12:15 | 01:30:28 | 00:00:00 | |
| GOEST3-10 | 2026-09-06 00:48:50 | 51.69688 | 6.44841 | 74° | 27km/h | 20398m | 6.0m/s | -54.6°C | 4.5% | 55.0hPa | 2.6V | 00:00:00 | 01:30:26 | 00:00:00 | |
| DO9LL-15 | 2026-09-06 00:48:49 | 51.69686 | 6.44830 | 70° | 20km/h | 20392m | 5.2m/s | -54.5°C | 4.5% | 55.1hPa | 2.5V | 00:00:00 | 01:30:25 | 00:00:00 | |
| DL1XH-15 | 2026-09-06 00:48:46 | 51.69679 | 6.44778 | 81° | 26km/h | 20366m | 5.4m/s | -54.6°C | 4.6% | 55.3hPa | 2.5V | 08:30:00 | 01:30:20 | 00:00:00 | |
| DM0DOS-11 | 2026-09-06 00:48:46 | 51.69674 | 6.44750 | 68° | 22km/h | 20351m | 5.2m/s | -54.7°C | 4.6% | 55.5hPa | 2.6V | 08:30:00 | 01:30:17 | 00:00:00 | |
| DL1XH-west | 2026-09-06 00:48:45 | 51.69680 | 6.44788 | 85° | 26km/h | 20372m | 4.4m/s | -54.7°C | 1.3% | 55.3hPa | 2.6V | 18:12:15 | 01:30:21 | 00:00:00 | |
| DO2JMG | 2026-09-06 00:48:41 | 51.69673 | 6.44750 | 69° | 22km/h | 20351m | 5.2m/s | -54.7°C | 1.4% | 55.5hPa | 2.6V | 18:12:15 | 01:30:17 | 00:00:00 | |
| MET0W-2 | 2026-09-06 00:48:41 | 51.69672 | 6.44742 | 70° | 20km/h | 20346m | 6.1m/s | -54.7°C | 1.6% | 55.5hPa | 2.6V | 00:00:00 | 00:00:00 | 00:00:00 | |
| GOEST3-10 | 2026-09-06 00:48:40 | 51.69671 | 6.44742 | 71° | 22km/h | 20346m | 6.0m/s | -54.7°C | 4.6% | 55.4hPa | 2.6V | 00:00:00 | 01:30:16 | 00:00:00 | |
| DD1CC9-15 | 2026-09-06 00:48:39 | 51.69670 | 6.44734 | 70° | 20km/h | 20340m | 5.2m/s | -54.7°C | 1.6% | 55.6hPa | 2.6V | 00:00:00 | 00:00:00 | 00:00:00 | |
| DJ2KF-10 | 2026-09-06 00:48:38 | 51.69667 | 6.44726 | 63° | 20km/h | 20335m | 5.5m/s | -54.7°C | 4.6% | 55.6hPa | 2.6V | 00:00:00 | 01:30:14 | 00:00:00 | |
| DD1CC1-15 | 2026-09-06 00:48:37 | 51.69667 | 6.44726 | 63° | 20km/h | 20335m | 5.5m/s | -54.8°C | 1.6% | 55.6hPa | 2.6V | 00:00:00 | 00:00:00 | 00:00:00 | |
| DM0DOS-11 | 2026-09-06 00:48:36 | 51.69651 | 6.44663 | 75° | 24km/h | 20298m | 5.4m/s | -54.8°C | 4.7% | 55.9hPa | 2.6V | 08:30:00 | 01:30:07 | 00:00:00 | |
| BIOWL1-15 | 2026-09-06 00:48:35 | 51.69659 | 6.44702 | 63° | 26km/h | 20320m | 6m/s | -54.8°C | 1.4% | 55.7hPa | 2.6V | 18:12:15 | 01:30:11 | 00:00:00 | |
| DL1XH-west | 2026-09-06 00:48:34 | 51.69656 | 6.44692 | 72° | 26km/h | 20314m | 6.4m/s | -54.8°C | 1.5% | 55.8hPa | 2.5V | 18:12:15 | 01:30:10 | 00:00:00 | |
| DO2JMG | 2026-09-06 00:48:30 | 51.69650 | 6.44654 | 81° | 20km/h | 20293m | 4.6m/s | -54.8°C | 1.4% | 56hPa | 2.6V | 18:12:15 | 01:30:06 | 00:00:00 | |
| DL1ZP-14 | 2026-09-06 00:48:30 | 51.69650 | 6.44647 | 90° | 18km/h | 20288m | 6.2m/s | -54.8°C | 1.6% | 56.0hPa | 2.5V | 00:00:00 | 00:00:00 | 00:00:00 | |
| DK5PH-5 | 2026-09-06 00:48:27 | 51.69651 | 6.44634 | 116° | 18km/h | 20276m | 5.1m/s | -54.8°C | 4.7% | 56.1hPa | 2.6V | 00:00:00 | 01:30:03 | 00:00:00 | |
| DM0DOS-11 | 2026-09-06 00:48:26 | 51.69656 | 6.44611 | 100° | 11km/h | 20243m | 4.9m/s | -54.6°C | 4.7% | 56.4hPa | 2.6V | 08:30:00 | 01:29:57 | 00:00:00 | |
| DL1XH-west | 2026-09-06 00:48:24 | 51.69654 | 6.44622 | 101° | 7km/h | 20260m | 4.4m/s | -54.8°C | 1.5% | 56.3hPa | 2.5V | 18:12:15 | 01:30:00 | 00:00:00 | |
| AA1-15 | 2026-09-06 00:48:23 | 51.69655 | 6.44619 | 107° | 7km/h | 20255m | 6.1m/s | -54.7°C | 1.4% | 56.3hPa | 2.5V | 18:12:15 | 01:29:59 | 00:00:00 | |
| DO2JMG | 2026-09-06 00:48:19 | 51.69656 | 6.44599 | 79° | 18km/h | 20232m | 5.8m/s | -54.6°C | 1.4% | 56.5hPa | 2.5V | 18:12:15 | 01:29:55 | 00:00:00 | |
| DD1CC9-15 | 2026-09-06 00:48:17 | 51.69655 | 6.44592 | 77° | 20km/h | 20227m | 4.4m/s | -54.5°C | 1.6% | 56.6hPa | 2.5V | 00:00:00 | 00:00:00 | 00:00:00 | |
| DL1XH-15 | 2026-09-06 00:48:16 | 51.69654 | 6.44557 | 100° | 20km/h | 20207m | 4.8m/s | -54.4°C | 4.6% | 56.8hPa | 2.5V | 08:30:00 | 01:29:50 | 00:00:00 | |
| DM0DOS-11 | 2026-09-06 00:48:16 | 51.69656 | 6.44534 | 98° | 18km/h | 20191m | 4.7m/s | -54.3°C | 4.5% | 56.9hPa | 2.6V | 08:30:00 | 01:29:47 | 00:00:00 | |
| BIOWL1-15 | 2026-09-06 00:48:15 | 51.69653 | 6.44566 | 96° | 22km/h | 20212m | 5.5m/s | -54.4°C | 1.4% | 56.7hPa | 2.6V | 18:12:15 | 01:29:51 | 00:00:00 | |
| DL1XH-west | 2026-09-06 00:48:13 | 51.69655 | 6.44549 | 100° | 20km/h | 20202m | 5.6m/s | -54.3°C | 1.4% | 56.8hPa | 2.5V | 18:12:15 | 01:29:49 | 00:00:00 | |
| AA1-15 | 2026-09-06 00:48:12 | 51.69656 | 6.44542 | 98° | 18km/h | 20196m | 5.2m/s | -54.3°C | 1.3% | 56.8hPa | 2.5V | 18:12:15 | 01:29:48 | 00:00:00 | |
| DO2JMG | 2026-09-06 00:48:09 | 51.69658 | 6.44518 | 102° | 22km/h | 20180m | 5.5m/s | -54.3°C | 1.4% | 57hPa | 2.5V | 18:12:15 | 01:29:45 | 00:00:00 | |
| DH3RM | 2026-09-06 00:48:08 | 51.69659 | 6.44509 | 99° | 24km/h | 20175m | 4.0m/s | -54.3°C | 1.5% | 57.0hPa | 2.5V | 00:00:00 | 00:00:00 | 00:00:00 | |
| DL1XH-15 | 2026-09-06 00:48:06 | 51.69659 | 6.44470 | 92° | 26km/h | 20154m | 6m/s | -54.2°C | 4.5% | 57.2hPa | 2.5V | 08:30:00 | 01:29:40 | 00:00:00 | |
| DM0DOS-11 | 2026-09-06 00:48:06 | 51.69661 | 6.44444 | 97° | 16km/h | 20138m | 5.9m/s | -54.1°C | 4.5% | 57.4hPa | 2.6V | 08:30:00 | 01:29:37 | 00:00:00 | |
| BIOWL1-15 | 2026-09-06 00:48:04 | 51.69659 | 6.44470 | 92° | 26km/h | 20155m | 6m/s | -54.2°C | 1.4% | 57.2hPa | 2.5V | 18:12:15 | 01:29:40 | 00:00:00 | |
| DL1XH-west | 2026-09-06 00:48:03 | 51.69660 | 6.44460 | 96° | 24km/h | 20149m | 4.9m/s | -54.2°C | 1.4% | 57.2hPa | 2.5V | 18:12:15 | 01:29:39 | 00:00:00 | |
| AA1-15 | 2026-09-06 00:48:02 | 51.69660 | 6.44451 | 97° | 22km/h | 20144m | 5.5m/s | -54.2°C | 1.4% | 57.3hPa | 2.5V | 18:12:15 | 01:29:38 | 00:00:00 | |
| DO2JMG | 2026-09-06 00:47:58 | 51.69665 | 6.44426 | 122° | 16km/h | 20123m | 6.1m/s | -54°C | 1.3% | 57.5hPa | 2.5V | 18:12:15 | 01:29:34 | 00:00:00 | |
| BIOWL1-15 | 2026-09-06 00:47:58 | 51.69673 | 6.44398 | 104° | 22km/h | 20102m | 3.8m/s | -53.9°C | 1.3% | 57.7hPa | 2.5V | 18:12:15 | 01:29:30 | 00:00:00 | |
| DL3AQ-11 | 2026-09-06 00:47:58 | 51.69667 | 6.44420 | 121° | 18km/h | 20117m | 4.6m/s | -54.0°C | 1.5% | 57.5hPa | 2.5V | 00:00:00 | 00:00:00 | 00:00:00 | |
| DK5PH-5 | 2026-09-06 00:47:57 | 51.69667 | 6.44420 | 122° | 24km/h | 20117m | 4.5m/s | -53.9°C | 4.5% | 57.5hPa | 2.5V | 00:00:00 | 01:29:33 | 00:00:00 | |
| DD1CC1-15 | 2026-09-06 00:47:56 | 51.69667 | 6.44420 | 122° | 18km/h | 20117m | 4.6m/s | -54.0°C | 1.5% | 57.5hPa | 2.6V | 00:00:00 | 00:00:00 | 00:00:00 | |
| DM0DOS-11 | 2026-09-06 00:47:55 | 51.69678 | 6.44370 | 108° | 27km/h | 20086m | 4.5m/s | -53.8°C | 4.5% | 57.8hPa | 2.6V | 08:30:00 | 01:29:27 | 00:00:00 | |
| DL1XH-west | 2026-09-06 00:47:53 | 51.69674 | 6.44389 | 107° | 24km/h | 20098m | 5.8m/s | -53.8°C | 1.3% | 57.7hPa | 2.5V | 18:12:15 | 01:29:29 | 00:00:00 | |
| AA1-15 | 2026-09-06 00:47:51 | 51.69678 | 6.44370 | 109° | 27km/h | 20086m | 4.5m/s | -53.8°C | 1.3% | 57.8hPa | 2.6V | 18:12:15 | 01:29:27 | 00:00:00 | |
| DO2JMG | 2026-09-06 00:47:48 | 51.69683 | 6.44340 | 106° | 24km/h | 20070m | 5.2m/s | -53.8°C | 1.3% | 57.9hPa | 2.5V | 18:12:15 | 01:29:24 | 00:00:00 | |
| DL1XH-15 | 2026-09-06 00:47:46 | 51.69693 | 6.44304 | 105° | 15km/h | 20044m | 4.4m/s | -53.9°C | 4.5% | 58.2hPa | 2.5V | 08:30:00 | 01:29:19 | 00:00:00 | |
| DC6BW-12 | 2026-09-06 00:47:45 | 51.69690 | 6.44316 | 121° | 18km/h | 20055m | 4.4m/s | -53.9°C | 1.6% | 58.1hPa | 2.6V | 00:00:00 | 00:00:00 | 00:00:00 | |
| DM0DOS-11 | 2026-09-06 00:47:43 | 51.69696 | 6.44290 | 106° | 20km/h | 20035m | 6.2m/s | -53.8°C | 4.5% | 58.2hPa | 2.6V | 08:30:00 | 01:29:17 | 00:00:00 | |
| BIOWL1-15 | 2026-09-06 00:47:43 | 51.69693 | 6.44304 | 106° | 15km/h | 20044m | 4.4m/s | -53.9°C | 1.3% | 58.2hPa | 2.5V | 18:12:15 | 01:29:19 | 00:00:00 | |
| DL1XH-west | 2026-09-06 00:47:43 | 51.69694 | 6.44298 | 103° | 16km/h | 20040m | 4.4m/s | -53.8°C | 1.3% | 58.2hPa | 2.5V | 18:12:15 | 01:29:18 | 00:00:00 | |
| AA1-15 | 2026-09-06 00:47:41 | 51.69697 | 6.44282 | 109° | 24km/h | 20029m | 5.4m/s | -53.8°C | 1.3% | 58.4hPa | 2.6V | 18:12:15 | 01:29:16 | 00:00:00 | |
| DO2JMG | 2026-09-06 00:47:38 | 51.69701 | 6.44261 | 105° | 29km/h | 20018m | 6m/s | -53.7°C | 1.4% | 58.4hPa | 2.5V | 18:12:15 | 01:29:14 | 00:00:00 | |
| DD1CC9-15 | 2026-09-06 00:47:37 | 51.69701 | 6.44261 | 106° | 29km/h | 20018m | 6.0m/s | -53.7°C | 1.6% | 58.4hPa | 2.5V | 00:00:00 | 00:00:00 | 00:00:00 | |
| DL1XH-15 | 2026-09-06 00:47:36 | 51.69716 | 6.44208 | 122° | 27km/h | 19992m | 4.8m/s | -53.7°C | 4.4% | 58.7hPa | 2.5V | 08:30:00 | 01:29:09 | 00:00:00 | |
| BIOWL1-15 | 2026-09-06 00:47:33 | 51.69716 | 6.44208 | 122° | 27km/h | 19992m | 4.8m/s | -53.7°C | 1.3% | 58.7hPa | 2.5V | 18:12:15 | 01:29:09 | 00:00:00 | |
| DL1XH-west | 2026-09-06 00:47:32 | 51.69720 | 6.44198 | 119° | 26km/h | 19987m | 6.2m/s | -53.7°C | 1.3% | 58.7hPa | 2.5V | 18:12:15 | 01:29:08 | 00:00:00 | |
| AA1-15 | 2026-09-06 00:47:30 | 51.69725 | 6.44181 | 117° | 22km/h | 19977m | 4.4m/s | -53.7°C | 1.3% | 58.8hPa | 2.6V | 18:12:15 | 01:29:06 | 00:00:00 | |
| DO2JMG | 2026-09-06 00:47:27 | 51.69734 | 6.44159 | 123° | 22km/h | 19960m | 5.3m/s | -53.6°C | 1.2% | 59hPa | 2.5V | 18:12:15 | 01:29:03 | 00:00:00 | |
| BIOWL1-15 | 2026-09-06 00:47:22 | 51.69751 | 6.44122 | 137° | 27km/h | 19935m | 4.7m/s | -53.6°C | 1.2% | 59.2hPa | 2.5V | 18:12:15 | 01:28:58 | 00:00:00 | |
| DL1XH-west | 2026-09-06 00:47:21 | 51.69756 | 6.44114 | 135° | 29km/h | 19930m | 5.8m/s | -53.6°C | 1.3% | 59.3hPa | 2.6V | 18:12:15 | 01:28:57 | 00:00:00 | |
| AA1-15 | 2026-09-06 00:47:19 | 51.69766 | 6.44096 | 130° | 29km/h | 19920m | 4.7m/s | -53.7°C | 1.2% | 59.3hPa | 2.5V | 18:12:15 | 01:28:55 | 00:00:00 | |
| DO2JMG | 2026-09-06 00:47:16 | 51.69781 | 6.44069 | 135° | 29km/h | 19904m | 4.6m/s | -53.6°C | 1.2% | 59.5hPa | 2.6V | 18:12:15 | 01:28:52 | 00:00:00 | |
| DM0DOS-11 | 2026-09-06 00:47:16 | 51.69800 | 6.44029 | 127° | 26km/h | 19879m | 5.6m/s | -53.7°C | 4.2% | 59.7hPa | 2.6V | 08:30:00 | 01:28:47 | 00:00:00 | |
| DL1XH-west | 2026-09-06 00:47:11 | 51.69800 | 6.44029 | 127° | 26km/h | 19879m | 5.6m/s | -53.7°C | 1.2% | 59.7hPa | 2.6V | 18:12:15 | 01:28:47 | 00:00:00 | |
| BIOWL1-15 | 2026-09-06 00:47:11 | 51.69826 | 6.43971 | 129° | 35km/h | 19849m | 5.8m/s | -54.1°C | 1.2% | 60hPa | 2.6V | 18:12:15 | 01:28:41 | 00:00:00 | |
| AA1-15 | 2026-09-06 00:47:08 | 51.69812 | 6.44002 | 122° | 29km/h | 19864m | 5.3m/s | -53.8°C | 1.3% | 59.9hPa | 2.5V | 18:12:15 | 01:28:44 | 00:00:00 | |
| DO2JMG | 2026-09-06 00:47:06 | 51.69821 | 6.43981 | 125° | 33km/h | 19854m | 4.6m/s | -53.9°C | 1.2% | 59.9hPa | 2.6V | 18:12:15 | 01:28:42 | 00:00:00 | |
| DL1XH-west | 2026-09-06 00:47:00 | 51.69851 | 6.43921 | 124° | 26km/h | 19824m | 4.1m/s | -54.3°C | 1.2% | 60.2hPa | 2.6V | 18:12:15 | 01:28:36 | 00:00:00 | |
| BIOWL1-15 | 2026-09-06 00:46:58 | 51.69859 | 6.43904 | 127° | 27km/h | 19814m | 5.2m/s | -54.6°C | 1.2% | 60.3hPa | 2.5V | 18:12:15 | 01:28:34 | 00:00:00 | |
| AA1-15 | 2026-09-06 00:46:57 | 51.69863 | 6.43894 | 127° | 29km/h | 19809m | 4.8m/s | -54.8°C | 1.3% | 60.3hPa | 2.5V | 18:12:15 | 01:28:33 | 00:00:00 | |
| DO2JMG | 2026-09-06 00:46:55 | 51.69872 | 6.43873 | 120° | 31km/h | 19799m | 5.6m/s | -54.9°C | 1.3% | 60.4hPa | 2.6V | 18:12:15 | 01:28:31 | 00:00:00 | |
| DL3AQ-11 | 2026-09-06 00:46:54 | 51.69880 | 6.43849 | 122° | 37km/h | 19789m | 5.3m/s | -55.3°C | 1.6% | 60.5hPa | 2.6V | 00:00:00 | 00:00:00 | 00:00:00 | |
| DM0DOS-11 | 2026-09-06 00:46:53 | 51.69892 | 6.43823 | 128° | 42km/h | 19778m | 4.9m/s | -55.6°C | 4.7% | 60.6hPa | 2.6V | 08:30:00 | 01:28:27 | 00:00:00 | |
| DL1XH-west | 2026-09-06 00:46:50 | 51.69898 | 6.43810 | 129° | 42km/h | 19773m | 5.4m/s | -55.8°C | 1.5% | 60.7hPa | 2.6V | 18:12:15 | 01:28:26 | 00:00:00 | |
| BIOWL1-15 | 2026-09-06 00:46:47 | 51.69919 | 6.43770 | 131° | 44km/h | 19758m | 5.3m/s | -55.9°C | 1.5% | 60.8hPa | 2.5V | 18:12:15 | 01:28:23 | 00:00:00 | |
| DM0DOS-11 | 2026-09-06 00:46:46 | 51.69953 | 6.43684 | 113° | 42km/h | 19728m | 5.8m/s | -55.7°C | 4.8% | 61.1hPa | 2.6V | 08:30:00 | 01:28:17 | 00:00:00 | |
| AA1-15 | 2026-09-06 00:46:46 | 51.69926 | 6.43756 | 131° | 44km/h | 19753m | 5.1m/s | -55.8°C | 1.5% | 60.9hPa | 2.6V | 18:12:15 | 01:28:22 | 00:00:00 | |
| DO2JMG | 2026-09-06 00:46:45 | 51.69933 | 6.43742 | 128° | 44km/h | 19749m | 4.1m/s | -55.8°C | 1.6% | 60.9hPa | 2.6V | 18:12:15 | 01:28:21 | 00:00:00 | |
| DL1XH-west | 2026-09-06 00:46:40 | 51.69957 | 6.43668 | 115° | 42km/h | 19723m | 4.9m/s | -55.7°C | 1.6% | 61.2hPa | 2.6V | 18:12:15 | 01:28:16 | 00:00:00 | |
| BIOWL1-15 | 2026-09-06 00:46:36 | 51.69996 | 6.43556 | 125° | 37km/h | 19683m | 5.4m/s | -55.7°C | 1.6% | 61.5hPa | 2.5V | 18:12:15 | 01:28:08 | 00:00:00 | |
| DO2JMG | 2026-09-06 00:46:35 | 51.69979 | 6.43596 | 121° | 40km/h | 19699m | 6m/s | -55.6°C | 1.5% | 61.4hPa | 2.6V | 18:12:15 | 01:28:11 | 00:00:00 | |
| DD1CC1-15 | 2026-09-06 00:46:34 | 51.69985 | 6.43582 | 126° | 42km/h | 19693m | 4.9m/s | -55.6°C | 1.7% | 61.5hPa | 2.6V | 00:00:00 | 00:00:00 | 00:00:00 | |
| DL1XH-15 | 2026-09-06 00:46:32 | 51.70002 | 6.43544 | 122° | 37km/h | 19678m | 4.2m/s | -55.7°C | 4.8% | 61.6hPa | 2.6V | 08:30:00 | 01:28:07 | 00:00:00 | |
| DL1XH-west | 2026-09-06 00:46:29 | 51.70011 | 6.43517 | 119° | 40km/h | 19669m | 5.7m/s | -55.8°C | 1.5% | 61.7hPa | 2.5V | 18:12:15 | 01:28:05 | 00:00:00 | |
| AA1-15 | 2026-09-06 00:46:25 | 51.70027 | 6.43462 | 112° | 33km/h | 19649m | 4.5m/s | -55.8°C | 1.5% | 61.9hPa | 2.6V | 18:12:15 | 01:28:01 | 00:00:00 | |
| DO2JMG | 2026-09-06 00:46:24 | 51.70030 | 6.43450 | 113° | 35km/h | 19644m | 5.9m/s | -55.8°C | 1.5% | 61.9hPa | 2.5V | 18:12:15 | 01:28:00 | 00:00:00 | |
| BIOWL1-15 | 2026-09-06 00:46:22 | 51.70061 | 6.43335 | 110° | 31km/h | 19599m | 5.9m/s | -55.6°C | 1.6% | 62.4hPa | 2.6V | 18:12:15 | 01:27:51 | 00:00:00 | |
| DL1XH-15 | 2026-09-06 00:46:22 | 51.70041 | 6.43410 | 115° | 35km/h | 19629m | 4.4m/s | -55.7°C | 4.8% | 62.1hPa | 2.6V | 08:30:00 | 01:27:57 | 00:00:00 | |
| DL1XH-west | 2026-09-06 00:46:18 | 51.70051 | 6.43373 | 112° | 33km/h | 19614m | 5.7m/s | -55.7°C | 1.5% | 62.2hPa | 2.5V | 18:12:15 | 01:27:54 | 00:00:00 | |
| AA1-15 | 2026-09-06 00:46:14 | 51.70063 | 6.43324 | 110° | 29km/h | 19594m | 3.9m/s | -55.5°C | 1.6% | 62.4hPa | 2.5V | 18:12:15 | 01:27:50 | 00:00:00 | |
| DM0DOS-11 | 2026-09-06 00:46:13 | 51.70071 | 6.43291 | 112° | 27km/h | 19579m | 4.3m/s | -55.4°C | 4.9% | 62.5hPa | 2.6V | 08:30:00 | 01:27:47 | 00:00:00 | |
| DO2JMG | 2026-09-06 00:46:13 | 51.70066 | 6.43313 | 111° | 27km/h | 19590m | 4m/s | -55.5°C | 1.6% | 62.5hPa | 2.5V | 18:12:15 | 01:27:49 | 00:00:00 | |
| DB0NH | 2026-09-06 00:46:10 | 51.70074 | 6.43281 | 111° | 24km/h | 19575m | 4.5m/s | -55.3°C | 4.8% | 62.6hPa | 2.6V | 00:00:00 | 01:27:46 | 00:00:00 | |
| DM0DOS-11 | 2026-09-06 00:46:08 | 51.70087 | 6.43188 | 108° | 26km/h | 19530m | 4.8m/s | -55°C | 4.6% | 63hPa | 2.6V | 08:30:00 | 01:27:37 | 00:00:00 | |
| DL1XH-west | 2026-09-06 00:46:07 | 51.70079 | 6.43253 | 103° | 26km/h | 19560m | 5.5m/s | -55.2°C | 1.5% | 62.8hPa | 2.5V | 18:12:15 | 01:27:43 | 00:00:00 | |
| DB0UT-7 | 2026-09-06 00:46:07 | 51.70080 | 6.43242 | 103° | 22km/h | 19555m | 5.2m/s | -55.1°C | 4.7% | 62.7hPa | 2.6V | 00:00:00 | 01:27:42 | 00:00:00 | |
| MET0W-2 | 2026-09-06 00:46:06 | 51.70082 | 6.43231 | 102° | 29km/h | 19550m | 4.8m/s | -55.1°C | 1.6% | 62.9hPa | 2.6V | 00:00:00 | 00:00:00 | 00:00:00 | |
| GOEST3-10 | 2026-09-06 00:46:05 | 51.70082 | 6.43231 | 103° | 27km/h | 19550m | 4.7m/s | -55.1°C | 4.7% | 62.8hPa | 2.6V | 00:00:00 | 00:00:00 | 00:00:00 | |
| DL1XH-15 | 2026-09-06 00:46:04 | 51.70093 | 6.43168 | 119° | 26km/h | 19520m | 4.2m/s | -54.9°C | 4.6% | 63.1hPa | 2.5V | 08:30:00 | 01:27:35 | 00:00:00 | |
| AA1-15 | 2026-09-06 00:46:04 | 51.70083 | 6.43219 | 101° | 29km/h | 19545m | 4.9m/s | -55.1°C | 1.4% | 62.9hPa | 2.5V | 18:12:15 | 01:27:40 | 00:00:00 | |
| DO2JMG | 2026-09-06 00:46:02 | 51.70086 | 6.43198 | 104° | 26km/h | 19534m | 3.9m/s | -55°C | 1.4% | 63hPa | 2.5V | 18:12:15 | 01:27:38 | 00:00:00 | |
| DL1XH-west | 2026-09-06 00:45:57 | 51.70109 | 6.43131 | 118° | 24km/h | 19494m | 5.6m/s | -54.8°C | 1.4% | 63.4hPa | 2.5V | 18:12:15 | 01:27:30 | 00:00:00 | |
| AA1-15 | 2026-09-06 00:45:54 | 51.70117 | 6.43093 | 104° | 24km/h | 19476m | 4.4m/s | -54.7°C | 1.4% | 63.6hPa | 2.6V | 18:12:15 | 01:27:26 | 00:00:00 | |
| DM0DOS-11 | 2026-09-06 00:45:54 | 51.70115 | 6.43103 | 104° | 26km/h | 19481m | 6m/s | -54.7°C | 4.5% | 63.5hPa | 2.6V | 08:30:00 | 01:27:27 | 00:00:00 | |
| DO2JMG | 2026-09-06 00:45:53 | 51.70113 | 6.43113 | 108° | 26km/h | 19485m | 3.6m/s | -54.7°C | 1.4% | 63.5hPa | 2.5V | 18:12:15 | 01:27:28 | 00:00:00 | |
| BIOWL1-15 | 2026-09-06 00:45:51 | 51.70122 | 6.43067 | 111° | 24km/h | 19462m | 5.5m/s | -54.8°C | 1.3% | 63.7hPa | 2.5V | 18:12:15 | 01:27:23 | 00:00:00 | |
| DL1XH-15 | 2026-09-06 00:45:51 | 51.70118 | 6.43084 | 105° | 22km/h | 19472m | 3m/s | -54.7°C | 4.5% | 63.6hPa | 2.5V | 08:30:00 | 01:27:25 | 00:00:00 | |
| DL1XH-west | 2026-09-06 00:45:45 | 51.70127 | 6.43050 | 120° | 24km/h | 19452m | 4.2m/s | -54.8°C | 1.4% | 63.8hPa | 2.6V | 18:12:15 | 01:27:21 | 00:00:00 | |
| GOEST3-10 | 2026-09-06 00:45:44 | 51.70130 | 6.43042 | 121° | 18km/h | 19448m | 4.7m/s | -54.8°C | 4.5% | 63.8hPa | 2.6V | 00:00:00 | 00:00:00 | 00:00:00 | |
| DM0DOS-11 | 2026-09-06 00:45:42 | 51.70136 | 6.43023 | 120° | 16km/h | 19432m | 5.8m/s | -55.1°C | 4.6% | 64hPa | 2.6V | 08:30:00 | 01:27:17 | 00:00:00 | |
| DO2JMG | 2026-09-06 00:45:42 | 51.70134 | 6.43029 | 121° | 16km/h | 19437m | 4.6m/s | -55°C | 1.4% | 64hPa | 2.5V | 18:12:15 | 01:27:18 | 00:00:00 | |
| BIOWL1-15 | 2026-09-06 00:45:40 | 51.70139 | 6.43017 | 119° | 18km/h | 19426m | 5.5m/s | -55.2°C | 1.5% | 64.1hPa | 2.6V | 18:12:15 | 01:27:16 | 00:00:00 | |
| DL1XH-west | 2026-09-06 00:45:35 | 51.70152 | 6.42987 | 132° | 22km/h | 19402m | 6.2m/s | -55.5°C | 1.6% | 64.3hPa | 2.6V | 18:12:15 | 01:27:11 | 00:00:00 | |
| GOEST3-10 | 2026-09-06 00:45:34 | 51.70156 | 6.42980 | 139° | 24km/h | 19397m | 4.3m/s | -55.5°C | 4.9% | 64.3hPa | 2.5V | 00:00:00 | 00:00:00 | 08:30:00 | |
| DD1CC1-15 | 2026-09-06 00:45:33 | 51.70156 | 6.42980 | 140° | 24km/h | 19397m | 4.3m/s | 0°C | 0% | 0hPa | 2.6V | 00:00:00 | 00:00:00 | 00:00:00 | |
| DM0DOS-11 | 2026-09-06 00:45:32 | 51.70171 | 6.42966 | 160° | 22km/h | 19382m | 4.2m/s | -55.5°C | 4.9% | 64.5hPa | 2.6V | 08:30:00 | 01:27:07 | 00:00:00 | |
| DO2JMG | 2026-09-06 00:45:31 | 51.70170 | 6.42966 | 160° | 22km/h | 19382m | 4.2m/s | -55.5°C | 1.6% | 64.5hPa | 2.6V | 18:12:15 | 01:27:07 | 00:00:00 | |
| DL1XH-15 | 2026-09-06 00:45:30 | 51.70182 | 6.42960 | 162° | 26km/h | 19372m | 5.8m/s | -55.5°C | 4.9% | 64.6hPa | 2.5V | 08:30:00 | 01:27:05 | 00:00:00 | |
| BIOWL1-15 | 2026-09-06 00:45:29 | 51.70195 | 6.42954 | 168° | 24km/h | 19362m | 5.7m/s | -55.5°C | 1.5% | 64.7hPa | 2.5V | 18:12:15 | 01:27:03 | 00:00:00 | |
| DL1XH-west | 2026-09-06 00:45:24 | 51.70212 | 6.42947 | 157° | 24km/h | 19347m | 5.9m/s | -55.4°C | 1.5% | 64.9hPa | 2.5V | 18:12:15 | 01:27:00 | 00:00:00 | |
| DM0DOS-11 | 2026-09-06 00:45:22 | 51.70229 | 6.42932 | 150° | 26km/h | 19331m | 5.5m/s | -55.2°C | 4.8% | 65hPa | 2.6V | 08:30:00 | 01:26:57 | 00:00:00 | |
| BIOWL1-15 | 2026-09-06 00:45:21 | 51.70240 | 6.42922 | 152° | 26km/h | 19322m | 3.9m/s | -55.1°C | 1.5% | 65.1hPa | 2.5V | 18:12:15 | 01:26:55 | 00:00:00 | |
| DO2JMG | 2026-09-06 00:45:20 | 51.70234 | 6.42927 | 152° | 26km/h | 19326m | 4.5m/s | -55.2°C | 1.6% | 65.1hPa | 2.6V | 18:12:15 | 01:26:56 | 00:00:00 | |
| DO9LL-15 | 2026-09-06 00:45:19 | 51.70240 | 6.42922 | 153° | 26km/h | 19322m | 3.8m/s | -55.1°C | 4.8% | 65.1hPa | 2.6V | 00:00:00 | 01:26:55 | 00:00:00 | |
| DJ2KF-10 | 2026-09-06 00:45:18 | 51.70246 | 6.42917 | 151° | 27km/h | 19317m | 5.2m/s | -55.1°C | 4.8% | 65.1hPa | 2.6V | 00:00:00 | 01:26:54 | 00:00:00 | |
| HTAHTA | 2026-09-06 00:45:17 | 51.70258 | 6.42905 | 148° | 29km/h | 19307m | 4.3m/s | -55.0°C | 1.6% | 65.3hPa | 2.6V | 00:00:00 | 00:00:00 | 00:00:00 | |
| WPPR-10 | 2026-09-06 00:45:16 | 51.70265 | 6.42899 | 150° | 27km/h | 19302m | 4.8m/s | -55.0°C | 1.7% | 65.3hPa | 2.6V | 00:00:00 | 00:00:00 | 00:00:00 | |
| GOEST3-10 | 2026-09-06 00:45:14 | 51.70271 | 6.42893 | 154° | 26km/h | 19297m | 5.3m/s | -54.9°C | 4.7% | 65.3hPa | 2.6V | 00:00:00 | 00:00:00 | 00:00:00 | |
| DD1CC9-15 | 2026-09-06 00:45:13 | 51.70271 | 6.42893 | 154° | 26km/h | 19297m | 5.4m/s | 0°C | 0% | 0hPa | 2.6V | 00:00:00 | 00:00:00 | 00:00:00 | |
| DM0DOS-11 | 2026-09-06 00:45:12 | 51.70287 | 6.42879 | 145° | 26km/h | 19282m | 5.1m/s | -54.8°C | 4.7% | 65.5hPa | 2.6V | 08:30:00 | 01:26:47 | 00:00:00 | |
| DL1XH-west | 2026-09-06 00:45:10 | 51.70292 | 6.42873 | 140° | 26km/h | 19277m | 4.2m/s | -54.8°C | 1.5% | 65.6hPa | 2.6V | 18:12:15 | 01:26:46 | 00:00:00 | |
| BIOWL1-15 | 2026-09-06 00:45:08 | 51.70317 | 6.42830 | 131° | 29km/h | 19249m | 4.1m/s | -54.6°C | 1.5% | 65.8hPa | 2.5V | 18:12:15 | 01:26:40 | 00:00:00 | |
| GOEST3-10 | 2026-09-06 00:45:08 | 51.70301 | 6.42860 | 133° | 24km/h | 19267m | 5.0m/s | -54.7°C | 4.7% | 65.6hPa | 2.6V | 00:00:00 | 01:26:44 | 00:00:00 | |
| DM0DOS-11 | 2026-09-06 00:45:07 | 51.70331 | 6.42804 | 131° | 26km/h | 19235m | 4.7m/s | -54.5°C | 4.7% | 66hPa | 2.6V | 08:30:00 | 01:26:37 | 00:00:00 | |
| DL1XH-15 | 2026-09-06 00:45:07 | 51.70308 | 6.42846 | 130° | 24km/h | 19259m | 4.5m/s | -54.7°C | 4.7% | 65.8hPa | 2.6V | 08:30:00 | 01:26:42 | 00:00:00 | |
| DL1XH-west | 2026-09-06 00:44:59 | 51.70340 | 6.42789 | 138° | 27km/h | 19226m | 6m/s | -54.4°C | 1.4% | 66.1hPa | 2.5V | 18:12:15 | 01:26:35 | 00:00:00 | |
| GOEST3-10 | 2026-09-06 00:44:58 | 51.70345 | 6.42782 | 143° | 26km/h | 19220m | 5.4m/s | -54.3°C | 4.7% | 66.1hPa | 2.5V | 00:00:00 | 01:26:34 | 00:00:00 | |
| DK5PH-5 | 2026-09-06 00:44:57 | 51.70351 | 6.42775 | 146° | 29km/h | 19216m | 3.8m/s | -54.3°C | 4.7% | 66.1hPa | 2.5V | 00:00:00 | 01:26:33 | 00:00:00 | |
| DM0DOS-11 | 2026-09-06 00:44:56 | 51.70385 | 6.42740 | 143° | 29km/h | 19185m | 5.2m/s | -54.2°C | 4.6% | 66.5hPa | 2.6V | 08:30:00 | 01:26:27 | 00:00:00 | |
| DL1XH-15 | 2026-09-06 00:44:56 | 51.70356 | 6.42770 | 146° | 26km/h | 19211m | 5.9m/s | -54.3°C | 4.6% | 66.2hPa | 2.6V | 08:30:00 | 01:26:32 | 00:00:00 | |
| BIOWL1-15 | 2026-09-06 00:44:53 | 51.70373 | 6.42753 | 148° | 27km/h | 19196m | 5.9m/s | -54.2°C | 1.4% | 66.4hPa | 2.5V | 18:12:15 | 01:26:29 | 00:00:00 | |
| DL1XH-west | 2026-09-06 00:44:48 | 51.70401 | 6.42718 | 135° | 29km/h | 19170m | 5.3m/s | -54.1°C | 1.4% | 66.7hPa | 2.5V | 18:12:15 | 01:26:24 | 00:00:00 | |
| DL1XH-15 | 2026-09-06 00:44:46 | 51.70417 | 6.42690 | 132° | 29km/h | 19155m | 6m/s | -54°C | 4.6% | 66.8hPa | 2.6V | 08:30:00 | 01:26:21 | 00:00:00 | |
| HTAHTA | 2026-09-06 00:44:46 | 51.70417 | 6.42690 | 132° | 27km/h | 19155m | 6.0m/s | -54.0°C | 1.6% | 66.8hPa | 2.5V | 00:00:00 | 00:00:00 | 00:00:00 | |
| BIOWL1-15 | 2026-09-06 00:44:43 | 51.70426 | 6.42675 | 135° | 26km/h | 19145m | 4.4m/s | -54°C | 1.4% | 66.9hPa | 2.5V | 18:12:15 | 01:26:19 | 00:00:00 | |
| DO2JMG | 2026-09-06 00:44:38 | 51.70451 | 6.42638 | 134° | 26km/h | 19120m | 3.9m/s | -53.8°C | 1.4% | 67.2hPa | 2.5V | 18:12:15 | 01:26:14 | 00:00:00 | |
| DL1XH-west | 2026-09-06 00:44:37 | 51.70455 | 6.42630 | 135° | 27km/h | 19116m | 4.5m/s | -53.8°C | 1.4% | 67.2hPa | 2.5V | 18:12:15 | 01:26:13 | 00:00:00 | |
| BIOWL1-15 | 2026-09-06 00:44:32 | 51.70502 | 6.42545 | 121° | 31km/h | 19070m | 5.6m/s | -53.4°C | 1.4% | 67.7hPa | 2.5V | 18:12:15 | 01:26:04 | 00:00:00 | |
| DO2JMG | 2026-09-06 00:44:27 | 51.70506 | 6.42534 | 119° | 29km/h | 19065m | 5.2m/s | -53.4°C | 1.4% | 67.8hPa | 2.5V | 18:12:15 | 01:26:03 | 00:00:00 | |
| DK5PH-5 | 2026-09-06 00:44:27 | 51.70506 | 6.42534 | 119° | 33km/h | 19065m | 5.1m/s | -53.3°C | 4.5% | 67.7hPa | 2.7V | 00:00:00 | 01:26:03 | 00:00:00 | |
| DM0DOS-11 | 2026-09-06 00:44:26 | 51.70531 | 6.42471 | 124° | 29km/h | 19035m | 4.5m/s | -53.2°C | 4.4% | 68.1hPa | 2.7V | 08:30:00 | 01:25:57 | 00:00:00 | |
| DL1XH-west | 2026-09-06 00:44:26 | 51.70509 | 6.42523 | 120° | 29km/h | 19060m | 3.9m/s | -53.4°C | 1.3% | 67.8hPa | 2.6V | 18:12:15 | 01:26:02 | 00:00:00 | |
| BIOWL1-15 | 2026-09-06 00:44:22 | 51.70527 | 6.42481 | 126° | 31km/h | 19040m | 5.9m/s | -53.3°C | 1.3% | 68hPa | 2.5V | 18:12:15 | 01:25:58 | 00:00:00 | |
| DL1ZP-14 | 2026-09-06 00:44:21 | 51.70531 | 6.42471 | 124° | 29km/h | 19035m | 4.5m/s | -53.2°C | 1.6% | 68.1hPa | 2.7V | 00:00:00 | 00:00:00 | 00:00:00 | |
| DO9LL-15 | 2026-09-06 00:44:19 | 51.70540 | 6.42451 | 127° | 35km/h | 19026m | 5.9m/s | -53.1°C | 4.3% | 68.1hPa | 2.5V | 00:00:00 | 01:25:55 | 00:00:00 | |
| DL1XH-15 | 2026-09-06 00:44:18 | 51.70562 | 6.42396 | 119° | 31km/h | 19001m | 4.8m/s | -53°C | 4.2% | 68.4hPa | 2.5V | 08:30:00 | 01:25:50 | 00:00:00 | |
| GOEST3-10 | 2026-09-06 00:44:18 | 51.70545 | 6.42440 | 125° | 33km/h | 19020m | 4.7m/s | -53.1°C | 4.3% | 68.2hPa | 2.5V | 00:00:00 | 01:25:54 | 00:00:00 | |
| AU51GT2 | 2026-09-06 00:44:17 | 51.70554 | 6.42418 | 120° | 31km/h | 19010m | 5.5m/s | -53.0°C | 1.5% | 68.4hPa | 2.7V | 00:00:00 | 00:00:00 | 00:00:00 | |
| DM0DOS-11 | 2026-09-06 00:44:16 | 51.70575 | 6.42360 | 121° | 35km/h | 18986m | 4.8m/s | -53°C | 4.2% | 68.6hPa | 2.7V | 08:30:00 | 01:25:47 | 00:00:00 | |
| DO2JMG | 2026-09-06 00:44:16 | 51.70554 | 6.42418 | 120° | 31km/h | 19010m | 5.5m/s | -53°C | 1.3% | 68.4hPa | 2.7V | 18:12:15 | 01:25:52 | 00:00:00 | |
| DL1XH-west | 2026-09-06 00:44:15 | 51.70558 | 6.42407 | 119° | 31km/h | 19005m | 3.6m/s | -53°C | 1.3% | 68.4hPa | 2.6V | 18:12:15 | 01:25:51 | 00:00:00 | |
| BIOWL1-15 | 2026-09-06 00:44:11 | 51.70584 | 6.42337 | 118° | 33km/h | 18976m | 4.7m/s | -53°C | 1.2% | 68.7hPa | 2.5V | 18:12:15 | 01:25:45 | 00:00:00 | |
| DB0NH | 2026-09-06 00:44:10 | 51.70580 | 6.42348 | 120° | 37km/h | 18981m | 5.3m/s | -52.9°C | 4.2% | 68.6hPa | 2.5V | 00:00:00 | 01:25:46 | 00:00:00 | |
| GOEST3-10 | 2026-09-06 00:44:08 | 51.70588 | 6.42325 | 119° | 33km/h | 18971m | 5.7m/s | -52.9°C | 4.2% | 68.7hPa | 2.5V | 00:00:00 | 01:25:44 | 00:00:00 | |
| DL1XH-15 | 2026-09-06 00:44:07 | 51.70607 | 6.42265 | 118° | 31km/h | 18945m | 4.4m/s | -53.1°C | 4.2% | 69hPa | 2.5V | 08:30:00 | 01:25:39 | 00:00:00 | |
| DH3RM | 2026-09-06 00:44:07 | 51.70592 | 6.42312 | 120° | 35km/h | 18965m | 5.2m/s | -53.0°C | 1.5% | 68.8hPa | 2.7V | 00:00:00 | 00:00:00 | 00:00:00 | |
| DM0DOS-11 | 2026-09-06 00:44:06 | 51.70616 | 6.42243 | 123° | 33km/h | 18935m | 5m/s | -53.1°C | 4.2% | 69.2hPa | 2.7V | 08:30:00 | 01:25:37 | 00:00:00 | |
| DO2JMG | 2026-09-06 00:44:05 | 51.70600 | 6.42288 | 117° | 33km/h | 18955m | 5.6m/s | -53°C | 1.3% | 69hPa | 2.6V | 18:12:15 | 01:25:41 | 00:00:00 | |
| DL1XH-west | 2026-09-06 00:44:04 | 51.70604 | 6.42276 | 117° | 31km/h | 18950m | 4.7m/s | -53.1°C | 1.2% | 69hPa | 2.5V | 18:12:15 | 01:25:40 | 00:00:00 | |
| BIOWL1-15 | 2026-09-06 00:44:01 | 51.70616 | 6.42243 | 123° | 33km/h | 18935m | 5m/s | -53.1°C | 1.3% | 69.2hPa | 2.7V | 18:12:15 | 01:25:37 | 00:00:00 | |
| DL3AQ-11 | 2026-09-06 00:43:58 | 51.70633 | 6.42194 | 117° | 37km/h | 18916m | 4.9m/s | -53.1°C | 1.5% | 69.4hPa | 2.7V | 00:00:00 | 00:00:00 | 00:00:00 | |
| BIOWL9-15 | 2026-09-06 00:43:57 | 51.70638 | 6.42180 | 119° | 38km/h | 18910m | 6.0m/s | -53.2°C | 1.4% | 69.4hPa | 2.7V | 00:00:00 | 00:00:00 | 00:00:00 | |
| DM0DOS-11 | 2026-09-06 00:43:55 | 51.70662 | 6.42112 | 126° | 38km/h | 18884m | 6m/s | -53.7°C | 4.1% | 69.7hPa | 2.7V | 08:30:00 | 01:25:27 | 00:00:00 | |
| DO2JMG | 2026-09-06 00:43:54 | 51.70648 | 6.42152 | 118° | 40km/h | 18900m | 5.7m/s | -53.4°C | 1.2% | 69.5hPa | 2.5V | 18:12:15 | 01:25:30 | 00:00:00 | |
| DL1XH-west | 2026-09-06 00:43:53 | 51.70652 | 6.42138 | 119° | 38km/h | 18895m | 5m/s | -53.5°C | 1.2% | 69.6hPa | 2.5V | 18:12:15 | 01:25:29 | 00:00:00 | |
| BIOWL1-15 | 2026-09-06 00:43:50 | 51.70668 | 6.42100 | 129° | 37km/h | 18879m | 4.7m/s | -53.9°C | 1.2% | 69.8hPa | 2.6V | 18:12:15 | 01:25:26 | 00:00:00 | |
| DL1ZP-14 | 2026-09-06 00:43:50 | 51.70674 | 6.42089 | 127° | 35km/h | 18875m | 4.1m/s | -54.1°C | 1.5% | 69.8hPa | 2.5V | 00:00:00 | 00:00:00 | 00:00:00 | |
| AU51GT2 | 2026-09-06 00:43:46 | 51.70689 | 6.42040 | 108° | 37km/h | 18856m | 6.0m/s | -54.7°C | 1.6% | 70.0hPa | 2.7V | 00:00:00 | 00:00:00 | 00:00:00 | |
| DM0DOS-11 | 2026-09-06 00:43:45 | 51.70699 | 6.41971 | 100° | 42km/h | 18834m | 5m/s | -54.9°C | 4.6% | 70.2hPa | 2.7V | 08:30:00 | 01:25:17 | 00:00:00 | |
| DO2JMG | 2026-09-06 00:43:44 | 51.70692 | 6.42024 | 106° | 44km/h | 18849m | 5.8m/s | -54.8°C | 1.4% | 70.1hPa | 2.5V | 18:12:15 | 01:25:20 | 00:00:00 | |
| DL1XH-west | 2026-09-06 00:43:43 | 51.70695 | 6.42007 | 104° | 46km/h | 18844m | 4.9m/s | -54.9°C | 1.5% | 70.2hPa | 2.5V | 18:12:15 | 01:25:19 | 00:00:00 | |
| BIOWL1-15 | 2026-09-06 00:43:41 | 51.70704 | 6.41939 | 105° | 40km/h | 18825m | 5.1m/s | -55°C | 1.5% | 70.3hPa | 2.5V | 18:12:15 | 01:25:15 | 00:00:00 | |
| HARRO8 | 2026-09-06 00:43:40 | 51.70704 | 6.41939 | 104° | 40km/h | 18825m | 5.1m/s | -55.0°C | 1.7% | 70.3hPa | 2.7V | 00:00:00 | 00:00:00 | 00:00:00 | |
| DL1XH-15 | 2026-09-06 00:43:36 | 51.70714 | 6.41893 | 112° | 38km/h | 18809m | 5.7m/s | -55.1°C | 4.7% | 70.5hPa | 2.7V | 08:30:00 | 01:25:12 | 00:00:00 | |
| DB0UT-7 | 2026-09-06 00:43:36 | 51.70714 | 6.41893 | 113° | 47km/h | 18809m | 5.7m/s | -55.1°C | 4.7% | 70.5hPa | 2.7V | 00:00:00 | 00:00:00 | 00:00:00 | |
| DM0DOS-11 | 2026-09-06 00:43:35 | 51.70732 | 6.41813 | 108° | 47km/h | 18785m | 4.7m/s | -55.1°C | 4.6% | 70.8hPa | 2.7V | 08:30:00 | 01:25:07 | 00:00:00 | |
| DO2JMG | 2026-09-06 00:43:34 | 51.70721 | 6.41864 | 110° | 40km/h | 18800m | 3.8m/s | -55.1°C | 1.5% | 70.6hPa | 2.5V | 18:12:15 | 01:25:10 | 00:00:00 | |
| DL1XH-west | 2026-09-06 00:43:33 | 51.70724 | 6.41848 | 110° | 42km/h | 18795m | 5.4m/s | -55.2°C | 1.5% | 70.7hPa | 2.5V | 18:12:15 | 01:25:09 | 00:00:00 | |
| BIOWL1-15 | 2026-09-06 00:43:29 | 51.70739 | 6.41776 | 104° | 46km/h | 18775m | 4.6m/s | -55.2°C | 1.5% | 70.9hPa | 2.5V | 18:12:15 | 01:25:05 | 00:00:00 | |
| DJ3KS | 2026-09-06 00:43:28 | 51.70738 | 6.41776 | 105° | 47km/h | 18775m | 4.6m/s | -55.2°C | 1.7% | 70.9hPa | 2.7V | 00:00:00 | 00:00:00 | 00:00:00 | |
| DL1XH-15 | 2026-09-06 00:43:26 | 51.70749 | 6.41722 | 109° | 47km/h | 18760m | 5.6m/s | -55.2°C | 4.6% | 71.1hPa | 2.7V | 08:30:00 | 01:25:02 | 00:00:00 | |
| BIOWL9-15 | 2026-09-06 00:43:26 | 51.70753 | 6.41704 | 112° | 46km/h | 18756m | 4.5m/s | -55.3°C | 1.7% | 71.1hPa | 2.7V | 00:00:00 | 00:00:00 | 00:00:00 | |
| DM0DOS-11 | 2026-09-06 00:43:25 | 51.70771 | 6.41636 | 115° | 47km/h | 18735m | 6.5m/s | -55.5°C | 4.7% | 71.3hPa | 2.7V | 08:30:00 | 01:24:57 | 00:00:00 | |
| DO2JMG | 2026-09-06 00:43:23 | 51.70761 | 6.41670 | 112° | 44km/h | 18745m | 5.4m/s | -55.4°C | 1.5% | 71.3hPa | 2.5V | 18:12:15 | 01:24:59 | 00:00:00 | |
| DL1XH-west | 2026-09-06 00:43:22 | 51.70766 | 6.41653 | 113° | 46km/h | 18740m | 4.6m/s | -55.5°C | 1.5% | 71.3hPa | 2.5V | 18:12:15 | 01:24:58 | 00:00:00 | |
| BIOWL1-15 | 2026-09-06 00:43:21 | 51.70782 | 6.41599 | 117° | 53km/h | 18724m | 4.3m/s | -55.5°C | 1.6% | 71.5hPa | 2.5V | 18:12:15 | 01:24:55 | 00:00:00 | |
| AA1-15 | 2026-09-06 00:43:13 | 51.70821 | 6.41484 | 120° | 53km/h | 18693m | 6m/s | -55.6°C | 1.5% | 71.8hPa | 2.5V | 18:12:15 | 01:24:49 | 00:00:00 | |
| DL1XH-west | 2026-09-06 00:43:12 | 51.70827 | 6.41466 | 120° | 51km/h | 18688m | 5m/s | -55.6°C | 1.6% | 71.9hPa | 2.5V | 18:12:15 | 01:24:48 | 00:00:00 | |
| DL1XH-15 | 2026-09-06 00:43:11 | 51.70868 | 6.41360 | 123° | 51km/h | 18657m | 4.5m/s | -55.9°C | 5% | 72.2hPa | 2.7V | 08:30:00 | 01:24:42 | 00:00:00 | |
| BIOWL1-15 | 2026-09-06 00:43:08 | 51.70875 | 6.41342 | 124° | 53km/h | 18651m | 6.2m/s | -55.9°C | 1.7% | 72.3hPa | 2.6V | 18:12:15 | 01:24:41 | 00:00:00 | |
| AA1-15 | 2026-09-06 00:43:03 | 51.70892 | 6.41305 | 127° | 57km/h | 18641m | 4.3m/s | -55.9°C | 1.6% | 72.4hPa | 2.5V | 18:12:15 | 01:24:39 | 00:00:00 | |
| GOEST3-10 | 2026-09-06 00:43:03 | 51.70892 | 6.41305 | 127° | 58km/h | 18641m | 4.2m/s | -55.8°C | 4.9% | 72.4hPa | 2.5V | 00:00:00 | 00:00:00 | 00:00:00 | |
| DH3RM | 2026-09-06 00:43:02 | 51.70892 | 6.41305 | 128° | 58km/h | 18641m | 4.3m/s | -55.9°C | 1.8% | 72.4hPa | 2.7V | 00:00:00 | 00:00:00 | 00:00:00 | |
| DL1XH-15 | 2026-09-06 00:43:01 | 51.70957 | 6.41173 | 128° | 57km/h | 18605m | 5.1m/s | -55.8°C | 4.8% | 72.8hPa | 2.7V | 08:30:00 | 01:24:32 | 00:00:00 | |
| DL1XH-west | 2026-09-06 00:43:01 | 51.70909 | 6.41268 | 128° | 58km/h | 18631m | 4.1m/s | -55.8°C | 1.7% | 72.5hPa | 2.7V | 18:12:15 | 01:24:37 | 00:00:00 | |
| BIOWL1-15 | 2026-09-06 00:42:58 | 51.70957 | 6.41173 | 128° | 57km/h | 18605m | 5.1m/s | -55.8°C | 1.6% | 72.8hPa | 2.7V | 18:12:15 | 01:24:32 | 00:00:00 | |
| GOEST3-10 | 2026-09-06 00:42:58 | 51.70938 | 6.41211 | 130° | 57km/h | 18615m | 4.6m/s | -55.8°C | 4.8% | 72.7hPa | 2.7V | 00:00:00 | 01:24:34 | 00:00:00 | |
| DK5PH-5 | 2026-09-06 00:42:57 | 51.70948 | 6.41192 | 130° | 55km/h | 18610m | 5.4m/s | -55.8°C | 4.9% | 72.7hPa | 2.7V | 00:00:00 | 01:24:33 | 00:00:00 | |
| DH3RM | 2026-09-06 00:42:56 | 51.70947 | 6.41192 | 130° | 60km/h | 18610m | 5.4m/s | -55.8°C | 1.8% | 72.7hPa | 2.7V | 00:00:00 | 00:00:00 | 00:00:00 | |
| DM0DOS-11 | 2026-09-06 00:42:55 | 51.70997 | 6.41088 | 123° | 49km/h | 18581m | 5.9m/s | -55.9°C | 4.9% | 73.1hPa | 2.7V | 08:30:00 | 01:24:27 | 00:00:00 | |
| AA1-15 | 2026-09-06 00:42:52 | 51.70990 | 6.41105 | 125° | 51km/h | 18586m | 4.2m/s | -55.9°C | 1.6% | 73hPa | 2.5V | 18:12:15 | 01:24:28 | 00:00:00 | |
| DO2JMG | 2026-09-06 00:42:50 | 51.71003 | 6.41071 | 120° | 49km/h | 18575m | 4.8m/s | -55.9°C | 1.6% | 73.2hPa | 2.7V | 18:12:15 | 01:24:26 | 00:00:00 | |
| BIOWL1-15 | 2026-09-06 00:42:46 | 51.71029 | 6.40994 | 120° | 58km/h | 18558m | 3.5m/s | -56°C | 1.6% | 73.4hPa | 2.7V | 18:12:15 | 01:24:22 | 00:00:00 | |
| DM0DOS-11 | 2026-09-06 00:42:45 | 51.71062 | 6.40893 | 118° | 55km/h | 18534m | 5.7m/s | -55.9°C | 4.9% | 73.6hPa | 2.7V | 08:30:00 | 01:24:17 | 00:00:00 | |
| AA1-15 | 2026-09-06 00:42:42 | 51.71056 | 6.40913 | 117° | 55km/h | 18539m | 3.9m/s | -55.9°C | 1.7% | 73.6hPa | 2.5V | 18:12:15 | 01:24:18 | 00:00:00 | |
| DL1XH-west | 2026-09-06 00:42:40 | 51.71069 | 6.40874 | 119° | 55km/h | 18529m | 4.5m/s | -55.9°C | 1.7% | 73.7hPa | 2.7V | 18:12:15 | 01:24:16 | 00:00:00 | |
| DO2JMG | 2026-09-06 00:42:39 | 51.71075 | 6.40855 | 117° | 53km/h | 18525m | 4m/s | -55.8°C | 1.7% | 73.7hPa | 2.5V | 18:12:15 | 01:24:15 | 00:00:00 | |
| BIOWL1-15 | 2026-09-06 00:42:35 | 51.71092 | 6.40774 | 105° | 55km/h | 18505m | 5.6m/s | -55.7°C | 1.6% | 74hPa | 2.7V | 18:12:15 | 01:24:11 | 00:00:00 | |
| DM0DOS-11 | 2026-09-06 00:42:35 | 51.71108 | 6.40688 | 105° | 55km/h | 18486m | 5.2m/s | -55.7°C | 4.8% | 74.2hPa | 2.7V | 08:30:00 | 01:24:07 | 00:00:00 | |
| AA1-15 | 2026-09-06 00:42:31 | 51.71108 | 6.40688 | 106° | 55km/h | 18486m | 5.2m/s | -55.7°C | 1.5% | 74.2hPa | 2.7V | 18:12:15 | 01:24:07 | 00:00:00 | |
| DO2JMG | 2026-09-06 00:42:29 | 51.71116 | 6.40646 | 109° | 55km/h | 18476m | 5.9m/s | -55.7°C | 1.6% | 74.3hPa | 2.5V | 18:12:15 | 01:24:05 | 00:00:00 | |
| BIOWL1-15 | 2026-09-06 00:42:27 | 51.71135 | 6.40561 | 108° | 53km/h | 18457m | 4.6m/s | -55.8°C | 1.5% | 74.6hPa | 2.7V | 18:12:15 | 01:24:01 | 00:00:00 | |
| DM0DOS-11 | 2026-09-06 00:42:25 | 51.71151 | 6.40481 | 106° | 51km/h | 18436m | 4.5m/s | -56°C | 4.8% | 74.8hPa | 2.7V | 08:30:00 | 01:23:57 | 00:00:00 | |
| AA1-15 | 2026-09-06 00:42:21 | 51.71151 | 6.40481 | 106° | 51km/h | 18436m | 4.5m/s | -56°C | 1.6% | 74.8hPa | 2.7V | 18:12:15 | 01:23:57 | 00:00:00 | |
| DL1XH-west | 2026-09-06 00:42:19 | 51.71157 | 6.40442 | 102° | 49km/h | 18426m | 4.8m/s | -56.1°C | 1.6% | 74.9hPa | 2.5V | 18:12:15 | 01:23:55 | 00:00:00 | |
| DO2JMG | 2026-09-06 00:42:18 | 51.71160 | 6.40423 | 104° | 47km/h | 18421m | 5.8m/s | -56.1°C | 1.7% | 75hPa | 2.5V | 18:12:15 | 01:23:54 | 00:00:00 | |
| DL1XH-15 | 2026-09-06 00:42:17 | 51.71165 | 6.40386 | 103° | 46km/h | 18411m | 4.3m/s | -56.2°C | 5% | 75.1hPa | 2.7V | 08:30:00 | 01:23:52 | 00:00:00 | |
| DJ3KS | 2026-09-06 00:42:16 | 51.71163 | 6.40404 | 105° | 47km/h | 18416m | 4.9m/s | -56.1°C | 1.8% | 75.0hPa | 2.7V | 00:00:00 | 00:00:00 | 00:00:00 | |
| DM0DOS-11 | 2026-09-06 00:42:15 | 51.71177 | 6.40296 | 101° | 46km/h | 18386m | 4.2m/s | -56.2°C | 4.9% | 75.4hPa | 2.7V | 08:30:00 | 01:23:47 | 00:00:00 | |
| BIOWL1-15 | 2026-09-06 00:42:15 | 51.71168 | 6.40368 | 101° | 46km/h | 18406m | 5.9m/s | -56.2°C | 1.7% | 75.1hPa | 2.7V | 18:12:15 | 01:23:51 | 00:00:00 | |
| AU51GT2 | 2026-09-06 00:42:13 | 51.71174 | 6.40314 | 101° | 44km/h | 18390m | 5.5m/s | -56.2°C | 1.8% | 75.3hPa | 2.7V | 00:00:00 | 00:00:00 | 00:00:00 | |
| DL1XH-15 | 2026-09-06 00:42:11 | 51.71185 | 6.40199 | 97° | 47km/h | 18361m | 4.3m/s | -56.2°C | 4.9% | 75.7hPa | 2.7V | 08:30:00 | 01:23:42 | 00:00:00 | |
| AA1-15 | 2026-09-06 00:42:11 | 51.71176 | 6.40296 | 102° | 47km/h | 18386m | 4.3m/s | -56.2°C | 1.7% | 75.4hPa | 2.7V | 18:12:15 | 01:23:47 | 00:00:00 | |
| DL1XH-west | 2026-09-06 00:42:08 | 51.71182 | 6.40238 | 97° | 49km/h | 18371m | 4.2m/s | -56.2°C | 1.6% | 75.6hPa | 2.5V | 18:12:15 | 01:23:44 | 00:00:00 | |
| DO2JMG | 2026-09-06 00:42:07 | 51.71183 | 6.40219 | 98° | 47km/h | 18366m | 6.1m/s | -56.2°C | 1.6% | 75.6hPa | 2.6V | 18:12:15 | 01:23:43 | 00:00:00 | |
| BIOWL1-15 | 2026-09-06 00:42:06 | 51.71188 | 6.40160 | 94° | 49km/h | 18351m | 5.2m/s | -56.3°C | 1.7% | 75.8hPa | 2.5V | 18:12:15 | 01:23:40 | 00:00:00 | |
| AA1-15 | 2026-09-06 00:42:00 | 51.71194 | 6.40081 | 102° | 51km/h | 18332m | 4m/s | -56.4°C | 1.7% | 76hPa | 2.7V | 18:12:15 | 01:23:36 | 00:00:00 | |
| DL1XH-west | 2026-09-06 00:41:58 | 51.71199 | 6.40038 | 100° | 57km/h | 18322m | 4.6m/s | -56.6°C | 1.7% | 76.1hPa | 2.5V | 18:12:15 | 01:23:34 | 00:00:00 | |
| DO2JMG | 2026-09-06 00:41:57 | 51.71202 | 6.40016 | 101° | 57km/h | 18318m | 4.2m/s | -56.5°C | 1.7% | 76.2hPa | 2.5V | 18:12:15 | 01:23:33 | 00:00:00 | |
| DL1XH-15 | 2026-09-06 00:41:56 | 51.71205 | 6.39994 | 102° | 57km/h | 18313m | 5.6m/s | -56.5°C | 5.1% | 76.2hPa | 2.7V | 08:30:00 | 01:23:32 | 00:00:00 | |
| BIOWL1-15 | 2026-09-06 00:41:53 | 51.71214 | 6.39929 | 101° | 55km/h | 18298m | 5.6m/s | -56.6°C | 1.7% | 76.4hPa | 2.5V | 18:12:15 | 01:23:29 | 00:00:00 | |
| BIOWL9-15 | 2026-09-06 00:41:53 | 51.71216 | 6.39906 | 98° | 57km/h | 18293m | 5.1m/s | -56.6°C | 1.8% | 76.5hPa | 2.7V | 00:00:00 | 00:00:00 | 00:00:00 | |
| DL1XH-15 | 2026-09-06 00:41:51 | 51.71230 | 6.39767 | 99° | 60km/h | 18264m | 4.6m/s | -56.5°C | 5.1% | 76.8hPa | 2.7V | 08:30:00 | 01:23:22 | 00:00:00 | |
| AA1-15 | 2026-09-06 00:41:50 | 51.71220 | 6.39860 | 98° | 58km/h | 18284m | 4.7m/s | -56.6°C | 1.7% | 76.6hPa | 2.7V | 18:12:15 | 01:23:26 | 00:00:00 | |
| DL1XH-west | 2026-09-06 00:41:48 | 51.71225 | 6.39814 | 100° | 57km/h | 18274m | 4.3m/s | -56.5°C | 1.7% | 76.7hPa | 2.5V | 18:12:15 | 01:23:24 | 00:00:00 | |
| DO2JMG | 2026-09-06 00:41:46 | 51.71230 | 6.39767 | 100° | 60km/h | 18264m | 4.6m/s | -56.5°C | 1.7% | 76.8hPa | 2.7V | 18:12:15 | 01:23:22 | 00:00:00 | |
| DL1ZP-14 | 2026-09-06 00:41:46 | 51.71233 | 6.39743 | 100° | 58km/h | 18259m | 4.4m/s | -56.5°C | 1.8% | 76.9hPa | 2.7V | 00:00:00 | 00:00:00 | 00:00:00 | |
| BIOWL1-15 | 2026-09-06 00:41:42 | 51.71241 | 6.39674 | 101° | 57km/h | 18245m | 4.4m/s | -56.4°C | 1.7% | 77.1hPa | 2.5V | 18:12:15 | 01:23:18 | 00:00:00 | |
| AA1-15 | 2026-09-06 00:41:40 | 51.71246 | 6.39626 | 99° | 62km/h | 18235m | 3.9m/s | -56.4°C | 1.7% | 77.2hPa | 2.7V | 18:12:15 | 01:23:16 | 00:00:00 | |
| DL1XH-west | 2026-09-06 00:41:37 | 51.71254 | 6.39552 | 99° | 62km/h | 18220m | 4.4m/s | -56.3°C | 1.7% | 77.3hPa | 2.5V | 18:12:15 | 01:23:13 | 00:00:00 | |
| DL1XH-15 | 2026-09-06 00:41:37 | 51.71255 | 6.39527 | 96° | 62km/h | 18215m | 5.4m/s | -56.3°C | 5% | 77.4hPa | 2.7V | 08:30:00 | 01:23:12 | 00:00:00 | |
| DO2JMG | 2026-09-06 00:41:36 | 51.71256 | 6.39527 | 97° | 62km/h | 18215m | 5.4m/s | -56.3°C | 1.7% | 77.4hPa | 2.7V | 18:12:15 | 01:23:12 | 00:00:00 | |
| BIOWL1-15 | 2026-09-06 00:41:32 | 51.71262 | 6.39430 | 96° | 57km/h | 18196m | 4.2m/s | -56.3°C | 1.8% | 77.7hPa | 2.5V | 18:12:15 | 01:23:08 | 00:00:00 | |
| DL1XH-west | 2026-09-06 00:41:27 | 51.71269 | 6.39318 | 99° | 53km/h | 18172m | 5m/s | -56.2°C | 1.7% | 77.9hPa | 2.6V | 18:12:15 | 01:23:03 | 00:00:00 | |
| DO2JMG | 2026-09-06 00:41:26 | 51.71271 | 6.39296 | 99° | 53km/h | 18168m | 3.7m/s | -56.2°C | 1.7% | 78hPa | 2.7V | 18:12:15 | 01:23:02 | 00:00:00 | |
| BIOWL1-15 | 2026-09-06 00:41:24 | 51.71279 | 6.39208 | 99° | 55km/h | 18148m | 5.3m/s | -56.1°C | 1.7% | 78.2hPa | 2.6V | 18:12:15 | 01:22:58 | 00:00:00 | |
| DL1XH-west | 2026-09-06 00:41:17 | 51.71284 | 6.39100 | 93° | 49km/h | 18124m | 5.7m/s | -56°C | 1.6% | 78.5hPa | 2.6V | 18:12:15 | 01:22:53 | 00:00:00 | |
| DL1XH-15 | 2026-09-06 00:41:16 | 51.71285 | 6.39080 | 95° | 47km/h | 18119m | 4.2m/s | -55.9°C | 4.9% | 78.6hPa | 2.7V | 08:30:00 | 01:22:52 | 00:00:00 | |
| DO2JMG | 2026-09-06 00:41:16 | 51.71285 | 6.39080 | 96° | 47km/h | 18119m | 4.2m/s | -55.9°C | 1.6% | 78.6hPa | 2.7V | 18:12:15 | 01:22:52 | 00:00:00 | |
| AA1-15 | 2026-09-06 00:41:11 | 51.71296 | 6.38983 | 107° | 47km/h | 18095m | 5.6m/s | -55.8°C | 1.6% | 78.9hPa | 2.7V | 18:12:15 | 01:22:47 | 00:00:00 | |
| AU51GT2 | 2026-09-06 00:41:11 | 51.71299 | 6.38965 | 108° | 46km/h | 18090m | 4.5m/s | -55.8°C | 1.8% | 79.0hPa | 2.7V | 00:00:00 | 00:00:00 | 00:00:00 | |
| DH3RM | 2026-09-06 00:41:09 | 51.71303 | 6.38946 | 110° | 49km/h | 18085m | 5.2m/s | -55.8°C | 1.8% | 79.0hPa | 2.7V | 00:00:00 | 00:00:00 | 00:00:00 | |
| DL1XH-15 | 2026-09-06 00:41:06 | 51.71314 | 6.38888 | 104° | 49km/h | 18071m | 5.5m/s | -55.9°C | 5% | 79.2hPa | 2.7V | 08:30:00 | 01:22:42 | 00:00:00 | |
| DL1XH-west | 2026-09-06 00:41:06 | 51.71314 | 6.38888 | 105° | 49km/h | 18071m | 5.5m/s | -55.9°C | 1.7% | 79.2hPa | 2.7V | 18:12:15 | 01:22:42 | 00:00:00 | |
| DO2JMG | 2026-09-06 00:41:05 | 51.71317 | 6.38869 | 104° | 47km/h | 18066m | 5m/s | -55.9°C | 1.7% | 79.2hPa | 2.7V | 18:12:15 | 01:22:41 | 00:00:00 | |
| HARRO8 | 2026-09-06 00:41:05 | 51.71320 | 6.38850 | 102° | 46km/h | 18062m | 3.5m/s | -55.9°C | 1.8% | 79.3hPa | 2.7V | 00:00:00 | 00:00:00 | 00:00:00 | |
| DM0DOS-11 | 2026-09-06 00:41:04 | 51.71327 | 6.38791 | 100° | 53km/h | 18048m | 4m/s | -55.8°C | 4.9% | 79.5hPa | 2.7V | 08:30:00 | 01:22:37 | 00:00:00 | |
| BIOWL1-15 | 2026-09-06 00:41:02 | 51.71329 | 6.38770 | 102° | 51km/h | 18044m | 3.9m/s | -55.8°C | 1.7% | 79.5hPa | 2.7V | 18:12:15 | 01:22:36 | 00:00:00 | |
| DL1XH-15 | 2026-09-06 00:41:01 | 51.71343 | 6.38701 | 113° | 42km/h | 18026m | 3.8m/s | -56°C | 5% | 79.8hPa | 2.7V | 08:30:00 | 01:22:32 | 00:00:00 | |
| AA1-15 | 2026-09-06 00:40:58 | 51.71335 | 6.38733 | 108° | 44km/h | 18034m | 5.1m/s | -55.8°C | 1.7% | 79.6hPa | 2.5V | 18:12:15 | 01:22:34 | 00:00:00 | |
| DL1XH-west | 2026-09-06 00:40:56 | 51.71343 | 6.38701 | 114° | 42km/h | 18026m | 3.8m/s | -56°C | 1.7% | 79.8hPa | 2.7V | 18:12:15 | 01:22:32 | 00:00:00 | |
| DO2JMG | 2026-09-06 00:40:55 | 51.71347 | 6.38685 | 113° | 44km/h | 18021m | 4.9m/s | -56°C | 1.7% | 79.8hPa | 2.7V | 18:12:15 | 01:22:31 | 00:00:00 | |
| MET0W-2 | 2026-09-06 00:40:55 | 51.71351 | 6.38668 | 110° | 44km/h | 18016m | 4.5m/s | -56.0°C | 1.9% | 79.8hPa | 2.7V | 00:00:00 | 00:00:00 | 00:00:00 | |
| DL1LOL-11 | 2026-09-06 00:40:54 | 51.71351 | 6.38668 | 111° | 46km/h | 18017m | 4.5m/s | -56.0°C | 1.9% | 79.9hPa | 2.7V | 00:00:00 | 00:00:00 | 00:00:00 | |
| DM0DOS-11 | 2026-09-06 00:40:52 | 51.71360 | 6.38617 | 102° | 42km/h | 18003m | 4.7m/s | -55.9°C | 4.9% | 80hPa | 2.7V | 08:30:00 | 01:22:27 | 00:00:00 | |
| DL1XH-15 | 2026-09-06 00:40:51 | 51.71372 | 6.38529 | 105° | 42km/h | 17980m | 5.2m/s | -55.8°C | 4.8% | 80.3hPa | 2.7V | 08:30:00 | 01:22:22 | 00:00:00 | |
| BIOWL1-15 | 2026-09-06 00:40:50 | 51.71363 | 6.38600 | 101° | 44km/h | 17999m | 3.7m/s | -55.9°C | 1.7% | 80.1hPa | 2.7V | 18:12:15 | 01:22:26 | 00:00:00 | |
| BUE01 | 2026-09-06 00:40:48 | 51.71369 | 6.38546 | 103° | 44km/h | 17985m | 4.7m/s | -55.8°C | 1.8% | 80.2hPa | 2.7V | 00:00:00 | 00:00:00 | 00:00:00 | |
| DO9LL-15 | 2026-09-06 00:40:47 | 51.71369 | 6.38546 | 104° | 42km/h | 17985m | 4.6m/s | -55.8°C | 4.8% | 80.2hPa | 2.7V | 00:00:00 | 01:22:23 | 00:00:00 | |
| DM0DOS-11 | 2026-09-06 00:40:46 | 51.71387 | 6.38450 | 103° | 38km/h | 17958m | 5.4m/s | -55.7°C | 4.8% | 80.6hPa | 2.7V | 08:30:00 | 01:22:17 | 00:00:00 | |
| DO2JMG | 2026-09-06 00:40:45 | 51.71375 | 6.38513 | 108° | 40km/h | 17975m | 4.4m/s | -55.8°C | 1.6% | 80.4hPa | 2.7V | 18:12:15 | 01:22:21 | 00:00:00 | |
| BIOWL1-15 | 2026-09-06 00:40:39 | 51.71392 | 6.38420 | 102° | 38km/h | 17948m | 3.9m/s | -55.7°C | 1.6% | 80.7hPa | 2.5V | 18:12:15 | 01:22:15 | 00:00:00 | |
| DL1XH-15 | 2026-09-06 00:40:37 | 51.71400 | 6.38372 | 108° | 42km/h | 17936m | 4.3m/s | -55.7°C | 4.8% | 80.9hPa | 2.7V | 08:30:00 | 01:22:12 | 00:00:00 | |
| DO2JMG | 2026-09-06 00:40:35 | 51.71403 | 6.38356 | 110° | 40km/h | 17931m | 5.2m/s | -55.8°C | 1.6% | 81hPa | 2.7V | 18:12:15 | 01:22:11 | 00:00:00 | |
| DM0DOS-11 | 2026-09-06 00:40:34 | 51.71418 | 6.38294 | 110° | 46km/h | 17912m | 4.4m/s | -56°C | 5% | 81.2hPa | 2.7V | 08:30:00 | 01:22:07 | 00:00:00 | |
| DL1XH-west | 2026-09-06 00:40:34 | 51.71407 | 6.38341 | 112° | 38km/h | 17926m | 4.5m/s | -55.8°C | 1.7% | 81hPa | 2.5V | 18:12:15 | 01:22:10 | 00:00:00 | |
| HARRO8 | 2026-09-06 00:40:34 | 51.71410 | 6.38326 | 112° | 38km/h | 17922m | 4.3m/s | -55.9°C | 1.8% | 81.0hPa | 2.7V | 00:00:00 | 00:00:00 | 00:00:00 | |
| DH3RM | 2026-09-06 00:40:33 | 51.71410 | 6.38326 | 113° | 40km/h | 17922m | 4.3m/s | -55.9°C | 1.8% | 81.0hPa | 2.7V | 00:00:00 | 00:00:00 | 00:00:00 | |
| DL1XH-15 | 2026-09-06 00:40:31 | 51.71435 | 6.38209 | 105° | 46km/h | 17889m | 5.5m/s | -56.2°C | 5% | 81.5hPa | 2.7V | 08:30:00 | 01:22:02 | 00:00:00 | |
| BIOWL1-15 | 2026-09-06 00:40:28 | 51.71429 | 6.38243 | 105° | 42km/h | 17898m | 4.6m/s | -56.1°C | 1.7% | 81.3hPa | 2.5V | 18:12:15 | 01:22:04 | 00:00:00 | |
| DO2JMG | 2026-09-06 00:40:24 | 51.71442 | 6.38174 | 110° | 44km/h | 17880m | 4.6m/s | -56.2°C | 1.7% | 81.6hPa | 2.5V | 18:12:15 | 01:22:00 | 00:00:00 | |
| DL1XH-west | 2026-09-06 00:40:24 | 51.71446 | 6.38157 | 113° | 42km/h | 17876m | 5m/s | -56.2°C | 1.7% | 81.6hPa | 2.6V | 18:12:15 | 01:21:59 | 00:00:00 | |
| AA1-15 | 2026-09-06 00:40:17 | 51.71480 | 6.38059 | 122° | 49km/h | 17848m | 5m/s | -56.2°C | 1.7% | 82hPa | 2.6V | 18:12:15 | 01:21:53 | 00:00:00 | |
| DL1XH-15 | 2026-09-06 00:40:16 | 51.71487 | 6.38042 | 121° | 49km/h | 17844m | 3.9m/s | -56.1°C | 5.1% | 82hPa | 2.7V | 08:30:00 | 01:21:52 | 00:00:00 | |
| DB0ND-19 | 2026-09-06 00:40:16 | 51.71493 | 6.38025 | 120° | 49km/h | 17840m | 4.7m/s | -56.1°C | 1.9% | 82.1hPa | 2.7V | 00:00:00 | 00:00:00 | 00:00:00 | |
| DM0DOS-11 | 2026-09-06 00:40:14 | 51.71519 | 6.37952 | 118° | 51km/h | 17821m | 3.6m/s | -56°C | 5% | 82.3hPa | 2.7V | 08:30:00 | 01:21:47 | 00:00:00 | |
| DO2JMG | 2026-09-06 00:40:14 | 51.71500 | 6.38006 | 120° | 53km/h | 17835m | 5.1m/s | -56.1°C | 1.7% | 82.1hPa | 2.5V | 18:12:15 | 01:21:50 | 00:00:00 | |
| DL1XH-west | 2026-09-06 00:40:12 | 51.71512 | 6.37970 | 119° | 51km/h | 17826m | 5.4m/s | -56°C | 1.7% | 82.3hPa | 2.6V | 18:12:15 | 01:21:48 | 00:00:00 | |
| BIOWL1-15 | 2026-09-06 00:40:06 | 51.71550 | 6.37852 | 117° | 57km/h | 17800m | 4.9m/s | -55.9°C | 1.6% | 82.6hPa | 2.7V | 18:12:15 | 01:21:42 | 00:00:00 | |
| DO2JMG | 2026-09-06 00:40:04 | 51.71562 | 6.37814 | 117° | 49km/h | 17791m | 3.8m/s | -55.8°C | 1.7% | 82.7hPa | 2.6V | 18:12:15 | 01:21:40 | 00:00:00 | |
| DL1XH-west | 2026-09-06 00:40:02 | 51.71573 | 6.37778 | 114° | 49km/h | 17783m | 4.9m/s | -55.8°C | 1.6% | 82.8hPa | 2.6V | 18:12:15 | 01:21:38 | 00:00:00 | |
| DM0DOS-11 | 2026-09-06 00:40:02 | 51.71577 | 6.37759 | 112° | 51km/h | 17778m | 4.1m/s | -55.8°C | 4.9% | 82.9hPa | 2.7V | 08:30:00 | 01:21:37 | 00:00:00 | |
| BIOWL1-15 | 2026-09-06 00:39:57 | 51.71606 | 6.37643 | 109° | 55km/h | 17751m | 4.5m/s | -55.6°C | 1.7% | 83.2hPa | 2.7V | 18:12:15 | 01:21:31 | 00:00:00 | |
| DJ3KS | 2026-09-06 00:39:57 | 51.71597 | 6.37683 | 113° | 49km/h | 17760m | 3.2m/s | -55.6°C | 1.8% | 83.1hPa | 2.7V | 00:00:00 | 00:00:00 | 00:00:00 | |
| DK5PH-5 | 2026-09-06 00:39:56 | 51.71602 | 6.37663 | 111° | 55km/h | 17756m | 5.2m/s | -55.5°C | 4.9% | 83.1hPa | 2.7V | 00:00:00 | 01:21:32 | 00:00:00 | |
| DM0DOS-11 | 2026-09-06 00:39:54 | 51.71624 | 6.37561 | 110° | 53km/h | 17733m | 4.3m/s | -55.5°C | 4.9% | 83.5hPa | 2.7V | 08:30:00 | 01:21:27 | 00:00:00 | |
| Es werden nur die letzten 3500 von 5129 Frames angezeigt. GPX/KML und Diagramme bleiben verfügbar. | |||||||||||||||